<?xml version="1.0" encoding="UTF-8" standalone="no" ?>
<gpx xmlns="http://www.topografix.com/GPX/1/1" xmlns:xsi="http://www.w3.org/2001/XMLSchema-instance" xsi:schemaLocation="http://www.topografix.com/GPX/1/1 http://www.topografix.com/GPX/1/1/gpx.xsd" version="1.1" creator="VisuGPX - https://www.visugpx.com">
  <metadata>
    <name>Fort de Dormillouse</name>
  </metadata>
  <trk>
    <name><![CDATA[Fort de Dormillouse_1]]></name>
    <trkseg>
      <trkpt lat="44.3858" lon="6.39005">
        <ele>1910</ele>
        <time>2020-07-07T06:20:15.000Z</time>
      </trkpt>
      <trkpt lat="44.38581" lon="6.39005">
        <ele>1911</ele>
        <time>2020-07-07T06:20:16.000Z</time>
      </trkpt>
      <trkpt lat="44.38582" lon="6.39004">
        <ele>1912</ele>
        <time>2020-07-07T06:20:17.000Z</time>
      </trkpt>
      <trkpt lat="44.38582" lon="6.39004">
        <ele>1914</ele>
        <time>2020-07-07T06:20:18.000Z</time>
      </trkpt>
      <trkpt lat="44.38583" lon="6.39004">
        <ele>1915</ele>
        <time>2020-07-07T06:20:19.000Z</time>
      </trkpt>
      <trkpt lat="44.38583" lon="6.39003">
        <ele>1916</ele>
        <time>2020-07-07T06:20:20.000Z</time>
      </trkpt>
      <trkpt lat="44.38583" lon="6.39003">
        <ele>1916</ele>
        <time>2020-07-07T06:20:21.000Z</time>
      </trkpt>
      <trkpt lat="44.38584" lon="6.39003">
        <ele>1917</ele>
        <time>2020-07-07T06:20:22.000Z</time>
      </trkpt>
      <trkpt lat="44.38584" lon="6.39003">
        <ele>1917</ele>
        <time>2020-07-07T06:20:23.000Z</time>
      </trkpt>
      <trkpt lat="44.38584" lon="6.39003">
        <ele>1918</ele>
        <time>2020-07-07T06:20:24.000Z</time>
      </trkpt>
      <trkpt lat="44.38584" lon="6.39003">
        <ele>1918</ele>
        <time>2020-07-07T06:20:25.000Z</time>
      </trkpt>
      <trkpt lat="44.38584" lon="6.39004">
        <ele>1918</ele>
        <time>2020-07-07T06:20:26.000Z</time>
      </trkpt>
      <trkpt lat="44.38585" lon="6.39004">
        <ele>1918</ele>
        <time>2020-07-07T06:20:27.000Z</time>
      </trkpt>
      <trkpt lat="44.38585" lon="6.39004">
        <ele>1918</ele>
        <time>2020-07-07T06:20:28.000Z</time>
      </trkpt>
      <trkpt lat="44.38585" lon="6.39004">
        <ele>1918</ele>
        <time>2020-07-07T06:20:29.000Z</time>
      </trkpt>
      <trkpt lat="44.38585" lon="6.39004">
        <ele>1917</ele>
        <time>2020-07-07T06:20:30.000Z</time>
      </trkpt>
      <trkpt lat="44.38585" lon="6.39004">
        <ele>1917</ele>
        <time>2020-07-07T06:20:31.000Z</time>
      </trkpt>
      <trkpt lat="44.38585" lon="6.39004">
        <ele>1917</ele>
        <time>2020-07-07T06:20:32.000Z</time>
      </trkpt>
      <trkpt lat="44.38585" lon="6.39004">
        <ele>1917</ele>
        <time>2020-07-07T06:20:33.000Z</time>
      </trkpt>
      <trkpt lat="44.38585" lon="6.39004">
        <ele>1917</ele>
        <time>2020-07-07T06:20:34.000Z</time>
      </trkpt>
      <trkpt lat="44.38585" lon="6.39004">
        <ele>1917</ele>
        <time>2020-07-07T06:20:35.000Z</time>
      </trkpt>
      <trkpt lat="44.38585" lon="6.39004">
        <ele>1916</ele>
        <time>2020-07-07T06:20:36.000Z</time>
      </trkpt>
      <trkpt lat="44.38585" lon="6.39004">
        <ele>1916</ele>
        <time>2020-07-07T06:20:37.000Z</time>
      </trkpt>
      <trkpt lat="44.38585" lon="6.39004">
        <ele>1916</ele>
        <time>2020-07-07T06:20:38.000Z</time>
      </trkpt>
      <trkpt lat="44.38584" lon="6.39004">
        <ele>1915</ele>
        <time>2020-07-07T06:20:39.000Z</time>
      </trkpt>
      <trkpt lat="44.38584" lon="6.39004">
        <ele>1915</ele>
        <time>2020-07-07T06:20:40.000Z</time>
      </trkpt>
      <trkpt lat="44.38584" lon="6.39004">
        <ele>1915</ele>
        <time>2020-07-07T06:20:41.000Z</time>
      </trkpt>
      <trkpt lat="44.38584" lon="6.39004">
        <ele>1914</ele>
        <time>2020-07-07T06:20:42.000Z</time>
      </trkpt>
      <trkpt lat="44.38584" lon="6.39004">
        <ele>1914</ele>
        <time>2020-07-07T06:20:43.000Z</time>
      </trkpt>
      <trkpt lat="44.38584" lon="6.39004">
        <ele>1914</ele>
        <time>2020-07-07T06:20:44.000Z</time>
      </trkpt>
      <trkpt lat="44.38584" lon="6.39003">
        <ele>1914</ele>
        <time>2020-07-07T06:20:45.000Z</time>
      </trkpt>
      <trkpt lat="44.38584" lon="6.39003">
        <ele>1914</ele>
        <time>2020-07-07T06:20:46.000Z</time>
      </trkpt>
      <trkpt lat="44.38584" lon="6.39003">
        <ele>1914</ele>
        <time>2020-07-07T06:20:47.000Z</time>
      </trkpt>
      <trkpt lat="44.38583" lon="6.39003">
        <ele>1913</ele>
        <time>2020-07-07T06:20:48.000Z</time>
      </trkpt>
      <trkpt lat="44.38583" lon="6.39003">
        <ele>1913</ele>
        <time>2020-07-07T06:20:49.000Z</time>
      </trkpt>
      <trkpt lat="44.38583" lon="6.39003">
        <ele>1913</ele>
        <time>2020-07-07T06:20:50.000Z</time>
      </trkpt>
      <trkpt lat="44.38583" lon="6.39003">
        <ele>1913</ele>
        <time>2020-07-07T06:20:51.000Z</time>
      </trkpt>
      <trkpt lat="44.38583" lon="6.39003">
        <ele>1913</ele>
        <time>2020-07-07T06:20:52.000Z</time>
      </trkpt>
      <trkpt lat="44.38583" lon="6.39003">
        <ele>1913</ele>
        <time>2020-07-07T06:20:53.000Z</time>
      </trkpt>
      <trkpt lat="44.38583" lon="6.39003">
        <ele>1913</ele>
        <time>2020-07-07T06:20:54.000Z</time>
      </trkpt>
      <trkpt lat="44.38583" lon="6.39003">
        <ele>1913</ele>
        <time>2020-07-07T06:20:55.000Z</time>
      </trkpt>
      <trkpt lat="44.38583" lon="6.39003">
        <ele>1912</ele>
        <time>2020-07-07T06:20:56.000Z</time>
      </trkpt>
      <trkpt lat="44.38583" lon="6.39003">
        <ele>1912</ele>
        <time>2020-07-07T06:20:57.000Z</time>
      </trkpt>
      <trkpt lat="44.38583" lon="6.39003">
        <ele>1912</ele>
        <time>2020-07-07T06:20:58.000Z</time>
      </trkpt>
      <trkpt lat="44.38583" lon="6.39003">
        <ele>1912</ele>
        <time>2020-07-07T06:20:59.000Z</time>
      </trkpt>
      <trkpt lat="44.38583" lon="6.39002">
        <ele>1912</ele>
        <time>2020-07-07T06:21:00.000Z</time>
      </trkpt>
      <trkpt lat="44.38582" lon="6.39003">
        <ele>1912</ele>
        <time>2020-07-07T06:21:01.000Z</time>
      </trkpt>
      <trkpt lat="44.38582" lon="6.39003">
        <ele>1912</ele>
        <time>2020-07-07T06:21:02.000Z</time>
      </trkpt>
      <trkpt lat="44.38581" lon="6.39003">
        <ele>1912</ele>
        <time>2020-07-07T06:21:03.000Z</time>
      </trkpt>
      <trkpt lat="44.3858" lon="6.39003">
        <ele>1912</ele>
        <time>2020-07-07T06:21:04.000Z</time>
      </trkpt>
      <trkpt lat="44.38579" lon="6.39003">
        <ele>1912</ele>
        <time>2020-07-07T06:21:05.000Z</time>
      </trkpt>
      <trkpt lat="44.38578" lon="6.39003">
        <ele>1912</ele>
        <time>2020-07-07T06:21:06.000Z</time>
      </trkpt>
      <trkpt lat="44.38578" lon="6.39002">
        <ele>1912</ele>
        <time>2020-07-07T06:21:07.000Z</time>
      </trkpt>
      <trkpt lat="44.38577" lon="6.39003">
        <ele>1912</ele>
        <time>2020-07-07T06:21:08.000Z</time>
      </trkpt>
      <trkpt lat="44.38577" lon="6.39003">
        <ele>1912</ele>
        <time>2020-07-07T06:21:09.000Z</time>
      </trkpt>
      <trkpt lat="44.38576" lon="6.39004">
        <ele>1912</ele>
        <time>2020-07-07T06:21:10.000Z</time>
      </trkpt>
      <trkpt lat="44.38576" lon="6.39004">
        <ele>1912</ele>
        <time>2020-07-07T06:21:11.000Z</time>
      </trkpt>
      <trkpt lat="44.38576" lon="6.39004">
        <ele>1912</ele>
        <time>2020-07-07T06:21:12.000Z</time>
      </trkpt>
      <trkpt lat="44.38576" lon="6.39004">
        <ele>1911</ele>
        <time>2020-07-07T06:21:13.000Z</time>
      </trkpt>
      <trkpt lat="44.38576" lon="6.39004">
        <ele>1911</ele>
        <time>2020-07-07T06:21:14.000Z</time>
      </trkpt>
      <trkpt lat="44.38576" lon="6.39004">
        <ele>1911</ele>
        <time>2020-07-07T06:21:15.000Z</time>
      </trkpt>
      <trkpt lat="44.38576" lon="6.39004">
        <ele>1911</ele>
        <time>2020-07-07T06:21:16.000Z</time>
      </trkpt>
      <trkpt lat="44.38576" lon="6.39004">
        <ele>1911</ele>
        <time>2020-07-07T06:21:17.000Z</time>
      </trkpt>
      <trkpt lat="44.38576" lon="6.39004">
        <ele>1911</ele>
        <time>2020-07-07T06:21:18.000Z</time>
      </trkpt>
      <trkpt lat="44.38576" lon="6.39003">
        <ele>1911</ele>
        <time>2020-07-07T06:21:19.000Z</time>
      </trkpt>
      <trkpt lat="44.38576" lon="6.39003">
        <ele>1911</ele>
        <time>2020-07-07T06:21:20.000Z</time>
      </trkpt>
      <trkpt lat="44.38576" lon="6.39003">
        <ele>1911</ele>
        <time>2020-07-07T06:21:21.000Z</time>
      </trkpt>
      <trkpt lat="44.38576" lon="6.39003">
        <ele>1911</ele>
        <time>2020-07-07T06:21:22.000Z</time>
      </trkpt>
      <trkpt lat="44.38576" lon="6.39003">
        <ele>1911</ele>
        <time>2020-07-07T06:21:23.000Z</time>
      </trkpt>
      <trkpt lat="44.38576" lon="6.39003">
        <ele>1911</ele>
        <time>2020-07-07T06:21:24.000Z</time>
      </trkpt>
      <trkpt lat="44.38576" lon="6.39003">
        <ele>1911</ele>
        <time>2020-07-07T06:21:25.000Z</time>
      </trkpt>
      <trkpt lat="44.38576" lon="6.39003">
        <ele>1911</ele>
        <time>2020-07-07T06:21:26.000Z</time>
      </trkpt>
      <trkpt lat="44.38576" lon="6.39003">
        <ele>1911</ele>
        <time>2020-07-07T06:21:27.000Z</time>
      </trkpt>
      <trkpt lat="44.38576" lon="6.39004">
        <ele>1911</ele>
        <time>2020-07-07T06:21:28.000Z</time>
      </trkpt>
      <trkpt lat="44.38576" lon="6.39004">
        <ele>1911</ele>
        <time>2020-07-07T06:21:29.000Z</time>
      </trkpt>
      <trkpt lat="44.38576" lon="6.39004">
        <ele>1911</ele>
        <time>2020-07-07T06:21:30.000Z</time>
      </trkpt>
      <trkpt lat="44.38576" lon="6.39004">
        <ele>1911</ele>
        <time>2020-07-07T06:21:31.000Z</time>
      </trkpt>
      <trkpt lat="44.38576" lon="6.39004">
        <ele>1911</ele>
        <time>2020-07-07T06:21:32.000Z</time>
      </trkpt>
      <trkpt lat="44.38576" lon="6.39004">
        <ele>1911</ele>
        <time>2020-07-07T06:21:33.000Z</time>
      </trkpt>
      <trkpt lat="44.38576" lon="6.39004">
        <ele>1911</ele>
        <time>2020-07-07T06:21:34.000Z</time>
      </trkpt>
      <trkpt lat="44.38575" lon="6.39005">
        <ele>1911</ele>
        <time>2020-07-07T06:21:35.000Z</time>
      </trkpt>
      <trkpt lat="44.38575" lon="6.39005">
        <ele>1911</ele>
        <time>2020-07-07T06:21:36.000Z</time>
      </trkpt>
      <trkpt lat="44.38575" lon="6.39004">
        <ele>1911</ele>
        <time>2020-07-07T06:21:37.000Z</time>
      </trkpt>
      <trkpt lat="44.38575" lon="6.39004">
        <ele>1911</ele>
        <time>2020-07-07T06:21:38.000Z</time>
      </trkpt>
      <trkpt lat="44.38575" lon="6.39004">
        <ele>1911</ele>
        <time>2020-07-07T06:21:39.000Z</time>
      </trkpt>
      <trkpt lat="44.38574" lon="6.39004">
        <ele>1911</ele>
        <time>2020-07-07T06:21:40.000Z</time>
      </trkpt>
      <trkpt lat="44.38574" lon="6.39004">
        <ele>1910</ele>
        <time>2020-07-07T06:21:41.000Z</time>
      </trkpt>
      <trkpt lat="44.38574" lon="6.39005">
        <ele>1910</ele>
        <time>2020-07-07T06:21:42.000Z</time>
      </trkpt>
      <trkpt lat="44.38574" lon="6.39005">
        <ele>1910</ele>
        <time>2020-07-07T06:21:43.000Z</time>
      </trkpt>
      <trkpt lat="44.38574" lon="6.39005">
        <ele>1910</ele>
        <time>2020-07-07T06:21:44.000Z</time>
      </trkpt>
      <trkpt lat="44.38574" lon="6.39004">
        <ele>1910</ele>
        <time>2020-07-07T06:21:45.000Z</time>
      </trkpt>
      <trkpt lat="44.38574" lon="6.39004">
        <ele>1910</ele>
        <time>2020-07-07T06:21:46.000Z</time>
      </trkpt>
      <trkpt lat="44.38574" lon="6.39004">
        <ele>1910</ele>
        <time>2020-07-07T06:21:47.000Z</time>
      </trkpt>
      <trkpt lat="44.38575" lon="6.39004">
        <ele>1910</ele>
        <time>2020-07-07T06:21:48.000Z</time>
      </trkpt>
      <trkpt lat="44.38575" lon="6.39004">
        <ele>1910</ele>
        <time>2020-07-07T06:21:49.000Z</time>
      </trkpt>
      <trkpt lat="44.38575" lon="6.39004">
        <ele>1910</ele>
        <time>2020-07-07T06:21:50.000Z</time>
      </trkpt>
      <trkpt lat="44.38575" lon="6.39004">
        <ele>1910</ele>
        <time>2020-07-07T06:21:51.000Z</time>
      </trkpt>
      <trkpt lat="44.38575" lon="6.39004">
        <ele>1910</ele>
        <time>2020-07-07T06:21:52.000Z</time>
      </trkpt>
      <trkpt lat="44.38575" lon="6.39004">
        <ele>1910</ele>
        <time>2020-07-07T06:21:53.000Z</time>
      </trkpt>
      <trkpt lat="44.38574" lon="6.39004">
        <ele>1910</ele>
        <time>2020-07-07T06:21:54.000Z</time>
      </trkpt>
      <trkpt lat="44.38574" lon="6.39004">
        <ele>1910</ele>
        <time>2020-07-07T06:21:55.000Z</time>
      </trkpt>
      <trkpt lat="44.38574" lon="6.39005">
        <ele>1910</ele>
        <time>2020-07-07T06:21:56.000Z</time>
      </trkpt>
      <trkpt lat="44.38574" lon="6.39005">
        <ele>1910</ele>
        <time>2020-07-07T06:21:57.000Z</time>
      </trkpt>
      <trkpt lat="44.38574" lon="6.39005">
        <ele>1909</ele>
        <time>2020-07-07T06:21:58.000Z</time>
      </trkpt>
      <trkpt lat="44.38574" lon="6.39005">
        <ele>1909</ele>
        <time>2020-07-07T06:21:59.000Z</time>
      </trkpt>
      <trkpt lat="44.38573" lon="6.39005">
        <ele>1909</ele>
        <time>2020-07-07T06:22:00.000Z</time>
      </trkpt>
      <trkpt lat="44.38573" lon="6.39005">
        <ele>1909</ele>
        <time>2020-07-07T06:22:01.000Z</time>
      </trkpt>
      <trkpt lat="44.38573" lon="6.39005">
        <ele>1909</ele>
        <time>2020-07-07T06:22:02.000Z</time>
      </trkpt>
      <trkpt lat="44.38573" lon="6.39005">
        <ele>1909</ele>
        <time>2020-07-07T06:22:03.000Z</time>
      </trkpt>
      <trkpt lat="44.38573" lon="6.39005">
        <ele>1909</ele>
        <time>2020-07-07T06:22:04.000Z</time>
      </trkpt>
      <trkpt lat="44.38573" lon="6.39005">
        <ele>1909</ele>
        <time>2020-07-07T06:22:05.000Z</time>
      </trkpt>
      <trkpt lat="44.38573" lon="6.39005">
        <ele>1909</ele>
        <time>2020-07-07T06:22:06.000Z</time>
      </trkpt>
      <trkpt lat="44.38573" lon="6.39006">
        <ele>1910</ele>
        <time>2020-07-07T06:22:07.000Z</time>
      </trkpt>
      <trkpt lat="44.38573" lon="6.39006">
        <ele>1910</ele>
        <time>2020-07-07T06:22:08.000Z</time>
      </trkpt>
      <trkpt lat="44.38573" lon="6.39006">
        <ele>1910</ele>
        <time>2020-07-07T06:22:09.000Z</time>
      </trkpt>
      <trkpt lat="44.38573" lon="6.39006">
        <ele>1910</ele>
        <time>2020-07-07T06:22:10.000Z</time>
      </trkpt>
      <trkpt lat="44.38573" lon="6.39006">
        <ele>1910</ele>
        <time>2020-07-07T06:22:11.000Z</time>
      </trkpt>
      <trkpt lat="44.38573" lon="6.39007">
        <ele>1910</ele>
        <time>2020-07-07T06:22:12.000Z</time>
      </trkpt>
      <trkpt lat="44.38573" lon="6.39007">
        <ele>1910</ele>
        <time>2020-07-07T06:22:13.000Z</time>
      </trkpt>
      <trkpt lat="44.38573" lon="6.39007">
        <ele>1910</ele>
        <time>2020-07-07T06:22:14.000Z</time>
      </trkpt>
      <trkpt lat="44.38573" lon="6.39007">
        <ele>1910</ele>
        <time>2020-07-07T06:22:15.000Z</time>
      </trkpt>
      <trkpt lat="44.38574" lon="6.39007">
        <ele>1910</ele>
        <time>2020-07-07T06:22:16.000Z</time>
      </trkpt>
      <trkpt lat="44.38574" lon="6.39007">
        <ele>1910</ele>
        <time>2020-07-07T06:22:17.000Z</time>
      </trkpt>
      <trkpt lat="44.38574" lon="6.39007">
        <ele>1910</ele>
        <time>2020-07-07T06:22:18.000Z</time>
      </trkpt>
      <trkpt lat="44.38574" lon="6.39007">
        <ele>1910</ele>
        <time>2020-07-07T06:22:19.000Z</time>
      </trkpt>
      <trkpt lat="44.38574" lon="6.39006">
        <ele>1911</ele>
        <time>2020-07-07T06:22:20.000Z</time>
      </trkpt>
      <trkpt lat="44.38574" lon="6.39006">
        <ele>1911</ele>
        <time>2020-07-07T06:22:21.000Z</time>
      </trkpt>
      <trkpt lat="44.38574" lon="6.39006">
        <ele>1911</ele>
        <time>2020-07-07T06:22:22.000Z</time>
      </trkpt>
      <trkpt lat="44.38574" lon="6.39006">
        <ele>1911</ele>
        <time>2020-07-07T06:22:23.000Z</time>
      </trkpt>
      <trkpt lat="44.38574" lon="6.39006">
        <ele>1911</ele>
        <time>2020-07-07T06:22:24.000Z</time>
      </trkpt>
      <trkpt lat="44.38574" lon="6.39006">
        <ele>1911</ele>
        <time>2020-07-07T06:22:25.000Z</time>
      </trkpt>
      <trkpt lat="44.38574" lon="6.39006">
        <ele>1911</ele>
        <time>2020-07-07T06:22:26.000Z</time>
      </trkpt>
      <trkpt lat="44.38575" lon="6.39006">
        <ele>1911</ele>
        <time>2020-07-07T06:22:27.000Z</time>
      </trkpt>
      <trkpt lat="44.38575" lon="6.39005">
        <ele>1910</ele>
        <time>2020-07-07T06:22:28.000Z</time>
      </trkpt>
      <trkpt lat="44.38575" lon="6.39005">
        <ele>1910</ele>
        <time>2020-07-07T06:22:29.000Z</time>
      </trkpt>
      <trkpt lat="44.38575" lon="6.39005">
        <ele>1910</ele>
        <time>2020-07-07T06:22:30.000Z</time>
      </trkpt>
      <trkpt lat="44.38575" lon="6.39005">
        <ele>1910</ele>
        <time>2020-07-07T06:22:31.000Z</time>
      </trkpt>
      <trkpt lat="44.38575" lon="6.39005">
        <ele>1910</ele>
        <time>2020-07-07T06:22:32.000Z</time>
      </trkpt>
      <trkpt lat="44.38575" lon="6.39005">
        <ele>1910</ele>
        <time>2020-07-07T06:22:33.000Z</time>
      </trkpt>
      <trkpt lat="44.38575" lon="6.39005">
        <ele>1910</ele>
        <time>2020-07-07T06:22:34.000Z</time>
      </trkpt>
      <trkpt lat="44.38575" lon="6.39005">
        <ele>1910</ele>
        <time>2020-07-07T06:22:35.000Z</time>
      </trkpt>
      <trkpt lat="44.38575" lon="6.39004">
        <ele>1910</ele>
        <time>2020-07-07T06:22:36.000Z</time>
      </trkpt>
      <trkpt lat="44.38575" lon="6.39004">
        <ele>1910</ele>
        <time>2020-07-07T06:22:37.000Z</time>
      </trkpt>
      <trkpt lat="44.38575" lon="6.39004">
        <ele>1910</ele>
        <time>2020-07-07T06:22:38.000Z</time>
      </trkpt>
      <trkpt lat="44.38575" lon="6.39004">
        <ele>1910</ele>
        <time>2020-07-07T06:22:39.000Z</time>
      </trkpt>
      <trkpt lat="44.38575" lon="6.39004">
        <ele>1909</ele>
        <time>2020-07-07T06:22:40.000Z</time>
      </trkpt>
      <trkpt lat="44.38575" lon="6.39003">
        <ele>1909</ele>
        <time>2020-07-07T06:22:41.000Z</time>
      </trkpt>
      <trkpt lat="44.38575" lon="6.39003">
        <ele>1909</ele>
        <time>2020-07-07T06:22:42.000Z</time>
      </trkpt>
      <trkpt lat="44.38575" lon="6.39003">
        <ele>1909</ele>
        <time>2020-07-07T06:22:43.000Z</time>
      </trkpt>
      <trkpt lat="44.38575" lon="6.39003">
        <ele>1909</ele>
        <time>2020-07-07T06:22:44.000Z</time>
      </trkpt>
      <trkpt lat="44.38576" lon="6.39003">
        <ele>1909</ele>
        <time>2020-07-07T06:22:45.000Z</time>
      </trkpt>
      <trkpt lat="44.38576" lon="6.39003">
        <ele>1909</ele>
        <time>2020-07-07T06:22:46.000Z</time>
      </trkpt>
      <trkpt lat="44.38576" lon="6.39002">
        <ele>1909</ele>
        <time>2020-07-07T06:22:47.000Z</time>
      </trkpt>
      <trkpt lat="44.38576" lon="6.39002">
        <ele>1909</ele>
        <time>2020-07-07T06:22:48.000Z</time>
      </trkpt>
      <trkpt lat="44.38576" lon="6.39002">
        <ele>1909</ele>
        <time>2020-07-07T06:22:49.000Z</time>
      </trkpt>
      <trkpt lat="44.38576" lon="6.39003">
        <ele>1909</ele>
        <time>2020-07-07T06:22:50.000Z</time>
      </trkpt>
      <trkpt lat="44.38576" lon="6.39002">
        <ele>1909</ele>
        <time>2020-07-07T06:22:51.000Z</time>
      </trkpt>
      <trkpt lat="44.38576" lon="6.39002">
        <ele>1909</ele>
        <time>2020-07-07T06:22:52.000Z</time>
      </trkpt>
      <trkpt lat="44.38576" lon="6.39002">
        <ele>1909</ele>
        <time>2020-07-07T06:22:53.000Z</time>
      </trkpt>
      <trkpt lat="44.38576" lon="6.39002">
        <ele>1909</ele>
        <time>2020-07-07T06:22:54.000Z</time>
      </trkpt>
      <trkpt lat="44.38576" lon="6.39002">
        <ele>1908</ele>
        <time>2020-07-07T06:22:55.000Z</time>
      </trkpt>
      <trkpt lat="44.38576" lon="6.39002">
        <ele>1908</ele>
        <time>2020-07-07T06:22:56.000Z</time>
      </trkpt>
      <trkpt lat="44.38576" lon="6.39002">
        <ele>1908</ele>
        <time>2020-07-07T06:22:57.000Z</time>
      </trkpt>
      <trkpt lat="44.38576" lon="6.39002">
        <ele>1908</ele>
        <time>2020-07-07T06:22:58.000Z</time>
      </trkpt>
      <trkpt lat="44.38576" lon="6.39002">
        <ele>1908</ele>
        <time>2020-07-07T06:22:59.000Z</time>
      </trkpt>
      <trkpt lat="44.38576" lon="6.39002">
        <ele>1908</ele>
        <time>2020-07-07T06:23:00.000Z</time>
      </trkpt>
      <trkpt lat="44.38576" lon="6.39002">
        <ele>1908</ele>
        <time>2020-07-07T06:23:01.000Z</time>
      </trkpt>
      <trkpt lat="44.38576" lon="6.39002">
        <ele>1908</ele>
        <time>2020-07-07T06:23:02.000Z</time>
      </trkpt>
      <trkpt lat="44.38576" lon="6.39002">
        <ele>1908</ele>
        <time>2020-07-07T06:23:03.000Z</time>
      </trkpt>
      <trkpt lat="44.38576" lon="6.39002">
        <ele>1908</ele>
        <time>2020-07-07T06:23:04.000Z</time>
      </trkpt>
      <trkpt lat="44.38576" lon="6.39002">
        <ele>1908</ele>
        <time>2020-07-07T06:23:05.000Z</time>
      </trkpt>
      <trkpt lat="44.38576" lon="6.39002">
        <ele>1908</ele>
        <time>2020-07-07T06:23:06.000Z</time>
      </trkpt>
      <trkpt lat="44.38576" lon="6.39002">
        <ele>1908</ele>
        <time>2020-07-07T06:23:07.000Z</time>
      </trkpt>
      <trkpt lat="44.38576" lon="6.39002">
        <ele>1908</ele>
        <time>2020-07-07T06:23:08.000Z</time>
      </trkpt>
      <trkpt lat="44.38576" lon="6.39002">
        <ele>1908</ele>
        <time>2020-07-07T06:23:09.000Z</time>
      </trkpt>
      <trkpt lat="44.38576" lon="6.39002">
        <ele>1908</ele>
        <time>2020-07-07T06:23:10.000Z</time>
      </trkpt>
      <trkpt lat="44.38576" lon="6.39001">
        <ele>1908</ele>
        <time>2020-07-07T06:23:11.000Z</time>
      </trkpt>
      <trkpt lat="44.38576" lon="6.39001">
        <ele>1908</ele>
        <time>2020-07-07T06:23:12.000Z</time>
      </trkpt>
      <trkpt lat="44.38576" lon="6.39001">
        <ele>1907</ele>
        <time>2020-07-07T06:23:13.000Z</time>
      </trkpt>
      <trkpt lat="44.38576" lon="6.39001">
        <ele>1907</ele>
        <time>2020-07-07T06:23:14.000Z</time>
      </trkpt>
      <trkpt lat="44.38576" lon="6.39002">
        <ele>1907</ele>
        <time>2020-07-07T06:23:15.000Z</time>
      </trkpt>
      <trkpt lat="44.38576" lon="6.39002">
        <ele>1907</ele>
        <time>2020-07-07T06:23:16.000Z</time>
      </trkpt>
      <trkpt lat="44.38576" lon="6.39002">
        <ele>1907</ele>
        <time>2020-07-07T06:23:17.000Z</time>
      </trkpt>
      <trkpt lat="44.38576" lon="6.39002">
        <ele>1907</ele>
        <time>2020-07-07T06:23:18.000Z</time>
      </trkpt>
      <trkpt lat="44.38576" lon="6.39002">
        <ele>1907</ele>
        <time>2020-07-07T06:23:19.000Z</time>
      </trkpt>
      <trkpt lat="44.38576" lon="6.39002">
        <ele>1907</ele>
        <time>2020-07-07T06:23:20.000Z</time>
      </trkpt>
      <trkpt lat="44.38576" lon="6.39002">
        <ele>1907</ele>
        <time>2020-07-07T06:23:21.000Z</time>
      </trkpt>
      <trkpt lat="44.38576" lon="6.39002">
        <ele>1907</ele>
        <time>2020-07-07T06:23:22.000Z</time>
      </trkpt>
      <trkpt lat="44.38576" lon="6.39002">
        <ele>1907</ele>
        <time>2020-07-07T06:23:23.000Z</time>
      </trkpt>
      <trkpt lat="44.38576" lon="6.39002">
        <ele>1907</ele>
        <time>2020-07-07T06:23:24.000Z</time>
      </trkpt>
      <trkpt lat="44.38577" lon="6.39002">
        <ele>1907</ele>
        <time>2020-07-07T06:23:25.000Z</time>
      </trkpt>
      <trkpt lat="44.38576" lon="6.39002">
        <ele>1907</ele>
        <time>2020-07-07T06:23:26.000Z</time>
      </trkpt>
      <trkpt lat="44.38576" lon="6.39002">
        <ele>1907</ele>
        <time>2020-07-07T06:23:27.000Z</time>
      </trkpt>
      <trkpt lat="44.38576" lon="6.39002">
        <ele>1907</ele>
        <time>2020-07-07T06:23:28.000Z</time>
      </trkpt>
      <trkpt lat="44.38576" lon="6.39002">
        <ele>1907</ele>
        <time>2020-07-07T06:23:29.000Z</time>
      </trkpt>
      <trkpt lat="44.38576" lon="6.39002">
        <ele>1907</ele>
        <time>2020-07-07T06:23:30.000Z</time>
      </trkpt>
      <trkpt lat="44.38576" lon="6.39002">
        <ele>1907</ele>
        <time>2020-07-07T06:23:31.000Z</time>
      </trkpt>
      <trkpt lat="44.38576" lon="6.39002">
        <ele>1907</ele>
        <time>2020-07-07T06:23:32.000Z</time>
      </trkpt>
      <trkpt lat="44.38577" lon="6.39002">
        <ele>1906</ele>
        <time>2020-07-07T06:23:33.000Z</time>
      </trkpt>
      <trkpt lat="44.38577" lon="6.39002">
        <ele>1906</ele>
        <time>2020-07-07T06:23:34.000Z</time>
      </trkpt>
      <trkpt lat="44.38577" lon="6.39002">
        <ele>1906</ele>
        <time>2020-07-07T06:23:35.000Z</time>
      </trkpt>
      <trkpt lat="44.38577" lon="6.39002">
        <ele>1906</ele>
        <time>2020-07-07T06:23:36.000Z</time>
      </trkpt>
      <trkpt lat="44.38578" lon="6.39002">
        <ele>1906</ele>
        <time>2020-07-07T06:23:37.000Z</time>
      </trkpt>
      <trkpt lat="44.38578" lon="6.39001">
        <ele>1906</ele>
        <time>2020-07-07T06:23:38.000Z</time>
      </trkpt>
      <trkpt lat="44.38578" lon="6.39001">
        <ele>1907</ele>
        <time>2020-07-07T06:23:39.000Z</time>
      </trkpt>
      <trkpt lat="44.38578" lon="6.39001">
        <ele>1907</ele>
        <time>2020-07-07T06:23:40.000Z</time>
      </trkpt>
      <trkpt lat="44.38578" lon="6.39001">
        <ele>1907</ele>
        <time>2020-07-07T06:23:41.000Z</time>
      </trkpt>
      <trkpt lat="44.38578" lon="6.39001">
        <ele>1907</ele>
        <time>2020-07-07T06:23:42.000Z</time>
      </trkpt>
      <trkpt lat="44.38578" lon="6.39001">
        <ele>1907</ele>
        <time>2020-07-07T06:23:43.000Z</time>
      </trkpt>
      <trkpt lat="44.38578" lon="6.39001">
        <ele>1907</ele>
        <time>2020-07-07T06:23:44.000Z</time>
      </trkpt>
      <trkpt lat="44.38578" lon="6.39001">
        <ele>1908</ele>
        <time>2020-07-07T06:23:45.000Z</time>
      </trkpt>
      <trkpt lat="44.38578" lon="6.39001">
        <ele>1908</ele>
        <time>2020-07-07T06:23:46.000Z</time>
      </trkpt>
      <trkpt lat="44.38578" lon="6.39001">
        <ele>1908</ele>
        <time>2020-07-07T06:23:47.000Z</time>
      </trkpt>
      <trkpt lat="44.38578" lon="6.39001">
        <ele>1908</ele>
        <time>2020-07-07T06:23:48.000Z</time>
      </trkpt>
      <trkpt lat="44.38578" lon="6.39">
        <ele>1908</ele>
        <time>2020-07-07T06:23:49.000Z</time>
      </trkpt>
      <trkpt lat="44.38578" lon="6.39">
        <ele>1908</ele>
        <time>2020-07-07T06:23:50.000Z</time>
      </trkpt>
      <trkpt lat="44.38578" lon="6.39">
        <ele>1908</ele>
        <time>2020-07-07T06:23:51.000Z</time>
      </trkpt>
      <trkpt lat="44.38578" lon="6.39">
        <ele>1908</ele>
        <time>2020-07-07T06:23:52.000Z</time>
      </trkpt>
      <trkpt lat="44.38578" lon="6.39">
        <ele>1908</ele>
        <time>2020-07-07T06:23:53.000Z</time>
      </trkpt>
      <trkpt lat="44.38578" lon="6.39">
        <ele>1908</ele>
        <time>2020-07-07T06:23:54.000Z</time>
      </trkpt>
      <trkpt lat="44.38577" lon="6.38999">
        <ele>1908</ele>
        <time>2020-07-07T06:23:55.000Z</time>
      </trkpt>
      <trkpt lat="44.38577" lon="6.38999">
        <ele>1908</ele>
        <time>2020-07-07T06:23:56.000Z</time>
      </trkpt>
      <trkpt lat="44.38576" lon="6.38998">
        <ele>1908</ele>
        <time>2020-07-07T06:23:57.000Z</time>
      </trkpt>
      <trkpt lat="44.38576" lon="6.38998">
        <ele>1908</ele>
        <time>2020-07-07T06:23:58.000Z</time>
      </trkpt>
      <trkpt lat="44.38575" lon="6.38998">
        <ele>1908</ele>
        <time>2020-07-07T06:23:59.000Z</time>
      </trkpt>
      <trkpt lat="44.38575" lon="6.38998">
        <ele>1908</ele>
        <time>2020-07-07T06:24:00.000Z</time>
      </trkpt>
      <trkpt lat="44.38575" lon="6.38998">
        <ele>1908</ele>
        <time>2020-07-07T06:24:01.000Z</time>
      </trkpt>
      <trkpt lat="44.38575" lon="6.38998">
        <ele>1908</ele>
        <time>2020-07-07T06:24:02.000Z</time>
      </trkpt>
      <trkpt lat="44.38575" lon="6.38998">
        <ele>1908</ele>
        <time>2020-07-07T06:24:03.000Z</time>
      </trkpt>
      <trkpt lat="44.38575" lon="6.38999">
        <ele>1908</ele>
        <time>2020-07-07T06:24:04.000Z</time>
      </trkpt>
      <trkpt lat="44.38575" lon="6.38999">
        <ele>1908</ele>
        <time>2020-07-07T06:24:05.000Z</time>
      </trkpt>
      <trkpt lat="44.38576" lon="6.39">
        <ele>1908</ele>
        <time>2020-07-07T06:24:06.000Z</time>
      </trkpt>
      <trkpt lat="44.38576" lon="6.39">
        <ele>1908</ele>
        <time>2020-07-07T06:24:07.000Z</time>
      </trkpt>
      <trkpt lat="44.38576" lon="6.39">
        <ele>1908</ele>
        <time>2020-07-07T06:24:08.000Z</time>
      </trkpt>
      <trkpt lat="44.38576" lon="6.39">
        <ele>1908</ele>
        <time>2020-07-07T06:24:09.000Z</time>
      </trkpt>
      <trkpt lat="44.38576" lon="6.38999">
        <ele>1908</ele>
        <time>2020-07-07T06:24:10.000Z</time>
      </trkpt>
      <trkpt lat="44.38576" lon="6.38999">
        <ele>1908</ele>
        <time>2020-07-07T06:24:11.000Z</time>
      </trkpt>
      <trkpt lat="44.38576" lon="6.38999">
        <ele>1908</ele>
        <time>2020-07-07T06:24:12.000Z</time>
      </trkpt>
      <trkpt lat="44.38577" lon="6.38999">
        <ele>1907</ele>
        <time>2020-07-07T06:24:13.000Z</time>
      </trkpt>
      <trkpt lat="44.38577" lon="6.38999">
        <ele>1907</ele>
        <time>2020-07-07T06:24:14.000Z</time>
      </trkpt>
      <trkpt lat="44.38577" lon="6.39">
        <ele>1907</ele>
        <time>2020-07-07T06:24:15.000Z</time>
      </trkpt>
      <trkpt lat="44.38578" lon="6.39">
        <ele>1907</ele>
        <time>2020-07-07T06:24:16.000Z</time>
      </trkpt>
      <trkpt lat="44.38578" lon="6.39">
        <ele>1907</ele>
        <time>2020-07-07T06:24:17.000Z</time>
      </trkpt>
      <trkpt lat="44.38578" lon="6.39">
        <ele>1907</ele>
        <time>2020-07-07T06:24:18.000Z</time>
      </trkpt>
      <trkpt lat="44.38578" lon="6.39">
        <ele>1907</ele>
        <time>2020-07-07T06:24:19.000Z</time>
      </trkpt>
      <trkpt lat="44.38578" lon="6.39">
        <ele>1907</ele>
        <time>2020-07-07T06:24:20.000Z</time>
      </trkpt>
      <trkpt lat="44.38578" lon="6.39">
        <ele>1907</ele>
        <time>2020-07-07T06:24:21.000Z</time>
      </trkpt>
      <trkpt lat="44.38578" lon="6.39">
        <ele>1907</ele>
        <time>2020-07-07T06:24:22.000Z</time>
      </trkpt>
      <trkpt lat="44.38578" lon="6.39">
        <ele>1907</ele>
        <time>2020-07-07T06:24:23.000Z</time>
      </trkpt>
      <trkpt lat="44.38578" lon="6.39">
        <ele>1907</ele>
        <time>2020-07-07T06:24:24.000Z</time>
      </trkpt>
      <trkpt lat="44.38578" lon="6.39">
        <ele>1907</ele>
        <time>2020-07-07T06:24:25.000Z</time>
      </trkpt>
      <trkpt lat="44.38578" lon="6.39001">
        <ele>1907</ele>
        <time>2020-07-07T06:24:26.000Z</time>
      </trkpt>
      <trkpt lat="44.38578" lon="6.39001">
        <ele>1907</ele>
        <time>2020-07-07T06:24:27.000Z</time>
      </trkpt>
      <trkpt lat="44.38578" lon="6.39001">
        <ele>1907</ele>
        <time>2020-07-07T06:24:28.000Z</time>
      </trkpt>
      <trkpt lat="44.38578" lon="6.39001">
        <ele>1907</ele>
        <time>2020-07-07T06:24:29.000Z</time>
      </trkpt>
      <trkpt lat="44.38578" lon="6.39001">
        <ele>1907</ele>
        <time>2020-07-07T06:24:30.000Z</time>
      </trkpt>
      <trkpt lat="44.38578" lon="6.39001">
        <ele>1907</ele>
        <time>2020-07-07T06:24:31.000Z</time>
      </trkpt>
      <trkpt lat="44.38578" lon="6.39001">
        <ele>1906</ele>
        <time>2020-07-07T06:24:32.000Z</time>
      </trkpt>
      <trkpt lat="44.38578" lon="6.39001">
        <ele>1906</ele>
        <time>2020-07-07T06:24:33.000Z</time>
      </trkpt>
      <trkpt lat="44.38578" lon="6.39001">
        <ele>1906</ele>
        <time>2020-07-07T06:24:34.000Z</time>
      </trkpt>
      <trkpt lat="44.38578" lon="6.39001">
        <ele>1906</ele>
        <time>2020-07-07T06:24:35.000Z</time>
      </trkpt>
      <trkpt lat="44.38578" lon="6.39001">
        <ele>1906</ele>
        <time>2020-07-07T06:24:36.000Z</time>
      </trkpt>
      <trkpt lat="44.38578" lon="6.39001">
        <ele>1906</ele>
        <time>2020-07-07T06:24:37.000Z</time>
      </trkpt>
      <trkpt lat="44.38578" lon="6.39001">
        <ele>1906</ele>
        <time>2020-07-07T06:24:38.000Z</time>
      </trkpt>
      <trkpt lat="44.38578" lon="6.39002">
        <ele>1906</ele>
        <time>2020-07-07T06:24:39.000Z</time>
      </trkpt>
      <trkpt lat="44.38579" lon="6.39002">
        <ele>1906</ele>
        <time>2020-07-07T06:24:40.000Z</time>
      </trkpt>
      <trkpt lat="44.38579" lon="6.39002">
        <ele>1906</ele>
        <time>2020-07-07T06:24:41.000Z</time>
      </trkpt>
      <trkpt lat="44.38579" lon="6.39002">
        <ele>1906</ele>
        <time>2020-07-07T06:24:42.000Z</time>
      </trkpt>
      <trkpt lat="44.38578" lon="6.39002">
        <ele>1906</ele>
        <time>2020-07-07T06:24:43.000Z</time>
      </trkpt>
      <trkpt lat="44.38578" lon="6.39002">
        <ele>1906</ele>
        <time>2020-07-07T06:24:44.000Z</time>
      </trkpt>
      <trkpt lat="44.38578" lon="6.39002">
        <ele>1906</ele>
        <time>2020-07-07T06:24:45.000Z</time>
      </trkpt>
      <trkpt lat="44.38578" lon="6.39002">
        <ele>1906</ele>
        <time>2020-07-07T06:24:46.000Z</time>
      </trkpt>
      <trkpt lat="44.38578" lon="6.39002">
        <ele>1906</ele>
        <time>2020-07-07T06:24:47.000Z</time>
      </trkpt>
      <trkpt lat="44.38578" lon="6.39002">
        <ele>1906</ele>
        <time>2020-07-07T06:24:48.000Z</time>
      </trkpt>
      <trkpt lat="44.38578" lon="6.39001">
        <ele>1906</ele>
        <time>2020-07-07T06:24:49.000Z</time>
      </trkpt>
      <trkpt lat="44.38578" lon="6.39">
        <ele>1906</ele>
        <time>2020-07-07T06:24:50.000Z</time>
      </trkpt>
      <trkpt lat="44.38577" lon="6.39">
        <ele>1906</ele>
        <time>2020-07-07T06:24:51.000Z</time>
      </trkpt>
      <trkpt lat="44.38577" lon="6.39">
        <ele>1906</ele>
        <time>2020-07-07T06:24:52.000Z</time>
      </trkpt>
      <trkpt lat="44.38577" lon="6.39">
        <ele>1906</ele>
        <time>2020-07-07T06:24:53.000Z</time>
      </trkpt>
      <trkpt lat="44.38578" lon="6.39">
        <ele>1906</ele>
        <time>2020-07-07T06:24:54.000Z</time>
      </trkpt>
      <trkpt lat="44.38578" lon="6.39001">
        <ele>1906</ele>
        <time>2020-07-07T06:24:55.000Z</time>
      </trkpt>
      <trkpt lat="44.38578" lon="6.39001">
        <ele>1906</ele>
        <time>2020-07-07T06:24:56.000Z</time>
      </trkpt>
      <trkpt lat="44.38578" lon="6.39001">
        <ele>1906</ele>
        <time>2020-07-07T06:24:57.000Z</time>
      </trkpt>
      <trkpt lat="44.38578" lon="6.39001">
        <ele>1906</ele>
        <time>2020-07-07T06:24:58.000Z</time>
      </trkpt>
      <trkpt lat="44.38578" lon="6.39002">
        <ele>1906</ele>
        <time>2020-07-07T06:24:59.000Z</time>
      </trkpt>
      <trkpt lat="44.38578" lon="6.39002">
        <ele>1906</ele>
        <time>2020-07-07T06:25:00.000Z</time>
      </trkpt>
      <trkpt lat="44.38577" lon="6.39001">
        <ele>1906</ele>
        <time>2020-07-07T06:25:01.000Z</time>
      </trkpt>
      <trkpt lat="44.38577" lon="6.39002">
        <ele>1906</ele>
        <time>2020-07-07T06:25:02.000Z</time>
      </trkpt>
      <trkpt lat="44.38577" lon="6.39002">
        <ele>1906</ele>
        <time>2020-07-07T06:25:03.000Z</time>
      </trkpt>
      <trkpt lat="44.38577" lon="6.39002">
        <ele>1906</ele>
        <time>2020-07-07T06:25:04.000Z</time>
      </trkpt>
      <trkpt lat="44.38577" lon="6.39002">
        <ele>1906</ele>
        <time>2020-07-07T06:25:05.000Z</time>
      </trkpt>
      <trkpt lat="44.38577" lon="6.39002">
        <ele>1906</ele>
        <time>2020-07-07T06:25:06.000Z</time>
      </trkpt>
      <trkpt lat="44.38577" lon="6.39002">
        <ele>1906</ele>
        <time>2020-07-07T06:25:07.000Z</time>
      </trkpt>
      <trkpt lat="44.38577" lon="6.39002">
        <ele>1906</ele>
        <time>2020-07-07T06:25:08.000Z</time>
      </trkpt>
      <trkpt lat="44.38577" lon="6.39002">
        <ele>1906</ele>
        <time>2020-07-07T06:25:09.000Z</time>
      </trkpt>
      <trkpt lat="44.38577" lon="6.39002">
        <ele>1906</ele>
        <time>2020-07-07T06:25:10.000Z</time>
      </trkpt>
      <trkpt lat="44.38577" lon="6.39002">
        <ele>1906</ele>
        <time>2020-07-07T06:25:11.000Z</time>
      </trkpt>
      <trkpt lat="44.38577" lon="6.39002">
        <ele>1906</ele>
        <time>2020-07-07T06:25:12.000Z</time>
      </trkpt>
      <trkpt lat="44.38578" lon="6.39002">
        <ele>1906</ele>
        <time>2020-07-07T06:25:13.000Z</time>
      </trkpt>
      <trkpt lat="44.38578" lon="6.39001">
        <ele>1906</ele>
        <time>2020-07-07T06:25:14.000Z</time>
      </trkpt>
      <trkpt lat="44.38578" lon="6.39001">
        <ele>1906</ele>
        <time>2020-07-07T06:25:15.000Z</time>
      </trkpt>
      <trkpt lat="44.38578" lon="6.39001">
        <ele>1906</ele>
        <time>2020-07-07T06:25:16.000Z</time>
      </trkpt>
      <trkpt lat="44.38578" lon="6.39002">
        <ele>1906</ele>
        <time>2020-07-07T06:25:17.000Z</time>
      </trkpt>
      <trkpt lat="44.38578" lon="6.39002">
        <ele>1906</ele>
        <time>2020-07-07T06:25:18.000Z</time>
      </trkpt>
      <trkpt lat="44.38578" lon="6.39002">
        <ele>1907</ele>
        <time>2020-07-07T06:25:19.000Z</time>
      </trkpt>
      <trkpt lat="44.38578" lon="6.39002">
        <ele>1907</ele>
        <time>2020-07-07T06:25:20.000Z</time>
      </trkpt>
      <trkpt lat="44.38578" lon="6.39002">
        <ele>1907</ele>
        <time>2020-07-07T06:25:21.000Z</time>
      </trkpt>
      <trkpt lat="44.38577" lon="6.39002">
        <ele>1907</ele>
        <time>2020-07-07T06:25:22.000Z</time>
      </trkpt>
      <trkpt lat="44.38577" lon="6.39002">
        <ele>1907</ele>
        <time>2020-07-07T06:25:23.000Z</time>
      </trkpt>
      <trkpt lat="44.38577" lon="6.39001">
        <ele>1907</ele>
        <time>2020-07-07T06:25:24.000Z</time>
      </trkpt>
      <trkpt lat="44.38576" lon="6.39001">
        <ele>1907</ele>
        <time>2020-07-07T06:25:25.000Z</time>
      </trkpt>
      <trkpt lat="44.38577" lon="6.38999">
        <ele>1907</ele>
        <time>2020-07-07T06:25:26.000Z</time>
      </trkpt>
      <trkpt lat="44.38577" lon="6.38998">
        <ele>1907</ele>
        <time>2020-07-07T06:25:27.000Z</time>
      </trkpt>
      <trkpt lat="44.38577" lon="6.38998">
        <ele>1907</ele>
        <time>2020-07-07T06:25:28.000Z</time>
      </trkpt>
      <trkpt lat="44.38578" lon="6.38997">
        <ele>1907</ele>
        <time>2020-07-07T06:25:29.000Z</time>
      </trkpt>
      <trkpt lat="44.38578" lon="6.38997">
        <ele>1907</ele>
        <time>2020-07-07T06:25:30.000Z</time>
      </trkpt>
      <trkpt lat="44.38579" lon="6.38995">
        <ele>1907</ele>
        <time>2020-07-07T06:25:31.000Z</time>
      </trkpt>
      <trkpt lat="44.38579" lon="6.38995">
        <ele>1908</ele>
        <time>2020-07-07T06:25:32.000Z</time>
      </trkpt>
      <trkpt lat="44.38579" lon="6.38994">
        <ele>1908</ele>
        <time>2020-07-07T06:25:33.000Z</time>
      </trkpt>
      <trkpt lat="44.3858" lon="6.38993">
        <ele>1908</ele>
        <time>2020-07-07T06:25:34.000Z</time>
      </trkpt>
      <trkpt lat="44.3858" lon="6.38992">
        <ele>1908</ele>
        <time>2020-07-07T06:25:35.000Z</time>
      </trkpt>
      <trkpt lat="44.3858" lon="6.38991">
        <ele>1908</ele>
        <time>2020-07-07T06:25:36.000Z</time>
      </trkpt>
      <trkpt lat="44.3858" lon="6.38991">
        <ele>1908</ele>
        <time>2020-07-07T06:25:37.000Z</time>
      </trkpt>
      <trkpt lat="44.38581" lon="6.3899">
        <ele>1907</ele>
        <time>2020-07-07T06:25:38.000Z</time>
      </trkpt>
      <trkpt lat="44.38581" lon="6.38989">
        <ele>1907</ele>
        <time>2020-07-07T06:25:39.000Z</time>
      </trkpt>
      <trkpt lat="44.38581" lon="6.38988">
        <ele>1907</ele>
        <time>2020-07-07T06:25:40.000Z</time>
      </trkpt>
      <trkpt lat="44.38582" lon="6.38988">
        <ele>1907</ele>
        <time>2020-07-07T06:25:41.000Z</time>
      </trkpt>
      <trkpt lat="44.38582" lon="6.38987">
        <ele>1908</ele>
        <time>2020-07-07T06:25:42.000Z</time>
      </trkpt>
      <trkpt lat="44.38582" lon="6.38987">
        <ele>1908</ele>
        <time>2020-07-07T06:25:43.000Z</time>
      </trkpt>
      <trkpt lat="44.38582" lon="6.38986">
        <ele>1907</ele>
        <time>2020-07-07T06:25:44.000Z</time>
      </trkpt>
      <trkpt lat="44.38582" lon="6.38986">
        <ele>1907</ele>
        <time>2020-07-07T06:25:45.000Z</time>
      </trkpt>
      <trkpt lat="44.38582" lon="6.38986">
        <ele>1907</ele>
        <time>2020-07-07T06:25:46.000Z</time>
      </trkpt>
      <trkpt lat="44.38581" lon="6.38986">
        <ele>1907</ele>
        <time>2020-07-07T06:25:47.000Z</time>
      </trkpt>
      <trkpt lat="44.38581" lon="6.38986">
        <ele>1907</ele>
        <time>2020-07-07T06:25:48.000Z</time>
      </trkpt>
      <trkpt lat="44.38581" lon="6.38986">
        <ele>1907</ele>
        <time>2020-07-07T06:25:49.000Z</time>
      </trkpt>
      <trkpt lat="44.38581" lon="6.38986">
        <ele>1907</ele>
        <time>2020-07-07T06:25:50.000Z</time>
      </trkpt>
      <trkpt lat="44.38581" lon="6.38986">
        <ele>1907</ele>
        <time>2020-07-07T06:25:51.000Z</time>
      </trkpt>
      <trkpt lat="44.38581" lon="6.38986">
        <ele>1907</ele>
        <time>2020-07-07T06:25:52.000Z</time>
      </trkpt>
      <trkpt lat="44.38581" lon="6.38985">
        <ele>1907</ele>
        <time>2020-07-07T06:25:53.000Z</time>
      </trkpt>
      <trkpt lat="44.38581" lon="6.38985">
        <ele>1908</ele>
        <time>2020-07-07T06:25:54.000Z</time>
      </trkpt>
      <trkpt lat="44.38581" lon="6.38985">
        <ele>1908</ele>
        <time>2020-07-07T06:25:55.000Z</time>
      </trkpt>
      <trkpt lat="44.38581" lon="6.38985">
        <ele>1908</ele>
        <time>2020-07-07T06:25:56.000Z</time>
      </trkpt>
      <trkpt lat="44.38581" lon="6.38985">
        <ele>1908</ele>
        <time>2020-07-07T06:25:57.000Z</time>
      </trkpt>
      <trkpt lat="44.38581" lon="6.38985">
        <ele>1908</ele>
        <time>2020-07-07T06:25:58.000Z</time>
      </trkpt>
      <trkpt lat="44.38581" lon="6.38985">
        <ele>1908</ele>
        <time>2020-07-07T06:25:59.000Z</time>
      </trkpt>
      <trkpt lat="44.38581" lon="6.38985">
        <ele>1908</ele>
        <time>2020-07-07T06:26:00.000Z</time>
      </trkpt>
      <trkpt lat="44.38581" lon="6.38985">
        <ele>1908</ele>
        <time>2020-07-07T06:26:01.000Z</time>
      </trkpt>
      <trkpt lat="44.38581" lon="6.38985">
        <ele>1908</ele>
        <time>2020-07-07T06:26:02.000Z</time>
      </trkpt>
      <trkpt lat="44.38582" lon="6.38985">
        <ele>1908</ele>
        <time>2020-07-07T06:26:03.000Z</time>
      </trkpt>
      <trkpt lat="44.38582" lon="6.38985">
        <ele>1908</ele>
        <time>2020-07-07T06:26:04.000Z</time>
      </trkpt>
      <trkpt lat="44.38582" lon="6.38985">
        <ele>1908</ele>
        <time>2020-07-07T06:26:05.000Z</time>
      </trkpt>
      <trkpt lat="44.38582" lon="6.38985">
        <ele>1909</ele>
        <time>2020-07-07T06:26:06.000Z</time>
      </trkpt>
      <trkpt lat="44.38582" lon="6.38985">
        <ele>1909</ele>
        <time>2020-07-07T06:26:07.000Z</time>
      </trkpt>
      <trkpt lat="44.38581" lon="6.38985">
        <ele>1909</ele>
        <time>2020-07-07T06:26:08.000Z</time>
      </trkpt>
      <trkpt lat="44.38581" lon="6.38985">
        <ele>1909</ele>
        <time>2020-07-07T06:26:09.000Z</time>
      </trkpt>
      <trkpt lat="44.38581" lon="6.38985">
        <ele>1909</ele>
        <time>2020-07-07T06:26:10.000Z</time>
      </trkpt>
      <trkpt lat="44.38581" lon="6.38985">
        <ele>1909</ele>
        <time>2020-07-07T06:26:11.000Z</time>
      </trkpt>
      <trkpt lat="44.38581" lon="6.38985">
        <ele>1909</ele>
        <time>2020-07-07T06:26:12.000Z</time>
      </trkpt>
      <trkpt lat="44.38581" lon="6.38985">
        <ele>1909</ele>
        <time>2020-07-07T06:26:13.000Z</time>
      </trkpt>
      <trkpt lat="44.38581" lon="6.38985">
        <ele>1909</ele>
        <time>2020-07-07T06:26:14.000Z</time>
      </trkpt>
      <trkpt lat="44.38581" lon="6.38985">
        <ele>1909</ele>
        <time>2020-07-07T06:26:15.000Z</time>
      </trkpt>
      <trkpt lat="44.38581" lon="6.38984">
        <ele>1909</ele>
        <time>2020-07-07T06:26:16.000Z</time>
      </trkpt>
      <trkpt lat="44.38581" lon="6.38984">
        <ele>1909</ele>
        <time>2020-07-07T06:26:17.000Z</time>
      </trkpt>
      <trkpt lat="44.38581" lon="6.38984">
        <ele>1909</ele>
        <time>2020-07-07T06:26:18.000Z</time>
      </trkpt>
      <trkpt lat="44.3858" lon="6.38984">
        <ele>1909</ele>
        <time>2020-07-07T06:26:19.000Z</time>
      </trkpt>
      <trkpt lat="44.3858" lon="6.38985">
        <ele>1909</ele>
        <time>2020-07-07T06:26:20.000Z</time>
      </trkpt>
      <trkpt lat="44.3858" lon="6.38985">
        <ele>1909</ele>
        <time>2020-07-07T06:26:21.000Z</time>
      </trkpt>
      <trkpt lat="44.3858" lon="6.38985">
        <ele>1909</ele>
        <time>2020-07-07T06:26:22.000Z</time>
      </trkpt>
      <trkpt lat="44.3858" lon="6.38985">
        <ele>1909</ele>
        <time>2020-07-07T06:26:23.000Z</time>
      </trkpt>
      <trkpt lat="44.3858" lon="6.38985">
        <ele>1909</ele>
        <time>2020-07-07T06:26:24.000Z</time>
      </trkpt>
      <trkpt lat="44.3858" lon="6.38985">
        <ele>1909</ele>
        <time>2020-07-07T06:26:25.000Z</time>
      </trkpt>
      <trkpt lat="44.3858" lon="6.38985">
        <ele>1909</ele>
        <time>2020-07-07T06:26:26.000Z</time>
      </trkpt>
      <trkpt lat="44.3858" lon="6.38985">
        <ele>1909</ele>
        <time>2020-07-07T06:26:27.000Z</time>
      </trkpt>
      <trkpt lat="44.3858" lon="6.38985">
        <ele>1909</ele>
        <time>2020-07-07T06:26:28.000Z</time>
      </trkpt>
      <trkpt lat="44.3858" lon="6.38985">
        <ele>1909</ele>
        <time>2020-07-07T06:26:29.000Z</time>
      </trkpt>
      <trkpt lat="44.3858" lon="6.38985">
        <ele>1909</ele>
        <time>2020-07-07T06:26:30.000Z</time>
      </trkpt>
      <trkpt lat="44.3858" lon="6.38985">
        <ele>1909</ele>
        <time>2020-07-07T06:26:31.000Z</time>
      </trkpt>
      <trkpt lat="44.3858" lon="6.38985">
        <ele>1909</ele>
        <time>2020-07-07T06:26:32.000Z</time>
      </trkpt>
      <trkpt lat="44.3858" lon="6.38985">
        <ele>1909</ele>
        <time>2020-07-07T06:26:33.000Z</time>
      </trkpt>
      <trkpt lat="44.3858" lon="6.38985">
        <ele>1909</ele>
        <time>2020-07-07T06:26:34.000Z</time>
      </trkpt>
      <trkpt lat="44.3858" lon="6.38985">
        <ele>1909</ele>
        <time>2020-07-07T06:26:35.000Z</time>
      </trkpt>
      <trkpt lat="44.3858" lon="6.38985">
        <ele>1909</ele>
        <time>2020-07-07T06:26:36.000Z</time>
      </trkpt>
      <trkpt lat="44.38579" lon="6.38985">
        <ele>1909</ele>
        <time>2020-07-07T06:26:37.000Z</time>
      </trkpt>
      <trkpt lat="44.38579" lon="6.38985">
        <ele>1909</ele>
        <time>2020-07-07T06:26:38.000Z</time>
      </trkpt>
      <trkpt lat="44.38579" lon="6.38985">
        <ele>1909</ele>
        <time>2020-07-07T06:26:39.000Z</time>
      </trkpt>
      <trkpt lat="44.38579" lon="6.38984">
        <ele>1909</ele>
        <time>2020-07-07T06:26:40.000Z</time>
      </trkpt>
      <trkpt lat="44.38579" lon="6.38984">
        <ele>1909</ele>
        <time>2020-07-07T06:26:41.000Z</time>
      </trkpt>
      <trkpt lat="44.38579" lon="6.38984">
        <ele>1909</ele>
        <time>2020-07-07T06:26:42.000Z</time>
      </trkpt>
      <trkpt lat="44.38579" lon="6.38984">
        <ele>1909</ele>
        <time>2020-07-07T06:26:43.000Z</time>
      </trkpt>
      <trkpt lat="44.38579" lon="6.38984">
        <ele>1909</ele>
        <time>2020-07-07T06:26:44.000Z</time>
      </trkpt>
      <trkpt lat="44.38579" lon="6.38984">
        <ele>1909</ele>
        <time>2020-07-07T06:26:45.000Z</time>
      </trkpt>
      <trkpt lat="44.38579" lon="6.38985">
        <ele>1909</ele>
        <time>2020-07-07T06:26:46.000Z</time>
      </trkpt>
      <trkpt lat="44.38579" lon="6.38985">
        <ele>1909</ele>
        <time>2020-07-07T06:26:47.000Z</time>
      </trkpt>
      <trkpt lat="44.38579" lon="6.38985">
        <ele>1909</ele>
        <time>2020-07-07T06:26:48.000Z</time>
      </trkpt>
      <trkpt lat="44.38579" lon="6.38985">
        <ele>1909</ele>
        <time>2020-07-07T06:26:49.000Z</time>
      </trkpt>
      <trkpt lat="44.38579" lon="6.38985">
        <ele>1909</ele>
        <time>2020-07-07T06:26:50.000Z</time>
      </trkpt>
      <trkpt lat="44.38579" lon="6.38985">
        <ele>1908</ele>
        <time>2020-07-07T06:26:51.000Z</time>
      </trkpt>
      <trkpt lat="44.38578" lon="6.38985">
        <ele>1908</ele>
        <time>2020-07-07T06:26:52.000Z</time>
      </trkpt>
      <trkpt lat="44.38578" lon="6.38985">
        <ele>1908</ele>
        <time>2020-07-07T06:26:53.000Z</time>
      </trkpt>
      <trkpt lat="44.38578" lon="6.38985">
        <ele>1908</ele>
        <time>2020-07-07T06:26:54.000Z</time>
      </trkpt>
      <trkpt lat="44.38577" lon="6.38985">
        <ele>1908</ele>
        <time>2020-07-07T06:26:55.000Z</time>
      </trkpt>
      <trkpt lat="44.38577" lon="6.38985">
        <ele>1908</ele>
        <time>2020-07-07T06:26:56.000Z</time>
      </trkpt>
      <trkpt lat="44.38577" lon="6.38985">
        <ele>1908</ele>
        <time>2020-07-07T06:26:57.000Z</time>
      </trkpt>
      <trkpt lat="44.38577" lon="6.38985">
        <ele>1908</ele>
        <time>2020-07-07T06:26:58.000Z</time>
      </trkpt>
      <trkpt lat="44.38577" lon="6.38985">
        <ele>1908</ele>
        <time>2020-07-07T06:26:59.000Z</time>
      </trkpt>
      <trkpt lat="44.38577" lon="6.38985">
        <ele>1908</ele>
        <time>2020-07-07T06:27:00.000Z</time>
      </trkpt>
      <trkpt lat="44.38577" lon="6.38985">
        <ele>1908</ele>
        <time>2020-07-07T06:27:01.000Z</time>
      </trkpt>
      <trkpt lat="44.38577" lon="6.38985">
        <ele>1908</ele>
        <time>2020-07-07T06:27:02.000Z</time>
      </trkpt>
      <trkpt lat="44.38577" lon="6.38985">
        <ele>1908</ele>
        <time>2020-07-07T06:27:03.000Z</time>
      </trkpt>
      <trkpt lat="44.38577" lon="6.38985">
        <ele>1908</ele>
        <time>2020-07-07T06:27:04.000Z</time>
      </trkpt>
      <trkpt lat="44.38577" lon="6.38985">
        <ele>1908</ele>
        <time>2020-07-07T06:27:05.000Z</time>
      </trkpt>
      <trkpt lat="44.38577" lon="6.38986">
        <ele>1908</ele>
        <time>2020-07-07T06:27:06.000Z</time>
      </trkpt>
      <trkpt lat="44.38577" lon="6.38986">
        <ele>1908</ele>
        <time>2020-07-07T06:27:07.000Z</time>
      </trkpt>
      <trkpt lat="44.38577" lon="6.38987">
        <ele>1908</ele>
        <time>2020-07-07T06:27:08.000Z</time>
      </trkpt>
      <trkpt lat="44.38577" lon="6.38987">
        <ele>1908</ele>
        <time>2020-07-07T06:27:09.000Z</time>
      </trkpt>
      <trkpt lat="44.38577" lon="6.38987">
        <ele>1908</ele>
        <time>2020-07-07T06:27:10.000Z</time>
      </trkpt>
      <trkpt lat="44.38578" lon="6.38987">
        <ele>1908</ele>
        <time>2020-07-07T06:27:11.000Z</time>
      </trkpt>
      <trkpt lat="44.38578" lon="6.38987">
        <ele>1908</ele>
        <time>2020-07-07T06:27:12.000Z</time>
      </trkpt>
      <trkpt lat="44.38578" lon="6.38988">
        <ele>1908</ele>
        <time>2020-07-07T06:27:13.000Z</time>
      </trkpt>
      <trkpt lat="44.38578" lon="6.38989">
        <ele>1908</ele>
        <time>2020-07-07T06:27:14.000Z</time>
      </trkpt>
      <trkpt lat="44.38578" lon="6.3899">
        <ele>1908</ele>
        <time>2020-07-07T06:27:15.000Z</time>
      </trkpt>
      <trkpt lat="44.38577" lon="6.38991">
        <ele>1908</ele>
        <time>2020-07-07T06:27:16.000Z</time>
      </trkpt>
      <trkpt lat="44.38577" lon="6.38992">
        <ele>1908</ele>
        <time>2020-07-07T06:27:17.000Z</time>
      </trkpt>
      <trkpt lat="44.38576" lon="6.38994">
        <ele>1908</ele>
        <time>2020-07-07T06:27:18.000Z</time>
      </trkpt>
      <trkpt lat="44.38576" lon="6.38994">
        <ele>1908</ele>
        <time>2020-07-07T06:27:19.000Z</time>
      </trkpt>
      <trkpt lat="44.38575" lon="6.38995">
        <ele>1908</ele>
        <time>2020-07-07T06:27:20.000Z</time>
      </trkpt>
      <trkpt lat="44.38575" lon="6.38996">
        <ele>1908</ele>
        <time>2020-07-07T06:27:21.000Z</time>
      </trkpt>
      <trkpt lat="44.38574" lon="6.38997">
        <ele>1908</ele>
        <time>2020-07-07T06:27:22.000Z</time>
      </trkpt>
      <trkpt lat="44.38574" lon="6.38998">
        <ele>1908</ele>
        <time>2020-07-07T06:27:23.000Z</time>
      </trkpt>
      <trkpt lat="44.38574" lon="6.38998">
        <ele>1908</ele>
        <time>2020-07-07T06:27:24.000Z</time>
      </trkpt>
      <trkpt lat="44.38574" lon="6.38999">
        <ele>1908</ele>
        <time>2020-07-07T06:27:25.000Z</time>
      </trkpt>
      <trkpt lat="44.38574" lon="6.38999">
        <ele>1908</ele>
        <time>2020-07-07T06:27:26.000Z</time>
      </trkpt>
      <trkpt lat="44.38574" lon="6.38999">
        <ele>1908</ele>
        <time>2020-07-07T06:27:27.000Z</time>
      </trkpt>
      <trkpt lat="44.38574" lon="6.38999">
        <ele>1908</ele>
        <time>2020-07-07T06:27:28.000Z</time>
      </trkpt>
      <trkpt lat="44.38575" lon="6.38999">
        <ele>1908</ele>
        <time>2020-07-07T06:27:29.000Z</time>
      </trkpt>
      <trkpt lat="44.38575" lon="6.38999">
        <ele>1908</ele>
        <time>2020-07-07T06:27:30.000Z</time>
      </trkpt>
      <trkpt lat="44.38574" lon="6.38999">
        <ele>1908</ele>
        <time>2020-07-07T06:27:31.000Z</time>
      </trkpt>
      <trkpt lat="44.38574" lon="6.38999">
        <ele>1908</ele>
        <time>2020-07-07T06:27:32.000Z</time>
      </trkpt>
      <trkpt lat="44.38574" lon="6.38999">
        <ele>1908</ele>
        <time>2020-07-07T06:27:33.000Z</time>
      </trkpt>
      <trkpt lat="44.38575" lon="6.38999">
        <ele>1909</ele>
        <time>2020-07-07T06:27:34.000Z</time>
      </trkpt>
      <trkpt lat="44.38575" lon="6.38999">
        <ele>1909</ele>
        <time>2020-07-07T06:27:35.000Z</time>
      </trkpt>
      <trkpt lat="44.38576" lon="6.38999">
        <ele>1909</ele>
        <time>2020-07-07T06:27:36.000Z</time>
      </trkpt>
      <trkpt lat="44.38575" lon="6.39">
        <ele>1908</ele>
        <time>2020-07-07T06:27:37.000Z</time>
      </trkpt>
      <trkpt lat="44.38575" lon="6.39">
        <ele>1908</ele>
        <time>2020-07-07T06:27:38.000Z</time>
      </trkpt>
      <trkpt lat="44.38575" lon="6.39001">
        <ele>1908</ele>
        <time>2020-07-07T06:27:39.000Z</time>
      </trkpt>
      <trkpt lat="44.38575" lon="6.39001">
        <ele>1908</ele>
        <time>2020-07-07T06:27:40.000Z</time>
      </trkpt>
      <trkpt lat="44.38575" lon="6.39002">
        <ele>1908</ele>
        <time>2020-07-07T06:27:41.000Z</time>
      </trkpt>
      <trkpt lat="44.38574" lon="6.39002">
        <ele>1908</ele>
        <time>2020-07-07T06:27:42.000Z</time>
      </trkpt>
      <trkpt lat="44.38574" lon="6.39003">
        <ele>1908</ele>
        <time>2020-07-07T06:27:43.000Z</time>
      </trkpt>
      <trkpt lat="44.38574" lon="6.39003">
        <ele>1908</ele>
        <time>2020-07-07T06:27:44.000Z</time>
      </trkpt>
      <trkpt lat="44.38575" lon="6.39003">
        <ele>1908</ele>
        <time>2020-07-07T06:27:45.000Z</time>
      </trkpt>
      <trkpt lat="44.38574" lon="6.39003">
        <ele>1908</ele>
        <time>2020-07-07T06:27:46.000Z</time>
      </trkpt>
      <trkpt lat="44.38574" lon="6.39003">
        <ele>1908</ele>
        <time>2020-07-07T06:27:47.000Z</time>
      </trkpt>
      <trkpt lat="44.38574" lon="6.39002">
        <ele>1908</ele>
        <time>2020-07-07T06:27:48.000Z</time>
      </trkpt>
      <trkpt lat="44.38574" lon="6.39002">
        <ele>1908</ele>
        <time>2020-07-07T06:27:49.000Z</time>
      </trkpt>
      <trkpt lat="44.38574" lon="6.39003">
        <ele>1908</ele>
        <time>2020-07-07T06:27:50.000Z</time>
      </trkpt>
      <trkpt lat="44.38574" lon="6.39003">
        <ele>1908</ele>
        <time>2020-07-07T06:27:51.000Z</time>
      </trkpt>
      <trkpt lat="44.38574" lon="6.39003">
        <ele>1908</ele>
        <time>2020-07-07T06:27:52.000Z</time>
      </trkpt>
      <trkpt lat="44.38574" lon="6.39003">
        <ele>1908</ele>
        <time>2020-07-07T06:27:53.000Z</time>
      </trkpt>
      <trkpt lat="44.38574" lon="6.39003">
        <ele>1908</ele>
        <time>2020-07-07T06:27:54.000Z</time>
      </trkpt>
      <trkpt lat="44.38574" lon="6.39003">
        <ele>1908</ele>
        <time>2020-07-07T06:27:55.000Z</time>
      </trkpt>
      <trkpt lat="44.38574" lon="6.39003">
        <ele>1908</ele>
        <time>2020-07-07T06:27:56.000Z</time>
      </trkpt>
      <trkpt lat="44.38574" lon="6.39003">
        <ele>1908</ele>
        <time>2020-07-07T06:27:57.000Z</time>
      </trkpt>
      <trkpt lat="44.38574" lon="6.39003">
        <ele>1908</ele>
        <time>2020-07-07T06:27:58.000Z</time>
      </trkpt>
      <trkpt lat="44.38574" lon="6.39003">
        <ele>1908</ele>
        <time>2020-07-07T06:27:59.000Z</time>
      </trkpt>
      <trkpt lat="44.38574" lon="6.39004">
        <ele>1908</ele>
        <time>2020-07-07T06:28:00.000Z</time>
      </trkpt>
      <trkpt lat="44.38573" lon="6.39004">
        <ele>1908</ele>
        <time>2020-07-07T06:28:01.000Z</time>
      </trkpt>
      <trkpt lat="44.38573" lon="6.39004">
        <ele>1908</ele>
        <time>2020-07-07T06:28:02.000Z</time>
      </trkpt>
      <trkpt lat="44.38572" lon="6.39004">
        <ele>1908</ele>
        <time>2020-07-07T06:28:03.000Z</time>
      </trkpt>
      <trkpt lat="44.38571" lon="6.39003">
        <ele>1908</ele>
        <time>2020-07-07T06:28:04.000Z</time>
      </trkpt>
      <trkpt lat="44.3857" lon="6.39003">
        <ele>1908</ele>
        <time>2020-07-07T06:28:05.000Z</time>
      </trkpt>
      <trkpt lat="44.38569" lon="6.39002">
        <ele>1908</ele>
        <time>2020-07-07T06:28:06.000Z</time>
      </trkpt>
      <trkpt lat="44.38569" lon="6.39002">
        <ele>1908</ele>
        <time>2020-07-07T06:28:07.000Z</time>
      </trkpt>
      <trkpt lat="44.38568" lon="6.39002">
        <ele>1908</ele>
        <time>2020-07-07T06:28:08.000Z</time>
      </trkpt>
      <trkpt lat="44.38567" lon="6.39002">
        <ele>1908</ele>
        <time>2020-07-07T06:28:09.000Z</time>
      </trkpt>
      <trkpt lat="44.38566" lon="6.39001">
        <ele>1909</ele>
        <time>2020-07-07T06:28:10.000Z</time>
      </trkpt>
      <trkpt lat="44.38566" lon="6.39001">
        <ele>1909</ele>
        <time>2020-07-07T06:28:11.000Z</time>
      </trkpt>
      <trkpt lat="44.38566" lon="6.39001">
        <ele>1909</ele>
        <time>2020-07-07T06:28:12.000Z</time>
      </trkpt>
      <trkpt lat="44.38565" lon="6.39001">
        <ele>1909</ele>
        <time>2020-07-07T06:28:13.000Z</time>
      </trkpt>
      <trkpt lat="44.38565" lon="6.39001">
        <ele>1909</ele>
        <time>2020-07-07T06:28:14.000Z</time>
      </trkpt>
      <trkpt lat="44.38566" lon="6.39001">
        <ele>1909</ele>
        <time>2020-07-07T06:28:15.000Z</time>
      </trkpt>
      <trkpt lat="44.38566" lon="6.39001">
        <ele>1909</ele>
        <time>2020-07-07T06:28:16.000Z</time>
      </trkpt>
      <trkpt lat="44.38566" lon="6.39002">
        <ele>1909</ele>
        <time>2020-07-07T06:28:17.000Z</time>
      </trkpt>
      <trkpt lat="44.38566" lon="6.39002">
        <ele>1909</ele>
        <time>2020-07-07T06:28:18.000Z</time>
      </trkpt>
      <trkpt lat="44.38566" lon="6.39002">
        <ele>1909</ele>
        <time>2020-07-07T06:28:19.000Z</time>
      </trkpt>
      <trkpt lat="44.38567" lon="6.39002">
        <ele>1909</ele>
        <time>2020-07-07T06:28:20.000Z</time>
      </trkpt>
      <trkpt lat="44.38567" lon="6.39002">
        <ele>1909</ele>
        <time>2020-07-07T06:28:21.000Z</time>
      </trkpt>
      <trkpt lat="44.38568" lon="6.39002">
        <ele>1909</ele>
        <time>2020-07-07T06:28:22.000Z</time>
      </trkpt>
      <trkpt lat="44.38569" lon="6.39002">
        <ele>1909</ele>
        <time>2020-07-07T06:28:23.000Z</time>
      </trkpt>
      <trkpt lat="44.38569" lon="6.39002">
        <ele>1909</ele>
        <time>2020-07-07T06:28:24.000Z</time>
      </trkpt>
      <trkpt lat="44.38569" lon="6.39002">
        <ele>1908</ele>
        <time>2020-07-07T06:28:25.000Z</time>
      </trkpt>
      <trkpt lat="44.3857" lon="6.39001">
        <ele>1908</ele>
        <time>2020-07-07T06:28:26.000Z</time>
      </trkpt>
      <trkpt lat="44.3857" lon="6.39001">
        <ele>1908</ele>
        <time>2020-07-07T06:28:27.000Z</time>
      </trkpt>
      <trkpt lat="44.38571" lon="6.39001">
        <ele>1908</ele>
        <time>2020-07-07T06:28:28.000Z</time>
      </trkpt>
      <trkpt lat="44.38571" lon="6.39001">
        <ele>1908</ele>
        <time>2020-07-07T06:28:29.000Z</time>
      </trkpt>
      <trkpt lat="44.38571" lon="6.39">
        <ele>1908</ele>
        <time>2020-07-07T06:28:30.000Z</time>
      </trkpt>
      <trkpt lat="44.38571" lon="6.39">
        <ele>1908</ele>
        <time>2020-07-07T06:28:31.000Z</time>
      </trkpt>
      <trkpt lat="44.38571" lon="6.39">
        <ele>1908</ele>
        <time>2020-07-07T06:28:32.000Z</time>
      </trkpt>
      <trkpt lat="44.38572" lon="6.39001">
        <ele>1908</ele>
        <time>2020-07-07T06:28:33.000Z</time>
      </trkpt>
      <trkpt lat="44.38572" lon="6.39001">
        <ele>1908</ele>
        <time>2020-07-07T06:28:34.000Z</time>
      </trkpt>
      <trkpt lat="44.38573" lon="6.39002">
        <ele>1908</ele>
        <time>2020-07-07T06:28:35.000Z</time>
      </trkpt>
      <trkpt lat="44.38573" lon="6.39003">
        <ele>1908</ele>
        <time>2020-07-07T06:28:36.000Z</time>
      </trkpt>
      <trkpt lat="44.38574" lon="6.39003">
        <ele>1908</ele>
        <time>2020-07-07T06:28:37.000Z</time>
      </trkpt>
      <trkpt lat="44.38574" lon="6.39003">
        <ele>1908</ele>
        <time>2020-07-07T06:28:38.000Z</time>
      </trkpt>
      <trkpt lat="44.38574" lon="6.39003">
        <ele>1907</ele>
        <time>2020-07-07T06:28:39.000Z</time>
      </trkpt>
      <trkpt lat="44.38574" lon="6.39003">
        <ele>1907</ele>
        <time>2020-07-07T06:28:40.000Z</time>
      </trkpt>
      <trkpt lat="44.38575" lon="6.39003">
        <ele>1907</ele>
        <time>2020-07-07T06:28:41.000Z</time>
      </trkpt>
      <trkpt lat="44.38575" lon="6.39003">
        <ele>1907</ele>
        <time>2020-07-07T06:28:42.000Z</time>
      </trkpt>
      <trkpt lat="44.38575" lon="6.39003">
        <ele>1907</ele>
        <time>2020-07-07T06:28:43.000Z</time>
      </trkpt>
      <trkpt lat="44.38575" lon="6.39003">
        <ele>1907</ele>
        <time>2020-07-07T06:28:44.000Z</time>
      </trkpt>
      <trkpt lat="44.38575" lon="6.39003">
        <ele>1907</ele>
        <time>2020-07-07T06:28:45.000Z</time>
      </trkpt>
      <trkpt lat="44.38575" lon="6.39003">
        <ele>1907</ele>
        <time>2020-07-07T06:28:46.000Z</time>
      </trkpt>
      <trkpt lat="44.38576" lon="6.39003">
        <ele>1907</ele>
        <time>2020-07-07T06:28:47.000Z</time>
      </trkpt>
      <trkpt lat="44.38576" lon="6.39004">
        <ele>1907</ele>
        <time>2020-07-07T06:28:48.000Z</time>
      </trkpt>
      <trkpt lat="44.38576" lon="6.39005">
        <ele>1907</ele>
        <time>2020-07-07T06:28:49.000Z</time>
      </trkpt>
      <trkpt lat="44.38576" lon="6.39005">
        <ele>1907</ele>
        <time>2020-07-07T06:28:50.000Z</time>
      </trkpt>
      <trkpt lat="44.38576" lon="6.39006">
        <ele>1907</ele>
        <time>2020-07-07T06:28:51.000Z</time>
      </trkpt>
      <trkpt lat="44.38577" lon="6.39006">
        <ele>1907</ele>
        <time>2020-07-07T06:28:52.000Z</time>
      </trkpt>
      <trkpt lat="44.38577" lon="6.39007">
        <ele>1907</ele>
        <time>2020-07-07T06:28:53.000Z</time>
      </trkpt>
      <trkpt lat="44.38578" lon="6.39007">
        <ele>1907</ele>
        <time>2020-07-07T06:28:54.000Z</time>
      </trkpt>
      <trkpt lat="44.38578" lon="6.39007">
        <ele>1907</ele>
        <time>2020-07-07T06:28:55.000Z</time>
      </trkpt>
      <trkpt lat="44.38578" lon="6.39007">
        <ele>1907</ele>
        <time>2020-07-07T06:28:56.000Z</time>
      </trkpt>
      <trkpt lat="44.38578" lon="6.39007">
        <ele>1907</ele>
        <time>2020-07-07T06:28:57.000Z</time>
      </trkpt>
      <trkpt lat="44.38578" lon="6.39007">
        <ele>1907</ele>
        <time>2020-07-07T06:28:58.000Z</time>
      </trkpt>
      <trkpt lat="44.38578" lon="6.39007">
        <ele>1907</ele>
        <time>2020-07-07T06:28:59.000Z</time>
      </trkpt>
      <trkpt lat="44.38578" lon="6.39007">
        <ele>1907</ele>
        <time>2020-07-07T06:29:00.000Z</time>
      </trkpt>
      <trkpt lat="44.38577" lon="6.39007">
        <ele>1907</ele>
        <time>2020-07-07T06:29:01.000Z</time>
      </trkpt>
      <trkpt lat="44.38577" lon="6.39007">
        <ele>1907</ele>
        <time>2020-07-07T06:29:02.000Z</time>
      </trkpt>
      <trkpt lat="44.38576" lon="6.39007">
        <ele>1907</ele>
        <time>2020-07-07T06:29:03.000Z</time>
      </trkpt>
      <trkpt lat="44.38576" lon="6.39007">
        <ele>1907</ele>
        <time>2020-07-07T06:29:04.000Z</time>
      </trkpt>
      <trkpt lat="44.38576" lon="6.39007">
        <ele>1907</ele>
        <time>2020-07-07T06:29:05.000Z</time>
      </trkpt>
      <trkpt lat="44.38575" lon="6.39007">
        <ele>1907</ele>
        <time>2020-07-07T06:29:06.000Z</time>
      </trkpt>
      <trkpt lat="44.38575" lon="6.39007">
        <ele>1907</ele>
        <time>2020-07-07T06:29:07.000Z</time>
      </trkpt>
      <trkpt lat="44.38575" lon="6.39006">
        <ele>1907</ele>
        <time>2020-07-07T06:29:08.000Z</time>
      </trkpt>
      <trkpt lat="44.38575" lon="6.39006">
        <ele>1907</ele>
        <time>2020-07-07T06:29:09.000Z</time>
      </trkpt>
      <trkpt lat="44.38574" lon="6.39006">
        <ele>1907</ele>
        <time>2020-07-07T06:29:10.000Z</time>
      </trkpt>
      <trkpt lat="44.38574" lon="6.39006">
        <ele>1907</ele>
        <time>2020-07-07T06:29:11.000Z</time>
      </trkpt>
      <trkpt lat="44.38574" lon="6.39005">
        <ele>1907</ele>
        <time>2020-07-07T06:29:12.000Z</time>
      </trkpt>
      <trkpt lat="44.38575" lon="6.39004">
        <ele>1907</ele>
        <time>2020-07-07T06:29:13.000Z</time>
      </trkpt>
      <trkpt lat="44.38575" lon="6.39003">
        <ele>1907</ele>
        <time>2020-07-07T06:29:14.000Z</time>
      </trkpt>
      <trkpt lat="44.38577" lon="6.39003">
        <ele>1907</ele>
        <time>2020-07-07T06:29:15.000Z</time>
      </trkpt>
      <trkpt lat="44.38577" lon="6.39003">
        <ele>1907</ele>
        <time>2020-07-07T06:29:16.000Z</time>
      </trkpt>
      <trkpt lat="44.38578" lon="6.39003">
        <ele>1907</ele>
        <time>2020-07-07T06:29:17.000Z</time>
      </trkpt>
      <trkpt lat="44.38578" lon="6.39003">
        <ele>1907</ele>
        <time>2020-07-07T06:29:18.000Z</time>
      </trkpt>
      <trkpt lat="44.38578" lon="6.39003">
        <ele>1907</ele>
        <time>2020-07-07T06:29:19.000Z</time>
      </trkpt>
      <trkpt lat="44.38579" lon="6.39004">
        <ele>1907</ele>
        <time>2020-07-07T06:29:20.000Z</time>
      </trkpt>
      <trkpt lat="44.38578" lon="6.39004">
        <ele>1907</ele>
        <time>2020-07-07T06:29:21.000Z</time>
      </trkpt>
      <trkpt lat="44.38578" lon="6.39003">
        <ele>1907</ele>
        <time>2020-07-07T06:29:22.000Z</time>
      </trkpt>
      <trkpt lat="44.38578" lon="6.39003">
        <ele>1907</ele>
        <time>2020-07-07T06:29:23.000Z</time>
      </trkpt>
      <trkpt lat="44.38577" lon="6.39003">
        <ele>1907</ele>
        <time>2020-07-07T06:29:24.000Z</time>
      </trkpt>
      <trkpt lat="44.38577" lon="6.39003">
        <ele>1907</ele>
        <time>2020-07-07T06:29:25.000Z</time>
      </trkpt>
      <trkpt lat="44.38576" lon="6.39002">
        <ele>1907</ele>
        <time>2020-07-07T06:29:26.000Z</time>
      </trkpt>
      <trkpt lat="44.38576" lon="6.39001">
        <ele>1907</ele>
        <time>2020-07-07T06:29:27.000Z</time>
      </trkpt>
      <trkpt lat="44.38576" lon="6.39">
        <ele>1908</ele>
        <time>2020-07-07T06:29:28.000Z</time>
      </trkpt>
      <trkpt lat="44.38576" lon="6.39">
        <ele>1908</ele>
        <time>2020-07-07T06:29:29.000Z</time>
      </trkpt>
      <trkpt lat="44.38575" lon="6.38999">
        <ele>1908</ele>
        <time>2020-07-07T06:29:30.000Z</time>
      </trkpt>
      <trkpt lat="44.38575" lon="6.38998">
        <ele>1908</ele>
        <time>2020-07-07T06:29:31.000Z</time>
      </trkpt>
      <trkpt lat="44.38575" lon="6.38998">
        <ele>1908</ele>
        <time>2020-07-07T06:29:32.000Z</time>
      </trkpt>
      <trkpt lat="44.38574" lon="6.38998">
        <ele>1908</ele>
        <time>2020-07-07T06:29:33.000Z</time>
      </trkpt>
      <trkpt lat="44.38574" lon="6.38998">
        <ele>1908</ele>
        <time>2020-07-07T06:29:34.000Z</time>
      </trkpt>
      <trkpt lat="44.38574" lon="6.38997">
        <ele>1908</ele>
        <time>2020-07-07T06:29:35.000Z</time>
      </trkpt>
      <trkpt lat="44.38574" lon="6.38997">
        <ele>1908</ele>
        <time>2020-07-07T06:29:36.000Z</time>
      </trkpt>
      <trkpt lat="44.38574" lon="6.38997">
        <ele>1908</ele>
        <time>2020-07-07T06:29:37.000Z</time>
      </trkpt>
      <trkpt lat="44.38574" lon="6.38997">
        <ele>1909</ele>
        <time>2020-07-07T06:29:38.000Z</time>
      </trkpt>
      <trkpt lat="44.38574" lon="6.38998">
        <ele>1909</ele>
        <time>2020-07-07T06:29:39.000Z</time>
      </trkpt>
      <trkpt lat="44.38574" lon="6.38998">
        <ele>1909</ele>
        <time>2020-07-07T06:29:40.000Z</time>
      </trkpt>
      <trkpt lat="44.38574" lon="6.38999">
        <ele>1909</ele>
        <time>2020-07-07T06:29:41.000Z</time>
      </trkpt>
      <trkpt lat="44.38575" lon="6.38999">
        <ele>1909</ele>
        <time>2020-07-07T06:29:42.000Z</time>
      </trkpt>
      <trkpt lat="44.38575" lon="6.39">
        <ele>1909</ele>
        <time>2020-07-07T06:29:43.000Z</time>
      </trkpt>
      <trkpt lat="44.38575" lon="6.39001">
        <ele>1909</ele>
        <time>2020-07-07T06:29:44.000Z</time>
      </trkpt>
      <trkpt lat="44.38575" lon="6.39002">
        <ele>1909</ele>
        <time>2020-07-07T06:29:45.000Z</time>
      </trkpt>
      <trkpt lat="44.38575" lon="6.39003">
        <ele>1909</ele>
        <time>2020-07-07T06:29:46.000Z</time>
      </trkpt>
      <trkpt lat="44.38575" lon="6.39005">
        <ele>1909</ele>
        <time>2020-07-07T06:29:47.000Z</time>
      </trkpt>
      <trkpt lat="44.38575" lon="6.39005">
        <ele>1909</ele>
        <time>2020-07-07T06:29:48.000Z</time>
      </trkpt>
      <trkpt lat="44.38575" lon="6.39005">
        <ele>1910</ele>
        <time>2020-07-07T06:29:49.000Z</time>
      </trkpt>
      <trkpt lat="44.38575" lon="6.39005">
        <ele>1910</ele>
        <time>2020-07-07T06:29:50.000Z</time>
      </trkpt>
      <trkpt lat="44.38575" lon="6.39005">
        <ele>1910</ele>
        <time>2020-07-07T06:29:51.000Z</time>
      </trkpt>
      <trkpt lat="44.38575" lon="6.39005">
        <ele>1910</ele>
        <time>2020-07-07T06:29:52.000Z</time>
      </trkpt>
      <trkpt lat="44.38575" lon="6.39005">
        <ele>1910</ele>
        <time>2020-07-07T06:29:53.000Z</time>
      </trkpt>
      <trkpt lat="44.38575" lon="6.39005">
        <ele>1910</ele>
        <time>2020-07-07T06:29:54.000Z</time>
      </trkpt>
      <trkpt lat="44.38575" lon="6.39005">
        <ele>1910</ele>
        <time>2020-07-07T06:29:55.000Z</time>
      </trkpt>
      <trkpt lat="44.38575" lon="6.39005">
        <ele>1910</ele>
        <time>2020-07-07T06:29:56.000Z</time>
      </trkpt>
      <trkpt lat="44.38575" lon="6.39004">
        <ele>1910</ele>
        <time>2020-07-07T06:29:57.000Z</time>
      </trkpt>
      <trkpt lat="44.38575" lon="6.39004">
        <ele>1910</ele>
        <time>2020-07-07T06:29:58.000Z</time>
      </trkpt>
      <trkpt lat="44.38575" lon="6.39004">
        <ele>1910</ele>
        <time>2020-07-07T06:29:59.000Z</time>
      </trkpt>
      <trkpt lat="44.38575" lon="6.39004">
        <ele>1910</ele>
        <time>2020-07-07T06:30:00.000Z</time>
      </trkpt>
      <trkpt lat="44.38575" lon="6.39004">
        <ele>1910</ele>
        <time>2020-07-07T06:30:01.000Z</time>
      </trkpt>
      <trkpt lat="44.38575" lon="6.39004">
        <ele>1910</ele>
        <time>2020-07-07T06:30:02.000Z</time>
      </trkpt>
      <trkpt lat="44.38575" lon="6.39004">
        <ele>1910</ele>
        <time>2020-07-07T06:30:03.000Z</time>
      </trkpt>
      <trkpt lat="44.38575" lon="6.39004">
        <ele>1910</ele>
        <time>2020-07-07T06:30:04.000Z</time>
      </trkpt>
      <trkpt lat="44.38574" lon="6.39004">
        <ele>1910</ele>
        <time>2020-07-07T06:30:05.000Z</time>
      </trkpt>
      <trkpt lat="44.38574" lon="6.39004">
        <ele>1910</ele>
        <time>2020-07-07T06:30:06.000Z</time>
      </trkpt>
      <trkpt lat="44.38574" lon="6.39003">
        <ele>1910</ele>
        <time>2020-07-07T06:30:07.000Z</time>
      </trkpt>
      <trkpt lat="44.38574" lon="6.39003">
        <ele>1910</ele>
        <time>2020-07-07T06:30:08.000Z</time>
      </trkpt>
      <trkpt lat="44.38574" lon="6.39003">
        <ele>1910</ele>
        <time>2020-07-07T06:30:09.000Z</time>
      </trkpt>
      <trkpt lat="44.38574" lon="6.39003">
        <ele>1909</ele>
        <time>2020-07-07T06:30:10.000Z</time>
      </trkpt>
      <trkpt lat="44.38574" lon="6.39003">
        <ele>1909</ele>
        <time>2020-07-07T06:30:11.000Z</time>
      </trkpt>
      <trkpt lat="44.38573" lon="6.39004">
        <ele>1909</ele>
        <time>2020-07-07T06:30:12.000Z</time>
      </trkpt>
      <trkpt lat="44.38573" lon="6.39004">
        <ele>1909</ele>
        <time>2020-07-07T06:30:13.000Z</time>
      </trkpt>
      <trkpt lat="44.38573" lon="6.39004">
        <ele>1909</ele>
        <time>2020-07-07T06:30:14.000Z</time>
      </trkpt>
      <trkpt lat="44.38573" lon="6.39003">
        <ele>1909</ele>
        <time>2020-07-07T06:30:15.000Z</time>
      </trkpt>
      <trkpt lat="44.38573" lon="6.39003">
        <ele>1910</ele>
        <time>2020-07-07T06:30:16.000Z</time>
      </trkpt>
      <trkpt lat="44.38573" lon="6.39003">
        <ele>1910</ele>
        <time>2020-07-07T06:30:17.000Z</time>
      </trkpt>
      <trkpt lat="44.38573" lon="6.39003">
        <ele>1910</ele>
        <time>2020-07-07T06:30:18.000Z</time>
      </trkpt>
      <trkpt lat="44.38573" lon="6.39003">
        <ele>1910</ele>
        <time>2020-07-07T06:30:19.000Z</time>
      </trkpt>
      <trkpt lat="44.38573" lon="6.39003">
        <ele>1910</ele>
        <time>2020-07-07T06:30:20.000Z</time>
      </trkpt>
      <trkpt lat="44.38573" lon="6.39003">
        <ele>1910</ele>
        <time>2020-07-07T06:30:21.000Z</time>
      </trkpt>
      <trkpt lat="44.38573" lon="6.39003">
        <ele>1910</ele>
        <time>2020-07-07T06:30:22.000Z</time>
      </trkpt>
      <trkpt lat="44.38573" lon="6.39003">
        <ele>1910</ele>
        <time>2020-07-07T06:30:23.000Z</time>
      </trkpt>
      <trkpt lat="44.38573" lon="6.39003">
        <ele>1910</ele>
        <time>2020-07-07T06:30:24.000Z</time>
      </trkpt>
      <trkpt lat="44.38573" lon="6.39003">
        <ele>1910</ele>
        <time>2020-07-07T06:30:25.000Z</time>
      </trkpt>
      <trkpt lat="44.38573" lon="6.39003">
        <ele>1910</ele>
        <time>2020-07-07T06:30:26.000Z</time>
      </trkpt>
      <trkpt lat="44.38573" lon="6.39003">
        <ele>1910</ele>
        <time>2020-07-07T06:30:27.000Z</time>
      </trkpt>
      <trkpt lat="44.38573" lon="6.39003">
        <ele>1910</ele>
        <time>2020-07-07T06:30:28.000Z</time>
      </trkpt>
      <trkpt lat="44.38573" lon="6.39004">
        <ele>1910</ele>
        <time>2020-07-07T06:30:29.000Z</time>
      </trkpt>
      <trkpt lat="44.38573" lon="6.39004">
        <ele>1910</ele>
        <time>2020-07-07T06:30:30.000Z</time>
      </trkpt>
      <trkpt lat="44.38574" lon="6.39004">
        <ele>1910</ele>
        <time>2020-07-07T06:30:31.000Z</time>
      </trkpt>
      <trkpt lat="44.38573" lon="6.39004">
        <ele>1910</ele>
        <time>2020-07-07T06:30:32.000Z</time>
      </trkpt>
      <trkpt lat="44.38573" lon="6.39003">
        <ele>1910</ele>
        <time>2020-07-07T06:30:33.000Z</time>
      </trkpt>
      <trkpt lat="44.38573" lon="6.39003">
        <ele>1910</ele>
        <time>2020-07-07T06:30:34.000Z</time>
      </trkpt>
      <trkpt lat="44.38573" lon="6.39003">
        <ele>1910</ele>
        <time>2020-07-07T06:30:35.000Z</time>
      </trkpt>
      <trkpt lat="44.38573" lon="6.39003">
        <ele>1910</ele>
        <time>2020-07-07T06:30:36.000Z</time>
      </trkpt>
      <trkpt lat="44.38573" lon="6.39003">
        <ele>1910</ele>
        <time>2020-07-07T06:30:37.000Z</time>
      </trkpt>
      <trkpt lat="44.38573" lon="6.39003">
        <ele>1910</ele>
        <time>2020-07-07T06:30:38.000Z</time>
      </trkpt>
      <trkpt lat="44.38573" lon="6.39003">
        <ele>1910</ele>
        <time>2020-07-07T06:30:39.000Z</time>
      </trkpt>
      <trkpt lat="44.38573" lon="6.39003">
        <ele>1910</ele>
        <time>2020-07-07T06:30:40.000Z</time>
      </trkpt>
      <trkpt lat="44.38573" lon="6.39002">
        <ele>1910</ele>
        <time>2020-07-07T06:30:41.000Z</time>
      </trkpt>
      <trkpt lat="44.38573" lon="6.39002">
        <ele>1910</ele>
        <time>2020-07-07T06:30:42.000Z</time>
      </trkpt>
      <trkpt lat="44.38572" lon="6.39002">
        <ele>1910</ele>
        <time>2020-07-07T06:30:43.000Z</time>
      </trkpt>
      <trkpt lat="44.38572" lon="6.39002">
        <ele>1910</ele>
        <time>2020-07-07T06:30:44.000Z</time>
      </trkpt>
      <trkpt lat="44.38572" lon="6.39002">
        <ele>1910</ele>
        <time>2020-07-07T06:30:45.000Z</time>
      </trkpt>
      <trkpt lat="44.38573" lon="6.39003">
        <ele>1910</ele>
        <time>2020-07-07T06:30:46.000Z</time>
      </trkpt>
      <trkpt lat="44.38573" lon="6.39003">
        <ele>1910</ele>
        <time>2020-07-07T06:30:47.000Z</time>
      </trkpt>
      <trkpt lat="44.38573" lon="6.39003">
        <ele>1910</ele>
        <time>2020-07-07T06:30:48.000Z</time>
      </trkpt>
      <trkpt lat="44.38573" lon="6.39002">
        <ele>1910</ele>
        <time>2020-07-07T06:30:49.000Z</time>
      </trkpt>
      <trkpt lat="44.38573" lon="6.39002">
        <ele>1910</ele>
        <time>2020-07-07T06:30:50.000Z</time>
      </trkpt>
      <trkpt lat="44.38572" lon="6.39002">
        <ele>1910</ele>
        <time>2020-07-07T06:30:51.000Z</time>
      </trkpt>
      <trkpt lat="44.38572" lon="6.39002">
        <ele>1910</ele>
        <time>2020-07-07T06:30:52.000Z</time>
      </trkpt>
      <trkpt lat="44.38572" lon="6.39002">
        <ele>1910</ele>
        <time>2020-07-07T06:30:53.000Z</time>
      </trkpt>
      <trkpt lat="44.38572" lon="6.39001">
        <ele>1910</ele>
        <time>2020-07-07T06:30:54.000Z</time>
      </trkpt>
      <trkpt lat="44.38572" lon="6.39002">
        <ele>1910</ele>
        <time>2020-07-07T06:30:55.000Z</time>
      </trkpt>
      <trkpt lat="44.38572" lon="6.39002">
        <ele>1910</ele>
        <time>2020-07-07T06:30:56.000Z</time>
      </trkpt>
      <trkpt lat="44.38572" lon="6.39002">
        <ele>1910</ele>
        <time>2020-07-07T06:30:57.000Z</time>
      </trkpt>
      <trkpt lat="44.38572" lon="6.39002">
        <ele>1910</ele>
        <time>2020-07-07T06:30:58.000Z</time>
      </trkpt>
      <trkpt lat="44.38572" lon="6.39002">
        <ele>1910</ele>
        <time>2020-07-07T06:30:59.000Z</time>
      </trkpt>
      <trkpt lat="44.38572" lon="6.39001">
        <ele>1910</ele>
        <time>2020-07-07T06:31:00.000Z</time>
      </trkpt>
      <trkpt lat="44.38572" lon="6.39001">
        <ele>1910</ele>
        <time>2020-07-07T06:31:01.000Z</time>
      </trkpt>
      <trkpt lat="44.38572" lon="6.39001">
        <ele>1910</ele>
        <time>2020-07-07T06:31:02.000Z</time>
      </trkpt>
      <trkpt lat="44.38572" lon="6.39001">
        <ele>1910</ele>
        <time>2020-07-07T06:31:03.000Z</time>
      </trkpt>
      <trkpt lat="44.38572" lon="6.39001">
        <ele>1909</ele>
        <time>2020-07-07T06:31:04.000Z</time>
      </trkpt>
      <trkpt lat="44.38572" lon="6.39001">
        <ele>1909</ele>
        <time>2020-07-07T06:31:05.000Z</time>
      </trkpt>
      <trkpt lat="44.38572" lon="6.39001">
        <ele>1909</ele>
        <time>2020-07-07T06:31:06.000Z</time>
      </trkpt>
      <trkpt lat="44.38572" lon="6.39001">
        <ele>1909</ele>
        <time>2020-07-07T06:31:07.000Z</time>
      </trkpt>
      <trkpt lat="44.38572" lon="6.39001">
        <ele>1909</ele>
        <time>2020-07-07T06:31:08.000Z</time>
      </trkpt>
      <trkpt lat="44.38572" lon="6.39001">
        <ele>1909</ele>
        <time>2020-07-07T06:31:09.000Z</time>
      </trkpt>
      <trkpt lat="44.38572" lon="6.39001">
        <ele>1909</ele>
        <time>2020-07-07T06:31:10.000Z</time>
      </trkpt>
      <trkpt lat="44.38572" lon="6.39001">
        <ele>1909</ele>
        <time>2020-07-07T06:31:11.000Z</time>
      </trkpt>
      <trkpt lat="44.38573" lon="6.39001">
        <ele>1909</ele>
        <time>2020-07-07T06:31:12.000Z</time>
      </trkpt>
      <trkpt lat="44.38573" lon="6.39001">
        <ele>1909</ele>
        <time>2020-07-07T06:31:13.000Z</time>
      </trkpt>
      <trkpt lat="44.38573" lon="6.39001">
        <ele>1909</ele>
        <time>2020-07-07T06:31:14.000Z</time>
      </trkpt>
      <trkpt lat="44.38573" lon="6.39001">
        <ele>1909</ele>
        <time>2020-07-07T06:31:15.000Z</time>
      </trkpt>
      <trkpt lat="44.38573" lon="6.39001">
        <ele>1908</ele>
        <time>2020-07-07T06:31:16.000Z</time>
      </trkpt>
      <trkpt lat="44.38574" lon="6.39001">
        <ele>1908</ele>
        <time>2020-07-07T06:31:17.000Z</time>
      </trkpt>
      <trkpt lat="44.38574" lon="6.39002">
        <ele>1908</ele>
        <time>2020-07-07T06:31:18.000Z</time>
      </trkpt>
      <trkpt lat="44.38574" lon="6.39002">
        <ele>1908</ele>
        <time>2020-07-07T06:31:19.000Z</time>
      </trkpt>
      <trkpt lat="44.38574" lon="6.39002">
        <ele>1908</ele>
        <time>2020-07-07T06:31:20.000Z</time>
      </trkpt>
      <trkpt lat="44.38574" lon="6.39002">
        <ele>1908</ele>
        <time>2020-07-07T06:31:21.000Z</time>
      </trkpt>
      <trkpt lat="44.38574" lon="6.39001">
        <ele>1908</ele>
        <time>2020-07-07T06:31:22.000Z</time>
      </trkpt>
      <trkpt lat="44.38574" lon="6.39001">
        <ele>1908</ele>
        <time>2020-07-07T06:31:23.000Z</time>
      </trkpt>
      <trkpt lat="44.38574" lon="6.39001">
        <ele>1908</ele>
        <time>2020-07-07T06:31:24.000Z</time>
      </trkpt>
      <trkpt lat="44.38575" lon="6.39001">
        <ele>1908</ele>
        <time>2020-07-07T06:31:25.000Z</time>
      </trkpt>
      <trkpt lat="44.38575" lon="6.39001">
        <ele>1908</ele>
        <time>2020-07-07T06:31:26.000Z</time>
      </trkpt>
      <trkpt lat="44.38575" lon="6.39001">
        <ele>1908</ele>
        <time>2020-07-07T06:31:27.000Z</time>
      </trkpt>
      <trkpt lat="44.38575" lon="6.39001">
        <ele>1908</ele>
        <time>2020-07-07T06:31:28.000Z</time>
      </trkpt>
      <trkpt lat="44.38575" lon="6.39001">
        <ele>1908</ele>
        <time>2020-07-07T06:31:29.000Z</time>
      </trkpt>
      <trkpt lat="44.38575" lon="6.39001">
        <ele>1908</ele>
        <time>2020-07-07T06:31:30.000Z</time>
      </trkpt>
      <trkpt lat="44.38575" lon="6.39001">
        <ele>1908</ele>
        <time>2020-07-07T06:31:31.000Z</time>
      </trkpt>
      <trkpt lat="44.38575" lon="6.39001">
        <ele>1908</ele>
        <time>2020-07-07T06:31:32.000Z</time>
      </trkpt>
      <trkpt lat="44.38575" lon="6.39">
        <ele>1908</ele>
        <time>2020-07-07T06:31:33.000Z</time>
      </trkpt>
      <trkpt lat="44.38575" lon="6.39">
        <ele>1907</ele>
        <time>2020-07-07T06:31:34.000Z</time>
      </trkpt>
      <trkpt lat="44.38575" lon="6.39">
        <ele>1907</ele>
        <time>2020-07-07T06:31:35.000Z</time>
      </trkpt>
      <trkpt lat="44.38576" lon="6.39">
        <ele>1907</ele>
        <time>2020-07-07T06:31:36.000Z</time>
      </trkpt>
      <trkpt lat="44.38576" lon="6.39">
        <ele>1907</ele>
        <time>2020-07-07T06:31:37.000Z</time>
      </trkpt>
      <trkpt lat="44.38576" lon="6.39">
        <ele>1907</ele>
        <time>2020-07-07T06:31:38.000Z</time>
      </trkpt>
      <trkpt lat="44.38576" lon="6.39">
        <ele>1907</ele>
        <time>2020-07-07T06:31:39.000Z</time>
      </trkpt>
      <trkpt lat="44.38576" lon="6.39">
        <ele>1907</ele>
        <time>2020-07-07T06:31:40.000Z</time>
      </trkpt>
      <trkpt lat="44.38577" lon="6.39">
        <ele>1907</ele>
        <time>2020-07-07T06:31:41.000Z</time>
      </trkpt>
      <trkpt lat="44.38577" lon="6.39">
        <ele>1907</ele>
        <time>2020-07-07T06:31:42.000Z</time>
      </trkpt>
      <trkpt lat="44.38576" lon="6.39">
        <ele>1907</ele>
        <time>2020-07-07T06:31:43.000Z</time>
      </trkpt>
      <trkpt lat="44.38576" lon="6.39">
        <ele>1907</ele>
        <time>2020-07-07T06:31:44.000Z</time>
      </trkpt>
      <trkpt lat="44.38576" lon="6.39">
        <ele>1907</ele>
        <time>2020-07-07T06:31:45.000Z</time>
      </trkpt>
      <trkpt lat="44.38577" lon="6.39">
        <ele>1907</ele>
        <time>2020-07-07T06:31:46.000Z</time>
      </trkpt>
      <trkpt lat="44.38577" lon="6.39">
        <ele>1907</ele>
        <time>2020-07-07T06:31:47.000Z</time>
      </trkpt>
      <trkpt lat="44.38577" lon="6.39">
        <ele>1907</ele>
        <time>2020-07-07T06:31:48.000Z</time>
      </trkpt>
      <trkpt lat="44.38576" lon="6.39">
        <ele>1907</ele>
        <time>2020-07-07T06:31:49.000Z</time>
      </trkpt>
      <trkpt lat="44.38576" lon="6.39">
        <ele>1907</ele>
        <time>2020-07-07T06:31:50.000Z</time>
      </trkpt>
      <trkpt lat="44.38577" lon="6.39">
        <ele>1907</ele>
        <time>2020-07-07T06:31:51.000Z</time>
      </trkpt>
      <trkpt lat="44.38576" lon="6.39">
        <ele>1907</ele>
        <time>2020-07-07T06:31:52.000Z</time>
      </trkpt>
      <trkpt lat="44.38577" lon="6.39">
        <ele>1907</ele>
        <time>2020-07-07T06:31:53.000Z</time>
      </trkpt>
      <trkpt lat="44.38577" lon="6.39">
        <ele>1907</ele>
        <time>2020-07-07T06:31:54.000Z</time>
      </trkpt>
      <trkpt lat="44.38576" lon="6.39">
        <ele>1907</ele>
        <time>2020-07-07T06:31:55.000Z</time>
      </trkpt>
      <trkpt lat="44.38576" lon="6.39">
        <ele>1907</ele>
        <time>2020-07-07T06:31:56.000Z</time>
      </trkpt>
      <trkpt lat="44.38576" lon="6.39">
        <ele>1907</ele>
        <time>2020-07-07T06:31:57.000Z</time>
      </trkpt>
      <trkpt lat="44.38576" lon="6.39001">
        <ele>1907</ele>
        <time>2020-07-07T06:31:58.000Z</time>
      </trkpt>
      <trkpt lat="44.38576" lon="6.39001">
        <ele>1907</ele>
        <time>2020-07-07T06:31:59.000Z</time>
      </trkpt>
      <trkpt lat="44.38576" lon="6.39001">
        <ele>1907</ele>
        <time>2020-07-07T06:32:00.000Z</time>
      </trkpt>
      <trkpt lat="44.38576" lon="6.39001">
        <ele>1907</ele>
        <time>2020-07-07T06:32:01.000Z</time>
      </trkpt>
      <trkpt lat="44.38576" lon="6.39001">
        <ele>1907</ele>
        <time>2020-07-07T06:32:02.000Z</time>
      </trkpt>
      <trkpt lat="44.38576" lon="6.39001">
        <ele>1907</ele>
        <time>2020-07-07T06:32:03.000Z</time>
      </trkpt>
      <trkpt lat="44.38576" lon="6.39002">
        <ele>1907</ele>
        <time>2020-07-07T06:32:04.000Z</time>
      </trkpt>
      <trkpt lat="44.38576" lon="6.39002">
        <ele>1907</ele>
        <time>2020-07-07T06:32:05.000Z</time>
      </trkpt>
      <trkpt lat="44.38576" lon="6.39002">
        <ele>1907</ele>
        <time>2020-07-07T06:32:06.000Z</time>
      </trkpt>
      <trkpt lat="44.38576" lon="6.39003">
        <ele>1907</ele>
        <time>2020-07-07T06:32:07.000Z</time>
      </trkpt>
      <trkpt lat="44.38576" lon="6.39003">
        <ele>1906</ele>
        <time>2020-07-07T06:32:08.000Z</time>
      </trkpt>
      <trkpt lat="44.38577" lon="6.39003">
        <ele>1906</ele>
        <time>2020-07-07T06:32:09.000Z</time>
      </trkpt>
      <trkpt lat="44.38577" lon="6.39003">
        <ele>1906</ele>
        <time>2020-07-07T06:32:10.000Z</time>
      </trkpt>
      <trkpt lat="44.38577" lon="6.39003">
        <ele>1906</ele>
        <time>2020-07-07T06:32:11.000Z</time>
      </trkpt>
      <trkpt lat="44.38577" lon="6.39003">
        <ele>1906</ele>
        <time>2020-07-07T06:32:12.000Z</time>
      </trkpt>
      <trkpt lat="44.38577" lon="6.39003">
        <ele>1906</ele>
        <time>2020-07-07T06:32:13.000Z</time>
      </trkpt>
      <trkpt lat="44.38577" lon="6.39003">
        <ele>1906</ele>
        <time>2020-07-07T06:32:14.000Z</time>
      </trkpt>
      <trkpt lat="44.38577" lon="6.39003">
        <ele>1906</ele>
        <time>2020-07-07T06:32:15.000Z</time>
      </trkpt>
      <trkpt lat="44.38577" lon="6.39003">
        <ele>1906</ele>
        <time>2020-07-07T06:32:16.000Z</time>
      </trkpt>
      <trkpt lat="44.38577" lon="6.39003">
        <ele>1906</ele>
        <time>2020-07-07T06:32:17.000Z</time>
      </trkpt>
      <trkpt lat="44.38577" lon="6.39003">
        <ele>1906</ele>
        <time>2020-07-07T06:32:18.000Z</time>
      </trkpt>
      <trkpt lat="44.38577" lon="6.39004">
        <ele>1906</ele>
        <time>2020-07-07T06:32:19.000Z</time>
      </trkpt>
      <trkpt lat="44.38577" lon="6.39005">
        <ele>1906</ele>
        <time>2020-07-07T06:32:20.000Z</time>
      </trkpt>
      <trkpt lat="44.38577" lon="6.39005">
        <ele>1906</ele>
        <time>2020-07-07T06:32:21.000Z</time>
      </trkpt>
      <trkpt lat="44.38578" lon="6.39005">
        <ele>1906</ele>
        <time>2020-07-07T06:32:22.000Z</time>
      </trkpt>
      <trkpt lat="44.38578" lon="6.39005">
        <ele>1906</ele>
        <time>2020-07-07T06:32:23.000Z</time>
      </trkpt>
      <trkpt lat="44.38578" lon="6.39005">
        <ele>1906</ele>
        <time>2020-07-07T06:32:24.000Z</time>
      </trkpt>
      <trkpt lat="44.38578" lon="6.39005">
        <ele>1906</ele>
        <time>2020-07-07T06:32:25.000Z</time>
      </trkpt>
      <trkpt lat="44.38578" lon="6.39005">
        <ele>1905</ele>
        <time>2020-07-07T06:32:26.000Z</time>
      </trkpt>
      <trkpt lat="44.38578" lon="6.39005">
        <ele>1905</ele>
        <time>2020-07-07T06:32:27.000Z</time>
      </trkpt>
      <trkpt lat="44.38578" lon="6.39005">
        <ele>1905</ele>
        <time>2020-07-07T06:32:28.000Z</time>
      </trkpt>
      <trkpt lat="44.38578" lon="6.39005">
        <ele>1905</ele>
        <time>2020-07-07T06:32:29.000Z</time>
      </trkpt>
      <trkpt lat="44.38578" lon="6.39005">
        <ele>1905</ele>
        <time>2020-07-07T06:32:30.000Z</time>
      </trkpt>
      <trkpt lat="44.38578" lon="6.39005">
        <ele>1905</ele>
        <time>2020-07-07T06:32:31.000Z</time>
      </trkpt>
      <trkpt lat="44.38578" lon="6.39005">
        <ele>1905</ele>
        <time>2020-07-07T06:32:32.000Z</time>
      </trkpt>
      <trkpt lat="44.38578" lon="6.39005">
        <ele>1905</ele>
        <time>2020-07-07T06:32:33.000Z</time>
      </trkpt>
      <trkpt lat="44.38578" lon="6.39005">
        <ele>1905</ele>
        <time>2020-07-07T06:32:34.000Z</time>
      </trkpt>
      <trkpt lat="44.38578" lon="6.39005">
        <ele>1905</ele>
        <time>2020-07-07T06:32:35.000Z</time>
      </trkpt>
      <trkpt lat="44.38578" lon="6.39005">
        <ele>1905</ele>
        <time>2020-07-07T06:32:36.000Z</time>
      </trkpt>
      <trkpt lat="44.38578" lon="6.39005">
        <ele>1905</ele>
        <time>2020-07-07T06:32:37.000Z</time>
      </trkpt>
      <trkpt lat="44.38578" lon="6.39005">
        <ele>1905</ele>
        <time>2020-07-07T06:32:38.000Z</time>
      </trkpt>
      <trkpt lat="44.38578" lon="6.39005">
        <ele>1905</ele>
        <time>2020-07-07T06:32:39.000Z</time>
      </trkpt>
      <trkpt lat="44.38578" lon="6.39005">
        <ele>1905</ele>
        <time>2020-07-07T06:32:40.000Z</time>
      </trkpt>
      <trkpt lat="44.38578" lon="6.39005">
        <ele>1905</ele>
        <time>2020-07-07T06:32:41.000Z</time>
      </trkpt>
      <trkpt lat="44.38578" lon="6.39005">
        <ele>1905</ele>
        <time>2020-07-07T06:32:42.000Z</time>
      </trkpt>
      <trkpt lat="44.38578" lon="6.39005">
        <ele>1905</ele>
        <time>2020-07-07T06:32:43.000Z</time>
      </trkpt>
      <trkpt lat="44.38578" lon="6.39005">
        <ele>1905</ele>
        <time>2020-07-07T06:32:44.000Z</time>
      </trkpt>
      <trkpt lat="44.38578" lon="6.39006">
        <ele>1905</ele>
        <time>2020-07-07T06:32:45.000Z</time>
      </trkpt>
      <trkpt lat="44.38578" lon="6.39006">
        <ele>1905</ele>
        <time>2020-07-07T06:32:46.000Z</time>
      </trkpt>
      <trkpt lat="44.38578" lon="6.39006">
        <ele>1905</ele>
        <time>2020-07-07T06:32:47.000Z</time>
      </trkpt>
      <trkpt lat="44.38578" lon="6.39006">
        <ele>1905</ele>
        <time>2020-07-07T06:32:48.000Z</time>
      </trkpt>
      <trkpt lat="44.38578" lon="6.39006">
        <ele>1905</ele>
        <time>2020-07-07T06:32:49.000Z</time>
      </trkpt>
      <trkpt lat="44.38579" lon="6.39006">
        <ele>1905</ele>
        <time>2020-07-07T06:32:50.000Z</time>
      </trkpt>
      <trkpt lat="44.38579" lon="6.39006">
        <ele>1905</ele>
        <time>2020-07-07T06:32:51.000Z</time>
      </trkpt>
      <trkpt lat="44.38579" lon="6.39006">
        <ele>1905</ele>
        <time>2020-07-07T06:32:52.000Z</time>
      </trkpt>
      <trkpt lat="44.38578" lon="6.39007">
        <ele>1905</ele>
        <time>2020-07-07T06:32:53.000Z</time>
      </trkpt>
      <trkpt lat="44.38578" lon="6.39006">
        <ele>1905</ele>
        <time>2020-07-07T06:32:54.000Z</time>
      </trkpt>
      <trkpt lat="44.38578" lon="6.39006">
        <ele>1905</ele>
        <time>2020-07-07T06:32:55.000Z</time>
      </trkpt>
      <trkpt lat="44.38578" lon="6.39006">
        <ele>1905</ele>
        <time>2020-07-07T06:32:56.000Z</time>
      </trkpt>
      <trkpt lat="44.38577" lon="6.39005">
        <ele>1905</ele>
        <time>2020-07-07T06:32:57.000Z</time>
      </trkpt>
      <trkpt lat="44.38577" lon="6.39005">
        <ele>1905</ele>
        <time>2020-07-07T06:32:58.000Z</time>
      </trkpt>
      <trkpt lat="44.38577" lon="6.39005">
        <ele>1905</ele>
        <time>2020-07-07T06:32:59.000Z</time>
      </trkpt>
      <trkpt lat="44.38577" lon="6.39005">
        <ele>1905</ele>
        <time>2020-07-07T06:33:00.000Z</time>
      </trkpt>
      <trkpt lat="44.38577" lon="6.39006">
        <ele>1905</ele>
        <time>2020-07-07T06:33:01.000Z</time>
      </trkpt>
      <trkpt lat="44.38577" lon="6.39006">
        <ele>1905</ele>
        <time>2020-07-07T06:33:02.000Z</time>
      </trkpt>
      <trkpt lat="44.38577" lon="6.39006">
        <ele>1905</ele>
        <time>2020-07-07T06:33:03.000Z</time>
      </trkpt>
      <trkpt lat="44.38576" lon="6.39005">
        <ele>1905</ele>
        <time>2020-07-07T06:33:04.000Z</time>
      </trkpt>
      <trkpt lat="44.38576" lon="6.39005">
        <ele>1905</ele>
        <time>2020-07-07T06:33:05.000Z</time>
      </trkpt>
      <trkpt lat="44.38576" lon="6.39005">
        <ele>1905</ele>
        <time>2020-07-07T06:33:06.000Z</time>
      </trkpt>
      <trkpt lat="44.38576" lon="6.39005">
        <ele>1905</ele>
        <time>2020-07-07T06:33:07.000Z</time>
      </trkpt>
      <trkpt lat="44.38576" lon="6.39005">
        <ele>1905</ele>
        <time>2020-07-07T06:33:08.000Z</time>
      </trkpt>
      <trkpt lat="44.38576" lon="6.39005">
        <ele>1905</ele>
        <time>2020-07-07T06:33:09.000Z</time>
      </trkpt>
      <trkpt lat="44.38576" lon="6.39005">
        <ele>1905</ele>
        <time>2020-07-07T06:33:10.000Z</time>
      </trkpt>
      <trkpt lat="44.38576" lon="6.39005">
        <ele>1905</ele>
        <time>2020-07-07T06:33:11.000Z</time>
      </trkpt>
      <trkpt lat="44.38576" lon="6.39005">
        <ele>1905</ele>
        <time>2020-07-07T06:33:12.000Z</time>
      </trkpt>
      <trkpt lat="44.38576" lon="6.39005">
        <ele>1905</ele>
        <time>2020-07-07T06:33:13.000Z</time>
      </trkpt>
      <trkpt lat="44.38576" lon="6.39005">
        <ele>1906</ele>
        <time>2020-07-07T06:33:14.000Z</time>
      </trkpt>
      <trkpt lat="44.38576" lon="6.39005">
        <ele>1906</ele>
        <time>2020-07-07T06:33:15.000Z</time>
      </trkpt>
      <trkpt lat="44.38576" lon="6.39004">
        <ele>1906</ele>
        <time>2020-07-07T06:33:16.000Z</time>
      </trkpt>
      <trkpt lat="44.38576" lon="6.39004">
        <ele>1906</ele>
        <time>2020-07-07T06:33:17.000Z</time>
      </trkpt>
      <trkpt lat="44.38576" lon="6.39004">
        <ele>1906</ele>
        <time>2020-07-07T06:33:18.000Z</time>
      </trkpt>
      <trkpt lat="44.38576" lon="6.39004">
        <ele>1906</ele>
        <time>2020-07-07T06:33:19.000Z</time>
      </trkpt>
      <trkpt lat="44.38575" lon="6.39005">
        <ele>1906</ele>
        <time>2020-07-07T06:33:20.000Z</time>
      </trkpt>
      <trkpt lat="44.38575" lon="6.39005">
        <ele>1906</ele>
        <time>2020-07-07T06:33:21.000Z</time>
      </trkpt>
      <trkpt lat="44.38575" lon="6.39005">
        <ele>1906</ele>
        <time>2020-07-07T06:33:22.000Z</time>
      </trkpt>
      <trkpt lat="44.38575" lon="6.39004">
        <ele>1905</ele>
        <time>2020-07-07T06:33:23.000Z</time>
      </trkpt>
      <trkpt lat="44.38575" lon="6.39004">
        <ele>1905</ele>
        <time>2020-07-07T06:33:24.000Z</time>
      </trkpt>
      <trkpt lat="44.38575" lon="6.39004">
        <ele>1905</ele>
        <time>2020-07-07T06:33:25.000Z</time>
      </trkpt>
      <trkpt lat="44.38575" lon="6.39004">
        <ele>1905</ele>
        <time>2020-07-07T06:33:26.000Z</time>
      </trkpt>
      <trkpt lat="44.38575" lon="6.39004">
        <ele>1905</ele>
        <time>2020-07-07T06:33:27.000Z</time>
      </trkpt>
      <trkpt lat="44.38575" lon="6.39004">
        <ele>1905</ele>
        <time>2020-07-07T06:33:28.000Z</time>
      </trkpt>
      <trkpt lat="44.38575" lon="6.39004">
        <ele>1905</ele>
        <time>2020-07-07T06:33:29.000Z</time>
      </trkpt>
      <trkpt lat="44.38575" lon="6.39004">
        <ele>1905</ele>
        <time>2020-07-07T06:33:30.000Z</time>
      </trkpt>
      <trkpt lat="44.38575" lon="6.39004">
        <ele>1905</ele>
        <time>2020-07-07T06:33:31.000Z</time>
      </trkpt>
      <trkpt lat="44.38575" lon="6.39004">
        <ele>1905</ele>
        <time>2020-07-07T06:33:32.000Z</time>
      </trkpt>
      <trkpt lat="44.38575" lon="6.39004">
        <ele>1905</ele>
        <time>2020-07-07T06:33:33.000Z</time>
      </trkpt>
      <trkpt lat="44.38575" lon="6.39004">
        <ele>1905</ele>
        <time>2020-07-07T06:33:34.000Z</time>
      </trkpt>
      <trkpt lat="44.38575" lon="6.39004">
        <ele>1905</ele>
        <time>2020-07-07T06:33:35.000Z</time>
      </trkpt>
      <trkpt lat="44.38575" lon="6.39004">
        <ele>1905</ele>
        <time>2020-07-07T06:33:36.000Z</time>
      </trkpt>
      <trkpt lat="44.38575" lon="6.39004">
        <ele>1905</ele>
        <time>2020-07-07T06:33:37.000Z</time>
      </trkpt>
      <trkpt lat="44.38575" lon="6.39004">
        <ele>1905</ele>
        <time>2020-07-07T06:33:38.000Z</time>
      </trkpt>
      <trkpt lat="44.38575" lon="6.39004">
        <ele>1905</ele>
        <time>2020-07-07T06:33:39.000Z</time>
      </trkpt>
      <trkpt lat="44.38575" lon="6.39004">
        <ele>1905</ele>
        <time>2020-07-07T06:33:40.000Z</time>
      </trkpt>
      <trkpt lat="44.38575" lon="6.39004">
        <ele>1905</ele>
        <time>2020-07-07T06:33:41.000Z</time>
      </trkpt>
      <trkpt lat="44.38575" lon="6.39004">
        <ele>1905</ele>
        <time>2020-07-07T06:33:42.000Z</time>
      </trkpt>
      <trkpt lat="44.38575" lon="6.39004">
        <ele>1905</ele>
        <time>2020-07-07T06:33:43.000Z</time>
      </trkpt>
      <trkpt lat="44.38575" lon="6.39004">
        <ele>1905</ele>
        <time>2020-07-07T06:33:44.000Z</time>
      </trkpt>
      <trkpt lat="44.38575" lon="6.39004">
        <ele>1905</ele>
        <time>2020-07-07T06:33:45.000Z</time>
      </trkpt>
      <trkpt lat="44.38575" lon="6.39004">
        <ele>1905</ele>
        <time>2020-07-07T06:33:46.000Z</time>
      </trkpt>
      <trkpt lat="44.38575" lon="6.39004">
        <ele>1905</ele>
        <time>2020-07-07T06:33:47.000Z</time>
      </trkpt>
      <trkpt lat="44.38575" lon="6.39004">
        <ele>1905</ele>
        <time>2020-07-07T06:33:48.000Z</time>
      </trkpt>
      <trkpt lat="44.38575" lon="6.39004">
        <ele>1905</ele>
        <time>2020-07-07T06:33:49.000Z</time>
      </trkpt>
      <trkpt lat="44.38575" lon="6.39004">
        <ele>1905</ele>
        <time>2020-07-07T06:33:50.000Z</time>
      </trkpt>
      <trkpt lat="44.38575" lon="6.39004">
        <ele>1905</ele>
        <time>2020-07-07T06:33:51.000Z</time>
      </trkpt>
      <trkpt lat="44.38575" lon="6.39004">
        <ele>1905</ele>
        <time>2020-07-07T06:33:52.000Z</time>
      </trkpt>
      <trkpt lat="44.38575" lon="6.39004">
        <ele>1905</ele>
        <time>2020-07-07T06:33:53.000Z</time>
      </trkpt>
      <trkpt lat="44.38575" lon="6.39004">
        <ele>1905</ele>
        <time>2020-07-07T06:33:54.000Z</time>
      </trkpt>
      <trkpt lat="44.38575" lon="6.39004">
        <ele>1905</ele>
        <time>2020-07-07T06:33:55.000Z</time>
      </trkpt>
      <trkpt lat="44.38575" lon="6.39004">
        <ele>1905</ele>
        <time>2020-07-07T06:33:56.000Z</time>
      </trkpt>
      <trkpt lat="44.38575" lon="6.39004">
        <ele>1905</ele>
        <time>2020-07-07T06:33:57.000Z</time>
      </trkpt>
      <trkpt lat="44.38575" lon="6.39004">
        <ele>1905</ele>
        <time>2020-07-07T06:33:58.000Z</time>
      </trkpt>
      <trkpt lat="44.38575" lon="6.39004">
        <ele>1905</ele>
        <time>2020-07-07T06:33:59.000Z</time>
      </trkpt>
      <trkpt lat="44.38575" lon="6.39004">
        <ele>1905</ele>
        <time>2020-07-07T06:34:00.000Z</time>
      </trkpt>
      <trkpt lat="44.38575" lon="6.39004">
        <ele>1905</ele>
        <time>2020-07-07T06:34:01.000Z</time>
      </trkpt>
      <trkpt lat="44.38575" lon="6.39004">
        <ele>1905</ele>
        <time>2020-07-07T06:34:02.000Z</time>
      </trkpt>
      <trkpt lat="44.38575" lon="6.39004">
        <ele>1905</ele>
        <time>2020-07-07T06:34:03.000Z</time>
      </trkpt>
      <trkpt lat="44.38575" lon="6.39004">
        <ele>1905</ele>
        <time>2020-07-07T06:34:04.000Z</time>
      </trkpt>
      <trkpt lat="44.38575" lon="6.39004">
        <ele>1905</ele>
        <time>2020-07-07T06:34:05.000Z</time>
      </trkpt>
      <trkpt lat="44.38575" lon="6.39004">
        <ele>1905</ele>
        <time>2020-07-07T06:34:06.000Z</time>
      </trkpt>
      <trkpt lat="44.38575" lon="6.39004">
        <ele>1905</ele>
        <time>2020-07-07T06:34:07.000Z</time>
      </trkpt>
      <trkpt lat="44.38575" lon="6.39004">
        <ele>1905</ele>
        <time>2020-07-07T06:34:08.000Z</time>
      </trkpt>
      <trkpt lat="44.38575" lon="6.39004">
        <ele>1905</ele>
        <time>2020-07-07T06:34:09.000Z</time>
      </trkpt>
      <trkpt lat="44.38575" lon="6.39004">
        <ele>1905</ele>
        <time>2020-07-07T06:34:10.000Z</time>
      </trkpt>
      <trkpt lat="44.38575" lon="6.39004">
        <ele>1905</ele>
        <time>2020-07-07T06:34:11.000Z</time>
      </trkpt>
      <trkpt lat="44.38575" lon="6.39004">
        <ele>1905</ele>
        <time>2020-07-07T06:34:12.000Z</time>
      </trkpt>
      <trkpt lat="44.38575" lon="6.39004">
        <ele>1905</ele>
        <time>2020-07-07T06:34:13.000Z</time>
      </trkpt>
      <trkpt lat="44.38575" lon="6.39004">
        <ele>1905</ele>
        <time>2020-07-07T06:34:14.000Z</time>
      </trkpt>
      <trkpt lat="44.38575" lon="6.39004">
        <ele>1905</ele>
        <time>2020-07-07T06:34:15.000Z</time>
      </trkpt>
      <trkpt lat="44.38575" lon="6.39004">
        <ele>1905</ele>
        <time>2020-07-07T06:34:16.000Z</time>
      </trkpt>
      <trkpt lat="44.38575" lon="6.39004">
        <ele>1905</ele>
        <time>2020-07-07T06:34:17.000Z</time>
      </trkpt>
      <trkpt lat="44.38575" lon="6.39004">
        <ele>1905</ele>
        <time>2020-07-07T06:34:18.000Z</time>
      </trkpt>
      <trkpt lat="44.38575" lon="6.39005">
        <ele>1905</ele>
        <time>2020-07-07T06:34:19.000Z</time>
      </trkpt>
      <trkpt lat="44.38575" lon="6.39005">
        <ele>1905</ele>
        <time>2020-07-07T06:34:20.000Z</time>
      </trkpt>
      <trkpt lat="44.38575" lon="6.39005">
        <ele>1905</ele>
        <time>2020-07-07T06:34:21.000Z</time>
      </trkpt>
      <trkpt lat="44.38575" lon="6.39005">
        <ele>1905</ele>
        <time>2020-07-07T06:34:22.000Z</time>
      </trkpt>
      <trkpt lat="44.38575" lon="6.39005">
        <ele>1905</ele>
        <time>2020-07-07T06:34:23.000Z</time>
      </trkpt>
      <trkpt lat="44.38575" lon="6.39005">
        <ele>1905</ele>
        <time>2020-07-07T06:34:24.000Z</time>
      </trkpt>
      <trkpt lat="44.38575" lon="6.39005">
        <ele>1905</ele>
        <time>2020-07-07T06:34:25.000Z</time>
      </trkpt>
      <trkpt lat="44.38575" lon="6.39005">
        <ele>1905</ele>
        <time>2020-07-07T06:34:26.000Z</time>
      </trkpt>
      <trkpt lat="44.38575" lon="6.39005">
        <ele>1905</ele>
        <time>2020-07-07T06:34:27.000Z</time>
      </trkpt>
      <trkpt lat="44.38575" lon="6.39005">
        <ele>1905</ele>
        <time>2020-07-07T06:34:28.000Z</time>
      </trkpt>
      <trkpt lat="44.38575" lon="6.39005">
        <ele>1905</ele>
        <time>2020-07-07T06:34:29.000Z</time>
      </trkpt>
      <trkpt lat="44.38575" lon="6.39005">
        <ele>1905</ele>
        <time>2020-07-07T06:34:30.000Z</time>
      </trkpt>
      <trkpt lat="44.38575" lon="6.39005">
        <ele>1905</ele>
        <time>2020-07-07T06:34:31.000Z</time>
      </trkpt>
      <trkpt lat="44.38575" lon="6.39005">
        <ele>1905</ele>
        <time>2020-07-07T06:34:32.000Z</time>
      </trkpt>
      <trkpt lat="44.38575" lon="6.39005">
        <ele>1905</ele>
        <time>2020-07-07T06:34:33.000Z</time>
      </trkpt>
      <trkpt lat="44.38575" lon="6.39005">
        <ele>1905</ele>
        <time>2020-07-07T06:34:34.000Z</time>
      </trkpt>
      <trkpt lat="44.38575" lon="6.39005">
        <ele>1905</ele>
        <time>2020-07-07T06:34:35.000Z</time>
      </trkpt>
      <trkpt lat="44.38575" lon="6.39005">
        <ele>1905</ele>
        <time>2020-07-07T06:34:36.000Z</time>
      </trkpt>
      <trkpt lat="44.38575" lon="6.39005">
        <ele>1905</ele>
        <time>2020-07-07T06:34:37.000Z</time>
      </trkpt>
      <trkpt lat="44.38575" lon="6.39005">
        <ele>1905</ele>
        <time>2020-07-07T06:34:38.000Z</time>
      </trkpt>
      <trkpt lat="44.38575" lon="6.39005">
        <ele>1905</ele>
        <time>2020-07-07T06:34:39.000Z</time>
      </trkpt>
      <trkpt lat="44.38574" lon="6.39004">
        <ele>1905</ele>
        <time>2020-07-07T06:34:40.000Z</time>
      </trkpt>
      <trkpt lat="44.38574" lon="6.39004">
        <ele>1905</ele>
        <time>2020-07-07T06:34:41.000Z</time>
      </trkpt>
      <trkpt lat="44.38574" lon="6.39004">
        <ele>1905</ele>
        <time>2020-07-07T06:34:42.000Z</time>
      </trkpt>
      <trkpt lat="44.38574" lon="6.39003">
        <ele>1906</ele>
        <time>2020-07-07T06:34:43.000Z</time>
      </trkpt>
      <trkpt lat="44.38573" lon="6.39003">
        <ele>1906</ele>
        <time>2020-07-07T06:34:44.000Z</time>
      </trkpt>
      <trkpt lat="44.38573" lon="6.39002">
        <ele>1906</ele>
        <time>2020-07-07T06:34:45.000Z</time>
      </trkpt>
      <trkpt lat="44.38573" lon="6.39002">
        <ele>1906</ele>
        <time>2020-07-07T06:34:46.000Z</time>
      </trkpt>
      <trkpt lat="44.38573" lon="6.39002">
        <ele>1906</ele>
        <time>2020-07-07T06:34:47.000Z</time>
      </trkpt>
      <trkpt lat="44.38573" lon="6.39002">
        <ele>1906</ele>
        <time>2020-07-07T06:34:48.000Z</time>
      </trkpt>
      <trkpt lat="44.38573" lon="6.39002">
        <ele>1907</ele>
        <time>2020-07-07T06:34:49.000Z</time>
      </trkpt>
      <trkpt lat="44.38573" lon="6.39003">
        <ele>1907</ele>
        <time>2020-07-07T06:34:50.000Z</time>
      </trkpt>
      <trkpt lat="44.38573" lon="6.39003">
        <ele>1907</ele>
        <time>2020-07-07T06:34:51.000Z</time>
      </trkpt>
      <trkpt lat="44.38572" lon="6.39003">
        <ele>1907</ele>
        <time>2020-07-07T06:34:52.000Z</time>
      </trkpt>
      <trkpt lat="44.38572" lon="6.39003">
        <ele>1907</ele>
        <time>2020-07-07T06:34:53.000Z</time>
      </trkpt>
      <trkpt lat="44.38572" lon="6.39003">
        <ele>1907</ele>
        <time>2020-07-07T06:34:54.000Z</time>
      </trkpt>
      <trkpt lat="44.38572" lon="6.39003">
        <ele>1907</ele>
        <time>2020-07-07T06:34:55.000Z</time>
      </trkpt>
      <trkpt lat="44.38572" lon="6.39003">
        <ele>1907</ele>
        <time>2020-07-07T06:34:56.000Z</time>
      </trkpt>
      <trkpt lat="44.38572" lon="6.39003">
        <ele>1907</ele>
        <time>2020-07-07T06:34:57.000Z</time>
      </trkpt>
      <trkpt lat="44.38572" lon="6.39003">
        <ele>1907</ele>
        <time>2020-07-07T06:34:58.000Z</time>
      </trkpt>
      <trkpt lat="44.38572" lon="6.39003">
        <ele>1907</ele>
        <time>2020-07-07T06:34:59.000Z</time>
      </trkpt>
      <trkpt lat="44.38572" lon="6.39003">
        <ele>1907</ele>
        <time>2020-07-07T06:35:00.000Z</time>
      </trkpt>
      <trkpt lat="44.38573" lon="6.39002">
        <ele>1907</ele>
        <time>2020-07-07T06:35:01.000Z</time>
      </trkpt>
      <trkpt lat="44.38573" lon="6.39001">
        <ele>1907</ele>
        <time>2020-07-07T06:35:02.000Z</time>
      </trkpt>
      <trkpt lat="44.38573" lon="6.39">
        <ele>1907</ele>
        <time>2020-07-07T06:35:03.000Z</time>
      </trkpt>
      <trkpt lat="44.38573" lon="6.38999">
        <ele>1907</ele>
        <time>2020-07-07T06:35:04.000Z</time>
      </trkpt>
      <trkpt lat="44.38574" lon="6.38999">
        <ele>1907</ele>
        <time>2020-07-07T06:35:05.000Z</time>
      </trkpt>
      <trkpt lat="44.38575" lon="6.38998">
        <ele>1907</ele>
        <time>2020-07-07T06:35:06.000Z</time>
      </trkpt>
      <trkpt lat="44.38576" lon="6.38997">
        <ele>1906</ele>
        <time>2020-07-07T06:35:07.000Z</time>
      </trkpt>
      <trkpt lat="44.38576" lon="6.38996">
        <ele>1906</ele>
        <time>2020-07-07T06:35:08.000Z</time>
      </trkpt>
      <trkpt lat="44.38577" lon="6.38995">
        <ele>1906</ele>
        <time>2020-07-07T06:35:09.000Z</time>
      </trkpt>
      <trkpt lat="44.38577" lon="6.38995">
        <ele>1906</ele>
        <time>2020-07-07T06:35:10.000Z</time>
      </trkpt>
      <trkpt lat="44.38577" lon="6.38994">
        <ele>1906</ele>
        <time>2020-07-07T06:35:11.000Z</time>
      </trkpt>
      <trkpt lat="44.38578" lon="6.38994">
        <ele>1906</ele>
        <time>2020-07-07T06:35:12.000Z</time>
      </trkpt>
      <trkpt lat="44.38578" lon="6.38993">
        <ele>1906</ele>
        <time>2020-07-07T06:35:13.000Z</time>
      </trkpt>
      <trkpt lat="44.38578" lon="6.38993">
        <ele>1906</ele>
        <time>2020-07-07T06:35:14.000Z</time>
      </trkpt>
      <trkpt lat="44.38579" lon="6.38992">
        <ele>1906</ele>
        <time>2020-07-07T06:35:15.000Z</time>
      </trkpt>
      <trkpt lat="44.3858" lon="6.38992">
        <ele>1906</ele>
        <time>2020-07-07T06:35:16.000Z</time>
      </trkpt>
      <trkpt lat="44.3858" lon="6.38991">
        <ele>1906</ele>
        <time>2020-07-07T06:35:17.000Z</time>
      </trkpt>
      <trkpt lat="44.38581" lon="6.38991">
        <ele>1906</ele>
        <time>2020-07-07T06:35:18.000Z</time>
      </trkpt>
      <trkpt lat="44.38582" lon="6.38991">
        <ele>1906</ele>
        <time>2020-07-07T06:35:19.000Z</time>
      </trkpt>
      <trkpt lat="44.38583" lon="6.38991">
        <ele>1906</ele>
        <time>2020-07-07T06:35:20.000Z</time>
      </trkpt>
      <trkpt lat="44.38583" lon="6.38991">
        <ele>1906</ele>
        <time>2020-07-07T06:35:21.000Z</time>
      </trkpt>
      <trkpt lat="44.38584" lon="6.38991">
        <ele>1906</ele>
        <time>2020-07-07T06:35:22.000Z</time>
      </trkpt>
      <trkpt lat="44.38584" lon="6.38991">
        <ele>1906</ele>
        <time>2020-07-07T06:35:23.000Z</time>
      </trkpt>
      <trkpt lat="44.38585" lon="6.38992">
        <ele>1906</ele>
        <time>2020-07-07T06:35:24.000Z</time>
      </trkpt>
      <trkpt lat="44.38585" lon="6.38992">
        <ele>1906</ele>
        <time>2020-07-07T06:35:25.000Z</time>
      </trkpt>
      <trkpt lat="44.38585" lon="6.38993">
        <ele>1905</ele>
        <time>2020-07-07T06:35:26.000Z</time>
      </trkpt>
      <trkpt lat="44.38586" lon="6.38993">
        <ele>1905</ele>
        <time>2020-07-07T06:35:27.000Z</time>
      </trkpt>
      <trkpt lat="44.38586" lon="6.38994">
        <ele>1905</ele>
        <time>2020-07-07T06:35:28.000Z</time>
      </trkpt>
      <trkpt lat="44.38586" lon="6.38994">
        <ele>1905</ele>
        <time>2020-07-07T06:35:29.000Z</time>
      </trkpt>
      <trkpt lat="44.38586" lon="6.38995">
        <ele>1906</ele>
        <time>2020-07-07T06:35:30.000Z</time>
      </trkpt>
      <trkpt lat="44.38587" lon="6.38995">
        <ele>1906</ele>
        <time>2020-07-07T06:35:31.000Z</time>
      </trkpt>
      <trkpt lat="44.38587" lon="6.38995">
        <ele>1906</ele>
        <time>2020-07-07T06:35:32.000Z</time>
      </trkpt>
      <trkpt lat="44.38587" lon="6.38996">
        <ele>1906</ele>
        <time>2020-07-07T06:35:33.000Z</time>
      </trkpt>
      <trkpt lat="44.38587" lon="6.38996">
        <ele>1906</ele>
        <time>2020-07-07T06:35:34.000Z</time>
      </trkpt>
      <trkpt lat="44.38587" lon="6.38997">
        <ele>1906</ele>
        <time>2020-07-07T06:35:35.000Z</time>
      </trkpt>
      <trkpt lat="44.38587" lon="6.38997">
        <ele>1906</ele>
        <time>2020-07-07T06:35:36.000Z</time>
      </trkpt>
      <trkpt lat="44.38587" lon="6.38998">
        <ele>1906</ele>
        <time>2020-07-07T06:35:37.000Z</time>
      </trkpt>
      <trkpt lat="44.38588" lon="6.38999">
        <ele>1906</ele>
        <time>2020-07-07T06:35:38.000Z</time>
      </trkpt>
      <trkpt lat="44.38588" lon="6.39">
        <ele>1906</ele>
        <time>2020-07-07T06:35:39.000Z</time>
      </trkpt>
      <trkpt lat="44.38588" lon="6.39001">
        <ele>1906</ele>
        <time>2020-07-07T06:35:40.000Z</time>
      </trkpt>
      <trkpt lat="44.38589" lon="6.39001">
        <ele>1906</ele>
        <time>2020-07-07T06:35:41.000Z</time>
      </trkpt>
      <trkpt lat="44.38589" lon="6.39002">
        <ele>1906</ele>
        <time>2020-07-07T06:35:42.000Z</time>
      </trkpt>
      <trkpt lat="44.3859" lon="6.39002">
        <ele>1906</ele>
        <time>2020-07-07T06:35:43.000Z</time>
      </trkpt>
      <trkpt lat="44.3859" lon="6.39003">
        <ele>1906</ele>
        <time>2020-07-07T06:35:44.000Z</time>
      </trkpt>
      <trkpt lat="44.3859" lon="6.39004">
        <ele>1906</ele>
        <time>2020-07-07T06:35:45.000Z</time>
      </trkpt>
      <trkpt lat="44.3859" lon="6.39005">
        <ele>1906</ele>
        <time>2020-07-07T06:35:46.000Z</time>
      </trkpt>
      <trkpt lat="44.3859" lon="6.39006">
        <ele>1906</ele>
        <time>2020-07-07T06:35:47.000Z</time>
      </trkpt>
      <trkpt lat="44.3859" lon="6.39007">
        <ele>1906</ele>
        <time>2020-07-07T06:35:48.000Z</time>
      </trkpt>
      <trkpt lat="44.3859" lon="6.39008">
        <ele>1906</ele>
        <time>2020-07-07T06:35:49.000Z</time>
      </trkpt>
      <trkpt lat="44.38591" lon="6.39009">
        <ele>1906</ele>
        <time>2020-07-07T06:35:50.000Z</time>
      </trkpt>
      <trkpt lat="44.38591" lon="6.39009">
        <ele>1906</ele>
        <time>2020-07-07T06:35:51.000Z</time>
      </trkpt>
      <trkpt lat="44.38591" lon="6.3901">
        <ele>1906</ele>
        <time>2020-07-07T06:35:52.000Z</time>
      </trkpt>
      <trkpt lat="44.38592" lon="6.3901">
        <ele>1906</ele>
        <time>2020-07-07T06:35:53.000Z</time>
      </trkpt>
      <trkpt lat="44.38592" lon="6.39011">
        <ele>1906</ele>
        <time>2020-07-07T06:35:54.000Z</time>
      </trkpt>
      <trkpt lat="44.38592" lon="6.39012">
        <ele>1906</ele>
        <time>2020-07-07T06:35:55.000Z</time>
      </trkpt>
      <trkpt lat="44.38592" lon="6.39013">
        <ele>1906</ele>
        <time>2020-07-07T06:35:56.000Z</time>
      </trkpt>
      <trkpt lat="44.38592" lon="6.39014">
        <ele>1906</ele>
        <time>2020-07-07T06:35:57.000Z</time>
      </trkpt>
      <trkpt lat="44.38592" lon="6.39015">
        <ele>1906</ele>
        <time>2020-07-07T06:35:58.000Z</time>
      </trkpt>
      <trkpt lat="44.38592" lon="6.39016">
        <ele>1906</ele>
        <time>2020-07-07T06:35:59.000Z</time>
      </trkpt>
      <trkpt lat="44.38592" lon="6.39017">
        <ele>1906</ele>
        <time>2020-07-07T06:36:00.000Z</time>
      </trkpt>
      <trkpt lat="44.38592" lon="6.39018">
        <ele>1906</ele>
        <time>2020-07-07T06:36:01.000Z</time>
      </trkpt>
      <trkpt lat="44.38592" lon="6.39018">
        <ele>1906</ele>
        <time>2020-07-07T06:36:02.000Z</time>
      </trkpt>
      <trkpt lat="44.38593" lon="6.39019">
        <ele>1907</ele>
        <time>2020-07-07T06:36:03.000Z</time>
      </trkpt>
      <trkpt lat="44.38593" lon="6.3902">
        <ele>1907</ele>
        <time>2020-07-07T06:36:04.000Z</time>
      </trkpt>
      <trkpt lat="44.38593" lon="6.39021">
        <ele>1907</ele>
        <time>2020-07-07T06:36:05.000Z</time>
      </trkpt>
      <trkpt lat="44.38593" lon="6.39022">
        <ele>1907</ele>
        <time>2020-07-07T06:36:06.000Z</time>
      </trkpt>
      <trkpt lat="44.38593" lon="6.39023">
        <ele>1908</ele>
        <time>2020-07-07T06:36:07.000Z</time>
      </trkpt>
      <trkpt lat="44.38593" lon="6.39023">
        <ele>1908</ele>
        <time>2020-07-07T06:36:08.000Z</time>
      </trkpt>
      <trkpt lat="44.38593" lon="6.39024">
        <ele>1908</ele>
        <time>2020-07-07T06:36:09.000Z</time>
      </trkpt>
      <trkpt lat="44.38593" lon="6.39025">
        <ele>1909</ele>
        <time>2020-07-07T06:36:10.000Z</time>
      </trkpt>
      <trkpt lat="44.38594" lon="6.39026">
        <ele>1909</ele>
        <time>2020-07-07T06:36:11.000Z</time>
      </trkpt>
      <trkpt lat="44.38594" lon="6.39027">
        <ele>1909</ele>
        <time>2020-07-07T06:36:12.000Z</time>
      </trkpt>
      <trkpt lat="44.38594" lon="6.39027">
        <ele>1910</ele>
        <time>2020-07-07T06:36:13.000Z</time>
      </trkpt>
      <trkpt lat="44.38594" lon="6.39028">
        <ele>1910</ele>
        <time>2020-07-07T06:36:14.000Z</time>
      </trkpt>
      <trkpt lat="44.38594" lon="6.39029">
        <ele>1910</ele>
        <time>2020-07-07T06:36:15.000Z</time>
      </trkpt>
      <trkpt lat="44.38594" lon="6.3903">
        <ele>1910</ele>
        <time>2020-07-07T06:36:16.000Z</time>
      </trkpt>
      <trkpt lat="44.38595" lon="6.39031">
        <ele>1910</ele>
        <time>2020-07-07T06:36:17.000Z</time>
      </trkpt>
      <trkpt lat="44.38595" lon="6.39031">
        <ele>1911</ele>
        <time>2020-07-07T06:36:18.000Z</time>
      </trkpt>
      <trkpt lat="44.38595" lon="6.39031">
        <ele>1911</ele>
        <time>2020-07-07T06:36:19.000Z</time>
      </trkpt>
      <trkpt lat="44.38595" lon="6.39032">
        <ele>1911</ele>
        <time>2020-07-07T06:36:20.000Z</time>
      </trkpt>
      <trkpt lat="44.38596" lon="6.39032">
        <ele>1911</ele>
        <time>2020-07-07T06:36:21.000Z</time>
      </trkpt>
      <trkpt lat="44.38595" lon="6.39033">
        <ele>1912</ele>
        <time>2020-07-07T06:36:22.000Z</time>
      </trkpt>
      <trkpt lat="44.38595" lon="6.39033">
        <ele>1912</ele>
        <time>2020-07-07T06:36:23.000Z</time>
      </trkpt>
      <trkpt lat="44.38595" lon="6.39033">
        <ele>1912</ele>
        <time>2020-07-07T06:36:24.000Z</time>
      </trkpt>
      <trkpt lat="44.38595" lon="6.39034">
        <ele>1912</ele>
        <time>2020-07-07T06:36:25.000Z</time>
      </trkpt>
      <trkpt lat="44.38594" lon="6.39035">
        <ele>1912</ele>
        <time>2020-07-07T06:36:26.000Z</time>
      </trkpt>
      <trkpt lat="44.38594" lon="6.39035">
        <ele>1912</ele>
        <time>2020-07-07T06:36:27.000Z</time>
      </trkpt>
      <trkpt lat="44.38594" lon="6.39036">
        <ele>1912</ele>
        <time>2020-07-07T06:36:28.000Z</time>
      </trkpt>
      <trkpt lat="44.38594" lon="6.39036">
        <ele>1912</ele>
        <time>2020-07-07T06:36:29.000Z</time>
      </trkpt>
      <trkpt lat="44.38594" lon="6.39037">
        <ele>1913</ele>
        <time>2020-07-07T06:36:30.000Z</time>
      </trkpt>
      <trkpt lat="44.38593" lon="6.39038">
        <ele>1913</ele>
        <time>2020-07-07T06:36:31.000Z</time>
      </trkpt>
      <trkpt lat="44.38593" lon="6.39039">
        <ele>1913</ele>
        <time>2020-07-07T06:36:32.000Z</time>
      </trkpt>
      <trkpt lat="44.38593" lon="6.3904">
        <ele>1913</ele>
        <time>2020-07-07T06:36:33.000Z</time>
      </trkpt>
      <trkpt lat="44.38593" lon="6.39041">
        <ele>1913</ele>
        <time>2020-07-07T06:36:34.000Z</time>
      </trkpt>
      <trkpt lat="44.38593" lon="6.39042">
        <ele>1913</ele>
        <time>2020-07-07T06:36:35.000Z</time>
      </trkpt>
      <trkpt lat="44.38593" lon="6.39043">
        <ele>1913</ele>
        <time>2020-07-07T06:36:36.000Z</time>
      </trkpt>
      <trkpt lat="44.38593" lon="6.39044">
        <ele>1912</ele>
        <time>2020-07-07T06:36:37.000Z</time>
      </trkpt>
      <trkpt lat="44.38593" lon="6.39045">
        <ele>1912</ele>
        <time>2020-07-07T06:36:38.000Z</time>
      </trkpt>
      <trkpt lat="44.38593" lon="6.39046">
        <ele>1912</ele>
        <time>2020-07-07T06:36:39.000Z</time>
      </trkpt>
      <trkpt lat="44.38593" lon="6.39048">
        <ele>1912</ele>
        <time>2020-07-07T06:36:40.000Z</time>
      </trkpt>
      <trkpt lat="44.38594" lon="6.39048">
        <ele>1912</ele>
        <time>2020-07-07T06:36:41.000Z</time>
      </trkpt>
      <trkpt lat="44.38594" lon="6.39049">
        <ele>1913</ele>
        <time>2020-07-07T06:36:42.000Z</time>
      </trkpt>
      <trkpt lat="44.38594" lon="6.39051">
        <ele>1913</ele>
        <time>2020-07-07T06:36:43.000Z</time>
      </trkpt>
      <trkpt lat="44.38595" lon="6.39052">
        <ele>1913</ele>
        <time>2020-07-07T06:36:44.000Z</time>
      </trkpt>
      <trkpt lat="44.38595" lon="6.39053">
        <ele>1913</ele>
        <time>2020-07-07T06:36:45.000Z</time>
      </trkpt>
      <trkpt lat="44.38596" lon="6.39054">
        <ele>1913</ele>
        <time>2020-07-07T06:36:46.000Z</time>
      </trkpt>
      <trkpt lat="44.38596" lon="6.39055">
        <ele>1913</ele>
        <time>2020-07-07T06:36:47.000Z</time>
      </trkpt>
      <trkpt lat="44.38596" lon="6.39056">
        <ele>1914</ele>
        <time>2020-07-07T06:36:48.000Z</time>
      </trkpt>
      <trkpt lat="44.38596" lon="6.39057">
        <ele>1914</ele>
        <time>2020-07-07T06:36:49.000Z</time>
      </trkpt>
      <trkpt lat="44.38596" lon="6.39058">
        <ele>1914</ele>
        <time>2020-07-07T06:36:50.000Z</time>
      </trkpt>
      <trkpt lat="44.38597" lon="6.39059">
        <ele>1915</ele>
        <time>2020-07-07T06:36:51.000Z</time>
      </trkpt>
      <trkpt lat="44.38596" lon="6.3906">
        <ele>1915</ele>
        <time>2020-07-07T06:36:52.000Z</time>
      </trkpt>
      <trkpt lat="44.38596" lon="6.39061">
        <ele>1915</ele>
        <time>2020-07-07T06:36:53.000Z</time>
      </trkpt>
      <trkpt lat="44.38596" lon="6.39062">
        <ele>1916</ele>
        <time>2020-07-07T06:36:54.000Z</time>
      </trkpt>
      <trkpt lat="44.38596" lon="6.39063">
        <ele>1916</ele>
        <time>2020-07-07T06:36:55.000Z</time>
      </trkpt>
      <trkpt lat="44.38595" lon="6.39064">
        <ele>1916</ele>
        <time>2020-07-07T06:36:56.000Z</time>
      </trkpt>
      <trkpt lat="44.38595" lon="6.39065">
        <ele>1917</ele>
        <time>2020-07-07T06:36:57.000Z</time>
      </trkpt>
      <trkpt lat="44.38594" lon="6.39066">
        <ele>1917</ele>
        <time>2020-07-07T06:36:58.000Z</time>
      </trkpt>
      <trkpt lat="44.38594" lon="6.39066">
        <ele>1917</ele>
        <time>2020-07-07T06:36:59.000Z</time>
      </trkpt>
      <trkpt lat="44.38593" lon="6.39066">
        <ele>1917</ele>
        <time>2020-07-07T06:37:00.000Z</time>
      </trkpt>
      <trkpt lat="44.38592" lon="6.39067">
        <ele>1917</ele>
        <time>2020-07-07T06:37:01.000Z</time>
      </trkpt>
      <trkpt lat="44.38591" lon="6.39067">
        <ele>1917</ele>
        <time>2020-07-07T06:37:02.000Z</time>
      </trkpt>
      <trkpt lat="44.38591" lon="6.39068">
        <ele>1918</ele>
        <time>2020-07-07T06:37:03.000Z</time>
      </trkpt>
      <trkpt lat="44.3859" lon="6.39068">
        <ele>1918</ele>
        <time>2020-07-07T06:37:04.000Z</time>
      </trkpt>
      <trkpt lat="44.38589" lon="6.39069">
        <ele>1918</ele>
        <time>2020-07-07T06:37:05.000Z</time>
      </trkpt>
      <trkpt lat="44.38588" lon="6.39069">
        <ele>1918</ele>
        <time>2020-07-07T06:37:06.000Z</time>
      </trkpt>
      <trkpt lat="44.38587" lon="6.3907">
        <ele>1919</ele>
        <time>2020-07-07T06:37:07.000Z</time>
      </trkpt>
      <trkpt lat="44.38586" lon="6.39071">
        <ele>1919</ele>
        <time>2020-07-07T06:37:08.000Z</time>
      </trkpt>
      <trkpt lat="44.38586" lon="6.39071">
        <ele>1919</ele>
        <time>2020-07-07T06:37:09.000Z</time>
      </trkpt>
      <trkpt lat="44.38586" lon="6.39072">
        <ele>1920</ele>
        <time>2020-07-07T06:37:10.000Z</time>
      </trkpt>
      <trkpt lat="44.38585" lon="6.39072">
        <ele>1920</ele>
        <time>2020-07-07T06:37:11.000Z</time>
      </trkpt>
      <trkpt lat="44.38585" lon="6.39073">
        <ele>1920</ele>
        <time>2020-07-07T06:37:12.000Z</time>
      </trkpt>
      <trkpt lat="44.38584" lon="6.39074">
        <ele>1921</ele>
        <time>2020-07-07T06:37:13.000Z</time>
      </trkpt>
      <trkpt lat="44.38583" lon="6.39074">
        <ele>1921</ele>
        <time>2020-07-07T06:37:14.000Z</time>
      </trkpt>
      <trkpt lat="44.38582" lon="6.39075">
        <ele>1922</ele>
        <time>2020-07-07T06:37:15.000Z</time>
      </trkpt>
      <trkpt lat="44.38582" lon="6.39076">
        <ele>1922</ele>
        <time>2020-07-07T06:37:16.000Z</time>
      </trkpt>
      <trkpt lat="44.38581" lon="6.39077">
        <ele>1922</ele>
        <time>2020-07-07T06:37:17.000Z</time>
      </trkpt>
      <trkpt lat="44.3858" lon="6.39078">
        <ele>1923</ele>
        <time>2020-07-07T06:37:18.000Z</time>
      </trkpt>
      <trkpt lat="44.38579" lon="6.39079">
        <ele>1923</ele>
        <time>2020-07-07T06:37:19.000Z</time>
      </trkpt>
      <trkpt lat="44.38579" lon="6.39079">
        <ele>1923</ele>
        <time>2020-07-07T06:37:20.000Z</time>
      </trkpt>
      <trkpt lat="44.38578" lon="6.3908">
        <ele>1924</ele>
        <time>2020-07-07T06:37:21.000Z</time>
      </trkpt>
      <trkpt lat="44.38577" lon="6.39081">
        <ele>1924</ele>
        <time>2020-07-07T06:37:22.000Z</time>
      </trkpt>
      <trkpt lat="44.38576" lon="6.39082">
        <ele>1924</ele>
        <time>2020-07-07T06:37:23.000Z</time>
      </trkpt>
      <trkpt lat="44.38576" lon="6.39083">
        <ele>1925</ele>
        <time>2020-07-07T06:37:24.000Z</time>
      </trkpt>
      <trkpt lat="44.38575" lon="6.39084">
        <ele>1925</ele>
        <time>2020-07-07T06:37:25.000Z</time>
      </trkpt>
      <trkpt lat="44.38574" lon="6.39086">
        <ele>1925</ele>
        <time>2020-07-07T06:37:26.000Z</time>
      </trkpt>
      <trkpt lat="44.38573" lon="6.39087">
        <ele>1926</ele>
        <time>2020-07-07T06:37:27.000Z</time>
      </trkpt>
      <trkpt lat="44.38572" lon="6.39088">
        <ele>1926</ele>
        <time>2020-07-07T06:37:28.000Z</time>
      </trkpt>
      <trkpt lat="44.38571" lon="6.3909">
        <ele>1926</ele>
        <time>2020-07-07T06:37:29.000Z</time>
      </trkpt>
      <trkpt lat="44.3857" lon="6.39091">
        <ele>1926</ele>
        <time>2020-07-07T06:37:30.000Z</time>
      </trkpt>
      <trkpt lat="44.38569" lon="6.39092">
        <ele>1926</ele>
        <time>2020-07-07T06:37:31.000Z</time>
      </trkpt>
      <trkpt lat="44.38569" lon="6.39093">
        <ele>1926</ele>
        <time>2020-07-07T06:37:32.000Z</time>
      </trkpt>
      <trkpt lat="44.38568" lon="6.39094">
        <ele>1926</ele>
        <time>2020-07-07T06:37:33.000Z</time>
      </trkpt>
      <trkpt lat="44.38567" lon="6.39094">
        <ele>1927</ele>
        <time>2020-07-07T06:37:34.000Z</time>
      </trkpt>
      <trkpt lat="44.38567" lon="6.39095">
        <ele>1927</ele>
        <time>2020-07-07T06:37:35.000Z</time>
      </trkpt>
      <trkpt lat="44.38566" lon="6.39096">
        <ele>1927</ele>
        <time>2020-07-07T06:37:36.000Z</time>
      </trkpt>
      <trkpt lat="44.38566" lon="6.39097">
        <ele>1927</ele>
        <time>2020-07-07T06:37:37.000Z</time>
      </trkpt>
      <trkpt lat="44.38565" lon="6.39098">
        <ele>1927</ele>
        <time>2020-07-07T06:37:38.000Z</time>
      </trkpt>
      <trkpt lat="44.38564" lon="6.39099">
        <ele>1927</ele>
        <time>2020-07-07T06:37:39.000Z</time>
      </trkpt>
      <trkpt lat="44.38563" lon="6.39101">
        <ele>1927</ele>
        <time>2020-07-07T06:37:40.000Z</time>
      </trkpt>
      <trkpt lat="44.38562" lon="6.39102">
        <ele>1927</ele>
        <time>2020-07-07T06:37:41.000Z</time>
      </trkpt>
      <trkpt lat="44.38562" lon="6.39103">
        <ele>1927</ele>
        <time>2020-07-07T06:37:42.000Z</time>
      </trkpt>
      <trkpt lat="44.38561" lon="6.39104">
        <ele>1928</ele>
        <time>2020-07-07T06:37:43.000Z</time>
      </trkpt>
      <trkpt lat="44.38561" lon="6.39104">
        <ele>1928</ele>
        <time>2020-07-07T06:37:44.000Z</time>
      </trkpt>
      <trkpt lat="44.3856" lon="6.39106">
        <ele>1928</ele>
        <time>2020-07-07T06:37:45.000Z</time>
      </trkpt>
      <trkpt lat="44.38559" lon="6.39107">
        <ele>1928</ele>
        <time>2020-07-07T06:37:46.000Z</time>
      </trkpt>
      <trkpt lat="44.38559" lon="6.39108">
        <ele>1928</ele>
        <time>2020-07-07T06:37:47.000Z</time>
      </trkpt>
      <trkpt lat="44.38558" lon="6.39109">
        <ele>1928</ele>
        <time>2020-07-07T06:37:48.000Z</time>
      </trkpt>
      <trkpt lat="44.38558" lon="6.3911">
        <ele>1928</ele>
        <time>2020-07-07T06:37:49.000Z</time>
      </trkpt>
      <trkpt lat="44.38557" lon="6.39111">
        <ele>1928</ele>
        <time>2020-07-07T06:37:50.000Z</time>
      </trkpt>
      <trkpt lat="44.38557" lon="6.39112">
        <ele>1928</ele>
        <time>2020-07-07T06:37:51.000Z</time>
      </trkpt>
      <trkpt lat="44.38556" lon="6.39113">
        <ele>1928</ele>
        <time>2020-07-07T06:37:52.000Z</time>
      </trkpt>
      <trkpt lat="44.38555" lon="6.39113">
        <ele>1927</ele>
        <time>2020-07-07T06:37:53.000Z</time>
      </trkpt>
      <trkpt lat="44.38555" lon="6.39114">
        <ele>1927</ele>
        <time>2020-07-07T06:37:54.000Z</time>
      </trkpt>
      <trkpt lat="44.38554" lon="6.39114">
        <ele>1927</ele>
        <time>2020-07-07T06:37:55.000Z</time>
      </trkpt>
      <trkpt lat="44.38553" lon="6.39115">
        <ele>1927</ele>
        <time>2020-07-07T06:37:56.000Z</time>
      </trkpt>
      <trkpt lat="44.38552" lon="6.39116">
        <ele>1926</ele>
        <time>2020-07-07T06:37:57.000Z</time>
      </trkpt>
      <trkpt lat="44.38552" lon="6.39116">
        <ele>1926</ele>
        <time>2020-07-07T06:37:58.000Z</time>
      </trkpt>
      <trkpt lat="44.38551" lon="6.39117">
        <ele>1926</ele>
        <time>2020-07-07T06:37:59.000Z</time>
      </trkpt>
      <trkpt lat="44.3855" lon="6.39118">
        <ele>1926</ele>
        <time>2020-07-07T06:38:00.000Z</time>
      </trkpt>
      <trkpt lat="44.3855" lon="6.39119">
        <ele>1925</ele>
        <time>2020-07-07T06:38:01.000Z</time>
      </trkpt>
      <trkpt lat="44.38549" lon="6.3912">
        <ele>1925</ele>
        <time>2020-07-07T06:38:02.000Z</time>
      </trkpt>
      <trkpt lat="44.38548" lon="6.39121">
        <ele>1925</ele>
        <time>2020-07-07T06:38:03.000Z</time>
      </trkpt>
      <trkpt lat="44.38548" lon="6.39122">
        <ele>1925</ele>
        <time>2020-07-07T06:38:04.000Z</time>
      </trkpt>
      <trkpt lat="44.38547" lon="6.39123">
        <ele>1925</ele>
        <time>2020-07-07T06:38:05.000Z</time>
      </trkpt>
      <trkpt lat="44.38546" lon="6.39124">
        <ele>1925</ele>
        <time>2020-07-07T06:38:06.000Z</time>
      </trkpt>
      <trkpt lat="44.38546" lon="6.39125">
        <ele>1925</ele>
        <time>2020-07-07T06:38:07.000Z</time>
      </trkpt>
      <trkpt lat="44.38545" lon="6.39125">
        <ele>1925</ele>
        <time>2020-07-07T06:38:08.000Z</time>
      </trkpt>
      <trkpt lat="44.38544" lon="6.39126">
        <ele>1925</ele>
        <time>2020-07-07T06:38:09.000Z</time>
      </trkpt>
      <trkpt lat="44.38543" lon="6.39126">
        <ele>1925</ele>
        <time>2020-07-07T06:38:10.000Z</time>
      </trkpt>
      <trkpt lat="44.38543" lon="6.39127">
        <ele>1925</ele>
        <time>2020-07-07T06:38:11.000Z</time>
      </trkpt>
      <trkpt lat="44.38542" lon="6.39128">
        <ele>1925</ele>
        <time>2020-07-07T06:38:12.000Z</time>
      </trkpt>
      <trkpt lat="44.38541" lon="6.39129">
        <ele>1925</ele>
        <time>2020-07-07T06:38:13.000Z</time>
      </trkpt>
      <trkpt lat="44.38541" lon="6.39129">
        <ele>1925</ele>
        <time>2020-07-07T06:38:14.000Z</time>
      </trkpt>
      <trkpt lat="44.3854" lon="6.3913">
        <ele>1925</ele>
        <time>2020-07-07T06:38:15.000Z</time>
      </trkpt>
      <trkpt lat="44.38539" lon="6.39131">
        <ele>1925</ele>
        <time>2020-07-07T06:38:16.000Z</time>
      </trkpt>
      <trkpt lat="44.38539" lon="6.39132">
        <ele>1925</ele>
        <time>2020-07-07T06:38:17.000Z</time>
      </trkpt>
      <trkpt lat="44.38538" lon="6.39132">
        <ele>1925</ele>
        <time>2020-07-07T06:38:18.000Z</time>
      </trkpt>
      <trkpt lat="44.38537" lon="6.39133">
        <ele>1926</ele>
        <time>2020-07-07T06:38:19.000Z</time>
      </trkpt>
      <trkpt lat="44.38536" lon="6.39134">
        <ele>1926</ele>
        <time>2020-07-07T06:38:20.000Z</time>
      </trkpt>
      <trkpt lat="44.38535" lon="6.39134">
        <ele>1926</ele>
        <time>2020-07-07T06:38:21.000Z</time>
      </trkpt>
      <trkpt lat="44.38534" lon="6.39135">
        <ele>1926</ele>
        <time>2020-07-07T06:38:22.000Z</time>
      </trkpt>
      <trkpt lat="44.38533" lon="6.39135">
        <ele>1926</ele>
        <time>2020-07-07T06:38:23.000Z</time>
      </trkpt>
      <trkpt lat="44.38533" lon="6.39136">
        <ele>1926</ele>
        <time>2020-07-07T06:38:24.000Z</time>
      </trkpt>
      <trkpt lat="44.38532" lon="6.39137">
        <ele>1926</ele>
        <time>2020-07-07T06:38:25.000Z</time>
      </trkpt>
      <trkpt lat="44.38531" lon="6.39138">
        <ele>1926</ele>
        <time>2020-07-07T06:38:26.000Z</time>
      </trkpt>
      <trkpt lat="44.3853" lon="6.39138">
        <ele>1926</ele>
        <time>2020-07-07T06:38:27.000Z</time>
      </trkpt>
      <trkpt lat="44.38529" lon="6.39139">
        <ele>1927</ele>
        <time>2020-07-07T06:38:28.000Z</time>
      </trkpt>
      <trkpt lat="44.38528" lon="6.3914">
        <ele>1927</ele>
        <time>2020-07-07T06:38:29.000Z</time>
      </trkpt>
      <trkpt lat="44.38528" lon="6.3914">
        <ele>1927</ele>
        <time>2020-07-07T06:38:30.000Z</time>
      </trkpt>
      <trkpt lat="44.38527" lon="6.39141">
        <ele>1927</ele>
        <time>2020-07-07T06:38:31.000Z</time>
      </trkpt>
      <trkpt lat="44.38526" lon="6.39141">
        <ele>1927</ele>
        <time>2020-07-07T06:38:32.000Z</time>
      </trkpt>
      <trkpt lat="44.38525" lon="6.39141">
        <ele>1927</ele>
        <time>2020-07-07T06:38:33.000Z</time>
      </trkpt>
      <trkpt lat="44.38524" lon="6.39142">
        <ele>1927</ele>
        <time>2020-07-07T06:38:34.000Z</time>
      </trkpt>
      <trkpt lat="44.38523" lon="6.39142">
        <ele>1927</ele>
        <time>2020-07-07T06:38:35.000Z</time>
      </trkpt>
      <trkpt lat="44.38523" lon="6.39142">
        <ele>1927</ele>
        <time>2020-07-07T06:38:36.000Z</time>
      </trkpt>
      <trkpt lat="44.38522" lon="6.39143">
        <ele>1927</ele>
        <time>2020-07-07T06:38:37.000Z</time>
      </trkpt>
      <trkpt lat="44.38521" lon="6.39143">
        <ele>1927</ele>
        <time>2020-07-07T06:38:38.000Z</time>
      </trkpt>
      <trkpt lat="44.3852" lon="6.39143">
        <ele>1927</ele>
        <time>2020-07-07T06:38:39.000Z</time>
      </trkpt>
      <trkpt lat="44.38519" lon="6.39144">
        <ele>1927</ele>
        <time>2020-07-07T06:38:40.000Z</time>
      </trkpt>
      <trkpt lat="44.38518" lon="6.39144">
        <ele>1928</ele>
        <time>2020-07-07T06:38:41.000Z</time>
      </trkpt>
      <trkpt lat="44.38517" lon="6.39145">
        <ele>1928</ele>
        <time>2020-07-07T06:38:42.000Z</time>
      </trkpt>
      <trkpt lat="44.38516" lon="6.39145">
        <ele>1928</ele>
        <time>2020-07-07T06:38:43.000Z</time>
      </trkpt>
      <trkpt lat="44.38515" lon="6.39146">
        <ele>1928</ele>
        <time>2020-07-07T06:38:44.000Z</time>
      </trkpt>
      <trkpt lat="44.38514" lon="6.39146">
        <ele>1928</ele>
        <time>2020-07-07T06:38:45.000Z</time>
      </trkpt>
      <trkpt lat="44.38513" lon="6.39147">
        <ele>1928</ele>
        <time>2020-07-07T06:38:46.000Z</time>
      </trkpt>
      <trkpt lat="44.38512" lon="6.39147">
        <ele>1928</ele>
        <time>2020-07-07T06:38:47.000Z</time>
      </trkpt>
      <trkpt lat="44.38511" lon="6.39148">
        <ele>1928</ele>
        <time>2020-07-07T06:38:48.000Z</time>
      </trkpt>
      <trkpt lat="44.38511" lon="6.39149">
        <ele>1928</ele>
        <time>2020-07-07T06:38:49.000Z</time>
      </trkpt>
      <trkpt lat="44.3851" lon="6.39149">
        <ele>1929</ele>
        <time>2020-07-07T06:38:50.000Z</time>
      </trkpt>
      <trkpt lat="44.38509" lon="6.3915">
        <ele>1929</ele>
        <time>2020-07-07T06:38:51.000Z</time>
      </trkpt>
      <trkpt lat="44.38508" lon="6.3915">
        <ele>1929</ele>
        <time>2020-07-07T06:38:52.000Z</time>
      </trkpt>
      <trkpt lat="44.38507" lon="6.3915">
        <ele>1929</ele>
        <time>2020-07-07T06:38:53.000Z</time>
      </trkpt>
      <trkpt lat="44.38506" lon="6.39151">
        <ele>1929</ele>
        <time>2020-07-07T06:38:54.000Z</time>
      </trkpt>
      <trkpt lat="44.38505" lon="6.39151">
        <ele>1929</ele>
        <time>2020-07-07T06:38:55.000Z</time>
      </trkpt>
      <trkpt lat="44.38504" lon="6.39152">
        <ele>1929</ele>
        <time>2020-07-07T06:38:56.000Z</time>
      </trkpt>
      <trkpt lat="44.38503" lon="6.39152">
        <ele>1929</ele>
        <time>2020-07-07T06:38:57.000Z</time>
      </trkpt>
      <trkpt lat="44.38502" lon="6.39153">
        <ele>1929</ele>
        <time>2020-07-07T06:38:58.000Z</time>
      </trkpt>
      <trkpt lat="44.38501" lon="6.39153">
        <ele>1930</ele>
        <time>2020-07-07T06:38:59.000Z</time>
      </trkpt>
      <trkpt lat="44.385" lon="6.39154">
        <ele>1930</ele>
        <time>2020-07-07T06:39:00.000Z</time>
      </trkpt>
      <trkpt lat="44.385" lon="6.39154">
        <ele>1930</ele>
        <time>2020-07-07T06:39:01.000Z</time>
      </trkpt>
      <trkpt lat="44.38499" lon="6.39154">
        <ele>1930</ele>
        <time>2020-07-07T06:39:02.000Z</time>
      </trkpt>
      <trkpt lat="44.38498" lon="6.39155">
        <ele>1930</ele>
        <time>2020-07-07T06:39:03.000Z</time>
      </trkpt>
      <trkpt lat="44.38497" lon="6.39155">
        <ele>1930</ele>
        <time>2020-07-07T06:39:04.000Z</time>
      </trkpt>
      <trkpt lat="44.38496" lon="6.39155">
        <ele>1930</ele>
        <time>2020-07-07T06:39:05.000Z</time>
      </trkpt>
      <trkpt lat="44.38495" lon="6.39156">
        <ele>1930</ele>
        <time>2020-07-07T06:39:06.000Z</time>
      </trkpt>
      <trkpt lat="44.38494" lon="6.39157">
        <ele>1930</ele>
        <time>2020-07-07T06:39:07.000Z</time>
      </trkpt>
      <trkpt lat="44.38492" lon="6.39157">
        <ele>1930</ele>
        <time>2020-07-07T06:39:08.000Z</time>
      </trkpt>
      <trkpt lat="44.38491" lon="6.39158">
        <ele>1930</ele>
        <time>2020-07-07T06:39:09.000Z</time>
      </trkpt>
      <trkpt lat="44.3849" lon="6.39158">
        <ele>1930</ele>
        <time>2020-07-07T06:39:10.000Z</time>
      </trkpt>
      <trkpt lat="44.38489" lon="6.39158">
        <ele>1931</ele>
        <time>2020-07-07T06:39:11.000Z</time>
      </trkpt>
      <trkpt lat="44.38488" lon="6.39159">
        <ele>1931</ele>
        <time>2020-07-07T06:39:12.000Z</time>
      </trkpt>
      <trkpt lat="44.38487" lon="6.39159">
        <ele>1931</ele>
        <time>2020-07-07T06:39:13.000Z</time>
      </trkpt>
      <trkpt lat="44.38486" lon="6.39159">
        <ele>1930</ele>
        <time>2020-07-07T06:39:14.000Z</time>
      </trkpt>
      <trkpt lat="44.38485" lon="6.3916">
        <ele>1930</ele>
        <time>2020-07-07T06:39:15.000Z</time>
      </trkpt>
      <trkpt lat="44.38484" lon="6.3916">
        <ele>1930</ele>
        <time>2020-07-07T06:39:16.000Z</time>
      </trkpt>
      <trkpt lat="44.38483" lon="6.3916">
        <ele>1930</ele>
        <time>2020-07-07T06:39:17.000Z</time>
      </trkpt>
      <trkpt lat="44.38482" lon="6.39161">
        <ele>1930</ele>
        <time>2020-07-07T06:39:18.000Z</time>
      </trkpt>
      <trkpt lat="44.38481" lon="6.39161">
        <ele>1930</ele>
        <time>2020-07-07T06:39:19.000Z</time>
      </trkpt>
      <trkpt lat="44.3848" lon="6.39162">
        <ele>1930</ele>
        <time>2020-07-07T06:39:20.000Z</time>
      </trkpt>
      <trkpt lat="44.38479" lon="6.39162">
        <ele>1930</ele>
        <time>2020-07-07T06:39:21.000Z</time>
      </trkpt>
      <trkpt lat="44.38478" lon="6.39162">
        <ele>1930</ele>
        <time>2020-07-07T06:39:22.000Z</time>
      </trkpt>
      <trkpt lat="44.38477" lon="6.39162">
        <ele>1930</ele>
        <time>2020-07-07T06:39:23.000Z</time>
      </trkpt>
      <trkpt lat="44.38476" lon="6.39163">
        <ele>1930</ele>
        <time>2020-07-07T06:39:24.000Z</time>
      </trkpt>
      <trkpt lat="44.38475" lon="6.39163">
        <ele>1930</ele>
        <time>2020-07-07T06:39:25.000Z</time>
      </trkpt>
      <trkpt lat="44.38474" lon="6.39164">
        <ele>1930</ele>
        <time>2020-07-07T06:39:26.000Z</time>
      </trkpt>
      <trkpt lat="44.38473" lon="6.39164">
        <ele>1929</ele>
        <time>2020-07-07T06:39:27.000Z</time>
      </trkpt>
      <trkpt lat="44.38472" lon="6.39165">
        <ele>1929</ele>
        <time>2020-07-07T06:39:28.000Z</time>
      </trkpt>
      <trkpt lat="44.38471" lon="6.39165">
        <ele>1929</ele>
        <time>2020-07-07T06:39:29.000Z</time>
      </trkpt>
      <trkpt lat="44.3847" lon="6.39166">
        <ele>1929</ele>
        <time>2020-07-07T06:39:30.000Z</time>
      </trkpt>
      <trkpt lat="44.38469" lon="6.39166">
        <ele>1929</ele>
        <time>2020-07-07T06:39:31.000Z</time>
      </trkpt>
      <trkpt lat="44.38468" lon="6.39167">
        <ele>1929</ele>
        <time>2020-07-07T06:39:32.000Z</time>
      </trkpt>
      <trkpt lat="44.38467" lon="6.39167">
        <ele>1929</ele>
        <time>2020-07-07T06:39:33.000Z</time>
      </trkpt>
      <trkpt lat="44.38466" lon="6.39168">
        <ele>1929</ele>
        <time>2020-07-07T06:39:34.000Z</time>
      </trkpt>
      <trkpt lat="44.38465" lon="6.39168">
        <ele>1929</ele>
        <time>2020-07-07T06:39:35.000Z</time>
      </trkpt>
      <trkpt lat="44.38464" lon="6.39168">
        <ele>1929</ele>
        <time>2020-07-07T06:39:36.000Z</time>
      </trkpt>
      <trkpt lat="44.38463" lon="6.39169">
        <ele>1928</ele>
        <time>2020-07-07T06:39:37.000Z</time>
      </trkpt>
      <trkpt lat="44.38463" lon="6.39169">
        <ele>1928</ele>
        <time>2020-07-07T06:39:38.000Z</time>
      </trkpt>
      <trkpt lat="44.38461" lon="6.3917">
        <ele>1928</ele>
        <time>2020-07-07T06:39:39.000Z</time>
      </trkpt>
      <trkpt lat="44.38461" lon="6.3917">
        <ele>1928</ele>
        <time>2020-07-07T06:39:40.000Z</time>
      </trkpt>
      <trkpt lat="44.3846" lon="6.3917">
        <ele>1928</ele>
        <time>2020-07-07T06:39:41.000Z</time>
      </trkpt>
      <trkpt lat="44.3846" lon="6.3917">
        <ele>1928</ele>
        <time>2020-07-07T06:39:42.000Z</time>
      </trkpt>
      <trkpt lat="44.3846" lon="6.3917">
        <ele>1928</ele>
        <time>2020-07-07T06:39:43.000Z</time>
      </trkpt>
      <trkpt lat="44.3846" lon="6.3917">
        <ele>1928</ele>
        <time>2020-07-07T06:39:44.000Z</time>
      </trkpt>
      <trkpt lat="44.3846" lon="6.3917">
        <ele>1928</ele>
        <time>2020-07-07T06:39:45.000Z</time>
      </trkpt>
      <trkpt lat="44.3846" lon="6.3917">
        <ele>1928</ele>
        <time>2020-07-07T06:39:46.000Z</time>
      </trkpt>
      <trkpt lat="44.3846" lon="6.3917">
        <ele>1928</ele>
        <time>2020-07-07T06:39:47.000Z</time>
      </trkpt>
      <trkpt lat="44.3846" lon="6.3917">
        <ele>1928</ele>
        <time>2020-07-07T06:39:48.000Z</time>
      </trkpt>
      <trkpt lat="44.3846" lon="6.39171">
        <ele>1928</ele>
        <time>2020-07-07T06:39:49.000Z</time>
      </trkpt>
      <trkpt lat="44.3846" lon="6.39171">
        <ele>1928</ele>
        <time>2020-07-07T06:39:50.000Z</time>
      </trkpt>
      <trkpt lat="44.3846" lon="6.39171">
        <ele>1928</ele>
        <time>2020-07-07T06:39:51.000Z</time>
      </trkpt>
      <trkpt lat="44.3846" lon="6.39171">
        <ele>1928</ele>
        <time>2020-07-07T06:39:52.000Z</time>
      </trkpt>
      <trkpt lat="44.3846" lon="6.39171">
        <ele>1928</ele>
        <time>2020-07-07T06:39:53.000Z</time>
      </trkpt>
      <trkpt lat="44.3846" lon="6.39171">
        <ele>1928</ele>
        <time>2020-07-07T06:39:54.000Z</time>
      </trkpt>
      <trkpt lat="44.38459" lon="6.39171">
        <ele>1928</ele>
        <time>2020-07-07T06:39:55.000Z</time>
      </trkpt>
      <trkpt lat="44.38459" lon="6.39171">
        <ele>1928</ele>
        <time>2020-07-07T06:39:56.000Z</time>
      </trkpt>
      <trkpt lat="44.38459" lon="6.39171">
        <ele>1928</ele>
        <time>2020-07-07T06:39:57.000Z</time>
      </trkpt>
      <trkpt lat="44.38459" lon="6.39171">
        <ele>1928</ele>
        <time>2020-07-07T06:39:58.000Z</time>
      </trkpt>
      <trkpt lat="44.38459" lon="6.39171">
        <ele>1928</ele>
        <time>2020-07-07T06:39:59.000Z</time>
      </trkpt>
      <trkpt lat="44.38459" lon="6.39171">
        <ele>1928</ele>
        <time>2020-07-07T06:40:00.000Z</time>
      </trkpt>
      <trkpt lat="44.38459" lon="6.39171">
        <ele>1928</ele>
        <time>2020-07-07T06:40:01.000Z</time>
      </trkpt>
      <trkpt lat="44.38459" lon="6.39171">
        <ele>1928</ele>
        <time>2020-07-07T06:40:02.000Z</time>
      </trkpt>
      <trkpt lat="44.38459" lon="6.39171">
        <ele>1928</ele>
        <time>2020-07-07T06:40:03.000Z</time>
      </trkpt>
      <trkpt lat="44.38459" lon="6.39171">
        <ele>1928</ele>
        <time>2020-07-07T06:40:04.000Z</time>
      </trkpt>
      <trkpt lat="44.38459" lon="6.39171">
        <ele>1928</ele>
        <time>2020-07-07T06:40:05.000Z</time>
      </trkpt>
      <trkpt lat="44.38459" lon="6.39171">
        <ele>1928</ele>
        <time>2020-07-07T06:40:06.000Z</time>
      </trkpt>
      <trkpt lat="44.38459" lon="6.39171">
        <ele>1928</ele>
        <time>2020-07-07T06:40:07.000Z</time>
      </trkpt>
      <trkpt lat="44.38459" lon="6.39171">
        <ele>1928</ele>
        <time>2020-07-07T06:40:08.000Z</time>
      </trkpt>
      <trkpt lat="44.38459" lon="6.39171">
        <ele>1928</ele>
        <time>2020-07-07T06:40:09.000Z</time>
      </trkpt>
      <trkpt lat="44.38459" lon="6.39171">
        <ele>1928</ele>
        <time>2020-07-07T06:40:10.000Z</time>
      </trkpt>
      <trkpt lat="44.38459" lon="6.39171">
        <ele>1928</ele>
        <time>2020-07-07T06:40:11.000Z</time>
      </trkpt>
      <trkpt lat="44.38459" lon="6.39171">
        <ele>1928</ele>
        <time>2020-07-07T06:40:12.000Z</time>
      </trkpt>
      <trkpt lat="44.38458" lon="6.39172">
        <ele>1927</ele>
        <time>2020-07-07T06:40:13.000Z</time>
      </trkpt>
      <trkpt lat="44.38458" lon="6.39172">
        <ele>1927</ele>
        <time>2020-07-07T06:40:14.000Z</time>
      </trkpt>
      <trkpt lat="44.38457" lon="6.39172">
        <ele>1927</ele>
        <time>2020-07-07T06:40:15.000Z</time>
      </trkpt>
      <trkpt lat="44.38456" lon="6.39173">
        <ele>1927</ele>
        <time>2020-07-07T06:40:16.000Z</time>
      </trkpt>
      <trkpt lat="44.38455" lon="6.39173">
        <ele>1927</ele>
        <time>2020-07-07T06:40:17.000Z</time>
      </trkpt>
      <trkpt lat="44.38455" lon="6.39173">
        <ele>1927</ele>
        <time>2020-07-07T06:40:18.000Z</time>
      </trkpt>
      <trkpt lat="44.38455" lon="6.39174">
        <ele>1927</ele>
        <time>2020-07-07T06:40:19.000Z</time>
      </trkpt>
      <trkpt lat="44.38455" lon="6.39174">
        <ele>1927</ele>
        <time>2020-07-07T06:40:20.000Z</time>
      </trkpt>
      <trkpt lat="44.38454" lon="6.39174">
        <ele>1927</ele>
        <time>2020-07-07T06:40:21.000Z</time>
      </trkpt>
      <trkpt lat="44.38453" lon="6.39175">
        <ele>1927</ele>
        <time>2020-07-07T06:40:22.000Z</time>
      </trkpt>
      <trkpt lat="44.38452" lon="6.39176">
        <ele>1927</ele>
        <time>2020-07-07T06:40:23.000Z</time>
      </trkpt>
      <trkpt lat="44.38451" lon="6.39176">
        <ele>1927</ele>
        <time>2020-07-07T06:40:24.000Z</time>
      </trkpt>
      <trkpt lat="44.3845" lon="6.39177">
        <ele>1927</ele>
        <time>2020-07-07T06:40:25.000Z</time>
      </trkpt>
      <trkpt lat="44.3845" lon="6.39178">
        <ele>1927</ele>
        <time>2020-07-07T06:40:26.000Z</time>
      </trkpt>
      <trkpt lat="44.38449" lon="6.39178">
        <ele>1927</ele>
        <time>2020-07-07T06:40:27.000Z</time>
      </trkpt>
      <trkpt lat="44.38448" lon="6.39179">
        <ele>1928</ele>
        <time>2020-07-07T06:40:28.000Z</time>
      </trkpt>
      <trkpt lat="44.38447" lon="6.3918">
        <ele>1928</ele>
        <time>2020-07-07T06:40:29.000Z</time>
      </trkpt>
      <trkpt lat="44.38446" lon="6.39181">
        <ele>1928</ele>
        <time>2020-07-07T06:40:30.000Z</time>
      </trkpt>
      <trkpt lat="44.38445" lon="6.39182">
        <ele>1928</ele>
        <time>2020-07-07T06:40:31.000Z</time>
      </trkpt>
      <trkpt lat="44.38444" lon="6.39183">
        <ele>1928</ele>
        <time>2020-07-07T06:40:32.000Z</time>
      </trkpt>
      <trkpt lat="44.38443" lon="6.39184">
        <ele>1928</ele>
        <time>2020-07-07T06:40:33.000Z</time>
      </trkpt>
      <trkpt lat="44.38442" lon="6.39184">
        <ele>1928</ele>
        <time>2020-07-07T06:40:34.000Z</time>
      </trkpt>
      <trkpt lat="44.38441" lon="6.39185">
        <ele>1928</ele>
        <time>2020-07-07T06:40:35.000Z</time>
      </trkpt>
      <trkpt lat="44.3844" lon="6.39186">
        <ele>1928</ele>
        <time>2020-07-07T06:40:36.000Z</time>
      </trkpt>
      <trkpt lat="44.38439" lon="6.39187">
        <ele>1928</ele>
        <time>2020-07-07T06:40:37.000Z</time>
      </trkpt>
      <trkpt lat="44.38438" lon="6.39188">
        <ele>1928</ele>
        <time>2020-07-07T06:40:38.000Z</time>
      </trkpt>
      <trkpt lat="44.38437" lon="6.39188">
        <ele>1928</ele>
        <time>2020-07-07T06:40:39.000Z</time>
      </trkpt>
      <trkpt lat="44.38437" lon="6.39189">
        <ele>1929</ele>
        <time>2020-07-07T06:40:40.000Z</time>
      </trkpt>
      <trkpt lat="44.38436" lon="6.3919">
        <ele>1929</ele>
        <time>2020-07-07T06:40:41.000Z</time>
      </trkpt>
      <trkpt lat="44.38435" lon="6.39191">
        <ele>1929</ele>
        <time>2020-07-07T06:40:42.000Z</time>
      </trkpt>
      <trkpt lat="44.38434" lon="6.39191">
        <ele>1929</ele>
        <time>2020-07-07T06:40:43.000Z</time>
      </trkpt>
      <trkpt lat="44.38433" lon="6.39192">
        <ele>1929</ele>
        <time>2020-07-07T06:40:44.000Z</time>
      </trkpt>
      <trkpt lat="44.38432" lon="6.39193">
        <ele>1929</ele>
        <time>2020-07-07T06:40:45.000Z</time>
      </trkpt>
      <trkpt lat="44.38431" lon="6.39194">
        <ele>1930</ele>
        <time>2020-07-07T06:40:46.000Z</time>
      </trkpt>
      <trkpt lat="44.3843" lon="6.39194">
        <ele>1930</ele>
        <time>2020-07-07T06:40:47.000Z</time>
      </trkpt>
      <trkpt lat="44.38429" lon="6.39195">
        <ele>1930</ele>
        <time>2020-07-07T06:40:48.000Z</time>
      </trkpt>
      <trkpt lat="44.38428" lon="6.39195">
        <ele>1930</ele>
        <time>2020-07-07T06:40:49.000Z</time>
      </trkpt>
      <trkpt lat="44.38427" lon="6.39195">
        <ele>1930</ele>
        <time>2020-07-07T06:40:50.000Z</time>
      </trkpt>
      <trkpt lat="44.38426" lon="6.39196">
        <ele>1930</ele>
        <time>2020-07-07T06:40:51.000Z</time>
      </trkpt>
      <trkpt lat="44.38425" lon="6.39196">
        <ele>1931</ele>
        <time>2020-07-07T06:40:52.000Z</time>
      </trkpt>
      <trkpt lat="44.38424" lon="6.39197">
        <ele>1931</ele>
        <time>2020-07-07T06:40:53.000Z</time>
      </trkpt>
      <trkpt lat="44.38422" lon="6.39197">
        <ele>1931</ele>
        <time>2020-07-07T06:40:54.000Z</time>
      </trkpt>
      <trkpt lat="44.38421" lon="6.39198">
        <ele>1931</ele>
        <time>2020-07-07T06:40:55.000Z</time>
      </trkpt>
      <trkpt lat="44.3842" lon="6.39199">
        <ele>1931</ele>
        <time>2020-07-07T06:40:56.000Z</time>
      </trkpt>
      <trkpt lat="44.38419" lon="6.39199">
        <ele>1931</ele>
        <time>2020-07-07T06:40:57.000Z</time>
      </trkpt>
      <trkpt lat="44.38418" lon="6.39199">
        <ele>1931</ele>
        <time>2020-07-07T06:40:58.000Z</time>
      </trkpt>
      <trkpt lat="44.38417" lon="6.392">
        <ele>1932</ele>
        <time>2020-07-07T06:40:59.000Z</time>
      </trkpt>
      <trkpt lat="44.38417" lon="6.392">
        <ele>1932</ele>
        <time>2020-07-07T06:41:00.000Z</time>
      </trkpt>
      <trkpt lat="44.38416" lon="6.392">
        <ele>1932</ele>
        <time>2020-07-07T06:41:01.000Z</time>
      </trkpt>
      <trkpt lat="44.38415" lon="6.392">
        <ele>1932</ele>
        <time>2020-07-07T06:41:02.000Z</time>
      </trkpt>
      <trkpt lat="44.38414" lon="6.392">
        <ele>1932</ele>
        <time>2020-07-07T06:41:03.000Z</time>
      </trkpt>
      <trkpt lat="44.38413" lon="6.39201">
        <ele>1932</ele>
        <time>2020-07-07T06:41:04.000Z</time>
      </trkpt>
      <trkpt lat="44.38412" lon="6.39201">
        <ele>1932</ele>
        <time>2020-07-07T06:41:05.000Z</time>
      </trkpt>
      <trkpt lat="44.38411" lon="6.39202">
        <ele>1933</ele>
        <time>2020-07-07T06:41:06.000Z</time>
      </trkpt>
      <trkpt lat="44.3841" lon="6.39203">
        <ele>1933</ele>
        <time>2020-07-07T06:41:07.000Z</time>
      </trkpt>
      <trkpt lat="44.38409" lon="6.39203">
        <ele>1933</ele>
        <time>2020-07-07T06:41:08.000Z</time>
      </trkpt>
      <trkpt lat="44.38408" lon="6.39203">
        <ele>1933</ele>
        <time>2020-07-07T06:41:09.000Z</time>
      </trkpt>
      <trkpt lat="44.38407" lon="6.39204">
        <ele>1933</ele>
        <time>2020-07-07T06:41:10.000Z</time>
      </trkpt>
      <trkpt lat="44.38406" lon="6.39204">
        <ele>1932</ele>
        <time>2020-07-07T06:41:11.000Z</time>
      </trkpt>
      <trkpt lat="44.38405" lon="6.39205">
        <ele>1933</ele>
        <time>2020-07-07T06:41:12.000Z</time>
      </trkpt>
      <trkpt lat="44.38405" lon="6.39205">
        <ele>1933</ele>
        <time>2020-07-07T06:41:13.000Z</time>
      </trkpt>
      <trkpt lat="44.38404" lon="6.39206">
        <ele>1933</ele>
        <time>2020-07-07T06:41:14.000Z</time>
      </trkpt>
      <trkpt lat="44.38403" lon="6.39206">
        <ele>1933</ele>
        <time>2020-07-07T06:41:15.000Z</time>
      </trkpt>
      <trkpt lat="44.38402" lon="6.39206">
        <ele>1933</ele>
        <time>2020-07-07T06:41:16.000Z</time>
      </trkpt>
      <trkpt lat="44.38401" lon="6.39206">
        <ele>1933</ele>
        <time>2020-07-07T06:41:17.000Z</time>
      </trkpt>
      <trkpt lat="44.384" lon="6.39206">
        <ele>1933</ele>
        <time>2020-07-07T06:41:18.000Z</time>
      </trkpt>
      <trkpt lat="44.38399" lon="6.39206">
        <ele>1933</ele>
        <time>2020-07-07T06:41:19.000Z</time>
      </trkpt>
      <trkpt lat="44.38398" lon="6.39207">
        <ele>1933</ele>
        <time>2020-07-07T06:41:20.000Z</time>
      </trkpt>
      <trkpt lat="44.38397" lon="6.39207">
        <ele>1934</ele>
        <time>2020-07-07T06:41:21.000Z</time>
      </trkpt>
      <trkpt lat="44.38396" lon="6.39207">
        <ele>1934</ele>
        <time>2020-07-07T06:41:22.000Z</time>
      </trkpt>
      <trkpt lat="44.38395" lon="6.39207">
        <ele>1934</ele>
        <time>2020-07-07T06:41:23.000Z</time>
      </trkpt>
      <trkpt lat="44.38394" lon="6.39207">
        <ele>1934</ele>
        <time>2020-07-07T06:41:24.000Z</time>
      </trkpt>
      <trkpt lat="44.38393" lon="6.39207">
        <ele>1934</ele>
        <time>2020-07-07T06:41:25.000Z</time>
      </trkpt>
      <trkpt lat="44.38392" lon="6.39206">
        <ele>1934</ele>
        <time>2020-07-07T06:41:26.000Z</time>
      </trkpt>
      <trkpt lat="44.38391" lon="6.39206">
        <ele>1935</ele>
        <time>2020-07-07T06:41:27.000Z</time>
      </trkpt>
      <trkpt lat="44.3839" lon="6.39206">
        <ele>1935</ele>
        <time>2020-07-07T06:41:28.000Z</time>
      </trkpt>
      <trkpt lat="44.38389" lon="6.39206">
        <ele>1935</ele>
        <time>2020-07-07T06:41:29.000Z</time>
      </trkpt>
      <trkpt lat="44.38388" lon="6.39206">
        <ele>1935</ele>
        <time>2020-07-07T06:41:30.000Z</time>
      </trkpt>
      <trkpt lat="44.38387" lon="6.39207">
        <ele>1935</ele>
        <time>2020-07-07T06:41:31.000Z</time>
      </trkpt>
      <trkpt lat="44.38386" lon="6.39207">
        <ele>1935</ele>
        <time>2020-07-07T06:41:32.000Z</time>
      </trkpt>
      <trkpt lat="44.38385" lon="6.39207">
        <ele>1935</ele>
        <time>2020-07-07T06:41:33.000Z</time>
      </trkpt>
      <trkpt lat="44.38384" lon="6.39207">
        <ele>1935</ele>
        <time>2020-07-07T06:41:34.000Z</time>
      </trkpt>
      <trkpt lat="44.38383" lon="6.39208">
        <ele>1935</ele>
        <time>2020-07-07T06:41:35.000Z</time>
      </trkpt>
      <trkpt lat="44.38382" lon="6.39208">
        <ele>1935</ele>
        <time>2020-07-07T06:41:36.000Z</time>
      </trkpt>
      <trkpt lat="44.38381" lon="6.39208">
        <ele>1935</ele>
        <time>2020-07-07T06:41:37.000Z</time>
      </trkpt>
      <trkpt lat="44.3838" lon="6.39209">
        <ele>1936</ele>
        <time>2020-07-07T06:41:38.000Z</time>
      </trkpt>
      <trkpt lat="44.3838" lon="6.39209">
        <ele>1936</ele>
        <time>2020-07-07T06:41:39.000Z</time>
      </trkpt>
      <trkpt lat="44.38379" lon="6.3921">
        <ele>1936</ele>
        <time>2020-07-07T06:41:40.000Z</time>
      </trkpt>
      <trkpt lat="44.38378" lon="6.3921">
        <ele>1936</ele>
        <time>2020-07-07T06:41:41.000Z</time>
      </trkpt>
      <trkpt lat="44.38377" lon="6.3921">
        <ele>1936</ele>
        <time>2020-07-07T06:41:42.000Z</time>
      </trkpt>
      <trkpt lat="44.38376" lon="6.39211">
        <ele>1936</ele>
        <time>2020-07-07T06:41:43.000Z</time>
      </trkpt>
      <trkpt lat="44.38375" lon="6.39211">
        <ele>1936</ele>
        <time>2020-07-07T06:41:44.000Z</time>
      </trkpt>
      <trkpt lat="44.38374" lon="6.39212">
        <ele>1936</ele>
        <time>2020-07-07T06:41:45.000Z</time>
      </trkpt>
      <trkpt lat="44.38373" lon="6.39212">
        <ele>1936</ele>
        <time>2020-07-07T06:41:46.000Z</time>
      </trkpt>
      <trkpt lat="44.38372" lon="6.39212">
        <ele>1936</ele>
        <time>2020-07-07T06:41:47.000Z</time>
      </trkpt>
      <trkpt lat="44.38371" lon="6.39212">
        <ele>1936</ele>
        <time>2020-07-07T06:41:48.000Z</time>
      </trkpt>
      <trkpt lat="44.3837" lon="6.39213">
        <ele>1936</ele>
        <time>2020-07-07T06:41:49.000Z</time>
      </trkpt>
      <trkpt lat="44.38369" lon="6.39213">
        <ele>1936</ele>
        <time>2020-07-07T06:41:50.000Z</time>
      </trkpt>
      <trkpt lat="44.38368" lon="6.39213">
        <ele>1936</ele>
        <time>2020-07-07T06:41:51.000Z</time>
      </trkpt>
      <trkpt lat="44.38367" lon="6.39213">
        <ele>1936</ele>
        <time>2020-07-07T06:41:52.000Z</time>
      </trkpt>
      <trkpt lat="44.38366" lon="6.39213">
        <ele>1936</ele>
        <time>2020-07-07T06:41:53.000Z</time>
      </trkpt>
      <trkpt lat="44.38365" lon="6.39214">
        <ele>1936</ele>
        <time>2020-07-07T06:41:54.000Z</time>
      </trkpt>
      <trkpt lat="44.38364" lon="6.39214">
        <ele>1936</ele>
        <time>2020-07-07T06:41:55.000Z</time>
      </trkpt>
      <trkpt lat="44.38363" lon="6.39214">
        <ele>1936</ele>
        <time>2020-07-07T06:41:56.000Z</time>
      </trkpt>
      <trkpt lat="44.38362" lon="6.39214">
        <ele>1937</ele>
        <time>2020-07-07T06:41:57.000Z</time>
      </trkpt>
      <trkpt lat="44.3836" lon="6.39214">
        <ele>1937</ele>
        <time>2020-07-07T06:41:58.000Z</time>
      </trkpt>
      <trkpt lat="44.38359" lon="6.39214">
        <ele>1937</ele>
        <time>2020-07-07T06:41:59.000Z</time>
      </trkpt>
      <trkpt lat="44.38358" lon="6.39214">
        <ele>1937</ele>
        <time>2020-07-07T06:42:00.000Z</time>
      </trkpt>
      <trkpt lat="44.38357" lon="6.39214">
        <ele>1937</ele>
        <time>2020-07-07T06:42:01.000Z</time>
      </trkpt>
      <trkpt lat="44.38356" lon="6.39214">
        <ele>1937</ele>
        <time>2020-07-07T06:42:02.000Z</time>
      </trkpt>
      <trkpt lat="44.38355" lon="6.39214">
        <ele>1937</ele>
        <time>2020-07-07T06:42:03.000Z</time>
      </trkpt>
      <trkpt lat="44.38354" lon="6.39214">
        <ele>1937</ele>
        <time>2020-07-07T06:42:04.000Z</time>
      </trkpt>
      <trkpt lat="44.38353" lon="6.39214">
        <ele>1937</ele>
        <time>2020-07-07T06:42:05.000Z</time>
      </trkpt>
      <trkpt lat="44.38352" lon="6.39214">
        <ele>1937</ele>
        <time>2020-07-07T06:42:06.000Z</time>
      </trkpt>
      <trkpt lat="44.38351" lon="6.39214">
        <ele>1937</ele>
        <time>2020-07-07T06:42:07.000Z</time>
      </trkpt>
      <trkpt lat="44.3835" lon="6.39214">
        <ele>1937</ele>
        <time>2020-07-07T06:42:08.000Z</time>
      </trkpt>
      <trkpt lat="44.38348" lon="6.39214">
        <ele>1937</ele>
        <time>2020-07-07T06:42:09.000Z</time>
      </trkpt>
      <trkpt lat="44.38347" lon="6.39214">
        <ele>1937</ele>
        <time>2020-07-07T06:42:10.000Z</time>
      </trkpt>
      <trkpt lat="44.38346" lon="6.39214">
        <ele>1938</ele>
        <time>2020-07-07T06:42:11.000Z</time>
      </trkpt>
      <trkpt lat="44.38345" lon="6.39214">
        <ele>1938</ele>
        <time>2020-07-07T06:42:12.000Z</time>
      </trkpt>
      <trkpt lat="44.38344" lon="6.39214">
        <ele>1938</ele>
        <time>2020-07-07T06:42:13.000Z</time>
      </trkpt>
      <trkpt lat="44.38343" lon="6.39214">
        <ele>1938</ele>
        <time>2020-07-07T06:42:14.000Z</time>
      </trkpt>
      <trkpt lat="44.38342" lon="6.39214">
        <ele>1938</ele>
        <time>2020-07-07T06:42:15.000Z</time>
      </trkpt>
      <trkpt lat="44.38341" lon="6.39214">
        <ele>1938</ele>
        <time>2020-07-07T06:42:16.000Z</time>
      </trkpt>
      <trkpt lat="44.38339" lon="6.39214">
        <ele>1938</ele>
        <time>2020-07-07T06:42:17.000Z</time>
      </trkpt>
      <trkpt lat="44.38339" lon="6.39214">
        <ele>1938</ele>
        <time>2020-07-07T06:42:18.000Z</time>
      </trkpt>
      <trkpt lat="44.38338" lon="6.39214">
        <ele>1938</ele>
        <time>2020-07-07T06:42:19.000Z</time>
      </trkpt>
      <trkpt lat="44.38337" lon="6.39213">
        <ele>1938</ele>
        <time>2020-07-07T06:42:20.000Z</time>
      </trkpt>
      <trkpt lat="44.38336" lon="6.39213">
        <ele>1938</ele>
        <time>2020-07-07T06:42:21.000Z</time>
      </trkpt>
      <trkpt lat="44.38335" lon="6.39213">
        <ele>1938</ele>
        <time>2020-07-07T06:42:22.000Z</time>
      </trkpt>
      <trkpt lat="44.38334" lon="6.39213">
        <ele>1938</ele>
        <time>2020-07-07T06:42:23.000Z</time>
      </trkpt>
      <trkpt lat="44.38333" lon="6.39213">
        <ele>1938</ele>
        <time>2020-07-07T06:42:24.000Z</time>
      </trkpt>
      <trkpt lat="44.38332" lon="6.39213">
        <ele>1938</ele>
        <time>2020-07-07T06:42:25.000Z</time>
      </trkpt>
      <trkpt lat="44.38331" lon="6.39213">
        <ele>1938</ele>
        <time>2020-07-07T06:42:26.000Z</time>
      </trkpt>
      <trkpt lat="44.3833" lon="6.39213">
        <ele>1938</ele>
        <time>2020-07-07T06:42:27.000Z</time>
      </trkpt>
      <trkpt lat="44.38329" lon="6.39212">
        <ele>1938</ele>
        <time>2020-07-07T06:42:28.000Z</time>
      </trkpt>
      <trkpt lat="44.38328" lon="6.39212">
        <ele>1938</ele>
        <time>2020-07-07T06:42:29.000Z</time>
      </trkpt>
      <trkpt lat="44.38327" lon="6.39212">
        <ele>1938</ele>
        <time>2020-07-07T06:42:30.000Z</time>
      </trkpt>
      <trkpt lat="44.38326" lon="6.39212">
        <ele>1939</ele>
        <time>2020-07-07T06:42:31.000Z</time>
      </trkpt>
      <trkpt lat="44.38325" lon="6.39212">
        <ele>1939</ele>
        <time>2020-07-07T06:42:32.000Z</time>
      </trkpt>
      <trkpt lat="44.38324" lon="6.39212">
        <ele>1939</ele>
        <time>2020-07-07T06:42:33.000Z</time>
      </trkpt>
      <trkpt lat="44.38322" lon="6.39212">
        <ele>1939</ele>
        <time>2020-07-07T06:42:34.000Z</time>
      </trkpt>
      <trkpt lat="44.38321" lon="6.39213">
        <ele>1939</ele>
        <time>2020-07-07T06:42:35.000Z</time>
      </trkpt>
      <trkpt lat="44.3832" lon="6.39213">
        <ele>1939</ele>
        <time>2020-07-07T06:42:36.000Z</time>
      </trkpt>
      <trkpt lat="44.38319" lon="6.39213">
        <ele>1939</ele>
        <time>2020-07-07T06:42:37.000Z</time>
      </trkpt>
      <trkpt lat="44.38318" lon="6.39213">
        <ele>1939</ele>
        <time>2020-07-07T06:42:38.000Z</time>
      </trkpt>
      <trkpt lat="44.38317" lon="6.39213">
        <ele>1940</ele>
        <time>2020-07-07T06:42:39.000Z</time>
      </trkpt>
      <trkpt lat="44.38316" lon="6.39213">
        <ele>1940</ele>
        <time>2020-07-07T06:42:40.000Z</time>
      </trkpt>
      <trkpt lat="44.38315" lon="6.39213">
        <ele>1940</ele>
        <time>2020-07-07T06:42:41.000Z</time>
      </trkpt>
      <trkpt lat="44.38314" lon="6.39213">
        <ele>1940</ele>
        <time>2020-07-07T06:42:42.000Z</time>
      </trkpt>
      <trkpt lat="44.38313" lon="6.39213">
        <ele>1940</ele>
        <time>2020-07-07T06:42:43.000Z</time>
      </trkpt>
      <trkpt lat="44.38312" lon="6.39213">
        <ele>1941</ele>
        <time>2020-07-07T06:42:44.000Z</time>
      </trkpt>
      <trkpt lat="44.38311" lon="6.39213">
        <ele>1941</ele>
        <time>2020-07-07T06:42:45.000Z</time>
      </trkpt>
      <trkpt lat="44.3831" lon="6.39213">
        <ele>1941</ele>
        <time>2020-07-07T06:42:46.000Z</time>
      </trkpt>
      <trkpt lat="44.38309" lon="6.39213">
        <ele>1941</ele>
        <time>2020-07-07T06:42:47.000Z</time>
      </trkpt>
      <trkpt lat="44.38308" lon="6.39214">
        <ele>1941</ele>
        <time>2020-07-07T06:42:48.000Z</time>
      </trkpt>
      <trkpt lat="44.38307" lon="6.39214">
        <ele>1941</ele>
        <time>2020-07-07T06:42:49.000Z</time>
      </trkpt>
      <trkpt lat="44.38306" lon="6.39214">
        <ele>1941</ele>
        <time>2020-07-07T06:42:50.000Z</time>
      </trkpt>
      <trkpt lat="44.38305" lon="6.39214">
        <ele>1942</ele>
        <time>2020-07-07T06:42:51.000Z</time>
      </trkpt>
      <trkpt lat="44.38304" lon="6.39214">
        <ele>1942</ele>
        <time>2020-07-07T06:42:52.000Z</time>
      </trkpt>
      <trkpt lat="44.38303" lon="6.39214">
        <ele>1942</ele>
        <time>2020-07-07T06:42:53.000Z</time>
      </trkpt>
      <trkpt lat="44.38302" lon="6.39215">
        <ele>1942</ele>
        <time>2020-07-07T06:42:54.000Z</time>
      </trkpt>
      <trkpt lat="44.38301" lon="6.39215">
        <ele>1942</ele>
        <time>2020-07-07T06:42:55.000Z</time>
      </trkpt>
      <trkpt lat="44.383" lon="6.39215">
        <ele>1942</ele>
        <time>2020-07-07T06:42:56.000Z</time>
      </trkpt>
      <trkpt lat="44.38299" lon="6.39215">
        <ele>1942</ele>
        <time>2020-07-07T06:42:57.000Z</time>
      </trkpt>
      <trkpt lat="44.38298" lon="6.39216">
        <ele>1942</ele>
        <time>2020-07-07T06:42:58.000Z</time>
      </trkpt>
      <trkpt lat="44.38297" lon="6.39216">
        <ele>1943</ele>
        <time>2020-07-07T06:42:59.000Z</time>
      </trkpt>
      <trkpt lat="44.38296" lon="6.39217">
        <ele>1943</ele>
        <time>2020-07-07T06:43:00.000Z</time>
      </trkpt>
      <trkpt lat="44.38296" lon="6.39217">
        <ele>1943</ele>
        <time>2020-07-07T06:43:01.000Z</time>
      </trkpt>
      <trkpt lat="44.38295" lon="6.39217">
        <ele>1943</ele>
        <time>2020-07-07T06:43:02.000Z</time>
      </trkpt>
      <trkpt lat="44.38294" lon="6.39217">
        <ele>1943</ele>
        <time>2020-07-07T06:43:03.000Z</time>
      </trkpt>
      <trkpt lat="44.38294" lon="6.39218">
        <ele>1943</ele>
        <time>2020-07-07T06:43:04.000Z</time>
      </trkpt>
      <trkpt lat="44.38293" lon="6.39218">
        <ele>1943</ele>
        <time>2020-07-07T06:43:05.000Z</time>
      </trkpt>
      <trkpt lat="44.38292" lon="6.39218">
        <ele>1943</ele>
        <time>2020-07-07T06:43:06.000Z</time>
      </trkpt>
      <trkpt lat="44.38291" lon="6.39218">
        <ele>1943</ele>
        <time>2020-07-07T06:43:07.000Z</time>
      </trkpt>
      <trkpt lat="44.3829" lon="6.39218">
        <ele>1943</ele>
        <time>2020-07-07T06:43:08.000Z</time>
      </trkpt>
      <trkpt lat="44.3829" lon="6.39219">
        <ele>1943</ele>
        <time>2020-07-07T06:43:09.000Z</time>
      </trkpt>
      <trkpt lat="44.38289" lon="6.39219">
        <ele>1944</ele>
        <time>2020-07-07T06:43:10.000Z</time>
      </trkpt>
      <trkpt lat="44.38288" lon="6.3922">
        <ele>1944</ele>
        <time>2020-07-07T06:43:11.000Z</time>
      </trkpt>
      <trkpt lat="44.38287" lon="6.3922">
        <ele>1944</ele>
        <time>2020-07-07T06:43:12.000Z</time>
      </trkpt>
      <trkpt lat="44.38286" lon="6.39221">
        <ele>1944</ele>
        <time>2020-07-07T06:43:13.000Z</time>
      </trkpt>
      <trkpt lat="44.38285" lon="6.39221">
        <ele>1944</ele>
        <time>2020-07-07T06:43:14.000Z</time>
      </trkpt>
      <trkpt lat="44.38284" lon="6.39222">
        <ele>1944</ele>
        <time>2020-07-07T06:43:15.000Z</time>
      </trkpt>
      <trkpt lat="44.38283" lon="6.39223">
        <ele>1944</ele>
        <time>2020-07-07T06:43:16.000Z</time>
      </trkpt>
      <trkpt lat="44.38282" lon="6.39223">
        <ele>1945</ele>
        <time>2020-07-07T06:43:17.000Z</time>
      </trkpt>
      <trkpt lat="44.38281" lon="6.39224">
        <ele>1945</ele>
        <time>2020-07-07T06:43:18.000Z</time>
      </trkpt>
      <trkpt lat="44.3828" lon="6.39225">
        <ele>1945</ele>
        <time>2020-07-07T06:43:19.000Z</time>
      </trkpt>
      <trkpt lat="44.38279" lon="6.39225">
        <ele>1945</ele>
        <time>2020-07-07T06:43:20.000Z</time>
      </trkpt>
      <trkpt lat="44.38278" lon="6.39226">
        <ele>1946</ele>
        <time>2020-07-07T06:43:21.000Z</time>
      </trkpt>
      <trkpt lat="44.38278" lon="6.39227">
        <ele>1946</ele>
        <time>2020-07-07T06:43:22.000Z</time>
      </trkpt>
      <trkpt lat="44.38276" lon="6.39228">
        <ele>1946</ele>
        <time>2020-07-07T06:43:23.000Z</time>
      </trkpt>
      <trkpt lat="44.38275" lon="6.39229">
        <ele>1946</ele>
        <time>2020-07-07T06:43:24.000Z</time>
      </trkpt>
      <trkpt lat="44.38274" lon="6.39229">
        <ele>1946</ele>
        <time>2020-07-07T06:43:25.000Z</time>
      </trkpt>
      <trkpt lat="44.38273" lon="6.3923">
        <ele>1946</ele>
        <time>2020-07-07T06:43:26.000Z</time>
      </trkpt>
      <trkpt lat="44.38272" lon="6.39231">
        <ele>1946</ele>
        <time>2020-07-07T06:43:27.000Z</time>
      </trkpt>
      <trkpt lat="44.38271" lon="6.39232">
        <ele>1947</ele>
        <time>2020-07-07T06:43:28.000Z</time>
      </trkpt>
      <trkpt lat="44.3827" lon="6.39233">
        <ele>1947</ele>
        <time>2020-07-07T06:43:29.000Z</time>
      </trkpt>
      <trkpt lat="44.3827" lon="6.39233">
        <ele>1947</ele>
        <time>2020-07-07T06:43:30.000Z</time>
      </trkpt>
      <trkpt lat="44.38269" lon="6.39234">
        <ele>1947</ele>
        <time>2020-07-07T06:43:31.000Z</time>
      </trkpt>
      <trkpt lat="44.38268" lon="6.39235">
        <ele>1947</ele>
        <time>2020-07-07T06:43:32.000Z</time>
      </trkpt>
      <trkpt lat="44.38267" lon="6.39235">
        <ele>1947</ele>
        <time>2020-07-07T06:43:33.000Z</time>
      </trkpt>
      <trkpt lat="44.38266" lon="6.39235">
        <ele>1947</ele>
        <time>2020-07-07T06:43:34.000Z</time>
      </trkpt>
      <trkpt lat="44.38265" lon="6.39236">
        <ele>1947</ele>
        <time>2020-07-07T06:43:35.000Z</time>
      </trkpt>
      <trkpt lat="44.38264" lon="6.39236">
        <ele>1947</ele>
        <time>2020-07-07T06:43:36.000Z</time>
      </trkpt>
      <trkpt lat="44.38263" lon="6.39237">
        <ele>1947</ele>
        <time>2020-07-07T06:43:37.000Z</time>
      </trkpt>
      <trkpt lat="44.38262" lon="6.39237">
        <ele>1948</ele>
        <time>2020-07-07T06:43:38.000Z</time>
      </trkpt>
      <trkpt lat="44.38262" lon="6.39238">
        <ele>1948</ele>
        <time>2020-07-07T06:43:39.000Z</time>
      </trkpt>
      <trkpt lat="44.38261" lon="6.39238">
        <ele>1948</ele>
        <time>2020-07-07T06:43:40.000Z</time>
      </trkpt>
      <trkpt lat="44.3826" lon="6.39239">
        <ele>1948</ele>
        <time>2020-07-07T06:43:41.000Z</time>
      </trkpt>
      <trkpt lat="44.38259" lon="6.39239">
        <ele>1948</ele>
        <time>2020-07-07T06:43:42.000Z</time>
      </trkpt>
      <trkpt lat="44.38258" lon="6.39239">
        <ele>1948</ele>
        <time>2020-07-07T06:43:43.000Z</time>
      </trkpt>
      <trkpt lat="44.38258" lon="6.3924">
        <ele>1948</ele>
        <time>2020-07-07T06:43:44.000Z</time>
      </trkpt>
      <trkpt lat="44.38257" lon="6.3924">
        <ele>1948</ele>
        <time>2020-07-07T06:43:45.000Z</time>
      </trkpt>
      <trkpt lat="44.38256" lon="6.3924">
        <ele>1948</ele>
        <time>2020-07-07T06:43:46.000Z</time>
      </trkpt>
      <trkpt lat="44.38255" lon="6.39241">
        <ele>1948</ele>
        <time>2020-07-07T06:43:47.000Z</time>
      </trkpt>
      <trkpt lat="44.38254" lon="6.39241">
        <ele>1948</ele>
        <time>2020-07-07T06:43:48.000Z</time>
      </trkpt>
      <trkpt lat="44.38253" lon="6.39242">
        <ele>1948</ele>
        <time>2020-07-07T06:43:49.000Z</time>
      </trkpt>
      <trkpt lat="44.38252" lon="6.39242">
        <ele>1949</ele>
        <time>2020-07-07T06:43:50.000Z</time>
      </trkpt>
      <trkpt lat="44.38251" lon="6.39243">
        <ele>1949</ele>
        <time>2020-07-07T06:43:51.000Z</time>
      </trkpt>
      <trkpt lat="44.3825" lon="6.39244">
        <ele>1948</ele>
        <time>2020-07-07T06:43:52.000Z</time>
      </trkpt>
      <trkpt lat="44.38249" lon="6.39244">
        <ele>1948</ele>
        <time>2020-07-07T06:43:53.000Z</time>
      </trkpt>
      <trkpt lat="44.38248" lon="6.39245">
        <ele>1948</ele>
        <time>2020-07-07T06:43:54.000Z</time>
      </trkpt>
      <trkpt lat="44.38247" lon="6.39245">
        <ele>1948</ele>
        <time>2020-07-07T06:43:55.000Z</time>
      </trkpt>
      <trkpt lat="44.38246" lon="6.39246">
        <ele>1948</ele>
        <time>2020-07-07T06:43:56.000Z</time>
      </trkpt>
      <trkpt lat="44.38244" lon="6.39246">
        <ele>1949</ele>
        <time>2020-07-07T06:43:57.000Z</time>
      </trkpt>
      <trkpt lat="44.38243" lon="6.39247">
        <ele>1949</ele>
        <time>2020-07-07T06:43:58.000Z</time>
      </trkpt>
      <trkpt lat="44.38242" lon="6.39247">
        <ele>1949</ele>
        <time>2020-07-07T06:43:59.000Z</time>
      </trkpt>
      <trkpt lat="44.38241" lon="6.39247">
        <ele>1949</ele>
        <time>2020-07-07T06:44:00.000Z</time>
      </trkpt>
      <trkpt lat="44.3824" lon="6.39248">
        <ele>1949</ele>
        <time>2020-07-07T06:44:01.000Z</time>
      </trkpt>
      <trkpt lat="44.38239" lon="6.39248">
        <ele>1949</ele>
        <time>2020-07-07T06:44:02.000Z</time>
      </trkpt>
      <trkpt lat="44.38238" lon="6.39249">
        <ele>1949</ele>
        <time>2020-07-07T06:44:03.000Z</time>
      </trkpt>
      <trkpt lat="44.38237" lon="6.39249">
        <ele>1950</ele>
        <time>2020-07-07T06:44:04.000Z</time>
      </trkpt>
      <trkpt lat="44.38236" lon="6.39249">
        <ele>1950</ele>
        <time>2020-07-07T06:44:05.000Z</time>
      </trkpt>
      <trkpt lat="44.38235" lon="6.3925">
        <ele>1950</ele>
        <time>2020-07-07T06:44:06.000Z</time>
      </trkpt>
      <trkpt lat="44.38234" lon="6.39251">
        <ele>1950</ele>
        <time>2020-07-07T06:44:07.000Z</time>
      </trkpt>
      <trkpt lat="44.38233" lon="6.39251">
        <ele>1950</ele>
        <time>2020-07-07T06:44:08.000Z</time>
      </trkpt>
      <trkpt lat="44.38232" lon="6.39252">
        <ele>1950</ele>
        <time>2020-07-07T06:44:09.000Z</time>
      </trkpt>
      <trkpt lat="44.38231" lon="6.39252">
        <ele>1951</ele>
        <time>2020-07-07T06:44:10.000Z</time>
      </trkpt>
      <trkpt lat="44.38231" lon="6.39253">
        <ele>1951</ele>
        <time>2020-07-07T06:44:11.000Z</time>
      </trkpt>
      <trkpt lat="44.3823" lon="6.39253">
        <ele>1951</ele>
        <time>2020-07-07T06:44:12.000Z</time>
      </trkpt>
      <trkpt lat="44.38229" lon="6.39254">
        <ele>1951</ele>
        <time>2020-07-07T06:44:13.000Z</time>
      </trkpt>
      <trkpt lat="44.38228" lon="6.39254">
        <ele>1951</ele>
        <time>2020-07-07T06:44:14.000Z</time>
      </trkpt>
      <trkpt lat="44.38227" lon="6.39255">
        <ele>1951</ele>
        <time>2020-07-07T06:44:15.000Z</time>
      </trkpt>
      <trkpt lat="44.38226" lon="6.39256">
        <ele>1951</ele>
        <time>2020-07-07T06:44:16.000Z</time>
      </trkpt>
      <trkpt lat="44.38226" lon="6.39257">
        <ele>1951</ele>
        <time>2020-07-07T06:44:17.000Z</time>
      </trkpt>
      <trkpt lat="44.38225" lon="6.39258">
        <ele>1951</ele>
        <time>2020-07-07T06:44:18.000Z</time>
      </trkpt>
      <trkpt lat="44.38224" lon="6.39259">
        <ele>1951</ele>
        <time>2020-07-07T06:44:19.000Z</time>
      </trkpt>
      <trkpt lat="44.38223" lon="6.3926">
        <ele>1951</ele>
        <time>2020-07-07T06:44:20.000Z</time>
      </trkpt>
      <trkpt lat="44.38222" lon="6.39261">
        <ele>1951</ele>
        <time>2020-07-07T06:44:21.000Z</time>
      </trkpt>
      <trkpt lat="44.38221" lon="6.39263">
        <ele>1951</ele>
        <time>2020-07-07T06:44:22.000Z</time>
      </trkpt>
      <trkpt lat="44.3822" lon="6.39264">
        <ele>1951</ele>
        <time>2020-07-07T06:44:23.000Z</time>
      </trkpt>
      <trkpt lat="44.38219" lon="6.39265">
        <ele>1950</ele>
        <time>2020-07-07T06:44:24.000Z</time>
      </trkpt>
      <trkpt lat="44.38218" lon="6.39266">
        <ele>1950</ele>
        <time>2020-07-07T06:44:25.000Z</time>
      </trkpt>
      <trkpt lat="44.38217" lon="6.39267">
        <ele>1950</ele>
        <time>2020-07-07T06:44:26.000Z</time>
      </trkpt>
      <trkpt lat="44.38216" lon="6.39268">
        <ele>1950</ele>
        <time>2020-07-07T06:44:27.000Z</time>
      </trkpt>
      <trkpt lat="44.38215" lon="6.39269">
        <ele>1950</ele>
        <time>2020-07-07T06:44:28.000Z</time>
      </trkpt>
      <trkpt lat="44.38214" lon="6.3927">
        <ele>1950</ele>
        <time>2020-07-07T06:44:29.000Z</time>
      </trkpt>
      <trkpt lat="44.38214" lon="6.39271">
        <ele>1950</ele>
        <time>2020-07-07T06:44:30.000Z</time>
      </trkpt>
      <trkpt lat="44.38213" lon="6.39272">
        <ele>1950</ele>
        <time>2020-07-07T06:44:31.000Z</time>
      </trkpt>
      <trkpt lat="44.38212" lon="6.39273">
        <ele>1950</ele>
        <time>2020-07-07T06:44:32.000Z</time>
      </trkpt>
      <trkpt lat="44.38211" lon="6.39274">
        <ele>1950</ele>
        <time>2020-07-07T06:44:33.000Z</time>
      </trkpt>
      <trkpt lat="44.3821" lon="6.39275">
        <ele>1950</ele>
        <time>2020-07-07T06:44:34.000Z</time>
      </trkpt>
      <trkpt lat="44.3821" lon="6.39276">
        <ele>1950</ele>
        <time>2020-07-07T06:44:35.000Z</time>
      </trkpt>
      <trkpt lat="44.38209" lon="6.39277">
        <ele>1950</ele>
        <time>2020-07-07T06:44:36.000Z</time>
      </trkpt>
      <trkpt lat="44.38208" lon="6.39277">
        <ele>1950</ele>
        <time>2020-07-07T06:44:37.000Z</time>
      </trkpt>
      <trkpt lat="44.38207" lon="6.39278">
        <ele>1950</ele>
        <time>2020-07-07T06:44:38.000Z</time>
      </trkpt>
      <trkpt lat="44.38206" lon="6.39279">
        <ele>1950</ele>
        <time>2020-07-07T06:44:39.000Z</time>
      </trkpt>
      <trkpt lat="44.38206" lon="6.3928">
        <ele>1950</ele>
        <time>2020-07-07T06:44:40.000Z</time>
      </trkpt>
      <trkpt lat="44.38205" lon="6.3928">
        <ele>1950</ele>
        <time>2020-07-07T06:44:41.000Z</time>
      </trkpt>
      <trkpt lat="44.38204" lon="6.39281">
        <ele>1950</ele>
        <time>2020-07-07T06:44:42.000Z</time>
      </trkpt>
      <trkpt lat="44.38204" lon="6.39281">
        <ele>1950</ele>
        <time>2020-07-07T06:44:43.000Z</time>
      </trkpt>
      <trkpt lat="44.38203" lon="6.39282">
        <ele>1950</ele>
        <time>2020-07-07T06:44:44.000Z</time>
      </trkpt>
      <trkpt lat="44.38203" lon="6.39283">
        <ele>1950</ele>
        <time>2020-07-07T06:44:45.000Z</time>
      </trkpt>
      <trkpt lat="44.38202" lon="6.39283">
        <ele>1950</ele>
        <time>2020-07-07T06:44:46.000Z</time>
      </trkpt>
      <trkpt lat="44.38201" lon="6.39284">
        <ele>1950</ele>
        <time>2020-07-07T06:44:47.000Z</time>
      </trkpt>
      <trkpt lat="44.38201" lon="6.39285">
        <ele>1950</ele>
        <time>2020-07-07T06:44:48.000Z</time>
      </trkpt>
      <trkpt lat="44.382" lon="6.39287">
        <ele>1950</ele>
        <time>2020-07-07T06:44:49.000Z</time>
      </trkpt>
      <trkpt lat="44.38199" lon="6.39289">
        <ele>1950</ele>
        <time>2020-07-07T06:44:50.000Z</time>
      </trkpt>
      <trkpt lat="44.38199" lon="6.3929">
        <ele>1950</ele>
        <time>2020-07-07T06:44:51.000Z</time>
      </trkpt>
      <trkpt lat="44.38198" lon="6.39291">
        <ele>1950</ele>
        <time>2020-07-07T06:44:52.000Z</time>
      </trkpt>
      <trkpt lat="44.38197" lon="6.39292">
        <ele>1950</ele>
        <time>2020-07-07T06:44:53.000Z</time>
      </trkpt>
      <trkpt lat="44.38196" lon="6.39293">
        <ele>1951</ele>
        <time>2020-07-07T06:44:54.000Z</time>
      </trkpt>
      <trkpt lat="44.38195" lon="6.39294">
        <ele>1951</ele>
        <time>2020-07-07T06:44:55.000Z</time>
      </trkpt>
      <trkpt lat="44.38195" lon="6.39295">
        <ele>1951</ele>
        <time>2020-07-07T06:44:56.000Z</time>
      </trkpt>
      <trkpt lat="44.38194" lon="6.39296">
        <ele>1951</ele>
        <time>2020-07-07T06:44:57.000Z</time>
      </trkpt>
      <trkpt lat="44.38194" lon="6.39298">
        <ele>1951</ele>
        <time>2020-07-07T06:44:58.000Z</time>
      </trkpt>
      <trkpt lat="44.38193" lon="6.39299">
        <ele>1951</ele>
        <time>2020-07-07T06:44:59.000Z</time>
      </trkpt>
      <trkpt lat="44.38193" lon="6.393">
        <ele>1951</ele>
        <time>2020-07-07T06:45:00.000Z</time>
      </trkpt>
      <trkpt lat="44.38192" lon="6.39301">
        <ele>1950</ele>
        <time>2020-07-07T06:45:01.000Z</time>
      </trkpt>
      <trkpt lat="44.38192" lon="6.39303">
        <ele>1950</ele>
        <time>2020-07-07T06:45:02.000Z</time>
      </trkpt>
      <trkpt lat="44.38191" lon="6.39304">
        <ele>1950</ele>
        <time>2020-07-07T06:45:03.000Z</time>
      </trkpt>
      <trkpt lat="44.38191" lon="6.39305">
        <ele>1950</ele>
        <time>2020-07-07T06:45:04.000Z</time>
      </trkpt>
      <trkpt lat="44.38191" lon="6.39306">
        <ele>1950</ele>
        <time>2020-07-07T06:45:05.000Z</time>
      </trkpt>
      <trkpt lat="44.3819" lon="6.39307">
        <ele>1950</ele>
        <time>2020-07-07T06:45:06.000Z</time>
      </trkpt>
      <trkpt lat="44.3819" lon="6.39309">
        <ele>1950</ele>
        <time>2020-07-07T06:45:07.000Z</time>
      </trkpt>
      <trkpt lat="44.3819" lon="6.3931">
        <ele>1950</ele>
        <time>2020-07-07T06:45:08.000Z</time>
      </trkpt>
      <trkpt lat="44.3819" lon="6.39311">
        <ele>1950</ele>
        <time>2020-07-07T06:45:09.000Z</time>
      </trkpt>
      <trkpt lat="44.38189" lon="6.39313">
        <ele>1950</ele>
        <time>2020-07-07T06:45:10.000Z</time>
      </trkpt>
      <trkpt lat="44.38189" lon="6.39313">
        <ele>1950</ele>
        <time>2020-07-07T06:45:11.000Z</time>
      </trkpt>
      <trkpt lat="44.38189" lon="6.39314">
        <ele>1950</ele>
        <time>2020-07-07T06:45:12.000Z</time>
      </trkpt>
      <trkpt lat="44.38188" lon="6.39315">
        <ele>1950</ele>
        <time>2020-07-07T06:45:13.000Z</time>
      </trkpt>
      <trkpt lat="44.38188" lon="6.39317">
        <ele>1950</ele>
        <time>2020-07-07T06:45:14.000Z</time>
      </trkpt>
      <trkpt lat="44.38187" lon="6.39318">
        <ele>1950</ele>
        <time>2020-07-07T06:45:15.000Z</time>
      </trkpt>
      <trkpt lat="44.38187" lon="6.39319">
        <ele>1950</ele>
        <time>2020-07-07T06:45:16.000Z</time>
      </trkpt>
      <trkpt lat="44.38186" lon="6.3932">
        <ele>1951</ele>
        <time>2020-07-07T06:45:17.000Z</time>
      </trkpt>
      <trkpt lat="44.38185" lon="6.39322">
        <ele>1951</ele>
        <time>2020-07-07T06:45:18.000Z</time>
      </trkpt>
      <trkpt lat="44.38185" lon="6.39323">
        <ele>1951</ele>
        <time>2020-07-07T06:45:19.000Z</time>
      </trkpt>
      <trkpt lat="44.38184" lon="6.39324">
        <ele>1951</ele>
        <time>2020-07-07T06:45:20.000Z</time>
      </trkpt>
      <trkpt lat="44.38183" lon="6.39325">
        <ele>1951</ele>
        <time>2020-07-07T06:45:21.000Z</time>
      </trkpt>
      <trkpt lat="44.38182" lon="6.39326">
        <ele>1951</ele>
        <time>2020-07-07T06:45:22.000Z</time>
      </trkpt>
      <trkpt lat="44.38182" lon="6.39327">
        <ele>1952</ele>
        <time>2020-07-07T06:45:23.000Z</time>
      </trkpt>
      <trkpt lat="44.38181" lon="6.39329">
        <ele>1952</ele>
        <time>2020-07-07T06:45:24.000Z</time>
      </trkpt>
      <trkpt lat="44.3818" lon="6.3933">
        <ele>1952</ele>
        <time>2020-07-07T06:45:25.000Z</time>
      </trkpt>
      <trkpt lat="44.38179" lon="6.39331">
        <ele>1952</ele>
        <time>2020-07-07T06:45:26.000Z</time>
      </trkpt>
      <trkpt lat="44.38178" lon="6.39332">
        <ele>1952</ele>
        <time>2020-07-07T06:45:27.000Z</time>
      </trkpt>
      <trkpt lat="44.38177" lon="6.39333">
        <ele>1952</ele>
        <time>2020-07-07T06:45:28.000Z</time>
      </trkpt>
      <trkpt lat="44.38176" lon="6.39334">
        <ele>1952</ele>
        <time>2020-07-07T06:45:29.000Z</time>
      </trkpt>
      <trkpt lat="44.38176" lon="6.39336">
        <ele>1952</ele>
        <time>2020-07-07T06:45:30.000Z</time>
      </trkpt>
      <trkpt lat="44.38175" lon="6.39337">
        <ele>1952</ele>
        <time>2020-07-07T06:45:31.000Z</time>
      </trkpt>
      <trkpt lat="44.38174" lon="6.39338">
        <ele>1952</ele>
        <time>2020-07-07T06:45:32.000Z</time>
      </trkpt>
      <trkpt lat="44.38174" lon="6.39339">
        <ele>1952</ele>
        <time>2020-07-07T06:45:33.000Z</time>
      </trkpt>
      <trkpt lat="44.38173" lon="6.39341">
        <ele>1952</ele>
        <time>2020-07-07T06:45:34.000Z</time>
      </trkpt>
      <trkpt lat="44.38172" lon="6.39342">
        <ele>1952</ele>
        <time>2020-07-07T06:45:35.000Z</time>
      </trkpt>
      <trkpt lat="44.38171" lon="6.39343">
        <ele>1953</ele>
        <time>2020-07-07T06:45:36.000Z</time>
      </trkpt>
      <trkpt lat="44.38171" lon="6.39344">
        <ele>1953</ele>
        <time>2020-07-07T06:45:37.000Z</time>
      </trkpt>
      <trkpt lat="44.3817" lon="6.39346">
        <ele>1953</ele>
        <time>2020-07-07T06:45:38.000Z</time>
      </trkpt>
      <trkpt lat="44.38169" lon="6.39347">
        <ele>1953</ele>
        <time>2020-07-07T06:45:39.000Z</time>
      </trkpt>
      <trkpt lat="44.38168" lon="6.39348">
        <ele>1953</ele>
        <time>2020-07-07T06:45:40.000Z</time>
      </trkpt>
      <trkpt lat="44.38168" lon="6.3935">
        <ele>1953</ele>
        <time>2020-07-07T06:45:41.000Z</time>
      </trkpt>
      <trkpt lat="44.38167" lon="6.39351">
        <ele>1953</ele>
        <time>2020-07-07T06:45:42.000Z</time>
      </trkpt>
      <trkpt lat="44.38166" lon="6.39352">
        <ele>1953</ele>
        <time>2020-07-07T06:45:43.000Z</time>
      </trkpt>
      <trkpt lat="44.38166" lon="6.39354">
        <ele>1953</ele>
        <time>2020-07-07T06:45:44.000Z</time>
      </trkpt>
      <trkpt lat="44.38165" lon="6.39355">
        <ele>1953</ele>
        <time>2020-07-07T06:45:45.000Z</time>
      </trkpt>
      <trkpt lat="44.38164" lon="6.39357">
        <ele>1953</ele>
        <time>2020-07-07T06:45:46.000Z</time>
      </trkpt>
      <trkpt lat="44.38164" lon="6.39358">
        <ele>1953</ele>
        <time>2020-07-07T06:45:47.000Z</time>
      </trkpt>
      <trkpt lat="44.38163" lon="6.39359">
        <ele>1953</ele>
        <time>2020-07-07T06:45:48.000Z</time>
      </trkpt>
      <trkpt lat="44.38162" lon="6.3936">
        <ele>1953</ele>
        <time>2020-07-07T06:45:49.000Z</time>
      </trkpt>
      <trkpt lat="44.38162" lon="6.39362">
        <ele>1954</ele>
        <time>2020-07-07T06:45:50.000Z</time>
      </trkpt>
      <trkpt lat="44.38161" lon="6.39363">
        <ele>1954</ele>
        <time>2020-07-07T06:45:51.000Z</time>
      </trkpt>
      <trkpt lat="44.3816" lon="6.39364">
        <ele>1954</ele>
        <time>2020-07-07T06:45:52.000Z</time>
      </trkpt>
      <trkpt lat="44.3816" lon="6.39365">
        <ele>1954</ele>
        <time>2020-07-07T06:45:53.000Z</time>
      </trkpt>
      <trkpt lat="44.38159" lon="6.39366">
        <ele>1954</ele>
        <time>2020-07-07T06:45:54.000Z</time>
      </trkpt>
      <trkpt lat="44.38158" lon="6.39367">
        <ele>1954</ele>
        <time>2020-07-07T06:45:55.000Z</time>
      </trkpt>
      <trkpt lat="44.38157" lon="6.39368">
        <ele>1954</ele>
        <time>2020-07-07T06:45:56.000Z</time>
      </trkpt>
      <trkpt lat="44.38157" lon="6.3937">
        <ele>1954</ele>
        <time>2020-07-07T06:45:57.000Z</time>
      </trkpt>
      <trkpt lat="44.38156" lon="6.39371">
        <ele>1955</ele>
        <time>2020-07-07T06:45:58.000Z</time>
      </trkpt>
      <trkpt lat="44.38155" lon="6.39371">
        <ele>1955</ele>
        <time>2020-07-07T06:45:59.000Z</time>
      </trkpt>
      <trkpt lat="44.38155" lon="6.39372">
        <ele>1955</ele>
        <time>2020-07-07T06:46:00.000Z</time>
      </trkpt>
      <trkpt lat="44.38154" lon="6.39373">
        <ele>1955</ele>
        <time>2020-07-07T06:46:01.000Z</time>
      </trkpt>
      <trkpt lat="44.38154" lon="6.39374">
        <ele>1955</ele>
        <time>2020-07-07T06:46:02.000Z</time>
      </trkpt>
      <trkpt lat="44.38153" lon="6.39375">
        <ele>1956</ele>
        <time>2020-07-07T06:46:03.000Z</time>
      </trkpt>
      <trkpt lat="44.38152" lon="6.39376">
        <ele>1956</ele>
        <time>2020-07-07T06:46:04.000Z</time>
      </trkpt>
      <trkpt lat="44.38152" lon="6.39377">
        <ele>1956</ele>
        <time>2020-07-07T06:46:05.000Z</time>
      </trkpt>
      <trkpt lat="44.38151" lon="6.39378">
        <ele>1956</ele>
        <time>2020-07-07T06:46:06.000Z</time>
      </trkpt>
      <trkpt lat="44.3815" lon="6.39378">
        <ele>1956</ele>
        <time>2020-07-07T06:46:07.000Z</time>
      </trkpt>
      <trkpt lat="44.3815" lon="6.39379">
        <ele>1956</ele>
        <time>2020-07-07T06:46:08.000Z</time>
      </trkpt>
      <trkpt lat="44.38149" lon="6.3938">
        <ele>1957</ele>
        <time>2020-07-07T06:46:09.000Z</time>
      </trkpt>
      <trkpt lat="44.38148" lon="6.3938">
        <ele>1957</ele>
        <time>2020-07-07T06:46:10.000Z</time>
      </trkpt>
      <trkpt lat="44.38147" lon="6.39382">
        <ele>1957</ele>
        <time>2020-07-07T06:46:11.000Z</time>
      </trkpt>
      <trkpt lat="44.38146" lon="6.39383">
        <ele>1957</ele>
        <time>2020-07-07T06:46:12.000Z</time>
      </trkpt>
      <trkpt lat="44.38145" lon="6.39384">
        <ele>1957</ele>
        <time>2020-07-07T06:46:13.000Z</time>
      </trkpt>
      <trkpt lat="44.38145" lon="6.39385">
        <ele>1957</ele>
        <time>2020-07-07T06:46:14.000Z</time>
      </trkpt>
      <trkpt lat="44.38144" lon="6.39386">
        <ele>1957</ele>
        <time>2020-07-07T06:46:15.000Z</time>
      </trkpt>
      <trkpt lat="44.38143" lon="6.39387">
        <ele>1958</ele>
        <time>2020-07-07T06:46:16.000Z</time>
      </trkpt>
      <trkpt lat="44.38142" lon="6.39388">
        <ele>1958</ele>
        <time>2020-07-07T06:46:17.000Z</time>
      </trkpt>
      <trkpt lat="44.38142" lon="6.39389">
        <ele>1958</ele>
        <time>2020-07-07T06:46:18.000Z</time>
      </trkpt>
      <trkpt lat="44.38141" lon="6.39389">
        <ele>1958</ele>
        <time>2020-07-07T06:46:19.000Z</time>
      </trkpt>
      <trkpt lat="44.38141" lon="6.3939">
        <ele>1958</ele>
        <time>2020-07-07T06:46:20.000Z</time>
      </trkpt>
      <trkpt lat="44.3814" lon="6.39391">
        <ele>1958</ele>
        <time>2020-07-07T06:46:21.000Z</time>
      </trkpt>
      <trkpt lat="44.38139" lon="6.39392">
        <ele>1958</ele>
        <time>2020-07-07T06:46:22.000Z</time>
      </trkpt>
      <trkpt lat="44.38139" lon="6.39393">
        <ele>1958</ele>
        <time>2020-07-07T06:46:23.000Z</time>
      </trkpt>
      <trkpt lat="44.38138" lon="6.39394">
        <ele>1959</ele>
        <time>2020-07-07T06:46:24.000Z</time>
      </trkpt>
      <trkpt lat="44.38137" lon="6.39395">
        <ele>1959</ele>
        <time>2020-07-07T06:46:25.000Z</time>
      </trkpt>
      <trkpt lat="44.38137" lon="6.39396">
        <ele>1959</ele>
        <time>2020-07-07T06:46:26.000Z</time>
      </trkpt>
      <trkpt lat="44.38136" lon="6.39397">
        <ele>1959</ele>
        <time>2020-07-07T06:46:27.000Z</time>
      </trkpt>
      <trkpt lat="44.38135" lon="6.39398">
        <ele>1959</ele>
        <time>2020-07-07T06:46:28.000Z</time>
      </trkpt>
      <trkpt lat="44.38134" lon="6.39399">
        <ele>1959</ele>
        <time>2020-07-07T06:46:29.000Z</time>
      </trkpt>
      <trkpt lat="44.38133" lon="6.394">
        <ele>1959</ele>
        <time>2020-07-07T06:46:30.000Z</time>
      </trkpt>
      <trkpt lat="44.38133" lon="6.39401">
        <ele>1960</ele>
        <time>2020-07-07T06:46:31.000Z</time>
      </trkpt>
      <trkpt lat="44.38132" lon="6.39402">
        <ele>1960</ele>
        <time>2020-07-07T06:46:32.000Z</time>
      </trkpt>
      <trkpt lat="44.38132" lon="6.39402">
        <ele>1960</ele>
        <time>2020-07-07T06:46:33.000Z</time>
      </trkpt>
      <trkpt lat="44.38132" lon="6.39402">
        <ele>1960</ele>
        <time>2020-07-07T06:46:34.000Z</time>
      </trkpt>
      <trkpt lat="44.38132" lon="6.39403">
        <ele>1960</ele>
        <time>2020-07-07T06:46:35.000Z</time>
      </trkpt>
      <trkpt lat="44.38132" lon="6.39403">
        <ele>1960</ele>
        <time>2020-07-07T06:46:36.000Z</time>
      </trkpt>
      <trkpt lat="44.38131" lon="6.39404">
        <ele>1960</ele>
        <time>2020-07-07T06:46:37.000Z</time>
      </trkpt>
      <trkpt lat="44.3813" lon="6.39405">
        <ele>1960</ele>
        <time>2020-07-07T06:46:38.000Z</time>
      </trkpt>
      <trkpt lat="44.3813" lon="6.39406">
        <ele>1960</ele>
        <time>2020-07-07T06:46:39.000Z</time>
      </trkpt>
      <trkpt lat="44.38129" lon="6.39407">
        <ele>1961</ele>
        <time>2020-07-07T06:46:40.000Z</time>
      </trkpt>
      <trkpt lat="44.38129" lon="6.39408">
        <ele>1961</ele>
        <time>2020-07-07T06:46:41.000Z</time>
      </trkpt>
      <trkpt lat="44.38128" lon="6.3941">
        <ele>1961</ele>
        <time>2020-07-07T06:46:42.000Z</time>
      </trkpt>
      <trkpt lat="44.38127" lon="6.39411">
        <ele>1961</ele>
        <time>2020-07-07T06:46:43.000Z</time>
      </trkpt>
      <trkpt lat="44.38126" lon="6.39412">
        <ele>1961</ele>
        <time>2020-07-07T06:46:44.000Z</time>
      </trkpt>
      <trkpt lat="44.38126" lon="6.39413">
        <ele>1961</ele>
        <time>2020-07-07T06:46:45.000Z</time>
      </trkpt>
      <trkpt lat="44.38125" lon="6.39414">
        <ele>1961</ele>
        <time>2020-07-07T06:46:46.000Z</time>
      </trkpt>
      <trkpt lat="44.38124" lon="6.39416">
        <ele>1961</ele>
        <time>2020-07-07T06:46:47.000Z</time>
      </trkpt>
      <trkpt lat="44.38124" lon="6.39417">
        <ele>1961</ele>
        <time>2020-07-07T06:46:48.000Z</time>
      </trkpt>
      <trkpt lat="44.38123" lon="6.39418">
        <ele>1962</ele>
        <time>2020-07-07T06:46:49.000Z</time>
      </trkpt>
      <trkpt lat="44.38122" lon="6.39419">
        <ele>1962</ele>
        <time>2020-07-07T06:46:50.000Z</time>
      </trkpt>
      <trkpt lat="44.38122" lon="6.3942">
        <ele>1962</ele>
        <time>2020-07-07T06:46:51.000Z</time>
      </trkpt>
      <trkpt lat="44.38121" lon="6.39421">
        <ele>1962</ele>
        <time>2020-07-07T06:46:52.000Z</time>
      </trkpt>
      <trkpt lat="44.3812" lon="6.39422">
        <ele>1962</ele>
        <time>2020-07-07T06:46:53.000Z</time>
      </trkpt>
      <trkpt lat="44.38119" lon="6.39423">
        <ele>1962</ele>
        <time>2020-07-07T06:46:54.000Z</time>
      </trkpt>
      <trkpt lat="44.38118" lon="6.39424">
        <ele>1962</ele>
        <time>2020-07-07T06:46:55.000Z</time>
      </trkpt>
      <trkpt lat="44.38117" lon="6.39425">
        <ele>1962</ele>
        <time>2020-07-07T06:46:56.000Z</time>
      </trkpt>
      <trkpt lat="44.38116" lon="6.39426">
        <ele>1963</ele>
        <time>2020-07-07T06:46:57.000Z</time>
      </trkpt>
      <trkpt lat="44.38116" lon="6.39428">
        <ele>1963</ele>
        <time>2020-07-07T06:46:58.000Z</time>
      </trkpt>
      <trkpt lat="44.38115" lon="6.39429">
        <ele>1963</ele>
        <time>2020-07-07T06:46:59.000Z</time>
      </trkpt>
      <trkpt lat="44.38115" lon="6.3943">
        <ele>1963</ele>
        <time>2020-07-07T06:47:00.000Z</time>
      </trkpt>
      <trkpt lat="44.38114" lon="6.39431">
        <ele>1963</ele>
        <time>2020-07-07T06:47:01.000Z</time>
      </trkpt>
      <trkpt lat="44.38113" lon="6.39432">
        <ele>1963</ele>
        <time>2020-07-07T06:47:02.000Z</time>
      </trkpt>
      <trkpt lat="44.38112" lon="6.39433">
        <ele>1963</ele>
        <time>2020-07-07T06:47:03.000Z</time>
      </trkpt>
      <trkpt lat="44.38112" lon="6.39435">
        <ele>1963</ele>
        <time>2020-07-07T06:47:04.000Z</time>
      </trkpt>
      <trkpt lat="44.38111" lon="6.39436">
        <ele>1963</ele>
        <time>2020-07-07T06:47:05.000Z</time>
      </trkpt>
      <trkpt lat="44.38111" lon="6.39437">
        <ele>1963</ele>
        <time>2020-07-07T06:47:06.000Z</time>
      </trkpt>
      <trkpt lat="44.3811" lon="6.39438">
        <ele>1963</ele>
        <time>2020-07-07T06:47:07.000Z</time>
      </trkpt>
      <trkpt lat="44.3811" lon="6.3944">
        <ele>1963</ele>
        <time>2020-07-07T06:47:08.000Z</time>
      </trkpt>
      <trkpt lat="44.38109" lon="6.39441">
        <ele>1963</ele>
        <time>2020-07-07T06:47:09.000Z</time>
      </trkpt>
      <trkpt lat="44.38109" lon="6.39443">
        <ele>1963</ele>
        <time>2020-07-07T06:47:10.000Z</time>
      </trkpt>
      <trkpt lat="44.38108" lon="6.39444">
        <ele>1963</ele>
        <time>2020-07-07T06:47:11.000Z</time>
      </trkpt>
      <trkpt lat="44.38107" lon="6.39446">
        <ele>1963</ele>
        <time>2020-07-07T06:47:12.000Z</time>
      </trkpt>
      <trkpt lat="44.38107" lon="6.39447">
        <ele>1963</ele>
        <time>2020-07-07T06:47:13.000Z</time>
      </trkpt>
      <trkpt lat="44.38106" lon="6.39448">
        <ele>1963</ele>
        <time>2020-07-07T06:47:14.000Z</time>
      </trkpt>
      <trkpt lat="44.38106" lon="6.3945">
        <ele>1963</ele>
        <time>2020-07-07T06:47:15.000Z</time>
      </trkpt>
      <trkpt lat="44.38105" lon="6.39451">
        <ele>1963</ele>
        <time>2020-07-07T06:47:16.000Z</time>
      </trkpt>
      <trkpt lat="44.38105" lon="6.39453">
        <ele>1962</ele>
        <time>2020-07-07T06:47:17.000Z</time>
      </trkpt>
      <trkpt lat="44.38104" lon="6.39454">
        <ele>1962</ele>
        <time>2020-07-07T06:47:18.000Z</time>
      </trkpt>
      <trkpt lat="44.38103" lon="6.39456">
        <ele>1962</ele>
        <time>2020-07-07T06:47:19.000Z</time>
      </trkpt>
      <trkpt lat="44.38103" lon="6.39457">
        <ele>1962</ele>
        <time>2020-07-07T06:47:20.000Z</time>
      </trkpt>
      <trkpt lat="44.38102" lon="6.39459">
        <ele>1962</ele>
        <time>2020-07-07T06:47:21.000Z</time>
      </trkpt>
      <trkpt lat="44.38101" lon="6.3946">
        <ele>1962</ele>
        <time>2020-07-07T06:47:22.000Z</time>
      </trkpt>
      <trkpt lat="44.38101" lon="6.39461">
        <ele>1963</ele>
        <time>2020-07-07T06:47:23.000Z</time>
      </trkpt>
      <trkpt lat="44.381" lon="6.39462">
        <ele>1963</ele>
        <time>2020-07-07T06:47:24.000Z</time>
      </trkpt>
      <trkpt lat="44.38099" lon="6.39464">
        <ele>1963</ele>
        <time>2020-07-07T06:47:25.000Z</time>
      </trkpt>
      <trkpt lat="44.38099" lon="6.39465">
        <ele>1963</ele>
        <time>2020-07-07T06:47:26.000Z</time>
      </trkpt>
      <trkpt lat="44.38098" lon="6.39466">
        <ele>1963</ele>
        <time>2020-07-07T06:47:27.000Z</time>
      </trkpt>
      <trkpt lat="44.38097" lon="6.39467">
        <ele>1963</ele>
        <time>2020-07-07T06:47:28.000Z</time>
      </trkpt>
      <trkpt lat="44.38097" lon="6.39468">
        <ele>1963</ele>
        <time>2020-07-07T06:47:29.000Z</time>
      </trkpt>
      <trkpt lat="44.38096" lon="6.39469">
        <ele>1963</ele>
        <time>2020-07-07T06:47:30.000Z</time>
      </trkpt>
      <trkpt lat="44.38095" lon="6.3947">
        <ele>1963</ele>
        <time>2020-07-07T06:47:31.000Z</time>
      </trkpt>
      <trkpt lat="44.38095" lon="6.39471">
        <ele>1963</ele>
        <time>2020-07-07T06:47:32.000Z</time>
      </trkpt>
      <trkpt lat="44.38094" lon="6.39472">
        <ele>1964</ele>
        <time>2020-07-07T06:47:33.000Z</time>
      </trkpt>
      <trkpt lat="44.38093" lon="6.39474">
        <ele>1964</ele>
        <time>2020-07-07T06:47:34.000Z</time>
      </trkpt>
      <trkpt lat="44.38092" lon="6.39475">
        <ele>1964</ele>
        <time>2020-07-07T06:47:35.000Z</time>
      </trkpt>
      <trkpt lat="44.38092" lon="6.39476">
        <ele>1964</ele>
        <time>2020-07-07T06:47:36.000Z</time>
      </trkpt>
      <trkpt lat="44.38091" lon="6.39477">
        <ele>1964</ele>
        <time>2020-07-07T06:47:37.000Z</time>
      </trkpt>
      <trkpt lat="44.3809" lon="6.39478">
        <ele>1964</ele>
        <time>2020-07-07T06:47:38.000Z</time>
      </trkpt>
      <trkpt lat="44.3809" lon="6.39479">
        <ele>1964</ele>
        <time>2020-07-07T06:47:39.000Z</time>
      </trkpt>
      <trkpt lat="44.38089" lon="6.3948">
        <ele>1964</ele>
        <time>2020-07-07T06:47:40.000Z</time>
      </trkpt>
      <trkpt lat="44.38088" lon="6.39481">
        <ele>1964</ele>
        <time>2020-07-07T06:47:41.000Z</time>
      </trkpt>
      <trkpt lat="44.38087" lon="6.39482">
        <ele>1964</ele>
        <time>2020-07-07T06:47:42.000Z</time>
      </trkpt>
      <trkpt lat="44.38087" lon="6.39483">
        <ele>1964</ele>
        <time>2020-07-07T06:47:43.000Z</time>
      </trkpt>
      <trkpt lat="44.38086" lon="6.39484">
        <ele>1965</ele>
        <time>2020-07-07T06:47:44.000Z</time>
      </trkpt>
      <trkpt lat="44.38085" lon="6.39484">
        <ele>1965</ele>
        <time>2020-07-07T06:47:45.000Z</time>
      </trkpt>
      <trkpt lat="44.38084" lon="6.39486">
        <ele>1965</ele>
        <time>2020-07-07T06:47:46.000Z</time>
      </trkpt>
      <trkpt lat="44.38084" lon="6.39487">
        <ele>1965</ele>
        <time>2020-07-07T06:47:47.000Z</time>
      </trkpt>
      <trkpt lat="44.38083" lon="6.39488">
        <ele>1965</ele>
        <time>2020-07-07T06:47:48.000Z</time>
      </trkpt>
      <trkpt lat="44.38082" lon="6.39489">
        <ele>1965</ele>
        <time>2020-07-07T06:47:49.000Z</time>
      </trkpt>
      <trkpt lat="44.38081" lon="6.3949">
        <ele>1965</ele>
        <time>2020-07-07T06:47:50.000Z</time>
      </trkpt>
      <trkpt lat="44.3808" lon="6.39491">
        <ele>1965</ele>
        <time>2020-07-07T06:47:51.000Z</time>
      </trkpt>
      <trkpt lat="44.3808" lon="6.39491">
        <ele>1965</ele>
        <time>2020-07-07T06:47:52.000Z</time>
      </trkpt>
      <trkpt lat="44.38079" lon="6.39492">
        <ele>1965</ele>
        <time>2020-07-07T06:47:53.000Z</time>
      </trkpt>
      <trkpt lat="44.38078" lon="6.39493">
        <ele>1965</ele>
        <time>2020-07-07T06:47:54.000Z</time>
      </trkpt>
      <trkpt lat="44.38078" lon="6.39494">
        <ele>1965</ele>
        <time>2020-07-07T06:47:55.000Z</time>
      </trkpt>
      <trkpt lat="44.38077" lon="6.39495">
        <ele>1966</ele>
        <time>2020-07-07T06:47:56.000Z</time>
      </trkpt>
      <trkpt lat="44.38076" lon="6.39496">
        <ele>1966</ele>
        <time>2020-07-07T06:47:57.000Z</time>
      </trkpt>
      <trkpt lat="44.38075" lon="6.39497">
        <ele>1966</ele>
        <time>2020-07-07T06:47:58.000Z</time>
      </trkpt>
      <trkpt lat="44.38074" lon="6.39498">
        <ele>1966</ele>
        <time>2020-07-07T06:47:59.000Z</time>
      </trkpt>
      <trkpt lat="44.38074" lon="6.39498">
        <ele>1966</ele>
        <time>2020-07-07T06:48:00.000Z</time>
      </trkpt>
      <trkpt lat="44.38073" lon="6.39499">
        <ele>1966</ele>
        <time>2020-07-07T06:48:01.000Z</time>
      </trkpt>
      <trkpt lat="44.38072" lon="6.395">
        <ele>1966</ele>
        <time>2020-07-07T06:48:02.000Z</time>
      </trkpt>
      <trkpt lat="44.38071" lon="6.39501">
        <ele>1966</ele>
        <time>2020-07-07T06:48:03.000Z</time>
      </trkpt>
      <trkpt lat="44.3807" lon="6.39502">
        <ele>1966</ele>
        <time>2020-07-07T06:48:04.000Z</time>
      </trkpt>
      <trkpt lat="44.3807" lon="6.39503">
        <ele>1967</ele>
        <time>2020-07-07T06:48:05.000Z</time>
      </trkpt>
      <trkpt lat="44.38069" lon="6.39503">
        <ele>1967</ele>
        <time>2020-07-07T06:48:06.000Z</time>
      </trkpt>
      <trkpt lat="44.38068" lon="6.39504">
        <ele>1967</ele>
        <time>2020-07-07T06:48:07.000Z</time>
      </trkpt>
      <trkpt lat="44.38067" lon="6.39505">
        <ele>1967</ele>
        <time>2020-07-07T06:48:08.000Z</time>
      </trkpt>
      <trkpt lat="44.38066" lon="6.39506">
        <ele>1967</ele>
        <time>2020-07-07T06:48:09.000Z</time>
      </trkpt>
      <trkpt lat="44.38065" lon="6.39506">
        <ele>1967</ele>
        <time>2020-07-07T06:48:10.000Z</time>
      </trkpt>
      <trkpt lat="44.38064" lon="6.39507">
        <ele>1967</ele>
        <time>2020-07-07T06:48:11.000Z</time>
      </trkpt>
      <trkpt lat="44.38063" lon="6.39508">
        <ele>1967</ele>
        <time>2020-07-07T06:48:12.000Z</time>
      </trkpt>
      <trkpt lat="44.38062" lon="6.39509">
        <ele>1967</ele>
        <time>2020-07-07T06:48:13.000Z</time>
      </trkpt>
      <trkpt lat="44.38061" lon="6.3951">
        <ele>1967</ele>
        <time>2020-07-07T06:48:14.000Z</time>
      </trkpt>
      <trkpt lat="44.3806" lon="6.3951">
        <ele>1968</ele>
        <time>2020-07-07T06:48:15.000Z</time>
      </trkpt>
      <trkpt lat="44.38059" lon="6.39511">
        <ele>1968</ele>
        <time>2020-07-07T06:48:16.000Z</time>
      </trkpt>
      <trkpt lat="44.38058" lon="6.39512">
        <ele>1968</ele>
        <time>2020-07-07T06:48:17.000Z</time>
      </trkpt>
      <trkpt lat="44.38058" lon="6.39512">
        <ele>1968</ele>
        <time>2020-07-07T06:48:18.000Z</time>
      </trkpt>
      <trkpt lat="44.38057" lon="6.39513">
        <ele>1968</ele>
        <time>2020-07-07T06:48:19.000Z</time>
      </trkpt>
      <trkpt lat="44.38056" lon="6.39514">
        <ele>1968</ele>
        <time>2020-07-07T06:48:20.000Z</time>
      </trkpt>
      <trkpt lat="44.38055" lon="6.39515">
        <ele>1968</ele>
        <time>2020-07-07T06:48:21.000Z</time>
      </trkpt>
      <trkpt lat="44.38054" lon="6.39516">
        <ele>1968</ele>
        <time>2020-07-07T06:48:22.000Z</time>
      </trkpt>
      <trkpt lat="44.38053" lon="6.39516">
        <ele>1968</ele>
        <time>2020-07-07T06:48:23.000Z</time>
      </trkpt>
      <trkpt lat="44.38052" lon="6.39517">
        <ele>1968</ele>
        <time>2020-07-07T06:48:24.000Z</time>
      </trkpt>
      <trkpt lat="44.38051" lon="6.39518">
        <ele>1968</ele>
        <time>2020-07-07T06:48:25.000Z</time>
      </trkpt>
      <trkpt lat="44.38051" lon="6.39519">
        <ele>1968</ele>
        <time>2020-07-07T06:48:26.000Z</time>
      </trkpt>
      <trkpt lat="44.3805" lon="6.39519">
        <ele>1968</ele>
        <time>2020-07-07T06:48:27.000Z</time>
      </trkpt>
      <trkpt lat="44.38049" lon="6.3952">
        <ele>1968</ele>
        <time>2020-07-07T06:48:28.000Z</time>
      </trkpt>
      <trkpt lat="44.38048" lon="6.3952">
        <ele>1968</ele>
        <time>2020-07-07T06:48:29.000Z</time>
      </trkpt>
      <trkpt lat="44.38047" lon="6.3952">
        <ele>1968</ele>
        <time>2020-07-07T06:48:30.000Z</time>
      </trkpt>
      <trkpt lat="44.38046" lon="6.39521">
        <ele>1968</ele>
        <time>2020-07-07T06:48:31.000Z</time>
      </trkpt>
      <trkpt lat="44.38045" lon="6.39521">
        <ele>1969</ele>
        <time>2020-07-07T06:48:32.000Z</time>
      </trkpt>
      <trkpt lat="44.38044" lon="6.39522">
        <ele>1969</ele>
        <time>2020-07-07T06:48:33.000Z</time>
      </trkpt>
      <trkpt lat="44.38043" lon="6.39523">
        <ele>1969</ele>
        <time>2020-07-07T06:48:34.000Z</time>
      </trkpt>
      <trkpt lat="44.38042" lon="6.39523">
        <ele>1969</ele>
        <time>2020-07-07T06:48:35.000Z</time>
      </trkpt>
      <trkpt lat="44.38042" lon="6.39524">
        <ele>1969</ele>
        <time>2020-07-07T06:48:36.000Z</time>
      </trkpt>
      <trkpt lat="44.38041" lon="6.39524">
        <ele>1969</ele>
        <time>2020-07-07T06:48:37.000Z</time>
      </trkpt>
      <trkpt lat="44.3804" lon="6.39525">
        <ele>1969</ele>
        <time>2020-07-07T06:48:38.000Z</time>
      </trkpt>
      <trkpt lat="44.38039" lon="6.39525">
        <ele>1970</ele>
        <time>2020-07-07T06:48:39.000Z</time>
      </trkpt>
      <trkpt lat="44.38038" lon="6.39526">
        <ele>1970</ele>
        <time>2020-07-07T06:48:40.000Z</time>
      </trkpt>
      <trkpt lat="44.38037" lon="6.39526">
        <ele>1970</ele>
        <time>2020-07-07T06:48:41.000Z</time>
      </trkpt>
      <trkpt lat="44.38035" lon="6.39527">
        <ele>1970</ele>
        <time>2020-07-07T06:48:42.000Z</time>
      </trkpt>
      <trkpt lat="44.38034" lon="6.39527">
        <ele>1970</ele>
        <time>2020-07-07T06:48:43.000Z</time>
      </trkpt>
      <trkpt lat="44.38033" lon="6.39528">
        <ele>1970</ele>
        <time>2020-07-07T06:48:44.000Z</time>
      </trkpt>
      <trkpt lat="44.38032" lon="6.39529">
        <ele>1970</ele>
        <time>2020-07-07T06:48:45.000Z</time>
      </trkpt>
      <trkpt lat="44.38031" lon="6.39529">
        <ele>1970</ele>
        <time>2020-07-07T06:48:46.000Z</time>
      </trkpt>
      <trkpt lat="44.3803" lon="6.3953">
        <ele>1970</ele>
        <time>2020-07-07T06:48:47.000Z</time>
      </trkpt>
      <trkpt lat="44.38029" lon="6.3953">
        <ele>1970</ele>
        <time>2020-07-07T06:48:48.000Z</time>
      </trkpt>
      <trkpt lat="44.38028" lon="6.39531">
        <ele>1970</ele>
        <time>2020-07-07T06:48:49.000Z</time>
      </trkpt>
      <trkpt lat="44.38028" lon="6.39531">
        <ele>1970</ele>
        <time>2020-07-07T06:48:50.000Z</time>
      </trkpt>
      <trkpt lat="44.38027" lon="6.39532">
        <ele>1970</ele>
        <time>2020-07-07T06:48:51.000Z</time>
      </trkpt>
      <trkpt lat="44.38026" lon="6.39533">
        <ele>1970</ele>
        <time>2020-07-07T06:48:52.000Z</time>
      </trkpt>
      <trkpt lat="44.38025" lon="6.39533">
        <ele>1970</ele>
        <time>2020-07-07T06:48:53.000Z</time>
      </trkpt>
      <trkpt lat="44.38024" lon="6.39534">
        <ele>1970</ele>
        <time>2020-07-07T06:48:54.000Z</time>
      </trkpt>
      <trkpt lat="44.38023" lon="6.39534">
        <ele>1970</ele>
        <time>2020-07-07T06:48:55.000Z</time>
      </trkpt>
      <trkpt lat="44.38022" lon="6.39535">
        <ele>1970</ele>
        <time>2020-07-07T06:48:56.000Z</time>
      </trkpt>
      <trkpt lat="44.38021" lon="6.39535">
        <ele>1970</ele>
        <time>2020-07-07T06:48:57.000Z</time>
      </trkpt>
      <trkpt lat="44.38021" lon="6.39535">
        <ele>1971</ele>
        <time>2020-07-07T06:48:58.000Z</time>
      </trkpt>
      <trkpt lat="44.38021" lon="6.39535">
        <ele>1971</ele>
        <time>2020-07-07T06:48:59.000Z</time>
      </trkpt>
      <trkpt lat="44.38021" lon="6.39535">
        <ele>1971</ele>
        <time>2020-07-07T06:49:00.000Z</time>
      </trkpt>
      <trkpt lat="44.38021" lon="6.39536">
        <ele>1971</ele>
        <time>2020-07-07T06:49:01.000Z</time>
      </trkpt>
      <trkpt lat="44.38021" lon="6.39536">
        <ele>1971</ele>
        <time>2020-07-07T06:49:02.000Z</time>
      </trkpt>
      <trkpt lat="44.38021" lon="6.39536">
        <ele>1971</ele>
        <time>2020-07-07T06:49:03.000Z</time>
      </trkpt>
      <trkpt lat="44.38021" lon="6.39536">
        <ele>1971</ele>
        <time>2020-07-07T06:49:04.000Z</time>
      </trkpt>
      <trkpt lat="44.38021" lon="6.39536">
        <ele>1971</ele>
        <time>2020-07-07T06:49:05.000Z</time>
      </trkpt>
      <trkpt lat="44.38021" lon="6.39536">
        <ele>1971</ele>
        <time>2020-07-07T06:49:06.000Z</time>
      </trkpt>
      <trkpt lat="44.3802" lon="6.39536">
        <ele>1971</ele>
        <time>2020-07-07T06:49:07.000Z</time>
      </trkpt>
      <trkpt lat="44.3802" lon="6.39536">
        <ele>1971</ele>
        <time>2020-07-07T06:49:08.000Z</time>
      </trkpt>
      <trkpt lat="44.38019" lon="6.39537">
        <ele>1971</ele>
        <time>2020-07-07T06:49:09.000Z</time>
      </trkpt>
      <trkpt lat="44.38018" lon="6.39537">
        <ele>1971</ele>
        <time>2020-07-07T06:49:10.000Z</time>
      </trkpt>
      <trkpt lat="44.38017" lon="6.39538">
        <ele>1972</ele>
        <time>2020-07-07T06:49:11.000Z</time>
      </trkpt>
      <trkpt lat="44.38016" lon="6.39538">
        <ele>1972</ele>
        <time>2020-07-07T06:49:12.000Z</time>
      </trkpt>
      <trkpt lat="44.38015" lon="6.39539">
        <ele>1972</ele>
        <time>2020-07-07T06:49:13.000Z</time>
      </trkpt>
      <trkpt lat="44.38015" lon="6.39539">
        <ele>1972</ele>
        <time>2020-07-07T06:49:14.000Z</time>
      </trkpt>
      <trkpt lat="44.38014" lon="6.3954">
        <ele>1972</ele>
        <time>2020-07-07T06:49:15.000Z</time>
      </trkpt>
      <trkpt lat="44.38013" lon="6.39541">
        <ele>1972</ele>
        <time>2020-07-07T06:49:16.000Z</time>
      </trkpt>
      <trkpt lat="44.38012" lon="6.39541">
        <ele>1972</ele>
        <time>2020-07-07T06:49:17.000Z</time>
      </trkpt>
      <trkpt lat="44.38011" lon="6.39542">
        <ele>1972</ele>
        <time>2020-07-07T06:49:18.000Z</time>
      </trkpt>
      <trkpt lat="44.3801" lon="6.39542">
        <ele>1972</ele>
        <time>2020-07-07T06:49:19.000Z</time>
      </trkpt>
      <trkpt lat="44.38009" lon="6.39543">
        <ele>1972</ele>
        <time>2020-07-07T06:49:20.000Z</time>
      </trkpt>
      <trkpt lat="44.38008" lon="6.39543">
        <ele>1972</ele>
        <time>2020-07-07T06:49:21.000Z</time>
      </trkpt>
      <trkpt lat="44.38007" lon="6.39543">
        <ele>1972</ele>
        <time>2020-07-07T06:49:22.000Z</time>
      </trkpt>
      <trkpt lat="44.38006" lon="6.39544">
        <ele>1972</ele>
        <time>2020-07-07T06:49:23.000Z</time>
      </trkpt>
      <trkpt lat="44.38005" lon="6.39544">
        <ele>1972</ele>
        <time>2020-07-07T06:49:24.000Z</time>
      </trkpt>
      <trkpt lat="44.38004" lon="6.39544">
        <ele>1972</ele>
        <time>2020-07-07T06:49:25.000Z</time>
      </trkpt>
      <trkpt lat="44.38003" lon="6.39545">
        <ele>1972</ele>
        <time>2020-07-07T06:49:26.000Z</time>
      </trkpt>
      <trkpt lat="44.38002" lon="6.39545">
        <ele>1971</ele>
        <time>2020-07-07T06:49:27.000Z</time>
      </trkpt>
      <trkpt lat="44.38001" lon="6.39546">
        <ele>1971</ele>
        <time>2020-07-07T06:49:28.000Z</time>
      </trkpt>
      <trkpt lat="44.38" lon="6.39546">
        <ele>1971</ele>
        <time>2020-07-07T06:49:29.000Z</time>
      </trkpt>
      <trkpt lat="44.37999" lon="6.39546">
        <ele>1971</ele>
        <time>2020-07-07T06:49:30.000Z</time>
      </trkpt>
      <trkpt lat="44.37998" lon="6.39546">
        <ele>1971</ele>
        <time>2020-07-07T06:49:31.000Z</time>
      </trkpt>
      <trkpt lat="44.37998" lon="6.39547">
        <ele>1971</ele>
        <time>2020-07-07T06:49:32.000Z</time>
      </trkpt>
      <trkpt lat="44.37997" lon="6.39547">
        <ele>1971</ele>
        <time>2020-07-07T06:49:33.000Z</time>
      </trkpt>
      <trkpt lat="44.37996" lon="6.39548">
        <ele>1971</ele>
        <time>2020-07-07T06:49:34.000Z</time>
      </trkpt>
      <trkpt lat="44.37995" lon="6.39548">
        <ele>1971</ele>
        <time>2020-07-07T06:49:35.000Z</time>
      </trkpt>
      <trkpt lat="44.37994" lon="6.39548">
        <ele>1971</ele>
        <time>2020-07-07T06:49:36.000Z</time>
      </trkpt>
      <trkpt lat="44.37993" lon="6.39548">
        <ele>1971</ele>
        <time>2020-07-07T06:49:37.000Z</time>
      </trkpt>
      <trkpt lat="44.37992" lon="6.39549">
        <ele>1971</ele>
        <time>2020-07-07T06:49:38.000Z</time>
      </trkpt>
      <trkpt lat="44.37991" lon="6.39549">
        <ele>1971</ele>
        <time>2020-07-07T06:49:39.000Z</time>
      </trkpt>
      <trkpt lat="44.3799" lon="6.39549">
        <ele>1971</ele>
        <time>2020-07-07T06:49:40.000Z</time>
      </trkpt>
      <trkpt lat="44.37989" lon="6.39549">
        <ele>1971</ele>
        <time>2020-07-07T06:49:41.000Z</time>
      </trkpt>
      <trkpt lat="44.37988" lon="6.39549">
        <ele>1971</ele>
        <time>2020-07-07T06:49:42.000Z</time>
      </trkpt>
      <trkpt lat="44.37987" lon="6.3955">
        <ele>1971</ele>
        <time>2020-07-07T06:49:43.000Z</time>
      </trkpt>
      <trkpt lat="44.37986" lon="6.3955">
        <ele>1971</ele>
        <time>2020-07-07T06:49:44.000Z</time>
      </trkpt>
      <trkpt lat="44.37985" lon="6.3955">
        <ele>1971</ele>
        <time>2020-07-07T06:49:45.000Z</time>
      </trkpt>
      <trkpt lat="44.37985" lon="6.39551">
        <ele>1972</ele>
        <time>2020-07-07T06:49:46.000Z</time>
      </trkpt>
      <trkpt lat="44.37984" lon="6.39551">
        <ele>1972</ele>
        <time>2020-07-07T06:49:47.000Z</time>
      </trkpt>
      <trkpt lat="44.37984" lon="6.39552">
        <ele>1972</ele>
        <time>2020-07-07T06:49:48.000Z</time>
      </trkpt>
      <trkpt lat="44.37983" lon="6.39552">
        <ele>1972</ele>
        <time>2020-07-07T06:49:49.000Z</time>
      </trkpt>
      <trkpt lat="44.37982" lon="6.39552">
        <ele>1972</ele>
        <time>2020-07-07T06:49:50.000Z</time>
      </trkpt>
      <trkpt lat="44.37981" lon="6.39553">
        <ele>1972</ele>
        <time>2020-07-07T06:49:51.000Z</time>
      </trkpt>
      <trkpt lat="44.3798" lon="6.39553">
        <ele>1972</ele>
        <time>2020-07-07T06:49:52.000Z</time>
      </trkpt>
      <trkpt lat="44.37979" lon="6.39554">
        <ele>1972</ele>
        <time>2020-07-07T06:49:53.000Z</time>
      </trkpt>
      <trkpt lat="44.37978" lon="6.39555">
        <ele>1972</ele>
        <time>2020-07-07T06:49:54.000Z</time>
      </trkpt>
      <trkpt lat="44.37977" lon="6.39555">
        <ele>1972</ele>
        <time>2020-07-07T06:49:55.000Z</time>
      </trkpt>
      <trkpt lat="44.37976" lon="6.39556">
        <ele>1972</ele>
        <time>2020-07-07T06:49:56.000Z</time>
      </trkpt>
      <trkpt lat="44.37974" lon="6.39556">
        <ele>1972</ele>
        <time>2020-07-07T06:49:57.000Z</time>
      </trkpt>
      <trkpt lat="44.37973" lon="6.39556">
        <ele>1972</ele>
        <time>2020-07-07T06:49:58.000Z</time>
      </trkpt>
      <trkpt lat="44.37972" lon="6.39557">
        <ele>1972</ele>
        <time>2020-07-07T06:49:59.000Z</time>
      </trkpt>
      <trkpt lat="44.37972" lon="6.39557">
        <ele>1972</ele>
        <time>2020-07-07T06:50:00.000Z</time>
      </trkpt>
      <trkpt lat="44.3797" lon="6.39557">
        <ele>1972</ele>
        <time>2020-07-07T06:50:01.000Z</time>
      </trkpt>
      <trkpt lat="44.37969" lon="6.39558">
        <ele>1972</ele>
        <time>2020-07-07T06:50:02.000Z</time>
      </trkpt>
      <trkpt lat="44.37968" lon="6.39558">
        <ele>1972</ele>
        <time>2020-07-07T06:50:03.000Z</time>
      </trkpt>
      <trkpt lat="44.37967" lon="6.39558">
        <ele>1972</ele>
        <time>2020-07-07T06:50:04.000Z</time>
      </trkpt>
      <trkpt lat="44.37966" lon="6.39558">
        <ele>1972</ele>
        <time>2020-07-07T06:50:05.000Z</time>
      </trkpt>
      <trkpt lat="44.37965" lon="6.39558">
        <ele>1972</ele>
        <time>2020-07-07T06:50:06.000Z</time>
      </trkpt>
      <trkpt lat="44.37964" lon="6.39559">
        <ele>1972</ele>
        <time>2020-07-07T06:50:07.000Z</time>
      </trkpt>
      <trkpt lat="44.37963" lon="6.39559">
        <ele>1973</ele>
        <time>2020-07-07T06:50:08.000Z</time>
      </trkpt>
      <trkpt lat="44.37961" lon="6.39559">
        <ele>1973</ele>
        <time>2020-07-07T06:50:09.000Z</time>
      </trkpt>
      <trkpt lat="44.3796" lon="6.39559">
        <ele>1973</ele>
        <time>2020-07-07T06:50:10.000Z</time>
      </trkpt>
      <trkpt lat="44.37959" lon="6.39559">
        <ele>1973</ele>
        <time>2020-07-07T06:50:11.000Z</time>
      </trkpt>
      <trkpt lat="44.37958" lon="6.39559">
        <ele>1973</ele>
        <time>2020-07-07T06:50:12.000Z</time>
      </trkpt>
      <trkpt lat="44.37957" lon="6.39559">
        <ele>1973</ele>
        <time>2020-07-07T06:50:13.000Z</time>
      </trkpt>
      <trkpt lat="44.37955" lon="6.39559">
        <ele>1973</ele>
        <time>2020-07-07T06:50:14.000Z</time>
      </trkpt>
      <trkpt lat="44.37954" lon="6.39559">
        <ele>1973</ele>
        <time>2020-07-07T06:50:15.000Z</time>
      </trkpt>
      <trkpt lat="44.37953" lon="6.39559">
        <ele>1973</ele>
        <time>2020-07-07T06:50:16.000Z</time>
      </trkpt>
      <trkpt lat="44.37952" lon="6.39559">
        <ele>1973</ele>
        <time>2020-07-07T06:50:17.000Z</time>
      </trkpt>
      <trkpt lat="44.37951" lon="6.39558">
        <ele>1973</ele>
        <time>2020-07-07T06:50:18.000Z</time>
      </trkpt>
      <trkpt lat="44.3795" lon="6.39558">
        <ele>1973</ele>
        <time>2020-07-07T06:50:19.000Z</time>
      </trkpt>
      <trkpt lat="44.37949" lon="6.39558">
        <ele>1973</ele>
        <time>2020-07-07T06:50:20.000Z</time>
      </trkpt>
      <trkpt lat="44.37947" lon="6.39557">
        <ele>1973</ele>
        <time>2020-07-07T06:50:21.000Z</time>
      </trkpt>
      <trkpt lat="44.37946" lon="6.39557">
        <ele>1973</ele>
        <time>2020-07-07T06:50:22.000Z</time>
      </trkpt>
      <trkpt lat="44.37945" lon="6.39557">
        <ele>1973</ele>
        <time>2020-07-07T06:50:23.000Z</time>
      </trkpt>
      <trkpt lat="44.37944" lon="6.39557">
        <ele>1973</ele>
        <time>2020-07-07T06:50:24.000Z</time>
      </trkpt>
      <trkpt lat="44.37943" lon="6.39556">
        <ele>1973</ele>
        <time>2020-07-07T06:50:25.000Z</time>
      </trkpt>
      <trkpt lat="44.37942" lon="6.39556">
        <ele>1973</ele>
        <time>2020-07-07T06:50:26.000Z</time>
      </trkpt>
      <trkpt lat="44.37941" lon="6.39556">
        <ele>1973</ele>
        <time>2020-07-07T06:50:27.000Z</time>
      </trkpt>
      <trkpt lat="44.3794" lon="6.39555">
        <ele>1973</ele>
        <time>2020-07-07T06:50:28.000Z</time>
      </trkpt>
      <trkpt lat="44.37939" lon="6.39555">
        <ele>1973</ele>
        <time>2020-07-07T06:50:29.000Z</time>
      </trkpt>
      <trkpt lat="44.37938" lon="6.39554">
        <ele>1973</ele>
        <time>2020-07-07T06:50:30.000Z</time>
      </trkpt>
      <trkpt lat="44.37936" lon="6.39554">
        <ele>1973</ele>
        <time>2020-07-07T06:50:31.000Z</time>
      </trkpt>
      <trkpt lat="44.37935" lon="6.39554">
        <ele>1973</ele>
        <time>2020-07-07T06:50:32.000Z</time>
      </trkpt>
      <trkpt lat="44.37934" lon="6.39553">
        <ele>1973</ele>
        <time>2020-07-07T06:50:33.000Z</time>
      </trkpt>
      <trkpt lat="44.37933" lon="6.39553">
        <ele>1973</ele>
        <time>2020-07-07T06:50:34.000Z</time>
      </trkpt>
      <trkpt lat="44.37932" lon="6.39553">
        <ele>1973</ele>
        <time>2020-07-07T06:50:35.000Z</time>
      </trkpt>
      <trkpt lat="44.37931" lon="6.39553">
        <ele>1973</ele>
        <time>2020-07-07T06:50:36.000Z</time>
      </trkpt>
      <trkpt lat="44.3793" lon="6.39552">
        <ele>1974</ele>
        <time>2020-07-07T06:50:37.000Z</time>
      </trkpt>
      <trkpt lat="44.37928" lon="6.39552">
        <ele>1974</ele>
        <time>2020-07-07T06:50:38.000Z</time>
      </trkpt>
      <trkpt lat="44.37927" lon="6.39552">
        <ele>1974</ele>
        <time>2020-07-07T06:50:39.000Z</time>
      </trkpt>
      <trkpt lat="44.37926" lon="6.39552">
        <ele>1974</ele>
        <time>2020-07-07T06:50:40.000Z</time>
      </trkpt>
      <trkpt lat="44.37925" lon="6.39552">
        <ele>1974</ele>
        <time>2020-07-07T06:50:41.000Z</time>
      </trkpt>
      <trkpt lat="44.37924" lon="6.39552">
        <ele>1974</ele>
        <time>2020-07-07T06:50:42.000Z</time>
      </trkpt>
      <trkpt lat="44.37923" lon="6.39552">
        <ele>1974</ele>
        <time>2020-07-07T06:50:43.000Z</time>
      </trkpt>
      <trkpt lat="44.37923" lon="6.39552">
        <ele>1974</ele>
        <time>2020-07-07T06:50:44.000Z</time>
      </trkpt>
      <trkpt lat="44.37922" lon="6.39552">
        <ele>1974</ele>
        <time>2020-07-07T06:50:45.000Z</time>
      </trkpt>
      <trkpt lat="44.37922" lon="6.39552">
        <ele>1974</ele>
        <time>2020-07-07T06:50:46.000Z</time>
      </trkpt>
      <trkpt lat="44.37922" lon="6.39552">
        <ele>1975</ele>
        <time>2020-07-07T06:50:47.000Z</time>
      </trkpt>
      <trkpt lat="44.37921" lon="6.39552">
        <ele>1975</ele>
        <time>2020-07-07T06:50:48.000Z</time>
      </trkpt>
      <trkpt lat="44.37921" lon="6.39552">
        <ele>1975</ele>
        <time>2020-07-07T06:50:49.000Z</time>
      </trkpt>
      <trkpt lat="44.37921" lon="6.39552">
        <ele>1975</ele>
        <time>2020-07-07T06:50:50.000Z</time>
      </trkpt>
      <trkpt lat="44.37922" lon="6.39553">
        <ele>1975</ele>
        <time>2020-07-07T06:50:51.000Z</time>
      </trkpt>
      <trkpt lat="44.37922" lon="6.39554">
        <ele>1975</ele>
        <time>2020-07-07T06:50:52.000Z</time>
      </trkpt>
      <trkpt lat="44.37922" lon="6.39554">
        <ele>1975</ele>
        <time>2020-07-07T06:50:53.000Z</time>
      </trkpt>
      <trkpt lat="44.37923" lon="6.39555">
        <ele>1975</ele>
        <time>2020-07-07T06:50:54.000Z</time>
      </trkpt>
      <trkpt lat="44.37924" lon="6.39555">
        <ele>1976</ele>
        <time>2020-07-07T06:50:55.000Z</time>
      </trkpt>
      <trkpt lat="44.37925" lon="6.39556">
        <ele>1976</ele>
        <time>2020-07-07T06:50:56.000Z</time>
      </trkpt>
      <trkpt lat="44.37925" lon="6.39556">
        <ele>1976</ele>
        <time>2020-07-07T06:50:57.000Z</time>
      </trkpt>
      <trkpt lat="44.37926" lon="6.39557">
        <ele>1977</ele>
        <time>2020-07-07T06:50:58.000Z</time>
      </trkpt>
      <trkpt lat="44.37927" lon="6.39557">
        <ele>1977</ele>
        <time>2020-07-07T06:50:59.000Z</time>
      </trkpt>
      <trkpt lat="44.37928" lon="6.39557">
        <ele>1977</ele>
        <time>2020-07-07T06:51:00.000Z</time>
      </trkpt>
      <trkpt lat="44.37928" lon="6.39558">
        <ele>1977</ele>
        <time>2020-07-07T06:51:01.000Z</time>
      </trkpt>
      <trkpt lat="44.37929" lon="6.39558">
        <ele>1978</ele>
        <time>2020-07-07T06:51:02.000Z</time>
      </trkpt>
      <trkpt lat="44.3793" lon="6.39558">
        <ele>1978</ele>
        <time>2020-07-07T06:51:03.000Z</time>
      </trkpt>
      <trkpt lat="44.3793" lon="6.39559">
        <ele>1978</ele>
        <time>2020-07-07T06:51:04.000Z</time>
      </trkpt>
      <trkpt lat="44.37931" lon="6.39559">
        <ele>1978</ele>
        <time>2020-07-07T06:51:05.000Z</time>
      </trkpt>
      <trkpt lat="44.37932" lon="6.3956">
        <ele>1978</ele>
        <time>2020-07-07T06:51:06.000Z</time>
      </trkpt>
      <trkpt lat="44.37932" lon="6.3956">
        <ele>1978</ele>
        <time>2020-07-07T06:51:07.000Z</time>
      </trkpt>
      <trkpt lat="44.37933" lon="6.39561">
        <ele>1979</ele>
        <time>2020-07-07T06:51:08.000Z</time>
      </trkpt>
      <trkpt lat="44.37934" lon="6.39561">
        <ele>1979</ele>
        <time>2020-07-07T06:51:09.000Z</time>
      </trkpt>
      <trkpt lat="44.37935" lon="6.39562">
        <ele>1979</ele>
        <time>2020-07-07T06:51:10.000Z</time>
      </trkpt>
      <trkpt lat="44.37936" lon="6.39562">
        <ele>1979</ele>
        <time>2020-07-07T06:51:11.000Z</time>
      </trkpt>
      <trkpt lat="44.37937" lon="6.39563">
        <ele>1979</ele>
        <time>2020-07-07T06:51:12.000Z</time>
      </trkpt>
      <trkpt lat="44.37938" lon="6.39563">
        <ele>1979</ele>
        <time>2020-07-07T06:51:13.000Z</time>
      </trkpt>
      <trkpt lat="44.37939" lon="6.39564">
        <ele>1980</ele>
        <time>2020-07-07T06:51:14.000Z</time>
      </trkpt>
      <trkpt lat="44.3794" lon="6.39564">
        <ele>1980</ele>
        <time>2020-07-07T06:51:15.000Z</time>
      </trkpt>
      <trkpt lat="44.3794" lon="6.39565">
        <ele>1980</ele>
        <time>2020-07-07T06:51:16.000Z</time>
      </trkpt>
      <trkpt lat="44.37941" lon="6.39565">
        <ele>1980</ele>
        <time>2020-07-07T06:51:17.000Z</time>
      </trkpt>
      <trkpt lat="44.37942" lon="6.39566">
        <ele>1980</ele>
        <time>2020-07-07T06:51:18.000Z</time>
      </trkpt>
      <trkpt lat="44.37943" lon="6.39566">
        <ele>1980</ele>
        <time>2020-07-07T06:51:19.000Z</time>
      </trkpt>
      <trkpt lat="44.37944" lon="6.39566">
        <ele>1980</ele>
        <time>2020-07-07T06:51:20.000Z</time>
      </trkpt>
      <trkpt lat="44.37944" lon="6.39567">
        <ele>1980</ele>
        <time>2020-07-07T06:51:21.000Z</time>
      </trkpt>
      <trkpt lat="44.37945" lon="6.39568">
        <ele>1980</ele>
        <time>2020-07-07T06:51:22.000Z</time>
      </trkpt>
      <trkpt lat="44.37946" lon="6.39568">
        <ele>1980</ele>
        <time>2020-07-07T06:51:23.000Z</time>
      </trkpt>
      <trkpt lat="44.37947" lon="6.39569">
        <ele>1980</ele>
        <time>2020-07-07T06:51:24.000Z</time>
      </trkpt>
      <trkpt lat="44.37947" lon="6.39569">
        <ele>1980</ele>
        <time>2020-07-07T06:51:25.000Z</time>
      </trkpt>
      <trkpt lat="44.37948" lon="6.39569">
        <ele>1980</ele>
        <time>2020-07-07T06:51:26.000Z</time>
      </trkpt>
      <trkpt lat="44.37949" lon="6.3957">
        <ele>1981</ele>
        <time>2020-07-07T06:51:27.000Z</time>
      </trkpt>
      <trkpt lat="44.37949" lon="6.3957">
        <ele>1981</ele>
        <time>2020-07-07T06:51:28.000Z</time>
      </trkpt>
      <trkpt lat="44.37949" lon="6.3957">
        <ele>1981</ele>
        <time>2020-07-07T06:51:29.000Z</time>
      </trkpt>
      <trkpt lat="44.37949" lon="6.3957">
        <ele>1981</ele>
        <time>2020-07-07T06:51:30.000Z</time>
      </trkpt>
      <trkpt lat="44.37949" lon="6.3957">
        <ele>1981</ele>
        <time>2020-07-07T06:51:31.000Z</time>
      </trkpt>
      <trkpt lat="44.37949" lon="6.3957">
        <ele>1982</ele>
        <time>2020-07-07T06:51:32.000Z</time>
      </trkpt>
      <trkpt lat="44.3795" lon="6.39569">
        <ele>1982</ele>
        <time>2020-07-07T06:51:33.000Z</time>
      </trkpt>
      <trkpt lat="44.3795" lon="6.39569">
        <ele>1982</ele>
        <time>2020-07-07T06:51:34.000Z</time>
      </trkpt>
      <trkpt lat="44.3795" lon="6.39569">
        <ele>1982</ele>
        <time>2020-07-07T06:51:35.000Z</time>
      </trkpt>
      <trkpt lat="44.3795" lon="6.39569">
        <ele>1983</ele>
        <time>2020-07-07T06:51:36.000Z</time>
      </trkpt>
      <trkpt lat="44.3795" lon="6.39569">
        <ele>1983</ele>
        <time>2020-07-07T06:51:37.000Z</time>
      </trkpt>
      <trkpt lat="44.37951" lon="6.39569">
        <ele>1983</ele>
        <time>2020-07-07T06:51:38.000Z</time>
      </trkpt>
      <trkpt lat="44.37951" lon="6.39569">
        <ele>1983</ele>
        <time>2020-07-07T06:51:39.000Z</time>
      </trkpt>
      <trkpt lat="44.37951" lon="6.39569">
        <ele>1983</ele>
        <time>2020-07-07T06:51:40.000Z</time>
      </trkpt>
      <trkpt lat="44.37951" lon="6.39569">
        <ele>1984</ele>
        <time>2020-07-07T06:51:41.000Z</time>
      </trkpt>
      <trkpt lat="44.37951" lon="6.39568">
        <ele>1984</ele>
        <time>2020-07-07T06:51:42.000Z</time>
      </trkpt>
      <trkpt lat="44.37952" lon="6.39568">
        <ele>1984</ele>
        <time>2020-07-07T06:51:43.000Z</time>
      </trkpt>
      <trkpt lat="44.37952" lon="6.39568">
        <ele>1984</ele>
        <time>2020-07-07T06:51:44.000Z</time>
      </trkpt>
      <trkpt lat="44.37952" lon="6.39568">
        <ele>1984</ele>
        <time>2020-07-07T06:51:45.000Z</time>
      </trkpt>
      <trkpt lat="44.37952" lon="6.39568">
        <ele>1984</ele>
        <time>2020-07-07T06:51:46.000Z</time>
      </trkpt>
      <trkpt lat="44.37952" lon="6.39568">
        <ele>1984</ele>
        <time>2020-07-07T06:51:47.000Z</time>
      </trkpt>
      <trkpt lat="44.37953" lon="6.39569">
        <ele>1984</ele>
        <time>2020-07-07T06:51:48.000Z</time>
      </trkpt>
      <trkpt lat="44.37954" lon="6.39569">
        <ele>1984</ele>
        <time>2020-07-07T06:51:49.000Z</time>
      </trkpt>
      <trkpt lat="44.37954" lon="6.39569">
        <ele>1984</ele>
        <time>2020-07-07T06:51:50.000Z</time>
      </trkpt>
      <trkpt lat="44.37955" lon="6.39569">
        <ele>1984</ele>
        <time>2020-07-07T06:51:51.000Z</time>
      </trkpt>
      <trkpt lat="44.37956" lon="6.3957">
        <ele>1984</ele>
        <time>2020-07-07T06:51:52.000Z</time>
      </trkpt>
      <trkpt lat="44.37957" lon="6.3957">
        <ele>1984</ele>
        <time>2020-07-07T06:51:53.000Z</time>
      </trkpt>
      <trkpt lat="44.37958" lon="6.3957">
        <ele>1984</ele>
        <time>2020-07-07T06:51:54.000Z</time>
      </trkpt>
      <trkpt lat="44.37959" lon="6.39571">
        <ele>1984</ele>
        <time>2020-07-07T06:51:55.000Z</time>
      </trkpt>
      <trkpt lat="44.3796" lon="6.39571">
        <ele>1984</ele>
        <time>2020-07-07T06:51:56.000Z</time>
      </trkpt>
      <trkpt lat="44.3796" lon="6.39571">
        <ele>1984</ele>
        <time>2020-07-07T06:51:57.000Z</time>
      </trkpt>
      <trkpt lat="44.37961" lon="6.39572">
        <ele>1984</ele>
        <time>2020-07-07T06:51:58.000Z</time>
      </trkpt>
      <trkpt lat="44.37962" lon="6.39572">
        <ele>1984</ele>
        <time>2020-07-07T06:51:59.000Z</time>
      </trkpt>
      <trkpt lat="44.37963" lon="6.39572">
        <ele>1984</ele>
        <time>2020-07-07T06:52:00.000Z</time>
      </trkpt>
      <trkpt lat="44.37964" lon="6.39573">
        <ele>1984</ele>
        <time>2020-07-07T06:52:01.000Z</time>
      </trkpt>
      <trkpt lat="44.37965" lon="6.39573">
        <ele>1984</ele>
        <time>2020-07-07T06:52:02.000Z</time>
      </trkpt>
      <trkpt lat="44.37966" lon="6.39573">
        <ele>1984</ele>
        <time>2020-07-07T06:52:03.000Z</time>
      </trkpt>
      <trkpt lat="44.37967" lon="6.39573">
        <ele>1984</ele>
        <time>2020-07-07T06:52:04.000Z</time>
      </trkpt>
      <trkpt lat="44.37968" lon="6.39573">
        <ele>1984</ele>
        <time>2020-07-07T06:52:05.000Z</time>
      </trkpt>
      <trkpt lat="44.37969" lon="6.39573">
        <ele>1984</ele>
        <time>2020-07-07T06:52:06.000Z</time>
      </trkpt>
      <trkpt lat="44.37969" lon="6.39573">
        <ele>1984</ele>
        <time>2020-07-07T06:52:07.000Z</time>
      </trkpt>
      <trkpt lat="44.37969" lon="6.39574">
        <ele>1984</ele>
        <time>2020-07-07T06:52:08.000Z</time>
      </trkpt>
      <trkpt lat="44.37969" lon="6.39574">
        <ele>1984</ele>
        <time>2020-07-07T06:52:09.000Z</time>
      </trkpt>
      <trkpt lat="44.37969" lon="6.39573">
        <ele>1985</ele>
        <time>2020-07-07T06:52:10.000Z</time>
      </trkpt>
      <trkpt lat="44.37969" lon="6.39573">
        <ele>1984</ele>
        <time>2020-07-07T06:52:11.000Z</time>
      </trkpt>
      <trkpt lat="44.37969" lon="6.39573">
        <ele>1984</ele>
        <time>2020-07-07T06:52:12.000Z</time>
      </trkpt>
      <trkpt lat="44.37969" lon="6.39573">
        <ele>1984</ele>
        <time>2020-07-07T06:52:13.000Z</time>
      </trkpt>
      <trkpt lat="44.37969" lon="6.39573">
        <ele>1984</ele>
        <time>2020-07-07T06:52:14.000Z</time>
      </trkpt>
      <trkpt lat="44.37969" lon="6.39573">
        <ele>1984</ele>
        <time>2020-07-07T06:52:15.000Z</time>
      </trkpt>
      <trkpt lat="44.37969" lon="6.39573">
        <ele>1984</ele>
        <time>2020-07-07T06:52:16.000Z</time>
      </trkpt>
      <trkpt lat="44.3797" lon="6.39573">
        <ele>1984</ele>
        <time>2020-07-07T06:52:17.000Z</time>
      </trkpt>
      <trkpt lat="44.37971" lon="6.39573">
        <ele>1984</ele>
        <time>2020-07-07T06:52:18.000Z</time>
      </trkpt>
      <trkpt lat="44.37972" lon="6.39574">
        <ele>1984</ele>
        <time>2020-07-07T06:52:19.000Z</time>
      </trkpt>
      <trkpt lat="44.37972" lon="6.39574">
        <ele>1984</ele>
        <time>2020-07-07T06:52:20.000Z</time>
      </trkpt>
      <trkpt lat="44.37974" lon="6.39574">
        <ele>1984</ele>
        <time>2020-07-07T06:52:21.000Z</time>
      </trkpt>
      <trkpt lat="44.37975" lon="6.39574">
        <ele>1984</ele>
        <time>2020-07-07T06:52:22.000Z</time>
      </trkpt>
      <trkpt lat="44.37976" lon="6.39574">
        <ele>1984</ele>
        <time>2020-07-07T06:52:23.000Z</time>
      </trkpt>
      <trkpt lat="44.37976" lon="6.39575">
        <ele>1985</ele>
        <time>2020-07-07T06:52:24.000Z</time>
      </trkpt>
      <trkpt lat="44.37977" lon="6.39575">
        <ele>1985</ele>
        <time>2020-07-07T06:52:25.000Z</time>
      </trkpt>
      <trkpt lat="44.37978" lon="6.39575">
        <ele>1985</ele>
        <time>2020-07-07T06:52:26.000Z</time>
      </trkpt>
      <trkpt lat="44.37979" lon="6.39575">
        <ele>1985</ele>
        <time>2020-07-07T06:52:27.000Z</time>
      </trkpt>
      <trkpt lat="44.3798" lon="6.39576">
        <ele>1985</ele>
        <time>2020-07-07T06:52:28.000Z</time>
      </trkpt>
      <trkpt lat="44.37981" lon="6.39576">
        <ele>1985</ele>
        <time>2020-07-07T06:52:29.000Z</time>
      </trkpt>
      <trkpt lat="44.37982" lon="6.39576">
        <ele>1985</ele>
        <time>2020-07-07T06:52:30.000Z</time>
      </trkpt>
      <trkpt lat="44.37983" lon="6.39576">
        <ele>1985</ele>
        <time>2020-07-07T06:52:31.000Z</time>
      </trkpt>
      <trkpt lat="44.37984" lon="6.39576">
        <ele>1985</ele>
        <time>2020-07-07T06:52:32.000Z</time>
      </trkpt>
      <trkpt lat="44.37985" lon="6.39576">
        <ele>1985</ele>
        <time>2020-07-07T06:52:33.000Z</time>
      </trkpt>
      <trkpt lat="44.37986" lon="6.39576">
        <ele>1985</ele>
        <time>2020-07-07T06:52:34.000Z</time>
      </trkpt>
      <trkpt lat="44.37987" lon="6.39576">
        <ele>1985</ele>
        <time>2020-07-07T06:52:35.000Z</time>
      </trkpt>
      <trkpt lat="44.37988" lon="6.39576">
        <ele>1985</ele>
        <time>2020-07-07T06:52:36.000Z</time>
      </trkpt>
      <trkpt lat="44.37989" lon="6.39576">
        <ele>1985</ele>
        <time>2020-07-07T06:52:37.000Z</time>
      </trkpt>
      <trkpt lat="44.3799" lon="6.39576">
        <ele>1985</ele>
        <time>2020-07-07T06:52:38.000Z</time>
      </trkpt>
      <trkpt lat="44.37991" lon="6.39576">
        <ele>1985</ele>
        <time>2020-07-07T06:52:39.000Z</time>
      </trkpt>
      <trkpt lat="44.37992" lon="6.39576">
        <ele>1985</ele>
        <time>2020-07-07T06:52:40.000Z</time>
      </trkpt>
      <trkpt lat="44.37993" lon="6.39577">
        <ele>1985</ele>
        <time>2020-07-07T06:52:41.000Z</time>
      </trkpt>
      <trkpt lat="44.37994" lon="6.39577">
        <ele>1985</ele>
        <time>2020-07-07T06:52:42.000Z</time>
      </trkpt>
      <trkpt lat="44.37995" lon="6.39577">
        <ele>1985</ele>
        <time>2020-07-07T06:52:43.000Z</time>
      </trkpt>
      <trkpt lat="44.37996" lon="6.39577">
        <ele>1985</ele>
        <time>2020-07-07T06:52:44.000Z</time>
      </trkpt>
      <trkpt lat="44.37996" lon="6.39577">
        <ele>1985</ele>
        <time>2020-07-07T06:52:45.000Z</time>
      </trkpt>
      <trkpt lat="44.37997" lon="6.39577">
        <ele>1985</ele>
        <time>2020-07-07T06:52:46.000Z</time>
      </trkpt>
      <trkpt lat="44.37998" lon="6.39577">
        <ele>1985</ele>
        <time>2020-07-07T06:52:47.000Z</time>
      </trkpt>
      <trkpt lat="44.37999" lon="6.39577">
        <ele>1985</ele>
        <time>2020-07-07T06:52:48.000Z</time>
      </trkpt>
      <trkpt lat="44.38" lon="6.39578">
        <ele>1986</ele>
        <time>2020-07-07T06:52:49.000Z</time>
      </trkpt>
      <trkpt lat="44.38" lon="6.39578">
        <ele>1986</ele>
        <time>2020-07-07T06:52:50.000Z</time>
      </trkpt>
      <trkpt lat="44.38001" lon="6.39578">
        <ele>1986</ele>
        <time>2020-07-07T06:52:51.000Z</time>
      </trkpt>
      <trkpt lat="44.38002" lon="6.39579">
        <ele>1986</ele>
        <time>2020-07-07T06:52:52.000Z</time>
      </trkpt>
      <trkpt lat="44.38003" lon="6.39579">
        <ele>1986</ele>
        <time>2020-07-07T06:52:53.000Z</time>
      </trkpt>
      <trkpt lat="44.38004" lon="6.39579">
        <ele>1986</ele>
        <time>2020-07-07T06:52:54.000Z</time>
      </trkpt>
      <trkpt lat="44.38005" lon="6.39579">
        <ele>1986</ele>
        <time>2020-07-07T06:52:55.000Z</time>
      </trkpt>
      <trkpt lat="44.38006" lon="6.39579">
        <ele>1986</ele>
        <time>2020-07-07T06:52:56.000Z</time>
      </trkpt>
      <trkpt lat="44.38006" lon="6.3958">
        <ele>1986</ele>
        <time>2020-07-07T06:52:57.000Z</time>
      </trkpt>
      <trkpt lat="44.38007" lon="6.3958">
        <ele>1986</ele>
        <time>2020-07-07T06:52:58.000Z</time>
      </trkpt>
      <trkpt lat="44.38008" lon="6.3958">
        <ele>1986</ele>
        <time>2020-07-07T06:52:59.000Z</time>
      </trkpt>
      <trkpt lat="44.38009" lon="6.3958">
        <ele>1986</ele>
        <time>2020-07-07T06:53:00.000Z</time>
      </trkpt>
      <trkpt lat="44.3801" lon="6.3958">
        <ele>1986</ele>
        <time>2020-07-07T06:53:01.000Z</time>
      </trkpt>
      <trkpt lat="44.38011" lon="6.39581">
        <ele>1987</ele>
        <time>2020-07-07T06:53:02.000Z</time>
      </trkpt>
      <trkpt lat="44.38012" lon="6.39581">
        <ele>1987</ele>
        <time>2020-07-07T06:53:03.000Z</time>
      </trkpt>
      <trkpt lat="44.38013" lon="6.39581">
        <ele>1987</ele>
        <time>2020-07-07T06:53:04.000Z</time>
      </trkpt>
      <trkpt lat="44.38013" lon="6.39581">
        <ele>1987</ele>
        <time>2020-07-07T06:53:05.000Z</time>
      </trkpt>
      <trkpt lat="44.38014" lon="6.39582">
        <ele>1987</ele>
        <time>2020-07-07T06:53:06.000Z</time>
      </trkpt>
      <trkpt lat="44.38015" lon="6.39581">
        <ele>1987</ele>
        <time>2020-07-07T06:53:07.000Z</time>
      </trkpt>
      <trkpt lat="44.38016" lon="6.39581">
        <ele>1987</ele>
        <time>2020-07-07T06:53:08.000Z</time>
      </trkpt>
      <trkpt lat="44.38017" lon="6.39581">
        <ele>1987</ele>
        <time>2020-07-07T06:53:09.000Z</time>
      </trkpt>
      <trkpt lat="44.38018" lon="6.39581">
        <ele>1988</ele>
        <time>2020-07-07T06:53:10.000Z</time>
      </trkpt>
      <trkpt lat="44.38019" lon="6.39582">
        <ele>1988</ele>
        <time>2020-07-07T06:53:11.000Z</time>
      </trkpt>
      <trkpt lat="44.3802" lon="6.39582">
        <ele>1988</ele>
        <time>2020-07-07T06:53:12.000Z</time>
      </trkpt>
      <trkpt lat="44.38021" lon="6.39582">
        <ele>1988</ele>
        <time>2020-07-07T06:53:13.000Z</time>
      </trkpt>
      <trkpt lat="44.38022" lon="6.39582">
        <ele>1988</ele>
        <time>2020-07-07T06:53:14.000Z</time>
      </trkpt>
      <trkpt lat="44.38022" lon="6.39582">
        <ele>1988</ele>
        <time>2020-07-07T06:53:15.000Z</time>
      </trkpt>
      <trkpt lat="44.38023" lon="6.39581">
        <ele>1988</ele>
        <time>2020-07-07T06:53:16.000Z</time>
      </trkpt>
      <trkpt lat="44.38024" lon="6.39581">
        <ele>1989</ele>
        <time>2020-07-07T06:53:17.000Z</time>
      </trkpt>
      <trkpt lat="44.38025" lon="6.39581">
        <ele>1989</ele>
        <time>2020-07-07T06:53:18.000Z</time>
      </trkpt>
      <trkpt lat="44.38026" lon="6.39581">
        <ele>1989</ele>
        <time>2020-07-07T06:53:19.000Z</time>
      </trkpt>
      <trkpt lat="44.38026" lon="6.39581">
        <ele>1989</ele>
        <time>2020-07-07T06:53:20.000Z</time>
      </trkpt>
      <trkpt lat="44.38027" lon="6.39581">
        <ele>1989</ele>
        <time>2020-07-07T06:53:21.000Z</time>
      </trkpt>
      <trkpt lat="44.38028" lon="6.39581">
        <ele>1989</ele>
        <time>2020-07-07T06:53:22.000Z</time>
      </trkpt>
      <trkpt lat="44.38029" lon="6.39581">
        <ele>1990</ele>
        <time>2020-07-07T06:53:23.000Z</time>
      </trkpt>
      <trkpt lat="44.3803" lon="6.39581">
        <ele>1990</ele>
        <time>2020-07-07T06:53:24.000Z</time>
      </trkpt>
      <trkpt lat="44.38031" lon="6.39581">
        <ele>1990</ele>
        <time>2020-07-07T06:53:25.000Z</time>
      </trkpt>
      <trkpt lat="44.38032" lon="6.39581">
        <ele>1990</ele>
        <time>2020-07-07T06:53:26.000Z</time>
      </trkpt>
      <trkpt lat="44.38033" lon="6.39581">
        <ele>1990</ele>
        <time>2020-07-07T06:53:27.000Z</time>
      </trkpt>
      <trkpt lat="44.38034" lon="6.39581">
        <ele>1991</ele>
        <time>2020-07-07T06:53:28.000Z</time>
      </trkpt>
      <trkpt lat="44.38034" lon="6.39581">
        <ele>1991</ele>
        <time>2020-07-07T06:53:29.000Z</time>
      </trkpt>
      <trkpt lat="44.38035" lon="6.39581">
        <ele>1991</ele>
        <time>2020-07-07T06:53:30.000Z</time>
      </trkpt>
      <trkpt lat="44.38035" lon="6.39581">
        <ele>1991</ele>
        <time>2020-07-07T06:53:31.000Z</time>
      </trkpt>
      <trkpt lat="44.38036" lon="6.39581">
        <ele>1992</ele>
        <time>2020-07-07T06:53:32.000Z</time>
      </trkpt>
      <trkpt lat="44.38037" lon="6.39581">
        <ele>1992</ele>
        <time>2020-07-07T06:53:33.000Z</time>
      </trkpt>
      <trkpt lat="44.38038" lon="6.39582">
        <ele>1992</ele>
        <time>2020-07-07T06:53:34.000Z</time>
      </trkpt>
      <trkpt lat="44.38039" lon="6.39582">
        <ele>1992</ele>
        <time>2020-07-07T06:53:35.000Z</time>
      </trkpt>
      <trkpt lat="44.3804" lon="6.39582">
        <ele>1992</ele>
        <time>2020-07-07T06:53:36.000Z</time>
      </trkpt>
      <trkpt lat="44.3804" lon="6.39582">
        <ele>1992</ele>
        <time>2020-07-07T06:53:37.000Z</time>
      </trkpt>
      <trkpt lat="44.38041" lon="6.39581">
        <ele>1992</ele>
        <time>2020-07-07T06:53:38.000Z</time>
      </trkpt>
      <trkpt lat="44.38042" lon="6.39581">
        <ele>1993</ele>
        <time>2020-07-07T06:53:39.000Z</time>
      </trkpt>
      <trkpt lat="44.38043" lon="6.39581">
        <ele>1993</ele>
        <time>2020-07-07T06:53:40.000Z</time>
      </trkpt>
      <trkpt lat="44.38044" lon="6.39581">
        <ele>1993</ele>
        <time>2020-07-07T06:53:41.000Z</time>
      </trkpt>
      <trkpt lat="44.38044" lon="6.3958">
        <ele>1993</ele>
        <time>2020-07-07T06:53:42.000Z</time>
      </trkpt>
      <trkpt lat="44.38045" lon="6.3958">
        <ele>1993</ele>
        <time>2020-07-07T06:53:43.000Z</time>
      </trkpt>
      <trkpt lat="44.38046" lon="6.39579">
        <ele>1994</ele>
        <time>2020-07-07T06:53:44.000Z</time>
      </trkpt>
      <trkpt lat="44.38046" lon="6.39579">
        <ele>1994</ele>
        <time>2020-07-07T06:53:45.000Z</time>
      </trkpt>
      <trkpt lat="44.38047" lon="6.39579">
        <ele>1994</ele>
        <time>2020-07-07T06:53:46.000Z</time>
      </trkpt>
      <trkpt lat="44.38047" lon="6.39578">
        <ele>1994</ele>
        <time>2020-07-07T06:53:47.000Z</time>
      </trkpt>
      <trkpt lat="44.38048" lon="6.39578">
        <ele>1994</ele>
        <time>2020-07-07T06:53:48.000Z</time>
      </trkpt>
      <trkpt lat="44.38049" lon="6.39577">
        <ele>1994</ele>
        <time>2020-07-07T06:53:49.000Z</time>
      </trkpt>
      <trkpt lat="44.3805" lon="6.39576">
        <ele>1994</ele>
        <time>2020-07-07T06:53:50.000Z</time>
      </trkpt>
      <trkpt lat="44.38051" lon="6.39576">
        <ele>1995</ele>
        <time>2020-07-07T06:53:51.000Z</time>
      </trkpt>
      <trkpt lat="44.38052" lon="6.39575">
        <ele>1995</ele>
        <time>2020-07-07T06:53:52.000Z</time>
      </trkpt>
      <trkpt lat="44.38053" lon="6.39574">
        <ele>1995</ele>
        <time>2020-07-07T06:53:53.000Z</time>
      </trkpt>
      <trkpt lat="44.38053" lon="6.39573">
        <ele>1995</ele>
        <time>2020-07-07T06:53:54.000Z</time>
      </trkpt>
      <trkpt lat="44.38054" lon="6.39572">
        <ele>1995</ele>
        <time>2020-07-07T06:53:55.000Z</time>
      </trkpt>
      <trkpt lat="44.38055" lon="6.39571">
        <ele>1995</ele>
        <time>2020-07-07T06:53:56.000Z</time>
      </trkpt>
      <trkpt lat="44.38056" lon="6.3957">
        <ele>1995</ele>
        <time>2020-07-07T06:53:57.000Z</time>
      </trkpt>
      <trkpt lat="44.38056" lon="6.39568">
        <ele>1995</ele>
        <time>2020-07-07T06:53:58.000Z</time>
      </trkpt>
      <trkpt lat="44.38057" lon="6.39567">
        <ele>1995</ele>
        <time>2020-07-07T06:53:59.000Z</time>
      </trkpt>
      <trkpt lat="44.38057" lon="6.39566">
        <ele>1995</ele>
        <time>2020-07-07T06:54:00.000Z</time>
      </trkpt>
      <trkpt lat="44.38058" lon="6.39565">
        <ele>1995</ele>
        <time>2020-07-07T06:54:01.000Z</time>
      </trkpt>
      <trkpt lat="44.38059" lon="6.39564">
        <ele>1995</ele>
        <time>2020-07-07T06:54:02.000Z</time>
      </trkpt>
      <trkpt lat="44.3806" lon="6.39563">
        <ele>1995</ele>
        <time>2020-07-07T06:54:03.000Z</time>
      </trkpt>
      <trkpt lat="44.3806" lon="6.39562">
        <ele>1995</ele>
        <time>2020-07-07T06:54:04.000Z</time>
      </trkpt>
      <trkpt lat="44.38061" lon="6.39561">
        <ele>1995</ele>
        <time>2020-07-07T06:54:05.000Z</time>
      </trkpt>
      <trkpt lat="44.38061" lon="6.3956">
        <ele>1995</ele>
        <time>2020-07-07T06:54:06.000Z</time>
      </trkpt>
      <trkpt lat="44.38062" lon="6.3956">
        <ele>1995</ele>
        <time>2020-07-07T06:54:07.000Z</time>
      </trkpt>
      <trkpt lat="44.38063" lon="6.39559">
        <ele>1995</ele>
        <time>2020-07-07T06:54:08.000Z</time>
      </trkpt>
      <trkpt lat="44.38063" lon="6.39559">
        <ele>1996</ele>
        <time>2020-07-07T06:54:09.000Z</time>
      </trkpt>
      <trkpt lat="44.38064" lon="6.39558">
        <ele>1996</ele>
        <time>2020-07-07T06:54:10.000Z</time>
      </trkpt>
      <trkpt lat="44.38065" lon="6.39558">
        <ele>1996</ele>
        <time>2020-07-07T06:54:11.000Z</time>
      </trkpt>
      <trkpt lat="44.38066" lon="6.39557">
        <ele>1996</ele>
        <time>2020-07-07T06:54:12.000Z</time>
      </trkpt>
      <trkpt lat="44.38067" lon="6.39556">
        <ele>1996</ele>
        <time>2020-07-07T06:54:13.000Z</time>
      </trkpt>
      <trkpt lat="44.38068" lon="6.39555">
        <ele>1996</ele>
        <time>2020-07-07T06:54:14.000Z</time>
      </trkpt>
      <trkpt lat="44.38069" lon="6.39555">
        <ele>1996</ele>
        <time>2020-07-07T06:54:15.000Z</time>
      </trkpt>
      <trkpt lat="44.3807" lon="6.39554">
        <ele>1996</ele>
        <time>2020-07-07T06:54:16.000Z</time>
      </trkpt>
      <trkpt lat="44.3807" lon="6.39553">
        <ele>1996</ele>
        <time>2020-07-07T06:54:17.000Z</time>
      </trkpt>
      <trkpt lat="44.38071" lon="6.39553">
        <ele>1997</ele>
        <time>2020-07-07T06:54:18.000Z</time>
      </trkpt>
      <trkpt lat="44.38072" lon="6.39552">
        <ele>1997</ele>
        <time>2020-07-07T06:54:19.000Z</time>
      </trkpt>
      <trkpt lat="44.38073" lon="6.39552">
        <ele>1997</ele>
        <time>2020-07-07T06:54:20.000Z</time>
      </trkpt>
      <trkpt lat="44.38074" lon="6.39551">
        <ele>1997</ele>
        <time>2020-07-07T06:54:21.000Z</time>
      </trkpt>
      <trkpt lat="44.38074" lon="6.3955">
        <ele>1997</ele>
        <time>2020-07-07T06:54:22.000Z</time>
      </trkpt>
      <trkpt lat="44.38075" lon="6.3955">
        <ele>1997</ele>
        <time>2020-07-07T06:54:23.000Z</time>
      </trkpt>
      <trkpt lat="44.38076" lon="6.39549">
        <ele>1997</ele>
        <time>2020-07-07T06:54:24.000Z</time>
      </trkpt>
      <trkpt lat="44.38077" lon="6.39548">
        <ele>1997</ele>
        <time>2020-07-07T06:54:25.000Z</time>
      </trkpt>
      <trkpt lat="44.38078" lon="6.39547">
        <ele>1997</ele>
        <time>2020-07-07T06:54:26.000Z</time>
      </trkpt>
      <trkpt lat="44.38078" lon="6.39547">
        <ele>1998</ele>
        <time>2020-07-07T06:54:27.000Z</time>
      </trkpt>
      <trkpt lat="44.38079" lon="6.39546">
        <ele>1998</ele>
        <time>2020-07-07T06:54:28.000Z</time>
      </trkpt>
      <trkpt lat="44.3808" lon="6.39545">
        <ele>1998</ele>
        <time>2020-07-07T06:54:29.000Z</time>
      </trkpt>
      <trkpt lat="44.38081" lon="6.39544">
        <ele>1998</ele>
        <time>2020-07-07T06:54:30.000Z</time>
      </trkpt>
      <trkpt lat="44.38082" lon="6.39543">
        <ele>1998</ele>
        <time>2020-07-07T06:54:31.000Z</time>
      </trkpt>
      <trkpt lat="44.38083" lon="6.39542">
        <ele>1998</ele>
        <time>2020-07-07T06:54:32.000Z</time>
      </trkpt>
      <trkpt lat="44.38084" lon="6.39541">
        <ele>1998</ele>
        <time>2020-07-07T06:54:33.000Z</time>
      </trkpt>
      <trkpt lat="44.38085" lon="6.3954">
        <ele>1999</ele>
        <time>2020-07-07T06:54:34.000Z</time>
      </trkpt>
      <trkpt lat="44.38086" lon="6.39539">
        <ele>1999</ele>
        <time>2020-07-07T06:54:35.000Z</time>
      </trkpt>
      <trkpt lat="44.38086" lon="6.39538">
        <ele>1999</ele>
        <time>2020-07-07T06:54:36.000Z</time>
      </trkpt>
      <trkpt lat="44.38087" lon="6.39537">
        <ele>1999</ele>
        <time>2020-07-07T06:54:37.000Z</time>
      </trkpt>
      <trkpt lat="44.38088" lon="6.39537">
        <ele>1999</ele>
        <time>2020-07-07T06:54:38.000Z</time>
      </trkpt>
      <trkpt lat="44.38089" lon="6.39537">
        <ele>1999</ele>
        <time>2020-07-07T06:54:39.000Z</time>
      </trkpt>
      <trkpt lat="44.38089" lon="6.39537">
        <ele>1999</ele>
        <time>2020-07-07T06:54:40.000Z</time>
      </trkpt>
      <trkpt lat="44.3809" lon="6.39536">
        <ele>1999</ele>
        <time>2020-07-07T06:54:41.000Z</time>
      </trkpt>
      <trkpt lat="44.38091" lon="6.39536">
        <ele>1999</ele>
        <time>2020-07-07T06:54:42.000Z</time>
      </trkpt>
      <trkpt lat="44.38092" lon="6.39536">
        <ele>1999</ele>
        <time>2020-07-07T06:54:43.000Z</time>
      </trkpt>
      <trkpt lat="44.38092" lon="6.39535">
        <ele>1999</ele>
        <time>2020-07-07T06:54:44.000Z</time>
      </trkpt>
      <trkpt lat="44.38093" lon="6.39535">
        <ele>2000</ele>
        <time>2020-07-07T06:54:45.000Z</time>
      </trkpt>
      <trkpt lat="44.38094" lon="6.39535">
        <ele>2000</ele>
        <time>2020-07-07T06:54:46.000Z</time>
      </trkpt>
      <trkpt lat="44.38094" lon="6.39535">
        <ele>2000</ele>
        <time>2020-07-07T06:54:47.000Z</time>
      </trkpt>
      <trkpt lat="44.38094" lon="6.39535">
        <ele>2000</ele>
        <time>2020-07-07T06:54:48.000Z</time>
      </trkpt>
      <trkpt lat="44.38095" lon="6.39535">
        <ele>2000</ele>
        <time>2020-07-07T06:54:49.000Z</time>
      </trkpt>
      <trkpt lat="44.38095" lon="6.39535">
        <ele>2000</ele>
        <time>2020-07-07T06:54:50.000Z</time>
      </trkpt>
      <trkpt lat="44.38095" lon="6.39534">
        <ele>2000</ele>
        <time>2020-07-07T06:54:51.000Z</time>
      </trkpt>
      <trkpt lat="44.38096" lon="6.39534">
        <ele>2000</ele>
        <time>2020-07-07T06:54:52.000Z</time>
      </trkpt>
      <trkpt lat="44.38097" lon="6.39534">
        <ele>2000</ele>
        <time>2020-07-07T06:54:53.000Z</time>
      </trkpt>
      <trkpt lat="44.38097" lon="6.39533">
        <ele>2000</ele>
        <time>2020-07-07T06:54:54.000Z</time>
      </trkpt>
      <trkpt lat="44.38098" lon="6.39533">
        <ele>2000</ele>
        <time>2020-07-07T06:54:55.000Z</time>
      </trkpt>
      <trkpt lat="44.38099" lon="6.39532">
        <ele>2000</ele>
        <time>2020-07-07T06:54:56.000Z</time>
      </trkpt>
      <trkpt lat="44.38099" lon="6.39532">
        <ele>2000</ele>
        <time>2020-07-07T06:54:57.000Z</time>
      </trkpt>
      <trkpt lat="44.38099" lon="6.39532">
        <ele>2000</ele>
        <time>2020-07-07T06:54:58.000Z</time>
      </trkpt>
      <trkpt lat="44.38099" lon="6.39532">
        <ele>2000</ele>
        <time>2020-07-07T06:54:59.000Z</time>
      </trkpt>
      <trkpt lat="44.381" lon="6.39532">
        <ele>2000</ele>
        <time>2020-07-07T06:55:00.000Z</time>
      </trkpt>
      <trkpt lat="44.381" lon="6.39531">
        <ele>2000</ele>
        <time>2020-07-07T06:55:01.000Z</time>
      </trkpt>
      <trkpt lat="44.38101" lon="6.39531">
        <ele>2001</ele>
        <time>2020-07-07T06:55:02.000Z</time>
      </trkpt>
      <trkpt lat="44.38101" lon="6.3953">
        <ele>2001</ele>
        <time>2020-07-07T06:55:03.000Z</time>
      </trkpt>
      <trkpt lat="44.38102" lon="6.3953">
        <ele>2001</ele>
        <time>2020-07-07T06:55:04.000Z</time>
      </trkpt>
      <trkpt lat="44.38102" lon="6.39529">
        <ele>2001</ele>
        <time>2020-07-07T06:55:05.000Z</time>
      </trkpt>
      <trkpt lat="44.38103" lon="6.39528">
        <ele>2001</ele>
        <time>2020-07-07T06:55:06.000Z</time>
      </trkpt>
      <trkpt lat="44.38104" lon="6.39528">
        <ele>2001</ele>
        <time>2020-07-07T06:55:07.000Z</time>
      </trkpt>
      <trkpt lat="44.38105" lon="6.39527">
        <ele>2001</ele>
        <time>2020-07-07T06:55:08.000Z</time>
      </trkpt>
      <trkpt lat="44.38105" lon="6.39527">
        <ele>2001</ele>
        <time>2020-07-07T06:55:09.000Z</time>
      </trkpt>
      <trkpt lat="44.38106" lon="6.39526">
        <ele>2001</ele>
        <time>2020-07-07T06:55:10.000Z</time>
      </trkpt>
      <trkpt lat="44.38107" lon="6.39525">
        <ele>2001</ele>
        <time>2020-07-07T06:55:11.000Z</time>
      </trkpt>
      <trkpt lat="44.38108" lon="6.39524">
        <ele>2001</ele>
        <time>2020-07-07T06:55:12.000Z</time>
      </trkpt>
      <trkpt lat="44.38109" lon="6.39524">
        <ele>2001</ele>
        <time>2020-07-07T06:55:13.000Z</time>
      </trkpt>
      <trkpt lat="44.38109" lon="6.39523">
        <ele>2001</ele>
        <time>2020-07-07T06:55:14.000Z</time>
      </trkpt>
      <trkpt lat="44.3811" lon="6.39523">
        <ele>2001</ele>
        <time>2020-07-07T06:55:15.000Z</time>
      </trkpt>
      <trkpt lat="44.3811" lon="6.39523">
        <ele>2001</ele>
        <time>2020-07-07T06:55:16.000Z</time>
      </trkpt>
      <trkpt lat="44.38111" lon="6.39522">
        <ele>2001</ele>
        <time>2020-07-07T06:55:17.000Z</time>
      </trkpt>
      <trkpt lat="44.38111" lon="6.39522">
        <ele>2001</ele>
        <time>2020-07-07T06:55:18.000Z</time>
      </trkpt>
      <trkpt lat="44.38112" lon="6.39521">
        <ele>2001</ele>
        <time>2020-07-07T06:55:19.000Z</time>
      </trkpt>
      <trkpt lat="44.38113" lon="6.3952">
        <ele>2001</ele>
        <time>2020-07-07T06:55:20.000Z</time>
      </trkpt>
      <trkpt lat="44.38114" lon="6.3952">
        <ele>2001</ele>
        <time>2020-07-07T06:55:21.000Z</time>
      </trkpt>
      <trkpt lat="44.38115" lon="6.39519">
        <ele>2001</ele>
        <time>2020-07-07T06:55:22.000Z</time>
      </trkpt>
      <trkpt lat="44.38115" lon="6.39518">
        <ele>2001</ele>
        <time>2020-07-07T06:55:23.000Z</time>
      </trkpt>
      <trkpt lat="44.38116" lon="6.39518">
        <ele>2001</ele>
        <time>2020-07-07T06:55:24.000Z</time>
      </trkpt>
      <trkpt lat="44.38116" lon="6.39518">
        <ele>2001</ele>
        <time>2020-07-07T06:55:25.000Z</time>
      </trkpt>
      <trkpt lat="44.38116" lon="6.39518">
        <ele>2001</ele>
        <time>2020-07-07T06:55:26.000Z</time>
      </trkpt>
      <trkpt lat="44.38117" lon="6.39517">
        <ele>2001</ele>
        <time>2020-07-07T06:55:27.000Z</time>
      </trkpt>
      <trkpt lat="44.38117" lon="6.39517">
        <ele>2001</ele>
        <time>2020-07-07T06:55:28.000Z</time>
      </trkpt>
      <trkpt lat="44.38118" lon="6.39516">
        <ele>2001</ele>
        <time>2020-07-07T06:55:29.000Z</time>
      </trkpt>
      <trkpt lat="44.38119" lon="6.39515">
        <ele>2001</ele>
        <time>2020-07-07T06:55:30.000Z</time>
      </trkpt>
      <trkpt lat="44.3812" lon="6.39515">
        <ele>2001</ele>
        <time>2020-07-07T06:55:31.000Z</time>
      </trkpt>
      <trkpt lat="44.38121" lon="6.39514">
        <ele>2001</ele>
        <time>2020-07-07T06:55:32.000Z</time>
      </trkpt>
      <trkpt lat="44.38121" lon="6.39514">
        <ele>2001</ele>
        <time>2020-07-07T06:55:33.000Z</time>
      </trkpt>
      <trkpt lat="44.38122" lon="6.39513">
        <ele>2001</ele>
        <time>2020-07-07T06:55:34.000Z</time>
      </trkpt>
      <trkpt lat="44.38123" lon="6.39513">
        <ele>2001</ele>
        <time>2020-07-07T06:55:35.000Z</time>
      </trkpt>
      <trkpt lat="44.38124" lon="6.39512">
        <ele>2001</ele>
        <time>2020-07-07T06:55:36.000Z</time>
      </trkpt>
      <trkpt lat="44.38125" lon="6.39512">
        <ele>2001</ele>
        <time>2020-07-07T06:55:37.000Z</time>
      </trkpt>
      <trkpt lat="44.38126" lon="6.39511">
        <ele>2001</ele>
        <time>2020-07-07T06:55:38.000Z</time>
      </trkpt>
      <trkpt lat="44.38127" lon="6.3951">
        <ele>2002</ele>
        <time>2020-07-07T06:55:39.000Z</time>
      </trkpt>
      <trkpt lat="44.38128" lon="6.3951">
        <ele>2002</ele>
        <time>2020-07-07T06:55:40.000Z</time>
      </trkpt>
      <trkpt lat="44.38129" lon="6.39509">
        <ele>2002</ele>
        <time>2020-07-07T06:55:41.000Z</time>
      </trkpt>
      <trkpt lat="44.3813" lon="6.39508">
        <ele>2002</ele>
        <time>2020-07-07T06:55:42.000Z</time>
      </trkpt>
      <trkpt lat="44.38131" lon="6.39508">
        <ele>2002</ele>
        <time>2020-07-07T06:55:43.000Z</time>
      </trkpt>
      <trkpt lat="44.38132" lon="6.39507">
        <ele>2002</ele>
        <time>2020-07-07T06:55:44.000Z</time>
      </trkpt>
      <trkpt lat="44.38132" lon="6.39507">
        <ele>2002</ele>
        <time>2020-07-07T06:55:45.000Z</time>
      </trkpt>
      <trkpt lat="44.38133" lon="6.39507">
        <ele>2002</ele>
        <time>2020-07-07T06:55:46.000Z</time>
      </trkpt>
      <trkpt lat="44.38134" lon="6.39506">
        <ele>2002</ele>
        <time>2020-07-07T06:55:47.000Z</time>
      </trkpt>
      <trkpt lat="44.38135" lon="6.39505">
        <ele>2002</ele>
        <time>2020-07-07T06:55:48.000Z</time>
      </trkpt>
      <trkpt lat="44.38136" lon="6.39505">
        <ele>2002</ele>
        <time>2020-07-07T06:55:49.000Z</time>
      </trkpt>
      <trkpt lat="44.38137" lon="6.39504">
        <ele>2003</ele>
        <time>2020-07-07T06:55:50.000Z</time>
      </trkpt>
      <trkpt lat="44.38138" lon="6.39504">
        <ele>2003</ele>
        <time>2020-07-07T06:55:51.000Z</time>
      </trkpt>
      <trkpt lat="44.3814" lon="6.39504">
        <ele>2003</ele>
        <time>2020-07-07T06:55:52.000Z</time>
      </trkpt>
      <trkpt lat="44.38141" lon="6.39503">
        <ele>2003</ele>
        <time>2020-07-07T06:55:53.000Z</time>
      </trkpt>
      <trkpt lat="44.38142" lon="6.39502">
        <ele>2003</ele>
        <time>2020-07-07T06:55:54.000Z</time>
      </trkpt>
      <trkpt lat="44.38143" lon="6.39502">
        <ele>2003</ele>
        <time>2020-07-07T06:55:55.000Z</time>
      </trkpt>
      <trkpt lat="44.38143" lon="6.39501">
        <ele>2003</ele>
        <time>2020-07-07T06:55:56.000Z</time>
      </trkpt>
      <trkpt lat="44.38144" lon="6.39501">
        <ele>2003</ele>
        <time>2020-07-07T06:55:57.000Z</time>
      </trkpt>
      <trkpt lat="44.38145" lon="6.395">
        <ele>2003</ele>
        <time>2020-07-07T06:55:58.000Z</time>
      </trkpt>
      <trkpt lat="44.38146" lon="6.395">
        <ele>2003</ele>
        <time>2020-07-07T06:55:59.000Z</time>
      </trkpt>
      <trkpt lat="44.38147" lon="6.39499">
        <ele>2003</ele>
        <time>2020-07-07T06:56:00.000Z</time>
      </trkpt>
      <trkpt lat="44.38148" lon="6.39499">
        <ele>2004</ele>
        <time>2020-07-07T06:56:01.000Z</time>
      </trkpt>
      <trkpt lat="44.3815" lon="6.39498">
        <ele>2004</ele>
        <time>2020-07-07T06:56:02.000Z</time>
      </trkpt>
      <trkpt lat="44.38151" lon="6.39497">
        <ele>2004</ele>
        <time>2020-07-07T06:56:03.000Z</time>
      </trkpt>
      <trkpt lat="44.38152" lon="6.39496">
        <ele>2004</ele>
        <time>2020-07-07T06:56:04.000Z</time>
      </trkpt>
      <trkpt lat="44.38153" lon="6.39495">
        <ele>2004</ele>
        <time>2020-07-07T06:56:05.000Z</time>
      </trkpt>
      <trkpt lat="44.38154" lon="6.39495">
        <ele>2004</ele>
        <time>2020-07-07T06:56:06.000Z</time>
      </trkpt>
      <trkpt lat="44.38155" lon="6.39494">
        <ele>2004</ele>
        <time>2020-07-07T06:56:07.000Z</time>
      </trkpt>
      <trkpt lat="44.38155" lon="6.39493">
        <ele>2004</ele>
        <time>2020-07-07T06:56:08.000Z</time>
      </trkpt>
      <trkpt lat="44.38156" lon="6.39492">
        <ele>2004</ele>
        <time>2020-07-07T06:56:09.000Z</time>
      </trkpt>
      <trkpt lat="44.38157" lon="6.39491">
        <ele>2004</ele>
        <time>2020-07-07T06:56:10.000Z</time>
      </trkpt>
      <trkpt lat="44.38158" lon="6.39491">
        <ele>2004</ele>
        <time>2020-07-07T06:56:11.000Z</time>
      </trkpt>
      <trkpt lat="44.38159" lon="6.3949">
        <ele>2004</ele>
        <time>2020-07-07T06:56:12.000Z</time>
      </trkpt>
      <trkpt lat="44.3816" lon="6.39489">
        <ele>2003</ele>
        <time>2020-07-07T06:56:13.000Z</time>
      </trkpt>
      <trkpt lat="44.3816" lon="6.39488">
        <ele>2003</ele>
        <time>2020-07-07T06:56:14.000Z</time>
      </trkpt>
      <trkpt lat="44.38162" lon="6.39487">
        <ele>2003</ele>
        <time>2020-07-07T06:56:15.000Z</time>
      </trkpt>
      <trkpt lat="44.38162" lon="6.39486">
        <ele>2003</ele>
        <time>2020-07-07T06:56:16.000Z</time>
      </trkpt>
      <trkpt lat="44.38163" lon="6.39485">
        <ele>2003</ele>
        <time>2020-07-07T06:56:17.000Z</time>
      </trkpt>
      <trkpt lat="44.38164" lon="6.39484">
        <ele>2003</ele>
        <time>2020-07-07T06:56:18.000Z</time>
      </trkpt>
      <trkpt lat="44.38165" lon="6.39483">
        <ele>2003</ele>
        <time>2020-07-07T06:56:19.000Z</time>
      </trkpt>
      <trkpt lat="44.38166" lon="6.39482">
        <ele>2003</ele>
        <time>2020-07-07T06:56:20.000Z</time>
      </trkpt>
      <trkpt lat="44.38166" lon="6.39481">
        <ele>2003</ele>
        <time>2020-07-07T06:56:21.000Z</time>
      </trkpt>
      <trkpt lat="44.38167" lon="6.39481">
        <ele>2003</ele>
        <time>2020-07-07T06:56:22.000Z</time>
      </trkpt>
      <trkpt lat="44.38168" lon="6.3948">
        <ele>2003</ele>
        <time>2020-07-07T06:56:23.000Z</time>
      </trkpt>
      <trkpt lat="44.38169" lon="6.39479">
        <ele>2004</ele>
        <time>2020-07-07T06:56:24.000Z</time>
      </trkpt>
      <trkpt lat="44.38169" lon="6.39478">
        <ele>2004</ele>
        <time>2020-07-07T06:56:25.000Z</time>
      </trkpt>
      <trkpt lat="44.3817" lon="6.39477">
        <ele>2004</ele>
        <time>2020-07-07T06:56:26.000Z</time>
      </trkpt>
      <trkpt lat="44.38171" lon="6.39476">
        <ele>2004</ele>
        <time>2020-07-07T06:56:27.000Z</time>
      </trkpt>
      <trkpt lat="44.38172" lon="6.39475">
        <ele>2004</ele>
        <time>2020-07-07T06:56:28.000Z</time>
      </trkpt>
      <trkpt lat="44.38172" lon="6.39474">
        <ele>2004</ele>
        <time>2020-07-07T06:56:29.000Z</time>
      </trkpt>
      <trkpt lat="44.38173" lon="6.39473">
        <ele>2004</ele>
        <time>2020-07-07T06:56:30.000Z</time>
      </trkpt>
      <trkpt lat="44.38173" lon="6.39473">
        <ele>2004</ele>
        <time>2020-07-07T06:56:31.000Z</time>
      </trkpt>
      <trkpt lat="44.38174" lon="6.39472">
        <ele>2005</ele>
        <time>2020-07-07T06:56:32.000Z</time>
      </trkpt>
      <trkpt lat="44.38174" lon="6.39472">
        <ele>2005</ele>
        <time>2020-07-07T06:56:33.000Z</time>
      </trkpt>
      <trkpt lat="44.38175" lon="6.39471">
        <ele>2005</ele>
        <time>2020-07-07T06:56:34.000Z</time>
      </trkpt>
      <trkpt lat="44.38175" lon="6.3947">
        <ele>2005</ele>
        <time>2020-07-07T06:56:35.000Z</time>
      </trkpt>
      <trkpt lat="44.38175" lon="6.3947">
        <ele>2005</ele>
        <time>2020-07-07T06:56:36.000Z</time>
      </trkpt>
      <trkpt lat="44.38175" lon="6.3947">
        <ele>2005</ele>
        <time>2020-07-07T06:56:37.000Z</time>
      </trkpt>
      <trkpt lat="44.38176" lon="6.39469">
        <ele>2005</ele>
        <time>2020-07-07T06:56:38.000Z</time>
      </trkpt>
      <trkpt lat="44.38176" lon="6.39469">
        <ele>2005</ele>
        <time>2020-07-07T06:56:39.000Z</time>
      </trkpt>
      <trkpt lat="44.38176" lon="6.39469">
        <ele>2006</ele>
        <time>2020-07-07T06:56:40.000Z</time>
      </trkpt>
      <trkpt lat="44.38176" lon="6.39468">
        <ele>2006</ele>
        <time>2020-07-07T06:56:41.000Z</time>
      </trkpt>
      <trkpt lat="44.38177" lon="6.39467">
        <ele>2006</ele>
        <time>2020-07-07T06:56:42.000Z</time>
      </trkpt>
      <trkpt lat="44.38177" lon="6.39467">
        <ele>2006</ele>
        <time>2020-07-07T06:56:43.000Z</time>
      </trkpt>
      <trkpt lat="44.38178" lon="6.39467">
        <ele>2006</ele>
        <time>2020-07-07T06:56:44.000Z</time>
      </trkpt>
      <trkpt lat="44.38178" lon="6.39466">
        <ele>2006</ele>
        <time>2020-07-07T06:56:45.000Z</time>
      </trkpt>
      <trkpt lat="44.38179" lon="6.39466">
        <ele>2006</ele>
        <time>2020-07-07T06:56:46.000Z</time>
      </trkpt>
      <trkpt lat="44.3818" lon="6.39465">
        <ele>2006</ele>
        <time>2020-07-07T06:56:47.000Z</time>
      </trkpt>
      <trkpt lat="44.38181" lon="6.39465">
        <ele>2006</ele>
        <time>2020-07-07T06:56:48.000Z</time>
      </trkpt>
      <trkpt lat="44.38182" lon="6.39464">
        <ele>2006</ele>
        <time>2020-07-07T06:56:49.000Z</time>
      </trkpt>
      <trkpt lat="44.38183" lon="6.39464">
        <ele>2006</ele>
        <time>2020-07-07T06:56:50.000Z</time>
      </trkpt>
      <trkpt lat="44.38184" lon="6.39463">
        <ele>2006</ele>
        <time>2020-07-07T06:56:51.000Z</time>
      </trkpt>
      <trkpt lat="44.38185" lon="6.39463">
        <ele>2006</ele>
        <time>2020-07-07T06:56:52.000Z</time>
      </trkpt>
      <trkpt lat="44.38185" lon="6.39462">
        <ele>2006</ele>
        <time>2020-07-07T06:56:53.000Z</time>
      </trkpt>
      <trkpt lat="44.38186" lon="6.39461">
        <ele>2006</ele>
        <time>2020-07-07T06:56:54.000Z</time>
      </trkpt>
      <trkpt lat="44.38186" lon="6.39461">
        <ele>2006</ele>
        <time>2020-07-07T06:56:55.000Z</time>
      </trkpt>
      <trkpt lat="44.38187" lon="6.3946">
        <ele>2007</ele>
        <time>2020-07-07T06:56:56.000Z</time>
      </trkpt>
      <trkpt lat="44.38187" lon="6.39459">
        <ele>2007</ele>
        <time>2020-07-07T06:56:57.000Z</time>
      </trkpt>
      <trkpt lat="44.38187" lon="6.39459">
        <ele>2007</ele>
        <time>2020-07-07T06:56:58.000Z</time>
      </trkpt>
      <trkpt lat="44.38188" lon="6.39458">
        <ele>2007</ele>
        <time>2020-07-07T06:56:59.000Z</time>
      </trkpt>
      <trkpt lat="44.38189" lon="6.39457">
        <ele>2007</ele>
        <time>2020-07-07T06:57:00.000Z</time>
      </trkpt>
      <trkpt lat="44.38189" lon="6.39456">
        <ele>2007</ele>
        <time>2020-07-07T06:57:01.000Z</time>
      </trkpt>
      <trkpt lat="44.3819" lon="6.39456">
        <ele>2007</ele>
        <time>2020-07-07T06:57:02.000Z</time>
      </trkpt>
      <trkpt lat="44.3819" lon="6.39456">
        <ele>2007</ele>
        <time>2020-07-07T06:57:03.000Z</time>
      </trkpt>
      <trkpt lat="44.3819" lon="6.39455">
        <ele>2008</ele>
        <time>2020-07-07T06:57:04.000Z</time>
      </trkpt>
      <trkpt lat="44.38191" lon="6.39454">
        <ele>2008</ele>
        <time>2020-07-07T06:57:05.000Z</time>
      </trkpt>
      <trkpt lat="44.38193" lon="6.39453">
        <ele>2008</ele>
        <time>2020-07-07T06:57:06.000Z</time>
      </trkpt>
      <trkpt lat="44.38193" lon="6.39453">
        <ele>2008</ele>
        <time>2020-07-07T06:57:07.000Z</time>
      </trkpt>
      <trkpt lat="44.38194" lon="6.39451">
        <ele>2008</ele>
        <time>2020-07-07T06:57:08.000Z</time>
      </trkpt>
      <trkpt lat="44.38195" lon="6.3945">
        <ele>2009</ele>
        <time>2020-07-07T06:57:09.000Z</time>
      </trkpt>
      <trkpt lat="44.38196" lon="6.39449">
        <ele>2009</ele>
        <time>2020-07-07T06:57:10.000Z</time>
      </trkpt>
      <trkpt lat="44.38197" lon="6.39449">
        <ele>2009</ele>
        <time>2020-07-07T06:57:11.000Z</time>
      </trkpt>
      <trkpt lat="44.38198" lon="6.39448">
        <ele>2009</ele>
        <time>2020-07-07T06:57:12.000Z</time>
      </trkpt>
      <trkpt lat="44.38199" lon="6.39447">
        <ele>2010</ele>
        <time>2020-07-07T06:57:13.000Z</time>
      </trkpt>
      <trkpt lat="44.382" lon="6.39446">
        <ele>2010</ele>
        <time>2020-07-07T06:57:14.000Z</time>
      </trkpt>
      <trkpt lat="44.38201" lon="6.39445">
        <ele>2010</ele>
        <time>2020-07-07T06:57:15.000Z</time>
      </trkpt>
      <trkpt lat="44.38201" lon="6.39444">
        <ele>2010</ele>
        <time>2020-07-07T06:57:16.000Z</time>
      </trkpt>
      <trkpt lat="44.38202" lon="6.39443">
        <ele>2011</ele>
        <time>2020-07-07T06:57:17.000Z</time>
      </trkpt>
      <trkpt lat="44.38203" lon="6.39442">
        <ele>2011</ele>
        <time>2020-07-07T06:57:18.000Z</time>
      </trkpt>
      <trkpt lat="44.38204" lon="6.39441">
        <ele>2011</ele>
        <time>2020-07-07T06:57:19.000Z</time>
      </trkpt>
      <trkpt lat="44.38205" lon="6.3944">
        <ele>2011</ele>
        <time>2020-07-07T06:57:20.000Z</time>
      </trkpt>
      <trkpt lat="44.38206" lon="6.39439">
        <ele>2012</ele>
        <time>2020-07-07T06:57:21.000Z</time>
      </trkpt>
      <trkpt lat="44.38207" lon="6.39438">
        <ele>2012</ele>
        <time>2020-07-07T06:57:22.000Z</time>
      </trkpt>
      <trkpt lat="44.38208" lon="6.39437">
        <ele>2012</ele>
        <time>2020-07-07T06:57:23.000Z</time>
      </trkpt>
      <trkpt lat="44.38208" lon="6.39436">
        <ele>2013</ele>
        <time>2020-07-07T06:57:24.000Z</time>
      </trkpt>
      <trkpt lat="44.38209" lon="6.39435">
        <ele>2013</ele>
        <time>2020-07-07T06:57:25.000Z</time>
      </trkpt>
      <trkpt lat="44.38209" lon="6.39434">
        <ele>2013</ele>
        <time>2020-07-07T06:57:26.000Z</time>
      </trkpt>
      <trkpt lat="44.3821" lon="6.39433">
        <ele>2013</ele>
        <time>2020-07-07T06:57:27.000Z</time>
      </trkpt>
      <trkpt lat="44.38211" lon="6.39433">
        <ele>2014</ele>
        <time>2020-07-07T06:57:28.000Z</time>
      </trkpt>
      <trkpt lat="44.38212" lon="6.39432">
        <ele>2014</ele>
        <time>2020-07-07T06:57:29.000Z</time>
      </trkpt>
      <trkpt lat="44.38212" lon="6.39431">
        <ele>2014</ele>
        <time>2020-07-07T06:57:30.000Z</time>
      </trkpt>
      <trkpt lat="44.38212" lon="6.3943">
        <ele>2014</ele>
        <time>2020-07-07T06:57:31.000Z</time>
      </trkpt>
      <trkpt lat="44.38212" lon="6.3943">
        <ele>2014</ele>
        <time>2020-07-07T06:57:32.000Z</time>
      </trkpt>
      <trkpt lat="44.38213" lon="6.39429">
        <ele>2014</ele>
        <time>2020-07-07T06:57:33.000Z</time>
      </trkpt>
      <trkpt lat="44.38214" lon="6.39428">
        <ele>2014</ele>
        <time>2020-07-07T06:57:34.000Z</time>
      </trkpt>
      <trkpt lat="44.38215" lon="6.39427">
        <ele>2014</ele>
        <time>2020-07-07T06:57:35.000Z</time>
      </trkpt>
      <trkpt lat="44.38216" lon="6.39426">
        <ele>2014</ele>
        <time>2020-07-07T06:57:36.000Z</time>
      </trkpt>
      <trkpt lat="44.38217" lon="6.39426">
        <ele>2014</ele>
        <time>2020-07-07T06:57:37.000Z</time>
      </trkpt>
      <trkpt lat="44.38217" lon="6.39425">
        <ele>2014</ele>
        <time>2020-07-07T06:57:38.000Z</time>
      </trkpt>
      <trkpt lat="44.38218" lon="6.39424">
        <ele>2014</ele>
        <time>2020-07-07T06:57:39.000Z</time>
      </trkpt>
      <trkpt lat="44.38218" lon="6.39424">
        <ele>2014</ele>
        <time>2020-07-07T06:57:40.000Z</time>
      </trkpt>
      <trkpt lat="44.38218" lon="6.39423">
        <ele>2014</ele>
        <time>2020-07-07T06:57:41.000Z</time>
      </trkpt>
      <trkpt lat="44.38219" lon="6.39423">
        <ele>2014</ele>
        <time>2020-07-07T06:57:42.000Z</time>
      </trkpt>
      <trkpt lat="44.3822" lon="6.39422">
        <ele>2014</ele>
        <time>2020-07-07T06:57:43.000Z</time>
      </trkpt>
      <trkpt lat="44.38221" lon="6.39421">
        <ele>2014</ele>
        <time>2020-07-07T06:57:44.000Z</time>
      </trkpt>
      <trkpt lat="44.38222" lon="6.3942">
        <ele>2014</ele>
        <time>2020-07-07T06:57:45.000Z</time>
      </trkpt>
      <trkpt lat="44.38222" lon="6.3942">
        <ele>2014</ele>
        <time>2020-07-07T06:57:46.000Z</time>
      </trkpt>
      <trkpt lat="44.38223" lon="6.39419">
        <ele>2015</ele>
        <time>2020-07-07T06:57:47.000Z</time>
      </trkpt>
      <trkpt lat="44.38224" lon="6.39419">
        <ele>2015</ele>
        <time>2020-07-07T06:57:48.000Z</time>
      </trkpt>
      <trkpt lat="44.38224" lon="6.39418">
        <ele>2015</ele>
        <time>2020-07-07T06:57:49.000Z</time>
      </trkpt>
      <trkpt lat="44.38225" lon="6.39417">
        <ele>2015</ele>
        <time>2020-07-07T06:57:50.000Z</time>
      </trkpt>
      <trkpt lat="44.38226" lon="6.39416">
        <ele>2015</ele>
        <time>2020-07-07T06:57:51.000Z</time>
      </trkpt>
      <trkpt lat="44.38226" lon="6.39415">
        <ele>2015</ele>
        <time>2020-07-07T06:57:52.000Z</time>
      </trkpt>
      <trkpt lat="44.38227" lon="6.39414">
        <ele>2015</ele>
        <time>2020-07-07T06:57:53.000Z</time>
      </trkpt>
      <trkpt lat="44.38228" lon="6.39413">
        <ele>2015</ele>
        <time>2020-07-07T06:57:54.000Z</time>
      </trkpt>
      <trkpt lat="44.38229" lon="6.39413">
        <ele>2015</ele>
        <time>2020-07-07T06:57:55.000Z</time>
      </trkpt>
      <trkpt lat="44.38229" lon="6.39412">
        <ele>2015</ele>
        <time>2020-07-07T06:57:56.000Z</time>
      </trkpt>
      <trkpt lat="44.3823" lon="6.39412">
        <ele>2015</ele>
        <time>2020-07-07T06:57:57.000Z</time>
      </trkpt>
      <trkpt lat="44.38231" lon="6.39412">
        <ele>2015</ele>
        <time>2020-07-07T06:57:58.000Z</time>
      </trkpt>
      <trkpt lat="44.38231" lon="6.39411">
        <ele>2015</ele>
        <time>2020-07-07T06:57:59.000Z</time>
      </trkpt>
      <trkpt lat="44.38231" lon="6.39411">
        <ele>2015</ele>
        <time>2020-07-07T06:58:00.000Z</time>
      </trkpt>
      <trkpt lat="44.38232" lon="6.39411">
        <ele>2015</ele>
        <time>2020-07-07T06:58:01.000Z</time>
      </trkpt>
      <trkpt lat="44.38233" lon="6.39411">
        <ele>2015</ele>
        <time>2020-07-07T06:58:02.000Z</time>
      </trkpt>
      <trkpt lat="44.38233" lon="6.3941">
        <ele>2015</ele>
        <time>2020-07-07T06:58:03.000Z</time>
      </trkpt>
      <trkpt lat="44.38234" lon="6.3941">
        <ele>2015</ele>
        <time>2020-07-07T06:58:04.000Z</time>
      </trkpt>
      <trkpt lat="44.38235" lon="6.3941">
        <ele>2015</ele>
        <time>2020-07-07T06:58:05.000Z</time>
      </trkpt>
      <trkpt lat="44.38235" lon="6.39409">
        <ele>2015</ele>
        <time>2020-07-07T06:58:06.000Z</time>
      </trkpt>
      <trkpt lat="44.38236" lon="6.39409">
        <ele>2015</ele>
        <time>2020-07-07T06:58:07.000Z</time>
      </trkpt>
      <trkpt lat="44.38237" lon="6.39409">
        <ele>2015</ele>
        <time>2020-07-07T06:58:08.000Z</time>
      </trkpt>
      <trkpt lat="44.38237" lon="6.39408">
        <ele>2015</ele>
        <time>2020-07-07T06:58:09.000Z</time>
      </trkpt>
      <trkpt lat="44.38238" lon="6.39408">
        <ele>2016</ele>
        <time>2020-07-07T06:58:10.000Z</time>
      </trkpt>
      <trkpt lat="44.38239" lon="6.39407">
        <ele>2016</ele>
        <time>2020-07-07T06:58:11.000Z</time>
      </trkpt>
      <trkpt lat="44.38239" lon="6.39406">
        <ele>2016</ele>
        <time>2020-07-07T06:58:12.000Z</time>
      </trkpt>
      <trkpt lat="44.3824" lon="6.39405">
        <ele>2016</ele>
        <time>2020-07-07T06:58:13.000Z</time>
      </trkpt>
      <trkpt lat="44.38241" lon="6.39404">
        <ele>2016</ele>
        <time>2020-07-07T06:58:14.000Z</time>
      </trkpt>
      <trkpt lat="44.38242" lon="6.39404">
        <ele>2016</ele>
        <time>2020-07-07T06:58:15.000Z</time>
      </trkpt>
      <trkpt lat="44.38242" lon="6.39402">
        <ele>2016</ele>
        <time>2020-07-07T06:58:16.000Z</time>
      </trkpt>
      <trkpt lat="44.38243" lon="6.39401">
        <ele>2016</ele>
        <time>2020-07-07T06:58:17.000Z</time>
      </trkpt>
      <trkpt lat="44.38243" lon="6.394">
        <ele>2016</ele>
        <time>2020-07-07T06:58:18.000Z</time>
      </trkpt>
      <trkpt lat="44.38244" lon="6.394">
        <ele>2016</ele>
        <time>2020-07-07T06:58:19.000Z</time>
      </trkpt>
      <trkpt lat="44.38245" lon="6.39399">
        <ele>2016</ele>
        <time>2020-07-07T06:58:20.000Z</time>
      </trkpt>
      <trkpt lat="44.38246" lon="6.39398">
        <ele>2017</ele>
        <time>2020-07-07T06:58:21.000Z</time>
      </trkpt>
      <trkpt lat="44.38247" lon="6.39397">
        <ele>2017</ele>
        <time>2020-07-07T06:58:22.000Z</time>
      </trkpt>
      <trkpt lat="44.38248" lon="6.39396">
        <ele>2017</ele>
        <time>2020-07-07T06:58:23.000Z</time>
      </trkpt>
      <trkpt lat="44.38249" lon="6.39395">
        <ele>2017</ele>
        <time>2020-07-07T06:58:24.000Z</time>
      </trkpt>
      <trkpt lat="44.3825" lon="6.39394">
        <ele>2017</ele>
        <time>2020-07-07T06:58:25.000Z</time>
      </trkpt>
      <trkpt lat="44.38251" lon="6.39394">
        <ele>2017</ele>
        <time>2020-07-07T06:58:26.000Z</time>
      </trkpt>
      <trkpt lat="44.38252" lon="6.39393">
        <ele>2017</ele>
        <time>2020-07-07T06:58:27.000Z</time>
      </trkpt>
      <trkpt lat="44.38253" lon="6.39392">
        <ele>2017</ele>
        <time>2020-07-07T06:58:28.000Z</time>
      </trkpt>
      <trkpt lat="44.38254" lon="6.39391">
        <ele>2017</ele>
        <time>2020-07-07T06:58:29.000Z</time>
      </trkpt>
      <trkpt lat="44.38255" lon="6.3939">
        <ele>2017</ele>
        <time>2020-07-07T06:58:30.000Z</time>
      </trkpt>
      <trkpt lat="44.38255" lon="6.39389">
        <ele>2017</ele>
        <time>2020-07-07T06:58:31.000Z</time>
      </trkpt>
      <trkpt lat="44.38256" lon="6.39388">
        <ele>2017</ele>
        <time>2020-07-07T06:58:32.000Z</time>
      </trkpt>
      <trkpt lat="44.38257" lon="6.39388">
        <ele>2017</ele>
        <time>2020-07-07T06:58:33.000Z</time>
      </trkpt>
      <trkpt lat="44.38257" lon="6.39388">
        <ele>2017</ele>
        <time>2020-07-07T06:58:34.000Z</time>
      </trkpt>
      <trkpt lat="44.38258" lon="6.39387">
        <ele>2017</ele>
        <time>2020-07-07T06:58:35.000Z</time>
      </trkpt>
      <trkpt lat="44.38259" lon="6.39387">
        <ele>2017</ele>
        <time>2020-07-07T06:58:36.000Z</time>
      </trkpt>
      <trkpt lat="44.38259" lon="6.39386">
        <ele>2017</ele>
        <time>2020-07-07T06:58:37.000Z</time>
      </trkpt>
      <trkpt lat="44.3826" lon="6.39386">
        <ele>2017</ele>
        <time>2020-07-07T06:58:38.000Z</time>
      </trkpt>
      <trkpt lat="44.38261" lon="6.39386">
        <ele>2017</ele>
        <time>2020-07-07T06:58:39.000Z</time>
      </trkpt>
      <trkpt lat="44.38262" lon="6.39385">
        <ele>2017</ele>
        <time>2020-07-07T06:58:40.000Z</time>
      </trkpt>
      <trkpt lat="44.38263" lon="6.39385">
        <ele>2018</ele>
        <time>2020-07-07T06:58:41.000Z</time>
      </trkpt>
      <trkpt lat="44.38263" lon="6.39385">
        <ele>2018</ele>
        <time>2020-07-07T06:58:42.000Z</time>
      </trkpt>
      <trkpt lat="44.38264" lon="6.39384">
        <ele>2018</ele>
        <time>2020-07-07T06:58:43.000Z</time>
      </trkpt>
      <trkpt lat="44.38265" lon="6.39383">
        <ele>2018</ele>
        <time>2020-07-07T06:58:44.000Z</time>
      </trkpt>
      <trkpt lat="44.38266" lon="6.39383">
        <ele>2018</ele>
        <time>2020-07-07T06:58:45.000Z</time>
      </trkpt>
      <trkpt lat="44.38267" lon="6.39382">
        <ele>2018</ele>
        <time>2020-07-07T06:58:46.000Z</time>
      </trkpt>
      <trkpt lat="44.38268" lon="6.39382">
        <ele>2018</ele>
        <time>2020-07-07T06:58:47.000Z</time>
      </trkpt>
      <trkpt lat="44.38269" lon="6.39381">
        <ele>2019</ele>
        <time>2020-07-07T06:58:48.000Z</time>
      </trkpt>
      <trkpt lat="44.38269" lon="6.39381">
        <ele>2019</ele>
        <time>2020-07-07T06:58:49.000Z</time>
      </trkpt>
      <trkpt lat="44.3827" lon="6.39381">
        <ele>2019</ele>
        <time>2020-07-07T06:58:50.000Z</time>
      </trkpt>
      <trkpt lat="44.3827" lon="6.39381">
        <ele>2019</ele>
        <time>2020-07-07T06:58:51.000Z</time>
      </trkpt>
      <trkpt lat="44.3827" lon="6.3938">
        <ele>2019</ele>
        <time>2020-07-07T06:58:52.000Z</time>
      </trkpt>
      <trkpt lat="44.3827" lon="6.3938">
        <ele>2020</ele>
        <time>2020-07-07T06:58:53.000Z</time>
      </trkpt>
      <trkpt lat="44.3827" lon="6.39379">
        <ele>2020</ele>
        <time>2020-07-07T06:58:54.000Z</time>
      </trkpt>
      <trkpt lat="44.38271" lon="6.39379">
        <ele>2020</ele>
        <time>2020-07-07T06:58:55.000Z</time>
      </trkpt>
      <trkpt lat="44.38271" lon="6.39379">
        <ele>2020</ele>
        <time>2020-07-07T06:58:56.000Z</time>
      </trkpt>
      <trkpt lat="44.38271" lon="6.39379">
        <ele>2020</ele>
        <time>2020-07-07T06:58:57.000Z</time>
      </trkpt>
      <trkpt lat="44.38272" lon="6.39379">
        <ele>2020</ele>
        <time>2020-07-07T06:58:58.000Z</time>
      </trkpt>
      <trkpt lat="44.38272" lon="6.39379">
        <ele>2020</ele>
        <time>2020-07-07T06:58:59.000Z</time>
      </trkpt>
      <trkpt lat="44.38272" lon="6.39379">
        <ele>2020</ele>
        <time>2020-07-07T06:59:00.000Z</time>
      </trkpt>
      <trkpt lat="44.38272" lon="6.39378">
        <ele>2020</ele>
        <time>2020-07-07T06:59:01.000Z</time>
      </trkpt>
      <trkpt lat="44.38273" lon="6.39378">
        <ele>2020</ele>
        <time>2020-07-07T06:59:02.000Z</time>
      </trkpt>
      <trkpt lat="44.38273" lon="6.39378">
        <ele>2021</ele>
        <time>2020-07-07T06:59:03.000Z</time>
      </trkpt>
      <trkpt lat="44.38274" lon="6.39378">
        <ele>2021</ele>
        <time>2020-07-07T06:59:04.000Z</time>
      </trkpt>
      <trkpt lat="44.38275" lon="6.39378">
        <ele>2021</ele>
        <time>2020-07-07T06:59:05.000Z</time>
      </trkpt>
      <trkpt lat="44.38276" lon="6.39377">
        <ele>2021</ele>
        <time>2020-07-07T06:59:06.000Z</time>
      </trkpt>
      <trkpt lat="44.38277" lon="6.39377">
        <ele>2021</ele>
        <time>2020-07-07T06:59:07.000Z</time>
      </trkpt>
      <trkpt lat="44.38278" lon="6.39377">
        <ele>2021</ele>
        <time>2020-07-07T06:59:08.000Z</time>
      </trkpt>
      <trkpt lat="44.38279" lon="6.39378">
        <ele>2022</ele>
        <time>2020-07-07T06:59:09.000Z</time>
      </trkpt>
      <trkpt lat="44.3828" lon="6.39378">
        <ele>2022</ele>
        <time>2020-07-07T06:59:10.000Z</time>
      </trkpt>
      <trkpt lat="44.38282" lon="6.39378">
        <ele>2022</ele>
        <time>2020-07-07T06:59:11.000Z</time>
      </trkpt>
      <trkpt lat="44.38283" lon="6.39378">
        <ele>2022</ele>
        <time>2020-07-07T06:59:12.000Z</time>
      </trkpt>
      <trkpt lat="44.38284" lon="6.39378">
        <ele>2022</ele>
        <time>2020-07-07T06:59:13.000Z</time>
      </trkpt>
      <trkpt lat="44.38285" lon="6.39378">
        <ele>2022</ele>
        <time>2020-07-07T06:59:14.000Z</time>
      </trkpt>
      <trkpt lat="44.38286" lon="6.39378">
        <ele>2022</ele>
        <time>2020-07-07T06:59:15.000Z</time>
      </trkpt>
      <trkpt lat="44.38287" lon="6.39378">
        <ele>2022</ele>
        <time>2020-07-07T06:59:16.000Z</time>
      </trkpt>
      <trkpt lat="44.38287" lon="6.39379">
        <ele>2022</ele>
        <time>2020-07-07T06:59:17.000Z</time>
      </trkpt>
      <trkpt lat="44.38288" lon="6.39379">
        <ele>2022</ele>
        <time>2020-07-07T06:59:18.000Z</time>
      </trkpt>
      <trkpt lat="44.38289" lon="6.39379">
        <ele>2022</ele>
        <time>2020-07-07T06:59:19.000Z</time>
      </trkpt>
      <trkpt lat="44.3829" lon="6.39378">
        <ele>2022</ele>
        <time>2020-07-07T06:59:20.000Z</time>
      </trkpt>
      <trkpt lat="44.38291" lon="6.39379">
        <ele>2022</ele>
        <time>2020-07-07T06:59:21.000Z</time>
      </trkpt>
      <trkpt lat="44.38292" lon="6.39379">
        <ele>2022</ele>
        <time>2020-07-07T06:59:22.000Z</time>
      </trkpt>
      <trkpt lat="44.38293" lon="6.39379">
        <ele>2022</ele>
        <time>2020-07-07T06:59:23.000Z</time>
      </trkpt>
      <trkpt lat="44.38294" lon="6.3938">
        <ele>2022</ele>
        <time>2020-07-07T06:59:24.000Z</time>
      </trkpt>
      <trkpt lat="44.38294" lon="6.3938">
        <ele>2023</ele>
        <time>2020-07-07T06:59:25.000Z</time>
      </trkpt>
      <trkpt lat="44.38295" lon="6.3938">
        <ele>2023</ele>
        <time>2020-07-07T06:59:26.000Z</time>
      </trkpt>
      <trkpt lat="44.38296" lon="6.3938">
        <ele>2023</ele>
        <time>2020-07-07T06:59:27.000Z</time>
      </trkpt>
      <trkpt lat="44.38296" lon="6.3938">
        <ele>2023</ele>
        <time>2020-07-07T06:59:28.000Z</time>
      </trkpt>
      <trkpt lat="44.38297" lon="6.39381">
        <ele>2023</ele>
        <time>2020-07-07T06:59:29.000Z</time>
      </trkpt>
      <trkpt lat="44.38298" lon="6.39381">
        <ele>2023</ele>
        <time>2020-07-07T06:59:30.000Z</time>
      </trkpt>
      <trkpt lat="44.38299" lon="6.39381">
        <ele>2023</ele>
        <time>2020-07-07T06:59:31.000Z</time>
      </trkpt>
      <trkpt lat="44.383" lon="6.39381">
        <ele>2023</ele>
        <time>2020-07-07T06:59:32.000Z</time>
      </trkpt>
      <trkpt lat="44.38301" lon="6.39381">
        <ele>2023</ele>
        <time>2020-07-07T06:59:33.000Z</time>
      </trkpt>
      <trkpt lat="44.38301" lon="6.39381">
        <ele>2024</ele>
        <time>2020-07-07T06:59:34.000Z</time>
      </trkpt>
      <trkpt lat="44.38302" lon="6.39382">
        <ele>2024</ele>
        <time>2020-07-07T06:59:35.000Z</time>
      </trkpt>
      <trkpt lat="44.38302" lon="6.39382">
        <ele>2024</ele>
        <time>2020-07-07T06:59:36.000Z</time>
      </trkpt>
      <trkpt lat="44.38303" lon="6.39382">
        <ele>2024</ele>
        <time>2020-07-07T06:59:37.000Z</time>
      </trkpt>
      <trkpt lat="44.38303" lon="6.39382">
        <ele>2024</ele>
        <time>2020-07-07T06:59:38.000Z</time>
      </trkpt>
      <trkpt lat="44.38304" lon="6.39382">
        <ele>2024</ele>
        <time>2020-07-07T06:59:39.000Z</time>
      </trkpt>
      <trkpt lat="44.38304" lon="6.39382">
        <ele>2024</ele>
        <time>2020-07-07T06:59:40.000Z</time>
      </trkpt>
      <trkpt lat="44.38305" lon="6.39382">
        <ele>2024</ele>
        <time>2020-07-07T06:59:41.000Z</time>
      </trkpt>
      <trkpt lat="44.38306" lon="6.39382">
        <ele>2024</ele>
        <time>2020-07-07T06:59:42.000Z</time>
      </trkpt>
      <trkpt lat="44.38306" lon="6.39383">
        <ele>2025</ele>
        <time>2020-07-07T06:59:43.000Z</time>
      </trkpt>
      <trkpt lat="44.38306" lon="6.39383">
        <ele>2025</ele>
        <time>2020-07-07T06:59:44.000Z</time>
      </trkpt>
      <trkpt lat="44.38306" lon="6.39383">
        <ele>2025</ele>
        <time>2020-07-07T06:59:45.000Z</time>
      </trkpt>
      <trkpt lat="44.38306" lon="6.39383">
        <ele>2025</ele>
        <time>2020-07-07T06:59:46.000Z</time>
      </trkpt>
      <trkpt lat="44.38306" lon="6.39383">
        <ele>2025</ele>
        <time>2020-07-07T06:59:47.000Z</time>
      </trkpt>
      <trkpt lat="44.38306" lon="6.39383">
        <ele>2025</ele>
        <time>2020-07-07T06:59:48.000Z</time>
      </trkpt>
      <trkpt lat="44.38307" lon="6.39383">
        <ele>2025</ele>
        <time>2020-07-07T06:59:49.000Z</time>
      </trkpt>
      <trkpt lat="44.38307" lon="6.39383">
        <ele>2025</ele>
        <time>2020-07-07T06:59:50.000Z</time>
      </trkpt>
      <trkpt lat="44.38308" lon="6.39383">
        <ele>2025</ele>
        <time>2020-07-07T06:59:51.000Z</time>
      </trkpt>
      <trkpt lat="44.38308" lon="6.39383">
        <ele>2025</ele>
        <time>2020-07-07T06:59:52.000Z</time>
      </trkpt>
      <trkpt lat="44.38309" lon="6.39383">
        <ele>2025</ele>
        <time>2020-07-07T06:59:53.000Z</time>
      </trkpt>
      <trkpt lat="44.38311" lon="6.39384">
        <ele>2025</ele>
        <time>2020-07-07T06:59:54.000Z</time>
      </trkpt>
      <trkpt lat="44.38312" lon="6.39384">
        <ele>2026</ele>
        <time>2020-07-07T06:59:55.000Z</time>
      </trkpt>
      <trkpt lat="44.38313" lon="6.39385">
        <ele>2026</ele>
        <time>2020-07-07T06:59:56.000Z</time>
      </trkpt>
      <trkpt lat="44.38314" lon="6.39386">
        <ele>2026</ele>
        <time>2020-07-07T06:59:57.000Z</time>
      </trkpt>
      <trkpt lat="44.38315" lon="6.39386">
        <ele>2026</ele>
        <time>2020-07-07T06:59:58.000Z</time>
      </trkpt>
      <trkpt lat="44.38316" lon="6.39386">
        <ele>2026</ele>
        <time>2020-07-07T06:59:59.000Z</time>
      </trkpt>
      <trkpt lat="44.38317" lon="6.39386">
        <ele>2026</ele>
        <time>2020-07-07T07:00:00.000Z</time>
      </trkpt>
      <trkpt lat="44.38318" lon="6.39387">
        <ele>2026</ele>
        <time>2020-07-07T07:00:01.000Z</time>
      </trkpt>
      <trkpt lat="44.38319" lon="6.39387">
        <ele>2026</ele>
        <time>2020-07-07T07:00:02.000Z</time>
      </trkpt>
      <trkpt lat="44.3832" lon="6.39387">
        <ele>2027</ele>
        <time>2020-07-07T07:00:03.000Z</time>
      </trkpt>
      <trkpt lat="44.38321" lon="6.39387">
        <ele>2027</ele>
        <time>2020-07-07T07:00:04.000Z</time>
      </trkpt>
      <trkpt lat="44.38322" lon="6.39387">
        <ele>2027</ele>
        <time>2020-07-07T07:00:05.000Z</time>
      </trkpt>
      <trkpt lat="44.38323" lon="6.39387">
        <ele>2027</ele>
        <time>2020-07-07T07:00:06.000Z</time>
      </trkpt>
      <trkpt lat="44.38324" lon="6.39387">
        <ele>2027</ele>
        <time>2020-07-07T07:00:07.000Z</time>
      </trkpt>
      <trkpt lat="44.38324" lon="6.39387">
        <ele>2027</ele>
        <time>2020-07-07T07:00:08.000Z</time>
      </trkpt>
      <trkpt lat="44.38325" lon="6.39388">
        <ele>2028</ele>
        <time>2020-07-07T07:00:09.000Z</time>
      </trkpt>
      <trkpt lat="44.38326" lon="6.39387">
        <ele>2028</ele>
        <time>2020-07-07T07:00:10.000Z</time>
      </trkpt>
      <trkpt lat="44.38326" lon="6.39387">
        <ele>2028</ele>
        <time>2020-07-07T07:00:11.000Z</time>
      </trkpt>
      <trkpt lat="44.38327" lon="6.39388">
        <ele>2028</ele>
        <time>2020-07-07T07:00:12.000Z</time>
      </trkpt>
      <trkpt lat="44.38329" lon="6.39389">
        <ele>2028</ele>
        <time>2020-07-07T07:00:13.000Z</time>
      </trkpt>
      <trkpt lat="44.38329" lon="6.39389">
        <ele>2028</ele>
        <time>2020-07-07T07:00:14.000Z</time>
      </trkpt>
      <trkpt lat="44.3833" lon="6.39388">
        <ele>2028</ele>
        <time>2020-07-07T07:00:15.000Z</time>
      </trkpt>
      <trkpt lat="44.38331" lon="6.39388">
        <ele>2028</ele>
        <time>2020-07-07T07:00:16.000Z</time>
      </trkpt>
      <trkpt lat="44.38332" lon="6.39388">
        <ele>2028</ele>
        <time>2020-07-07T07:00:17.000Z</time>
      </trkpt>
      <trkpt lat="44.38333" lon="6.39388">
        <ele>2028</ele>
        <time>2020-07-07T07:00:18.000Z</time>
      </trkpt>
      <trkpt lat="44.38334" lon="6.39388">
        <ele>2028</ele>
        <time>2020-07-07T07:00:19.000Z</time>
      </trkpt>
      <trkpt lat="44.38335" lon="6.39388">
        <ele>2028</ele>
        <time>2020-07-07T07:00:20.000Z</time>
      </trkpt>
      <trkpt lat="44.38335" lon="6.39388">
        <ele>2028</ele>
        <time>2020-07-07T07:00:21.000Z</time>
      </trkpt>
      <trkpt lat="44.38336" lon="6.39388">
        <ele>2028</ele>
        <time>2020-07-07T07:00:22.000Z</time>
      </trkpt>
      <trkpt lat="44.38337" lon="6.39388">
        <ele>2028</ele>
        <time>2020-07-07T07:00:23.000Z</time>
      </trkpt>
      <trkpt lat="44.38338" lon="6.39387">
        <ele>2029</ele>
        <time>2020-07-07T07:00:24.000Z</time>
      </trkpt>
      <trkpt lat="44.38339" lon="6.39387">
        <ele>2029</ele>
        <time>2020-07-07T07:00:25.000Z</time>
      </trkpt>
      <trkpt lat="44.3834" lon="6.39387">
        <ele>2029</ele>
        <time>2020-07-07T07:00:26.000Z</time>
      </trkpt>
      <trkpt lat="44.38341" lon="6.39387">
        <ele>2029</ele>
        <time>2020-07-07T07:00:27.000Z</time>
      </trkpt>
      <trkpt lat="44.38343" lon="6.39387">
        <ele>2029</ele>
        <time>2020-07-07T07:00:28.000Z</time>
      </trkpt>
      <trkpt lat="44.38343" lon="6.39386">
        <ele>2029</ele>
        <time>2020-07-07T07:00:29.000Z</time>
      </trkpt>
      <trkpt lat="44.38344" lon="6.39386">
        <ele>2029</ele>
        <time>2020-07-07T07:00:30.000Z</time>
      </trkpt>
      <trkpt lat="44.38345" lon="6.39385">
        <ele>2029</ele>
        <time>2020-07-07T07:00:31.000Z</time>
      </trkpt>
      <trkpt lat="44.38346" lon="6.39385">
        <ele>2029</ele>
        <time>2020-07-07T07:00:32.000Z</time>
      </trkpt>
      <trkpt lat="44.38346" lon="6.39384">
        <ele>2029</ele>
        <time>2020-07-07T07:00:33.000Z</time>
      </trkpt>
      <trkpt lat="44.38347" lon="6.39383">
        <ele>2030</ele>
        <time>2020-07-07T07:00:34.000Z</time>
      </trkpt>
      <trkpt lat="44.38348" lon="6.39383">
        <ele>2030</ele>
        <time>2020-07-07T07:00:35.000Z</time>
      </trkpt>
      <trkpt lat="44.38349" lon="6.39383">
        <ele>2030</ele>
        <time>2020-07-07T07:00:36.000Z</time>
      </trkpt>
      <trkpt lat="44.3835" lon="6.39382">
        <ele>2030</ele>
        <time>2020-07-07T07:00:37.000Z</time>
      </trkpt>
      <trkpt lat="44.38351" lon="6.39382">
        <ele>2030</ele>
        <time>2020-07-07T07:00:38.000Z</time>
      </trkpt>
      <trkpt lat="44.38352" lon="6.39382">
        <ele>2030</ele>
        <time>2020-07-07T07:00:39.000Z</time>
      </trkpt>
      <trkpt lat="44.38353" lon="6.39381">
        <ele>2030</ele>
        <time>2020-07-07T07:00:40.000Z</time>
      </trkpt>
      <trkpt lat="44.38353" lon="6.39381">
        <ele>2030</ele>
        <time>2020-07-07T07:00:41.000Z</time>
      </trkpt>
      <trkpt lat="44.38354" lon="6.3938">
        <ele>2030</ele>
        <time>2020-07-07T07:00:42.000Z</time>
      </trkpt>
      <trkpt lat="44.38355" lon="6.3938">
        <ele>2031</ele>
        <time>2020-07-07T07:00:43.000Z</time>
      </trkpt>
      <trkpt lat="44.38356" lon="6.39379">
        <ele>2031</ele>
        <time>2020-07-07T07:00:44.000Z</time>
      </trkpt>
      <trkpt lat="44.38357" lon="6.39379">
        <ele>2031</ele>
        <time>2020-07-07T07:00:45.000Z</time>
      </trkpt>
      <trkpt lat="44.38358" lon="6.39379">
        <ele>2031</ele>
        <time>2020-07-07T07:00:46.000Z</time>
      </trkpt>
      <trkpt lat="44.38359" lon="6.39378">
        <ele>2031</ele>
        <time>2020-07-07T07:00:47.000Z</time>
      </trkpt>
      <trkpt lat="44.3836" lon="6.39378">
        <ele>2031</ele>
        <time>2020-07-07T07:00:48.000Z</time>
      </trkpt>
      <trkpt lat="44.38361" lon="6.39378">
        <ele>2031</ele>
        <time>2020-07-07T07:00:49.000Z</time>
      </trkpt>
      <trkpt lat="44.38362" lon="6.39377">
        <ele>2031</ele>
        <time>2020-07-07T07:00:50.000Z</time>
      </trkpt>
      <trkpt lat="44.38363" lon="6.39377">
        <ele>2031</ele>
        <time>2020-07-07T07:00:51.000Z</time>
      </trkpt>
      <trkpt lat="44.38364" lon="6.39376">
        <ele>2032</ele>
        <time>2020-07-07T07:00:52.000Z</time>
      </trkpt>
      <trkpt lat="44.38364" lon="6.39376">
        <ele>2032</ele>
        <time>2020-07-07T07:00:53.000Z</time>
      </trkpt>
      <trkpt lat="44.38365" lon="6.39377">
        <ele>2032</ele>
        <time>2020-07-07T07:00:54.000Z</time>
      </trkpt>
      <trkpt lat="44.38366" lon="6.39376">
        <ele>2032</ele>
        <time>2020-07-07T07:00:55.000Z</time>
      </trkpt>
      <trkpt lat="44.38367" lon="6.39376">
        <ele>2032</ele>
        <time>2020-07-07T07:00:56.000Z</time>
      </trkpt>
      <trkpt lat="44.38367" lon="6.39375">
        <ele>2032</ele>
        <time>2020-07-07T07:00:57.000Z</time>
      </trkpt>
      <trkpt lat="44.38368" lon="6.39375">
        <ele>2032</ele>
        <time>2020-07-07T07:00:58.000Z</time>
      </trkpt>
      <trkpt lat="44.38369" lon="6.39375">
        <ele>2032</ele>
        <time>2020-07-07T07:00:59.000Z</time>
      </trkpt>
      <trkpt lat="44.3837" lon="6.39375">
        <ele>2033</ele>
        <time>2020-07-07T07:01:00.000Z</time>
      </trkpt>
      <trkpt lat="44.38371" lon="6.39375">
        <ele>2033</ele>
        <time>2020-07-07T07:01:01.000Z</time>
      </trkpt>
      <trkpt lat="44.38372" lon="6.39376">
        <ele>2033</ele>
        <time>2020-07-07T07:01:02.000Z</time>
      </trkpt>
      <trkpt lat="44.38372" lon="6.39376">
        <ele>2033</ele>
        <time>2020-07-07T07:01:03.000Z</time>
      </trkpt>
      <trkpt lat="44.38372" lon="6.39376">
        <ele>2033</ele>
        <time>2020-07-07T07:01:04.000Z</time>
      </trkpt>
      <trkpt lat="44.38372" lon="6.39376">
        <ele>2033</ele>
        <time>2020-07-07T07:01:05.000Z</time>
      </trkpt>
      <trkpt lat="44.38372" lon="6.39376">
        <ele>2033</ele>
        <time>2020-07-07T07:01:06.000Z</time>
      </trkpt>
      <trkpt lat="44.38372" lon="6.39376">
        <ele>2033</ele>
        <time>2020-07-07T07:01:07.000Z</time>
      </trkpt>
      <trkpt lat="44.38372" lon="6.39376">
        <ele>2034</ele>
        <time>2020-07-07T07:01:08.000Z</time>
      </trkpt>
      <trkpt lat="44.38372" lon="6.39376">
        <ele>2034</ele>
        <time>2020-07-07T07:01:09.000Z</time>
      </trkpt>
      <trkpt lat="44.38373" lon="6.39376">
        <ele>2034</ele>
        <time>2020-07-07T07:01:10.000Z</time>
      </trkpt>
      <trkpt lat="44.38373" lon="6.39376">
        <ele>2034</ele>
        <time>2020-07-07T07:01:11.000Z</time>
      </trkpt>
      <trkpt lat="44.38373" lon="6.39376">
        <ele>2034</ele>
        <time>2020-07-07T07:01:12.000Z</time>
      </trkpt>
      <trkpt lat="44.38373" lon="6.39376">
        <ele>2034</ele>
        <time>2020-07-07T07:01:13.000Z</time>
      </trkpt>
      <trkpt lat="44.38373" lon="6.39376">
        <ele>2034</ele>
        <time>2020-07-07T07:01:14.000Z</time>
      </trkpt>
      <trkpt lat="44.38373" lon="6.39375">
        <ele>2034</ele>
        <time>2020-07-07T07:01:15.000Z</time>
      </trkpt>
      <trkpt lat="44.38374" lon="6.39376">
        <ele>2034</ele>
        <time>2020-07-07T07:01:16.000Z</time>
      </trkpt>
      <trkpt lat="44.38374" lon="6.39376">
        <ele>2034</ele>
        <time>2020-07-07T07:01:17.000Z</time>
      </trkpt>
      <trkpt lat="44.38375" lon="6.39376">
        <ele>2034</ele>
        <time>2020-07-07T07:01:18.000Z</time>
      </trkpt>
      <trkpt lat="44.38376" lon="6.39376">
        <ele>2034</ele>
        <time>2020-07-07T07:01:19.000Z</time>
      </trkpt>
      <trkpt lat="44.38377" lon="6.39377">
        <ele>2034</ele>
        <time>2020-07-07T07:01:20.000Z</time>
      </trkpt>
      <trkpt lat="44.38377" lon="6.39378">
        <ele>2034</ele>
        <time>2020-07-07T07:01:21.000Z</time>
      </trkpt>
      <trkpt lat="44.38376" lon="6.39378">
        <ele>2035</ele>
        <time>2020-07-07T07:01:22.000Z</time>
      </trkpt>
      <trkpt lat="44.38376" lon="6.39378">
        <ele>2035</ele>
        <time>2020-07-07T07:01:23.000Z</time>
      </trkpt>
      <trkpt lat="44.38377" lon="6.39378">
        <ele>2035</ele>
        <time>2020-07-07T07:01:24.000Z</time>
      </trkpt>
      <trkpt lat="44.38377" lon="6.39378">
        <ele>2035</ele>
        <time>2020-07-07T07:01:25.000Z</time>
      </trkpt>
      <trkpt lat="44.38377" lon="6.39378">
        <ele>2035</ele>
        <time>2020-07-07T07:01:26.000Z</time>
      </trkpt>
      <trkpt lat="44.38377" lon="6.39378">
        <ele>2035</ele>
        <time>2020-07-07T07:01:27.000Z</time>
      </trkpt>
      <trkpt lat="44.38377" lon="6.39378">
        <ele>2036</ele>
        <time>2020-07-07T07:01:28.000Z</time>
      </trkpt>
      <trkpt lat="44.38377" lon="6.39378">
        <ele>2036</ele>
        <time>2020-07-07T07:01:29.000Z</time>
      </trkpt>
      <trkpt lat="44.38377" lon="6.39378">
        <ele>2036</ele>
        <time>2020-07-07T07:01:30.000Z</time>
      </trkpt>
      <trkpt lat="44.38377" lon="6.39378">
        <ele>2036</ele>
        <time>2020-07-07T07:01:31.000Z</time>
      </trkpt>
      <trkpt lat="44.38376" lon="6.39378">
        <ele>2036</ele>
        <time>2020-07-07T07:01:32.000Z</time>
      </trkpt>
      <trkpt lat="44.38376" lon="6.39378">
        <ele>2036</ele>
        <time>2020-07-07T07:01:33.000Z</time>
      </trkpt>
      <trkpt lat="44.38376" lon="6.39378">
        <ele>2037</ele>
        <time>2020-07-07T07:01:34.000Z</time>
      </trkpt>
      <trkpt lat="44.38377" lon="6.39378">
        <ele>2037</ele>
        <time>2020-07-07T07:01:35.000Z</time>
      </trkpt>
      <trkpt lat="44.38378" lon="6.39378">
        <ele>2037</ele>
        <time>2020-07-07T07:01:36.000Z</time>
      </trkpt>
      <trkpt lat="44.38379" lon="6.39379">
        <ele>2037</ele>
        <time>2020-07-07T07:01:37.000Z</time>
      </trkpt>
      <trkpt lat="44.3838" lon="6.39379">
        <ele>2037</ele>
        <time>2020-07-07T07:01:38.000Z</time>
      </trkpt>
      <trkpt lat="44.38381" lon="6.3938">
        <ele>2037</ele>
        <time>2020-07-07T07:01:39.000Z</time>
      </trkpt>
      <trkpt lat="44.38382" lon="6.39381">
        <ele>2037</ele>
        <time>2020-07-07T07:01:40.000Z</time>
      </trkpt>
      <trkpt lat="44.38383" lon="6.39381">
        <ele>2038</ele>
        <time>2020-07-07T07:01:41.000Z</time>
      </trkpt>
      <trkpt lat="44.38384" lon="6.39381">
        <ele>2038</ele>
        <time>2020-07-07T07:01:42.000Z</time>
      </trkpt>
      <trkpt lat="44.38385" lon="6.39382">
        <ele>2038</ele>
        <time>2020-07-07T07:01:43.000Z</time>
      </trkpt>
      <trkpt lat="44.38386" lon="6.39382">
        <ele>2038</ele>
        <time>2020-07-07T07:01:44.000Z</time>
      </trkpt>
      <trkpt lat="44.38387" lon="6.39383">
        <ele>2038</ele>
        <time>2020-07-07T07:01:45.000Z</time>
      </trkpt>
      <trkpt lat="44.38387" lon="6.39383">
        <ele>2038</ele>
        <time>2020-07-07T07:01:46.000Z</time>
      </trkpt>
      <trkpt lat="44.38388" lon="6.39383">
        <ele>2038</ele>
        <time>2020-07-07T07:01:47.000Z</time>
      </trkpt>
      <trkpt lat="44.38389" lon="6.39383">
        <ele>2038</ele>
        <time>2020-07-07T07:01:48.000Z</time>
      </trkpt>
      <trkpt lat="44.3839" lon="6.39384">
        <ele>2038</ele>
        <time>2020-07-07T07:01:49.000Z</time>
      </trkpt>
      <trkpt lat="44.38391" lon="6.39385">
        <ele>2038</ele>
        <time>2020-07-07T07:01:50.000Z</time>
      </trkpt>
      <trkpt lat="44.38392" lon="6.39385">
        <ele>2038</ele>
        <time>2020-07-07T07:01:51.000Z</time>
      </trkpt>
      <trkpt lat="44.38393" lon="6.39386">
        <ele>2038</ele>
        <time>2020-07-07T07:01:52.000Z</time>
      </trkpt>
      <trkpt lat="44.38394" lon="6.39386">
        <ele>2038</ele>
        <time>2020-07-07T07:01:53.000Z</time>
      </trkpt>
      <trkpt lat="44.38395" lon="6.39386">
        <ele>2039</ele>
        <time>2020-07-07T07:01:54.000Z</time>
      </trkpt>
      <trkpt lat="44.38396" lon="6.39386">
        <ele>2039</ele>
        <time>2020-07-07T07:01:55.000Z</time>
      </trkpt>
      <trkpt lat="44.38396" lon="6.39386">
        <ele>2039</ele>
        <time>2020-07-07T07:01:56.000Z</time>
      </trkpt>
      <trkpt lat="44.38397" lon="6.39386">
        <ele>2039</ele>
        <time>2020-07-07T07:01:57.000Z</time>
      </trkpt>
      <trkpt lat="44.38398" lon="6.39387">
        <ele>2039</ele>
        <time>2020-07-07T07:01:58.000Z</time>
      </trkpt>
      <trkpt lat="44.38399" lon="6.39386">
        <ele>2039</ele>
        <time>2020-07-07T07:01:59.000Z</time>
      </trkpt>
      <trkpt lat="44.384" lon="6.39386">
        <ele>2039</ele>
        <time>2020-07-07T07:02:00.000Z</time>
      </trkpt>
      <trkpt lat="44.38401" lon="6.39386">
        <ele>2039</ele>
        <time>2020-07-07T07:02:01.000Z</time>
      </trkpt>
      <trkpt lat="44.38402" lon="6.39385">
        <ele>2039</ele>
        <time>2020-07-07T07:02:02.000Z</time>
      </trkpt>
      <trkpt lat="44.38403" lon="6.39386">
        <ele>2040</ele>
        <time>2020-07-07T07:02:03.000Z</time>
      </trkpt>
      <trkpt lat="44.38404" lon="6.39386">
        <ele>2040</ele>
        <time>2020-07-07T07:02:04.000Z</time>
      </trkpt>
      <trkpt lat="44.38404" lon="6.39386">
        <ele>2040</ele>
        <time>2020-07-07T07:02:05.000Z</time>
      </trkpt>
      <trkpt lat="44.38405" lon="6.39385">
        <ele>2040</ele>
        <time>2020-07-07T07:02:06.000Z</time>
      </trkpt>
      <trkpt lat="44.38406" lon="6.39384">
        <ele>2041</ele>
        <time>2020-07-07T07:02:07.000Z</time>
      </trkpt>
      <trkpt lat="44.38407" lon="6.39383">
        <ele>2041</ele>
        <time>2020-07-07T07:02:08.000Z</time>
      </trkpt>
      <trkpt lat="44.38407" lon="6.39382">
        <ele>2041</ele>
        <time>2020-07-07T07:02:09.000Z</time>
      </trkpt>
      <trkpt lat="44.38408" lon="6.39382">
        <ele>2041</ele>
        <time>2020-07-07T07:02:10.000Z</time>
      </trkpt>
      <trkpt lat="44.38409" lon="6.39381">
        <ele>2041</ele>
        <time>2020-07-07T07:02:11.000Z</time>
      </trkpt>
      <trkpt lat="44.3841" lon="6.3938">
        <ele>2041</ele>
        <time>2020-07-07T07:02:12.000Z</time>
      </trkpt>
      <trkpt lat="44.3841" lon="6.3938">
        <ele>2041</ele>
        <time>2020-07-07T07:02:13.000Z</time>
      </trkpt>
      <trkpt lat="44.38411" lon="6.3938">
        <ele>2041</ele>
        <time>2020-07-07T07:02:14.000Z</time>
      </trkpt>
      <trkpt lat="44.38412" lon="6.39379">
        <ele>2041</ele>
        <time>2020-07-07T07:02:15.000Z</time>
      </trkpt>
      <trkpt lat="44.38413" lon="6.39378">
        <ele>2042</ele>
        <time>2020-07-07T07:02:16.000Z</time>
      </trkpt>
      <trkpt lat="44.38414" lon="6.39378">
        <ele>2042</ele>
        <time>2020-07-07T07:02:17.000Z</time>
      </trkpt>
      <trkpt lat="44.38414" lon="6.39378">
        <ele>2042</ele>
        <time>2020-07-07T07:02:18.000Z</time>
      </trkpt>
      <trkpt lat="44.38415" lon="6.39377">
        <ele>2042</ele>
        <time>2020-07-07T07:02:19.000Z</time>
      </trkpt>
      <trkpt lat="44.38416" lon="6.39377">
        <ele>2042</ele>
        <time>2020-07-07T07:02:20.000Z</time>
      </trkpt>
      <trkpt lat="44.38417" lon="6.39377">
        <ele>2042</ele>
        <time>2020-07-07T07:02:21.000Z</time>
      </trkpt>
      <trkpt lat="44.38418" lon="6.39377">
        <ele>2042</ele>
        <time>2020-07-07T07:02:22.000Z</time>
      </trkpt>
      <trkpt lat="44.38419" lon="6.39377">
        <ele>2043</ele>
        <time>2020-07-07T07:02:23.000Z</time>
      </trkpt>
      <trkpt lat="44.3842" lon="6.39377">
        <ele>2043</ele>
        <time>2020-07-07T07:02:24.000Z</time>
      </trkpt>
      <trkpt lat="44.38421" lon="6.39377">
        <ele>2043</ele>
        <time>2020-07-07T07:02:25.000Z</time>
      </trkpt>
      <trkpt lat="44.38423" lon="6.39376">
        <ele>2043</ele>
        <time>2020-07-07T07:02:26.000Z</time>
      </trkpt>
      <trkpt lat="44.38424" lon="6.39377">
        <ele>2043</ele>
        <time>2020-07-07T07:02:27.000Z</time>
      </trkpt>
      <trkpt lat="44.38425" lon="6.39377">
        <ele>2043</ele>
        <time>2020-07-07T07:02:28.000Z</time>
      </trkpt>
      <trkpt lat="44.38426" lon="6.39377">
        <ele>2044</ele>
        <time>2020-07-07T07:02:29.000Z</time>
      </trkpt>
      <trkpt lat="44.38427" lon="6.39377">
        <ele>2044</ele>
        <time>2020-07-07T07:02:30.000Z</time>
      </trkpt>
      <trkpt lat="44.38428" lon="6.39377">
        <ele>2044</ele>
        <time>2020-07-07T07:02:31.000Z</time>
      </trkpt>
      <trkpt lat="44.38429" lon="6.39377">
        <ele>2044</ele>
        <time>2020-07-07T07:02:32.000Z</time>
      </trkpt>
      <trkpt lat="44.38431" lon="6.39377">
        <ele>2044</ele>
        <time>2020-07-07T07:02:33.000Z</time>
      </trkpt>
      <trkpt lat="44.38432" lon="6.39377">
        <ele>2044</ele>
        <time>2020-07-07T07:02:34.000Z</time>
      </trkpt>
      <trkpt lat="44.38433" lon="6.39377">
        <ele>2045</ele>
        <time>2020-07-07T07:02:35.000Z</time>
      </trkpt>
      <trkpt lat="44.38434" lon="6.39378">
        <ele>2045</ele>
        <time>2020-07-07T07:02:36.000Z</time>
      </trkpt>
      <trkpt lat="44.38435" lon="6.39378">
        <ele>2045</ele>
        <time>2020-07-07T07:02:37.000Z</time>
      </trkpt>
      <trkpt lat="44.38436" lon="6.39378">
        <ele>2045</ele>
        <time>2020-07-07T07:02:38.000Z</time>
      </trkpt>
      <trkpt lat="44.38437" lon="6.39379">
        <ele>2045</ele>
        <time>2020-07-07T07:02:39.000Z</time>
      </trkpt>
      <trkpt lat="44.38438" lon="6.39379">
        <ele>2045</ele>
        <time>2020-07-07T07:02:40.000Z</time>
      </trkpt>
      <trkpt lat="44.38439" lon="6.3938">
        <ele>2045</ele>
        <time>2020-07-07T07:02:41.000Z</time>
      </trkpt>
      <trkpt lat="44.38439" lon="6.39381">
        <ele>2045</ele>
        <time>2020-07-07T07:02:42.000Z</time>
      </trkpt>
      <trkpt lat="44.38441" lon="6.39382">
        <ele>2045</ele>
        <time>2020-07-07T07:02:43.000Z</time>
      </trkpt>
      <trkpt lat="44.38441" lon="6.39383">
        <ele>2045</ele>
        <time>2020-07-07T07:02:44.000Z</time>
      </trkpt>
      <trkpt lat="44.38441" lon="6.39384">
        <ele>2045</ele>
        <time>2020-07-07T07:02:45.000Z</time>
      </trkpt>
      <trkpt lat="44.38442" lon="6.39385">
        <ele>2045</ele>
        <time>2020-07-07T07:02:46.000Z</time>
      </trkpt>
      <trkpt lat="44.38443" lon="6.39386">
        <ele>2045</ele>
        <time>2020-07-07T07:02:47.000Z</time>
      </trkpt>
      <trkpt lat="44.38444" lon="6.39387">
        <ele>2045</ele>
        <time>2020-07-07T07:02:48.000Z</time>
      </trkpt>
      <trkpt lat="44.38445" lon="6.39387">
        <ele>2045</ele>
        <time>2020-07-07T07:02:49.000Z</time>
      </trkpt>
      <trkpt lat="44.38446" lon="6.39388">
        <ele>2045</ele>
        <time>2020-07-07T07:02:50.000Z</time>
      </trkpt>
      <trkpt lat="44.38447" lon="6.39389">
        <ele>2045</ele>
        <time>2020-07-07T07:02:51.000Z</time>
      </trkpt>
      <trkpt lat="44.38448" lon="6.39389">
        <ele>2045</ele>
        <time>2020-07-07T07:02:52.000Z</time>
      </trkpt>
      <trkpt lat="44.38449" lon="6.3939">
        <ele>2046</ele>
        <time>2020-07-07T07:02:53.000Z</time>
      </trkpt>
      <trkpt lat="44.38449" lon="6.3939">
        <ele>2046</ele>
        <time>2020-07-07T07:02:54.000Z</time>
      </trkpt>
      <trkpt lat="44.3845" lon="6.39391">
        <ele>2046</ele>
        <time>2020-07-07T07:02:55.000Z</time>
      </trkpt>
      <trkpt lat="44.38451" lon="6.39391">
        <ele>2045</ele>
        <time>2020-07-07T07:02:56.000Z</time>
      </trkpt>
      <trkpt lat="44.38452" lon="6.39392">
        <ele>2046</ele>
        <time>2020-07-07T07:02:57.000Z</time>
      </trkpt>
      <trkpt lat="44.38453" lon="6.39392">
        <ele>2046</ele>
        <time>2020-07-07T07:02:58.000Z</time>
      </trkpt>
      <trkpt lat="44.38454" lon="6.39393">
        <ele>2045</ele>
        <time>2020-07-07T07:02:59.000Z</time>
      </trkpt>
      <trkpt lat="44.38455" lon="6.39393">
        <ele>2045</ele>
        <time>2020-07-07T07:03:00.000Z</time>
      </trkpt>
      <trkpt lat="44.38456" lon="6.39394">
        <ele>2045</ele>
        <time>2020-07-07T07:03:01.000Z</time>
      </trkpt>
      <trkpt lat="44.38457" lon="6.39394">
        <ele>2045</ele>
        <time>2020-07-07T07:03:02.000Z</time>
      </trkpt>
      <trkpt lat="44.38458" lon="6.39395">
        <ele>2045</ele>
        <time>2020-07-07T07:03:03.000Z</time>
      </trkpt>
      <trkpt lat="44.38459" lon="6.39395">
        <ele>2045</ele>
        <time>2020-07-07T07:03:04.000Z</time>
      </trkpt>
      <trkpt lat="44.3846" lon="6.39395">
        <ele>2045</ele>
        <time>2020-07-07T07:03:05.000Z</time>
      </trkpt>
      <trkpt lat="44.38461" lon="6.39395">
        <ele>2045</ele>
        <time>2020-07-07T07:03:06.000Z</time>
      </trkpt>
      <trkpt lat="44.38462" lon="6.39396">
        <ele>2045</ele>
        <time>2020-07-07T07:03:07.000Z</time>
      </trkpt>
      <trkpt lat="44.38463" lon="6.39396">
        <ele>2045</ele>
        <time>2020-07-07T07:03:08.000Z</time>
      </trkpt>
      <trkpt lat="44.38464" lon="6.39396">
        <ele>2045</ele>
        <time>2020-07-07T07:03:09.000Z</time>
      </trkpt>
      <trkpt lat="44.38465" lon="6.39395">
        <ele>2045</ele>
        <time>2020-07-07T07:03:10.000Z</time>
      </trkpt>
      <trkpt lat="44.38466" lon="6.39395">
        <ele>2045</ele>
        <time>2020-07-07T07:03:11.000Z</time>
      </trkpt>
      <trkpt lat="44.38467" lon="6.39395">
        <ele>2045</ele>
        <time>2020-07-07T07:03:12.000Z</time>
      </trkpt>
      <trkpt lat="44.38468" lon="6.39394">
        <ele>2045</ele>
        <time>2020-07-07T07:03:13.000Z</time>
      </trkpt>
      <trkpt lat="44.38469" lon="6.39394">
        <ele>2046</ele>
        <time>2020-07-07T07:03:14.000Z</time>
      </trkpt>
      <trkpt lat="44.3847" lon="6.39394">
        <ele>2046</ele>
        <time>2020-07-07T07:03:15.000Z</time>
      </trkpt>
      <trkpt lat="44.38471" lon="6.39393">
        <ele>2046</ele>
        <time>2020-07-07T07:03:16.000Z</time>
      </trkpt>
      <trkpt lat="44.38472" lon="6.39392">
        <ele>2046</ele>
        <time>2020-07-07T07:03:17.000Z</time>
      </trkpt>
      <trkpt lat="44.38473" lon="6.39392">
        <ele>2046</ele>
        <time>2020-07-07T07:03:18.000Z</time>
      </trkpt>
      <trkpt lat="44.38474" lon="6.39392">
        <ele>2046</ele>
        <time>2020-07-07T07:03:19.000Z</time>
      </trkpt>
      <trkpt lat="44.38475" lon="6.39392">
        <ele>2046</ele>
        <time>2020-07-07T07:03:20.000Z</time>
      </trkpt>
      <trkpt lat="44.38476" lon="6.39391">
        <ele>2046</ele>
        <time>2020-07-07T07:03:21.000Z</time>
      </trkpt>
      <trkpt lat="44.38477" lon="6.39392">
        <ele>2046</ele>
        <time>2020-07-07T07:03:22.000Z</time>
      </trkpt>
      <trkpt lat="44.38478" lon="6.39392">
        <ele>2047</ele>
        <time>2020-07-07T07:03:23.000Z</time>
      </trkpt>
      <trkpt lat="44.3848" lon="6.39392">
        <ele>2047</ele>
        <time>2020-07-07T07:03:24.000Z</time>
      </trkpt>
      <trkpt lat="44.3848" lon="6.39392">
        <ele>2047</ele>
        <time>2020-07-07T07:03:25.000Z</time>
      </trkpt>
      <trkpt lat="44.38481" lon="6.39392">
        <ele>2047</ele>
        <time>2020-07-07T07:03:26.000Z</time>
      </trkpt>
      <trkpt lat="44.38482" lon="6.39391">
        <ele>2047</ele>
        <time>2020-07-07T07:03:27.000Z</time>
      </trkpt>
      <trkpt lat="44.38483" lon="6.39391">
        <ele>2047</ele>
        <time>2020-07-07T07:03:28.000Z</time>
      </trkpt>
      <trkpt lat="44.38484" lon="6.39391">
        <ele>2047</ele>
        <time>2020-07-07T07:03:29.000Z</time>
      </trkpt>
      <trkpt lat="44.38485" lon="6.39391">
        <ele>2047</ele>
        <time>2020-07-07T07:03:30.000Z</time>
      </trkpt>
      <trkpt lat="44.38486" lon="6.39392">
        <ele>2047</ele>
        <time>2020-07-07T07:03:31.000Z</time>
      </trkpt>
      <trkpt lat="44.38487" lon="6.39391">
        <ele>2047</ele>
        <time>2020-07-07T07:03:32.000Z</time>
      </trkpt>
      <trkpt lat="44.38488" lon="6.39391">
        <ele>2047</ele>
        <time>2020-07-07T07:03:33.000Z</time>
      </trkpt>
      <trkpt lat="44.38488" lon="6.39391">
        <ele>2047</ele>
        <time>2020-07-07T07:03:34.000Z</time>
      </trkpt>
      <trkpt lat="44.38489" lon="6.3939">
        <ele>2047</ele>
        <time>2020-07-07T07:03:35.000Z</time>
      </trkpt>
      <trkpt lat="44.3849" lon="6.3939">
        <ele>2047</ele>
        <time>2020-07-07T07:03:36.000Z</time>
      </trkpt>
      <trkpt lat="44.38491" lon="6.39389">
        <ele>2048</ele>
        <time>2020-07-07T07:03:37.000Z</time>
      </trkpt>
      <trkpt lat="44.38492" lon="6.39389">
        <ele>2048</ele>
        <time>2020-07-07T07:03:38.000Z</time>
      </trkpt>
      <trkpt lat="44.38493" lon="6.39389">
        <ele>2048</ele>
        <time>2020-07-07T07:03:39.000Z</time>
      </trkpt>
      <trkpt lat="44.38494" lon="6.39389">
        <ele>2048</ele>
        <time>2020-07-07T07:03:40.000Z</time>
      </trkpt>
      <trkpt lat="44.38494" lon="6.39388">
        <ele>2048</ele>
        <time>2020-07-07T07:03:41.000Z</time>
      </trkpt>
      <trkpt lat="44.38495" lon="6.39388">
        <ele>2048</ele>
        <time>2020-07-07T07:03:42.000Z</time>
      </trkpt>
      <trkpt lat="44.38496" lon="6.39387">
        <ele>2048</ele>
        <time>2020-07-07T07:03:43.000Z</time>
      </trkpt>
      <trkpt lat="44.38497" lon="6.39388">
        <ele>2048</ele>
        <time>2020-07-07T07:03:44.000Z</time>
      </trkpt>
      <trkpt lat="44.38498" lon="6.39387">
        <ele>2048</ele>
        <time>2020-07-07T07:03:45.000Z</time>
      </trkpt>
      <trkpt lat="44.38499" lon="6.39387">
        <ele>2048</ele>
        <time>2020-07-07T07:03:46.000Z</time>
      </trkpt>
      <trkpt lat="44.385" lon="6.39387">
        <ele>2048</ele>
        <time>2020-07-07T07:03:47.000Z</time>
      </trkpt>
      <trkpt lat="44.38501" lon="6.39387">
        <ele>2048</ele>
        <time>2020-07-07T07:03:48.000Z</time>
      </trkpt>
      <trkpt lat="44.38502" lon="6.39387">
        <ele>2048</ele>
        <time>2020-07-07T07:03:49.000Z</time>
      </trkpt>
      <trkpt lat="44.38503" lon="6.39387">
        <ele>2048</ele>
        <time>2020-07-07T07:03:50.000Z</time>
      </trkpt>
      <trkpt lat="44.38504" lon="6.39387">
        <ele>2048</ele>
        <time>2020-07-07T07:03:51.000Z</time>
      </trkpt>
      <trkpt lat="44.38505" lon="6.39387">
        <ele>2049</ele>
        <time>2020-07-07T07:03:52.000Z</time>
      </trkpt>
      <trkpt lat="44.38506" lon="6.39387">
        <ele>2049</ele>
        <time>2020-07-07T07:03:53.000Z</time>
      </trkpt>
      <trkpt lat="44.38507" lon="6.39387">
        <ele>2049</ele>
        <time>2020-07-07T07:03:54.000Z</time>
      </trkpt>
      <trkpt lat="44.38508" lon="6.39387">
        <ele>2049</ele>
        <time>2020-07-07T07:03:55.000Z</time>
      </trkpt>
      <trkpt lat="44.38509" lon="6.39388">
        <ele>2049</ele>
        <time>2020-07-07T07:03:56.000Z</time>
      </trkpt>
      <trkpt lat="44.3851" lon="6.39388">
        <ele>2049</ele>
        <time>2020-07-07T07:03:57.000Z</time>
      </trkpt>
      <trkpt lat="44.38511" lon="6.39388">
        <ele>2049</ele>
        <time>2020-07-07T07:03:58.000Z</time>
      </trkpt>
      <trkpt lat="44.38511" lon="6.39388">
        <ele>2049</ele>
        <time>2020-07-07T07:03:59.000Z</time>
      </trkpt>
      <trkpt lat="44.38512" lon="6.39387">
        <ele>2049</ele>
        <time>2020-07-07T07:04:00.000Z</time>
      </trkpt>
      <trkpt lat="44.38513" lon="6.39387">
        <ele>2049</ele>
        <time>2020-07-07T07:04:01.000Z</time>
      </trkpt>
      <trkpt lat="44.38514" lon="6.39387">
        <ele>2049</ele>
        <time>2020-07-07T07:04:02.000Z</time>
      </trkpt>
      <trkpt lat="44.38515" lon="6.39386">
        <ele>2049</ele>
        <time>2020-07-07T07:04:03.000Z</time>
      </trkpt>
      <trkpt lat="44.38517" lon="6.39386">
        <ele>2049</ele>
        <time>2020-07-07T07:04:04.000Z</time>
      </trkpt>
      <trkpt lat="44.38518" lon="6.39385">
        <ele>2049</ele>
        <time>2020-07-07T07:04:05.000Z</time>
      </trkpt>
      <trkpt lat="44.38519" lon="6.39385">
        <ele>2049</ele>
        <time>2020-07-07T07:04:06.000Z</time>
      </trkpt>
      <trkpt lat="44.38519" lon="6.39385">
        <ele>2049</ele>
        <time>2020-07-07T07:04:07.000Z</time>
      </trkpt>
      <trkpt lat="44.3852" lon="6.39384">
        <ele>2049</ele>
        <time>2020-07-07T07:04:08.000Z</time>
      </trkpt>
      <trkpt lat="44.38521" lon="6.39384">
        <ele>2050</ele>
        <time>2020-07-07T07:04:09.000Z</time>
      </trkpt>
      <trkpt lat="44.38521" lon="6.39384">
        <ele>2050</ele>
        <time>2020-07-07T07:04:10.000Z</time>
      </trkpt>
      <trkpt lat="44.38522" lon="6.39383">
        <ele>2050</ele>
        <time>2020-07-07T07:04:11.000Z</time>
      </trkpt>
      <trkpt lat="44.38523" lon="6.39383">
        <ele>2050</ele>
        <time>2020-07-07T07:04:12.000Z</time>
      </trkpt>
      <trkpt lat="44.38524" lon="6.39383">
        <ele>2050</ele>
        <time>2020-07-07T07:04:13.000Z</time>
      </trkpt>
      <trkpt lat="44.38525" lon="6.39383">
        <ele>2050</ele>
        <time>2020-07-07T07:04:14.000Z</time>
      </trkpt>
      <trkpt lat="44.38526" lon="6.39383">
        <ele>2051</ele>
        <time>2020-07-07T07:04:15.000Z</time>
      </trkpt>
      <trkpt lat="44.38526" lon="6.39382">
        <ele>2051</ele>
        <time>2020-07-07T07:04:16.000Z</time>
      </trkpt>
      <trkpt lat="44.38527" lon="6.39382">
        <ele>2051</ele>
        <time>2020-07-07T07:04:17.000Z</time>
      </trkpt>
      <trkpt lat="44.38528" lon="6.39381">
        <ele>2051</ele>
        <time>2020-07-07T07:04:18.000Z</time>
      </trkpt>
      <trkpt lat="44.38529" lon="6.39381">
        <ele>2051</ele>
        <time>2020-07-07T07:04:19.000Z</time>
      </trkpt>
      <trkpt lat="44.38529" lon="6.39381">
        <ele>2051</ele>
        <time>2020-07-07T07:04:20.000Z</time>
      </trkpt>
      <trkpt lat="44.3853" lon="6.39381">
        <ele>2051</ele>
        <time>2020-07-07T07:04:21.000Z</time>
      </trkpt>
      <trkpt lat="44.38531" lon="6.39381">
        <ele>2051</ele>
        <time>2020-07-07T07:04:22.000Z</time>
      </trkpt>
      <trkpt lat="44.38532" lon="6.3938">
        <ele>2051</ele>
        <time>2020-07-07T07:04:23.000Z</time>
      </trkpt>
      <trkpt lat="44.38533" lon="6.3938">
        <ele>2052</ele>
        <time>2020-07-07T07:04:24.000Z</time>
      </trkpt>
      <trkpt lat="44.38534" lon="6.3938">
        <ele>2052</ele>
        <time>2020-07-07T07:04:25.000Z</time>
      </trkpt>
      <trkpt lat="44.38535" lon="6.39379">
        <ele>2052</ele>
        <time>2020-07-07T07:04:26.000Z</time>
      </trkpt>
      <trkpt lat="44.38536" lon="6.39379">
        <ele>2052</ele>
        <time>2020-07-07T07:04:27.000Z</time>
      </trkpt>
      <trkpt lat="44.38537" lon="6.39378">
        <ele>2053</ele>
        <time>2020-07-07T07:04:28.000Z</time>
      </trkpt>
      <trkpt lat="44.38538" lon="6.39378">
        <ele>2053</ele>
        <time>2020-07-07T07:04:29.000Z</time>
      </trkpt>
      <trkpt lat="44.38538" lon="6.39378">
        <ele>2053</ele>
        <time>2020-07-07T07:04:30.000Z</time>
      </trkpt>
      <trkpt lat="44.38539" lon="6.39379">
        <ele>2053</ele>
        <time>2020-07-07T07:04:31.000Z</time>
      </trkpt>
      <trkpt lat="44.38541" lon="6.39378">
        <ele>2053</ele>
        <time>2020-07-07T07:04:32.000Z</time>
      </trkpt>
      <trkpt lat="44.38542" lon="6.39378">
        <ele>2054</ele>
        <time>2020-07-07T07:04:33.000Z</time>
      </trkpt>
      <trkpt lat="44.38543" lon="6.39378">
        <ele>2054</ele>
        <time>2020-07-07T07:04:34.000Z</time>
      </trkpt>
      <trkpt lat="44.38544" lon="6.39378">
        <ele>2054</ele>
        <time>2020-07-07T07:04:35.000Z</time>
      </trkpt>
      <trkpt lat="44.38545" lon="6.39378">
        <ele>2054</ele>
        <time>2020-07-07T07:04:36.000Z</time>
      </trkpt>
      <trkpt lat="44.38546" lon="6.39378">
        <ele>2055</ele>
        <time>2020-07-07T07:04:37.000Z</time>
      </trkpt>
      <trkpt lat="44.38547" lon="6.39378">
        <ele>2055</ele>
        <time>2020-07-07T07:04:38.000Z</time>
      </trkpt>
      <trkpt lat="44.38547" lon="6.39377">
        <ele>2055</ele>
        <time>2020-07-07T07:04:39.000Z</time>
      </trkpt>
      <trkpt lat="44.38548" lon="6.39377">
        <ele>2055</ele>
        <time>2020-07-07T07:04:40.000Z</time>
      </trkpt>
      <trkpt lat="44.38549" lon="6.39377">
        <ele>2055</ele>
        <time>2020-07-07T07:04:41.000Z</time>
      </trkpt>
      <trkpt lat="44.3855" lon="6.39376">
        <ele>2055</ele>
        <time>2020-07-07T07:04:42.000Z</time>
      </trkpt>
      <trkpt lat="44.3855" lon="6.39376">
        <ele>2055</ele>
        <time>2020-07-07T07:04:43.000Z</time>
      </trkpt>
      <trkpt lat="44.38552" lon="6.39376">
        <ele>2056</ele>
        <time>2020-07-07T07:04:44.000Z</time>
      </trkpt>
      <trkpt lat="44.38553" lon="6.39375">
        <ele>2056</ele>
        <time>2020-07-07T07:04:45.000Z</time>
      </trkpt>
      <trkpt lat="44.38554" lon="6.39374">
        <ele>2056</ele>
        <time>2020-07-07T07:04:46.000Z</time>
      </trkpt>
      <trkpt lat="44.38555" lon="6.39374">
        <ele>2056</ele>
        <time>2020-07-07T07:04:47.000Z</time>
      </trkpt>
      <trkpt lat="44.38556" lon="6.39374">
        <ele>2056</ele>
        <time>2020-07-07T07:04:48.000Z</time>
      </trkpt>
      <trkpt lat="44.38557" lon="6.39373">
        <ele>2057</ele>
        <time>2020-07-07T07:04:49.000Z</time>
      </trkpt>
      <trkpt lat="44.38557" lon="6.39373">
        <ele>2057</ele>
        <time>2020-07-07T07:04:50.000Z</time>
      </trkpt>
      <trkpt lat="44.38558" lon="6.39373">
        <ele>2057</ele>
        <time>2020-07-07T07:04:51.000Z</time>
      </trkpt>
      <trkpt lat="44.38559" lon="6.39372">
        <ele>2057</ele>
        <time>2020-07-07T07:04:52.000Z</time>
      </trkpt>
      <trkpt lat="44.3856" lon="6.39372">
        <ele>2057</ele>
        <time>2020-07-07T07:04:53.000Z</time>
      </trkpt>
      <trkpt lat="44.38561" lon="6.39372">
        <ele>2057</ele>
        <time>2020-07-07T07:04:54.000Z</time>
      </trkpt>
      <trkpt lat="44.38562" lon="6.39371">
        <ele>2057</ele>
        <time>2020-07-07T07:04:55.000Z</time>
      </trkpt>
      <trkpt lat="44.38563" lon="6.39371">
        <ele>2057</ele>
        <time>2020-07-07T07:04:56.000Z</time>
      </trkpt>
      <trkpt lat="44.38564" lon="6.39371">
        <ele>2057</ele>
        <time>2020-07-07T07:04:57.000Z</time>
      </trkpt>
      <trkpt lat="44.38565" lon="6.39371">
        <ele>2058</ele>
        <time>2020-07-07T07:04:58.000Z</time>
      </trkpt>
      <trkpt lat="44.38565" lon="6.3937">
        <ele>2058</ele>
        <time>2020-07-07T07:04:59.000Z</time>
      </trkpt>
      <trkpt lat="44.38566" lon="6.3937">
        <ele>2058</ele>
        <time>2020-07-07T07:05:00.000Z</time>
      </trkpt>
      <trkpt lat="44.38567" lon="6.3937">
        <ele>2058</ele>
        <time>2020-07-07T07:05:01.000Z</time>
      </trkpt>
      <trkpt lat="44.38568" lon="6.39369">
        <ele>2058</ele>
        <time>2020-07-07T07:05:02.000Z</time>
      </trkpt>
      <trkpt lat="44.38568" lon="6.39369">
        <ele>2058</ele>
        <time>2020-07-07T07:05:03.000Z</time>
      </trkpt>
      <trkpt lat="44.38569" lon="6.39369">
        <ele>2058</ele>
        <time>2020-07-07T07:05:04.000Z</time>
      </trkpt>
      <trkpt lat="44.3857" lon="6.39368">
        <ele>2058</ele>
        <time>2020-07-07T07:05:05.000Z</time>
      </trkpt>
      <trkpt lat="44.38571" lon="6.39368">
        <ele>2058</ele>
        <time>2020-07-07T07:05:06.000Z</time>
      </trkpt>
      <trkpt lat="44.38571" lon="6.39367">
        <ele>2058</ele>
        <time>2020-07-07T07:05:07.000Z</time>
      </trkpt>
      <trkpt lat="44.38572" lon="6.39367">
        <ele>2058</ele>
        <time>2020-07-07T07:05:08.000Z</time>
      </trkpt>
      <trkpt lat="44.38573" lon="6.39367">
        <ele>2058</ele>
        <time>2020-07-07T07:05:09.000Z</time>
      </trkpt>
      <trkpt lat="44.38574" lon="6.39367">
        <ele>2059</ele>
        <time>2020-07-07T07:05:10.000Z</time>
      </trkpt>
      <trkpt lat="44.38575" lon="6.39367">
        <ele>2059</ele>
        <time>2020-07-07T07:05:11.000Z</time>
      </trkpt>
      <trkpt lat="44.38576" lon="6.39367">
        <ele>2059</ele>
        <time>2020-07-07T07:05:12.000Z</time>
      </trkpt>
      <trkpt lat="44.38577" lon="6.39367">
        <ele>2059</ele>
        <time>2020-07-07T07:05:13.000Z</time>
      </trkpt>
      <trkpt lat="44.38578" lon="6.39367">
        <ele>2059</ele>
        <time>2020-07-07T07:05:14.000Z</time>
      </trkpt>
      <trkpt lat="44.38579" lon="6.39367">
        <ele>2060</ele>
        <time>2020-07-07T07:05:15.000Z</time>
      </trkpt>
      <trkpt lat="44.3858" lon="6.39366">
        <ele>2060</ele>
        <time>2020-07-07T07:05:16.000Z</time>
      </trkpt>
      <trkpt lat="44.38581" lon="6.39366">
        <ele>2060</ele>
        <time>2020-07-07T07:05:17.000Z</time>
      </trkpt>
      <trkpt lat="44.38582" lon="6.39366">
        <ele>2060</ele>
        <time>2020-07-07T07:05:18.000Z</time>
      </trkpt>
      <trkpt lat="44.38582" lon="6.39366">
        <ele>2060</ele>
        <time>2020-07-07T07:05:19.000Z</time>
      </trkpt>
      <trkpt lat="44.38582" lon="6.39366">
        <ele>2060</ele>
        <time>2020-07-07T07:05:20.000Z</time>
      </trkpt>
      <trkpt lat="44.38583" lon="6.39366">
        <ele>2060</ele>
        <time>2020-07-07T07:05:21.000Z</time>
      </trkpt>
      <trkpt lat="44.38583" lon="6.39366">
        <ele>2060</ele>
        <time>2020-07-07T07:05:22.000Z</time>
      </trkpt>
      <trkpt lat="44.38584" lon="6.39366">
        <ele>2060</ele>
        <time>2020-07-07T07:05:23.000Z</time>
      </trkpt>
      <trkpt lat="44.38585" lon="6.39366">
        <ele>2060</ele>
        <time>2020-07-07T07:05:24.000Z</time>
      </trkpt>
      <trkpt lat="44.38586" lon="6.39366">
        <ele>2060</ele>
        <time>2020-07-07T07:05:25.000Z</time>
      </trkpt>
      <trkpt lat="44.38587" lon="6.39366">
        <ele>2060</ele>
        <time>2020-07-07T07:05:26.000Z</time>
      </trkpt>
      <trkpt lat="44.38587" lon="6.39366">
        <ele>2060</ele>
        <time>2020-07-07T07:05:27.000Z</time>
      </trkpt>
      <trkpt lat="44.38588" lon="6.39366">
        <ele>2060</ele>
        <time>2020-07-07T07:05:28.000Z</time>
      </trkpt>
      <trkpt lat="44.38589" lon="6.39366">
        <ele>2060</ele>
        <time>2020-07-07T07:05:29.000Z</time>
      </trkpt>
      <trkpt lat="44.3859" lon="6.39366">
        <ele>2060</ele>
        <time>2020-07-07T07:05:30.000Z</time>
      </trkpt>
      <trkpt lat="44.38591" lon="6.39366">
        <ele>2060</ele>
        <time>2020-07-07T07:05:31.000Z</time>
      </trkpt>
      <trkpt lat="44.38592" lon="6.39366">
        <ele>2060</ele>
        <time>2020-07-07T07:05:32.000Z</time>
      </trkpt>
      <trkpt lat="44.38593" lon="6.39365">
        <ele>2061</ele>
        <time>2020-07-07T07:05:33.000Z</time>
      </trkpt>
      <trkpt lat="44.38594" lon="6.39365">
        <ele>2061</ele>
        <time>2020-07-07T07:05:34.000Z</time>
      </trkpt>
      <trkpt lat="44.38595" lon="6.39365">
        <ele>2061</ele>
        <time>2020-07-07T07:05:35.000Z</time>
      </trkpt>
      <trkpt lat="44.38596" lon="6.39364">
        <ele>2061</ele>
        <time>2020-07-07T07:05:36.000Z</time>
      </trkpt>
      <trkpt lat="44.38597" lon="6.39364">
        <ele>2061</ele>
        <time>2020-07-07T07:05:37.000Z</time>
      </trkpt>
      <trkpt lat="44.38598" lon="6.39364">
        <ele>2061</ele>
        <time>2020-07-07T07:05:38.000Z</time>
      </trkpt>
      <trkpt lat="44.386" lon="6.39365">
        <ele>2062</ele>
        <time>2020-07-07T07:05:39.000Z</time>
      </trkpt>
      <trkpt lat="44.38601" lon="6.39364">
        <ele>2062</ele>
        <time>2020-07-07T07:05:40.000Z</time>
      </trkpt>
      <trkpt lat="44.38602" lon="6.39364">
        <ele>2062</ele>
        <time>2020-07-07T07:05:41.000Z</time>
      </trkpt>
      <trkpt lat="44.38603" lon="6.39364">
        <ele>2062</ele>
        <time>2020-07-07T07:05:42.000Z</time>
      </trkpt>
      <trkpt lat="44.38604" lon="6.39364">
        <ele>2063</ele>
        <time>2020-07-07T07:05:43.000Z</time>
      </trkpt>
      <trkpt lat="44.38605" lon="6.39363">
        <ele>2063</ele>
        <time>2020-07-07T07:05:44.000Z</time>
      </trkpt>
      <trkpt lat="44.38606" lon="6.39363">
        <ele>2063</ele>
        <time>2020-07-07T07:05:45.000Z</time>
      </trkpt>
      <trkpt lat="44.38607" lon="6.39364">
        <ele>2063</ele>
        <time>2020-07-07T07:05:46.000Z</time>
      </trkpt>
      <trkpt lat="44.38608" lon="6.39364">
        <ele>2063</ele>
        <time>2020-07-07T07:05:47.000Z</time>
      </trkpt>
      <trkpt lat="44.38608" lon="6.39364">
        <ele>2063</ele>
        <time>2020-07-07T07:05:48.000Z</time>
      </trkpt>
      <trkpt lat="44.38609" lon="6.39364">
        <ele>2063</ele>
        <time>2020-07-07T07:05:49.000Z</time>
      </trkpt>
      <trkpt lat="44.3861" lon="6.39364">
        <ele>2064</ele>
        <time>2020-07-07T07:05:50.000Z</time>
      </trkpt>
      <trkpt lat="44.38611" lon="6.39364">
        <ele>2064</ele>
        <time>2020-07-07T07:05:51.000Z</time>
      </trkpt>
      <trkpt lat="44.38612" lon="6.39364">
        <ele>2064</ele>
        <time>2020-07-07T07:05:52.000Z</time>
      </trkpt>
      <trkpt lat="44.38613" lon="6.39364">
        <ele>2064</ele>
        <time>2020-07-07T07:05:53.000Z</time>
      </trkpt>
      <trkpt lat="44.38613" lon="6.39364">
        <ele>2064</ele>
        <time>2020-07-07T07:05:54.000Z</time>
      </trkpt>
      <trkpt lat="44.38614" lon="6.39364">
        <ele>2064</ele>
        <time>2020-07-07T07:05:55.000Z</time>
      </trkpt>
      <trkpt lat="44.38615" lon="6.39364">
        <ele>2064</ele>
        <time>2020-07-07T07:05:56.000Z</time>
      </trkpt>
      <trkpt lat="44.38616" lon="6.39364">
        <ele>2064</ele>
        <time>2020-07-07T07:05:57.000Z</time>
      </trkpt>
      <trkpt lat="44.38617" lon="6.39364">
        <ele>2065</ele>
        <time>2020-07-07T07:05:58.000Z</time>
      </trkpt>
      <trkpt lat="44.38618" lon="6.39364">
        <ele>2065</ele>
        <time>2020-07-07T07:05:59.000Z</time>
      </trkpt>
      <trkpt lat="44.38619" lon="6.39364">
        <ele>2065</ele>
        <time>2020-07-07T07:06:00.000Z</time>
      </trkpt>
      <trkpt lat="44.3862" lon="6.39365">
        <ele>2065</ele>
        <time>2020-07-07T07:06:01.000Z</time>
      </trkpt>
      <trkpt lat="44.38621" lon="6.39365">
        <ele>2065</ele>
        <time>2020-07-07T07:06:02.000Z</time>
      </trkpt>
      <trkpt lat="44.38623" lon="6.39365">
        <ele>2065</ele>
        <time>2020-07-07T07:06:03.000Z</time>
      </trkpt>
      <trkpt lat="44.38624" lon="6.39365">
        <ele>2065</ele>
        <time>2020-07-07T07:06:04.000Z</time>
      </trkpt>
      <trkpt lat="44.38626" lon="6.39365">
        <ele>2065</ele>
        <time>2020-07-07T07:06:05.000Z</time>
      </trkpt>
      <trkpt lat="44.38627" lon="6.39365">
        <ele>2066</ele>
        <time>2020-07-07T07:06:06.000Z</time>
      </trkpt>
      <trkpt lat="44.38628" lon="6.39366">
        <ele>2066</ele>
        <time>2020-07-07T07:06:07.000Z</time>
      </trkpt>
      <trkpt lat="44.38629" lon="6.39366">
        <ele>2066</ele>
        <time>2020-07-07T07:06:08.000Z</time>
      </trkpt>
      <trkpt lat="44.38629" lon="6.39366">
        <ele>2066</ele>
        <time>2020-07-07T07:06:09.000Z</time>
      </trkpt>
      <trkpt lat="44.3863" lon="6.39367">
        <ele>2066</ele>
        <time>2020-07-07T07:06:10.000Z</time>
      </trkpt>
      <trkpt lat="44.38631" lon="6.39367">
        <ele>2066</ele>
        <time>2020-07-07T07:06:11.000Z</time>
      </trkpt>
      <trkpt lat="44.38631" lon="6.39367">
        <ele>2066</ele>
        <time>2020-07-07T07:06:12.000Z</time>
      </trkpt>
      <trkpt lat="44.38632" lon="6.39369">
        <ele>2067</ele>
        <time>2020-07-07T07:06:13.000Z</time>
      </trkpt>
      <trkpt lat="44.38632" lon="6.3937">
        <ele>2067</ele>
        <time>2020-07-07T07:06:14.000Z</time>
      </trkpt>
      <trkpt lat="44.38632" lon="6.3937">
        <ele>2067</ele>
        <time>2020-07-07T07:06:15.000Z</time>
      </trkpt>
      <trkpt lat="44.38632" lon="6.3937">
        <ele>2067</ele>
        <time>2020-07-07T07:06:16.000Z</time>
      </trkpt>
      <trkpt lat="44.38633" lon="6.39372">
        <ele>2067</ele>
        <time>2020-07-07T07:06:17.000Z</time>
      </trkpt>
      <trkpt lat="44.38633" lon="6.39373">
        <ele>2067</ele>
        <time>2020-07-07T07:06:18.000Z</time>
      </trkpt>
      <trkpt lat="44.38633" lon="6.39375">
        <ele>2066</ele>
        <time>2020-07-07T07:06:19.000Z</time>
      </trkpt>
      <trkpt lat="44.38633" lon="6.39375">
        <ele>2066</ele>
        <time>2020-07-07T07:06:20.000Z</time>
      </trkpt>
      <trkpt lat="44.38635" lon="6.39377">
        <ele>2066</ele>
        <time>2020-07-07T07:06:21.000Z</time>
      </trkpt>
      <trkpt lat="44.38635" lon="6.39377">
        <ele>2066</ele>
        <time>2020-07-07T07:06:22.000Z</time>
      </trkpt>
      <trkpt lat="44.38635" lon="6.39378">
        <ele>2066</ele>
        <time>2020-07-07T07:06:23.000Z</time>
      </trkpt>
      <trkpt lat="44.38635" lon="6.39379">
        <ele>2066</ele>
        <time>2020-07-07T07:06:24.000Z</time>
      </trkpt>
      <trkpt lat="44.38636" lon="6.3938">
        <ele>2066</ele>
        <time>2020-07-07T07:06:25.000Z</time>
      </trkpt>
      <trkpt lat="44.38637" lon="6.39381">
        <ele>2066</ele>
        <time>2020-07-07T07:06:26.000Z</time>
      </trkpt>
      <trkpt lat="44.38638" lon="6.39382">
        <ele>2066</ele>
        <time>2020-07-07T07:06:27.000Z</time>
      </trkpt>
      <trkpt lat="44.38638" lon="6.39383">
        <ele>2067</ele>
        <time>2020-07-07T07:06:28.000Z</time>
      </trkpt>
      <trkpt lat="44.3864" lon="6.39384">
        <ele>2067</ele>
        <time>2020-07-07T07:06:29.000Z</time>
      </trkpt>
      <trkpt lat="44.3864" lon="6.39385">
        <ele>2067</ele>
        <time>2020-07-07T07:06:30.000Z</time>
      </trkpt>
      <trkpt lat="44.38642" lon="6.39387">
        <ele>2067</ele>
        <time>2020-07-07T07:06:31.000Z</time>
      </trkpt>
      <trkpt lat="44.38642" lon="6.39387">
        <ele>2067</ele>
        <time>2020-07-07T07:06:32.000Z</time>
      </trkpt>
      <trkpt lat="44.38643" lon="6.39388">
        <ele>2067</ele>
        <time>2020-07-07T07:06:33.000Z</time>
      </trkpt>
      <trkpt lat="44.38644" lon="6.39389">
        <ele>2067</ele>
        <time>2020-07-07T07:06:34.000Z</time>
      </trkpt>
      <trkpt lat="44.38645" lon="6.3939">
        <ele>2067</ele>
        <time>2020-07-07T07:06:35.000Z</time>
      </trkpt>
      <trkpt lat="44.38646" lon="6.3939">
        <ele>2067</ele>
        <time>2020-07-07T07:06:36.000Z</time>
      </trkpt>
      <trkpt lat="44.38646" lon="6.39391">
        <ele>2067</ele>
        <time>2020-07-07T07:06:37.000Z</time>
      </trkpt>
      <trkpt lat="44.38647" lon="6.39391">
        <ele>2067</ele>
        <time>2020-07-07T07:06:38.000Z</time>
      </trkpt>
      <trkpt lat="44.38647" lon="6.39391">
        <ele>2067</ele>
        <time>2020-07-07T07:06:39.000Z</time>
      </trkpt>
      <trkpt lat="44.38649" lon="6.39391">
        <ele>2068</ele>
        <time>2020-07-07T07:06:40.000Z</time>
      </trkpt>
      <trkpt lat="44.38649" lon="6.39391">
        <ele>2068</ele>
        <time>2020-07-07T07:06:41.000Z</time>
      </trkpt>
      <trkpt lat="44.3865" lon="6.39391">
        <ele>2068</ele>
        <time>2020-07-07T07:06:42.000Z</time>
      </trkpt>
      <trkpt lat="44.38651" lon="6.39391">
        <ele>2068</ele>
        <time>2020-07-07T07:06:43.000Z</time>
      </trkpt>
      <trkpt lat="44.38652" lon="6.39391">
        <ele>2068</ele>
        <time>2020-07-07T07:06:44.000Z</time>
      </trkpt>
      <trkpt lat="44.38653" lon="6.39391">
        <ele>2068</ele>
        <time>2020-07-07T07:06:45.000Z</time>
      </trkpt>
      <trkpt lat="44.38654" lon="6.3939">
        <ele>2068</ele>
        <time>2020-07-07T07:06:46.000Z</time>
      </trkpt>
      <trkpt lat="44.38654" lon="6.3939">
        <ele>2068</ele>
        <time>2020-07-07T07:06:47.000Z</time>
      </trkpt>
      <trkpt lat="44.38655" lon="6.3939">
        <ele>2068</ele>
        <time>2020-07-07T07:06:48.000Z</time>
      </trkpt>
      <trkpt lat="44.38656" lon="6.3939">
        <ele>2068</ele>
        <time>2020-07-07T07:06:49.000Z</time>
      </trkpt>
      <trkpt lat="44.38658" lon="6.39389">
        <ele>2068</ele>
        <time>2020-07-07T07:06:50.000Z</time>
      </trkpt>
      <trkpt lat="44.38658" lon="6.39389">
        <ele>2068</ele>
        <time>2020-07-07T07:06:51.000Z</time>
      </trkpt>
      <trkpt lat="44.38659" lon="6.39389">
        <ele>2068</ele>
        <time>2020-07-07T07:06:52.000Z</time>
      </trkpt>
      <trkpt lat="44.3866" lon="6.39389">
        <ele>2068</ele>
        <time>2020-07-07T07:06:53.000Z</time>
      </trkpt>
      <trkpt lat="44.38662" lon="6.39388">
        <ele>2068</ele>
        <time>2020-07-07T07:06:54.000Z</time>
      </trkpt>
      <trkpt lat="44.38663" lon="6.39388">
        <ele>2068</ele>
        <time>2020-07-07T07:06:55.000Z</time>
      </trkpt>
      <trkpt lat="44.38663" lon="6.39388">
        <ele>2068</ele>
        <time>2020-07-07T07:06:56.000Z</time>
      </trkpt>
      <trkpt lat="44.38664" lon="6.39387">
        <ele>2069</ele>
        <time>2020-07-07T07:06:57.000Z</time>
      </trkpt>
      <trkpt lat="44.38666" lon="6.39387">
        <ele>2069</ele>
        <time>2020-07-07T07:06:58.000Z</time>
      </trkpt>
      <trkpt lat="44.38666" lon="6.39386">
        <ele>2069</ele>
        <time>2020-07-07T07:06:59.000Z</time>
      </trkpt>
      <trkpt lat="44.38668" lon="6.39387">
        <ele>2069</ele>
        <time>2020-07-07T07:07:00.000Z</time>
      </trkpt>
      <trkpt lat="44.38669" lon="6.39387">
        <ele>2069</ele>
        <time>2020-07-07T07:07:01.000Z</time>
      </trkpt>
      <trkpt lat="44.3867" lon="6.39387">
        <ele>2069</ele>
        <time>2020-07-07T07:07:02.000Z</time>
      </trkpt>
      <trkpt lat="44.3867" lon="6.39387">
        <ele>2069</ele>
        <time>2020-07-07T07:07:03.000Z</time>
      </trkpt>
      <trkpt lat="44.38672" lon="6.39388">
        <ele>2069</ele>
        <time>2020-07-07T07:07:04.000Z</time>
      </trkpt>
      <trkpt lat="44.38672" lon="6.39388">
        <ele>2069</ele>
        <time>2020-07-07T07:07:05.000Z</time>
      </trkpt>
      <trkpt lat="44.38674" lon="6.3939">
        <ele>2070</ele>
        <time>2020-07-07T07:07:06.000Z</time>
      </trkpt>
      <trkpt lat="44.38675" lon="6.39391">
        <ele>2070</ele>
        <time>2020-07-07T07:07:07.000Z</time>
      </trkpt>
      <trkpt lat="44.38675" lon="6.39391">
        <ele>2070</ele>
        <time>2020-07-07T07:07:08.000Z</time>
      </trkpt>
      <trkpt lat="44.38676" lon="6.39391">
        <ele>2070</ele>
        <time>2020-07-07T07:07:09.000Z</time>
      </trkpt>
      <trkpt lat="44.38677" lon="6.39392">
        <ele>2070</ele>
        <time>2020-07-07T07:07:10.000Z</time>
      </trkpt>
      <trkpt lat="44.38678" lon="6.39393">
        <ele>2070</ele>
        <time>2020-07-07T07:07:11.000Z</time>
      </trkpt>
      <trkpt lat="44.38679" lon="6.39393">
        <ele>2070</ele>
        <time>2020-07-07T07:07:12.000Z</time>
      </trkpt>
      <trkpt lat="44.38679" lon="6.39393">
        <ele>2070</ele>
        <time>2020-07-07T07:07:13.000Z</time>
      </trkpt>
      <trkpt lat="44.3868" lon="6.39394">
        <ele>2071</ele>
        <time>2020-07-07T07:07:14.000Z</time>
      </trkpt>
      <trkpt lat="44.38681" lon="6.39394">
        <ele>2071</ele>
        <time>2020-07-07T07:07:15.000Z</time>
      </trkpt>
      <trkpt lat="44.38682" lon="6.39395">
        <ele>2071</ele>
        <time>2020-07-07T07:07:16.000Z</time>
      </trkpt>
      <trkpt lat="44.38683" lon="6.39395">
        <ele>2071</ele>
        <time>2020-07-07T07:07:17.000Z</time>
      </trkpt>
      <trkpt lat="44.38684" lon="6.39396">
        <ele>2071</ele>
        <time>2020-07-07T07:07:18.000Z</time>
      </trkpt>
      <trkpt lat="44.38685" lon="6.39397">
        <ele>2071</ele>
        <time>2020-07-07T07:07:19.000Z</time>
      </trkpt>
      <trkpt lat="44.38685" lon="6.39397">
        <ele>2071</ele>
        <time>2020-07-07T07:07:20.000Z</time>
      </trkpt>
      <trkpt lat="44.38687" lon="6.39398">
        <ele>2072</ele>
        <time>2020-07-07T07:07:21.000Z</time>
      </trkpt>
      <trkpt lat="44.38687" lon="6.39398">
        <ele>2072</ele>
        <time>2020-07-07T07:07:22.000Z</time>
      </trkpt>
      <trkpt lat="44.38689" lon="6.39398">
        <ele>2072</ele>
        <time>2020-07-07T07:07:23.000Z</time>
      </trkpt>
      <trkpt lat="44.3869" lon="6.39398">
        <ele>2072</ele>
        <time>2020-07-07T07:07:24.000Z</time>
      </trkpt>
      <trkpt lat="44.38691" lon="6.39398">
        <ele>2072</ele>
        <time>2020-07-07T07:07:25.000Z</time>
      </trkpt>
      <trkpt lat="44.38692" lon="6.39399">
        <ele>2072</ele>
        <time>2020-07-07T07:07:26.000Z</time>
      </trkpt>
      <trkpt lat="44.38693" lon="6.39399">
        <ele>2072</ele>
        <time>2020-07-07T07:07:27.000Z</time>
      </trkpt>
      <trkpt lat="44.38694" lon="6.39399">
        <ele>2072</ele>
        <time>2020-07-07T07:07:28.000Z</time>
      </trkpt>
      <trkpt lat="44.38695" lon="6.394">
        <ele>2072</ele>
        <time>2020-07-07T07:07:29.000Z</time>
      </trkpt>
      <trkpt lat="44.38696" lon="6.394">
        <ele>2073</ele>
        <time>2020-07-07T07:07:30.000Z</time>
      </trkpt>
      <trkpt lat="44.38697" lon="6.394">
        <ele>2073</ele>
        <time>2020-07-07T07:07:31.000Z</time>
      </trkpt>
      <trkpt lat="44.38698" lon="6.39401">
        <ele>2073</ele>
        <time>2020-07-07T07:07:32.000Z</time>
      </trkpt>
      <trkpt lat="44.38699" lon="6.39401">
        <ele>2073</ele>
        <time>2020-07-07T07:07:33.000Z</time>
      </trkpt>
      <trkpt lat="44.387" lon="6.39402">
        <ele>2073</ele>
        <time>2020-07-07T07:07:34.000Z</time>
      </trkpt>
      <trkpt lat="44.38701" lon="6.39402">
        <ele>2073</ele>
        <time>2020-07-07T07:07:35.000Z</time>
      </trkpt>
      <trkpt lat="44.38702" lon="6.39402">
        <ele>2073</ele>
        <time>2020-07-07T07:07:36.000Z</time>
      </trkpt>
      <trkpt lat="44.38703" lon="6.39402">
        <ele>2073</ele>
        <time>2020-07-07T07:07:37.000Z</time>
      </trkpt>
      <trkpt lat="44.38704" lon="6.39402">
        <ele>2073</ele>
        <time>2020-07-07T07:07:38.000Z</time>
      </trkpt>
      <trkpt lat="44.38705" lon="6.39402">
        <ele>2073</ele>
        <time>2020-07-07T07:07:39.000Z</time>
      </trkpt>
      <trkpt lat="44.38706" lon="6.39403">
        <ele>2073</ele>
        <time>2020-07-07T07:07:40.000Z</time>
      </trkpt>
      <trkpt lat="44.38707" lon="6.39403">
        <ele>2073</ele>
        <time>2020-07-07T07:07:41.000Z</time>
      </trkpt>
      <trkpt lat="44.38708" lon="6.39403">
        <ele>2073</ele>
        <time>2020-07-07T07:07:42.000Z</time>
      </trkpt>
      <trkpt lat="44.38709" lon="6.39403">
        <ele>2073</ele>
        <time>2020-07-07T07:07:43.000Z</time>
      </trkpt>
      <trkpt lat="44.3871" lon="6.39403">
        <ele>2073</ele>
        <time>2020-07-07T07:07:44.000Z</time>
      </trkpt>
      <trkpt lat="44.38711" lon="6.39403">
        <ele>2073</ele>
        <time>2020-07-07T07:07:45.000Z</time>
      </trkpt>
      <trkpt lat="44.38712" lon="6.39403">
        <ele>2073</ele>
        <time>2020-07-07T07:07:46.000Z</time>
      </trkpt>
      <trkpt lat="44.38713" lon="6.39403">
        <ele>2073</ele>
        <time>2020-07-07T07:07:47.000Z</time>
      </trkpt>
      <trkpt lat="44.38714" lon="6.39403">
        <ele>2073</ele>
        <time>2020-07-07T07:07:48.000Z</time>
      </trkpt>
      <trkpt lat="44.38715" lon="6.39403">
        <ele>2073</ele>
        <time>2020-07-07T07:07:49.000Z</time>
      </trkpt>
      <trkpt lat="44.38715" lon="6.39403">
        <ele>2073</ele>
        <time>2020-07-07T07:07:50.000Z</time>
      </trkpt>
      <trkpt lat="44.38716" lon="6.39403">
        <ele>2073</ele>
        <time>2020-07-07T07:07:51.000Z</time>
      </trkpt>
      <trkpt lat="44.38718" lon="6.39403">
        <ele>2073</ele>
        <time>2020-07-07T07:07:52.000Z</time>
      </trkpt>
      <trkpt lat="44.38718" lon="6.39402">
        <ele>2073</ele>
        <time>2020-07-07T07:07:53.000Z</time>
      </trkpt>
      <trkpt lat="44.38719" lon="6.39402">
        <ele>2073</ele>
        <time>2020-07-07T07:07:54.000Z</time>
      </trkpt>
      <trkpt lat="44.3872" lon="6.39401">
        <ele>2073</ele>
        <time>2020-07-07T07:07:55.000Z</time>
      </trkpt>
      <trkpt lat="44.38721" lon="6.39401">
        <ele>2074</ele>
        <time>2020-07-07T07:07:56.000Z</time>
      </trkpt>
      <trkpt lat="44.38722" lon="6.394">
        <ele>2074</ele>
        <time>2020-07-07T07:07:57.000Z</time>
      </trkpt>
      <trkpt lat="44.38723" lon="6.39399">
        <ele>2074</ele>
        <time>2020-07-07T07:07:58.000Z</time>
      </trkpt>
      <trkpt lat="44.38724" lon="6.39398">
        <ele>2074</ele>
        <time>2020-07-07T07:07:59.000Z</time>
      </trkpt>
      <trkpt lat="44.38725" lon="6.39397">
        <ele>2074</ele>
        <time>2020-07-07T07:08:00.000Z</time>
      </trkpt>
      <trkpt lat="44.38725" lon="6.39396">
        <ele>2074</ele>
        <time>2020-07-07T07:08:01.000Z</time>
      </trkpt>
      <trkpt lat="44.38726" lon="6.39395">
        <ele>2074</ele>
        <time>2020-07-07T07:08:02.000Z</time>
      </trkpt>
      <trkpt lat="44.38726" lon="6.39394">
        <ele>2074</ele>
        <time>2020-07-07T07:08:03.000Z</time>
      </trkpt>
      <trkpt lat="44.38727" lon="6.39394">
        <ele>2074</ele>
        <time>2020-07-07T07:08:04.000Z</time>
      </trkpt>
      <trkpt lat="44.38727" lon="6.39394">
        <ele>2074</ele>
        <time>2020-07-07T07:08:05.000Z</time>
      </trkpt>
      <trkpt lat="44.38727" lon="6.39394">
        <ele>2074</ele>
        <time>2020-07-07T07:08:06.000Z</time>
      </trkpt>
      <trkpt lat="44.38727" lon="6.39394">
        <ele>2074</ele>
        <time>2020-07-07T07:08:07.000Z</time>
      </trkpt>
      <trkpt lat="44.38727" lon="6.39394">
        <ele>2074</ele>
        <time>2020-07-07T07:08:08.000Z</time>
      </trkpt>
      <trkpt lat="44.38727" lon="6.39394">
        <ele>2074</ele>
        <time>2020-07-07T07:08:09.000Z</time>
      </trkpt>
      <trkpt lat="44.38727" lon="6.39393">
        <ele>2075</ele>
        <time>2020-07-07T07:08:10.000Z</time>
      </trkpt>
      <trkpt lat="44.38727" lon="6.39393">
        <ele>2075</ele>
        <time>2020-07-07T07:08:11.000Z</time>
      </trkpt>
      <trkpt lat="44.38727" lon="6.39393">
        <ele>2075</ele>
        <time>2020-07-07T07:08:12.000Z</time>
      </trkpt>
      <trkpt lat="44.38727" lon="6.39393">
        <ele>2075</ele>
        <time>2020-07-07T07:08:13.000Z</time>
      </trkpt>
      <trkpt lat="44.38728" lon="6.39391">
        <ele>2075</ele>
        <time>2020-07-07T07:08:14.000Z</time>
      </trkpt>
      <trkpt lat="44.38728" lon="6.3939">
        <ele>2075</ele>
        <time>2020-07-07T07:08:15.000Z</time>
      </trkpt>
      <trkpt lat="44.38729" lon="6.39388">
        <ele>2075</ele>
        <time>2020-07-07T07:08:16.000Z</time>
      </trkpt>
      <trkpt lat="44.38729" lon="6.39386">
        <ele>2075</ele>
        <time>2020-07-07T07:08:17.000Z</time>
      </trkpt>
      <trkpt lat="44.3873" lon="6.39385">
        <ele>2075</ele>
        <time>2020-07-07T07:08:18.000Z</time>
      </trkpt>
      <trkpt lat="44.3873" lon="6.39383">
        <ele>2075</ele>
        <time>2020-07-07T07:08:19.000Z</time>
      </trkpt>
      <trkpt lat="44.3873" lon="6.39382">
        <ele>2075</ele>
        <time>2020-07-07T07:08:20.000Z</time>
      </trkpt>
      <trkpt lat="44.3873" lon="6.39381">
        <ele>2075</ele>
        <time>2020-07-07T07:08:21.000Z</time>
      </trkpt>
      <trkpt lat="44.3873" lon="6.3938">
        <ele>2075</ele>
        <time>2020-07-07T07:08:22.000Z</time>
      </trkpt>
      <trkpt lat="44.38731" lon="6.39379">
        <ele>2076</ele>
        <time>2020-07-07T07:08:23.000Z</time>
      </trkpt>
      <trkpt lat="44.38731" lon="6.39378">
        <ele>2075</ele>
        <time>2020-07-07T07:08:24.000Z</time>
      </trkpt>
      <trkpt lat="44.38731" lon="6.39378">
        <ele>2075</ele>
        <time>2020-07-07T07:08:25.000Z</time>
      </trkpt>
      <trkpt lat="44.38731" lon="6.39376">
        <ele>2076</ele>
        <time>2020-07-07T07:08:26.000Z</time>
      </trkpt>
      <trkpt lat="44.38731" lon="6.39376">
        <ele>2076</ele>
        <time>2020-07-07T07:08:27.000Z</time>
      </trkpt>
      <trkpt lat="44.38731" lon="6.39374">
        <ele>2076</ele>
        <time>2020-07-07T07:08:28.000Z</time>
      </trkpt>
      <trkpt lat="44.38731" lon="6.39373">
        <ele>2076</ele>
        <time>2020-07-07T07:08:29.000Z</time>
      </trkpt>
      <trkpt lat="44.38732" lon="6.39371">
        <ele>2076</ele>
        <time>2020-07-07T07:08:30.000Z</time>
      </trkpt>
      <trkpt lat="44.38732" lon="6.39371">
        <ele>2076</ele>
        <time>2020-07-07T07:08:31.000Z</time>
      </trkpt>
      <trkpt lat="44.38732" lon="6.39369">
        <ele>2076</ele>
        <time>2020-07-07T07:08:32.000Z</time>
      </trkpt>
      <trkpt lat="44.38732" lon="6.39368">
        <ele>2076</ele>
        <time>2020-07-07T07:08:33.000Z</time>
      </trkpt>
      <trkpt lat="44.38732" lon="6.39367">
        <ele>2076</ele>
        <time>2020-07-07T07:08:34.000Z</time>
      </trkpt>
      <trkpt lat="44.38733" lon="6.39366">
        <ele>2075</ele>
        <time>2020-07-07T07:08:35.000Z</time>
      </trkpt>
      <trkpt lat="44.38732" lon="6.39365">
        <ele>2075</ele>
        <time>2020-07-07T07:08:36.000Z</time>
      </trkpt>
      <trkpt lat="44.38732" lon="6.39363">
        <ele>2075</ele>
        <time>2020-07-07T07:08:37.000Z</time>
      </trkpt>
      <trkpt lat="44.38732" lon="6.39362">
        <ele>2075</ele>
        <time>2020-07-07T07:08:38.000Z</time>
      </trkpt>
      <trkpt lat="44.38732" lon="6.39361">
        <ele>2075</ele>
        <time>2020-07-07T07:08:39.000Z</time>
      </trkpt>
      <trkpt lat="44.38732" lon="6.39359">
        <ele>2075</ele>
        <time>2020-07-07T07:08:40.000Z</time>
      </trkpt>
      <trkpt lat="44.38732" lon="6.39358">
        <ele>2075</ele>
        <time>2020-07-07T07:08:41.000Z</time>
      </trkpt>
      <trkpt lat="44.38732" lon="6.39357">
        <ele>2075</ele>
        <time>2020-07-07T07:08:42.000Z</time>
      </trkpt>
      <trkpt lat="44.38732" lon="6.39357">
        <ele>2075</ele>
        <time>2020-07-07T07:08:43.000Z</time>
      </trkpt>
      <trkpt lat="44.38732" lon="6.39355">
        <ele>2075</ele>
        <time>2020-07-07T07:08:44.000Z</time>
      </trkpt>
      <trkpt lat="44.38732" lon="6.39353">
        <ele>2075</ele>
        <time>2020-07-07T07:08:45.000Z</time>
      </trkpt>
      <trkpt lat="44.38733" lon="6.39352">
        <ele>2075</ele>
        <time>2020-07-07T07:08:46.000Z</time>
      </trkpt>
      <trkpt lat="44.38733" lon="6.39352">
        <ele>2075</ele>
        <time>2020-07-07T07:08:47.000Z</time>
      </trkpt>
      <trkpt lat="44.38734" lon="6.3935">
        <ele>2075</ele>
        <time>2020-07-07T07:08:48.000Z</time>
      </trkpt>
      <trkpt lat="44.38735" lon="6.39349">
        <ele>2075</ele>
        <time>2020-07-07T07:08:49.000Z</time>
      </trkpt>
      <trkpt lat="44.38735" lon="6.39346">
        <ele>2075</ele>
        <time>2020-07-07T07:08:50.000Z</time>
      </trkpt>
      <trkpt lat="44.38735" lon="6.39346">
        <ele>2075</ele>
        <time>2020-07-07T07:08:51.000Z</time>
      </trkpt>
      <trkpt lat="44.38736" lon="6.39345">
        <ele>2074</ele>
        <time>2020-07-07T07:08:52.000Z</time>
      </trkpt>
      <trkpt lat="44.38736" lon="6.39344">
        <ele>2074</ele>
        <time>2020-07-07T07:08:53.000Z</time>
      </trkpt>
      <trkpt lat="44.38737" lon="6.39343">
        <ele>2074</ele>
        <time>2020-07-07T07:08:54.000Z</time>
      </trkpt>
      <trkpt lat="44.38737" lon="6.39342">
        <ele>2074</ele>
        <time>2020-07-07T07:08:55.000Z</time>
      </trkpt>
      <trkpt lat="44.38738" lon="6.39342">
        <ele>2075</ele>
        <time>2020-07-07T07:08:56.000Z</time>
      </trkpt>
      <trkpt lat="44.38739" lon="6.3934">
        <ele>2075</ele>
        <time>2020-07-07T07:08:57.000Z</time>
      </trkpt>
      <trkpt lat="44.38741" lon="6.39338">
        <ele>2075</ele>
        <time>2020-07-07T07:08:58.000Z</time>
      </trkpt>
      <trkpt lat="44.38742" lon="6.39337">
        <ele>2075</ele>
        <time>2020-07-07T07:08:59.000Z</time>
      </trkpt>
      <trkpt lat="44.38742" lon="6.39336">
        <ele>2075</ele>
        <time>2020-07-07T07:09:00.000Z</time>
      </trkpt>
      <trkpt lat="44.38743" lon="6.39335">
        <ele>2075</ele>
        <time>2020-07-07T07:09:01.000Z</time>
      </trkpt>
      <trkpt lat="44.38744" lon="6.39333">
        <ele>2075</ele>
        <time>2020-07-07T07:09:02.000Z</time>
      </trkpt>
      <trkpt lat="44.38745" lon="6.39332">
        <ele>2075</ele>
        <time>2020-07-07T07:09:03.000Z</time>
      </trkpt>
      <trkpt lat="44.38745" lon="6.39331">
        <ele>2076</ele>
        <time>2020-07-07T07:09:04.000Z</time>
      </trkpt>
      <trkpt lat="44.38746" lon="6.3933">
        <ele>2076</ele>
        <time>2020-07-07T07:09:05.000Z</time>
      </trkpt>
      <trkpt lat="44.38748" lon="6.39328">
        <ele>2076</ele>
        <time>2020-07-07T07:09:06.000Z</time>
      </trkpt>
      <trkpt lat="44.38749" lon="6.39327">
        <ele>2076</ele>
        <time>2020-07-07T07:09:07.000Z</time>
      </trkpt>
      <trkpt lat="44.38749" lon="6.39327">
        <ele>2076</ele>
        <time>2020-07-07T07:09:08.000Z</time>
      </trkpt>
      <trkpt lat="44.3875" lon="6.39327">
        <ele>2077</ele>
        <time>2020-07-07T07:09:09.000Z</time>
      </trkpt>
      <trkpt lat="44.38751" lon="6.39326">
        <ele>2077</ele>
        <time>2020-07-07T07:09:10.000Z</time>
      </trkpt>
      <trkpt lat="44.38752" lon="6.39325">
        <ele>2077</ele>
        <time>2020-07-07T07:09:11.000Z</time>
      </trkpt>
      <trkpt lat="44.38752" lon="6.39325">
        <ele>2077</ele>
        <time>2020-07-07T07:09:12.000Z</time>
      </trkpt>
      <trkpt lat="44.38754" lon="6.39324">
        <ele>2077</ele>
        <time>2020-07-07T07:09:13.000Z</time>
      </trkpt>
      <trkpt lat="44.38754" lon="6.39324">
        <ele>2077</ele>
        <time>2020-07-07T07:09:14.000Z</time>
      </trkpt>
      <trkpt lat="44.38756" lon="6.39323">
        <ele>2077</ele>
        <time>2020-07-07T07:09:15.000Z</time>
      </trkpt>
      <trkpt lat="44.38756" lon="6.39322">
        <ele>2077</ele>
        <time>2020-07-07T07:09:16.000Z</time>
      </trkpt>
      <trkpt lat="44.38757" lon="6.39322">
        <ele>2077</ele>
        <time>2020-07-07T07:09:17.000Z</time>
      </trkpt>
      <trkpt lat="44.38758" lon="6.39322">
        <ele>2077</ele>
        <time>2020-07-07T07:09:18.000Z</time>
      </trkpt>
      <trkpt lat="44.3876" lon="6.39321">
        <ele>2077</ele>
        <time>2020-07-07T07:09:19.000Z</time>
      </trkpt>
      <trkpt lat="44.38762" lon="6.3932">
        <ele>2077</ele>
        <time>2020-07-07T07:09:20.000Z</time>
      </trkpt>
      <trkpt lat="44.38762" lon="6.3932">
        <ele>2077</ele>
        <time>2020-07-07T07:09:21.000Z</time>
      </trkpt>
      <trkpt lat="44.38763" lon="6.3932">
        <ele>2077</ele>
        <time>2020-07-07T07:09:22.000Z</time>
      </trkpt>
      <trkpt lat="44.38764" lon="6.39319">
        <ele>2077</ele>
        <time>2020-07-07T07:09:23.000Z</time>
      </trkpt>
      <trkpt lat="44.38765" lon="6.39317">
        <ele>2077</ele>
        <time>2020-07-07T07:09:24.000Z</time>
      </trkpt>
      <trkpt lat="44.38766" lon="6.39317">
        <ele>2077</ele>
        <time>2020-07-07T07:09:25.000Z</time>
      </trkpt>
      <trkpt lat="44.38767" lon="6.39316">
        <ele>2077</ele>
        <time>2020-07-07T07:09:26.000Z</time>
      </trkpt>
      <trkpt lat="44.38767" lon="6.39314">
        <ele>2077</ele>
        <time>2020-07-07T07:09:27.000Z</time>
      </trkpt>
      <trkpt lat="44.38768" lon="6.39313">
        <ele>2077</ele>
        <time>2020-07-07T07:09:28.000Z</time>
      </trkpt>
      <trkpt lat="44.38769" lon="6.39312">
        <ele>2077</ele>
        <time>2020-07-07T07:09:29.000Z</time>
      </trkpt>
      <trkpt lat="44.38769" lon="6.3931">
        <ele>2077</ele>
        <time>2020-07-07T07:09:30.000Z</time>
      </trkpt>
      <trkpt lat="44.3877" lon="6.39309">
        <ele>2077</ele>
        <time>2020-07-07T07:09:31.000Z</time>
      </trkpt>
      <trkpt lat="44.38771" lon="6.39307">
        <ele>2078</ele>
        <time>2020-07-07T07:09:32.000Z</time>
      </trkpt>
      <trkpt lat="44.38771" lon="6.39305">
        <ele>2077</ele>
        <time>2020-07-07T07:09:33.000Z</time>
      </trkpt>
      <trkpt lat="44.38771" lon="6.39304">
        <ele>2077</ele>
        <time>2020-07-07T07:09:34.000Z</time>
      </trkpt>
      <trkpt lat="44.38771" lon="6.39303">
        <ele>2078</ele>
        <time>2020-07-07T07:09:35.000Z</time>
      </trkpt>
      <trkpt lat="44.38772" lon="6.39302">
        <ele>2078</ele>
        <time>2020-07-07T07:09:36.000Z</time>
      </trkpt>
      <trkpt lat="44.38772" lon="6.39302">
        <ele>2078</ele>
        <time>2020-07-07T07:09:37.000Z</time>
      </trkpt>
      <trkpt lat="44.38772" lon="6.39302">
        <ele>2078</ele>
        <time>2020-07-07T07:09:38.000Z</time>
      </trkpt>
      <trkpt lat="44.38772" lon="6.39302">
        <ele>2078</ele>
        <time>2020-07-07T07:09:39.000Z</time>
      </trkpt>
      <trkpt lat="44.38772" lon="6.39302">
        <ele>2078</ele>
        <time>2020-07-07T07:09:40.000Z</time>
      </trkpt>
      <trkpt lat="44.38772" lon="6.39301">
        <ele>2078</ele>
        <time>2020-07-07T07:09:41.000Z</time>
      </trkpt>
      <trkpt lat="44.38772" lon="6.39301">
        <ele>2078</ele>
        <time>2020-07-07T07:09:42.000Z</time>
      </trkpt>
      <trkpt lat="44.38772" lon="6.39301">
        <ele>2078</ele>
        <time>2020-07-07T07:09:43.000Z</time>
      </trkpt>
      <trkpt lat="44.38772" lon="6.39301">
        <ele>2078</ele>
        <time>2020-07-07T07:09:44.000Z</time>
      </trkpt>
      <trkpt lat="44.38772" lon="6.39301">
        <ele>2078</ele>
        <time>2020-07-07T07:09:45.000Z</time>
      </trkpt>
      <trkpt lat="44.38772" lon="6.393">
        <ele>2078</ele>
        <time>2020-07-07T07:09:46.000Z</time>
      </trkpt>
      <trkpt lat="44.38772" lon="6.39299">
        <ele>2078</ele>
        <time>2020-07-07T07:09:47.000Z</time>
      </trkpt>
      <trkpt lat="44.38772" lon="6.39297">
        <ele>2078</ele>
        <time>2020-07-07T07:09:48.000Z</time>
      </trkpt>
      <trkpt lat="44.38772" lon="6.39297">
        <ele>2079</ele>
        <time>2020-07-07T07:09:49.000Z</time>
      </trkpt>
      <trkpt lat="44.38772" lon="6.39296">
        <ele>2079</ele>
        <time>2020-07-07T07:09:50.000Z</time>
      </trkpt>
      <trkpt lat="44.38773" lon="6.39295">
        <ele>2079</ele>
        <time>2020-07-07T07:09:51.000Z</time>
      </trkpt>
      <trkpt lat="44.38773" lon="6.39294">
        <ele>2079</ele>
        <time>2020-07-07T07:09:52.000Z</time>
      </trkpt>
      <trkpt lat="44.38774" lon="6.39293">
        <ele>2078</ele>
        <time>2020-07-07T07:09:53.000Z</time>
      </trkpt>
      <trkpt lat="44.38774" lon="6.39291">
        <ele>2078</ele>
        <time>2020-07-07T07:09:54.000Z</time>
      </trkpt>
      <trkpt lat="44.38774" lon="6.3929">
        <ele>2078</ele>
        <time>2020-07-07T07:09:55.000Z</time>
      </trkpt>
      <trkpt lat="44.38774" lon="6.39288">
        <ele>2078</ele>
        <time>2020-07-07T07:09:56.000Z</time>
      </trkpt>
      <trkpt lat="44.38776" lon="6.39287">
        <ele>2078</ele>
        <time>2020-07-07T07:09:57.000Z</time>
      </trkpt>
      <trkpt lat="44.38776" lon="6.39286">
        <ele>2078</ele>
        <time>2020-07-07T07:09:58.000Z</time>
      </trkpt>
      <trkpt lat="44.38776" lon="6.39285">
        <ele>2078</ele>
        <time>2020-07-07T07:09:59.000Z</time>
      </trkpt>
      <trkpt lat="44.38777" lon="6.39282">
        <ele>2078</ele>
        <time>2020-07-07T07:10:00.000Z</time>
      </trkpt>
      <trkpt lat="44.38778" lon="6.39281">
        <ele>2078</ele>
        <time>2020-07-07T07:10:01.000Z</time>
      </trkpt>
      <trkpt lat="44.38778" lon="6.3928">
        <ele>2078</ele>
        <time>2020-07-07T07:10:02.000Z</time>
      </trkpt>
      <trkpt lat="44.38778" lon="6.3928">
        <ele>2078</ele>
        <time>2020-07-07T07:10:03.000Z</time>
      </trkpt>
      <trkpt lat="44.38779" lon="6.39278">
        <ele>2078</ele>
        <time>2020-07-07T07:10:04.000Z</time>
      </trkpt>
      <trkpt lat="44.3878" lon="6.39277">
        <ele>2078</ele>
        <time>2020-07-07T07:10:05.000Z</time>
      </trkpt>
      <trkpt lat="44.38781" lon="6.39277">
        <ele>2078</ele>
        <time>2020-07-07T07:10:06.000Z</time>
      </trkpt>
      <trkpt lat="44.38781" lon="6.39276">
        <ele>2078</ele>
        <time>2020-07-07T07:10:07.000Z</time>
      </trkpt>
      <trkpt lat="44.38781" lon="6.39275">
        <ele>2078</ele>
        <time>2020-07-07T07:10:08.000Z</time>
      </trkpt>
      <trkpt lat="44.38782" lon="6.39274">
        <ele>2078</ele>
        <time>2020-07-07T07:10:09.000Z</time>
      </trkpt>
      <trkpt lat="44.38782" lon="6.39272">
        <ele>2078</ele>
        <time>2020-07-07T07:10:10.000Z</time>
      </trkpt>
      <trkpt lat="44.38782" lon="6.39272">
        <ele>2078</ele>
        <time>2020-07-07T07:10:11.000Z</time>
      </trkpt>
      <trkpt lat="44.38784" lon="6.39269">
        <ele>2078</ele>
        <time>2020-07-07T07:10:12.000Z</time>
      </trkpt>
      <trkpt lat="44.38784" lon="6.39269">
        <ele>2078</ele>
        <time>2020-07-07T07:10:13.000Z</time>
      </trkpt>
      <trkpt lat="44.38786" lon="6.39266">
        <ele>2078</ele>
        <time>2020-07-07T07:10:14.000Z</time>
      </trkpt>
      <trkpt lat="44.38786" lon="6.39265">
        <ele>2078</ele>
        <time>2020-07-07T07:10:15.000Z</time>
      </trkpt>
      <trkpt lat="44.38787" lon="6.39264">
        <ele>2078</ele>
        <time>2020-07-07T07:10:16.000Z</time>
      </trkpt>
      <trkpt lat="44.38788" lon="6.39263">
        <ele>2078</ele>
        <time>2020-07-07T07:10:17.000Z</time>
      </trkpt>
      <trkpt lat="44.38789" lon="6.39262">
        <ele>2078</ele>
        <time>2020-07-07T07:10:18.000Z</time>
      </trkpt>
      <trkpt lat="44.3879" lon="6.3926">
        <ele>2079</ele>
        <time>2020-07-07T07:10:19.000Z</time>
      </trkpt>
      <trkpt lat="44.3879" lon="6.3926">
        <ele>2079</ele>
        <time>2020-07-07T07:10:20.000Z</time>
      </trkpt>
      <trkpt lat="44.3879" lon="6.39259">
        <ele>2079</ele>
        <time>2020-07-07T07:10:21.000Z</time>
      </trkpt>
      <trkpt lat="44.38791" lon="6.39258">
        <ele>2079</ele>
        <time>2020-07-07T07:10:22.000Z</time>
      </trkpt>
      <trkpt lat="44.38792" lon="6.39257">
        <ele>2079</ele>
        <time>2020-07-07T07:10:23.000Z</time>
      </trkpt>
      <trkpt lat="44.38792" lon="6.39256">
        <ele>2079</ele>
        <time>2020-07-07T07:10:24.000Z</time>
      </trkpt>
      <trkpt lat="44.38793" lon="6.39255">
        <ele>2079</ele>
        <time>2020-07-07T07:10:25.000Z</time>
      </trkpt>
      <trkpt lat="44.38794" lon="6.39253">
        <ele>2079</ele>
        <time>2020-07-07T07:10:26.000Z</time>
      </trkpt>
      <trkpt lat="44.38794" lon="6.39253">
        <ele>2079</ele>
        <time>2020-07-07T07:10:27.000Z</time>
      </trkpt>
      <trkpt lat="44.38794" lon="6.39252">
        <ele>2079</ele>
        <time>2020-07-07T07:10:28.000Z</time>
      </trkpt>
      <trkpt lat="44.38794" lon="6.39251">
        <ele>2079</ele>
        <time>2020-07-07T07:10:29.000Z</time>
      </trkpt>
      <trkpt lat="44.38795" lon="6.39249">
        <ele>2079</ele>
        <time>2020-07-07T07:10:30.000Z</time>
      </trkpt>
      <trkpt lat="44.38796" lon="6.39247">
        <ele>2079</ele>
        <time>2020-07-07T07:10:31.000Z</time>
      </trkpt>
      <trkpt lat="44.38796" lon="6.39247">
        <ele>2079</ele>
        <time>2020-07-07T07:10:32.000Z</time>
      </trkpt>
      <trkpt lat="44.38796" lon="6.39245">
        <ele>2079</ele>
        <time>2020-07-07T07:10:33.000Z</time>
      </trkpt>
      <trkpt lat="44.38798" lon="6.39244">
        <ele>2079</ele>
        <time>2020-07-07T07:10:34.000Z</time>
      </trkpt>
      <trkpt lat="44.38799" lon="6.39243">
        <ele>2079</ele>
        <time>2020-07-07T07:10:35.000Z</time>
      </trkpt>
      <trkpt lat="44.38799" lon="6.39242">
        <ele>2079</ele>
        <time>2020-07-07T07:10:36.000Z</time>
      </trkpt>
      <trkpt lat="44.388" lon="6.39241">
        <ele>2079</ele>
        <time>2020-07-07T07:10:37.000Z</time>
      </trkpt>
      <trkpt lat="44.38801" lon="6.39239">
        <ele>2079</ele>
        <time>2020-07-07T07:10:38.000Z</time>
      </trkpt>
      <trkpt lat="44.38803" lon="6.39238">
        <ele>2079</ele>
        <time>2020-07-07T07:10:39.000Z</time>
      </trkpt>
      <trkpt lat="44.38803" lon="6.39238">
        <ele>2079</ele>
        <time>2020-07-07T07:10:40.000Z</time>
      </trkpt>
      <trkpt lat="44.38804" lon="6.39237">
        <ele>2080</ele>
        <time>2020-07-07T07:10:41.000Z</time>
      </trkpt>
      <trkpt lat="44.38806" lon="6.39235">
        <ele>2080</ele>
        <time>2020-07-07T07:10:42.000Z</time>
      </trkpt>
      <trkpt lat="44.38807" lon="6.39234">
        <ele>2080</ele>
        <time>2020-07-07T07:10:43.000Z</time>
      </trkpt>
      <trkpt lat="44.38808" lon="6.39233">
        <ele>2080</ele>
        <time>2020-07-07T07:10:44.000Z</time>
      </trkpt>
      <trkpt lat="44.38808" lon="6.39233">
        <ele>2080</ele>
        <time>2020-07-07T07:10:45.000Z</time>
      </trkpt>
      <trkpt lat="44.3881" lon="6.39231">
        <ele>2080</ele>
        <time>2020-07-07T07:10:46.000Z</time>
      </trkpt>
      <trkpt lat="44.3881" lon="6.39231">
        <ele>2080</ele>
        <time>2020-07-07T07:10:47.000Z</time>
      </trkpt>
      <trkpt lat="44.3881" lon="6.3923">
        <ele>2080</ele>
        <time>2020-07-07T07:10:48.000Z</time>
      </trkpt>
      <trkpt lat="44.3881" lon="6.39228">
        <ele>2080</ele>
        <time>2020-07-07T07:10:49.000Z</time>
      </trkpt>
      <trkpt lat="44.3881" lon="6.39227">
        <ele>2080</ele>
        <time>2020-07-07T07:10:50.000Z</time>
      </trkpt>
      <trkpt lat="44.3881" lon="6.39225">
        <ele>2080</ele>
        <time>2020-07-07T07:10:51.000Z</time>
      </trkpt>
      <trkpt lat="44.3881" lon="6.39224">
        <ele>2080</ele>
        <time>2020-07-07T07:10:52.000Z</time>
      </trkpt>
      <trkpt lat="44.38811" lon="6.39222">
        <ele>2081</ele>
        <time>2020-07-07T07:10:53.000Z</time>
      </trkpt>
      <trkpt lat="44.38811" lon="6.39221">
        <ele>2081</ele>
        <time>2020-07-07T07:10:54.000Z</time>
      </trkpt>
      <trkpt lat="44.38811" lon="6.39219">
        <ele>2081</ele>
        <time>2020-07-07T07:10:55.000Z</time>
      </trkpt>
      <trkpt lat="44.38811" lon="6.39218">
        <ele>2081</ele>
        <time>2020-07-07T07:10:56.000Z</time>
      </trkpt>
      <trkpt lat="44.38811" lon="6.39216">
        <ele>2081</ele>
        <time>2020-07-07T07:10:57.000Z</time>
      </trkpt>
      <trkpt lat="44.38811" lon="6.39215">
        <ele>2082</ele>
        <time>2020-07-07T07:10:58.000Z</time>
      </trkpt>
      <trkpt lat="44.3881" lon="6.39214">
        <ele>2082</ele>
        <time>2020-07-07T07:10:59.000Z</time>
      </trkpt>
      <trkpt lat="44.3881" lon="6.39212">
        <ele>2082</ele>
        <time>2020-07-07T07:11:00.000Z</time>
      </trkpt>
      <trkpt lat="44.3881" lon="6.39211">
        <ele>2082</ele>
        <time>2020-07-07T07:11:01.000Z</time>
      </trkpt>
      <trkpt lat="44.3881" lon="6.3921">
        <ele>2082</ele>
        <time>2020-07-07T07:11:02.000Z</time>
      </trkpt>
      <trkpt lat="44.3881" lon="6.39208">
        <ele>2083</ele>
        <time>2020-07-07T07:11:03.000Z</time>
      </trkpt>
      <trkpt lat="44.3881" lon="6.39206">
        <ele>2083</ele>
        <time>2020-07-07T07:11:04.000Z</time>
      </trkpt>
      <trkpt lat="44.38809" lon="6.39205">
        <ele>2083</ele>
        <time>2020-07-07T07:11:05.000Z</time>
      </trkpt>
      <trkpt lat="44.3881" lon="6.39203">
        <ele>2083</ele>
        <time>2020-07-07T07:11:06.000Z</time>
      </trkpt>
      <trkpt lat="44.38811" lon="6.39202">
        <ele>2083</ele>
        <time>2020-07-07T07:11:07.000Z</time>
      </trkpt>
      <trkpt lat="44.38811" lon="6.392">
        <ele>2083</ele>
        <time>2020-07-07T07:11:08.000Z</time>
      </trkpt>
      <trkpt lat="44.38812" lon="6.39199">
        <ele>2083</ele>
        <time>2020-07-07T07:11:09.000Z</time>
      </trkpt>
      <trkpt lat="44.38812" lon="6.39198">
        <ele>2083</ele>
        <time>2020-07-07T07:11:10.000Z</time>
      </trkpt>
      <trkpt lat="44.38813" lon="6.39197">
        <ele>2083</ele>
        <time>2020-07-07T07:11:11.000Z</time>
      </trkpt>
      <trkpt lat="44.38814" lon="6.39195">
        <ele>2083</ele>
        <time>2020-07-07T07:11:12.000Z</time>
      </trkpt>
      <trkpt lat="44.38814" lon="6.39194">
        <ele>2083</ele>
        <time>2020-07-07T07:11:13.000Z</time>
      </trkpt>
      <trkpt lat="44.38815" lon="6.39193">
        <ele>2083</ele>
        <time>2020-07-07T07:11:14.000Z</time>
      </trkpt>
      <trkpt lat="44.38816" lon="6.39192">
        <ele>2083</ele>
        <time>2020-07-07T07:11:15.000Z</time>
      </trkpt>
      <trkpt lat="44.38817" lon="6.39191">
        <ele>2083</ele>
        <time>2020-07-07T07:11:16.000Z</time>
      </trkpt>
      <trkpt lat="44.38818" lon="6.39191">
        <ele>2083</ele>
        <time>2020-07-07T07:11:17.000Z</time>
      </trkpt>
      <trkpt lat="44.38819" lon="6.3919">
        <ele>2083</ele>
        <time>2020-07-07T07:11:18.000Z</time>
      </trkpt>
      <trkpt lat="44.38819" lon="6.39189">
        <ele>2083</ele>
        <time>2020-07-07T07:11:19.000Z</time>
      </trkpt>
      <trkpt lat="44.3882" lon="6.39188">
        <ele>2083</ele>
        <time>2020-07-07T07:11:20.000Z</time>
      </trkpt>
      <trkpt lat="44.3882" lon="6.39188">
        <ele>2083</ele>
        <time>2020-07-07T07:11:21.000Z</time>
      </trkpt>
      <trkpt lat="44.3882" lon="6.39189">
        <ele>2083</ele>
        <time>2020-07-07T07:11:22.000Z</time>
      </trkpt>
      <trkpt lat="44.3882" lon="6.39188">
        <ele>2083</ele>
        <time>2020-07-07T07:11:23.000Z</time>
      </trkpt>
      <trkpt lat="44.3882" lon="6.39188">
        <ele>2083</ele>
        <time>2020-07-07T07:11:24.000Z</time>
      </trkpt>
      <trkpt lat="44.3882" lon="6.39188">
        <ele>2083</ele>
        <time>2020-07-07T07:11:25.000Z</time>
      </trkpt>
      <trkpt lat="44.38822" lon="6.39186">
        <ele>2084</ele>
        <time>2020-07-07T07:11:26.000Z</time>
      </trkpt>
      <trkpt lat="44.38823" lon="6.39186">
        <ele>2084</ele>
        <time>2020-07-07T07:11:27.000Z</time>
      </trkpt>
      <trkpt lat="44.38823" lon="6.39186">
        <ele>2084</ele>
        <time>2020-07-07T07:11:28.000Z</time>
      </trkpt>
      <trkpt lat="44.38823" lon="6.39185">
        <ele>2084</ele>
        <time>2020-07-07T07:11:29.000Z</time>
      </trkpt>
      <trkpt lat="44.38825" lon="6.39183">
        <ele>2084</ele>
        <time>2020-07-07T07:11:30.000Z</time>
      </trkpt>
      <trkpt lat="44.38826" lon="6.39182">
        <ele>2084</ele>
        <time>2020-07-07T07:11:31.000Z</time>
      </trkpt>
      <trkpt lat="44.38826" lon="6.39182">
        <ele>2084</ele>
        <time>2020-07-07T07:11:32.000Z</time>
      </trkpt>
      <trkpt lat="44.38826" lon="6.39181">
        <ele>2084</ele>
        <time>2020-07-07T07:11:33.000Z</time>
      </trkpt>
      <trkpt lat="44.38827" lon="6.3918">
        <ele>2084</ele>
        <time>2020-07-07T07:11:34.000Z</time>
      </trkpt>
      <trkpt lat="44.38827" lon="6.39179">
        <ele>2084</ele>
        <time>2020-07-07T07:11:35.000Z</time>
      </trkpt>
      <trkpt lat="44.38828" lon="6.39178">
        <ele>2084</ele>
        <time>2020-07-07T07:11:36.000Z</time>
      </trkpt>
      <trkpt lat="44.38829" lon="6.39177">
        <ele>2085</ele>
        <time>2020-07-07T07:11:37.000Z</time>
      </trkpt>
      <trkpt lat="44.3883" lon="6.39176">
        <ele>2085</ele>
        <time>2020-07-07T07:11:38.000Z</time>
      </trkpt>
      <trkpt lat="44.3883" lon="6.39175">
        <ele>2085</ele>
        <time>2020-07-07T07:11:39.000Z</time>
      </trkpt>
      <trkpt lat="44.38831" lon="6.39174">
        <ele>2085</ele>
        <time>2020-07-07T07:11:40.000Z</time>
      </trkpt>
      <trkpt lat="44.38832" lon="6.39172">
        <ele>2085</ele>
        <time>2020-07-07T07:11:41.000Z</time>
      </trkpt>
      <trkpt lat="44.38832" lon="6.39171">
        <ele>2086</ele>
        <time>2020-07-07T07:11:42.000Z</time>
      </trkpt>
      <trkpt lat="44.38833" lon="6.3917">
        <ele>2086</ele>
        <time>2020-07-07T07:11:43.000Z</time>
      </trkpt>
      <trkpt lat="44.38833" lon="6.39169">
        <ele>2086</ele>
        <time>2020-07-07T07:11:44.000Z</time>
      </trkpt>
      <trkpt lat="44.38834" lon="6.39167">
        <ele>2086</ele>
        <time>2020-07-07T07:11:45.000Z</time>
      </trkpt>
      <trkpt lat="44.38834" lon="6.39167">
        <ele>2086</ele>
        <time>2020-07-07T07:11:46.000Z</time>
      </trkpt>
      <trkpt lat="44.38835" lon="6.39166">
        <ele>2087</ele>
        <time>2020-07-07T07:11:47.000Z</time>
      </trkpt>
      <trkpt lat="44.38835" lon="6.39166">
        <ele>2087</ele>
        <time>2020-07-07T07:11:48.000Z</time>
      </trkpt>
      <trkpt lat="44.38837" lon="6.39163">
        <ele>2087</ele>
        <time>2020-07-07T07:11:49.000Z</time>
      </trkpt>
      <trkpt lat="44.38837" lon="6.39163">
        <ele>2087</ele>
        <time>2020-07-07T07:11:50.000Z</time>
      </trkpt>
      <trkpt lat="44.38838" lon="6.39162">
        <ele>2087</ele>
        <time>2020-07-07T07:11:51.000Z</time>
      </trkpt>
      <trkpt lat="44.38838" lon="6.39162">
        <ele>2087</ele>
        <time>2020-07-07T07:11:52.000Z</time>
      </trkpt>
      <trkpt lat="44.38838" lon="6.3916">
        <ele>2087</ele>
        <time>2020-07-07T07:11:53.000Z</time>
      </trkpt>
      <trkpt lat="44.38838" lon="6.39159">
        <ele>2087</ele>
        <time>2020-07-07T07:11:54.000Z</time>
      </trkpt>
      <trkpt lat="44.38839" lon="6.39158">
        <ele>2087</ele>
        <time>2020-07-07T07:11:55.000Z</time>
      </trkpt>
      <trkpt lat="44.38839" lon="6.39158">
        <ele>2087</ele>
        <time>2020-07-07T07:11:56.000Z</time>
      </trkpt>
      <trkpt lat="44.3884" lon="6.39157">
        <ele>2087</ele>
        <time>2020-07-07T07:11:57.000Z</time>
      </trkpt>
      <trkpt lat="44.38841" lon="6.39156">
        <ele>2087</ele>
        <time>2020-07-07T07:11:58.000Z</time>
      </trkpt>
      <trkpt lat="44.38841" lon="6.39156">
        <ele>2087</ele>
        <time>2020-07-07T07:11:59.000Z</time>
      </trkpt>
      <trkpt lat="44.38841" lon="6.39156">
        <ele>2088</ele>
        <time>2020-07-07T07:12:00.000Z</time>
      </trkpt>
      <trkpt lat="44.38842" lon="6.39155">
        <ele>2088</ele>
        <time>2020-07-07T07:12:01.000Z</time>
      </trkpt>
      <trkpt lat="44.38843" lon="6.39153">
        <ele>2088</ele>
        <time>2020-07-07T07:12:02.000Z</time>
      </trkpt>
      <trkpt lat="44.38843" lon="6.39153">
        <ele>2088</ele>
        <time>2020-07-07T07:12:03.000Z</time>
      </trkpt>
      <trkpt lat="44.38844" lon="6.39152">
        <ele>2088</ele>
        <time>2020-07-07T07:12:04.000Z</time>
      </trkpt>
      <trkpt lat="44.38845" lon="6.39152">
        <ele>2088</ele>
        <time>2020-07-07T07:12:05.000Z</time>
      </trkpt>
      <trkpt lat="44.38845" lon="6.39151">
        <ele>2088</ele>
        <time>2020-07-07T07:12:06.000Z</time>
      </trkpt>
      <trkpt lat="44.38846" lon="6.39151">
        <ele>2088</ele>
        <time>2020-07-07T07:12:07.000Z</time>
      </trkpt>
      <trkpt lat="44.38847" lon="6.39151">
        <ele>2088</ele>
        <time>2020-07-07T07:12:08.000Z</time>
      </trkpt>
      <trkpt lat="44.38847" lon="6.3915">
        <ele>2089</ele>
        <time>2020-07-07T07:12:09.000Z</time>
      </trkpt>
      <trkpt lat="44.38848" lon="6.3915">
        <ele>2089</ele>
        <time>2020-07-07T07:12:10.000Z</time>
      </trkpt>
      <trkpt lat="44.38849" lon="6.39149">
        <ele>2089</ele>
        <time>2020-07-07T07:12:11.000Z</time>
      </trkpt>
      <trkpt lat="44.38849" lon="6.39149">
        <ele>2089</ele>
        <time>2020-07-07T07:12:12.000Z</time>
      </trkpt>
      <trkpt lat="44.3885" lon="6.39149">
        <ele>2089</ele>
        <time>2020-07-07T07:12:13.000Z</time>
      </trkpt>
      <trkpt lat="44.3885" lon="6.39149">
        <ele>2089</ele>
        <time>2020-07-07T07:12:14.000Z</time>
      </trkpt>
      <trkpt lat="44.38852" lon="6.39148">
        <ele>2090</ele>
        <time>2020-07-07T07:12:15.000Z</time>
      </trkpt>
      <trkpt lat="44.38852" lon="6.39148">
        <ele>2090</ele>
        <time>2020-07-07T07:12:16.000Z</time>
      </trkpt>
      <trkpt lat="44.38852" lon="6.39148">
        <ele>2090</ele>
        <time>2020-07-07T07:12:17.000Z</time>
      </trkpt>
      <trkpt lat="44.38853" lon="6.39147">
        <ele>2090</ele>
        <time>2020-07-07T07:12:18.000Z</time>
      </trkpt>
      <trkpt lat="44.38854" lon="6.39147">
        <ele>2091</ele>
        <time>2020-07-07T07:12:19.000Z</time>
      </trkpt>
      <trkpt lat="44.38855" lon="6.39146">
        <ele>2091</ele>
        <time>2020-07-07T07:12:20.000Z</time>
      </trkpt>
      <trkpt lat="44.38856" lon="6.39146">
        <ele>2091</ele>
        <time>2020-07-07T07:12:21.000Z</time>
      </trkpt>
      <trkpt lat="44.38856" lon="6.39146">
        <ele>2091</ele>
        <time>2020-07-07T07:12:22.000Z</time>
      </trkpt>
      <trkpt lat="44.38857" lon="6.39146">
        <ele>2092</ele>
        <time>2020-07-07T07:12:23.000Z</time>
      </trkpt>
      <trkpt lat="44.38858" lon="6.39145">
        <ele>2092</ele>
        <time>2020-07-07T07:12:24.000Z</time>
      </trkpt>
      <trkpt lat="44.38858" lon="6.39145">
        <ele>2092</ele>
        <time>2020-07-07T07:12:25.000Z</time>
      </trkpt>
      <trkpt lat="44.38859" lon="6.39145">
        <ele>2092</ele>
        <time>2020-07-07T07:12:26.000Z</time>
      </trkpt>
      <trkpt lat="44.38858" lon="6.39145">
        <ele>2092</ele>
        <time>2020-07-07T07:12:27.000Z</time>
      </trkpt>
      <trkpt lat="44.38859" lon="6.39144">
        <ele>2093</ele>
        <time>2020-07-07T07:12:28.000Z</time>
      </trkpt>
      <trkpt lat="44.3886" lon="6.39144">
        <ele>2093</ele>
        <time>2020-07-07T07:12:29.000Z</time>
      </trkpt>
      <trkpt lat="44.38861" lon="6.39144">
        <ele>2093</ele>
        <time>2020-07-07T07:12:30.000Z</time>
      </trkpt>
      <trkpt lat="44.38861" lon="6.39144">
        <ele>2093</ele>
        <time>2020-07-07T07:12:31.000Z</time>
      </trkpt>
      <trkpt lat="44.38861" lon="6.39144">
        <ele>2093</ele>
        <time>2020-07-07T07:12:32.000Z</time>
      </trkpt>
      <trkpt lat="44.38861" lon="6.39143">
        <ele>2094</ele>
        <time>2020-07-07T07:12:33.000Z</time>
      </trkpt>
      <trkpt lat="44.38862" lon="6.39143">
        <ele>2094</ele>
        <time>2020-07-07T07:12:34.000Z</time>
      </trkpt>
      <trkpt lat="44.38863" lon="6.39142">
        <ele>2094</ele>
        <time>2020-07-07T07:12:35.000Z</time>
      </trkpt>
      <trkpt lat="44.38863" lon="6.39142">
        <ele>2094</ele>
        <time>2020-07-07T07:12:36.000Z</time>
      </trkpt>
      <trkpt lat="44.38864" lon="6.39141">
        <ele>2094</ele>
        <time>2020-07-07T07:12:37.000Z</time>
      </trkpt>
      <trkpt lat="44.38865" lon="6.3914">
        <ele>2094</ele>
        <time>2020-07-07T07:12:38.000Z</time>
      </trkpt>
      <trkpt lat="44.38866" lon="6.39139">
        <ele>2094</ele>
        <time>2020-07-07T07:12:39.000Z</time>
      </trkpt>
      <trkpt lat="44.38866" lon="6.39139">
        <ele>2095</ele>
        <time>2020-07-07T07:12:40.000Z</time>
      </trkpt>
      <trkpt lat="44.38867" lon="6.39139">
        <ele>2095</ele>
        <time>2020-07-07T07:12:41.000Z</time>
      </trkpt>
      <trkpt lat="44.38868" lon="6.39138">
        <ele>2095</ele>
        <time>2020-07-07T07:12:42.000Z</time>
      </trkpt>
      <trkpt lat="44.38869" lon="6.39138">
        <ele>2095</ele>
        <time>2020-07-07T07:12:43.000Z</time>
      </trkpt>
      <trkpt lat="44.38869" lon="6.39138">
        <ele>2095</ele>
        <time>2020-07-07T07:12:44.000Z</time>
      </trkpt>
      <trkpt lat="44.38871" lon="6.39137">
        <ele>2095</ele>
        <time>2020-07-07T07:12:45.000Z</time>
      </trkpt>
      <trkpt lat="44.38871" lon="6.39137">
        <ele>2096</ele>
        <time>2020-07-07T07:12:46.000Z</time>
      </trkpt>
      <trkpt lat="44.38872" lon="6.39136">
        <ele>2096</ele>
        <time>2020-07-07T07:12:47.000Z</time>
      </trkpt>
      <trkpt lat="44.38873" lon="6.39136">
        <ele>2096</ele>
        <time>2020-07-07T07:12:48.000Z</time>
      </trkpt>
      <trkpt lat="44.38873" lon="6.39135">
        <ele>2096</ele>
        <time>2020-07-07T07:12:49.000Z</time>
      </trkpt>
      <trkpt lat="44.38874" lon="6.39135">
        <ele>2096</ele>
        <time>2020-07-07T07:12:50.000Z</time>
      </trkpt>
      <trkpt lat="44.38874" lon="6.39135">
        <ele>2096</ele>
        <time>2020-07-07T07:12:51.000Z</time>
      </trkpt>
      <trkpt lat="44.38875" lon="6.39134">
        <ele>2096</ele>
        <time>2020-07-07T07:12:52.000Z</time>
      </trkpt>
      <trkpt lat="44.38875" lon="6.39133">
        <ele>2096</ele>
        <time>2020-07-07T07:12:53.000Z</time>
      </trkpt>
      <trkpt lat="44.38875" lon="6.39132">
        <ele>2096</ele>
        <time>2020-07-07T07:12:54.000Z</time>
      </trkpt>
      <trkpt lat="44.38876" lon="6.39132">
        <ele>2096</ele>
        <time>2020-07-07T07:12:55.000Z</time>
      </trkpt>
      <trkpt lat="44.38876" lon="6.39131">
        <ele>2096</ele>
        <time>2020-07-07T07:12:56.000Z</time>
      </trkpt>
      <trkpt lat="44.38878" lon="6.3913">
        <ele>2096</ele>
        <time>2020-07-07T07:12:57.000Z</time>
      </trkpt>
      <trkpt lat="44.38879" lon="6.39129">
        <ele>2097</ele>
        <time>2020-07-07T07:12:58.000Z</time>
      </trkpt>
      <trkpt lat="44.3888" lon="6.39129">
        <ele>2097</ele>
        <time>2020-07-07T07:12:59.000Z</time>
      </trkpt>
      <trkpt lat="44.38881" lon="6.39128">
        <ele>2097</ele>
        <time>2020-07-07T07:13:00.000Z</time>
      </trkpt>
      <trkpt lat="44.38881" lon="6.39128">
        <ele>2097</ele>
        <time>2020-07-07T07:13:01.000Z</time>
      </trkpt>
      <trkpt lat="44.38882" lon="6.39127">
        <ele>2097</ele>
        <time>2020-07-07T07:13:02.000Z</time>
      </trkpt>
      <trkpt lat="44.38883" lon="6.39127">
        <ele>2097</ele>
        <time>2020-07-07T07:13:03.000Z</time>
      </trkpt>
      <trkpt lat="44.38884" lon="6.39126">
        <ele>2097</ele>
        <time>2020-07-07T07:13:04.000Z</time>
      </trkpt>
      <trkpt lat="44.38885" lon="6.39126">
        <ele>2097</ele>
        <time>2020-07-07T07:13:05.000Z</time>
      </trkpt>
      <trkpt lat="44.38887" lon="6.39125">
        <ele>2097</ele>
        <time>2020-07-07T07:13:06.000Z</time>
      </trkpt>
      <trkpt lat="44.38889" lon="6.39125">
        <ele>2097</ele>
        <time>2020-07-07T07:13:07.000Z</time>
      </trkpt>
      <trkpt lat="44.3889" lon="6.39124">
        <ele>2098</ele>
        <time>2020-07-07T07:13:08.000Z</time>
      </trkpt>
      <trkpt lat="44.38891" lon="6.39124">
        <ele>2098</ele>
        <time>2020-07-07T07:13:09.000Z</time>
      </trkpt>
      <trkpt lat="44.38891" lon="6.39124">
        <ele>2098</ele>
        <time>2020-07-07T07:13:10.000Z</time>
      </trkpt>
      <trkpt lat="44.38892" lon="6.39123">
        <ele>2098</ele>
        <time>2020-07-07T07:13:11.000Z</time>
      </trkpt>
      <trkpt lat="44.38893" lon="6.39122">
        <ele>2098</ele>
        <time>2020-07-07T07:13:12.000Z</time>
      </trkpt>
      <trkpt lat="44.38894" lon="6.39121">
        <ele>2098</ele>
        <time>2020-07-07T07:13:13.000Z</time>
      </trkpt>
      <trkpt lat="44.38894" lon="6.39121">
        <ele>2098</ele>
        <time>2020-07-07T07:13:14.000Z</time>
      </trkpt>
      <trkpt lat="44.38894" lon="6.39121">
        <ele>2098</ele>
        <time>2020-07-07T07:13:15.000Z</time>
      </trkpt>
      <trkpt lat="44.38895" lon="6.3912">
        <ele>2098</ele>
        <time>2020-07-07T07:13:16.000Z</time>
      </trkpt>
      <trkpt lat="44.38896" lon="6.39119">
        <ele>2098</ele>
        <time>2020-07-07T07:13:17.000Z</time>
      </trkpt>
      <trkpt lat="44.38897" lon="6.39119">
        <ele>2098</ele>
        <time>2020-07-07T07:13:18.000Z</time>
      </trkpt>
      <trkpt lat="44.38898" lon="6.39118">
        <ele>2098</ele>
        <time>2020-07-07T07:13:19.000Z</time>
      </trkpt>
      <trkpt lat="44.38899" lon="6.39117">
        <ele>2098</ele>
        <time>2020-07-07T07:13:20.000Z</time>
      </trkpt>
      <trkpt lat="44.38899" lon="6.39117">
        <ele>2099</ele>
        <time>2020-07-07T07:13:21.000Z</time>
      </trkpt>
      <trkpt lat="44.389" lon="6.39116">
        <ele>2099</ele>
        <time>2020-07-07T07:13:22.000Z</time>
      </trkpt>
      <trkpt lat="44.38901" lon="6.39115">
        <ele>2099</ele>
        <time>2020-07-07T07:13:23.000Z</time>
      </trkpt>
      <trkpt lat="44.38901" lon="6.39114">
        <ele>2099</ele>
        <time>2020-07-07T07:13:24.000Z</time>
      </trkpt>
      <trkpt lat="44.38903" lon="6.39113">
        <ele>2100</ele>
        <time>2020-07-07T07:13:25.000Z</time>
      </trkpt>
      <trkpt lat="44.38904" lon="6.39112">
        <ele>2100</ele>
        <time>2020-07-07T07:13:26.000Z</time>
      </trkpt>
      <trkpt lat="44.38904" lon="6.39112">
        <ele>2100</ele>
        <time>2020-07-07T07:13:27.000Z</time>
      </trkpt>
      <trkpt lat="44.38905" lon="6.39111">
        <ele>2101</ele>
        <time>2020-07-07T07:13:28.000Z</time>
      </trkpt>
      <trkpt lat="44.38906" lon="6.3911">
        <ele>2101</ele>
        <time>2020-07-07T07:13:29.000Z</time>
      </trkpt>
      <trkpt lat="44.38906" lon="6.3911">
        <ele>2101</ele>
        <time>2020-07-07T07:13:30.000Z</time>
      </trkpt>
      <trkpt lat="44.38906" lon="6.3911">
        <ele>2101</ele>
        <time>2020-07-07T07:13:31.000Z</time>
      </trkpt>
      <trkpt lat="44.38907" lon="6.39109">
        <ele>2101</ele>
        <time>2020-07-07T07:13:32.000Z</time>
      </trkpt>
      <trkpt lat="44.38907" lon="6.39109">
        <ele>2101</ele>
        <time>2020-07-07T07:13:33.000Z</time>
      </trkpt>
      <trkpt lat="44.38909" lon="6.39109">
        <ele>2102</ele>
        <time>2020-07-07T07:13:34.000Z</time>
      </trkpt>
      <trkpt lat="44.38909" lon="6.39109">
        <ele>2102</ele>
        <time>2020-07-07T07:13:35.000Z</time>
      </trkpt>
      <trkpt lat="44.3891" lon="6.39108">
        <ele>2102</ele>
        <time>2020-07-07T07:13:36.000Z</time>
      </trkpt>
      <trkpt lat="44.3891" lon="6.39108">
        <ele>2102</ele>
        <time>2020-07-07T07:13:37.000Z</time>
      </trkpt>
      <trkpt lat="44.38911" lon="6.39108">
        <ele>2102</ele>
        <time>2020-07-07T07:13:38.000Z</time>
      </trkpt>
      <trkpt lat="44.38912" lon="6.39108">
        <ele>2102</ele>
        <time>2020-07-07T07:13:39.000Z</time>
      </trkpt>
      <trkpt lat="44.38914" lon="6.39107">
        <ele>2102</ele>
        <time>2020-07-07T07:13:40.000Z</time>
      </trkpt>
      <trkpt lat="44.38914" lon="6.39107">
        <ele>2102</ele>
        <time>2020-07-07T07:13:41.000Z</time>
      </trkpt>
      <trkpt lat="44.38915" lon="6.39107">
        <ele>2102</ele>
        <time>2020-07-07T07:13:42.000Z</time>
      </trkpt>
      <trkpt lat="44.38915" lon="6.39107">
        <ele>2102</ele>
        <time>2020-07-07T07:13:43.000Z</time>
      </trkpt>
      <trkpt lat="44.38917" lon="6.39107">
        <ele>2102</ele>
        <time>2020-07-07T07:13:44.000Z</time>
      </trkpt>
      <trkpt lat="44.38918" lon="6.39107">
        <ele>2102</ele>
        <time>2020-07-07T07:13:45.000Z</time>
      </trkpt>
      <trkpt lat="44.38918" lon="6.39106">
        <ele>2103</ele>
        <time>2020-07-07T07:13:46.000Z</time>
      </trkpt>
      <trkpt lat="44.38918" lon="6.39106">
        <ele>2103</ele>
        <time>2020-07-07T07:13:47.000Z</time>
      </trkpt>
      <trkpt lat="44.38919" lon="6.39106">
        <ele>2103</ele>
        <time>2020-07-07T07:13:48.000Z</time>
      </trkpt>
      <trkpt lat="44.38919" lon="6.39106">
        <ele>2103</ele>
        <time>2020-07-07T07:13:49.000Z</time>
      </trkpt>
      <trkpt lat="44.3892" lon="6.39106">
        <ele>2103</ele>
        <time>2020-07-07T07:13:50.000Z</time>
      </trkpt>
      <trkpt lat="44.3892" lon="6.39106">
        <ele>2103</ele>
        <time>2020-07-07T07:13:51.000Z</time>
      </trkpt>
      <trkpt lat="44.38921" lon="6.39105">
        <ele>2103</ele>
        <time>2020-07-07T07:13:52.000Z</time>
      </trkpt>
      <trkpt lat="44.38922" lon="6.39106">
        <ele>2103</ele>
        <time>2020-07-07T07:13:53.000Z</time>
      </trkpt>
      <trkpt lat="44.38923" lon="6.39106">
        <ele>2103</ele>
        <time>2020-07-07T07:13:54.000Z</time>
      </trkpt>
      <trkpt lat="44.38923" lon="6.39105">
        <ele>2103</ele>
        <time>2020-07-07T07:13:55.000Z</time>
      </trkpt>
      <trkpt lat="44.38923" lon="6.39105">
        <ele>2103</ele>
        <time>2020-07-07T07:13:56.000Z</time>
      </trkpt>
      <trkpt lat="44.38924" lon="6.39105">
        <ele>2103</ele>
        <time>2020-07-07T07:13:57.000Z</time>
      </trkpt>
      <trkpt lat="44.38925" lon="6.39105">
        <ele>2104</ele>
        <time>2020-07-07T07:13:58.000Z</time>
      </trkpt>
      <trkpt lat="44.38926" lon="6.39105">
        <ele>2104</ele>
        <time>2020-07-07T07:13:59.000Z</time>
      </trkpt>
      <trkpt lat="44.38927" lon="6.39105">
        <ele>2104</ele>
        <time>2020-07-07T07:14:00.000Z</time>
      </trkpt>
      <trkpt lat="44.38927" lon="6.39105">
        <ele>2104</ele>
        <time>2020-07-07T07:14:01.000Z</time>
      </trkpt>
      <trkpt lat="44.38929" lon="6.39105">
        <ele>2104</ele>
        <time>2020-07-07T07:14:02.000Z</time>
      </trkpt>
      <trkpt lat="44.3893" lon="6.39105">
        <ele>2104</ele>
        <time>2020-07-07T07:14:03.000Z</time>
      </trkpt>
      <trkpt lat="44.3893" lon="6.39105">
        <ele>2104</ele>
        <time>2020-07-07T07:14:04.000Z</time>
      </trkpt>
      <trkpt lat="44.38931" lon="6.39105">
        <ele>2104</ele>
        <time>2020-07-07T07:14:05.000Z</time>
      </trkpt>
      <trkpt lat="44.38931" lon="6.39104">
        <ele>2104</ele>
        <time>2020-07-07T07:14:06.000Z</time>
      </trkpt>
      <trkpt lat="44.38933" lon="6.39103">
        <ele>2104</ele>
        <time>2020-07-07T07:14:07.000Z</time>
      </trkpt>
      <trkpt lat="44.38933" lon="6.39103">
        <ele>2104</ele>
        <time>2020-07-07T07:14:08.000Z</time>
      </trkpt>
      <trkpt lat="44.38933" lon="6.39103">
        <ele>2104</ele>
        <time>2020-07-07T07:14:09.000Z</time>
      </trkpt>
      <trkpt lat="44.38935" lon="6.39101">
        <ele>2105</ele>
        <time>2020-07-07T07:14:10.000Z</time>
      </trkpt>
      <trkpt lat="44.38935" lon="6.39101">
        <ele>2105</ele>
        <time>2020-07-07T07:14:11.000Z</time>
      </trkpt>
      <trkpt lat="44.38936" lon="6.39101">
        <ele>2105</ele>
        <time>2020-07-07T07:14:12.000Z</time>
      </trkpt>
      <trkpt lat="44.38936" lon="6.391">
        <ele>2105</ele>
        <time>2020-07-07T07:14:13.000Z</time>
      </trkpt>
      <trkpt lat="44.38937" lon="6.39098">
        <ele>2105</ele>
        <time>2020-07-07T07:14:14.000Z</time>
      </trkpt>
      <trkpt lat="44.38938" lon="6.39097">
        <ele>2105</ele>
        <time>2020-07-07T07:14:15.000Z</time>
      </trkpt>
      <trkpt lat="44.38938" lon="6.39096">
        <ele>2105</ele>
        <time>2020-07-07T07:14:16.000Z</time>
      </trkpt>
      <trkpt lat="44.38939" lon="6.39095">
        <ele>2105</ele>
        <time>2020-07-07T07:14:17.000Z</time>
      </trkpt>
      <trkpt lat="44.38939" lon="6.39095">
        <ele>2105</ele>
        <time>2020-07-07T07:14:18.000Z</time>
      </trkpt>
      <trkpt lat="44.38939" lon="6.39095">
        <ele>2105</ele>
        <time>2020-07-07T07:14:19.000Z</time>
      </trkpt>
      <trkpt lat="44.3894" lon="6.39094">
        <ele>2105</ele>
        <time>2020-07-07T07:14:20.000Z</time>
      </trkpt>
      <trkpt lat="44.3894" lon="6.39093">
        <ele>2105</ele>
        <time>2020-07-07T07:14:21.000Z</time>
      </trkpt>
      <trkpt lat="44.38941" lon="6.39092">
        <ele>2105</ele>
        <time>2020-07-07T07:14:22.000Z</time>
      </trkpt>
      <trkpt lat="44.38942" lon="6.39092">
        <ele>2105</ele>
        <time>2020-07-07T07:14:23.000Z</time>
      </trkpt>
      <trkpt lat="44.38942" lon="6.39091">
        <ele>2105</ele>
        <time>2020-07-07T07:14:24.000Z</time>
      </trkpt>
      <trkpt lat="44.38943" lon="6.3909">
        <ele>2105</ele>
        <time>2020-07-07T07:14:25.000Z</time>
      </trkpt>
      <trkpt lat="44.38943" lon="6.3909">
        <ele>2105</ele>
        <time>2020-07-07T07:14:26.000Z</time>
      </trkpt>
      <trkpt lat="44.38943" lon="6.3909">
        <ele>2105</ele>
        <time>2020-07-07T07:14:27.000Z</time>
      </trkpt>
      <trkpt lat="44.38943" lon="6.3909">
        <ele>2105</ele>
        <time>2020-07-07T07:14:28.000Z</time>
      </trkpt>
      <trkpt lat="44.38943" lon="6.3909">
        <ele>2105</ele>
        <time>2020-07-07T07:14:29.000Z</time>
      </trkpt>
      <trkpt lat="44.38943" lon="6.3909">
        <ele>2105</ele>
        <time>2020-07-07T07:14:30.000Z</time>
      </trkpt>
      <trkpt lat="44.38943" lon="6.3909">
        <ele>2106</ele>
        <time>2020-07-07T07:14:31.000Z</time>
      </trkpt>
      <trkpt lat="44.38943" lon="6.3909">
        <ele>2106</ele>
        <time>2020-07-07T07:14:32.000Z</time>
      </trkpt>
      <trkpt lat="44.38943" lon="6.3909">
        <ele>2106</ele>
        <time>2020-07-07T07:14:33.000Z</time>
      </trkpt>
      <trkpt lat="44.38943" lon="6.3909">
        <ele>2106</ele>
        <time>2020-07-07T07:14:34.000Z</time>
      </trkpt>
      <trkpt lat="44.38944" lon="6.3909">
        <ele>2106</ele>
        <time>2020-07-07T07:14:35.000Z</time>
      </trkpt>
      <trkpt lat="44.38944" lon="6.3909">
        <ele>2106</ele>
        <time>2020-07-07T07:14:36.000Z</time>
      </trkpt>
      <trkpt lat="44.38944" lon="6.3909">
        <ele>2106</ele>
        <time>2020-07-07T07:14:37.000Z</time>
      </trkpt>
      <trkpt lat="44.38944" lon="6.3909">
        <ele>2106</ele>
        <time>2020-07-07T07:14:38.000Z</time>
      </trkpt>
      <trkpt lat="44.38944" lon="6.3909">
        <ele>2106</ele>
        <time>2020-07-07T07:14:39.000Z</time>
      </trkpt>
      <trkpt lat="44.38944" lon="6.3909">
        <ele>2106</ele>
        <time>2020-07-07T07:14:40.000Z</time>
      </trkpt>
      <trkpt lat="44.38944" lon="6.3909">
        <ele>2106</ele>
        <time>2020-07-07T07:14:41.000Z</time>
      </trkpt>
      <trkpt lat="44.38944" lon="6.39089">
        <ele>2106</ele>
        <time>2020-07-07T07:14:42.000Z</time>
      </trkpt>
      <trkpt lat="44.38944" lon="6.3909">
        <ele>2106</ele>
        <time>2020-07-07T07:14:43.000Z</time>
      </trkpt>
      <trkpt lat="44.38944" lon="6.3909">
        <ele>2106</ele>
        <time>2020-07-07T07:14:44.000Z</time>
      </trkpt>
      <trkpt lat="44.38944" lon="6.3909">
        <ele>2106</ele>
        <time>2020-07-07T07:14:45.000Z</time>
      </trkpt>
      <trkpt lat="44.38944" lon="6.3909">
        <ele>2106</ele>
        <time>2020-07-07T07:14:46.000Z</time>
      </trkpt>
      <trkpt lat="44.38944" lon="6.39089">
        <ele>2106</ele>
        <time>2020-07-07T07:14:47.000Z</time>
      </trkpt>
      <trkpt lat="44.38944" lon="6.39089">
        <ele>2106</ele>
        <time>2020-07-07T07:14:48.000Z</time>
      </trkpt>
      <trkpt lat="44.38944" lon="6.39089">
        <ele>2107</ele>
        <time>2020-07-07T07:14:49.000Z</time>
      </trkpt>
      <trkpt lat="44.38944" lon="6.39089">
        <ele>2107</ele>
        <time>2020-07-07T07:14:50.000Z</time>
      </trkpt>
      <trkpt lat="44.38944" lon="6.39089">
        <ele>2107</ele>
        <time>2020-07-07T07:14:51.000Z</time>
      </trkpt>
      <trkpt lat="44.38944" lon="6.39089">
        <ele>2107</ele>
        <time>2020-07-07T07:14:52.000Z</time>
      </trkpt>
      <trkpt lat="44.38944" lon="6.39089">
        <ele>2107</ele>
        <time>2020-07-07T07:14:53.000Z</time>
      </trkpt>
      <trkpt lat="44.38944" lon="6.39089">
        <ele>2107</ele>
        <time>2020-07-07T07:14:54.000Z</time>
      </trkpt>
      <trkpt lat="44.38944" lon="6.39089">
        <ele>2107</ele>
        <time>2020-07-07T07:14:55.000Z</time>
      </trkpt>
      <trkpt lat="44.38944" lon="6.39089">
        <ele>2107</ele>
        <time>2020-07-07T07:14:56.000Z</time>
      </trkpt>
      <trkpt lat="44.38944" lon="6.39089">
        <ele>2107</ele>
        <time>2020-07-07T07:14:57.000Z</time>
      </trkpt>
      <trkpt lat="44.38944" lon="6.39089">
        <ele>2107</ele>
        <time>2020-07-07T07:14:58.000Z</time>
      </trkpt>
      <trkpt lat="44.38944" lon="6.39089">
        <ele>2107</ele>
        <time>2020-07-07T07:14:59.000Z</time>
      </trkpt>
      <trkpt lat="44.38944" lon="6.39089">
        <ele>2107</ele>
        <time>2020-07-07T07:15:00.000Z</time>
      </trkpt>
      <trkpt lat="44.38944" lon="6.39089">
        <ele>2107</ele>
        <time>2020-07-07T07:15:01.000Z</time>
      </trkpt>
      <trkpt lat="44.38944" lon="6.39089">
        <ele>2108</ele>
        <time>2020-07-07T07:15:02.000Z</time>
      </trkpt>
      <trkpt lat="44.38944" lon="6.39089">
        <ele>2108</ele>
        <time>2020-07-07T07:15:03.000Z</time>
      </trkpt>
      <trkpt lat="44.38944" lon="6.39089">
        <ele>2108</ele>
        <time>2020-07-07T07:15:04.000Z</time>
      </trkpt>
      <trkpt lat="44.38944" lon="6.39089">
        <ele>2108</ele>
        <time>2020-07-07T07:15:05.000Z</time>
      </trkpt>
      <trkpt lat="44.38944" lon="6.39089">
        <ele>2108</ele>
        <time>2020-07-07T07:15:06.000Z</time>
      </trkpt>
      <trkpt lat="44.38944" lon="6.39089">
        <ele>2108</ele>
        <time>2020-07-07T07:15:07.000Z</time>
      </trkpt>
      <trkpt lat="44.38945" lon="6.39088">
        <ele>2108</ele>
        <time>2020-07-07T07:15:08.000Z</time>
      </trkpt>
      <trkpt lat="44.38945" lon="6.39088">
        <ele>2108</ele>
        <time>2020-07-07T07:15:09.000Z</time>
      </trkpt>
      <trkpt lat="44.38947" lon="6.39087">
        <ele>2108</ele>
        <time>2020-07-07T07:15:10.000Z</time>
      </trkpt>
      <trkpt lat="44.38947" lon="6.39087">
        <ele>2108</ele>
        <time>2020-07-07T07:15:11.000Z</time>
      </trkpt>
      <trkpt lat="44.38947" lon="6.39087">
        <ele>2108</ele>
        <time>2020-07-07T07:15:12.000Z</time>
      </trkpt>
      <trkpt lat="44.38948" lon="6.39086">
        <ele>2108</ele>
        <time>2020-07-07T07:15:13.000Z</time>
      </trkpt>
      <trkpt lat="44.3895" lon="6.39086">
        <ele>2108</ele>
        <time>2020-07-07T07:15:14.000Z</time>
      </trkpt>
      <trkpt lat="44.38951" lon="6.39085">
        <ele>2108</ele>
        <time>2020-07-07T07:15:15.000Z</time>
      </trkpt>
      <trkpt lat="44.38953" lon="6.39084">
        <ele>2108</ele>
        <time>2020-07-07T07:15:16.000Z</time>
      </trkpt>
      <trkpt lat="44.38953" lon="6.39084">
        <ele>2108</ele>
        <time>2020-07-07T07:15:17.000Z</time>
      </trkpt>
      <trkpt lat="44.38953" lon="6.39083">
        <ele>2108</ele>
        <time>2020-07-07T07:15:18.000Z</time>
      </trkpt>
      <trkpt lat="44.38955" lon="6.39082">
        <ele>2108</ele>
        <time>2020-07-07T07:15:19.000Z</time>
      </trkpt>
      <trkpt lat="44.38955" lon="6.39082">
        <ele>2108</ele>
        <time>2020-07-07T07:15:20.000Z</time>
      </trkpt>
      <trkpt lat="44.38956" lon="6.39082">
        <ele>2108</ele>
        <time>2020-07-07T07:15:21.000Z</time>
      </trkpt>
      <trkpt lat="44.38957" lon="6.39082">
        <ele>2108</ele>
        <time>2020-07-07T07:15:22.000Z</time>
      </trkpt>
      <trkpt lat="44.38957" lon="6.39081">
        <ele>2108</ele>
        <time>2020-07-07T07:15:23.000Z</time>
      </trkpt>
      <trkpt lat="44.38958" lon="6.39081">
        <ele>2108</ele>
        <time>2020-07-07T07:15:24.000Z</time>
      </trkpt>
      <trkpt lat="44.38959" lon="6.3908">
        <ele>2108</ele>
        <time>2020-07-07T07:15:25.000Z</time>
      </trkpt>
      <trkpt lat="44.38959" lon="6.3908">
        <ele>2108</ele>
        <time>2020-07-07T07:15:26.000Z</time>
      </trkpt>
      <trkpt lat="44.3896" lon="6.39079">
        <ele>2107</ele>
        <time>2020-07-07T07:15:27.000Z</time>
      </trkpt>
      <trkpt lat="44.38961" lon="6.39078">
        <ele>2108</ele>
        <time>2020-07-07T07:15:28.000Z</time>
      </trkpt>
      <trkpt lat="44.38962" lon="6.39077">
        <ele>2108</ele>
        <time>2020-07-07T07:15:29.000Z</time>
      </trkpt>
      <trkpt lat="44.38963" lon="6.39077">
        <ele>2108</ele>
        <time>2020-07-07T07:15:30.000Z</time>
      </trkpt>
      <trkpt lat="44.38964" lon="6.39076">
        <ele>2108</ele>
        <time>2020-07-07T07:15:31.000Z</time>
      </trkpt>
      <trkpt lat="44.38965" lon="6.39075">
        <ele>2108</ele>
        <time>2020-07-07T07:15:32.000Z</time>
      </trkpt>
      <trkpt lat="44.38966" lon="6.39075">
        <ele>2108</ele>
        <time>2020-07-07T07:15:33.000Z</time>
      </trkpt>
      <trkpt lat="44.38966" lon="6.39075">
        <ele>2108</ele>
        <time>2020-07-07T07:15:34.000Z</time>
      </trkpt>
      <trkpt lat="44.38967" lon="6.39074">
        <ele>2108</ele>
        <time>2020-07-07T07:15:35.000Z</time>
      </trkpt>
      <trkpt lat="44.38967" lon="6.39074">
        <ele>2108</ele>
        <time>2020-07-07T07:15:36.000Z</time>
      </trkpt>
      <trkpt lat="44.38967" lon="6.39074">
        <ele>2108</ele>
        <time>2020-07-07T07:15:37.000Z</time>
      </trkpt>
      <trkpt lat="44.38966" lon="6.39074">
        <ele>2108</ele>
        <time>2020-07-07T07:15:38.000Z</time>
      </trkpt>
      <trkpt lat="44.38967" lon="6.39074">
        <ele>2108</ele>
        <time>2020-07-07T07:15:39.000Z</time>
      </trkpt>
      <trkpt lat="44.38967" lon="6.39074">
        <ele>2108</ele>
        <time>2020-07-07T07:15:40.000Z</time>
      </trkpt>
      <trkpt lat="44.38967" lon="6.39074">
        <ele>2108</ele>
        <time>2020-07-07T07:15:41.000Z</time>
      </trkpt>
      <trkpt lat="44.38967" lon="6.39074">
        <ele>2108</ele>
        <time>2020-07-07T07:15:42.000Z</time>
      </trkpt>
      <trkpt lat="44.38967" lon="6.39074">
        <ele>2108</ele>
        <time>2020-07-07T07:15:43.000Z</time>
      </trkpt>
      <trkpt lat="44.38967" lon="6.39074">
        <ele>2108</ele>
        <time>2020-07-07T07:15:44.000Z</time>
      </trkpt>
      <trkpt lat="44.38967" lon="6.39074">
        <ele>2108</ele>
        <time>2020-07-07T07:15:45.000Z</time>
      </trkpt>
      <trkpt lat="44.38967" lon="6.39074">
        <ele>2108</ele>
        <time>2020-07-07T07:15:46.000Z</time>
      </trkpt>
      <trkpt lat="44.38967" lon="6.39075">
        <ele>2108</ele>
        <time>2020-07-07T07:15:47.000Z</time>
      </trkpt>
      <trkpt lat="44.38967" lon="6.39075">
        <ele>2108</ele>
        <time>2020-07-07T07:15:48.000Z</time>
      </trkpt>
      <trkpt lat="44.38967" lon="6.39075">
        <ele>2108</ele>
        <time>2020-07-07T07:15:49.000Z</time>
      </trkpt>
      <trkpt lat="44.38968" lon="6.39075">
        <ele>2108</ele>
        <time>2020-07-07T07:15:50.000Z</time>
      </trkpt>
      <trkpt lat="44.38968" lon="6.39075">
        <ele>2108</ele>
        <time>2020-07-07T07:15:51.000Z</time>
      </trkpt>
      <trkpt lat="44.38968" lon="6.39074">
        <ele>2108</ele>
        <time>2020-07-07T07:15:52.000Z</time>
      </trkpt>
      <trkpt lat="44.38968" lon="6.39074">
        <ele>2108</ele>
        <time>2020-07-07T07:15:53.000Z</time>
      </trkpt>
      <trkpt lat="44.38968" lon="6.39075">
        <ele>2108</ele>
        <time>2020-07-07T07:15:54.000Z</time>
      </trkpt>
      <trkpt lat="44.38968" lon="6.39074">
        <ele>2108</ele>
        <time>2020-07-07T07:15:55.000Z</time>
      </trkpt>
      <trkpt lat="44.38968" lon="6.39074">
        <ele>2108</ele>
        <time>2020-07-07T07:15:56.000Z</time>
      </trkpt>
      <trkpt lat="44.38969" lon="6.39074">
        <ele>2108</ele>
        <time>2020-07-07T07:15:57.000Z</time>
      </trkpt>
      <trkpt lat="44.38969" lon="6.39074">
        <ele>2108</ele>
        <time>2020-07-07T07:15:58.000Z</time>
      </trkpt>
      <trkpt lat="44.38969" lon="6.39074">
        <ele>2108</ele>
        <time>2020-07-07T07:15:59.000Z</time>
      </trkpt>
      <trkpt lat="44.38969" lon="6.39073">
        <ele>2108</ele>
        <time>2020-07-07T07:16:00.000Z</time>
      </trkpt>
      <trkpt lat="44.38969" lon="6.39073">
        <ele>2108</ele>
        <time>2020-07-07T07:16:01.000Z</time>
      </trkpt>
      <trkpt lat="44.38969" lon="6.39073">
        <ele>2108</ele>
        <time>2020-07-07T07:16:02.000Z</time>
      </trkpt>
      <trkpt lat="44.38969" lon="6.39073">
        <ele>2108</ele>
        <time>2020-07-07T07:16:03.000Z</time>
      </trkpt>
      <trkpt lat="44.3897" lon="6.39072">
        <ele>2108</ele>
        <time>2020-07-07T07:16:04.000Z</time>
      </trkpt>
      <trkpt lat="44.3897" lon="6.39073">
        <ele>2108</ele>
        <time>2020-07-07T07:16:05.000Z</time>
      </trkpt>
      <trkpt lat="44.3897" lon="6.39073">
        <ele>2107</ele>
        <time>2020-07-07T07:16:06.000Z</time>
      </trkpt>
      <trkpt lat="44.3897" lon="6.39073">
        <ele>2107</ele>
        <time>2020-07-07T07:16:07.000Z</time>
      </trkpt>
      <trkpt lat="44.3897" lon="6.39073">
        <ele>2107</ele>
        <time>2020-07-07T07:16:08.000Z</time>
      </trkpt>
      <trkpt lat="44.3897" lon="6.39073">
        <ele>2107</ele>
        <time>2020-07-07T07:16:09.000Z</time>
      </trkpt>
      <trkpt lat="44.3897" lon="6.39073">
        <ele>2107</ele>
        <time>2020-07-07T07:16:10.000Z</time>
      </trkpt>
      <trkpt lat="44.3897" lon="6.39073">
        <ele>2107</ele>
        <time>2020-07-07T07:16:11.000Z</time>
      </trkpt>
      <trkpt lat="44.38969" lon="6.39073">
        <ele>2107</ele>
        <time>2020-07-07T07:16:12.000Z</time>
      </trkpt>
      <trkpt lat="44.38969" lon="6.39073">
        <ele>2107</ele>
        <time>2020-07-07T07:16:13.000Z</time>
      </trkpt>
      <trkpt lat="44.38969" lon="6.39073">
        <ele>2107</ele>
        <time>2020-07-07T07:16:14.000Z</time>
      </trkpt>
      <trkpt lat="44.38969" lon="6.39073">
        <ele>2107</ele>
        <time>2020-07-07T07:16:15.000Z</time>
      </trkpt>
      <trkpt lat="44.38969" lon="6.39073">
        <ele>2107</ele>
        <time>2020-07-07T07:16:16.000Z</time>
      </trkpt>
      <trkpt lat="44.38969" lon="6.39073">
        <ele>2107</ele>
        <time>2020-07-07T07:16:17.000Z</time>
      </trkpt>
      <trkpt lat="44.38969" lon="6.39073">
        <ele>2107</ele>
        <time>2020-07-07T07:16:18.000Z</time>
      </trkpt>
      <trkpt lat="44.3897" lon="6.39073">
        <ele>2107</ele>
        <time>2020-07-07T07:16:19.000Z</time>
      </trkpt>
      <trkpt lat="44.3897" lon="6.39073">
        <ele>2107</ele>
        <time>2020-07-07T07:16:20.000Z</time>
      </trkpt>
      <trkpt lat="44.38969" lon="6.39073">
        <ele>2107</ele>
        <time>2020-07-07T07:16:21.000Z</time>
      </trkpt>
      <trkpt lat="44.38969" lon="6.39073">
        <ele>2107</ele>
        <time>2020-07-07T07:16:22.000Z</time>
      </trkpt>
      <trkpt lat="44.38969" lon="6.39073">
        <ele>2107</ele>
        <time>2020-07-07T07:16:23.000Z</time>
      </trkpt>
      <trkpt lat="44.38969" lon="6.39073">
        <ele>2107</ele>
        <time>2020-07-07T07:16:24.000Z</time>
      </trkpt>
      <trkpt lat="44.3897" lon="6.39073">
        <ele>2107</ele>
        <time>2020-07-07T07:16:25.000Z</time>
      </trkpt>
      <trkpt lat="44.38971" lon="6.39071">
        <ele>2107</ele>
        <time>2020-07-07T07:16:26.000Z</time>
      </trkpt>
      <trkpt lat="44.38973" lon="6.39071">
        <ele>2107</ele>
        <time>2020-07-07T07:16:27.000Z</time>
      </trkpt>
      <trkpt lat="44.38973" lon="6.3907">
        <ele>2107</ele>
        <time>2020-07-07T07:16:28.000Z</time>
      </trkpt>
      <trkpt lat="44.38974" lon="6.39069">
        <ele>2107</ele>
        <time>2020-07-07T07:16:29.000Z</time>
      </trkpt>
      <trkpt lat="44.38975" lon="6.39069">
        <ele>2107</ele>
        <time>2020-07-07T07:16:30.000Z</time>
      </trkpt>
      <trkpt lat="44.38976" lon="6.39068">
        <ele>2107</ele>
        <time>2020-07-07T07:16:31.000Z</time>
      </trkpt>
      <trkpt lat="44.38976" lon="6.39068">
        <ele>2108</ele>
        <time>2020-07-07T07:16:32.000Z</time>
      </trkpt>
      <trkpt lat="44.38977" lon="6.39067">
        <ele>2108</ele>
        <time>2020-07-07T07:16:33.000Z</time>
      </trkpt>
      <trkpt lat="44.38978" lon="6.39067">
        <ele>2108</ele>
        <time>2020-07-07T07:16:34.000Z</time>
      </trkpt>
      <trkpt lat="44.38978" lon="6.39066">
        <ele>2108</ele>
        <time>2020-07-07T07:16:35.000Z</time>
      </trkpt>
      <trkpt lat="44.38979" lon="6.39066">
        <ele>2108</ele>
        <time>2020-07-07T07:16:36.000Z</time>
      </trkpt>
      <trkpt lat="44.3898" lon="6.39065">
        <ele>2108</ele>
        <time>2020-07-07T07:16:37.000Z</time>
      </trkpt>
      <trkpt lat="44.38981" lon="6.39065">
        <ele>2108</ele>
        <time>2020-07-07T07:16:38.000Z</time>
      </trkpt>
      <trkpt lat="44.38981" lon="6.39065">
        <ele>2108</ele>
        <time>2020-07-07T07:16:39.000Z</time>
      </trkpt>
      <trkpt lat="44.38982" lon="6.39065">
        <ele>2108</ele>
        <time>2020-07-07T07:16:40.000Z</time>
      </trkpt>
      <trkpt lat="44.38984" lon="6.39064">
        <ele>2108</ele>
        <time>2020-07-07T07:16:41.000Z</time>
      </trkpt>
      <trkpt lat="44.38985" lon="6.39063">
        <ele>2108</ele>
        <time>2020-07-07T07:16:42.000Z</time>
      </trkpt>
      <trkpt lat="44.38985" lon="6.39063">
        <ele>2108</ele>
        <time>2020-07-07T07:16:43.000Z</time>
      </trkpt>
      <trkpt lat="44.38986" lon="6.39063">
        <ele>2108</ele>
        <time>2020-07-07T07:16:44.000Z</time>
      </trkpt>
      <trkpt lat="44.38987" lon="6.39062">
        <ele>2108</ele>
        <time>2020-07-07T07:16:45.000Z</time>
      </trkpt>
      <trkpt lat="44.38988" lon="6.39062">
        <ele>2108</ele>
        <time>2020-07-07T07:16:46.000Z</time>
      </trkpt>
      <trkpt lat="44.38989" lon="6.39061">
        <ele>2109</ele>
        <time>2020-07-07T07:16:47.000Z</time>
      </trkpt>
      <trkpt lat="44.38989" lon="6.39061">
        <ele>2109</ele>
        <time>2020-07-07T07:16:48.000Z</time>
      </trkpt>
      <trkpt lat="44.3899" lon="6.3906">
        <ele>2109</ele>
        <time>2020-07-07T07:16:49.000Z</time>
      </trkpt>
      <trkpt lat="44.38992" lon="6.39058">
        <ele>2109</ele>
        <time>2020-07-07T07:16:50.000Z</time>
      </trkpt>
      <trkpt lat="44.38993" lon="6.39058">
        <ele>2109</ele>
        <time>2020-07-07T07:16:51.000Z</time>
      </trkpt>
      <trkpt lat="44.38994" lon="6.39057">
        <ele>2109</ele>
        <time>2020-07-07T07:16:52.000Z</time>
      </trkpt>
      <trkpt lat="44.38994" lon="6.39057">
        <ele>2109</ele>
        <time>2020-07-07T07:16:53.000Z</time>
      </trkpt>
      <trkpt lat="44.38995" lon="6.39056">
        <ele>2110</ele>
        <time>2020-07-07T07:16:54.000Z</time>
      </trkpt>
      <trkpt lat="44.38996" lon="6.39055">
        <ele>2110</ele>
        <time>2020-07-07T07:16:55.000Z</time>
      </trkpt>
      <trkpt lat="44.38996" lon="6.39055">
        <ele>2110</ele>
        <time>2020-07-07T07:16:56.000Z</time>
      </trkpt>
      <trkpt lat="44.38998" lon="6.39054">
        <ele>2110</ele>
        <time>2020-07-07T07:16:57.000Z</time>
      </trkpt>
      <trkpt lat="44.38999" lon="6.39054">
        <ele>2110</ele>
        <time>2020-07-07T07:16:58.000Z</time>
      </trkpt>
      <trkpt lat="44.39" lon="6.39053">
        <ele>2110</ele>
        <time>2020-07-07T07:16:59.000Z</time>
      </trkpt>
      <trkpt lat="44.39001" lon="6.39053">
        <ele>2110</ele>
        <time>2020-07-07T07:17:00.000Z</time>
      </trkpt>
      <trkpt lat="44.39001" lon="6.39052">
        <ele>2110</ele>
        <time>2020-07-07T07:17:01.000Z</time>
      </trkpt>
      <trkpt lat="44.39002" lon="6.39052">
        <ele>2111</ele>
        <time>2020-07-07T07:17:02.000Z</time>
      </trkpt>
      <trkpt lat="44.39003" lon="6.39051">
        <ele>2111</ele>
        <time>2020-07-07T07:17:03.000Z</time>
      </trkpt>
      <trkpt lat="44.39003" lon="6.39051">
        <ele>2111</ele>
        <time>2020-07-07T07:17:04.000Z</time>
      </trkpt>
      <trkpt lat="44.39004" lon="6.39051">
        <ele>2111</ele>
        <time>2020-07-07T07:17:05.000Z</time>
      </trkpt>
      <trkpt lat="44.39005" lon="6.3905">
        <ele>2112</ele>
        <time>2020-07-07T07:17:06.000Z</time>
      </trkpt>
      <trkpt lat="44.39005" lon="6.3905">
        <ele>2112</ele>
        <time>2020-07-07T07:17:07.000Z</time>
      </trkpt>
      <trkpt lat="44.39006" lon="6.39049">
        <ele>2112</ele>
        <time>2020-07-07T07:17:08.000Z</time>
      </trkpt>
      <trkpt lat="44.39006" lon="6.39049">
        <ele>2112</ele>
        <time>2020-07-07T07:17:09.000Z</time>
      </trkpt>
      <trkpt lat="44.39007" lon="6.39048">
        <ele>2112</ele>
        <time>2020-07-07T07:17:10.000Z</time>
      </trkpt>
      <trkpt lat="44.39009" lon="6.39048">
        <ele>2113</ele>
        <time>2020-07-07T07:17:11.000Z</time>
      </trkpt>
      <trkpt lat="44.3901" lon="6.39047">
        <ele>2113</ele>
        <time>2020-07-07T07:17:12.000Z</time>
      </trkpt>
      <trkpt lat="44.3901" lon="6.39047">
        <ele>2113</ele>
        <time>2020-07-07T07:17:13.000Z</time>
      </trkpt>
      <trkpt lat="44.39011" lon="6.39047">
        <ele>2113</ele>
        <time>2020-07-07T07:17:14.000Z</time>
      </trkpt>
      <trkpt lat="44.39012" lon="6.39047">
        <ele>2113</ele>
        <time>2020-07-07T07:17:15.000Z</time>
      </trkpt>
      <trkpt lat="44.39013" lon="6.39047">
        <ele>2113</ele>
        <time>2020-07-07T07:17:16.000Z</time>
      </trkpt>
      <trkpt lat="44.39014" lon="6.39046">
        <ele>2113</ele>
        <time>2020-07-07T07:17:17.000Z</time>
      </trkpt>
      <trkpt lat="44.39014" lon="6.39046">
        <ele>2113</ele>
        <time>2020-07-07T07:17:18.000Z</time>
      </trkpt>
      <trkpt lat="44.39015" lon="6.39045">
        <ele>2113</ele>
        <time>2020-07-07T07:17:19.000Z</time>
      </trkpt>
      <trkpt lat="44.39015" lon="6.39045">
        <ele>2113</ele>
        <time>2020-07-07T07:17:20.000Z</time>
      </trkpt>
      <trkpt lat="44.39016" lon="6.39045">
        <ele>2113</ele>
        <time>2020-07-07T07:17:21.000Z</time>
      </trkpt>
      <trkpt lat="44.39017" lon="6.39045">
        <ele>2113</ele>
        <time>2020-07-07T07:17:22.000Z</time>
      </trkpt>
      <trkpt lat="44.39018" lon="6.39045">
        <ele>2113</ele>
        <time>2020-07-07T07:17:23.000Z</time>
      </trkpt>
      <trkpt lat="44.39019" lon="6.39044">
        <ele>2113</ele>
        <time>2020-07-07T07:17:24.000Z</time>
      </trkpt>
      <trkpt lat="44.3902" lon="6.39044">
        <ele>2113</ele>
        <time>2020-07-07T07:17:25.000Z</time>
      </trkpt>
      <trkpt lat="44.39021" lon="6.39044">
        <ele>2113</ele>
        <time>2020-07-07T07:17:26.000Z</time>
      </trkpt>
      <trkpt lat="44.39022" lon="6.39044">
        <ele>2113</ele>
        <time>2020-07-07T07:17:27.000Z</time>
      </trkpt>
      <trkpt lat="44.39022" lon="6.39044">
        <ele>2113</ele>
        <time>2020-07-07T07:17:28.000Z</time>
      </trkpt>
      <trkpt lat="44.39023" lon="6.39044">
        <ele>2114</ele>
        <time>2020-07-07T07:17:29.000Z</time>
      </trkpt>
      <trkpt lat="44.39024" lon="6.39043">
        <ele>2114</ele>
        <time>2020-07-07T07:17:30.000Z</time>
      </trkpt>
      <trkpt lat="44.39025" lon="6.39043">
        <ele>2114</ele>
        <time>2020-07-07T07:17:31.000Z</time>
      </trkpt>
      <trkpt lat="44.39026" lon="6.39043">
        <ele>2114</ele>
        <time>2020-07-07T07:17:32.000Z</time>
      </trkpt>
      <trkpt lat="44.39026" lon="6.39043">
        <ele>2114</ele>
        <time>2020-07-07T07:17:33.000Z</time>
      </trkpt>
      <trkpt lat="44.39027" lon="6.39042">
        <ele>2114</ele>
        <time>2020-07-07T07:17:34.000Z</time>
      </trkpt>
      <trkpt lat="44.39028" lon="6.39042">
        <ele>2114</ele>
        <time>2020-07-07T07:17:35.000Z</time>
      </trkpt>
      <trkpt lat="44.39028" lon="6.39042">
        <ele>2114</ele>
        <time>2020-07-07T07:17:36.000Z</time>
      </trkpt>
      <trkpt lat="44.39029" lon="6.39042">
        <ele>2114</ele>
        <time>2020-07-07T07:17:37.000Z</time>
      </trkpt>
      <trkpt lat="44.3903" lon="6.39042">
        <ele>2114</ele>
        <time>2020-07-07T07:17:38.000Z</time>
      </trkpt>
      <trkpt lat="44.39031" lon="6.39042">
        <ele>2115</ele>
        <time>2020-07-07T07:17:39.000Z</time>
      </trkpt>
      <trkpt lat="44.39032" lon="6.39042">
        <ele>2115</ele>
        <time>2020-07-07T07:17:40.000Z</time>
      </trkpt>
      <trkpt lat="44.39033" lon="6.39042">
        <ele>2115</ele>
        <time>2020-07-07T07:17:41.000Z</time>
      </trkpt>
      <trkpt lat="44.39034" lon="6.39041">
        <ele>2115</ele>
        <time>2020-07-07T07:17:42.000Z</time>
      </trkpt>
      <trkpt lat="44.39034" lon="6.39041">
        <ele>2115</ele>
        <time>2020-07-07T07:17:43.000Z</time>
      </trkpt>
      <trkpt lat="44.39035" lon="6.39041">
        <ele>2115</ele>
        <time>2020-07-07T07:17:44.000Z</time>
      </trkpt>
      <trkpt lat="44.39035" lon="6.39041">
        <ele>2115</ele>
        <time>2020-07-07T07:17:45.000Z</time>
      </trkpt>
      <trkpt lat="44.39037" lon="6.39041">
        <ele>2115</ele>
        <time>2020-07-07T07:17:46.000Z</time>
      </trkpt>
      <trkpt lat="44.39038" lon="6.3904">
        <ele>2115</ele>
        <time>2020-07-07T07:17:47.000Z</time>
      </trkpt>
      <trkpt lat="44.39038" lon="6.3904">
        <ele>2115</ele>
        <time>2020-07-07T07:17:48.000Z</time>
      </trkpt>
      <trkpt lat="44.3904" lon="6.3904">
        <ele>2115</ele>
        <time>2020-07-07T07:17:49.000Z</time>
      </trkpt>
      <trkpt lat="44.39041" lon="6.39039">
        <ele>2116</ele>
        <time>2020-07-07T07:17:50.000Z</time>
      </trkpt>
      <trkpt lat="44.39041" lon="6.39039">
        <ele>2116</ele>
        <time>2020-07-07T07:17:51.000Z</time>
      </trkpt>
      <trkpt lat="44.39042" lon="6.39039">
        <ele>2116</ele>
        <time>2020-07-07T07:17:52.000Z</time>
      </trkpt>
      <trkpt lat="44.39043" lon="6.39038">
        <ele>2116</ele>
        <time>2020-07-07T07:17:53.000Z</time>
      </trkpt>
      <trkpt lat="44.39044" lon="6.39038">
        <ele>2116</ele>
        <time>2020-07-07T07:17:54.000Z</time>
      </trkpt>
      <trkpt lat="44.39045" lon="6.39038">
        <ele>2116</ele>
        <time>2020-07-07T07:17:55.000Z</time>
      </trkpt>
      <trkpt lat="44.39046" lon="6.39037">
        <ele>2116</ele>
        <time>2020-07-07T07:17:56.000Z</time>
      </trkpt>
      <trkpt lat="44.39047" lon="6.39037">
        <ele>2116</ele>
        <time>2020-07-07T07:17:57.000Z</time>
      </trkpt>
      <trkpt lat="44.39048" lon="6.39037">
        <ele>2116</ele>
        <time>2020-07-07T07:17:58.000Z</time>
      </trkpt>
      <trkpt lat="44.39048" lon="6.39037">
        <ele>2116</ele>
        <time>2020-07-07T07:17:59.000Z</time>
      </trkpt>
      <trkpt lat="44.39048" lon="6.39037">
        <ele>2117</ele>
        <time>2020-07-07T07:18:00.000Z</time>
      </trkpt>
      <trkpt lat="44.39049" lon="6.39037">
        <ele>2117</ele>
        <time>2020-07-07T07:18:01.000Z</time>
      </trkpt>
      <trkpt lat="44.39049" lon="6.39037">
        <ele>2117</ele>
        <time>2020-07-07T07:18:02.000Z</time>
      </trkpt>
      <trkpt lat="44.3905" lon="6.39037">
        <ele>2117</ele>
        <time>2020-07-07T07:18:03.000Z</time>
      </trkpt>
      <trkpt lat="44.39051" lon="6.39037">
        <ele>2117</ele>
        <time>2020-07-07T07:18:04.000Z</time>
      </trkpt>
      <trkpt lat="44.39051" lon="6.39037">
        <ele>2117</ele>
        <time>2020-07-07T07:18:05.000Z</time>
      </trkpt>
      <trkpt lat="44.39052" lon="6.39037">
        <ele>2117</ele>
        <time>2020-07-07T07:18:06.000Z</time>
      </trkpt>
      <trkpt lat="44.39053" lon="6.39036">
        <ele>2118</ele>
        <time>2020-07-07T07:18:07.000Z</time>
      </trkpt>
      <trkpt lat="44.39054" lon="6.39036">
        <ele>2118</ele>
        <time>2020-07-07T07:18:08.000Z</time>
      </trkpt>
      <trkpt lat="44.39054" lon="6.39035">
        <ele>2118</ele>
        <time>2020-07-07T07:18:09.000Z</time>
      </trkpt>
      <trkpt lat="44.39055" lon="6.39035">
        <ele>2118</ele>
        <time>2020-07-07T07:18:10.000Z</time>
      </trkpt>
      <trkpt lat="44.39056" lon="6.39035">
        <ele>2119</ele>
        <time>2020-07-07T07:18:11.000Z</time>
      </trkpt>
      <trkpt lat="44.39057" lon="6.39034">
        <ele>2119</ele>
        <time>2020-07-07T07:18:12.000Z</time>
      </trkpt>
      <trkpt lat="44.39058" lon="6.39034">
        <ele>2119</ele>
        <time>2020-07-07T07:18:13.000Z</time>
      </trkpt>
      <trkpt lat="44.39058" lon="6.39034">
        <ele>2119</ele>
        <time>2020-07-07T07:18:14.000Z</time>
      </trkpt>
      <trkpt lat="44.39059" lon="6.39033">
        <ele>2119</ele>
        <time>2020-07-07T07:18:15.000Z</time>
      </trkpt>
      <trkpt lat="44.3906" lon="6.39033">
        <ele>2119</ele>
        <time>2020-07-07T07:18:16.000Z</time>
      </trkpt>
      <trkpt lat="44.39061" lon="6.39032">
        <ele>2119</ele>
        <time>2020-07-07T07:18:17.000Z</time>
      </trkpt>
      <trkpt lat="44.39063" lon="6.39032">
        <ele>2120</ele>
        <time>2020-07-07T07:18:18.000Z</time>
      </trkpt>
      <trkpt lat="44.39063" lon="6.39032">
        <ele>2120</ele>
        <time>2020-07-07T07:18:19.000Z</time>
      </trkpt>
      <trkpt lat="44.39064" lon="6.39032">
        <ele>2119</ele>
        <time>2020-07-07T07:18:20.000Z</time>
      </trkpt>
      <trkpt lat="44.39066" lon="6.39032">
        <ele>2119</ele>
        <time>2020-07-07T07:18:21.000Z</time>
      </trkpt>
      <trkpt lat="44.39067" lon="6.39031">
        <ele>2119</ele>
        <time>2020-07-07T07:18:22.000Z</time>
      </trkpt>
      <trkpt lat="44.39068" lon="6.39031">
        <ele>2120</ele>
        <time>2020-07-07T07:18:23.000Z</time>
      </trkpt>
      <trkpt lat="44.39069" lon="6.3903">
        <ele>2120</ele>
        <time>2020-07-07T07:18:24.000Z</time>
      </trkpt>
      <trkpt lat="44.39069" lon="6.3903">
        <ele>2120</ele>
        <time>2020-07-07T07:18:25.000Z</time>
      </trkpt>
      <trkpt lat="44.3907" lon="6.39029">
        <ele>2120</ele>
        <time>2020-07-07T07:18:26.000Z</time>
      </trkpt>
      <trkpt lat="44.39071" lon="6.39029">
        <ele>2120</ele>
        <time>2020-07-07T07:18:27.000Z</time>
      </trkpt>
      <trkpt lat="44.39071" lon="6.39029">
        <ele>2120</ele>
        <time>2020-07-07T07:18:28.000Z</time>
      </trkpt>
      <trkpt lat="44.39072" lon="6.39029">
        <ele>2120</ele>
        <time>2020-07-07T07:18:29.000Z</time>
      </trkpt>
      <trkpt lat="44.39072" lon="6.39029">
        <ele>2120</ele>
        <time>2020-07-07T07:18:30.000Z</time>
      </trkpt>
      <trkpt lat="44.39073" lon="6.39029">
        <ele>2120</ele>
        <time>2020-07-07T07:18:31.000Z</time>
      </trkpt>
      <trkpt lat="44.39074" lon="6.39028">
        <ele>2120</ele>
        <time>2020-07-07T07:18:32.000Z</time>
      </trkpt>
      <trkpt lat="44.39074" lon="6.39028">
        <ele>2120</ele>
        <time>2020-07-07T07:18:33.000Z</time>
      </trkpt>
      <trkpt lat="44.39075" lon="6.39027">
        <ele>2121</ele>
        <time>2020-07-07T07:18:34.000Z</time>
      </trkpt>
      <trkpt lat="44.39076" lon="6.39026">
        <ele>2121</ele>
        <time>2020-07-07T07:18:35.000Z</time>
      </trkpt>
      <trkpt lat="44.39077" lon="6.39025">
        <ele>2121</ele>
        <time>2020-07-07T07:18:36.000Z</time>
      </trkpt>
      <trkpt lat="44.39077" lon="6.39024">
        <ele>2121</ele>
        <time>2020-07-07T07:18:37.000Z</time>
      </trkpt>
      <trkpt lat="44.39078" lon="6.39023">
        <ele>2121</ele>
        <time>2020-07-07T07:18:38.000Z</time>
      </trkpt>
      <trkpt lat="44.39079" lon="6.39023">
        <ele>2121</ele>
        <time>2020-07-07T07:18:39.000Z</time>
      </trkpt>
      <trkpt lat="44.3908" lon="6.39022">
        <ele>2121</ele>
        <time>2020-07-07T07:18:40.000Z</time>
      </trkpt>
      <trkpt lat="44.39081" lon="6.39021">
        <ele>2121</ele>
        <time>2020-07-07T07:18:41.000Z</time>
      </trkpt>
      <trkpt lat="44.39082" lon="6.3902">
        <ele>2122</ele>
        <time>2020-07-07T07:18:42.000Z</time>
      </trkpt>
      <trkpt lat="44.39082" lon="6.3902">
        <ele>2122</ele>
        <time>2020-07-07T07:18:43.000Z</time>
      </trkpt>
      <trkpt lat="44.39082" lon="6.39019">
        <ele>2122</ele>
        <time>2020-07-07T07:18:44.000Z</time>
      </trkpt>
      <trkpt lat="44.39083" lon="6.39018">
        <ele>2122</ele>
        <time>2020-07-07T07:18:45.000Z</time>
      </trkpt>
      <trkpt lat="44.39083" lon="6.39018">
        <ele>2122</ele>
        <time>2020-07-07T07:18:46.000Z</time>
      </trkpt>
      <trkpt lat="44.39084" lon="6.39017">
        <ele>2122</ele>
        <time>2020-07-07T07:18:47.000Z</time>
      </trkpt>
      <trkpt lat="44.39085" lon="6.39016">
        <ele>2122</ele>
        <time>2020-07-07T07:18:48.000Z</time>
      </trkpt>
      <trkpt lat="44.39086" lon="6.39016">
        <ele>2122</ele>
        <time>2020-07-07T07:18:49.000Z</time>
      </trkpt>
      <trkpt lat="44.39087" lon="6.39015">
        <ele>2122</ele>
        <time>2020-07-07T07:18:50.000Z</time>
      </trkpt>
      <trkpt lat="44.39087" lon="6.39015">
        <ele>2122</ele>
        <time>2020-07-07T07:18:51.000Z</time>
      </trkpt>
      <trkpt lat="44.39088" lon="6.39014">
        <ele>2123</ele>
        <time>2020-07-07T07:18:52.000Z</time>
      </trkpt>
      <trkpt lat="44.39089" lon="6.39013">
        <ele>2123</ele>
        <time>2020-07-07T07:18:53.000Z</time>
      </trkpt>
      <trkpt lat="44.3909" lon="6.39013">
        <ele>2123</ele>
        <time>2020-07-07T07:18:54.000Z</time>
      </trkpt>
      <trkpt lat="44.39091" lon="6.39013">
        <ele>2123</ele>
        <time>2020-07-07T07:18:55.000Z</time>
      </trkpt>
      <trkpt lat="44.39091" lon="6.39013">
        <ele>2123</ele>
        <time>2020-07-07T07:18:56.000Z</time>
      </trkpt>
      <trkpt lat="44.39091" lon="6.39011">
        <ele>2123</ele>
        <time>2020-07-07T07:18:57.000Z</time>
      </trkpt>
      <trkpt lat="44.39091" lon="6.3901">
        <ele>2123</ele>
        <time>2020-07-07T07:18:58.000Z</time>
      </trkpt>
      <trkpt lat="44.39091" lon="6.39009">
        <ele>2123</ele>
        <time>2020-07-07T07:18:59.000Z</time>
      </trkpt>
      <trkpt lat="44.39092" lon="6.39009">
        <ele>2123</ele>
        <time>2020-07-07T07:19:00.000Z</time>
      </trkpt>
      <trkpt lat="44.39092" lon="6.39008">
        <ele>2123</ele>
        <time>2020-07-07T07:19:01.000Z</time>
      </trkpt>
      <trkpt lat="44.39093" lon="6.39008">
        <ele>2123</ele>
        <time>2020-07-07T07:19:02.000Z</time>
      </trkpt>
      <trkpt lat="44.39094" lon="6.39007">
        <ele>2123</ele>
        <time>2020-07-07T07:19:03.000Z</time>
      </trkpt>
      <trkpt lat="44.39096" lon="6.39006">
        <ele>2123</ele>
        <time>2020-07-07T07:19:04.000Z</time>
      </trkpt>
      <trkpt lat="44.39096" lon="6.39006">
        <ele>2123</ele>
        <time>2020-07-07T07:19:05.000Z</time>
      </trkpt>
      <trkpt lat="44.39097" lon="6.39005">
        <ele>2123</ele>
        <time>2020-07-07T07:19:06.000Z</time>
      </trkpt>
      <trkpt lat="44.39098" lon="6.39004">
        <ele>2123</ele>
        <time>2020-07-07T07:19:07.000Z</time>
      </trkpt>
      <trkpt lat="44.39099" lon="6.39004">
        <ele>2123</ele>
        <time>2020-07-07T07:19:08.000Z</time>
      </trkpt>
      <trkpt lat="44.391" lon="6.39003">
        <ele>2123</ele>
        <time>2020-07-07T07:19:09.000Z</time>
      </trkpt>
      <trkpt lat="44.39101" lon="6.39002">
        <ele>2124</ele>
        <time>2020-07-07T07:19:10.000Z</time>
      </trkpt>
      <trkpt lat="44.39101" lon="6.39002">
        <ele>2124</ele>
        <time>2020-07-07T07:19:11.000Z</time>
      </trkpt>
      <trkpt lat="44.39102" lon="6.39001">
        <ele>2124</ele>
        <time>2020-07-07T07:19:12.000Z</time>
      </trkpt>
      <trkpt lat="44.39103" lon="6.39">
        <ele>2124</ele>
        <time>2020-07-07T07:19:13.000Z</time>
      </trkpt>
      <trkpt lat="44.39103" lon="6.39">
        <ele>2124</ele>
        <time>2020-07-07T07:19:14.000Z</time>
      </trkpt>
      <trkpt lat="44.39104" lon="6.39">
        <ele>2124</ele>
        <time>2020-07-07T07:19:15.000Z</time>
      </trkpt>
      <trkpt lat="44.39105" lon="6.38999">
        <ele>2124</ele>
        <time>2020-07-07T07:19:16.000Z</time>
      </trkpt>
      <trkpt lat="44.39107" lon="6.38998">
        <ele>2124</ele>
        <time>2020-07-07T07:19:17.000Z</time>
      </trkpt>
      <trkpt lat="44.39108" lon="6.38997">
        <ele>2124</ele>
        <time>2020-07-07T07:19:18.000Z</time>
      </trkpt>
      <trkpt lat="44.39109" lon="6.38996">
        <ele>2124</ele>
        <time>2020-07-07T07:19:19.000Z</time>
      </trkpt>
      <trkpt lat="44.3911" lon="6.38996">
        <ele>2125</ele>
        <time>2020-07-07T07:19:20.000Z</time>
      </trkpt>
      <trkpt lat="44.39111" lon="6.38995">
        <ele>2125</ele>
        <time>2020-07-07T07:19:21.000Z</time>
      </trkpt>
      <trkpt lat="44.39111" lon="6.38994">
        <ele>2125</ele>
        <time>2020-07-07T07:19:22.000Z</time>
      </trkpt>
      <trkpt lat="44.39112" lon="6.38993">
        <ele>2125</ele>
        <time>2020-07-07T07:19:23.000Z</time>
      </trkpt>
      <trkpt lat="44.39113" lon="6.38993">
        <ele>2126</ele>
        <time>2020-07-07T07:19:24.000Z</time>
      </trkpt>
      <trkpt lat="44.39113" lon="6.38993">
        <ele>2126</ele>
        <time>2020-07-07T07:19:25.000Z</time>
      </trkpt>
      <trkpt lat="44.39116" lon="6.38991">
        <ele>2126</ele>
        <time>2020-07-07T07:19:26.000Z</time>
      </trkpt>
      <trkpt lat="44.39116" lon="6.38991">
        <ele>2126</ele>
        <time>2020-07-07T07:19:27.000Z</time>
      </trkpt>
      <trkpt lat="44.39117" lon="6.38991">
        <ele>2126</ele>
        <time>2020-07-07T07:19:28.000Z</time>
      </trkpt>
      <trkpt lat="44.39118" lon="6.3899">
        <ele>2126</ele>
        <time>2020-07-07T07:19:29.000Z</time>
      </trkpt>
      <trkpt lat="44.39119" lon="6.38989">
        <ele>2126</ele>
        <time>2020-07-07T07:19:30.000Z</time>
      </trkpt>
      <trkpt lat="44.39121" lon="6.38989">
        <ele>2126</ele>
        <time>2020-07-07T07:19:31.000Z</time>
      </trkpt>
      <trkpt lat="44.39121" lon="6.38989">
        <ele>2126</ele>
        <time>2020-07-07T07:19:32.000Z</time>
      </trkpt>
      <trkpt lat="44.39123" lon="6.38988">
        <ele>2126</ele>
        <time>2020-07-07T07:19:33.000Z</time>
      </trkpt>
      <trkpt lat="44.39124" lon="6.38988">
        <ele>2127</ele>
        <time>2020-07-07T07:19:34.000Z</time>
      </trkpt>
      <trkpt lat="44.39125" lon="6.38987">
        <ele>2127</ele>
        <time>2020-07-07T07:19:35.000Z</time>
      </trkpt>
      <trkpt lat="44.39126" lon="6.38986">
        <ele>2127</ele>
        <time>2020-07-07T07:19:36.000Z</time>
      </trkpt>
      <trkpt lat="44.39127" lon="6.38986">
        <ele>2127</ele>
        <time>2020-07-07T07:19:37.000Z</time>
      </trkpt>
      <trkpt lat="44.39128" lon="6.38985">
        <ele>2127</ele>
        <time>2020-07-07T07:19:38.000Z</time>
      </trkpt>
      <trkpt lat="44.39129" lon="6.38985">
        <ele>2128</ele>
        <time>2020-07-07T07:19:39.000Z</time>
      </trkpt>
      <trkpt lat="44.3913" lon="6.38985">
        <ele>2128</ele>
        <time>2020-07-07T07:19:40.000Z</time>
      </trkpt>
      <trkpt lat="44.3913" lon="6.38985">
        <ele>2128</ele>
        <time>2020-07-07T07:19:41.000Z</time>
      </trkpt>
      <trkpt lat="44.39131" lon="6.38984">
        <ele>2128</ele>
        <time>2020-07-07T07:19:42.000Z</time>
      </trkpt>
      <trkpt lat="44.39132" lon="6.38984">
        <ele>2128</ele>
        <time>2020-07-07T07:19:43.000Z</time>
      </trkpt>
      <trkpt lat="44.39133" lon="6.38984">
        <ele>2128</ele>
        <time>2020-07-07T07:19:44.000Z</time>
      </trkpt>
      <trkpt lat="44.39134" lon="6.38984">
        <ele>2128</ele>
        <time>2020-07-07T07:19:45.000Z</time>
      </trkpt>
      <trkpt lat="44.39135" lon="6.38983">
        <ele>2128</ele>
        <time>2020-07-07T07:19:46.000Z</time>
      </trkpt>
      <trkpt lat="44.39136" lon="6.38982">
        <ele>2129</ele>
        <time>2020-07-07T07:19:47.000Z</time>
      </trkpt>
      <trkpt lat="44.39137" lon="6.38982">
        <ele>2129</ele>
        <time>2020-07-07T07:19:48.000Z</time>
      </trkpt>
      <trkpt lat="44.39138" lon="6.38982">
        <ele>2129</ele>
        <time>2020-07-07T07:19:49.000Z</time>
      </trkpt>
      <trkpt lat="44.39139" lon="6.38981">
        <ele>2129</ele>
        <time>2020-07-07T07:19:50.000Z</time>
      </trkpt>
      <trkpt lat="44.3914" lon="6.38981">
        <ele>2129</ele>
        <time>2020-07-07T07:19:51.000Z</time>
      </trkpt>
      <trkpt lat="44.39141" lon="6.38981">
        <ele>2130</ele>
        <time>2020-07-07T07:19:52.000Z</time>
      </trkpt>
      <trkpt lat="44.39141" lon="6.38981">
        <ele>2130</ele>
        <time>2020-07-07T07:19:53.000Z</time>
      </trkpt>
      <trkpt lat="44.39141" lon="6.38981">
        <ele>2130</ele>
        <time>2020-07-07T07:19:54.000Z</time>
      </trkpt>
      <trkpt lat="44.39142" lon="6.38981">
        <ele>2130</ele>
        <time>2020-07-07T07:19:55.000Z</time>
      </trkpt>
      <trkpt lat="44.39143" lon="6.38981">
        <ele>2130</ele>
        <time>2020-07-07T07:19:56.000Z</time>
      </trkpt>
      <trkpt lat="44.39143" lon="6.3898">
        <ele>2130</ele>
        <time>2020-07-07T07:19:57.000Z</time>
      </trkpt>
      <trkpt lat="44.39143" lon="6.38979">
        <ele>2130</ele>
        <time>2020-07-07T07:19:58.000Z</time>
      </trkpt>
      <trkpt lat="44.39143" lon="6.38979">
        <ele>2130</ele>
        <time>2020-07-07T07:19:59.000Z</time>
      </trkpt>
      <trkpt lat="44.39145" lon="6.38979">
        <ele>2131</ele>
        <time>2020-07-07T07:20:00.000Z</time>
      </trkpt>
      <trkpt lat="44.39146" lon="6.38979">
        <ele>2131</ele>
        <time>2020-07-07T07:20:01.000Z</time>
      </trkpt>
      <trkpt lat="44.39147" lon="6.3898">
        <ele>2131</ele>
        <time>2020-07-07T07:20:02.000Z</time>
      </trkpt>
      <trkpt lat="44.39148" lon="6.3898">
        <ele>2131</ele>
        <time>2020-07-07T07:20:03.000Z</time>
      </trkpt>
      <trkpt lat="44.39149" lon="6.3898">
        <ele>2131</ele>
        <time>2020-07-07T07:20:04.000Z</time>
      </trkpt>
      <trkpt lat="44.3915" lon="6.3898">
        <ele>2131</ele>
        <time>2020-07-07T07:20:05.000Z</time>
      </trkpt>
      <trkpt lat="44.39151" lon="6.38981">
        <ele>2131</ele>
        <time>2020-07-07T07:20:06.000Z</time>
      </trkpt>
      <trkpt lat="44.39151" lon="6.38981">
        <ele>2131</ele>
        <time>2020-07-07T07:20:07.000Z</time>
      </trkpt>
      <trkpt lat="44.39152" lon="6.38981">
        <ele>2131</ele>
        <time>2020-07-07T07:20:08.000Z</time>
      </trkpt>
      <trkpt lat="44.39152" lon="6.38981">
        <ele>2131</ele>
        <time>2020-07-07T07:20:09.000Z</time>
      </trkpt>
      <trkpt lat="44.39154" lon="6.38981">
        <ele>2132</ele>
        <time>2020-07-07T07:20:10.000Z</time>
      </trkpt>
      <trkpt lat="44.39155" lon="6.38981">
        <ele>2132</ele>
        <time>2020-07-07T07:20:11.000Z</time>
      </trkpt>
      <trkpt lat="44.39155" lon="6.38981">
        <ele>2132</ele>
        <time>2020-07-07T07:20:12.000Z</time>
      </trkpt>
      <trkpt lat="44.39156" lon="6.3898">
        <ele>2132</ele>
        <time>2020-07-07T07:20:13.000Z</time>
      </trkpt>
      <trkpt lat="44.39157" lon="6.3898">
        <ele>2132</ele>
        <time>2020-07-07T07:20:14.000Z</time>
      </trkpt>
      <trkpt lat="44.39158" lon="6.38979">
        <ele>2132</ele>
        <time>2020-07-07T07:20:15.000Z</time>
      </trkpt>
      <trkpt lat="44.39159" lon="6.38979">
        <ele>2132</ele>
        <time>2020-07-07T07:20:16.000Z</time>
      </trkpt>
      <trkpt lat="44.3916" lon="6.38978">
        <ele>2132</ele>
        <time>2020-07-07T07:20:17.000Z</time>
      </trkpt>
      <trkpt lat="44.39161" lon="6.38978">
        <ele>2131</ele>
        <time>2020-07-07T07:20:18.000Z</time>
      </trkpt>
      <trkpt lat="44.39162" lon="6.38977">
        <ele>2131</ele>
        <time>2020-07-07T07:20:19.000Z</time>
      </trkpt>
      <trkpt lat="44.39163" lon="6.38976">
        <ele>2131</ele>
        <time>2020-07-07T07:20:20.000Z</time>
      </trkpt>
      <trkpt lat="44.39163" lon="6.38976">
        <ele>2131</ele>
        <time>2020-07-07T07:20:21.000Z</time>
      </trkpt>
      <trkpt lat="44.39164" lon="6.38975">
        <ele>2132</ele>
        <time>2020-07-07T07:20:22.000Z</time>
      </trkpt>
      <trkpt lat="44.39165" lon="6.38974">
        <ele>2132</ele>
        <time>2020-07-07T07:20:23.000Z</time>
      </trkpt>
      <trkpt lat="44.39166" lon="6.38973">
        <ele>2132</ele>
        <time>2020-07-07T07:20:24.000Z</time>
      </trkpt>
      <trkpt lat="44.39167" lon="6.38972">
        <ele>2132</ele>
        <time>2020-07-07T07:20:25.000Z</time>
      </trkpt>
      <trkpt lat="44.39168" lon="6.38969">
        <ele>2132</ele>
        <time>2020-07-07T07:20:26.000Z</time>
      </trkpt>
      <trkpt lat="44.39169" lon="6.38967">
        <ele>2132</ele>
        <time>2020-07-07T07:20:27.000Z</time>
      </trkpt>
      <trkpt lat="44.39169" lon="6.38966">
        <ele>2132</ele>
        <time>2020-07-07T07:20:28.000Z</time>
      </trkpt>
      <trkpt lat="44.3917" lon="6.38965">
        <ele>2132</ele>
        <time>2020-07-07T07:20:29.000Z</time>
      </trkpt>
      <trkpt lat="44.3917" lon="6.38963">
        <ele>2132</ele>
        <time>2020-07-07T07:20:30.000Z</time>
      </trkpt>
      <trkpt lat="44.3917" lon="6.38962">
        <ele>2132</ele>
        <time>2020-07-07T07:20:31.000Z</time>
      </trkpt>
      <trkpt lat="44.39171" lon="6.38961">
        <ele>2132</ele>
        <time>2020-07-07T07:20:32.000Z</time>
      </trkpt>
      <trkpt lat="44.39171" lon="6.38959">
        <ele>2132</ele>
        <time>2020-07-07T07:20:33.000Z</time>
      </trkpt>
      <trkpt lat="44.39171" lon="6.38959">
        <ele>2132</ele>
        <time>2020-07-07T07:20:34.000Z</time>
      </trkpt>
      <trkpt lat="44.39172" lon="6.38958">
        <ele>2132</ele>
        <time>2020-07-07T07:20:35.000Z</time>
      </trkpt>
      <trkpt lat="44.39173" lon="6.38956">
        <ele>2132</ele>
        <time>2020-07-07T07:20:36.000Z</time>
      </trkpt>
      <trkpt lat="44.39174" lon="6.38955">
        <ele>2132</ele>
        <time>2020-07-07T07:20:37.000Z</time>
      </trkpt>
      <trkpt lat="44.39175" lon="6.38954">
        <ele>2132</ele>
        <time>2020-07-07T07:20:38.000Z</time>
      </trkpt>
      <trkpt lat="44.39176" lon="6.38953">
        <ele>2132</ele>
        <time>2020-07-07T07:20:39.000Z</time>
      </trkpt>
      <trkpt lat="44.39177" lon="6.38952">
        <ele>2132</ele>
        <time>2020-07-07T07:20:40.000Z</time>
      </trkpt>
      <trkpt lat="44.39178" lon="6.38952">
        <ele>2132</ele>
        <time>2020-07-07T07:20:41.000Z</time>
      </trkpt>
      <trkpt lat="44.39178" lon="6.38951">
        <ele>2132</ele>
        <time>2020-07-07T07:20:42.000Z</time>
      </trkpt>
      <trkpt lat="44.39179" lon="6.3895">
        <ele>2132</ele>
        <time>2020-07-07T07:20:43.000Z</time>
      </trkpt>
      <trkpt lat="44.3918" lon="6.3895">
        <ele>2132</ele>
        <time>2020-07-07T07:20:44.000Z</time>
      </trkpt>
      <trkpt lat="44.39181" lon="6.38949">
        <ele>2132</ele>
        <time>2020-07-07T07:20:45.000Z</time>
      </trkpt>
      <trkpt lat="44.39182" lon="6.38948">
        <ele>2132</ele>
        <time>2020-07-07T07:20:46.000Z</time>
      </trkpt>
      <trkpt lat="44.39182" lon="6.38948">
        <ele>2132</ele>
        <time>2020-07-07T07:20:47.000Z</time>
      </trkpt>
      <trkpt lat="44.39182" lon="6.38948">
        <ele>2132</ele>
        <time>2020-07-07T07:20:48.000Z</time>
      </trkpt>
      <trkpt lat="44.39182" lon="6.38947">
        <ele>2132</ele>
        <time>2020-07-07T07:20:49.000Z</time>
      </trkpt>
      <trkpt lat="44.39183" lon="6.38947">
        <ele>2132</ele>
        <time>2020-07-07T07:20:50.000Z</time>
      </trkpt>
      <trkpt lat="44.39184" lon="6.38946">
        <ele>2132</ele>
        <time>2020-07-07T07:20:51.000Z</time>
      </trkpt>
      <trkpt lat="44.39185" lon="6.38945">
        <ele>2132</ele>
        <time>2020-07-07T07:20:52.000Z</time>
      </trkpt>
      <trkpt lat="44.39186" lon="6.38944">
        <ele>2132</ele>
        <time>2020-07-07T07:20:53.000Z</time>
      </trkpt>
      <trkpt lat="44.39187" lon="6.38943">
        <ele>2132</ele>
        <time>2020-07-07T07:20:54.000Z</time>
      </trkpt>
      <trkpt lat="44.39188" lon="6.38942">
        <ele>2132</ele>
        <time>2020-07-07T07:20:55.000Z</time>
      </trkpt>
      <trkpt lat="44.39189" lon="6.38941">
        <ele>2132</ele>
        <time>2020-07-07T07:20:56.000Z</time>
      </trkpt>
      <trkpt lat="44.3919" lon="6.3894">
        <ele>2132</ele>
        <time>2020-07-07T07:20:57.000Z</time>
      </trkpt>
      <trkpt lat="44.39191" lon="6.38939">
        <ele>2132</ele>
        <time>2020-07-07T07:20:58.000Z</time>
      </trkpt>
      <trkpt lat="44.39192" lon="6.38939">
        <ele>2132</ele>
        <time>2020-07-07T07:20:59.000Z</time>
      </trkpt>
      <trkpt lat="44.39193" lon="6.38938">
        <ele>2132</ele>
        <time>2020-07-07T07:21:00.000Z</time>
      </trkpt>
      <trkpt lat="44.39194" lon="6.38937">
        <ele>2133</ele>
        <time>2020-07-07T07:21:01.000Z</time>
      </trkpt>
      <trkpt lat="44.39194" lon="6.38937">
        <ele>2133</ele>
        <time>2020-07-07T07:21:02.000Z</time>
      </trkpt>
      <trkpt lat="44.39195" lon="6.38937">
        <ele>2133</ele>
        <time>2020-07-07T07:21:03.000Z</time>
      </trkpt>
      <trkpt lat="44.39195" lon="6.38937">
        <ele>2133</ele>
        <time>2020-07-07T07:21:04.000Z</time>
      </trkpt>
      <trkpt lat="44.39196" lon="6.38936">
        <ele>2133</ele>
        <time>2020-07-07T07:21:05.000Z</time>
      </trkpt>
      <trkpt lat="44.39197" lon="6.38936">
        <ele>2133</ele>
        <time>2020-07-07T07:21:06.000Z</time>
      </trkpt>
      <trkpt lat="44.39197" lon="6.38936">
        <ele>2133</ele>
        <time>2020-07-07T07:21:07.000Z</time>
      </trkpt>
      <trkpt lat="44.39199" lon="6.38934">
        <ele>2133</ele>
        <time>2020-07-07T07:21:08.000Z</time>
      </trkpt>
      <trkpt lat="44.392" lon="6.38934">
        <ele>2133</ele>
        <time>2020-07-07T07:21:09.000Z</time>
      </trkpt>
      <trkpt lat="44.39201" lon="6.38933">
        <ele>2133</ele>
        <time>2020-07-07T07:21:10.000Z</time>
      </trkpt>
      <trkpt lat="44.39202" lon="6.38933">
        <ele>2133</ele>
        <time>2020-07-07T07:21:11.000Z</time>
      </trkpt>
      <trkpt lat="44.39202" lon="6.38932">
        <ele>2133</ele>
        <time>2020-07-07T07:21:12.000Z</time>
      </trkpt>
      <trkpt lat="44.39203" lon="6.38932">
        <ele>2133</ele>
        <time>2020-07-07T07:21:13.000Z</time>
      </trkpt>
      <trkpt lat="44.39204" lon="6.38931">
        <ele>2133</ele>
        <time>2020-07-07T07:21:14.000Z</time>
      </trkpt>
      <trkpt lat="44.39204" lon="6.38931">
        <ele>2133</ele>
        <time>2020-07-07T07:21:15.000Z</time>
      </trkpt>
      <trkpt lat="44.39205" lon="6.3893">
        <ele>2133</ele>
        <time>2020-07-07T07:21:16.000Z</time>
      </trkpt>
      <trkpt lat="44.39206" lon="6.3893">
        <ele>2133</ele>
        <time>2020-07-07T07:21:17.000Z</time>
      </trkpt>
      <trkpt lat="44.39206" lon="6.3893">
        <ele>2133</ele>
        <time>2020-07-07T07:21:18.000Z</time>
      </trkpt>
      <trkpt lat="44.39207" lon="6.38929">
        <ele>2133</ele>
        <time>2020-07-07T07:21:19.000Z</time>
      </trkpt>
      <trkpt lat="44.39208" lon="6.38928">
        <ele>2133</ele>
        <time>2020-07-07T07:21:20.000Z</time>
      </trkpt>
      <trkpt lat="44.39209" lon="6.38928">
        <ele>2133</ele>
        <time>2020-07-07T07:21:21.000Z</time>
      </trkpt>
      <trkpt lat="44.39211" lon="6.38926">
        <ele>2133</ele>
        <time>2020-07-07T07:21:22.000Z</time>
      </trkpt>
      <trkpt lat="44.39212" lon="6.38925">
        <ele>2133</ele>
        <time>2020-07-07T07:21:23.000Z</time>
      </trkpt>
      <trkpt lat="44.39213" lon="6.38925">
        <ele>2133</ele>
        <time>2020-07-07T07:21:24.000Z</time>
      </trkpt>
      <trkpt lat="44.39214" lon="6.38924">
        <ele>2134</ele>
        <time>2020-07-07T07:21:25.000Z</time>
      </trkpt>
      <trkpt lat="44.39215" lon="6.38923">
        <ele>2134</ele>
        <time>2020-07-07T07:21:26.000Z</time>
      </trkpt>
      <trkpt lat="44.39216" lon="6.38923">
        <ele>2134</ele>
        <time>2020-07-07T07:21:27.000Z</time>
      </trkpt>
      <trkpt lat="44.39217" lon="6.38922">
        <ele>2134</ele>
        <time>2020-07-07T07:21:28.000Z</time>
      </trkpt>
      <trkpt lat="44.39217" lon="6.38922">
        <ele>2134</ele>
        <time>2020-07-07T07:21:29.000Z</time>
      </trkpt>
      <trkpt lat="44.39218" lon="6.3892">
        <ele>2134</ele>
        <time>2020-07-07T07:21:30.000Z</time>
      </trkpt>
      <trkpt lat="44.39218" lon="6.3892">
        <ele>2134</ele>
        <time>2020-07-07T07:21:31.000Z</time>
      </trkpt>
      <trkpt lat="44.39219" lon="6.3892">
        <ele>2134</ele>
        <time>2020-07-07T07:21:32.000Z</time>
      </trkpt>
      <trkpt lat="44.3922" lon="6.38919">
        <ele>2134</ele>
        <time>2020-07-07T07:21:33.000Z</time>
      </trkpt>
      <trkpt lat="44.3922" lon="6.38918">
        <ele>2134</ele>
        <time>2020-07-07T07:21:34.000Z</time>
      </trkpt>
      <trkpt lat="44.39222" lon="6.38918">
        <ele>2134</ele>
        <time>2020-07-07T07:21:35.000Z</time>
      </trkpt>
      <trkpt lat="44.39222" lon="6.38917">
        <ele>2134</ele>
        <time>2020-07-07T07:21:36.000Z</time>
      </trkpt>
      <trkpt lat="44.39222" lon="6.38917">
        <ele>2134</ele>
        <time>2020-07-07T07:21:37.000Z</time>
      </trkpt>
      <trkpt lat="44.39223" lon="6.38916">
        <ele>2134</ele>
        <time>2020-07-07T07:21:38.000Z</time>
      </trkpt>
      <trkpt lat="44.39224" lon="6.38915">
        <ele>2134</ele>
        <time>2020-07-07T07:21:39.000Z</time>
      </trkpt>
      <trkpt lat="44.39225" lon="6.38914">
        <ele>2134</ele>
        <time>2020-07-07T07:21:40.000Z</time>
      </trkpt>
      <trkpt lat="44.39226" lon="6.38914">
        <ele>2134</ele>
        <time>2020-07-07T07:21:41.000Z</time>
      </trkpt>
      <trkpt lat="44.39227" lon="6.38913">
        <ele>2134</ele>
        <time>2020-07-07T07:21:42.000Z</time>
      </trkpt>
      <trkpt lat="44.39227" lon="6.38913">
        <ele>2134</ele>
        <time>2020-07-07T07:21:43.000Z</time>
      </trkpt>
      <trkpt lat="44.39228" lon="6.38912">
        <ele>2134</ele>
        <time>2020-07-07T07:21:44.000Z</time>
      </trkpt>
      <trkpt lat="44.39229" lon="6.38912">
        <ele>2135</ele>
        <time>2020-07-07T07:21:45.000Z</time>
      </trkpt>
      <trkpt lat="44.3923" lon="6.38911">
        <ele>2135</ele>
        <time>2020-07-07T07:21:46.000Z</time>
      </trkpt>
      <trkpt lat="44.39231" lon="6.38911">
        <ele>2135</ele>
        <time>2020-07-07T07:21:47.000Z</time>
      </trkpt>
      <trkpt lat="44.39233" lon="6.3891">
        <ele>2135</ele>
        <time>2020-07-07T07:21:48.000Z</time>
      </trkpt>
      <trkpt lat="44.39234" lon="6.3891">
        <ele>2135</ele>
        <time>2020-07-07T07:21:49.000Z</time>
      </trkpt>
      <trkpt lat="44.39236" lon="6.38909">
        <ele>2135</ele>
        <time>2020-07-07T07:21:50.000Z</time>
      </trkpt>
      <trkpt lat="44.39237" lon="6.38908">
        <ele>2135</ele>
        <time>2020-07-07T07:21:51.000Z</time>
      </trkpt>
      <trkpt lat="44.39238" lon="6.38907">
        <ele>2135</ele>
        <time>2020-07-07T07:21:52.000Z</time>
      </trkpt>
      <trkpt lat="44.39239" lon="6.38907">
        <ele>2136</ele>
        <time>2020-07-07T07:21:53.000Z</time>
      </trkpt>
      <trkpt lat="44.39239" lon="6.38906">
        <ele>2136</ele>
        <time>2020-07-07T07:21:54.000Z</time>
      </trkpt>
      <trkpt lat="44.3924" lon="6.38905">
        <ele>2136</ele>
        <time>2020-07-07T07:21:55.000Z</time>
      </trkpt>
      <trkpt lat="44.39241" lon="6.38905">
        <ele>2136</ele>
        <time>2020-07-07T07:21:56.000Z</time>
      </trkpt>
      <trkpt lat="44.39241" lon="6.38905">
        <ele>2136</ele>
        <time>2020-07-07T07:21:57.000Z</time>
      </trkpt>
      <trkpt lat="44.39242" lon="6.38903">
        <ele>2136</ele>
        <time>2020-07-07T07:21:58.000Z</time>
      </trkpt>
      <trkpt lat="44.39242" lon="6.38903">
        <ele>2136</ele>
        <time>2020-07-07T07:21:59.000Z</time>
      </trkpt>
      <trkpt lat="44.39243" lon="6.38902">
        <ele>2137</ele>
        <time>2020-07-07T07:22:00.000Z</time>
      </trkpt>
      <trkpt lat="44.39243" lon="6.38901">
        <ele>2137</ele>
        <time>2020-07-07T07:22:01.000Z</time>
      </trkpt>
      <trkpt lat="44.39245" lon="6.389">
        <ele>2137</ele>
        <time>2020-07-07T07:22:02.000Z</time>
      </trkpt>
      <trkpt lat="44.39246" lon="6.389">
        <ele>2137</ele>
        <time>2020-07-07T07:22:03.000Z</time>
      </trkpt>
      <trkpt lat="44.39247" lon="6.38899">
        <ele>2137</ele>
        <time>2020-07-07T07:22:04.000Z</time>
      </trkpt>
      <trkpt lat="44.39247" lon="6.38898">
        <ele>2137</ele>
        <time>2020-07-07T07:22:05.000Z</time>
      </trkpt>
      <trkpt lat="44.39248" lon="6.38897">
        <ele>2138</ele>
        <time>2020-07-07T07:22:06.000Z</time>
      </trkpt>
      <trkpt lat="44.39249" lon="6.38897">
        <ele>2138</ele>
        <time>2020-07-07T07:22:07.000Z</time>
      </trkpt>
      <trkpt lat="44.3925" lon="6.38896">
        <ele>2138</ele>
        <time>2020-07-07T07:22:08.000Z</time>
      </trkpt>
      <trkpt lat="44.3925" lon="6.38896">
        <ele>2138</ele>
        <time>2020-07-07T07:22:09.000Z</time>
      </trkpt>
      <trkpt lat="44.39251" lon="6.38895">
        <ele>2138</ele>
        <time>2020-07-07T07:22:10.000Z</time>
      </trkpt>
      <trkpt lat="44.39252" lon="6.38895">
        <ele>2138</ele>
        <time>2020-07-07T07:22:11.000Z</time>
      </trkpt>
      <trkpt lat="44.39253" lon="6.38895">
        <ele>2139</ele>
        <time>2020-07-07T07:22:12.000Z</time>
      </trkpt>
      <trkpt lat="44.39253" lon="6.38895">
        <ele>2139</ele>
        <time>2020-07-07T07:22:13.000Z</time>
      </trkpt>
      <trkpt lat="44.39254" lon="6.38895">
        <ele>2139</ele>
        <time>2020-07-07T07:22:14.000Z</time>
      </trkpt>
      <trkpt lat="44.39255" lon="6.38895">
        <ele>2139</ele>
        <time>2020-07-07T07:22:15.000Z</time>
      </trkpt>
      <trkpt lat="44.39256" lon="6.38895">
        <ele>2139</ele>
        <time>2020-07-07T07:22:16.000Z</time>
      </trkpt>
      <trkpt lat="44.39256" lon="6.38895">
        <ele>2139</ele>
        <time>2020-07-07T07:22:17.000Z</time>
      </trkpt>
      <trkpt lat="44.39257" lon="6.38895">
        <ele>2139</ele>
        <time>2020-07-07T07:22:18.000Z</time>
      </trkpt>
      <trkpt lat="44.39258" lon="6.38895">
        <ele>2140</ele>
        <time>2020-07-07T07:22:19.000Z</time>
      </trkpt>
      <trkpt lat="44.39259" lon="6.38895">
        <ele>2140</ele>
        <time>2020-07-07T07:22:20.000Z</time>
      </trkpt>
      <trkpt lat="44.3926" lon="6.38895">
        <ele>2140</ele>
        <time>2020-07-07T07:22:21.000Z</time>
      </trkpt>
      <trkpt lat="44.3926" lon="6.38895">
        <ele>2140</ele>
        <time>2020-07-07T07:22:22.000Z</time>
      </trkpt>
      <trkpt lat="44.39261" lon="6.38895">
        <ele>2140</ele>
        <time>2020-07-07T07:22:23.000Z</time>
      </trkpt>
      <trkpt lat="44.39262" lon="6.38896">
        <ele>2140</ele>
        <time>2020-07-07T07:22:24.000Z</time>
      </trkpt>
      <trkpt lat="44.39262" lon="6.38896">
        <ele>2140</ele>
        <time>2020-07-07T07:22:25.000Z</time>
      </trkpt>
      <trkpt lat="44.39262" lon="6.38896">
        <ele>2140</ele>
        <time>2020-07-07T07:22:26.000Z</time>
      </trkpt>
      <trkpt lat="44.39263" lon="6.38896">
        <ele>2141</ele>
        <time>2020-07-07T07:22:27.000Z</time>
      </trkpt>
      <trkpt lat="44.39264" lon="6.38896">
        <ele>2141</ele>
        <time>2020-07-07T07:22:28.000Z</time>
      </trkpt>
      <trkpt lat="44.39265" lon="6.38896">
        <ele>2141</ele>
        <time>2020-07-07T07:22:29.000Z</time>
      </trkpt>
      <trkpt lat="44.39265" lon="6.38896">
        <ele>2141</ele>
        <time>2020-07-07T07:22:30.000Z</time>
      </trkpt>
      <trkpt lat="44.39266" lon="6.38896">
        <ele>2141</ele>
        <time>2020-07-07T07:22:31.000Z</time>
      </trkpt>
      <trkpt lat="44.39266" lon="6.38895">
        <ele>2141</ele>
        <time>2020-07-07T07:22:32.000Z</time>
      </trkpt>
      <trkpt lat="44.39267" lon="6.38895">
        <ele>2141</ele>
        <time>2020-07-07T07:22:33.000Z</time>
      </trkpt>
      <trkpt lat="44.39268" lon="6.38895">
        <ele>2142</ele>
        <time>2020-07-07T07:22:34.000Z</time>
      </trkpt>
      <trkpt lat="44.39268" lon="6.38894">
        <ele>2142</ele>
        <time>2020-07-07T07:22:35.000Z</time>
      </trkpt>
      <trkpt lat="44.39269" lon="6.38894">
        <ele>2142</ele>
        <time>2020-07-07T07:22:36.000Z</time>
      </trkpt>
      <trkpt lat="44.3927" lon="6.38893">
        <ele>2142</ele>
        <time>2020-07-07T07:22:37.000Z</time>
      </trkpt>
      <trkpt lat="44.3927" lon="6.38893">
        <ele>2142</ele>
        <time>2020-07-07T07:22:38.000Z</time>
      </trkpt>
      <trkpt lat="44.39271" lon="6.38893">
        <ele>2142</ele>
        <time>2020-07-07T07:22:39.000Z</time>
      </trkpt>
      <trkpt lat="44.39272" lon="6.38892">
        <ele>2142</ele>
        <time>2020-07-07T07:22:40.000Z</time>
      </trkpt>
      <trkpt lat="44.39272" lon="6.38892">
        <ele>2142</ele>
        <time>2020-07-07T07:22:41.000Z</time>
      </trkpt>
      <trkpt lat="44.39273" lon="6.38891">
        <ele>2142</ele>
        <time>2020-07-07T07:22:42.000Z</time>
      </trkpt>
      <trkpt lat="44.39273" lon="6.38891">
        <ele>2143</ele>
        <time>2020-07-07T07:22:43.000Z</time>
      </trkpt>
      <trkpt lat="44.39273" lon="6.38891">
        <ele>2143</ele>
        <time>2020-07-07T07:22:44.000Z</time>
      </trkpt>
      <trkpt lat="44.39274" lon="6.3889">
        <ele>2143</ele>
        <time>2020-07-07T07:22:45.000Z</time>
      </trkpt>
      <trkpt lat="44.39274" lon="6.38889">
        <ele>2143</ele>
        <time>2020-07-07T07:22:46.000Z</time>
      </trkpt>
      <trkpt lat="44.39275" lon="6.38887">
        <ele>2143</ele>
        <time>2020-07-07T07:22:47.000Z</time>
      </trkpt>
      <trkpt lat="44.39275" lon="6.38886">
        <ele>2143</ele>
        <time>2020-07-07T07:22:48.000Z</time>
      </trkpt>
      <trkpt lat="44.39276" lon="6.38885">
        <ele>2143</ele>
        <time>2020-07-07T07:22:49.000Z</time>
      </trkpt>
      <trkpt lat="44.39276" lon="6.38884">
        <ele>2143</ele>
        <time>2020-07-07T07:22:50.000Z</time>
      </trkpt>
      <trkpt lat="44.39277" lon="6.38883">
        <ele>2143</ele>
        <time>2020-07-07T07:22:51.000Z</time>
      </trkpt>
      <trkpt lat="44.39277" lon="6.38883">
        <ele>2143</ele>
        <time>2020-07-07T07:22:52.000Z</time>
      </trkpt>
      <trkpt lat="44.39276" lon="6.38881">
        <ele>2143</ele>
        <time>2020-07-07T07:22:53.000Z</time>
      </trkpt>
      <trkpt lat="44.39276" lon="6.38881">
        <ele>2143</ele>
        <time>2020-07-07T07:22:54.000Z</time>
      </trkpt>
      <trkpt lat="44.39277" lon="6.3888">
        <ele>2142</ele>
        <time>2020-07-07T07:22:55.000Z</time>
      </trkpt>
      <trkpt lat="44.39278" lon="6.38879">
        <ele>2142</ele>
        <time>2020-07-07T07:22:56.000Z</time>
      </trkpt>
      <trkpt lat="44.39278" lon="6.38878">
        <ele>2142</ele>
        <time>2020-07-07T07:22:57.000Z</time>
      </trkpt>
      <trkpt lat="44.3928" lon="6.38875">
        <ele>2142</ele>
        <time>2020-07-07T07:22:58.000Z</time>
      </trkpt>
      <trkpt lat="44.39281" lon="6.38875">
        <ele>2142</ele>
        <time>2020-07-07T07:22:59.000Z</time>
      </trkpt>
      <trkpt lat="44.39282" lon="6.38874">
        <ele>2142</ele>
        <time>2020-07-07T07:23:00.000Z</time>
      </trkpt>
      <trkpt lat="44.39283" lon="6.38873">
        <ele>2142</ele>
        <time>2020-07-07T07:23:01.000Z</time>
      </trkpt>
      <trkpt lat="44.39284" lon="6.38872">
        <ele>2143</ele>
        <time>2020-07-07T07:23:02.000Z</time>
      </trkpt>
      <trkpt lat="44.39285" lon="6.38871">
        <ele>2143</ele>
        <time>2020-07-07T07:23:03.000Z</time>
      </trkpt>
      <trkpt lat="44.39286" lon="6.38871">
        <ele>2143</ele>
        <time>2020-07-07T07:23:04.000Z</time>
      </trkpt>
      <trkpt lat="44.39287" lon="6.3887">
        <ele>2143</ele>
        <time>2020-07-07T07:23:05.000Z</time>
      </trkpt>
      <trkpt lat="44.39287" lon="6.3887">
        <ele>2143</ele>
        <time>2020-07-07T07:23:06.000Z</time>
      </trkpt>
      <trkpt lat="44.39288" lon="6.3887">
        <ele>2143</ele>
        <time>2020-07-07T07:23:07.000Z</time>
      </trkpt>
      <trkpt lat="44.39289" lon="6.3887">
        <ele>2143</ele>
        <time>2020-07-07T07:23:08.000Z</time>
      </trkpt>
      <trkpt lat="44.39287" lon="6.38868">
        <ele>2143</ele>
        <time>2020-07-07T07:23:09.000Z</time>
      </trkpt>
      <trkpt lat="44.39287" lon="6.38867">
        <ele>2143</ele>
        <time>2020-07-07T07:23:10.000Z</time>
      </trkpt>
      <trkpt lat="44.39287" lon="6.38867">
        <ele>2143</ele>
        <time>2020-07-07T07:23:11.000Z</time>
      </trkpt>
      <trkpt lat="44.39289" lon="6.38867">
        <ele>2143</ele>
        <time>2020-07-07T07:23:12.000Z</time>
      </trkpt>
      <trkpt lat="44.3929" lon="6.38867">
        <ele>2143</ele>
        <time>2020-07-07T07:23:13.000Z</time>
      </trkpt>
      <trkpt lat="44.39291" lon="6.38867">
        <ele>2144</ele>
        <time>2020-07-07T07:23:14.000Z</time>
      </trkpt>
      <trkpt lat="44.39292" lon="6.38867">
        <ele>2144</ele>
        <time>2020-07-07T07:23:15.000Z</time>
      </trkpt>
      <trkpt lat="44.39293" lon="6.38867">
        <ele>2144</ele>
        <time>2020-07-07T07:23:16.000Z</time>
      </trkpt>
      <trkpt lat="44.39294" lon="6.38867">
        <ele>2144</ele>
        <time>2020-07-07T07:23:17.000Z</time>
      </trkpt>
      <trkpt lat="44.39295" lon="6.38867">
        <ele>2144</ele>
        <time>2020-07-07T07:23:18.000Z</time>
      </trkpt>
      <trkpt lat="44.39296" lon="6.38866">
        <ele>2144</ele>
        <time>2020-07-07T07:23:19.000Z</time>
      </trkpt>
      <trkpt lat="44.39297" lon="6.38866">
        <ele>2144</ele>
        <time>2020-07-07T07:23:20.000Z</time>
      </trkpt>
      <trkpt lat="44.39297" lon="6.38866">
        <ele>2144</ele>
        <time>2020-07-07T07:23:21.000Z</time>
      </trkpt>
      <trkpt lat="44.39298" lon="6.38866">
        <ele>2145</ele>
        <time>2020-07-07T07:23:22.000Z</time>
      </trkpt>
      <trkpt lat="44.393" lon="6.38866">
        <ele>2145</ele>
        <time>2020-07-07T07:23:23.000Z</time>
      </trkpt>
      <trkpt lat="44.39301" lon="6.38865">
        <ele>2145</ele>
        <time>2020-07-07T07:23:24.000Z</time>
      </trkpt>
      <trkpt lat="44.39303" lon="6.38865">
        <ele>2145</ele>
        <time>2020-07-07T07:23:25.000Z</time>
      </trkpt>
      <trkpt lat="44.39304" lon="6.38865">
        <ele>2145</ele>
        <time>2020-07-07T07:23:26.000Z</time>
      </trkpt>
      <trkpt lat="44.39305" lon="6.38864">
        <ele>2145</ele>
        <time>2020-07-07T07:23:27.000Z</time>
      </trkpt>
      <trkpt lat="44.39306" lon="6.38864">
        <ele>2145</ele>
        <time>2020-07-07T07:23:28.000Z</time>
      </trkpt>
      <trkpt lat="44.39306" lon="6.38863">
        <ele>2145</ele>
        <time>2020-07-07T07:23:29.000Z</time>
      </trkpt>
      <trkpt lat="44.39307" lon="6.38863">
        <ele>2145</ele>
        <time>2020-07-07T07:23:30.000Z</time>
      </trkpt>
      <trkpt lat="44.39308" lon="6.38862">
        <ele>2146</ele>
        <time>2020-07-07T07:23:31.000Z</time>
      </trkpt>
      <trkpt lat="44.39309" lon="6.38861">
        <ele>2146</ele>
        <time>2020-07-07T07:23:32.000Z</time>
      </trkpt>
      <trkpt lat="44.3931" lon="6.3886">
        <ele>2146</ele>
        <time>2020-07-07T07:23:33.000Z</time>
      </trkpt>
      <trkpt lat="44.3931" lon="6.38859">
        <ele>2146</ele>
        <time>2020-07-07T07:23:34.000Z</time>
      </trkpt>
      <trkpt lat="44.3931" lon="6.38859">
        <ele>2146</ele>
        <time>2020-07-07T07:23:35.000Z</time>
      </trkpt>
      <trkpt lat="44.39311" lon="6.38859">
        <ele>2146</ele>
        <time>2020-07-07T07:23:36.000Z</time>
      </trkpt>
      <trkpt lat="44.39312" lon="6.38858">
        <ele>2146</ele>
        <time>2020-07-07T07:23:37.000Z</time>
      </trkpt>
      <trkpt lat="44.39312" lon="6.38857">
        <ele>2146</ele>
        <time>2020-07-07T07:23:38.000Z</time>
      </trkpt>
      <trkpt lat="44.39313" lon="6.38854">
        <ele>2146</ele>
        <time>2020-07-07T07:23:39.000Z</time>
      </trkpt>
      <trkpt lat="44.39313" lon="6.38854">
        <ele>2146</ele>
        <time>2020-07-07T07:23:40.000Z</time>
      </trkpt>
      <trkpt lat="44.39314" lon="6.38852">
        <ele>2146</ele>
        <time>2020-07-07T07:23:41.000Z</time>
      </trkpt>
      <trkpt lat="44.39314" lon="6.38851">
        <ele>2146</ele>
        <time>2020-07-07T07:23:42.000Z</time>
      </trkpt>
      <trkpt lat="44.39315" lon="6.38849">
        <ele>2147</ele>
        <time>2020-07-07T07:23:43.000Z</time>
      </trkpt>
      <trkpt lat="44.39315" lon="6.38848">
        <ele>2147</ele>
        <time>2020-07-07T07:23:44.000Z</time>
      </trkpt>
      <trkpt lat="44.39316" lon="6.38847">
        <ele>2147</ele>
        <time>2020-07-07T07:23:45.000Z</time>
      </trkpt>
      <trkpt lat="44.39316" lon="6.38846">
        <ele>2147</ele>
        <time>2020-07-07T07:23:46.000Z</time>
      </trkpt>
      <trkpt lat="44.39317" lon="6.38845">
        <ele>2147</ele>
        <time>2020-07-07T07:23:47.000Z</time>
      </trkpt>
      <trkpt lat="44.39317" lon="6.38845">
        <ele>2147</ele>
        <time>2020-07-07T07:23:48.000Z</time>
      </trkpt>
      <trkpt lat="44.39318" lon="6.38844">
        <ele>2147</ele>
        <time>2020-07-07T07:23:49.000Z</time>
      </trkpt>
      <trkpt lat="44.39318" lon="6.38843">
        <ele>2147</ele>
        <time>2020-07-07T07:23:50.000Z</time>
      </trkpt>
      <trkpt lat="44.39318" lon="6.38843">
        <ele>2147</ele>
        <time>2020-07-07T07:23:51.000Z</time>
      </trkpt>
      <trkpt lat="44.39319" lon="6.38841">
        <ele>2147</ele>
        <time>2020-07-07T07:23:52.000Z</time>
      </trkpt>
      <trkpt lat="44.3932" lon="6.3884">
        <ele>2147</ele>
        <time>2020-07-07T07:23:53.000Z</time>
      </trkpt>
      <trkpt lat="44.39321" lon="6.38839">
        <ele>2147</ele>
        <time>2020-07-07T07:23:54.000Z</time>
      </trkpt>
      <trkpt lat="44.39322" lon="6.38838">
        <ele>2147</ele>
        <time>2020-07-07T07:23:55.000Z</time>
      </trkpt>
      <trkpt lat="44.39323" lon="6.38837">
        <ele>2147</ele>
        <time>2020-07-07T07:23:56.000Z</time>
      </trkpt>
      <trkpt lat="44.39324" lon="6.38837">
        <ele>2147</ele>
        <time>2020-07-07T07:23:57.000Z</time>
      </trkpt>
      <trkpt lat="44.39324" lon="6.38836">
        <ele>2148</ele>
        <time>2020-07-07T07:23:58.000Z</time>
      </trkpt>
      <trkpt lat="44.39325" lon="6.38836">
        <ele>2148</ele>
        <time>2020-07-07T07:23:59.000Z</time>
      </trkpt>
      <trkpt lat="44.39326" lon="6.38835">
        <ele>2148</ele>
        <time>2020-07-07T07:24:00.000Z</time>
      </trkpt>
      <trkpt lat="44.39327" lon="6.38834">
        <ele>2148</ele>
        <time>2020-07-07T07:24:01.000Z</time>
      </trkpt>
      <trkpt lat="44.39327" lon="6.38834">
        <ele>2148</ele>
        <time>2020-07-07T07:24:02.000Z</time>
      </trkpt>
      <trkpt lat="44.39328" lon="6.38834">
        <ele>2148</ele>
        <time>2020-07-07T07:24:03.000Z</time>
      </trkpt>
      <trkpt lat="44.39329" lon="6.38833">
        <ele>2149</ele>
        <time>2020-07-07T07:24:04.000Z</time>
      </trkpt>
      <trkpt lat="44.3933" lon="6.38832">
        <ele>2149</ele>
        <time>2020-07-07T07:24:05.000Z</time>
      </trkpt>
      <trkpt lat="44.39331" lon="6.38832">
        <ele>2149</ele>
        <time>2020-07-07T07:24:06.000Z</time>
      </trkpt>
      <trkpt lat="44.39332" lon="6.38831">
        <ele>2149</ele>
        <time>2020-07-07T07:24:07.000Z</time>
      </trkpt>
      <trkpt lat="44.39333" lon="6.3883">
        <ele>2149</ele>
        <time>2020-07-07T07:24:08.000Z</time>
      </trkpt>
      <trkpt lat="44.39334" lon="6.3883">
        <ele>2149</ele>
        <time>2020-07-07T07:24:09.000Z</time>
      </trkpt>
      <trkpt lat="44.39335" lon="6.38829">
        <ele>2149</ele>
        <time>2020-07-07T07:24:10.000Z</time>
      </trkpt>
      <trkpt lat="44.39336" lon="6.38829">
        <ele>2149</ele>
        <time>2020-07-07T07:24:11.000Z</time>
      </trkpt>
      <trkpt lat="44.39337" lon="6.38828">
        <ele>2150</ele>
        <time>2020-07-07T07:24:12.000Z</time>
      </trkpt>
      <trkpt lat="44.39338" lon="6.38828">
        <ele>2150</ele>
        <time>2020-07-07T07:24:13.000Z</time>
      </trkpt>
      <trkpt lat="44.39339" lon="6.38827">
        <ele>2150</ele>
        <time>2020-07-07T07:24:14.000Z</time>
      </trkpt>
      <trkpt lat="44.3934" lon="6.38826">
        <ele>2150</ele>
        <time>2020-07-07T07:24:15.000Z</time>
      </trkpt>
      <trkpt lat="44.3934" lon="6.38826">
        <ele>2150</ele>
        <time>2020-07-07T07:24:16.000Z</time>
      </trkpt>
      <trkpt lat="44.39341" lon="6.38826">
        <ele>2150</ele>
        <time>2020-07-07T07:24:17.000Z</time>
      </trkpt>
      <trkpt lat="44.39342" lon="6.38825">
        <ele>2150</ele>
        <time>2020-07-07T07:24:18.000Z</time>
      </trkpt>
      <trkpt lat="44.39344" lon="6.38824">
        <ele>2151</ele>
        <time>2020-07-07T07:24:19.000Z</time>
      </trkpt>
      <trkpt lat="44.39344" lon="6.38823">
        <ele>2151</ele>
        <time>2020-07-07T07:24:20.000Z</time>
      </trkpt>
      <trkpt lat="44.39344" lon="6.38823">
        <ele>2151</ele>
        <time>2020-07-07T07:24:21.000Z</time>
      </trkpt>
      <trkpt lat="44.39346" lon="6.38823">
        <ele>2151</ele>
        <time>2020-07-07T07:24:22.000Z</time>
      </trkpt>
      <trkpt lat="44.39347" lon="6.38822">
        <ele>2151</ele>
        <time>2020-07-07T07:24:23.000Z</time>
      </trkpt>
      <trkpt lat="44.39348" lon="6.38821">
        <ele>2151</ele>
        <time>2020-07-07T07:24:24.000Z</time>
      </trkpt>
      <trkpt lat="44.39349" lon="6.38821">
        <ele>2151</ele>
        <time>2020-07-07T07:24:25.000Z</time>
      </trkpt>
      <trkpt lat="44.3935" lon="6.3882">
        <ele>2152</ele>
        <time>2020-07-07T07:24:26.000Z</time>
      </trkpt>
      <trkpt lat="44.39351" lon="6.38819">
        <ele>2152</ele>
        <time>2020-07-07T07:24:27.000Z</time>
      </trkpt>
      <trkpt lat="44.39352" lon="6.38818">
        <ele>2152</ele>
        <time>2020-07-07T07:24:28.000Z</time>
      </trkpt>
      <trkpt lat="44.39353" lon="6.38817">
        <ele>2152</ele>
        <time>2020-07-07T07:24:29.000Z</time>
      </trkpt>
      <trkpt lat="44.39353" lon="6.38817">
        <ele>2152</ele>
        <time>2020-07-07T07:24:30.000Z</time>
      </trkpt>
      <trkpt lat="44.39355" lon="6.38816">
        <ele>2152</ele>
        <time>2020-07-07T07:24:31.000Z</time>
      </trkpt>
      <trkpt lat="44.39355" lon="6.38816">
        <ele>2152</ele>
        <time>2020-07-07T07:24:32.000Z</time>
      </trkpt>
      <trkpt lat="44.39355" lon="6.38816">
        <ele>2152</ele>
        <time>2020-07-07T07:24:33.000Z</time>
      </trkpt>
      <trkpt lat="44.39357" lon="6.38815">
        <ele>2152</ele>
        <time>2020-07-07T07:24:34.000Z</time>
      </trkpt>
      <trkpt lat="44.39358" lon="6.38814">
        <ele>2153</ele>
        <time>2020-07-07T07:24:35.000Z</time>
      </trkpt>
      <trkpt lat="44.39359" lon="6.38813">
        <ele>2153</ele>
        <time>2020-07-07T07:24:36.000Z</time>
      </trkpt>
      <trkpt lat="44.3936" lon="6.38812">
        <ele>2153</ele>
        <time>2020-07-07T07:24:37.000Z</time>
      </trkpt>
      <trkpt lat="44.39361" lon="6.38811">
        <ele>2153</ele>
        <time>2020-07-07T07:24:38.000Z</time>
      </trkpt>
      <trkpt lat="44.39362" lon="6.38811">
        <ele>2153</ele>
        <time>2020-07-07T07:24:39.000Z</time>
      </trkpt>
      <trkpt lat="44.39362" lon="6.3881">
        <ele>2153</ele>
        <time>2020-07-07T07:24:40.000Z</time>
      </trkpt>
      <trkpt lat="44.39363" lon="6.38809">
        <ele>2154</ele>
        <time>2020-07-07T07:24:41.000Z</time>
      </trkpt>
      <trkpt lat="44.39364" lon="6.38808">
        <ele>2154</ele>
        <time>2020-07-07T07:24:42.000Z</time>
      </trkpt>
      <trkpt lat="44.39364" lon="6.38808">
        <ele>2154</ele>
        <time>2020-07-07T07:24:43.000Z</time>
      </trkpt>
      <trkpt lat="44.39365" lon="6.38807">
        <ele>2154</ele>
        <time>2020-07-07T07:24:44.000Z</time>
      </trkpt>
      <trkpt lat="44.39366" lon="6.38806">
        <ele>2154</ele>
        <time>2020-07-07T07:24:45.000Z</time>
      </trkpt>
      <trkpt lat="44.39367" lon="6.38803">
        <ele>2154</ele>
        <time>2020-07-07T07:24:46.000Z</time>
      </trkpt>
      <trkpt lat="44.39367" lon="6.38801">
        <ele>2154</ele>
        <time>2020-07-07T07:24:47.000Z</time>
      </trkpt>
      <trkpt lat="44.39367" lon="6.38801">
        <ele>2154</ele>
        <time>2020-07-07T07:24:48.000Z</time>
      </trkpt>
      <trkpt lat="44.39368" lon="6.38799">
        <ele>2154</ele>
        <time>2020-07-07T07:24:49.000Z</time>
      </trkpt>
      <trkpt lat="44.39369" lon="6.38797">
        <ele>2154</ele>
        <time>2020-07-07T07:24:50.000Z</time>
      </trkpt>
      <trkpt lat="44.3937" lon="6.38796">
        <ele>2155</ele>
        <time>2020-07-07T07:24:51.000Z</time>
      </trkpt>
      <trkpt lat="44.3937" lon="6.38795">
        <ele>2155</ele>
        <time>2020-07-07T07:24:52.000Z</time>
      </trkpt>
      <trkpt lat="44.39371" lon="6.38794">
        <ele>2155</ele>
        <time>2020-07-07T07:24:53.000Z</time>
      </trkpt>
      <trkpt lat="44.39371" lon="6.38793">
        <ele>2155</ele>
        <time>2020-07-07T07:24:54.000Z</time>
      </trkpt>
      <trkpt lat="44.39371" lon="6.38792">
        <ele>2155</ele>
        <time>2020-07-07T07:24:55.000Z</time>
      </trkpt>
      <trkpt lat="44.39372" lon="6.38791">
        <ele>2155</ele>
        <time>2020-07-07T07:24:56.000Z</time>
      </trkpt>
      <trkpt lat="44.39372" lon="6.38791">
        <ele>2155</ele>
        <time>2020-07-07T07:24:57.000Z</time>
      </trkpt>
      <trkpt lat="44.39372" lon="6.3879">
        <ele>2155</ele>
        <time>2020-07-07T07:24:58.000Z</time>
      </trkpt>
      <trkpt lat="44.39373" lon="6.38789">
        <ele>2155</ele>
        <time>2020-07-07T07:24:59.000Z</time>
      </trkpt>
      <trkpt lat="44.39373" lon="6.38788">
        <ele>2155</ele>
        <time>2020-07-07T07:25:00.000Z</time>
      </trkpt>
      <trkpt lat="44.39375" lon="6.38785">
        <ele>2156</ele>
        <time>2020-07-07T07:25:01.000Z</time>
      </trkpt>
      <trkpt lat="44.39375" lon="6.38783">
        <ele>2156</ele>
        <time>2020-07-07T07:25:02.000Z</time>
      </trkpt>
      <trkpt lat="44.39376" lon="6.38782">
        <ele>2156</ele>
        <time>2020-07-07T07:25:03.000Z</time>
      </trkpt>
      <trkpt lat="44.39376" lon="6.38782">
        <ele>2156</ele>
        <time>2020-07-07T07:25:04.000Z</time>
      </trkpt>
      <trkpt lat="44.39377" lon="6.3878">
        <ele>2156</ele>
        <time>2020-07-07T07:25:05.000Z</time>
      </trkpt>
      <trkpt lat="44.39378" lon="6.38778">
        <ele>2156</ele>
        <time>2020-07-07T07:25:06.000Z</time>
      </trkpt>
      <trkpt lat="44.39379" lon="6.38777">
        <ele>2156</ele>
        <time>2020-07-07T07:25:07.000Z</time>
      </trkpt>
      <trkpt lat="44.39379" lon="6.38776">
        <ele>2156</ele>
        <time>2020-07-07T07:25:08.000Z</time>
      </trkpt>
      <trkpt lat="44.3938" lon="6.38775">
        <ele>2156</ele>
        <time>2020-07-07T07:25:09.000Z</time>
      </trkpt>
      <trkpt lat="44.3938" lon="6.38773">
        <ele>2156</ele>
        <time>2020-07-07T07:25:10.000Z</time>
      </trkpt>
      <trkpt lat="44.3938" lon="6.38773">
        <ele>2156</ele>
        <time>2020-07-07T07:25:11.000Z</time>
      </trkpt>
      <trkpt lat="44.39381" lon="6.38771">
        <ele>2157</ele>
        <time>2020-07-07T07:25:12.000Z</time>
      </trkpt>
      <trkpt lat="44.39382" lon="6.3877">
        <ele>2157</ele>
        <time>2020-07-07T07:25:13.000Z</time>
      </trkpt>
      <trkpt lat="44.39382" lon="6.38769">
        <ele>2157</ele>
        <time>2020-07-07T07:25:14.000Z</time>
      </trkpt>
      <trkpt lat="44.39382" lon="6.38768">
        <ele>2157</ele>
        <time>2020-07-07T07:25:15.000Z</time>
      </trkpt>
      <trkpt lat="44.39383" lon="6.38766">
        <ele>2157</ele>
        <time>2020-07-07T07:25:16.000Z</time>
      </trkpt>
      <trkpt lat="44.39383" lon="6.38765">
        <ele>2157</ele>
        <time>2020-07-07T07:25:17.000Z</time>
      </trkpt>
      <trkpt lat="44.39384" lon="6.38764">
        <ele>2157</ele>
        <time>2020-07-07T07:25:18.000Z</time>
      </trkpt>
      <trkpt lat="44.39384" lon="6.38763">
        <ele>2157</ele>
        <time>2020-07-07T07:25:19.000Z</time>
      </trkpt>
      <trkpt lat="44.39385" lon="6.38762">
        <ele>2157</ele>
        <time>2020-07-07T07:25:20.000Z</time>
      </trkpt>
      <trkpt lat="44.39386" lon="6.3876">
        <ele>2158</ele>
        <time>2020-07-07T07:25:21.000Z</time>
      </trkpt>
      <trkpt lat="44.39386" lon="6.38759">
        <ele>2158</ele>
        <time>2020-07-07T07:25:22.000Z</time>
      </trkpt>
      <trkpt lat="44.39386" lon="6.38758">
        <ele>2158</ele>
        <time>2020-07-07T07:25:23.000Z</time>
      </trkpt>
      <trkpt lat="44.39386" lon="6.38758">
        <ele>2158</ele>
        <time>2020-07-07T07:25:24.000Z</time>
      </trkpt>
      <trkpt lat="44.39387" lon="6.38757">
        <ele>2158</ele>
        <time>2020-07-07T07:25:25.000Z</time>
      </trkpt>
      <trkpt lat="44.39387" lon="6.38755">
        <ele>2158</ele>
        <time>2020-07-07T07:25:26.000Z</time>
      </trkpt>
      <trkpt lat="44.39388" lon="6.38754">
        <ele>2158</ele>
        <time>2020-07-07T07:25:27.000Z</time>
      </trkpt>
      <trkpt lat="44.39388" lon="6.38754">
        <ele>2158</ele>
        <time>2020-07-07T07:25:28.000Z</time>
      </trkpt>
      <trkpt lat="44.39389" lon="6.3875">
        <ele>2157</ele>
        <time>2020-07-07T07:25:29.000Z</time>
      </trkpt>
      <trkpt lat="44.3939" lon="6.38749">
        <ele>2157</ele>
        <time>2020-07-07T07:25:30.000Z</time>
      </trkpt>
      <trkpt lat="44.3939" lon="6.38748">
        <ele>2157</ele>
        <time>2020-07-07T07:25:31.000Z</time>
      </trkpt>
      <trkpt lat="44.3939" lon="6.38747">
        <ele>2157</ele>
        <time>2020-07-07T07:25:32.000Z</time>
      </trkpt>
      <trkpt lat="44.39391" lon="6.38746">
        <ele>2157</ele>
        <time>2020-07-07T07:25:33.000Z</time>
      </trkpt>
      <trkpt lat="44.39391" lon="6.38744">
        <ele>2157</ele>
        <time>2020-07-07T07:25:34.000Z</time>
      </trkpt>
      <trkpt lat="44.39391" lon="6.38743">
        <ele>2157</ele>
        <time>2020-07-07T07:25:35.000Z</time>
      </trkpt>
      <trkpt lat="44.39392" lon="6.38742">
        <ele>2158</ele>
        <time>2020-07-07T07:25:36.000Z</time>
      </trkpt>
      <trkpt lat="44.39392" lon="6.38741">
        <ele>2158</ele>
        <time>2020-07-07T07:25:37.000Z</time>
      </trkpt>
      <trkpt lat="44.39393" lon="6.3874">
        <ele>2158</ele>
        <time>2020-07-07T07:25:38.000Z</time>
      </trkpt>
      <trkpt lat="44.39393" lon="6.38739">
        <ele>2158</ele>
        <time>2020-07-07T07:25:39.000Z</time>
      </trkpt>
      <trkpt lat="44.39394" lon="6.38738">
        <ele>2158</ele>
        <time>2020-07-07T07:25:40.000Z</time>
      </trkpt>
      <trkpt lat="44.39394" lon="6.38736">
        <ele>2158</ele>
        <time>2020-07-07T07:25:41.000Z</time>
      </trkpt>
      <trkpt lat="44.39395" lon="6.38736">
        <ele>2158</ele>
        <time>2020-07-07T07:25:42.000Z</time>
      </trkpt>
      <trkpt lat="44.39395" lon="6.38735">
        <ele>2158</ele>
        <time>2020-07-07T07:25:43.000Z</time>
      </trkpt>
      <trkpt lat="44.39396" lon="6.38734">
        <ele>2158</ele>
        <time>2020-07-07T07:25:44.000Z</time>
      </trkpt>
      <trkpt lat="44.39396" lon="6.38733">
        <ele>2159</ele>
        <time>2020-07-07T07:25:45.000Z</time>
      </trkpt>
      <trkpt lat="44.39397" lon="6.38732">
        <ele>2159</ele>
        <time>2020-07-07T07:25:46.000Z</time>
      </trkpt>
      <trkpt lat="44.39397" lon="6.38731">
        <ele>2159</ele>
        <time>2020-07-07T07:25:47.000Z</time>
      </trkpt>
      <trkpt lat="44.39397" lon="6.3873">
        <ele>2159</ele>
        <time>2020-07-07T07:25:48.000Z</time>
      </trkpt>
      <trkpt lat="44.39398" lon="6.38729">
        <ele>2159</ele>
        <time>2020-07-07T07:25:49.000Z</time>
      </trkpt>
      <trkpt lat="44.39398" lon="6.38729">
        <ele>2159</ele>
        <time>2020-07-07T07:25:50.000Z</time>
      </trkpt>
      <trkpt lat="44.39398" lon="6.38729">
        <ele>2159</ele>
        <time>2020-07-07T07:25:51.000Z</time>
      </trkpt>
      <trkpt lat="44.39398" lon="6.38729">
        <ele>2159</ele>
        <time>2020-07-07T07:25:52.000Z</time>
      </trkpt>
      <trkpt lat="44.39398" lon="6.38729">
        <ele>2159</ele>
        <time>2020-07-07T07:25:53.000Z</time>
      </trkpt>
      <trkpt lat="44.39398" lon="6.38729">
        <ele>2159</ele>
        <time>2020-07-07T07:25:54.000Z</time>
      </trkpt>
      <trkpt lat="44.39398" lon="6.38729">
        <ele>2159</ele>
        <time>2020-07-07T07:25:55.000Z</time>
      </trkpt>
      <trkpt lat="44.39399" lon="6.38729">
        <ele>2159</ele>
        <time>2020-07-07T07:25:56.000Z</time>
      </trkpt>
      <trkpt lat="44.39399" lon="6.38729">
        <ele>2159</ele>
        <time>2020-07-07T07:25:57.000Z</time>
      </trkpt>
      <trkpt lat="44.39399" lon="6.38729">
        <ele>2159</ele>
        <time>2020-07-07T07:25:58.000Z</time>
      </trkpt>
      <trkpt lat="44.39399" lon="6.38729">
        <ele>2159</ele>
        <time>2020-07-07T07:25:59.000Z</time>
      </trkpt>
      <trkpt lat="44.39399" lon="6.38729">
        <ele>2159</ele>
        <time>2020-07-07T07:26:00.000Z</time>
      </trkpt>
      <trkpt lat="44.39399" lon="6.38728">
        <ele>2159</ele>
        <time>2020-07-07T07:26:01.000Z</time>
      </trkpt>
      <trkpt lat="44.39399" lon="6.38728">
        <ele>2159</ele>
        <time>2020-07-07T07:26:02.000Z</time>
      </trkpt>
      <trkpt lat="44.39399" lon="6.38728">
        <ele>2159</ele>
        <time>2020-07-07T07:26:03.000Z</time>
      </trkpt>
      <trkpt lat="44.39399" lon="6.38728">
        <ele>2159</ele>
        <time>2020-07-07T07:26:04.000Z</time>
      </trkpt>
      <trkpt lat="44.39399" lon="6.38728">
        <ele>2159</ele>
        <time>2020-07-07T07:26:05.000Z</time>
      </trkpt>
      <trkpt lat="44.39399" lon="6.38727">
        <ele>2159</ele>
        <time>2020-07-07T07:26:06.000Z</time>
      </trkpt>
      <trkpt lat="44.394" lon="6.38726">
        <ele>2159</ele>
        <time>2020-07-07T07:26:07.000Z</time>
      </trkpt>
      <trkpt lat="44.39401" lon="6.38725">
        <ele>2159</ele>
        <time>2020-07-07T07:26:08.000Z</time>
      </trkpt>
      <trkpt lat="44.39401" lon="6.38724">
        <ele>2159</ele>
        <time>2020-07-07T07:26:09.000Z</time>
      </trkpt>
      <trkpt lat="44.39402" lon="6.38723">
        <ele>2159</ele>
        <time>2020-07-07T07:26:10.000Z</time>
      </trkpt>
      <trkpt lat="44.39402" lon="6.38722">
        <ele>2159</ele>
        <time>2020-07-07T07:26:11.000Z</time>
      </trkpt>
      <trkpt lat="44.39403" lon="6.38721">
        <ele>2159</ele>
        <time>2020-07-07T07:26:12.000Z</time>
      </trkpt>
      <trkpt lat="44.39403" lon="6.38721">
        <ele>2160</ele>
        <time>2020-07-07T07:26:13.000Z</time>
      </trkpt>
      <trkpt lat="44.39404" lon="6.3872">
        <ele>2160</ele>
        <time>2020-07-07T07:26:14.000Z</time>
      </trkpt>
      <trkpt lat="44.39404" lon="6.38719">
        <ele>2160</ele>
        <time>2020-07-07T07:26:15.000Z</time>
      </trkpt>
      <trkpt lat="44.39405" lon="6.38718">
        <ele>2160</ele>
        <time>2020-07-07T07:26:16.000Z</time>
      </trkpt>
      <trkpt lat="44.39406" lon="6.38718">
        <ele>2160</ele>
        <time>2020-07-07T07:26:17.000Z</time>
      </trkpt>
      <trkpt lat="44.39406" lon="6.38717">
        <ele>2160</ele>
        <time>2020-07-07T07:26:18.000Z</time>
      </trkpt>
      <trkpt lat="44.39407" lon="6.38716">
        <ele>2160</ele>
        <time>2020-07-07T07:26:19.000Z</time>
      </trkpt>
      <trkpt lat="44.39408" lon="6.38715">
        <ele>2160</ele>
        <time>2020-07-07T07:26:20.000Z</time>
      </trkpt>
      <trkpt lat="44.39408" lon="6.38715">
        <ele>2160</ele>
        <time>2020-07-07T07:26:21.000Z</time>
      </trkpt>
      <trkpt lat="44.39409" lon="6.38714">
        <ele>2160</ele>
        <time>2020-07-07T07:26:22.000Z</time>
      </trkpt>
      <trkpt lat="44.3941" lon="6.38713">
        <ele>2160</ele>
        <time>2020-07-07T07:26:23.000Z</time>
      </trkpt>
      <trkpt lat="44.39411" lon="6.38712">
        <ele>2161</ele>
        <time>2020-07-07T07:26:24.000Z</time>
      </trkpt>
      <trkpt lat="44.39411" lon="6.38711">
        <ele>2161</ele>
        <time>2020-07-07T07:26:25.000Z</time>
      </trkpt>
      <trkpt lat="44.39412" lon="6.38711">
        <ele>2161</ele>
        <time>2020-07-07T07:26:26.000Z</time>
      </trkpt>
      <trkpt lat="44.39412" lon="6.3871">
        <ele>2161</ele>
        <time>2020-07-07T07:26:27.000Z</time>
      </trkpt>
      <trkpt lat="44.39413" lon="6.38708">
        <ele>2161</ele>
        <time>2020-07-07T07:26:28.000Z</time>
      </trkpt>
      <trkpt lat="44.39414" lon="6.38708">
        <ele>2161</ele>
        <time>2020-07-07T07:26:29.000Z</time>
      </trkpt>
      <trkpt lat="44.39414" lon="6.38707">
        <ele>2161</ele>
        <time>2020-07-07T07:26:30.000Z</time>
      </trkpt>
      <trkpt lat="44.39415" lon="6.38706">
        <ele>2161</ele>
        <time>2020-07-07T07:26:31.000Z</time>
      </trkpt>
      <trkpt lat="44.39416" lon="6.38706">
        <ele>2161</ele>
        <time>2020-07-07T07:26:32.000Z</time>
      </trkpt>
      <trkpt lat="44.39416" lon="6.38706">
        <ele>2161</ele>
        <time>2020-07-07T07:26:33.000Z</time>
      </trkpt>
      <trkpt lat="44.39418" lon="6.38704">
        <ele>2161</ele>
        <time>2020-07-07T07:26:34.000Z</time>
      </trkpt>
      <trkpt lat="44.39419" lon="6.38703">
        <ele>2161</ele>
        <time>2020-07-07T07:26:35.000Z</time>
      </trkpt>
      <trkpt lat="44.39419" lon="6.38703">
        <ele>2161</ele>
        <time>2020-07-07T07:26:36.000Z</time>
      </trkpt>
      <trkpt lat="44.3942" lon="6.38702">
        <ele>2161</ele>
        <time>2020-07-07T07:26:37.000Z</time>
      </trkpt>
      <trkpt lat="44.39421" lon="6.38702">
        <ele>2162</ele>
        <time>2020-07-07T07:26:38.000Z</time>
      </trkpt>
      <trkpt lat="44.39422" lon="6.38701">
        <ele>2162</ele>
        <time>2020-07-07T07:26:39.000Z</time>
      </trkpt>
      <trkpt lat="44.39423" lon="6.387">
        <ele>2162</ele>
        <time>2020-07-07T07:26:40.000Z</time>
      </trkpt>
      <trkpt lat="44.39424" lon="6.38699">
        <ele>2162</ele>
        <time>2020-07-07T07:26:41.000Z</time>
      </trkpt>
      <trkpt lat="44.39425" lon="6.38699">
        <ele>2162</ele>
        <time>2020-07-07T07:26:42.000Z</time>
      </trkpt>
      <trkpt lat="44.39426" lon="6.38698">
        <ele>2162</ele>
        <time>2020-07-07T07:26:43.000Z</time>
      </trkpt>
      <trkpt lat="44.39426" lon="6.38697">
        <ele>2162</ele>
        <time>2020-07-07T07:26:44.000Z</time>
      </trkpt>
      <trkpt lat="44.39427" lon="6.38697">
        <ele>2162</ele>
        <time>2020-07-07T07:26:45.000Z</time>
      </trkpt>
      <trkpt lat="44.39428" lon="6.38696">
        <ele>2162</ele>
        <time>2020-07-07T07:26:46.000Z</time>
      </trkpt>
      <trkpt lat="44.39428" lon="6.38696">
        <ele>2162</ele>
        <time>2020-07-07T07:26:47.000Z</time>
      </trkpt>
      <trkpt lat="44.39431" lon="6.38694">
        <ele>2162</ele>
        <time>2020-07-07T07:26:48.000Z</time>
      </trkpt>
      <trkpt lat="44.39432" lon="6.38693">
        <ele>2163</ele>
        <time>2020-07-07T07:26:49.000Z</time>
      </trkpt>
      <trkpt lat="44.39433" lon="6.38692">
        <ele>2163</ele>
        <time>2020-07-07T07:26:50.000Z</time>
      </trkpt>
      <trkpt lat="44.39433" lon="6.38691">
        <ele>2163</ele>
        <time>2020-07-07T07:26:51.000Z</time>
      </trkpt>
      <trkpt lat="44.39434" lon="6.38691">
        <ele>2163</ele>
        <time>2020-07-07T07:26:52.000Z</time>
      </trkpt>
      <trkpt lat="44.39435" lon="6.3869">
        <ele>2163</ele>
        <time>2020-07-07T07:26:53.000Z</time>
      </trkpt>
      <trkpt lat="44.39436" lon="6.3869">
        <ele>2163</ele>
        <time>2020-07-07T07:26:54.000Z</time>
      </trkpt>
      <trkpt lat="44.39437" lon="6.38689">
        <ele>2163</ele>
        <time>2020-07-07T07:26:55.000Z</time>
      </trkpt>
      <trkpt lat="44.39438" lon="6.38689">
        <ele>2163</ele>
        <time>2020-07-07T07:26:56.000Z</time>
      </trkpt>
      <trkpt lat="44.39439" lon="6.38688">
        <ele>2164</ele>
        <time>2020-07-07T07:26:57.000Z</time>
      </trkpt>
      <trkpt lat="44.3944" lon="6.38688">
        <ele>2164</ele>
        <time>2020-07-07T07:26:58.000Z</time>
      </trkpt>
      <trkpt lat="44.39441" lon="6.38688">
        <ele>2164</ele>
        <time>2020-07-07T07:26:59.000Z</time>
      </trkpt>
      <trkpt lat="44.39442" lon="6.38687">
        <ele>2164</ele>
        <time>2020-07-07T07:27:00.000Z</time>
      </trkpt>
      <trkpt lat="44.39442" lon="6.38686">
        <ele>2164</ele>
        <time>2020-07-07T07:27:01.000Z</time>
      </trkpt>
      <trkpt lat="44.39443" lon="6.38686">
        <ele>2164</ele>
        <time>2020-07-07T07:27:02.000Z</time>
      </trkpt>
      <trkpt lat="44.39444" lon="6.38685">
        <ele>2164</ele>
        <time>2020-07-07T07:27:03.000Z</time>
      </trkpt>
      <trkpt lat="44.39445" lon="6.38685">
        <ele>2164</ele>
        <time>2020-07-07T07:27:04.000Z</time>
      </trkpt>
      <trkpt lat="44.39446" lon="6.38684">
        <ele>2165</ele>
        <time>2020-07-07T07:27:05.000Z</time>
      </trkpt>
      <trkpt lat="44.39447" lon="6.38684">
        <ele>2165</ele>
        <time>2020-07-07T07:27:06.000Z</time>
      </trkpt>
      <trkpt lat="44.39448" lon="6.38683">
        <ele>2165</ele>
        <time>2020-07-07T07:27:07.000Z</time>
      </trkpt>
      <trkpt lat="44.39449" lon="6.38683">
        <ele>2165</ele>
        <time>2020-07-07T07:27:08.000Z</time>
      </trkpt>
      <trkpt lat="44.39449" lon="6.38682">
        <ele>2165</ele>
        <time>2020-07-07T07:27:09.000Z</time>
      </trkpt>
      <trkpt lat="44.3945" lon="6.38681">
        <ele>2165</ele>
        <time>2020-07-07T07:27:10.000Z</time>
      </trkpt>
      <trkpt lat="44.39451" lon="6.38681">
        <ele>2165</ele>
        <time>2020-07-07T07:27:11.000Z</time>
      </trkpt>
      <trkpt lat="44.39452" lon="6.3868">
        <ele>2165</ele>
        <time>2020-07-07T07:27:12.000Z</time>
      </trkpt>
      <trkpt lat="44.39453" lon="6.3868">
        <ele>2165</ele>
        <time>2020-07-07T07:27:13.000Z</time>
      </trkpt>
      <trkpt lat="44.39454" lon="6.38679">
        <ele>2165</ele>
        <time>2020-07-07T07:27:14.000Z</time>
      </trkpt>
      <trkpt lat="44.39454" lon="6.38679">
        <ele>2165</ele>
        <time>2020-07-07T07:27:15.000Z</time>
      </trkpt>
      <trkpt lat="44.39455" lon="6.38678">
        <ele>2166</ele>
        <time>2020-07-07T07:27:16.000Z</time>
      </trkpt>
      <trkpt lat="44.39456" lon="6.38678">
        <ele>2166</ele>
        <time>2020-07-07T07:27:17.000Z</time>
      </trkpt>
      <trkpt lat="44.39457" lon="6.38677">
        <ele>2166</ele>
        <time>2020-07-07T07:27:18.000Z</time>
      </trkpt>
      <trkpt lat="44.39458" lon="6.38677">
        <ele>2166</ele>
        <time>2020-07-07T07:27:19.000Z</time>
      </trkpt>
      <trkpt lat="44.39458" lon="6.38677">
        <ele>2166</ele>
        <time>2020-07-07T07:27:20.000Z</time>
      </trkpt>
      <trkpt lat="44.39459" lon="6.38677">
        <ele>2166</ele>
        <time>2020-07-07T07:27:21.000Z</time>
      </trkpt>
      <trkpt lat="44.3946" lon="6.38677">
        <ele>2166</ele>
        <time>2020-07-07T07:27:22.000Z</time>
      </trkpt>
      <trkpt lat="44.39461" lon="6.38677">
        <ele>2166</ele>
        <time>2020-07-07T07:27:23.000Z</time>
      </trkpt>
      <trkpt lat="44.39462" lon="6.38677">
        <ele>2166</ele>
        <time>2020-07-07T07:27:24.000Z</time>
      </trkpt>
      <trkpt lat="44.39462" lon="6.38677">
        <ele>2166</ele>
        <time>2020-07-07T07:27:25.000Z</time>
      </trkpt>
      <trkpt lat="44.39463" lon="6.38677">
        <ele>2166</ele>
        <time>2020-07-07T07:27:26.000Z</time>
      </trkpt>
      <trkpt lat="44.39463" lon="6.38677">
        <ele>2167</ele>
        <time>2020-07-07T07:27:27.000Z</time>
      </trkpt>
      <trkpt lat="44.39463" lon="6.38677">
        <ele>2167</ele>
        <time>2020-07-07T07:27:28.000Z</time>
      </trkpt>
      <trkpt lat="44.39463" lon="6.38677">
        <ele>2167</ele>
        <time>2020-07-07T07:27:29.000Z</time>
      </trkpt>
      <trkpt lat="44.39463" lon="6.38677">
        <ele>2167</ele>
        <time>2020-07-07T07:27:30.000Z</time>
      </trkpt>
      <trkpt lat="44.39463" lon="6.38677">
        <ele>2167</ele>
        <time>2020-07-07T07:27:31.000Z</time>
      </trkpt>
      <trkpt lat="44.39463" lon="6.38677">
        <ele>2167</ele>
        <time>2020-07-07T07:27:32.000Z</time>
      </trkpt>
      <trkpt lat="44.39463" lon="6.38677">
        <ele>2167</ele>
        <time>2020-07-07T07:27:33.000Z</time>
      </trkpt>
      <trkpt lat="44.39463" lon="6.38677">
        <ele>2167</ele>
        <time>2020-07-07T07:27:34.000Z</time>
      </trkpt>
      <trkpt lat="44.39463" lon="6.38676">
        <ele>2167</ele>
        <time>2020-07-07T07:27:35.000Z</time>
      </trkpt>
      <trkpt lat="44.39462" lon="6.38676">
        <ele>2168</ele>
        <time>2020-07-07T07:27:36.000Z</time>
      </trkpt>
      <trkpt lat="44.39462" lon="6.38676">
        <ele>2168</ele>
        <time>2020-07-07T07:27:37.000Z</time>
      </trkpt>
      <trkpt lat="44.39462" lon="6.38676">
        <ele>2168</ele>
        <time>2020-07-07T07:27:38.000Z</time>
      </trkpt>
      <trkpt lat="44.39462" lon="6.38676">
        <ele>2168</ele>
        <time>2020-07-07T07:27:39.000Z</time>
      </trkpt>
      <trkpt lat="44.39463" lon="6.38676">
        <ele>2168</ele>
        <time>2020-07-07T07:27:40.000Z</time>
      </trkpt>
      <trkpt lat="44.39463" lon="6.38676">
        <ele>2168</ele>
        <time>2020-07-07T07:27:41.000Z</time>
      </trkpt>
      <trkpt lat="44.39463" lon="6.38676">
        <ele>2168</ele>
        <time>2020-07-07T07:27:42.000Z</time>
      </trkpt>
      <trkpt lat="44.39463" lon="6.38677">
        <ele>2169</ele>
        <time>2020-07-07T07:27:43.000Z</time>
      </trkpt>
      <trkpt lat="44.39463" lon="6.38677">
        <ele>2169</ele>
        <time>2020-07-07T07:27:44.000Z</time>
      </trkpt>
      <trkpt lat="44.39464" lon="6.38678">
        <ele>2169</ele>
        <time>2020-07-07T07:27:45.000Z</time>
      </trkpt>
      <trkpt lat="44.39465" lon="6.38678">
        <ele>2169</ele>
        <time>2020-07-07T07:27:46.000Z</time>
      </trkpt>
      <trkpt lat="44.39465" lon="6.38679">
        <ele>2169</ele>
        <time>2020-07-07T07:27:47.000Z</time>
      </trkpt>
      <trkpt lat="44.39466" lon="6.38679">
        <ele>2169</ele>
        <time>2020-07-07T07:27:48.000Z</time>
      </trkpt>
      <trkpt lat="44.39467" lon="6.3868">
        <ele>2169</ele>
        <time>2020-07-07T07:27:49.000Z</time>
      </trkpt>
      <trkpt lat="44.39468" lon="6.38681">
        <ele>2170</ele>
        <time>2020-07-07T07:27:50.000Z</time>
      </trkpt>
      <trkpt lat="44.39469" lon="6.38681">
        <ele>2170</ele>
        <time>2020-07-07T07:27:51.000Z</time>
      </trkpt>
      <trkpt lat="44.39469" lon="6.38682">
        <ele>2170</ele>
        <time>2020-07-07T07:27:52.000Z</time>
      </trkpt>
      <trkpt lat="44.3947" lon="6.38683">
        <ele>2170</ele>
        <time>2020-07-07T07:27:53.000Z</time>
      </trkpt>
      <trkpt lat="44.39471" lon="6.38683">
        <ele>2170</ele>
        <time>2020-07-07T07:27:54.000Z</time>
      </trkpt>
      <trkpt lat="44.39472" lon="6.38684">
        <ele>2170</ele>
        <time>2020-07-07T07:27:55.000Z</time>
      </trkpt>
      <trkpt lat="44.39472" lon="6.38685">
        <ele>2170</ele>
        <time>2020-07-07T07:27:56.000Z</time>
      </trkpt>
      <trkpt lat="44.39473" lon="6.38685">
        <ele>2170</ele>
        <time>2020-07-07T07:27:57.000Z</time>
      </trkpt>
      <trkpt lat="44.39474" lon="6.38686">
        <ele>2170</ele>
        <time>2020-07-07T07:27:58.000Z</time>
      </trkpt>
      <trkpt lat="44.39475" lon="6.38686">
        <ele>2170</ele>
        <time>2020-07-07T07:27:59.000Z</time>
      </trkpt>
      <trkpt lat="44.39476" lon="6.38687">
        <ele>2170</ele>
        <time>2020-07-07T07:28:00.000Z</time>
      </trkpt>
      <trkpt lat="44.39476" lon="6.38687">
        <ele>2170</ele>
        <time>2020-07-07T07:28:01.000Z</time>
      </trkpt>
      <trkpt lat="44.39477" lon="6.38688">
        <ele>2171</ele>
        <time>2020-07-07T07:28:02.000Z</time>
      </trkpt>
      <trkpt lat="44.39478" lon="6.38689">
        <ele>2171</ele>
        <time>2020-07-07T07:28:03.000Z</time>
      </trkpt>
      <trkpt lat="44.39478" lon="6.3869">
        <ele>2171</ele>
        <time>2020-07-07T07:28:04.000Z</time>
      </trkpt>
      <trkpt lat="44.39479" lon="6.3869">
        <ele>2171</ele>
        <time>2020-07-07T07:28:05.000Z</time>
      </trkpt>
      <trkpt lat="44.3948" lon="6.38691">
        <ele>2171</ele>
        <time>2020-07-07T07:28:06.000Z</time>
      </trkpt>
      <trkpt lat="44.39481" lon="6.38691">
        <ele>2171</ele>
        <time>2020-07-07T07:28:07.000Z</time>
      </trkpt>
      <trkpt lat="44.39481" lon="6.38691">
        <ele>2171</ele>
        <time>2020-07-07T07:28:08.000Z</time>
      </trkpt>
      <trkpt lat="44.39482" lon="6.38692">
        <ele>2172</ele>
        <time>2020-07-07T07:28:09.000Z</time>
      </trkpt>
      <trkpt lat="44.39483" lon="6.38692">
        <ele>2172</ele>
        <time>2020-07-07T07:28:10.000Z</time>
      </trkpt>
      <trkpt lat="44.39484" lon="6.38693">
        <ele>2172</ele>
        <time>2020-07-07T07:28:11.000Z</time>
      </trkpt>
      <trkpt lat="44.39484" lon="6.38693">
        <ele>2172</ele>
        <time>2020-07-07T07:28:12.000Z</time>
      </trkpt>
      <trkpt lat="44.39485" lon="6.38693">
        <ele>2172</ele>
        <time>2020-07-07T07:28:13.000Z</time>
      </trkpt>
      <trkpt lat="44.39486" lon="6.38693">
        <ele>2172</ele>
        <time>2020-07-07T07:28:14.000Z</time>
      </trkpt>
      <trkpt lat="44.39487" lon="6.38693">
        <ele>2172</ele>
        <time>2020-07-07T07:28:15.000Z</time>
      </trkpt>
      <trkpt lat="44.39488" lon="6.38693">
        <ele>2172</ele>
        <time>2020-07-07T07:28:16.000Z</time>
      </trkpt>
      <trkpt lat="44.39489" lon="6.38693">
        <ele>2172</ele>
        <time>2020-07-07T07:28:17.000Z</time>
      </trkpt>
      <trkpt lat="44.3949" lon="6.38692">
        <ele>2172</ele>
        <time>2020-07-07T07:28:18.000Z</time>
      </trkpt>
      <trkpt lat="44.3949" lon="6.38692">
        <ele>2173</ele>
        <time>2020-07-07T07:28:19.000Z</time>
      </trkpt>
      <trkpt lat="44.39491" lon="6.38691">
        <ele>2173</ele>
        <time>2020-07-07T07:28:20.000Z</time>
      </trkpt>
      <trkpt lat="44.39492" lon="6.38691">
        <ele>2173</ele>
        <time>2020-07-07T07:28:21.000Z</time>
      </trkpt>
      <trkpt lat="44.39493" lon="6.3869">
        <ele>2173</ele>
        <time>2020-07-07T07:28:22.000Z</time>
      </trkpt>
      <trkpt lat="44.39494" lon="6.38689">
        <ele>2173</ele>
        <time>2020-07-07T07:28:23.000Z</time>
      </trkpt>
      <trkpt lat="44.39495" lon="6.38689">
        <ele>2173</ele>
        <time>2020-07-07T07:28:24.000Z</time>
      </trkpt>
      <trkpt lat="44.39496" lon="6.38688">
        <ele>2173</ele>
        <time>2020-07-07T07:28:25.000Z</time>
      </trkpt>
      <trkpt lat="44.39497" lon="6.38688">
        <ele>2173</ele>
        <time>2020-07-07T07:28:26.000Z</time>
      </trkpt>
      <trkpt lat="44.39498" lon="6.38687">
        <ele>2173</ele>
        <time>2020-07-07T07:28:27.000Z</time>
      </trkpt>
      <trkpt lat="44.39499" lon="6.38687">
        <ele>2173</ele>
        <time>2020-07-07T07:28:28.000Z</time>
      </trkpt>
      <trkpt lat="44.395" lon="6.38687">
        <ele>2173</ele>
        <time>2020-07-07T07:28:29.000Z</time>
      </trkpt>
      <trkpt lat="44.39501" lon="6.38686">
        <ele>2173</ele>
        <time>2020-07-07T07:28:30.000Z</time>
      </trkpt>
      <trkpt lat="44.39502" lon="6.38686">
        <ele>2173</ele>
        <time>2020-07-07T07:28:31.000Z</time>
      </trkpt>
      <trkpt lat="44.39503" lon="6.38686">
        <ele>2173</ele>
        <time>2020-07-07T07:28:32.000Z</time>
      </trkpt>
      <trkpt lat="44.39504" lon="6.38686">
        <ele>2173</ele>
        <time>2020-07-07T07:28:33.000Z</time>
      </trkpt>
      <trkpt lat="44.39505" lon="6.38686">
        <ele>2173</ele>
        <time>2020-07-07T07:28:34.000Z</time>
      </trkpt>
      <trkpt lat="44.39506" lon="6.38685">
        <ele>2173</ele>
        <time>2020-07-07T07:28:35.000Z</time>
      </trkpt>
      <trkpt lat="44.39507" lon="6.38685">
        <ele>2174</ele>
        <time>2020-07-07T07:28:36.000Z</time>
      </trkpt>
      <trkpt lat="44.39507" lon="6.38685">
        <ele>2174</ele>
        <time>2020-07-07T07:28:37.000Z</time>
      </trkpt>
      <trkpt lat="44.39508" lon="6.38685">
        <ele>2174</ele>
        <time>2020-07-07T07:28:38.000Z</time>
      </trkpt>
      <trkpt lat="44.39509" lon="6.38684">
        <ele>2174</ele>
        <time>2020-07-07T07:28:39.000Z</time>
      </trkpt>
      <trkpt lat="44.3951" lon="6.38684">
        <ele>2174</ele>
        <time>2020-07-07T07:28:40.000Z</time>
      </trkpt>
      <trkpt lat="44.3951" lon="6.38684">
        <ele>2174</ele>
        <time>2020-07-07T07:28:41.000Z</time>
      </trkpt>
      <trkpt lat="44.39512" lon="6.38684">
        <ele>2174</ele>
        <time>2020-07-07T07:28:42.000Z</time>
      </trkpt>
      <trkpt lat="44.39513" lon="6.38684">
        <ele>2174</ele>
        <time>2020-07-07T07:28:43.000Z</time>
      </trkpt>
      <trkpt lat="44.39514" lon="6.38684">
        <ele>2174</ele>
        <time>2020-07-07T07:28:44.000Z</time>
      </trkpt>
      <trkpt lat="44.39514" lon="6.38684">
        <ele>2174</ele>
        <time>2020-07-07T07:28:45.000Z</time>
      </trkpt>
      <trkpt lat="44.39515" lon="6.38683">
        <ele>2174</ele>
        <time>2020-07-07T07:28:46.000Z</time>
      </trkpt>
      <trkpt lat="44.39516" lon="6.38683">
        <ele>2174</ele>
        <time>2020-07-07T07:28:47.000Z</time>
      </trkpt>
      <trkpt lat="44.39517" lon="6.38683">
        <ele>2174</ele>
        <time>2020-07-07T07:28:48.000Z</time>
      </trkpt>
      <trkpt lat="44.39518" lon="6.38683">
        <ele>2174</ele>
        <time>2020-07-07T07:28:49.000Z</time>
      </trkpt>
      <trkpt lat="44.39519" lon="6.38682">
        <ele>2174</ele>
        <time>2020-07-07T07:28:50.000Z</time>
      </trkpt>
      <trkpt lat="44.3952" lon="6.38681">
        <ele>2174</ele>
        <time>2020-07-07T07:28:51.000Z</time>
      </trkpt>
      <trkpt lat="44.3952" lon="6.38681">
        <ele>2174</ele>
        <time>2020-07-07T07:28:52.000Z</time>
      </trkpt>
      <trkpt lat="44.39521" lon="6.3868">
        <ele>2174</ele>
        <time>2020-07-07T07:28:53.000Z</time>
      </trkpt>
      <trkpt lat="44.39521" lon="6.3868">
        <ele>2174</ele>
        <time>2020-07-07T07:28:54.000Z</time>
      </trkpt>
      <trkpt lat="44.39523" lon="6.38678">
        <ele>2174</ele>
        <time>2020-07-07T07:28:55.000Z</time>
      </trkpt>
      <trkpt lat="44.39524" lon="6.38677">
        <ele>2174</ele>
        <time>2020-07-07T07:28:56.000Z</time>
      </trkpt>
      <trkpt lat="44.39525" lon="6.38676">
        <ele>2174</ele>
        <time>2020-07-07T07:28:57.000Z</time>
      </trkpt>
      <trkpt lat="44.39526" lon="6.38676">
        <ele>2174</ele>
        <time>2020-07-07T07:28:58.000Z</time>
      </trkpt>
      <trkpt lat="44.39526" lon="6.38675">
        <ele>2174</ele>
        <time>2020-07-07T07:28:59.000Z</time>
      </trkpt>
      <trkpt lat="44.39527" lon="6.38674">
        <ele>2174</ele>
        <time>2020-07-07T07:29:00.000Z</time>
      </trkpt>
      <trkpt lat="44.39527" lon="6.38674">
        <ele>2174</ele>
        <time>2020-07-07T07:29:01.000Z</time>
      </trkpt>
      <trkpt lat="44.39528" lon="6.38673">
        <ele>2174</ele>
        <time>2020-07-07T07:29:02.000Z</time>
      </trkpt>
      <trkpt lat="44.39528" lon="6.38672">
        <ele>2174</ele>
        <time>2020-07-07T07:29:03.000Z</time>
      </trkpt>
      <trkpt lat="44.39529" lon="6.38672">
        <ele>2175</ele>
        <time>2020-07-07T07:29:04.000Z</time>
      </trkpt>
      <trkpt lat="44.39529" lon="6.38671">
        <ele>2175</ele>
        <time>2020-07-07T07:29:05.000Z</time>
      </trkpt>
      <trkpt lat="44.39529" lon="6.3867">
        <ele>2175</ele>
        <time>2020-07-07T07:29:06.000Z</time>
      </trkpt>
      <trkpt lat="44.3953" lon="6.3867">
        <ele>2175</ele>
        <time>2020-07-07T07:29:07.000Z</time>
      </trkpt>
      <trkpt lat="44.3953" lon="6.3867">
        <ele>2175</ele>
        <time>2020-07-07T07:29:08.000Z</time>
      </trkpt>
      <trkpt lat="44.3953" lon="6.38669">
        <ele>2175</ele>
        <time>2020-07-07T07:29:09.000Z</time>
      </trkpt>
      <trkpt lat="44.3953" lon="6.38668">
        <ele>2176</ele>
        <time>2020-07-07T07:29:10.000Z</time>
      </trkpt>
      <trkpt lat="44.39531" lon="6.38667">
        <ele>2176</ele>
        <time>2020-07-07T07:29:11.000Z</time>
      </trkpt>
      <trkpt lat="44.39531" lon="6.38666">
        <ele>2176</ele>
        <time>2020-07-07T07:29:12.000Z</time>
      </trkpt>
      <trkpt lat="44.39531" lon="6.38664">
        <ele>2176</ele>
        <time>2020-07-07T07:29:13.000Z</time>
      </trkpt>
      <trkpt lat="44.39531" lon="6.38663">
        <ele>2176</ele>
        <time>2020-07-07T07:29:14.000Z</time>
      </trkpt>
      <trkpt lat="44.39531" lon="6.38662">
        <ele>2176</ele>
        <time>2020-07-07T07:29:15.000Z</time>
      </trkpt>
      <trkpt lat="44.39531" lon="6.38661">
        <ele>2176</ele>
        <time>2020-07-07T07:29:16.000Z</time>
      </trkpt>
      <trkpt lat="44.39531" lon="6.3866">
        <ele>2176</ele>
        <time>2020-07-07T07:29:17.000Z</time>
      </trkpt>
      <trkpt lat="44.39531" lon="6.38659">
        <ele>2176</ele>
        <time>2020-07-07T07:29:18.000Z</time>
      </trkpt>
      <trkpt lat="44.39531" lon="6.38657">
        <ele>2176</ele>
        <time>2020-07-07T07:29:19.000Z</time>
      </trkpt>
      <trkpt lat="44.39531" lon="6.38656">
        <ele>2176</ele>
        <time>2020-07-07T07:29:20.000Z</time>
      </trkpt>
      <trkpt lat="44.39531" lon="6.38656">
        <ele>2176</ele>
        <time>2020-07-07T07:29:21.000Z</time>
      </trkpt>
      <trkpt lat="44.39531" lon="6.38655">
        <ele>2176</ele>
        <time>2020-07-07T07:29:22.000Z</time>
      </trkpt>
      <trkpt lat="44.39531" lon="6.38653">
        <ele>2176</ele>
        <time>2020-07-07T07:29:23.000Z</time>
      </trkpt>
      <trkpt lat="44.39532" lon="6.38651">
        <ele>2176</ele>
        <time>2020-07-07T07:29:24.000Z</time>
      </trkpt>
      <trkpt lat="44.39532" lon="6.3865">
        <ele>2176</ele>
        <time>2020-07-07T07:29:25.000Z</time>
      </trkpt>
      <trkpt lat="44.39532" lon="6.38649">
        <ele>2176</ele>
        <time>2020-07-07T07:29:26.000Z</time>
      </trkpt>
      <trkpt lat="44.39533" lon="6.38647">
        <ele>2176</ele>
        <time>2020-07-07T07:29:27.000Z</time>
      </trkpt>
      <trkpt lat="44.39534" lon="6.38646">
        <ele>2176</ele>
        <time>2020-07-07T07:29:28.000Z</time>
      </trkpt>
      <trkpt lat="44.39534" lon="6.38645">
        <ele>2176</ele>
        <time>2020-07-07T07:29:29.000Z</time>
      </trkpt>
      <trkpt lat="44.39535" lon="6.38643">
        <ele>2176</ele>
        <time>2020-07-07T07:29:30.000Z</time>
      </trkpt>
      <trkpt lat="44.39536" lon="6.38642">
        <ele>2177</ele>
        <time>2020-07-07T07:29:31.000Z</time>
      </trkpt>
      <trkpt lat="44.39536" lon="6.38641">
        <ele>2177</ele>
        <time>2020-07-07T07:29:32.000Z</time>
      </trkpt>
      <trkpt lat="44.39537" lon="6.3864">
        <ele>2177</ele>
        <time>2020-07-07T07:29:33.000Z</time>
      </trkpt>
      <trkpt lat="44.39537" lon="6.38639">
        <ele>2177</ele>
        <time>2020-07-07T07:29:34.000Z</time>
      </trkpt>
      <trkpt lat="44.39537" lon="6.38639">
        <ele>2177</ele>
        <time>2020-07-07T07:29:35.000Z</time>
      </trkpt>
      <trkpt lat="44.39538" lon="6.38637">
        <ele>2177</ele>
        <time>2020-07-07T07:29:36.000Z</time>
      </trkpt>
      <trkpt lat="44.39538" lon="6.38636">
        <ele>2178</ele>
        <time>2020-07-07T07:29:37.000Z</time>
      </trkpt>
      <trkpt lat="44.39539" lon="6.38636">
        <ele>2178</ele>
        <time>2020-07-07T07:29:38.000Z</time>
      </trkpt>
      <trkpt lat="44.3954" lon="6.38635">
        <ele>2178</ele>
        <time>2020-07-07T07:29:39.000Z</time>
      </trkpt>
      <trkpt lat="44.39541" lon="6.38635">
        <ele>2178</ele>
        <time>2020-07-07T07:29:40.000Z</time>
      </trkpt>
      <trkpt lat="44.39542" lon="6.38635">
        <ele>2178</ele>
        <time>2020-07-07T07:29:41.000Z</time>
      </trkpt>
      <trkpt lat="44.39542" lon="6.38634">
        <ele>2178</ele>
        <time>2020-07-07T07:29:42.000Z</time>
      </trkpt>
      <trkpt lat="44.39543" lon="6.38634">
        <ele>2178</ele>
        <time>2020-07-07T07:29:43.000Z</time>
      </trkpt>
      <trkpt lat="44.39543" lon="6.38634">
        <ele>2178</ele>
        <time>2020-07-07T07:29:44.000Z</time>
      </trkpt>
      <trkpt lat="44.39543" lon="6.38635">
        <ele>2178</ele>
        <time>2020-07-07T07:29:45.000Z</time>
      </trkpt>
      <trkpt lat="44.39543" lon="6.38635">
        <ele>2178</ele>
        <time>2020-07-07T07:29:46.000Z</time>
      </trkpt>
      <trkpt lat="44.39544" lon="6.38635">
        <ele>2178</ele>
        <time>2020-07-07T07:29:47.000Z</time>
      </trkpt>
      <trkpt lat="44.39544" lon="6.38634">
        <ele>2178</ele>
        <time>2020-07-07T07:29:48.000Z</time>
      </trkpt>
      <trkpt lat="44.39544" lon="6.38634">
        <ele>2178</ele>
        <time>2020-07-07T07:29:49.000Z</time>
      </trkpt>
      <trkpt lat="44.39544" lon="6.38634">
        <ele>2178</ele>
        <time>2020-07-07T07:29:50.000Z</time>
      </trkpt>
      <trkpt lat="44.39544" lon="6.38634">
        <ele>2178</ele>
        <time>2020-07-07T07:29:51.000Z</time>
      </trkpt>
      <trkpt lat="44.39544" lon="6.38634">
        <ele>2178</ele>
        <time>2020-07-07T07:29:52.000Z</time>
      </trkpt>
      <trkpt lat="44.39544" lon="6.38634">
        <ele>2178</ele>
        <time>2020-07-07T07:29:53.000Z</time>
      </trkpt>
      <trkpt lat="44.39544" lon="6.38634">
        <ele>2178</ele>
        <time>2020-07-07T07:29:54.000Z</time>
      </trkpt>
      <trkpt lat="44.39544" lon="6.38634">
        <ele>2178</ele>
        <time>2020-07-07T07:29:55.000Z</time>
      </trkpt>
      <trkpt lat="44.39544" lon="6.38634">
        <ele>2178</ele>
        <time>2020-07-07T07:29:56.000Z</time>
      </trkpt>
      <trkpt lat="44.39545" lon="6.38634">
        <ele>2178</ele>
        <time>2020-07-07T07:29:57.000Z</time>
      </trkpt>
      <trkpt lat="44.39545" lon="6.38634">
        <ele>2178</ele>
        <time>2020-07-07T07:29:58.000Z</time>
      </trkpt>
      <trkpt lat="44.39545" lon="6.38634">
        <ele>2178</ele>
        <time>2020-07-07T07:29:59.000Z</time>
      </trkpt>
      <trkpt lat="44.39545" lon="6.38634">
        <ele>2178</ele>
        <time>2020-07-07T07:30:00.000Z</time>
      </trkpt>
      <trkpt lat="44.39545" lon="6.38634">
        <ele>2178</ele>
        <time>2020-07-07T07:30:01.000Z</time>
      </trkpt>
      <trkpt lat="44.39545" lon="6.38634">
        <ele>2178</ele>
        <time>2020-07-07T07:30:02.000Z</time>
      </trkpt>
      <trkpt lat="44.39545" lon="6.38634">
        <ele>2178</ele>
        <time>2020-07-07T07:30:03.000Z</time>
      </trkpt>
      <trkpt lat="44.39545" lon="6.38634">
        <ele>2178</ele>
        <time>2020-07-07T07:30:04.000Z</time>
      </trkpt>
      <trkpt lat="44.39545" lon="6.38634">
        <ele>2178</ele>
        <time>2020-07-07T07:30:05.000Z</time>
      </trkpt>
      <trkpt lat="44.39545" lon="6.38634">
        <ele>2178</ele>
        <time>2020-07-07T07:30:06.000Z</time>
      </trkpt>
      <trkpt lat="44.39545" lon="6.38634">
        <ele>2179</ele>
        <time>2020-07-07T07:30:07.000Z</time>
      </trkpt>
      <trkpt lat="44.39545" lon="6.38634">
        <ele>2179</ele>
        <time>2020-07-07T07:30:08.000Z</time>
      </trkpt>
      <trkpt lat="44.39545" lon="6.38634">
        <ele>2179</ele>
        <time>2020-07-07T07:30:09.000Z</time>
      </trkpt>
      <trkpt lat="44.39545" lon="6.38634">
        <ele>2179</ele>
        <time>2020-07-07T07:30:10.000Z</time>
      </trkpt>
      <trkpt lat="44.39546" lon="6.38634">
        <ele>2179</ele>
        <time>2020-07-07T07:30:11.000Z</time>
      </trkpt>
      <trkpt lat="44.39546" lon="6.38634">
        <ele>2179</ele>
        <time>2020-07-07T07:30:12.000Z</time>
      </trkpt>
      <trkpt lat="44.39545" lon="6.38634">
        <ele>2179</ele>
        <time>2020-07-07T07:30:13.000Z</time>
      </trkpt>
      <trkpt lat="44.39545" lon="6.38634">
        <ele>2179</ele>
        <time>2020-07-07T07:30:14.000Z</time>
      </trkpt>
      <trkpt lat="44.39545" lon="6.38634">
        <ele>2179</ele>
        <time>2020-07-07T07:30:15.000Z</time>
      </trkpt>
      <trkpt lat="44.39545" lon="6.38634">
        <ele>2179</ele>
        <time>2020-07-07T07:30:16.000Z</time>
      </trkpt>
      <trkpt lat="44.39545" lon="6.38634">
        <ele>2179</ele>
        <time>2020-07-07T07:30:17.000Z</time>
      </trkpt>
      <trkpt lat="44.39545" lon="6.38634">
        <ele>2179</ele>
        <time>2020-07-07T07:30:18.000Z</time>
      </trkpt>
      <trkpt lat="44.39546" lon="6.38634">
        <ele>2179</ele>
        <time>2020-07-07T07:30:19.000Z</time>
      </trkpt>
      <trkpt lat="44.39546" lon="6.38634">
        <ele>2179</ele>
        <time>2020-07-07T07:30:20.000Z</time>
      </trkpt>
      <trkpt lat="44.39545" lon="6.38634">
        <ele>2179</ele>
        <time>2020-07-07T07:30:21.000Z</time>
      </trkpt>
      <trkpt lat="44.39545" lon="6.38634">
        <ele>2179</ele>
        <time>2020-07-07T07:30:22.000Z</time>
      </trkpt>
      <trkpt lat="44.39545" lon="6.38634">
        <ele>2179</ele>
        <time>2020-07-07T07:30:23.000Z</time>
      </trkpt>
      <trkpt lat="44.39545" lon="6.38634">
        <ele>2179</ele>
        <time>2020-07-07T07:30:24.000Z</time>
      </trkpt>
      <trkpt lat="44.39545" lon="6.38634">
        <ele>2179</ele>
        <time>2020-07-07T07:30:25.000Z</time>
      </trkpt>
      <trkpt lat="44.39545" lon="6.38634">
        <ele>2179</ele>
        <time>2020-07-07T07:30:26.000Z</time>
      </trkpt>
      <trkpt lat="44.39545" lon="6.38634">
        <ele>2179</ele>
        <time>2020-07-07T07:30:27.000Z</time>
      </trkpt>
      <trkpt lat="44.39545" lon="6.38634">
        <ele>2179</ele>
        <time>2020-07-07T07:30:28.000Z</time>
      </trkpt>
      <trkpt lat="44.39545" lon="6.38633">
        <ele>2179</ele>
        <time>2020-07-07T07:30:29.000Z</time>
      </trkpt>
      <trkpt lat="44.39545" lon="6.38633">
        <ele>2179</ele>
        <time>2020-07-07T07:30:30.000Z</time>
      </trkpt>
      <trkpt lat="44.39545" lon="6.38633">
        <ele>2179</ele>
        <time>2020-07-07T07:30:31.000Z</time>
      </trkpt>
      <trkpt lat="44.39545" lon="6.38633">
        <ele>2179</ele>
        <time>2020-07-07T07:30:32.000Z</time>
      </trkpt>
      <trkpt lat="44.39545" lon="6.38633">
        <ele>2179</ele>
        <time>2020-07-07T07:30:33.000Z</time>
      </trkpt>
      <trkpt lat="44.39545" lon="6.38633">
        <ele>2179</ele>
        <time>2020-07-07T07:30:34.000Z</time>
      </trkpt>
      <trkpt lat="44.39545" lon="6.38633">
        <ele>2180</ele>
        <time>2020-07-07T07:30:35.000Z</time>
      </trkpt>
      <trkpt lat="44.39545" lon="6.38633">
        <ele>2180</ele>
        <time>2020-07-07T07:30:36.000Z</time>
      </trkpt>
      <trkpt lat="44.39545" lon="6.38633">
        <ele>2180</ele>
        <time>2020-07-07T07:30:37.000Z</time>
      </trkpt>
      <trkpt lat="44.39545" lon="6.38633">
        <ele>2180</ele>
        <time>2020-07-07T07:30:38.000Z</time>
      </trkpt>
      <trkpt lat="44.39545" lon="6.38633">
        <ele>2180</ele>
        <time>2020-07-07T07:30:39.000Z</time>
      </trkpt>
      <trkpt lat="44.39545" lon="6.38633">
        <ele>2180</ele>
        <time>2020-07-07T07:30:40.000Z</time>
      </trkpt>
      <trkpt lat="44.39545" lon="6.38633">
        <ele>2180</ele>
        <time>2020-07-07T07:30:41.000Z</time>
      </trkpt>
      <trkpt lat="44.39545" lon="6.38633">
        <ele>2180</ele>
        <time>2020-07-07T07:30:42.000Z</time>
      </trkpt>
      <trkpt lat="44.39545" lon="6.38633">
        <ele>2180</ele>
        <time>2020-07-07T07:30:43.000Z</time>
      </trkpt>
      <trkpt lat="44.39545" lon="6.38633">
        <ele>2180</ele>
        <time>2020-07-07T07:30:44.000Z</time>
      </trkpt>
      <trkpt lat="44.39545" lon="6.38633">
        <ele>2180</ele>
        <time>2020-07-07T07:30:45.000Z</time>
      </trkpt>
      <trkpt lat="44.39545" lon="6.38633">
        <ele>2180</ele>
        <time>2020-07-07T07:30:46.000Z</time>
      </trkpt>
      <trkpt lat="44.39545" lon="6.38633">
        <ele>2180</ele>
        <time>2020-07-07T07:30:47.000Z</time>
      </trkpt>
      <trkpt lat="44.39545" lon="6.38633">
        <ele>2180</ele>
        <time>2020-07-07T07:30:48.000Z</time>
      </trkpt>
      <trkpt lat="44.39545" lon="6.38633">
        <ele>2180</ele>
        <time>2020-07-07T07:30:49.000Z</time>
      </trkpt>
      <trkpt lat="44.39545" lon="6.38633">
        <ele>2180</ele>
        <time>2020-07-07T07:30:50.000Z</time>
      </trkpt>
      <trkpt lat="44.39545" lon="6.38633">
        <ele>2180</ele>
        <time>2020-07-07T07:30:51.000Z</time>
      </trkpt>
      <trkpt lat="44.39545" lon="6.38633">
        <ele>2180</ele>
        <time>2020-07-07T07:30:52.000Z</time>
      </trkpt>
      <trkpt lat="44.39545" lon="6.38633">
        <ele>2180</ele>
        <time>2020-07-07T07:30:53.000Z</time>
      </trkpt>
      <trkpt lat="44.39545" lon="6.38633">
        <ele>2180</ele>
        <time>2020-07-07T07:30:54.000Z</time>
      </trkpt>
      <trkpt lat="44.39545" lon="6.38633">
        <ele>2180</ele>
        <time>2020-07-07T07:30:55.000Z</time>
      </trkpt>
      <trkpt lat="44.39545" lon="6.38633">
        <ele>2180</ele>
        <time>2020-07-07T07:30:56.000Z</time>
      </trkpt>
      <trkpt lat="44.39545" lon="6.38633">
        <ele>2180</ele>
        <time>2020-07-07T07:30:57.000Z</time>
      </trkpt>
      <trkpt lat="44.39545" lon="6.38633">
        <ele>2180</ele>
        <time>2020-07-07T07:30:58.000Z</time>
      </trkpt>
      <trkpt lat="44.39545" lon="6.38633">
        <ele>2180</ele>
        <time>2020-07-07T07:30:59.000Z</time>
      </trkpt>
      <trkpt lat="44.39545" lon="6.38633">
        <ele>2180</ele>
        <time>2020-07-07T07:31:00.000Z</time>
      </trkpt>
      <trkpt lat="44.39545" lon="6.38633">
        <ele>2180</ele>
        <time>2020-07-07T07:31:01.000Z</time>
      </trkpt>
      <trkpt lat="44.39545" lon="6.38633">
        <ele>2180</ele>
        <time>2020-07-07T07:31:02.000Z</time>
      </trkpt>
      <trkpt lat="44.39545" lon="6.38633">
        <ele>2181</ele>
        <time>2020-07-07T07:31:03.000Z</time>
      </trkpt>
      <trkpt lat="44.39545" lon="6.38633">
        <ele>2181</ele>
        <time>2020-07-07T07:31:04.000Z</time>
      </trkpt>
      <trkpt lat="44.39545" lon="6.38633">
        <ele>2181</ele>
        <time>2020-07-07T07:31:05.000Z</time>
      </trkpt>
      <trkpt lat="44.39545" lon="6.38633">
        <ele>2181</ele>
        <time>2020-07-07T07:31:06.000Z</time>
      </trkpt>
      <trkpt lat="44.39545" lon="6.38633">
        <ele>2181</ele>
        <time>2020-07-07T07:31:07.000Z</time>
      </trkpt>
      <trkpt lat="44.39545" lon="6.38633">
        <ele>2181</ele>
        <time>2020-07-07T07:31:08.000Z</time>
      </trkpt>
      <trkpt lat="44.39545" lon="6.38633">
        <ele>2181</ele>
        <time>2020-07-07T07:31:09.000Z</time>
      </trkpt>
      <trkpt lat="44.39545" lon="6.38633">
        <ele>2181</ele>
        <time>2020-07-07T07:31:10.000Z</time>
      </trkpt>
      <trkpt lat="44.39545" lon="6.38633">
        <ele>2181</ele>
        <time>2020-07-07T07:31:11.000Z</time>
      </trkpt>
      <trkpt lat="44.39545" lon="6.38633">
        <ele>2181</ele>
        <time>2020-07-07T07:31:12.000Z</time>
      </trkpt>
      <trkpt lat="44.39545" lon="6.38633">
        <ele>2181</ele>
        <time>2020-07-07T07:31:13.000Z</time>
      </trkpt>
      <trkpt lat="44.39545" lon="6.38633">
        <ele>2181</ele>
        <time>2020-07-07T07:31:14.000Z</time>
      </trkpt>
      <trkpt lat="44.39545" lon="6.38633">
        <ele>2181</ele>
        <time>2020-07-07T07:31:15.000Z</time>
      </trkpt>
      <trkpt lat="44.39545" lon="6.38633">
        <ele>2181</ele>
        <time>2020-07-07T07:31:16.000Z</time>
      </trkpt>
      <trkpt lat="44.39545" lon="6.38633">
        <ele>2181</ele>
        <time>2020-07-07T07:31:17.000Z</time>
      </trkpt>
      <trkpt lat="44.39545" lon="6.38633">
        <ele>2181</ele>
        <time>2020-07-07T07:31:18.000Z</time>
      </trkpt>
      <trkpt lat="44.39546" lon="6.38634">
        <ele>2181</ele>
        <time>2020-07-07T07:31:19.000Z</time>
      </trkpt>
      <trkpt lat="44.39547" lon="6.38634">
        <ele>2181</ele>
        <time>2020-07-07T07:31:20.000Z</time>
      </trkpt>
      <trkpt lat="44.39547" lon="6.38634">
        <ele>2181</ele>
        <time>2020-07-07T07:31:21.000Z</time>
      </trkpt>
      <trkpt lat="44.39548" lon="6.38634">
        <ele>2181</ele>
        <time>2020-07-07T07:31:22.000Z</time>
      </trkpt>
      <trkpt lat="44.39549" lon="6.38635">
        <ele>2181</ele>
        <time>2020-07-07T07:31:23.000Z</time>
      </trkpt>
      <trkpt lat="44.3955" lon="6.38636">
        <ele>2181</ele>
        <time>2020-07-07T07:31:24.000Z</time>
      </trkpt>
      <trkpt lat="44.39551" lon="6.38636">
        <ele>2181</ele>
        <time>2020-07-07T07:31:25.000Z</time>
      </trkpt>
      <trkpt lat="44.39551" lon="6.38637">
        <ele>2181</ele>
        <time>2020-07-07T07:31:26.000Z</time>
      </trkpt>
      <trkpt lat="44.39552" lon="6.38638">
        <ele>2181</ele>
        <time>2020-07-07T07:31:27.000Z</time>
      </trkpt>
      <trkpt lat="44.39553" lon="6.38639">
        <ele>2181</ele>
        <time>2020-07-07T07:31:28.000Z</time>
      </trkpt>
      <trkpt lat="44.39554" lon="6.38639">
        <ele>2181</ele>
        <time>2020-07-07T07:31:29.000Z</time>
      </trkpt>
      <trkpt lat="44.39554" lon="6.3864">
        <ele>2181</ele>
        <time>2020-07-07T07:31:30.000Z</time>
      </trkpt>
      <trkpt lat="44.39554" lon="6.38641">
        <ele>2181</ele>
        <time>2020-07-07T07:31:31.000Z</time>
      </trkpt>
      <trkpt lat="44.39555" lon="6.38642">
        <ele>2181</ele>
        <time>2020-07-07T07:31:32.000Z</time>
      </trkpt>
      <trkpt lat="44.39555" lon="6.38642">
        <ele>2181</ele>
        <time>2020-07-07T07:31:33.000Z</time>
      </trkpt>
      <trkpt lat="44.39556" lon="6.38643">
        <ele>2181</ele>
        <time>2020-07-07T07:31:34.000Z</time>
      </trkpt>
      <trkpt lat="44.39557" lon="6.38643">
        <ele>2181</ele>
        <time>2020-07-07T07:31:35.000Z</time>
      </trkpt>
      <trkpt lat="44.39557" lon="6.38643">
        <ele>2182</ele>
        <time>2020-07-07T07:31:36.000Z</time>
      </trkpt>
      <trkpt lat="44.39558" lon="6.38644">
        <ele>2182</ele>
        <time>2020-07-07T07:31:37.000Z</time>
      </trkpt>
      <trkpt lat="44.39559" lon="6.38644">
        <ele>2182</ele>
        <time>2020-07-07T07:31:38.000Z</time>
      </trkpt>
      <trkpt lat="44.3956" lon="6.38645">
        <ele>2182</ele>
        <time>2020-07-07T07:31:39.000Z</time>
      </trkpt>
      <trkpt lat="44.39561" lon="6.38645">
        <ele>2182</ele>
        <time>2020-07-07T07:31:40.000Z</time>
      </trkpt>
      <trkpt lat="44.39562" lon="6.38645">
        <ele>2182</ele>
        <time>2020-07-07T07:31:41.000Z</time>
      </trkpt>
      <trkpt lat="44.39563" lon="6.38645">
        <ele>2182</ele>
        <time>2020-07-07T07:31:42.000Z</time>
      </trkpt>
      <trkpt lat="44.39564" lon="6.38645">
        <ele>2182</ele>
        <time>2020-07-07T07:31:43.000Z</time>
      </trkpt>
      <trkpt lat="44.39565" lon="6.38646">
        <ele>2182</ele>
        <time>2020-07-07T07:31:44.000Z</time>
      </trkpt>
      <trkpt lat="44.39566" lon="6.38646">
        <ele>2182</ele>
        <time>2020-07-07T07:31:45.000Z</time>
      </trkpt>
      <trkpt lat="44.39567" lon="6.38646">
        <ele>2182</ele>
        <time>2020-07-07T07:31:46.000Z</time>
      </trkpt>
      <trkpt lat="44.39568" lon="6.38646">
        <ele>2182</ele>
        <time>2020-07-07T07:31:47.000Z</time>
      </trkpt>
      <trkpt lat="44.39569" lon="6.38646">
        <ele>2183</ele>
        <time>2020-07-07T07:31:48.000Z</time>
      </trkpt>
      <trkpt lat="44.3957" lon="6.38645">
        <ele>2183</ele>
        <time>2020-07-07T07:31:49.000Z</time>
      </trkpt>
      <trkpt lat="44.39571" lon="6.38645">
        <ele>2183</ele>
        <time>2020-07-07T07:31:50.000Z</time>
      </trkpt>
      <trkpt lat="44.39571" lon="6.38645">
        <ele>2183</ele>
        <time>2020-07-07T07:31:51.000Z</time>
      </trkpt>
      <trkpt lat="44.39572" lon="6.38645">
        <ele>2183</ele>
        <time>2020-07-07T07:31:52.000Z</time>
      </trkpt>
      <trkpt lat="44.39573" lon="6.38645">
        <ele>2183</ele>
        <time>2020-07-07T07:31:53.000Z</time>
      </trkpt>
      <trkpt lat="44.39574" lon="6.38645">
        <ele>2183</ele>
        <time>2020-07-07T07:31:54.000Z</time>
      </trkpt>
      <trkpt lat="44.39574" lon="6.38644">
        <ele>2183</ele>
        <time>2020-07-07T07:31:55.000Z</time>
      </trkpt>
      <trkpt lat="44.39575" lon="6.38644">
        <ele>2183</ele>
        <time>2020-07-07T07:31:56.000Z</time>
      </trkpt>
      <trkpt lat="44.39575" lon="6.38644">
        <ele>2183</ele>
        <time>2020-07-07T07:31:57.000Z</time>
      </trkpt>
      <trkpt lat="44.39576" lon="6.38643">
        <ele>2183</ele>
        <time>2020-07-07T07:31:58.000Z</time>
      </trkpt>
      <trkpt lat="44.39577" lon="6.38643">
        <ele>2184</ele>
        <time>2020-07-07T07:31:59.000Z</time>
      </trkpt>
      <trkpt lat="44.39578" lon="6.38643">
        <ele>2184</ele>
        <time>2020-07-07T07:32:00.000Z</time>
      </trkpt>
      <trkpt lat="44.39579" lon="6.38643">
        <ele>2184</ele>
        <time>2020-07-07T07:32:01.000Z</time>
      </trkpt>
      <trkpt lat="44.3958" lon="6.38642">
        <ele>2184</ele>
        <time>2020-07-07T07:32:02.000Z</time>
      </trkpt>
      <trkpt lat="44.3958" lon="6.38642">
        <ele>2184</ele>
        <time>2020-07-07T07:32:03.000Z</time>
      </trkpt>
      <trkpt lat="44.3958" lon="6.38642">
        <ele>2183</ele>
        <time>2020-07-07T07:32:04.000Z</time>
      </trkpt>
      <trkpt lat="44.39581" lon="6.38642">
        <ele>2183</ele>
        <time>2020-07-07T07:32:05.000Z</time>
      </trkpt>
      <trkpt lat="44.39582" lon="6.38642">
        <ele>2183</ele>
        <time>2020-07-07T07:32:06.000Z</time>
      </trkpt>
      <trkpt lat="44.39583" lon="6.38642">
        <ele>2183</ele>
        <time>2020-07-07T07:32:07.000Z</time>
      </trkpt>
      <trkpt lat="44.39584" lon="6.38642">
        <ele>2183</ele>
        <time>2020-07-07T07:32:08.000Z</time>
      </trkpt>
      <trkpt lat="44.39585" lon="6.38641">
        <ele>2183</ele>
        <time>2020-07-07T07:32:09.000Z</time>
      </trkpt>
      <trkpt lat="44.39586" lon="6.3864">
        <ele>2183</ele>
        <time>2020-07-07T07:32:10.000Z</time>
      </trkpt>
      <trkpt lat="44.39586" lon="6.38639">
        <ele>2183</ele>
        <time>2020-07-07T07:32:11.000Z</time>
      </trkpt>
      <trkpt lat="44.39587" lon="6.38639">
        <ele>2183</ele>
        <time>2020-07-07T07:32:12.000Z</time>
      </trkpt>
      <trkpt lat="44.39588" lon="6.38638">
        <ele>2183</ele>
        <time>2020-07-07T07:32:13.000Z</time>
      </trkpt>
      <trkpt lat="44.39588" lon="6.38636">
        <ele>2183</ele>
        <time>2020-07-07T07:32:14.000Z</time>
      </trkpt>
      <trkpt lat="44.39589" lon="6.38635">
        <ele>2183</ele>
        <time>2020-07-07T07:32:15.000Z</time>
      </trkpt>
      <trkpt lat="44.3959" lon="6.38634">
        <ele>2183</ele>
        <time>2020-07-07T07:32:16.000Z</time>
      </trkpt>
      <trkpt lat="44.39591" lon="6.38633">
        <ele>2183</ele>
        <time>2020-07-07T07:32:17.000Z</time>
      </trkpt>
      <trkpt lat="44.39591" lon="6.38632">
        <ele>2183</ele>
        <time>2020-07-07T07:32:18.000Z</time>
      </trkpt>
      <trkpt lat="44.39592" lon="6.38632">
        <ele>2183</ele>
        <time>2020-07-07T07:32:19.000Z</time>
      </trkpt>
      <trkpt lat="44.39594" lon="6.38631">
        <ele>2183</ele>
        <time>2020-07-07T07:32:20.000Z</time>
      </trkpt>
      <trkpt lat="44.39595" lon="6.38631">
        <ele>2183</ele>
        <time>2020-07-07T07:32:21.000Z</time>
      </trkpt>
      <trkpt lat="44.39595" lon="6.38631">
        <ele>2183</ele>
        <time>2020-07-07T07:32:22.000Z</time>
      </trkpt>
      <trkpt lat="44.39596" lon="6.3863">
        <ele>2183</ele>
        <time>2020-07-07T07:32:23.000Z</time>
      </trkpt>
      <trkpt lat="44.39597" lon="6.3863">
        <ele>2184</ele>
        <time>2020-07-07T07:32:24.000Z</time>
      </trkpt>
      <trkpt lat="44.39598" lon="6.38629">
        <ele>2184</ele>
        <time>2020-07-07T07:32:25.000Z</time>
      </trkpt>
      <trkpt lat="44.39599" lon="6.38629">
        <ele>2184</ele>
        <time>2020-07-07T07:32:26.000Z</time>
      </trkpt>
      <trkpt lat="44.396" lon="6.38628">
        <ele>2184</ele>
        <time>2020-07-07T07:32:27.000Z</time>
      </trkpt>
      <trkpt lat="44.39601" lon="6.38627">
        <ele>2184</ele>
        <time>2020-07-07T07:32:28.000Z</time>
      </trkpt>
      <trkpt lat="44.39602" lon="6.38627">
        <ele>2184</ele>
        <time>2020-07-07T07:32:29.000Z</time>
      </trkpt>
      <trkpt lat="44.39602" lon="6.38627">
        <ele>2184</ele>
        <time>2020-07-07T07:32:30.000Z</time>
      </trkpt>
      <trkpt lat="44.39603" lon="6.38626">
        <ele>2184</ele>
        <time>2020-07-07T07:32:31.000Z</time>
      </trkpt>
      <trkpt lat="44.39604" lon="6.38625">
        <ele>2184</ele>
        <time>2020-07-07T07:32:32.000Z</time>
      </trkpt>
      <trkpt lat="44.39605" lon="6.38624">
        <ele>2184</ele>
        <time>2020-07-07T07:32:33.000Z</time>
      </trkpt>
      <trkpt lat="44.39606" lon="6.38623">
        <ele>2184</ele>
        <time>2020-07-07T07:32:34.000Z</time>
      </trkpt>
      <trkpt lat="44.39607" lon="6.38622">
        <ele>2184</ele>
        <time>2020-07-07T07:32:35.000Z</time>
      </trkpt>
      <trkpt lat="44.39608" lon="6.38621">
        <ele>2184</ele>
        <time>2020-07-07T07:32:36.000Z</time>
      </trkpt>
      <trkpt lat="44.39608" lon="6.38621">
        <ele>2184</ele>
        <time>2020-07-07T07:32:37.000Z</time>
      </trkpt>
      <trkpt lat="44.39608" lon="6.38621">
        <ele>2184</ele>
        <time>2020-07-07T07:32:38.000Z</time>
      </trkpt>
      <trkpt lat="44.39609" lon="6.3862">
        <ele>2184</ele>
        <time>2020-07-07T07:32:39.000Z</time>
      </trkpt>
      <trkpt lat="44.3961" lon="6.3862">
        <ele>2184</ele>
        <time>2020-07-07T07:32:40.000Z</time>
      </trkpt>
      <trkpt lat="44.39611" lon="6.3862">
        <ele>2184</ele>
        <time>2020-07-07T07:32:41.000Z</time>
      </trkpt>
      <trkpt lat="44.39612" lon="6.38619">
        <ele>2184</ele>
        <time>2020-07-07T07:32:42.000Z</time>
      </trkpt>
      <trkpt lat="44.39613" lon="6.38619">
        <ele>2184</ele>
        <time>2020-07-07T07:32:43.000Z</time>
      </trkpt>
      <trkpt lat="44.39614" lon="6.38619">
        <ele>2185</ele>
        <time>2020-07-07T07:32:44.000Z</time>
      </trkpt>
      <trkpt lat="44.39615" lon="6.38618">
        <ele>2185</ele>
        <time>2020-07-07T07:32:45.000Z</time>
      </trkpt>
      <trkpt lat="44.39617" lon="6.38619">
        <ele>2185</ele>
        <time>2020-07-07T07:32:46.000Z</time>
      </trkpt>
      <trkpt lat="44.39618" lon="6.38618">
        <ele>2185</ele>
        <time>2020-07-07T07:32:47.000Z</time>
      </trkpt>
      <trkpt lat="44.39619" lon="6.38618">
        <ele>2185</ele>
        <time>2020-07-07T07:32:48.000Z</time>
      </trkpt>
      <trkpt lat="44.3962" lon="6.38618">
        <ele>2185</ele>
        <time>2020-07-07T07:32:49.000Z</time>
      </trkpt>
      <trkpt lat="44.39621" lon="6.38618">
        <ele>2185</ele>
        <time>2020-07-07T07:32:50.000Z</time>
      </trkpt>
      <trkpt lat="44.39621" lon="6.38617">
        <ele>2185</ele>
        <time>2020-07-07T07:32:51.000Z</time>
      </trkpt>
      <trkpt lat="44.39622" lon="6.38617">
        <ele>2185</ele>
        <time>2020-07-07T07:32:52.000Z</time>
      </trkpt>
      <trkpt lat="44.39622" lon="6.38616">
        <ele>2185</ele>
        <time>2020-07-07T07:32:53.000Z</time>
      </trkpt>
      <trkpt lat="44.39623" lon="6.38615">
        <ele>2185</ele>
        <time>2020-07-07T07:32:54.000Z</time>
      </trkpt>
      <trkpt lat="44.39623" lon="6.38614">
        <ele>2185</ele>
        <time>2020-07-07T07:32:55.000Z</time>
      </trkpt>
      <trkpt lat="44.39624" lon="6.38613">
        <ele>2185</ele>
        <time>2020-07-07T07:32:56.000Z</time>
      </trkpt>
      <trkpt lat="44.39624" lon="6.38612">
        <ele>2185</ele>
        <time>2020-07-07T07:32:57.000Z</time>
      </trkpt>
      <trkpt lat="44.39625" lon="6.38611">
        <ele>2185</ele>
        <time>2020-07-07T07:32:58.000Z</time>
      </trkpt>
      <trkpt lat="44.39626" lon="6.3861">
        <ele>2185</ele>
        <time>2020-07-07T07:32:59.000Z</time>
      </trkpt>
      <trkpt lat="44.39627" lon="6.38608">
        <ele>2185</ele>
        <time>2020-07-07T07:33:00.000Z</time>
      </trkpt>
      <trkpt lat="44.39627" lon="6.38607">
        <ele>2185</ele>
        <time>2020-07-07T07:33:01.000Z</time>
      </trkpt>
      <trkpt lat="44.39628" lon="6.38606">
        <ele>2185</ele>
        <time>2020-07-07T07:33:02.000Z</time>
      </trkpt>
      <trkpt lat="44.39629" lon="6.38605">
        <ele>2185</ele>
        <time>2020-07-07T07:33:03.000Z</time>
      </trkpt>
      <trkpt lat="44.39629" lon="6.38605">
        <ele>2185</ele>
        <time>2020-07-07T07:33:04.000Z</time>
      </trkpt>
      <trkpt lat="44.39629" lon="6.38604">
        <ele>2185</ele>
        <time>2020-07-07T07:33:05.000Z</time>
      </trkpt>
      <trkpt lat="44.3963" lon="6.38603">
        <ele>2185</ele>
        <time>2020-07-07T07:33:06.000Z</time>
      </trkpt>
      <trkpt lat="44.39631" lon="6.38602">
        <ele>2185</ele>
        <time>2020-07-07T07:33:07.000Z</time>
      </trkpt>
      <trkpt lat="44.39632" lon="6.38601">
        <ele>2185</ele>
        <time>2020-07-07T07:33:08.000Z</time>
      </trkpt>
      <trkpt lat="44.39633" lon="6.386">
        <ele>2185</ele>
        <time>2020-07-07T07:33:09.000Z</time>
      </trkpt>
      <trkpt lat="44.39634" lon="6.38598">
        <ele>2185</ele>
        <time>2020-07-07T07:33:10.000Z</time>
      </trkpt>
      <trkpt lat="44.39634" lon="6.38597">
        <ele>2185</ele>
        <time>2020-07-07T07:33:11.000Z</time>
      </trkpt>
      <trkpt lat="44.39634" lon="6.38596">
        <ele>2185</ele>
        <time>2020-07-07T07:33:12.000Z</time>
      </trkpt>
      <trkpt lat="44.39635" lon="6.38595">
        <ele>2185</ele>
        <time>2020-07-07T07:33:13.000Z</time>
      </trkpt>
      <trkpt lat="44.39635" lon="6.38593">
        <ele>2185</ele>
        <time>2020-07-07T07:33:14.000Z</time>
      </trkpt>
      <trkpt lat="44.39635" lon="6.38592">
        <ele>2185</ele>
        <time>2020-07-07T07:33:15.000Z</time>
      </trkpt>
      <trkpt lat="44.39635" lon="6.38591">
        <ele>2185</ele>
        <time>2020-07-07T07:33:16.000Z</time>
      </trkpt>
      <trkpt lat="44.39635" lon="6.38589">
        <ele>2185</ele>
        <time>2020-07-07T07:33:17.000Z</time>
      </trkpt>
      <trkpt lat="44.39636" lon="6.38588">
        <ele>2185</ele>
        <time>2020-07-07T07:33:18.000Z</time>
      </trkpt>
      <trkpt lat="44.39636" lon="6.38587">
        <ele>2185</ele>
        <time>2020-07-07T07:33:19.000Z</time>
      </trkpt>
      <trkpt lat="44.39636" lon="6.38586">
        <ele>2184</ele>
        <time>2020-07-07T07:33:20.000Z</time>
      </trkpt>
      <trkpt lat="44.39636" lon="6.38584">
        <ele>2185</ele>
        <time>2020-07-07T07:33:21.000Z</time>
      </trkpt>
      <trkpt lat="44.39637" lon="6.38584">
        <ele>2185</ele>
        <time>2020-07-07T07:33:22.000Z</time>
      </trkpt>
      <trkpt lat="44.39638" lon="6.38583">
        <ele>2185</ele>
        <time>2020-07-07T07:33:23.000Z</time>
      </trkpt>
      <trkpt lat="44.39638" lon="6.38582">
        <ele>2185</ele>
        <time>2020-07-07T07:33:24.000Z</time>
      </trkpt>
      <trkpt lat="44.39639" lon="6.38581">
        <ele>2185</ele>
        <time>2020-07-07T07:33:25.000Z</time>
      </trkpt>
      <trkpt lat="44.39639" lon="6.3858">
        <ele>2185</ele>
        <time>2020-07-07T07:33:26.000Z</time>
      </trkpt>
      <trkpt lat="44.3964" lon="6.38579">
        <ele>2185</ele>
        <time>2020-07-07T07:33:27.000Z</time>
      </trkpt>
      <trkpt lat="44.39641" lon="6.38577">
        <ele>2185</ele>
        <time>2020-07-07T07:33:28.000Z</time>
      </trkpt>
      <trkpt lat="44.39641" lon="6.38576">
        <ele>2185</ele>
        <time>2020-07-07T07:33:29.000Z</time>
      </trkpt>
      <trkpt lat="44.39642" lon="6.38575">
        <ele>2186</ele>
        <time>2020-07-07T07:33:30.000Z</time>
      </trkpt>
      <trkpt lat="44.39643" lon="6.38574">
        <ele>2186</ele>
        <time>2020-07-07T07:33:31.000Z</time>
      </trkpt>
      <trkpt lat="44.39644" lon="6.38574">
        <ele>2186</ele>
        <time>2020-07-07T07:33:32.000Z</time>
      </trkpt>
      <trkpt lat="44.39645" lon="6.38573">
        <ele>2186</ele>
        <time>2020-07-07T07:33:33.000Z</time>
      </trkpt>
      <trkpt lat="44.39646" lon="6.38573">
        <ele>2186</ele>
        <time>2020-07-07T07:33:34.000Z</time>
      </trkpt>
      <trkpt lat="44.39647" lon="6.38572">
        <ele>2186</ele>
        <time>2020-07-07T07:33:35.000Z</time>
      </trkpt>
      <trkpt lat="44.39649" lon="6.38572">
        <ele>2186</ele>
        <time>2020-07-07T07:33:36.000Z</time>
      </trkpt>
      <trkpt lat="44.39649" lon="6.38572">
        <ele>2186</ele>
        <time>2020-07-07T07:33:37.000Z</time>
      </trkpt>
      <trkpt lat="44.3965" lon="6.38572">
        <ele>2186</ele>
        <time>2020-07-07T07:33:38.000Z</time>
      </trkpt>
      <trkpt lat="44.39651" lon="6.38572">
        <ele>2187</ele>
        <time>2020-07-07T07:33:39.000Z</time>
      </trkpt>
      <trkpt lat="44.39651" lon="6.38572">
        <ele>2187</ele>
        <time>2020-07-07T07:33:40.000Z</time>
      </trkpt>
      <trkpt lat="44.39652" lon="6.38571">
        <ele>2187</ele>
        <time>2020-07-07T07:33:41.000Z</time>
      </trkpt>
      <trkpt lat="44.39653" lon="6.38571">
        <ele>2187</ele>
        <time>2020-07-07T07:33:42.000Z</time>
      </trkpt>
      <trkpt lat="44.39653" lon="6.38571">
        <ele>2187</ele>
        <time>2020-07-07T07:33:43.000Z</time>
      </trkpt>
      <trkpt lat="44.39654" lon="6.38571">
        <ele>2187</ele>
        <time>2020-07-07T07:33:44.000Z</time>
      </trkpt>
      <trkpt lat="44.39655" lon="6.38571">
        <ele>2187</ele>
        <time>2020-07-07T07:33:45.000Z</time>
      </trkpt>
      <trkpt lat="44.39655" lon="6.38571">
        <ele>2187</ele>
        <time>2020-07-07T07:33:46.000Z</time>
      </trkpt>
      <trkpt lat="44.39656" lon="6.38571">
        <ele>2188</ele>
        <time>2020-07-07T07:33:47.000Z</time>
      </trkpt>
      <trkpt lat="44.39657" lon="6.38571">
        <ele>2188</ele>
        <time>2020-07-07T07:33:48.000Z</time>
      </trkpt>
      <trkpt lat="44.39658" lon="6.38572">
        <ele>2188</ele>
        <time>2020-07-07T07:33:49.000Z</time>
      </trkpt>
      <trkpt lat="44.39659" lon="6.38572">
        <ele>2188</ele>
        <time>2020-07-07T07:33:50.000Z</time>
      </trkpt>
      <trkpt lat="44.3966" lon="6.38572">
        <ele>2188</ele>
        <time>2020-07-07T07:33:51.000Z</time>
      </trkpt>
      <trkpt lat="44.39661" lon="6.38572">
        <ele>2188</ele>
        <time>2020-07-07T07:33:52.000Z</time>
      </trkpt>
      <trkpt lat="44.39662" lon="6.38572">
        <ele>2188</ele>
        <time>2020-07-07T07:33:53.000Z</time>
      </trkpt>
      <trkpt lat="44.39663" lon="6.38572">
        <ele>2189</ele>
        <time>2020-07-07T07:33:54.000Z</time>
      </trkpt>
      <trkpt lat="44.39663" lon="6.38572">
        <ele>2189</ele>
        <time>2020-07-07T07:33:55.000Z</time>
      </trkpt>
      <trkpt lat="44.39664" lon="6.38572">
        <ele>2189</ele>
        <time>2020-07-07T07:33:56.000Z</time>
      </trkpt>
      <trkpt lat="44.39665" lon="6.38572">
        <ele>2189</ele>
        <time>2020-07-07T07:33:57.000Z</time>
      </trkpt>
      <trkpt lat="44.39666" lon="6.38572">
        <ele>2189</ele>
        <time>2020-07-07T07:33:58.000Z</time>
      </trkpt>
      <trkpt lat="44.39666" lon="6.38572">
        <ele>2189</ele>
        <time>2020-07-07T07:33:59.000Z</time>
      </trkpt>
      <trkpt lat="44.39668" lon="6.38571">
        <ele>2190</ele>
        <time>2020-07-07T07:34:00.000Z</time>
      </trkpt>
      <trkpt lat="44.39669" lon="6.38571">
        <ele>2190</ele>
        <time>2020-07-07T07:34:01.000Z</time>
      </trkpt>
      <trkpt lat="44.39669" lon="6.38571">
        <ele>2190</ele>
        <time>2020-07-07T07:34:02.000Z</time>
      </trkpt>
      <trkpt lat="44.39671" lon="6.38571">
        <ele>2190</ele>
        <time>2020-07-07T07:34:03.000Z</time>
      </trkpt>
      <trkpt lat="44.39672" lon="6.3857">
        <ele>2190</ele>
        <time>2020-07-07T07:34:04.000Z</time>
      </trkpt>
      <trkpt lat="44.39673" lon="6.3857">
        <ele>2190</ele>
        <time>2020-07-07T07:34:05.000Z</time>
      </trkpt>
      <trkpt lat="44.39673" lon="6.3857">
        <ele>2191</ele>
        <time>2020-07-07T07:34:06.000Z</time>
      </trkpt>
      <trkpt lat="44.39674" lon="6.38569">
        <ele>2191</ele>
        <time>2020-07-07T07:34:07.000Z</time>
      </trkpt>
      <trkpt lat="44.39675" lon="6.38569">
        <ele>2191</ele>
        <time>2020-07-07T07:34:08.000Z</time>
      </trkpt>
      <trkpt lat="44.39676" lon="6.38568">
        <ele>2191</ele>
        <time>2020-07-07T07:34:09.000Z</time>
      </trkpt>
      <trkpt lat="44.39676" lon="6.38567">
        <ele>2191</ele>
        <time>2020-07-07T07:34:10.000Z</time>
      </trkpt>
      <trkpt lat="44.39677" lon="6.38567">
        <ele>2191</ele>
        <time>2020-07-07T07:34:11.000Z</time>
      </trkpt>
      <trkpt lat="44.39678" lon="6.38567">
        <ele>2191</ele>
        <time>2020-07-07T07:34:12.000Z</time>
      </trkpt>
      <trkpt lat="44.39679" lon="6.38566">
        <ele>2191</ele>
        <time>2020-07-07T07:34:13.000Z</time>
      </trkpt>
      <trkpt lat="44.39679" lon="6.38566">
        <ele>2192</ele>
        <time>2020-07-07T07:34:14.000Z</time>
      </trkpt>
      <trkpt lat="44.3968" lon="6.38565">
        <ele>2192</ele>
        <time>2020-07-07T07:34:15.000Z</time>
      </trkpt>
      <trkpt lat="44.3968" lon="6.38565">
        <ele>2192</ele>
        <time>2020-07-07T07:34:16.000Z</time>
      </trkpt>
      <trkpt lat="44.39681" lon="6.38564">
        <ele>2192</ele>
        <time>2020-07-07T07:34:17.000Z</time>
      </trkpt>
      <trkpt lat="44.39681" lon="6.38563">
        <ele>2192</ele>
        <time>2020-07-07T07:34:18.000Z</time>
      </trkpt>
      <trkpt lat="44.39682" lon="6.38562">
        <ele>2193</ele>
        <time>2020-07-07T07:34:19.000Z</time>
      </trkpt>
      <trkpt lat="44.39683" lon="6.38562">
        <ele>2193</ele>
        <time>2020-07-07T07:34:20.000Z</time>
      </trkpt>
      <trkpt lat="44.39684" lon="6.38561">
        <ele>2193</ele>
        <time>2020-07-07T07:34:21.000Z</time>
      </trkpt>
      <trkpt lat="44.39684" lon="6.3856">
        <ele>2193</ele>
        <time>2020-07-07T07:34:22.000Z</time>
      </trkpt>
      <trkpt lat="44.39685" lon="6.38559">
        <ele>2193</ele>
        <time>2020-07-07T07:34:23.000Z</time>
      </trkpt>
      <trkpt lat="44.39686" lon="6.38558">
        <ele>2193</ele>
        <time>2020-07-07T07:34:24.000Z</time>
      </trkpt>
      <trkpt lat="44.39687" lon="6.38557">
        <ele>2193</ele>
        <time>2020-07-07T07:34:25.000Z</time>
      </trkpt>
      <trkpt lat="44.39688" lon="6.38556">
        <ele>2193</ele>
        <time>2020-07-07T07:34:26.000Z</time>
      </trkpt>
      <trkpt lat="44.39689" lon="6.38555">
        <ele>2193</ele>
        <time>2020-07-07T07:34:27.000Z</time>
      </trkpt>
      <trkpt lat="44.3969" lon="6.38554">
        <ele>2193</ele>
        <time>2020-07-07T07:34:28.000Z</time>
      </trkpt>
      <trkpt lat="44.39691" lon="6.38553">
        <ele>2193</ele>
        <time>2020-07-07T07:34:29.000Z</time>
      </trkpt>
      <trkpt lat="44.39692" lon="6.38552">
        <ele>2193</ele>
        <time>2020-07-07T07:34:30.000Z</time>
      </trkpt>
      <trkpt lat="44.39693" lon="6.38551">
        <ele>2193</ele>
        <time>2020-07-07T07:34:31.000Z</time>
      </trkpt>
      <trkpt lat="44.39693" lon="6.3855">
        <ele>2193</ele>
        <time>2020-07-07T07:34:32.000Z</time>
      </trkpt>
      <trkpt lat="44.39694" lon="6.3855">
        <ele>2193</ele>
        <time>2020-07-07T07:34:33.000Z</time>
      </trkpt>
      <trkpt lat="44.39695" lon="6.38549">
        <ele>2193</ele>
        <time>2020-07-07T07:34:34.000Z</time>
      </trkpt>
      <trkpt lat="44.39696" lon="6.38548">
        <ele>2194</ele>
        <time>2020-07-07T07:34:35.000Z</time>
      </trkpt>
      <trkpt lat="44.39696" lon="6.38547">
        <ele>2194</ele>
        <time>2020-07-07T07:34:36.000Z</time>
      </trkpt>
      <trkpt lat="44.39697" lon="6.38546">
        <ele>2194</ele>
        <time>2020-07-07T07:34:37.000Z</time>
      </trkpt>
      <trkpt lat="44.39698" lon="6.38546">
        <ele>2194</ele>
        <time>2020-07-07T07:34:38.000Z</time>
      </trkpt>
      <trkpt lat="44.39698" lon="6.38545">
        <ele>2194</ele>
        <time>2020-07-07T07:34:39.000Z</time>
      </trkpt>
      <trkpt lat="44.39699" lon="6.38544">
        <ele>2194</ele>
        <time>2020-07-07T07:34:40.000Z</time>
      </trkpt>
      <trkpt lat="44.397" lon="6.38543">
        <ele>2194</ele>
        <time>2020-07-07T07:34:41.000Z</time>
      </trkpt>
      <trkpt lat="44.397" lon="6.38542">
        <ele>2194</ele>
        <time>2020-07-07T07:34:42.000Z</time>
      </trkpt>
      <trkpt lat="44.39701" lon="6.38541">
        <ele>2194</ele>
        <time>2020-07-07T07:34:43.000Z</time>
      </trkpt>
      <trkpt lat="44.39701" lon="6.3854">
        <ele>2195</ele>
        <time>2020-07-07T07:34:44.000Z</time>
      </trkpt>
      <trkpt lat="44.39701" lon="6.3854">
        <ele>2195</ele>
        <time>2020-07-07T07:34:45.000Z</time>
      </trkpt>
      <trkpt lat="44.39701" lon="6.38539">
        <ele>2195</ele>
        <time>2020-07-07T07:34:46.000Z</time>
      </trkpt>
      <trkpt lat="44.39701" lon="6.38539">
        <ele>2195</ele>
        <time>2020-07-07T07:34:47.000Z</time>
      </trkpt>
      <trkpt lat="44.39702" lon="6.38539">
        <ele>2195</ele>
        <time>2020-07-07T07:34:48.000Z</time>
      </trkpt>
      <trkpt lat="44.39702" lon="6.38539">
        <ele>2195</ele>
        <time>2020-07-07T07:34:49.000Z</time>
      </trkpt>
      <trkpt lat="44.39702" lon="6.38539">
        <ele>2195</ele>
        <time>2020-07-07T07:34:50.000Z</time>
      </trkpt>
      <trkpt lat="44.39702" lon="6.38539">
        <ele>2195</ele>
        <time>2020-07-07T07:34:51.000Z</time>
      </trkpt>
      <trkpt lat="44.39702" lon="6.38539">
        <ele>2195</ele>
        <time>2020-07-07T07:34:52.000Z</time>
      </trkpt>
      <trkpt lat="44.39702" lon="6.38539">
        <ele>2195</ele>
        <time>2020-07-07T07:34:53.000Z</time>
      </trkpt>
      <trkpt lat="44.39702" lon="6.38539">
        <ele>2195</ele>
        <time>2020-07-07T07:34:54.000Z</time>
      </trkpt>
      <trkpt lat="44.39702" lon="6.38538">
        <ele>2195</ele>
        <time>2020-07-07T07:34:55.000Z</time>
      </trkpt>
      <trkpt lat="44.39702" lon="6.38538">
        <ele>2195</ele>
        <time>2020-07-07T07:34:56.000Z</time>
      </trkpt>
      <trkpt lat="44.39702" lon="6.38538">
        <ele>2195</ele>
        <time>2020-07-07T07:34:57.000Z</time>
      </trkpt>
      <trkpt lat="44.39702" lon="6.38538">
        <ele>2195</ele>
        <time>2020-07-07T07:34:58.000Z</time>
      </trkpt>
      <trkpt lat="44.39703" lon="6.38538">
        <ele>2195</ele>
        <time>2020-07-07T07:34:59.000Z</time>
      </trkpt>
      <trkpt lat="44.39703" lon="6.38537">
        <ele>2195</ele>
        <time>2020-07-07T07:35:00.000Z</time>
      </trkpt>
      <trkpt lat="44.39703" lon="6.38537">
        <ele>2195</ele>
        <time>2020-07-07T07:35:01.000Z</time>
      </trkpt>
      <trkpt lat="44.39703" lon="6.38537">
        <ele>2195</ele>
        <time>2020-07-07T07:35:02.000Z</time>
      </trkpt>
      <trkpt lat="44.39703" lon="6.38537">
        <ele>2195</ele>
        <time>2020-07-07T07:35:03.000Z</time>
      </trkpt>
      <trkpt lat="44.39703" lon="6.38537">
        <ele>2195</ele>
        <time>2020-07-07T07:35:04.000Z</time>
      </trkpt>
      <trkpt lat="44.39702" lon="6.38537">
        <ele>2195</ele>
        <time>2020-07-07T07:35:05.000Z</time>
      </trkpt>
      <trkpt lat="44.39702" lon="6.38537">
        <ele>2195</ele>
        <time>2020-07-07T07:35:06.000Z</time>
      </trkpt>
      <trkpt lat="44.39703" lon="6.38537">
        <ele>2195</ele>
        <time>2020-07-07T07:35:07.000Z</time>
      </trkpt>
      <trkpt lat="44.39703" lon="6.38537">
        <ele>2195</ele>
        <time>2020-07-07T07:35:08.000Z</time>
      </trkpt>
      <trkpt lat="44.39703" lon="6.38537">
        <ele>2195</ele>
        <time>2020-07-07T07:35:09.000Z</time>
      </trkpt>
      <trkpt lat="44.39703" lon="6.38537">
        <ele>2195</ele>
        <time>2020-07-07T07:35:10.000Z</time>
      </trkpt>
      <trkpt lat="44.39703" lon="6.38537">
        <ele>2195</ele>
        <time>2020-07-07T07:35:11.000Z</time>
      </trkpt>
      <trkpt lat="44.39703" lon="6.38537">
        <ele>2195</ele>
        <time>2020-07-07T07:35:12.000Z</time>
      </trkpt>
      <trkpt lat="44.39702" lon="6.38538">
        <ele>2195</ele>
        <time>2020-07-07T07:35:13.000Z</time>
      </trkpt>
      <trkpt lat="44.39702" lon="6.38538">
        <ele>2195</ele>
        <time>2020-07-07T07:35:14.000Z</time>
      </trkpt>
      <trkpt lat="44.39702" lon="6.38538">
        <ele>2195</ele>
        <time>2020-07-07T07:35:15.000Z</time>
      </trkpt>
      <trkpt lat="44.39702" lon="6.38538">
        <ele>2195</ele>
        <time>2020-07-07T07:35:16.000Z</time>
      </trkpt>
      <trkpt lat="44.39702" lon="6.38538">
        <ele>2195</ele>
        <time>2020-07-07T07:35:17.000Z</time>
      </trkpt>
      <trkpt lat="44.39702" lon="6.38538">
        <ele>2195</ele>
        <time>2020-07-07T07:35:18.000Z</time>
      </trkpt>
      <trkpt lat="44.39703" lon="6.38538">
        <ele>2195</ele>
        <time>2020-07-07T07:35:19.000Z</time>
      </trkpt>
      <trkpt lat="44.39703" lon="6.38538">
        <ele>2195</ele>
        <time>2020-07-07T07:35:20.000Z</time>
      </trkpt>
      <trkpt lat="44.39703" lon="6.38539">
        <ele>2195</ele>
        <time>2020-07-07T07:35:21.000Z</time>
      </trkpt>
      <trkpt lat="44.39702" lon="6.38539">
        <ele>2195</ele>
        <time>2020-07-07T07:35:22.000Z</time>
      </trkpt>
      <trkpt lat="44.39702" lon="6.38539">
        <ele>2195</ele>
        <time>2020-07-07T07:35:23.000Z</time>
      </trkpt>
      <trkpt lat="44.39702" lon="6.38539">
        <ele>2196</ele>
        <time>2020-07-07T07:35:24.000Z</time>
      </trkpt>
      <trkpt lat="44.39702" lon="6.38539">
        <ele>2196</ele>
        <time>2020-07-07T07:35:25.000Z</time>
      </trkpt>
      <trkpt lat="44.39702" lon="6.38539">
        <ele>2196</ele>
        <time>2020-07-07T07:35:26.000Z</time>
      </trkpt>
      <trkpt lat="44.39702" lon="6.38539">
        <ele>2196</ele>
        <time>2020-07-07T07:35:27.000Z</time>
      </trkpt>
      <trkpt lat="44.39702" lon="6.38539">
        <ele>2196</ele>
        <time>2020-07-07T07:35:28.000Z</time>
      </trkpt>
      <trkpt lat="44.39702" lon="6.38539">
        <ele>2196</ele>
        <time>2020-07-07T07:35:29.000Z</time>
      </trkpt>
      <trkpt lat="44.39702" lon="6.38539">
        <ele>2196</ele>
        <time>2020-07-07T07:35:30.000Z</time>
      </trkpt>
      <trkpt lat="44.39702" lon="6.38539">
        <ele>2196</ele>
        <time>2020-07-07T07:35:31.000Z</time>
      </trkpt>
      <trkpt lat="44.39702" lon="6.38539">
        <ele>2195</ele>
        <time>2020-07-07T07:35:32.000Z</time>
      </trkpt>
      <trkpt lat="44.39703" lon="6.38539">
        <ele>2195</ele>
        <time>2020-07-07T07:35:33.000Z</time>
      </trkpt>
      <trkpt lat="44.39703" lon="6.38539">
        <ele>2195</ele>
        <time>2020-07-07T07:35:34.000Z</time>
      </trkpt>
      <trkpt lat="44.39704" lon="6.38538">
        <ele>2195</ele>
        <time>2020-07-07T07:35:35.000Z</time>
      </trkpt>
      <trkpt lat="44.39704" lon="6.38538">
        <ele>2195</ele>
        <time>2020-07-07T07:35:36.000Z</time>
      </trkpt>
      <trkpt lat="44.39704" lon="6.38538">
        <ele>2195</ele>
        <time>2020-07-07T07:35:37.000Z</time>
      </trkpt>
      <trkpt lat="44.39705" lon="6.38538">
        <ele>2195</ele>
        <time>2020-07-07T07:35:38.000Z</time>
      </trkpt>
      <trkpt lat="44.39706" lon="6.38538">
        <ele>2195</ele>
        <time>2020-07-07T07:35:39.000Z</time>
      </trkpt>
      <trkpt lat="44.39706" lon="6.38537">
        <ele>2195</ele>
        <time>2020-07-07T07:35:40.000Z</time>
      </trkpt>
      <trkpt lat="44.39706" lon="6.38537">
        <ele>2195</ele>
        <time>2020-07-07T07:35:41.000Z</time>
      </trkpt>
      <trkpt lat="44.39706" lon="6.38537">
        <ele>2195</ele>
        <time>2020-07-07T07:35:42.000Z</time>
      </trkpt>
      <trkpt lat="44.39706" lon="6.38537">
        <ele>2196</ele>
        <time>2020-07-07T07:35:43.000Z</time>
      </trkpt>
      <trkpt lat="44.39706" lon="6.38537">
        <ele>2196</ele>
        <time>2020-07-07T07:35:44.000Z</time>
      </trkpt>
      <trkpt lat="44.39706" lon="6.38537">
        <ele>2196</ele>
        <time>2020-07-07T07:35:45.000Z</time>
      </trkpt>
      <trkpt lat="44.39707" lon="6.38537">
        <ele>2196</ele>
        <time>2020-07-07T07:35:46.000Z</time>
      </trkpt>
      <trkpt lat="44.39708" lon="6.38537">
        <ele>2196</ele>
        <time>2020-07-07T07:35:47.000Z</time>
      </trkpt>
      <trkpt lat="44.39708" lon="6.38537">
        <ele>2196</ele>
        <time>2020-07-07T07:35:48.000Z</time>
      </trkpt>
      <trkpt lat="44.39708" lon="6.38537">
        <ele>2196</ele>
        <time>2020-07-07T07:35:49.000Z</time>
      </trkpt>
      <trkpt lat="44.39708" lon="6.38537">
        <ele>2196</ele>
        <time>2020-07-07T07:35:50.000Z</time>
      </trkpt>
      <trkpt lat="44.39708" lon="6.38537">
        <ele>2196</ele>
        <time>2020-07-07T07:35:51.000Z</time>
      </trkpt>
      <trkpt lat="44.39708" lon="6.38537">
        <ele>2196</ele>
        <time>2020-07-07T07:35:52.000Z</time>
      </trkpt>
      <trkpt lat="44.39708" lon="6.38537">
        <ele>2197</ele>
        <time>2020-07-07T07:35:53.000Z</time>
      </trkpt>
      <trkpt lat="44.39708" lon="6.38537">
        <ele>2197</ele>
        <time>2020-07-07T07:35:54.000Z</time>
      </trkpt>
      <trkpt lat="44.39708" lon="6.38537">
        <ele>2197</ele>
        <time>2020-07-07T07:35:55.000Z</time>
      </trkpt>
      <trkpt lat="44.39708" lon="6.38537">
        <ele>2197</ele>
        <time>2020-07-07T07:35:56.000Z</time>
      </trkpt>
      <trkpt lat="44.39708" lon="6.38537">
        <ele>2197</ele>
        <time>2020-07-07T07:35:57.000Z</time>
      </trkpt>
      <trkpt lat="44.39709" lon="6.38537">
        <ele>2197</ele>
        <time>2020-07-07T07:35:58.000Z</time>
      </trkpt>
      <trkpt lat="44.3971" lon="6.38537">
        <ele>2197</ele>
        <time>2020-07-07T07:35:59.000Z</time>
      </trkpt>
      <trkpt lat="44.3971" lon="6.38537">
        <ele>2197</ele>
        <time>2020-07-07T07:36:00.000Z</time>
      </trkpt>
      <trkpt lat="44.39711" lon="6.38536">
        <ele>2198</ele>
        <time>2020-07-07T07:36:01.000Z</time>
      </trkpt>
      <trkpt lat="44.39712" lon="6.38536">
        <ele>2198</ele>
        <time>2020-07-07T07:36:02.000Z</time>
      </trkpt>
      <trkpt lat="44.39713" lon="6.38536">
        <ele>2198</ele>
        <time>2020-07-07T07:36:03.000Z</time>
      </trkpt>
      <trkpt lat="44.39714" lon="6.38536">
        <ele>2198</ele>
        <time>2020-07-07T07:36:04.000Z</time>
      </trkpt>
      <trkpt lat="44.39715" lon="6.38535">
        <ele>2198</ele>
        <time>2020-07-07T07:36:05.000Z</time>
      </trkpt>
      <trkpt lat="44.39716" lon="6.38535">
        <ele>2198</ele>
        <time>2020-07-07T07:36:06.000Z</time>
      </trkpt>
      <trkpt lat="44.39717" lon="6.38535">
        <ele>2198</ele>
        <time>2020-07-07T07:36:07.000Z</time>
      </trkpt>
      <trkpt lat="44.39718" lon="6.38535">
        <ele>2198</ele>
        <time>2020-07-07T07:36:08.000Z</time>
      </trkpt>
      <trkpt lat="44.39719" lon="6.38535">
        <ele>2198</ele>
        <time>2020-07-07T07:36:09.000Z</time>
      </trkpt>
      <trkpt lat="44.3972" lon="6.38535">
        <ele>2198</ele>
        <time>2020-07-07T07:36:10.000Z</time>
      </trkpt>
      <trkpt lat="44.39721" lon="6.38535">
        <ele>2198</ele>
        <time>2020-07-07T07:36:11.000Z</time>
      </trkpt>
      <trkpt lat="44.39722" lon="6.38534">
        <ele>2198</ele>
        <time>2020-07-07T07:36:12.000Z</time>
      </trkpt>
      <trkpt lat="44.39723" lon="6.38534">
        <ele>2198</ele>
        <time>2020-07-07T07:36:13.000Z</time>
      </trkpt>
      <trkpt lat="44.39724" lon="6.38534">
        <ele>2197</ele>
        <time>2020-07-07T07:36:14.000Z</time>
      </trkpt>
      <trkpt lat="44.39725" lon="6.38534">
        <ele>2197</ele>
        <time>2020-07-07T07:36:15.000Z</time>
      </trkpt>
      <trkpt lat="44.39726" lon="6.38534">
        <ele>2198</ele>
        <time>2020-07-07T07:36:16.000Z</time>
      </trkpt>
      <trkpt lat="44.39727" lon="6.38534">
        <ele>2197</ele>
        <time>2020-07-07T07:36:17.000Z</time>
      </trkpt>
      <trkpt lat="44.39728" lon="6.38534">
        <ele>2198</ele>
        <time>2020-07-07T07:36:18.000Z</time>
      </trkpt>
      <trkpt lat="44.39728" lon="6.38534">
        <ele>2198</ele>
        <time>2020-07-07T07:36:19.000Z</time>
      </trkpt>
      <trkpt lat="44.3973" lon="6.38533">
        <ele>2198</ele>
        <time>2020-07-07T07:36:20.000Z</time>
      </trkpt>
      <trkpt lat="44.3973" lon="6.38533">
        <ele>2198</ele>
        <time>2020-07-07T07:36:21.000Z</time>
      </trkpt>
      <trkpt lat="44.39731" lon="6.38533">
        <ele>2198</ele>
        <time>2020-07-07T07:36:22.000Z</time>
      </trkpt>
      <trkpt lat="44.39731" lon="6.38533">
        <ele>2198</ele>
        <time>2020-07-07T07:36:23.000Z</time>
      </trkpt>
      <trkpt lat="44.39732" lon="6.38532">
        <ele>2199</ele>
        <time>2020-07-07T07:36:24.000Z</time>
      </trkpt>
      <trkpt lat="44.39733" lon="6.38532">
        <ele>2199</ele>
        <time>2020-07-07T07:36:25.000Z</time>
      </trkpt>
      <trkpt lat="44.39733" lon="6.38532">
        <ele>2199</ele>
        <time>2020-07-07T07:36:26.000Z</time>
      </trkpt>
      <trkpt lat="44.39734" lon="6.38531">
        <ele>2199</ele>
        <time>2020-07-07T07:36:27.000Z</time>
      </trkpt>
      <trkpt lat="44.39734" lon="6.38531">
        <ele>2200</ele>
        <time>2020-07-07T07:36:28.000Z</time>
      </trkpt>
      <trkpt lat="44.39735" lon="6.38531">
        <ele>2200</ele>
        <time>2020-07-07T07:36:29.000Z</time>
      </trkpt>
      <trkpt lat="44.39736" lon="6.38531">
        <ele>2200</ele>
        <time>2020-07-07T07:36:30.000Z</time>
      </trkpt>
      <trkpt lat="44.39737" lon="6.3853">
        <ele>2200</ele>
        <time>2020-07-07T07:36:31.000Z</time>
      </trkpt>
      <trkpt lat="44.39738" lon="6.3853">
        <ele>2200</ele>
        <time>2020-07-07T07:36:32.000Z</time>
      </trkpt>
      <trkpt lat="44.39738" lon="6.38529">
        <ele>2200</ele>
        <time>2020-07-07T07:36:33.000Z</time>
      </trkpt>
      <trkpt lat="44.39739" lon="6.38529">
        <ele>2200</ele>
        <time>2020-07-07T07:36:34.000Z</time>
      </trkpt>
      <trkpt lat="44.3974" lon="6.38529">
        <ele>2201</ele>
        <time>2020-07-07T07:36:35.000Z</time>
      </trkpt>
      <trkpt lat="44.3974" lon="6.38529">
        <ele>2201</ele>
        <time>2020-07-07T07:36:36.000Z</time>
      </trkpt>
      <trkpt lat="44.39741" lon="6.38529">
        <ele>2201</ele>
        <time>2020-07-07T07:36:37.000Z</time>
      </trkpt>
      <trkpt lat="44.39742" lon="6.38529">
        <ele>2201</ele>
        <time>2020-07-07T07:36:38.000Z</time>
      </trkpt>
      <trkpt lat="44.39742" lon="6.38529">
        <ele>2201</ele>
        <time>2020-07-07T07:36:39.000Z</time>
      </trkpt>
      <trkpt lat="44.39743" lon="6.38529">
        <ele>2201</ele>
        <time>2020-07-07T07:36:40.000Z</time>
      </trkpt>
      <trkpt lat="44.39743" lon="6.38528">
        <ele>2201</ele>
        <time>2020-07-07T07:36:41.000Z</time>
      </trkpt>
      <trkpt lat="44.39744" lon="6.38528">
        <ele>2201</ele>
        <time>2020-07-07T07:36:42.000Z</time>
      </trkpt>
      <trkpt lat="44.39745" lon="6.38528">
        <ele>2201</ele>
        <time>2020-07-07T07:36:43.000Z</time>
      </trkpt>
      <trkpt lat="44.39746" lon="6.38528">
        <ele>2201</ele>
        <time>2020-07-07T07:36:44.000Z</time>
      </trkpt>
      <trkpt lat="44.39747" lon="6.38528">
        <ele>2201</ele>
        <time>2020-07-07T07:36:45.000Z</time>
      </trkpt>
      <trkpt lat="44.39748" lon="6.38529">
        <ele>2201</ele>
        <time>2020-07-07T07:36:46.000Z</time>
      </trkpt>
      <trkpt lat="44.39749" lon="6.38529">
        <ele>2201</ele>
        <time>2020-07-07T07:36:47.000Z</time>
      </trkpt>
      <trkpt lat="44.3975" lon="6.38529">
        <ele>2201</ele>
        <time>2020-07-07T07:36:48.000Z</time>
      </trkpt>
      <trkpt lat="44.39751" lon="6.38529">
        <ele>2201</ele>
        <time>2020-07-07T07:36:49.000Z</time>
      </trkpt>
      <trkpt lat="44.39752" lon="6.38529">
        <ele>2201</ele>
        <time>2020-07-07T07:36:50.000Z</time>
      </trkpt>
      <trkpt lat="44.39752" lon="6.38529">
        <ele>2202</ele>
        <time>2020-07-07T07:36:51.000Z</time>
      </trkpt>
      <trkpt lat="44.39753" lon="6.38529">
        <ele>2202</ele>
        <time>2020-07-07T07:36:52.000Z</time>
      </trkpt>
      <trkpt lat="44.39754" lon="6.38529">
        <ele>2202</ele>
        <time>2020-07-07T07:36:53.000Z</time>
      </trkpt>
      <trkpt lat="44.39755" lon="6.38529">
        <ele>2202</ele>
        <time>2020-07-07T07:36:54.000Z</time>
      </trkpt>
      <trkpt lat="44.39756" lon="6.38529">
        <ele>2202</ele>
        <time>2020-07-07T07:36:55.000Z</time>
      </trkpt>
      <trkpt lat="44.39757" lon="6.38529">
        <ele>2202</ele>
        <time>2020-07-07T07:36:56.000Z</time>
      </trkpt>
      <trkpt lat="44.39759" lon="6.38529">
        <ele>2202</ele>
        <time>2020-07-07T07:36:57.000Z</time>
      </trkpt>
      <trkpt lat="44.39759" lon="6.38529">
        <ele>2202</ele>
        <time>2020-07-07T07:36:58.000Z</time>
      </trkpt>
      <trkpt lat="44.3976" lon="6.38529">
        <ele>2202</ele>
        <time>2020-07-07T07:36:59.000Z</time>
      </trkpt>
      <trkpt lat="44.39761" lon="6.38529">
        <ele>2202</ele>
        <time>2020-07-07T07:37:00.000Z</time>
      </trkpt>
      <trkpt lat="44.39762" lon="6.38529">
        <ele>2202</ele>
        <time>2020-07-07T07:37:01.000Z</time>
      </trkpt>
      <trkpt lat="44.39763" lon="6.38529">
        <ele>2202</ele>
        <time>2020-07-07T07:37:02.000Z</time>
      </trkpt>
      <trkpt lat="44.39764" lon="6.38528">
        <ele>2202</ele>
        <time>2020-07-07T07:37:03.000Z</time>
      </trkpt>
      <trkpt lat="44.39765" lon="6.38528">
        <ele>2203</ele>
        <time>2020-07-07T07:37:04.000Z</time>
      </trkpt>
      <trkpt lat="44.39766" lon="6.38528">
        <ele>2203</ele>
        <time>2020-07-07T07:37:05.000Z</time>
      </trkpt>
      <trkpt lat="44.39767" lon="6.38527">
        <ele>2203</ele>
        <time>2020-07-07T07:37:06.000Z</time>
      </trkpt>
      <trkpt lat="44.39768" lon="6.38527">
        <ele>2204</ele>
        <time>2020-07-07T07:37:07.000Z</time>
      </trkpt>
      <trkpt lat="44.39769" lon="6.38526">
        <ele>2204</ele>
        <time>2020-07-07T07:37:08.000Z</time>
      </trkpt>
      <trkpt lat="44.39771" lon="6.38526">
        <ele>2204</ele>
        <time>2020-07-07T07:37:09.000Z</time>
      </trkpt>
      <trkpt lat="44.39771" lon="6.38526">
        <ele>2204</ele>
        <time>2020-07-07T07:37:10.000Z</time>
      </trkpt>
      <trkpt lat="44.39773" lon="6.38526">
        <ele>2204</ele>
        <time>2020-07-07T07:37:11.000Z</time>
      </trkpt>
      <trkpt lat="44.39774" lon="6.38526">
        <ele>2204</ele>
        <time>2020-07-07T07:37:12.000Z</time>
      </trkpt>
      <trkpt lat="44.39774" lon="6.38525">
        <ele>2204</ele>
        <time>2020-07-07T07:37:13.000Z</time>
      </trkpt>
      <trkpt lat="44.39776" lon="6.38525">
        <ele>2204</ele>
        <time>2020-07-07T07:37:14.000Z</time>
      </trkpt>
      <trkpt lat="44.39776" lon="6.38525">
        <ele>2205</ele>
        <time>2020-07-07T07:37:15.000Z</time>
      </trkpt>
      <trkpt lat="44.39777" lon="6.38525">
        <ele>2205</ele>
        <time>2020-07-07T07:37:16.000Z</time>
      </trkpt>
      <trkpt lat="44.39778" lon="6.38525">
        <ele>2205</ele>
        <time>2020-07-07T07:37:17.000Z</time>
      </trkpt>
      <trkpt lat="44.39779" lon="6.38525">
        <ele>2205</ele>
        <time>2020-07-07T07:37:18.000Z</time>
      </trkpt>
      <trkpt lat="44.3978" lon="6.38525">
        <ele>2204</ele>
        <time>2020-07-07T07:37:19.000Z</time>
      </trkpt>
      <trkpt lat="44.39782" lon="6.38525">
        <ele>2204</ele>
        <time>2020-07-07T07:37:20.000Z</time>
      </trkpt>
      <trkpt lat="44.39783" lon="6.38525">
        <ele>2204</ele>
        <time>2020-07-07T07:37:21.000Z</time>
      </trkpt>
      <trkpt lat="44.39784" lon="6.38526">
        <ele>2204</ele>
        <time>2020-07-07T07:37:22.000Z</time>
      </trkpt>
      <trkpt lat="44.39785" lon="6.38525">
        <ele>2204</ele>
        <time>2020-07-07T07:37:23.000Z</time>
      </trkpt>
      <trkpt lat="44.39785" lon="6.38525">
        <ele>2204</ele>
        <time>2020-07-07T07:37:24.000Z</time>
      </trkpt>
      <trkpt lat="44.39786" lon="6.38525">
        <ele>2204</ele>
        <time>2020-07-07T07:37:25.000Z</time>
      </trkpt>
      <trkpt lat="44.39787" lon="6.38525">
        <ele>2204</ele>
        <time>2020-07-07T07:37:26.000Z</time>
      </trkpt>
      <trkpt lat="44.39788" lon="6.38525">
        <ele>2204</ele>
        <time>2020-07-07T07:37:27.000Z</time>
      </trkpt>
      <trkpt lat="44.39789" lon="6.38525">
        <ele>2204</ele>
        <time>2020-07-07T07:37:28.000Z</time>
      </trkpt>
      <trkpt lat="44.3979" lon="6.38525">
        <ele>2204</ele>
        <time>2020-07-07T07:37:29.000Z</time>
      </trkpt>
      <trkpt lat="44.39791" lon="6.38525">
        <ele>2204</ele>
        <time>2020-07-07T07:37:30.000Z</time>
      </trkpt>
      <trkpt lat="44.39791" lon="6.38525">
        <ele>2204</ele>
        <time>2020-07-07T07:37:31.000Z</time>
      </trkpt>
      <trkpt lat="44.39793" lon="6.38525">
        <ele>2204</ele>
        <time>2020-07-07T07:37:32.000Z</time>
      </trkpt>
      <trkpt lat="44.39794" lon="6.38525">
        <ele>2204</ele>
        <time>2020-07-07T07:37:33.000Z</time>
      </trkpt>
      <trkpt lat="44.39795" lon="6.38525">
        <ele>2204</ele>
        <time>2020-07-07T07:37:34.000Z</time>
      </trkpt>
      <trkpt lat="44.39796" lon="6.38525">
        <ele>2204</ele>
        <time>2020-07-07T07:37:35.000Z</time>
      </trkpt>
      <trkpt lat="44.39797" lon="6.38524">
        <ele>2205</ele>
        <time>2020-07-07T07:37:36.000Z</time>
      </trkpt>
      <trkpt lat="44.39798" lon="6.38524">
        <ele>2205</ele>
        <time>2020-07-07T07:37:37.000Z</time>
      </trkpt>
      <trkpt lat="44.39799" lon="6.38524">
        <ele>2205</ele>
        <time>2020-07-07T07:37:38.000Z</time>
      </trkpt>
      <trkpt lat="44.398" lon="6.38524">
        <ele>2205</ele>
        <time>2020-07-07T07:37:39.000Z</time>
      </trkpt>
      <trkpt lat="44.39801" lon="6.38524">
        <ele>2205</ele>
        <time>2020-07-07T07:37:40.000Z</time>
      </trkpt>
      <trkpt lat="44.39802" lon="6.38524">
        <ele>2205</ele>
        <time>2020-07-07T07:37:41.000Z</time>
      </trkpt>
      <trkpt lat="44.39803" lon="6.38524">
        <ele>2205</ele>
        <time>2020-07-07T07:37:42.000Z</time>
      </trkpt>
      <trkpt lat="44.39804" lon="6.38524">
        <ele>2205</ele>
        <time>2020-07-07T07:37:43.000Z</time>
      </trkpt>
      <trkpt lat="44.39805" lon="6.38524">
        <ele>2205</ele>
        <time>2020-07-07T07:37:44.000Z</time>
      </trkpt>
      <trkpt lat="44.39806" lon="6.38524">
        <ele>2205</ele>
        <time>2020-07-07T07:37:45.000Z</time>
      </trkpt>
      <trkpt lat="44.39807" lon="6.38523">
        <ele>2205</ele>
        <time>2020-07-07T07:37:46.000Z</time>
      </trkpt>
      <trkpt lat="44.39808" lon="6.38523">
        <ele>2205</ele>
        <time>2020-07-07T07:37:47.000Z</time>
      </trkpt>
      <trkpt lat="44.39808" lon="6.38523">
        <ele>2205</ele>
        <time>2020-07-07T07:37:48.000Z</time>
      </trkpt>
      <trkpt lat="44.39809" lon="6.38523">
        <ele>2205</ele>
        <time>2020-07-07T07:37:49.000Z</time>
      </trkpt>
      <trkpt lat="44.3981" lon="6.38523">
        <ele>2206</ele>
        <time>2020-07-07T07:37:50.000Z</time>
      </trkpt>
      <trkpt lat="44.39811" lon="6.38523">
        <ele>2206</ele>
        <time>2020-07-07T07:37:51.000Z</time>
      </trkpt>
      <trkpt lat="44.39812" lon="6.38522">
        <ele>2206</ele>
        <time>2020-07-07T07:37:52.000Z</time>
      </trkpt>
      <trkpt lat="44.39813" lon="6.38522">
        <ele>2206</ele>
        <time>2020-07-07T07:37:53.000Z</time>
      </trkpt>
      <trkpt lat="44.39814" lon="6.38522">
        <ele>2207</ele>
        <time>2020-07-07T07:37:54.000Z</time>
      </trkpt>
      <trkpt lat="44.39815" lon="6.38522">
        <ele>2207</ele>
        <time>2020-07-07T07:37:55.000Z</time>
      </trkpt>
      <trkpt lat="44.39816" lon="6.38522">
        <ele>2207</ele>
        <time>2020-07-07T07:37:56.000Z</time>
      </trkpt>
      <trkpt lat="44.39816" lon="6.38522">
        <ele>2208</ele>
        <time>2020-07-07T07:37:57.000Z</time>
      </trkpt>
      <trkpt lat="44.39818" lon="6.38522">
        <ele>2208</ele>
        <time>2020-07-07T07:37:58.000Z</time>
      </trkpt>
      <trkpt lat="44.39819" lon="6.38521">
        <ele>2208</ele>
        <time>2020-07-07T07:37:59.000Z</time>
      </trkpt>
      <trkpt lat="44.39819" lon="6.38522">
        <ele>2208</ele>
        <time>2020-07-07T07:38:00.000Z</time>
      </trkpt>
      <trkpt lat="44.3982" lon="6.38521">
        <ele>2208</ele>
        <time>2020-07-07T07:38:01.000Z</time>
      </trkpt>
      <trkpt lat="44.39821" lon="6.38521">
        <ele>2209</ele>
        <time>2020-07-07T07:38:02.000Z</time>
      </trkpt>
      <trkpt lat="44.39822" lon="6.38521">
        <ele>2209</ele>
        <time>2020-07-07T07:38:03.000Z</time>
      </trkpt>
      <trkpt lat="44.39823" lon="6.38521">
        <ele>2209</ele>
        <time>2020-07-07T07:38:04.000Z</time>
      </trkpt>
      <trkpt lat="44.39823" lon="6.38521">
        <ele>2210</ele>
        <time>2020-07-07T07:38:05.000Z</time>
      </trkpt>
      <trkpt lat="44.39824" lon="6.38521">
        <ele>2210</ele>
        <time>2020-07-07T07:38:06.000Z</time>
      </trkpt>
      <trkpt lat="44.39824" lon="6.38521">
        <ele>2210</ele>
        <time>2020-07-07T07:38:07.000Z</time>
      </trkpt>
      <trkpt lat="44.39825" lon="6.38521">
        <ele>2210</ele>
        <time>2020-07-07T07:38:08.000Z</time>
      </trkpt>
      <trkpt lat="44.39826" lon="6.3852">
        <ele>2211</ele>
        <time>2020-07-07T07:38:09.000Z</time>
      </trkpt>
      <trkpt lat="44.39826" lon="6.3852">
        <ele>2211</ele>
        <time>2020-07-07T07:38:10.000Z</time>
      </trkpt>
      <trkpt lat="44.39827" lon="6.3852">
        <ele>2211</ele>
        <time>2020-07-07T07:38:11.000Z</time>
      </trkpt>
      <trkpt lat="44.39827" lon="6.3852">
        <ele>2212</ele>
        <time>2020-07-07T07:38:12.000Z</time>
      </trkpt>
      <trkpt lat="44.39828" lon="6.3852">
        <ele>2212</ele>
        <time>2020-07-07T07:38:13.000Z</time>
      </trkpt>
      <trkpt lat="44.39829" lon="6.3852">
        <ele>2212</ele>
        <time>2020-07-07T07:38:14.000Z</time>
      </trkpt>
      <trkpt lat="44.3983" lon="6.3852">
        <ele>2212</ele>
        <time>2020-07-07T07:38:15.000Z</time>
      </trkpt>
      <trkpt lat="44.39831" lon="6.38519">
        <ele>2212</ele>
        <time>2020-07-07T07:38:16.000Z</time>
      </trkpt>
      <trkpt lat="44.39832" lon="6.3852">
        <ele>2212</ele>
        <time>2020-07-07T07:38:17.000Z</time>
      </trkpt>
      <trkpt lat="44.39833" lon="6.3852">
        <ele>2213</ele>
        <time>2020-07-07T07:38:18.000Z</time>
      </trkpt>
      <trkpt lat="44.39834" lon="6.3852">
        <ele>2213</ele>
        <time>2020-07-07T07:38:19.000Z</time>
      </trkpt>
      <trkpt lat="44.39835" lon="6.3852">
        <ele>2213</ele>
        <time>2020-07-07T07:38:20.000Z</time>
      </trkpt>
      <trkpt lat="44.39835" lon="6.3852">
        <ele>2213</ele>
        <time>2020-07-07T07:38:21.000Z</time>
      </trkpt>
      <trkpt lat="44.39836" lon="6.3852">
        <ele>2213</ele>
        <time>2020-07-07T07:38:22.000Z</time>
      </trkpt>
      <trkpt lat="44.39837" lon="6.3852">
        <ele>2213</ele>
        <time>2020-07-07T07:38:23.000Z</time>
      </trkpt>
      <trkpt lat="44.39838" lon="6.3852">
        <ele>2213</ele>
        <time>2020-07-07T07:38:24.000Z</time>
      </trkpt>
      <trkpt lat="44.39839" lon="6.3852">
        <ele>2213</ele>
        <time>2020-07-07T07:38:25.000Z</time>
      </trkpt>
      <trkpt lat="44.39841" lon="6.3852">
        <ele>2213</ele>
        <time>2020-07-07T07:38:26.000Z</time>
      </trkpt>
      <trkpt lat="44.39842" lon="6.3852">
        <ele>2213</ele>
        <time>2020-07-07T07:38:27.000Z</time>
      </trkpt>
      <trkpt lat="44.39843" lon="6.3852">
        <ele>2213</ele>
        <time>2020-07-07T07:38:28.000Z</time>
      </trkpt>
      <trkpt lat="44.39844" lon="6.3852">
        <ele>2213</ele>
        <time>2020-07-07T07:38:29.000Z</time>
      </trkpt>
      <trkpt lat="44.39845" lon="6.3852">
        <ele>2213</ele>
        <time>2020-07-07T07:38:30.000Z</time>
      </trkpt>
      <trkpt lat="44.39847" lon="6.3852">
        <ele>2213</ele>
        <time>2020-07-07T07:38:31.000Z</time>
      </trkpt>
      <trkpt lat="44.39848" lon="6.3852">
        <ele>2213</ele>
        <time>2020-07-07T07:38:32.000Z</time>
      </trkpt>
      <trkpt lat="44.39848" lon="6.3852">
        <ele>2213</ele>
        <time>2020-07-07T07:38:33.000Z</time>
      </trkpt>
      <trkpt lat="44.39849" lon="6.3852">
        <ele>2213</ele>
        <time>2020-07-07T07:38:34.000Z</time>
      </trkpt>
      <trkpt lat="44.3985" lon="6.3852">
        <ele>2213</ele>
        <time>2020-07-07T07:38:35.000Z</time>
      </trkpt>
      <trkpt lat="44.39851" lon="6.38521">
        <ele>2213</ele>
        <time>2020-07-07T07:38:36.000Z</time>
      </trkpt>
      <trkpt lat="44.39852" lon="6.3852">
        <ele>2213</ele>
        <time>2020-07-07T07:38:37.000Z</time>
      </trkpt>
      <trkpt lat="44.39853" lon="6.38521">
        <ele>2213</ele>
        <time>2020-07-07T07:38:38.000Z</time>
      </trkpt>
      <trkpt lat="44.39854" lon="6.38521">
        <ele>2214</ele>
        <time>2020-07-07T07:38:39.000Z</time>
      </trkpt>
      <trkpt lat="44.39855" lon="6.38521">
        <ele>2214</ele>
        <time>2020-07-07T07:38:40.000Z</time>
      </trkpt>
      <trkpt lat="44.39856" lon="6.38521">
        <ele>2214</ele>
        <time>2020-07-07T07:38:41.000Z</time>
      </trkpt>
      <trkpt lat="44.39857" lon="6.38521">
        <ele>2214</ele>
        <time>2020-07-07T07:38:42.000Z</time>
      </trkpt>
      <trkpt lat="44.39858" lon="6.38521">
        <ele>2214</ele>
        <time>2020-07-07T07:38:43.000Z</time>
      </trkpt>
      <trkpt lat="44.39859" lon="6.38521">
        <ele>2214</ele>
        <time>2020-07-07T07:38:44.000Z</time>
      </trkpt>
      <trkpt lat="44.3986" lon="6.38521">
        <ele>2214</ele>
        <time>2020-07-07T07:38:45.000Z</time>
      </trkpt>
      <trkpt lat="44.39861" lon="6.38521">
        <ele>2214</ele>
        <time>2020-07-07T07:38:46.000Z</time>
      </trkpt>
      <trkpt lat="44.39862" lon="6.38521">
        <ele>2214</ele>
        <time>2020-07-07T07:38:47.000Z</time>
      </trkpt>
      <trkpt lat="44.39863" lon="6.38521">
        <ele>2214</ele>
        <time>2020-07-07T07:38:48.000Z</time>
      </trkpt>
      <trkpt lat="44.39864" lon="6.38521">
        <ele>2214</ele>
        <time>2020-07-07T07:38:49.000Z</time>
      </trkpt>
      <trkpt lat="44.39865" lon="6.38521">
        <ele>2214</ele>
        <time>2020-07-07T07:38:50.000Z</time>
      </trkpt>
      <trkpt lat="44.39865" lon="6.38521">
        <ele>2215</ele>
        <time>2020-07-07T07:38:51.000Z</time>
      </trkpt>
      <trkpt lat="44.39867" lon="6.38521">
        <ele>2215</ele>
        <time>2020-07-07T07:38:52.000Z</time>
      </trkpt>
      <trkpt lat="44.39868" lon="6.38521">
        <ele>2215</ele>
        <time>2020-07-07T07:38:53.000Z</time>
      </trkpt>
      <trkpt lat="44.39868" lon="6.38522">
        <ele>2215</ele>
        <time>2020-07-07T07:38:54.000Z</time>
      </trkpt>
      <trkpt lat="44.39869" lon="6.38521">
        <ele>2215</ele>
        <time>2020-07-07T07:38:55.000Z</time>
      </trkpt>
      <trkpt lat="44.3987" lon="6.38521">
        <ele>2215</ele>
        <time>2020-07-07T07:38:56.000Z</time>
      </trkpt>
      <trkpt lat="44.39871" lon="6.38521">
        <ele>2215</ele>
        <time>2020-07-07T07:38:57.000Z</time>
      </trkpt>
      <trkpt lat="44.39872" lon="6.38521">
        <ele>2215</ele>
        <time>2020-07-07T07:38:58.000Z</time>
      </trkpt>
      <trkpt lat="44.39872" lon="6.38521">
        <ele>2215</ele>
        <time>2020-07-07T07:38:59.000Z</time>
      </trkpt>
      <trkpt lat="44.39873" lon="6.38521">
        <ele>2215</ele>
        <time>2020-07-07T07:39:00.000Z</time>
      </trkpt>
      <trkpt lat="44.39874" lon="6.3852">
        <ele>2215</ele>
        <time>2020-07-07T07:39:01.000Z</time>
      </trkpt>
      <trkpt lat="44.39875" lon="6.3852">
        <ele>2215</ele>
        <time>2020-07-07T07:39:02.000Z</time>
      </trkpt>
      <trkpt lat="44.39876" lon="6.3852">
        <ele>2215</ele>
        <time>2020-07-07T07:39:03.000Z</time>
      </trkpt>
      <trkpt lat="44.39877" lon="6.38519">
        <ele>2215</ele>
        <time>2020-07-07T07:39:04.000Z</time>
      </trkpt>
      <trkpt lat="44.39878" lon="6.38519">
        <ele>2216</ele>
        <time>2020-07-07T07:39:05.000Z</time>
      </trkpt>
      <trkpt lat="44.39879" lon="6.38518">
        <ele>2216</ele>
        <time>2020-07-07T07:39:06.000Z</time>
      </trkpt>
      <trkpt lat="44.3988" lon="6.38518">
        <ele>2216</ele>
        <time>2020-07-07T07:39:07.000Z</time>
      </trkpt>
      <trkpt lat="44.3988" lon="6.38518">
        <ele>2216</ele>
        <time>2020-07-07T07:39:08.000Z</time>
      </trkpt>
      <trkpt lat="44.39881" lon="6.38517">
        <ele>2216</ele>
        <time>2020-07-07T07:39:09.000Z</time>
      </trkpt>
      <trkpt lat="44.39882" lon="6.38517">
        <ele>2216</ele>
        <time>2020-07-07T07:39:10.000Z</time>
      </trkpt>
      <trkpt lat="44.39883" lon="6.38516">
        <ele>2216</ele>
        <time>2020-07-07T07:39:11.000Z</time>
      </trkpt>
      <trkpt lat="44.39884" lon="6.38516">
        <ele>2216</ele>
        <time>2020-07-07T07:39:12.000Z</time>
      </trkpt>
      <trkpt lat="44.39885" lon="6.38516">
        <ele>2216</ele>
        <time>2020-07-07T07:39:13.000Z</time>
      </trkpt>
      <trkpt lat="44.39885" lon="6.38515">
        <ele>2216</ele>
        <time>2020-07-07T07:39:14.000Z</time>
      </trkpt>
      <trkpt lat="44.39886" lon="6.38515">
        <ele>2217</ele>
        <time>2020-07-07T07:39:15.000Z</time>
      </trkpt>
      <trkpt lat="44.39887" lon="6.38515">
        <ele>2217</ele>
        <time>2020-07-07T07:39:16.000Z</time>
      </trkpt>
      <trkpt lat="44.39887" lon="6.38514">
        <ele>2217</ele>
        <time>2020-07-07T07:39:17.000Z</time>
      </trkpt>
      <trkpt lat="44.39888" lon="6.38514">
        <ele>2217</ele>
        <time>2020-07-07T07:39:18.000Z</time>
      </trkpt>
      <trkpt lat="44.39889" lon="6.38514">
        <ele>2217</ele>
        <time>2020-07-07T07:39:19.000Z</time>
      </trkpt>
      <trkpt lat="44.3989" lon="6.38514">
        <ele>2217</ele>
        <time>2020-07-07T07:39:20.000Z</time>
      </trkpt>
      <trkpt lat="44.3989" lon="6.38514">
        <ele>2218</ele>
        <time>2020-07-07T07:39:21.000Z</time>
      </trkpt>
      <trkpt lat="44.39892" lon="6.38513">
        <ele>2218</ele>
        <time>2020-07-07T07:39:22.000Z</time>
      </trkpt>
      <trkpt lat="44.39892" lon="6.38513">
        <ele>2218</ele>
        <time>2020-07-07T07:39:23.000Z</time>
      </trkpt>
      <trkpt lat="44.39893" lon="6.38513">
        <ele>2218</ele>
        <time>2020-07-07T07:39:24.000Z</time>
      </trkpt>
      <trkpt lat="44.39893" lon="6.38512">
        <ele>2218</ele>
        <time>2020-07-07T07:39:25.000Z</time>
      </trkpt>
      <trkpt lat="44.39894" lon="6.38512">
        <ele>2218</ele>
        <time>2020-07-07T07:39:26.000Z</time>
      </trkpt>
      <trkpt lat="44.39894" lon="6.38512">
        <ele>2218</ele>
        <time>2020-07-07T07:39:27.000Z</time>
      </trkpt>
      <trkpt lat="44.39895" lon="6.38512">
        <ele>2218</ele>
        <time>2020-07-07T07:39:28.000Z</time>
      </trkpt>
      <trkpt lat="44.39896" lon="6.38511">
        <ele>2218</ele>
        <time>2020-07-07T07:39:29.000Z</time>
      </trkpt>
      <trkpt lat="44.39897" lon="6.38511">
        <ele>2219</ele>
        <time>2020-07-07T07:39:30.000Z</time>
      </trkpt>
      <trkpt lat="44.39898" lon="6.38511">
        <ele>2219</ele>
        <time>2020-07-07T07:39:31.000Z</time>
      </trkpt>
      <trkpt lat="44.39898" lon="6.38511">
        <ele>2218</ele>
        <time>2020-07-07T07:39:32.000Z</time>
      </trkpt>
      <trkpt lat="44.39899" lon="6.38511">
        <ele>2218</ele>
        <time>2020-07-07T07:39:33.000Z</time>
      </trkpt>
      <trkpt lat="44.399" lon="6.3851">
        <ele>2219</ele>
        <time>2020-07-07T07:39:34.000Z</time>
      </trkpt>
      <trkpt lat="44.39901" lon="6.3851">
        <ele>2219</ele>
        <time>2020-07-07T07:39:35.000Z</time>
      </trkpt>
      <trkpt lat="44.39902" lon="6.3851">
        <ele>2219</ele>
        <time>2020-07-07T07:39:36.000Z</time>
      </trkpt>
      <trkpt lat="44.39903" lon="6.3851">
        <ele>2219</ele>
        <time>2020-07-07T07:39:37.000Z</time>
      </trkpt>
      <trkpt lat="44.39904" lon="6.38509">
        <ele>2219</ele>
        <time>2020-07-07T07:39:38.000Z</time>
      </trkpt>
      <trkpt lat="44.39904" lon="6.38509">
        <ele>2219</ele>
        <time>2020-07-07T07:39:39.000Z</time>
      </trkpt>
      <trkpt lat="44.39905" lon="6.38509">
        <ele>2220</ele>
        <time>2020-07-07T07:39:40.000Z</time>
      </trkpt>
      <trkpt lat="44.39906" lon="6.38509">
        <ele>2220</ele>
        <time>2020-07-07T07:39:41.000Z</time>
      </trkpt>
      <trkpt lat="44.39907" lon="6.38509">
        <ele>2220</ele>
        <time>2020-07-07T07:39:42.000Z</time>
      </trkpt>
      <trkpt lat="44.39908" lon="6.38508">
        <ele>2220</ele>
        <time>2020-07-07T07:39:43.000Z</time>
      </trkpt>
      <trkpt lat="44.39909" lon="6.38508">
        <ele>2220</ele>
        <time>2020-07-07T07:39:44.000Z</time>
      </trkpt>
      <trkpt lat="44.3991" lon="6.38508">
        <ele>2220</ele>
        <time>2020-07-07T07:39:45.000Z</time>
      </trkpt>
      <trkpt lat="44.39911" lon="6.38507">
        <ele>2220</ele>
        <time>2020-07-07T07:39:46.000Z</time>
      </trkpt>
      <trkpt lat="44.39912" lon="6.38507">
        <ele>2220</ele>
        <time>2020-07-07T07:39:47.000Z</time>
      </trkpt>
      <trkpt lat="44.39913" lon="6.38507">
        <ele>2220</ele>
        <time>2020-07-07T07:39:48.000Z</time>
      </trkpt>
      <trkpt lat="44.39914" lon="6.38507">
        <ele>2221</ele>
        <time>2020-07-07T07:39:49.000Z</time>
      </trkpt>
      <trkpt lat="44.39915" lon="6.38506">
        <ele>2221</ele>
        <time>2020-07-07T07:39:50.000Z</time>
      </trkpt>
      <trkpt lat="44.39916" lon="6.38506">
        <ele>2221</ele>
        <time>2020-07-07T07:39:51.000Z</time>
      </trkpt>
      <trkpt lat="44.39917" lon="6.38506">
        <ele>2221</ele>
        <time>2020-07-07T07:39:52.000Z</time>
      </trkpt>
      <trkpt lat="44.39918" lon="6.38506">
        <ele>2221</ele>
        <time>2020-07-07T07:39:53.000Z</time>
      </trkpt>
      <trkpt lat="44.39919" lon="6.38506">
        <ele>2221</ele>
        <time>2020-07-07T07:39:54.000Z</time>
      </trkpt>
      <trkpt lat="44.39919" lon="6.38506">
        <ele>2221</ele>
        <time>2020-07-07T07:39:55.000Z</time>
      </trkpt>
      <trkpt lat="44.39921" lon="6.38506">
        <ele>2221</ele>
        <time>2020-07-07T07:39:56.000Z</time>
      </trkpt>
      <trkpt lat="44.39922" lon="6.38506">
        <ele>2222</ele>
        <time>2020-07-07T07:39:57.000Z</time>
      </trkpt>
      <trkpt lat="44.39922" lon="6.38505">
        <ele>2222</ele>
        <time>2020-07-07T07:39:58.000Z</time>
      </trkpt>
      <trkpt lat="44.39923" lon="6.38505">
        <ele>2222</ele>
        <time>2020-07-07T07:39:59.000Z</time>
      </trkpt>
      <trkpt lat="44.39924" lon="6.38505">
        <ele>2222</ele>
        <time>2020-07-07T07:40:00.000Z</time>
      </trkpt>
      <trkpt lat="44.39926" lon="6.38505">
        <ele>2222</ele>
        <time>2020-07-07T07:40:01.000Z</time>
      </trkpt>
      <trkpt lat="44.39926" lon="6.38504">
        <ele>2222</ele>
        <time>2020-07-07T07:40:02.000Z</time>
      </trkpt>
      <trkpt lat="44.39927" lon="6.38504">
        <ele>2222</ele>
        <time>2020-07-07T07:40:03.000Z</time>
      </trkpt>
      <trkpt lat="44.39928" lon="6.38504">
        <ele>2222</ele>
        <time>2020-07-07T07:40:04.000Z</time>
      </trkpt>
      <trkpt lat="44.39929" lon="6.38504">
        <ele>2222</ele>
        <time>2020-07-07T07:40:05.000Z</time>
      </trkpt>
      <trkpt lat="44.3993" lon="6.38504">
        <ele>2222</ele>
        <time>2020-07-07T07:40:06.000Z</time>
      </trkpt>
      <trkpt lat="44.39931" lon="6.38504">
        <ele>2222</ele>
        <time>2020-07-07T07:40:07.000Z</time>
      </trkpt>
      <trkpt lat="44.39932" lon="6.38503">
        <ele>2222</ele>
        <time>2020-07-07T07:40:08.000Z</time>
      </trkpt>
      <trkpt lat="44.39933" lon="6.38503">
        <ele>2222</ele>
        <time>2020-07-07T07:40:09.000Z</time>
      </trkpt>
      <trkpt lat="44.39934" lon="6.38503">
        <ele>2222</ele>
        <time>2020-07-07T07:40:10.000Z</time>
      </trkpt>
      <trkpt lat="44.39934" lon="6.38503">
        <ele>2222</ele>
        <time>2020-07-07T07:40:11.000Z</time>
      </trkpt>
      <trkpt lat="44.39935" lon="6.38503">
        <ele>2222</ele>
        <time>2020-07-07T07:40:12.000Z</time>
      </trkpt>
      <trkpt lat="44.39936" lon="6.38503">
        <ele>2222</ele>
        <time>2020-07-07T07:40:13.000Z</time>
      </trkpt>
      <trkpt lat="44.39937" lon="6.38503">
        <ele>2222</ele>
        <time>2020-07-07T07:40:14.000Z</time>
      </trkpt>
      <trkpt lat="44.39938" lon="6.38502">
        <ele>2222</ele>
        <time>2020-07-07T07:40:15.000Z</time>
      </trkpt>
      <trkpt lat="44.39938" lon="6.38502">
        <ele>2222</ele>
        <time>2020-07-07T07:40:16.000Z</time>
      </trkpt>
      <trkpt lat="44.39939" lon="6.38502">
        <ele>2222</ele>
        <time>2020-07-07T07:40:17.000Z</time>
      </trkpt>
      <trkpt lat="44.3994" lon="6.38501">
        <ele>2222</ele>
        <time>2020-07-07T07:40:18.000Z</time>
      </trkpt>
      <trkpt lat="44.39941" lon="6.38501">
        <ele>2222</ele>
        <time>2020-07-07T07:40:19.000Z</time>
      </trkpt>
      <trkpt lat="44.39941" lon="6.38501">
        <ele>2222</ele>
        <time>2020-07-07T07:40:20.000Z</time>
      </trkpt>
      <trkpt lat="44.39942" lon="6.38501">
        <ele>2222</ele>
        <time>2020-07-07T07:40:21.000Z</time>
      </trkpt>
      <trkpt lat="44.39942" lon="6.385">
        <ele>2223</ele>
        <time>2020-07-07T07:40:22.000Z</time>
      </trkpt>
      <trkpt lat="44.39943" lon="6.385">
        <ele>2223</ele>
        <time>2020-07-07T07:40:23.000Z</time>
      </trkpt>
      <trkpt lat="44.39944" lon="6.385">
        <ele>2223</ele>
        <time>2020-07-07T07:40:24.000Z</time>
      </trkpt>
      <trkpt lat="44.39945" lon="6.385">
        <ele>2223</ele>
        <time>2020-07-07T07:40:25.000Z</time>
      </trkpt>
      <trkpt lat="44.39945" lon="6.38499">
        <ele>2223</ele>
        <time>2020-07-07T07:40:26.000Z</time>
      </trkpt>
      <trkpt lat="44.39946" lon="6.38499">
        <ele>2223</ele>
        <time>2020-07-07T07:40:27.000Z</time>
      </trkpt>
      <trkpt lat="44.39947" lon="6.38499">
        <ele>2223</ele>
        <time>2020-07-07T07:40:28.000Z</time>
      </trkpt>
      <trkpt lat="44.39947" lon="6.38499">
        <ele>2223</ele>
        <time>2020-07-07T07:40:29.000Z</time>
      </trkpt>
      <trkpt lat="44.39948" lon="6.38499">
        <ele>2224</ele>
        <time>2020-07-07T07:40:30.000Z</time>
      </trkpt>
      <trkpt lat="44.39949" lon="6.38498">
        <ele>2224</ele>
        <time>2020-07-07T07:40:31.000Z</time>
      </trkpt>
      <trkpt lat="44.3995" lon="6.38498">
        <ele>2224</ele>
        <time>2020-07-07T07:40:32.000Z</time>
      </trkpt>
      <trkpt lat="44.39951" lon="6.38498">
        <ele>2224</ele>
        <time>2020-07-07T07:40:33.000Z</time>
      </trkpt>
      <trkpt lat="44.39951" lon="6.38497">
        <ele>2224</ele>
        <time>2020-07-07T07:40:34.000Z</time>
      </trkpt>
      <trkpt lat="44.39952" lon="6.38497">
        <ele>2225</ele>
        <time>2020-07-07T07:40:35.000Z</time>
      </trkpt>
      <trkpt lat="44.39953" lon="6.38497">
        <ele>2225</ele>
        <time>2020-07-07T07:40:36.000Z</time>
      </trkpt>
      <trkpt lat="44.39954" lon="6.38496">
        <ele>2225</ele>
        <time>2020-07-07T07:40:37.000Z</time>
      </trkpt>
      <trkpt lat="44.39955" lon="6.38496">
        <ele>2225</ele>
        <time>2020-07-07T07:40:38.000Z</time>
      </trkpt>
      <trkpt lat="44.39955" lon="6.38496">
        <ele>2225</ele>
        <time>2020-07-07T07:40:39.000Z</time>
      </trkpt>
      <trkpt lat="44.39956" lon="6.38496">
        <ele>2225</ele>
        <time>2020-07-07T07:40:40.000Z</time>
      </trkpt>
      <trkpt lat="44.39957" lon="6.38495">
        <ele>2225</ele>
        <time>2020-07-07T07:40:41.000Z</time>
      </trkpt>
      <trkpt lat="44.39958" lon="6.38495">
        <ele>2225</ele>
        <time>2020-07-07T07:40:42.000Z</time>
      </trkpt>
      <trkpt lat="44.39959" lon="6.38495">
        <ele>2226</ele>
        <time>2020-07-07T07:40:43.000Z</time>
      </trkpt>
      <trkpt lat="44.39959" lon="6.38494">
        <ele>2226</ele>
        <time>2020-07-07T07:40:44.000Z</time>
      </trkpt>
      <trkpt lat="44.3996" lon="6.38494">
        <ele>2226</ele>
        <time>2020-07-07T07:40:45.000Z</time>
      </trkpt>
      <trkpt lat="44.3996" lon="6.38494">
        <ele>2226</ele>
        <time>2020-07-07T07:40:46.000Z</time>
      </trkpt>
      <trkpt lat="44.39961" lon="6.38494">
        <ele>2227</ele>
        <time>2020-07-07T07:40:47.000Z</time>
      </trkpt>
      <trkpt lat="44.39962" lon="6.38494">
        <ele>2227</ele>
        <time>2020-07-07T07:40:48.000Z</time>
      </trkpt>
      <trkpt lat="44.39962" lon="6.38493">
        <ele>2227</ele>
        <time>2020-07-07T07:40:49.000Z</time>
      </trkpt>
      <trkpt lat="44.39963" lon="6.38493">
        <ele>2227</ele>
        <time>2020-07-07T07:40:50.000Z</time>
      </trkpt>
      <trkpt lat="44.39964" lon="6.38493">
        <ele>2227</ele>
        <time>2020-07-07T07:40:51.000Z</time>
      </trkpt>
      <trkpt lat="44.39964" lon="6.38493">
        <ele>2227</ele>
        <time>2020-07-07T07:40:52.000Z</time>
      </trkpt>
      <trkpt lat="44.39965" lon="6.38492">
        <ele>2228</ele>
        <time>2020-07-07T07:40:53.000Z</time>
      </trkpt>
      <trkpt lat="44.39966" lon="6.38492">
        <ele>2228</ele>
        <time>2020-07-07T07:40:54.000Z</time>
      </trkpt>
      <trkpt lat="44.39966" lon="6.38492">
        <ele>2228</ele>
        <time>2020-07-07T07:40:55.000Z</time>
      </trkpt>
      <trkpt lat="44.39967" lon="6.38492">
        <ele>2228</ele>
        <time>2020-07-07T07:40:56.000Z</time>
      </trkpt>
      <trkpt lat="44.39968" lon="6.38491">
        <ele>2228</ele>
        <time>2020-07-07T07:40:57.000Z</time>
      </trkpt>
      <trkpt lat="44.39968" lon="6.38491">
        <ele>2228</ele>
        <time>2020-07-07T07:40:58.000Z</time>
      </trkpt>
      <trkpt lat="44.39969" lon="6.38491">
        <ele>2229</ele>
        <time>2020-07-07T07:40:59.000Z</time>
      </trkpt>
      <trkpt lat="44.3997" lon="6.38491">
        <ele>2229</ele>
        <time>2020-07-07T07:41:00.000Z</time>
      </trkpt>
      <trkpt lat="44.39971" lon="6.3849">
        <ele>2229</ele>
        <time>2020-07-07T07:41:01.000Z</time>
      </trkpt>
      <trkpt lat="44.39971" lon="6.3849">
        <ele>2229</ele>
        <time>2020-07-07T07:41:02.000Z</time>
      </trkpt>
      <trkpt lat="44.39972" lon="6.3849">
        <ele>2229</ele>
        <time>2020-07-07T07:41:03.000Z</time>
      </trkpt>
      <trkpt lat="44.39973" lon="6.38489">
        <ele>2230</ele>
        <time>2020-07-07T07:41:04.000Z</time>
      </trkpt>
      <trkpt lat="44.39974" lon="6.38489">
        <ele>2230</ele>
        <time>2020-07-07T07:41:05.000Z</time>
      </trkpt>
      <trkpt lat="44.39975" lon="6.38488">
        <ele>2230</ele>
        <time>2020-07-07T07:41:06.000Z</time>
      </trkpt>
      <trkpt lat="44.39976" lon="6.38488">
        <ele>2230</ele>
        <time>2020-07-07T07:41:07.000Z</time>
      </trkpt>
      <trkpt lat="44.39977" lon="6.38488">
        <ele>2230</ele>
        <time>2020-07-07T07:41:08.000Z</time>
      </trkpt>
      <trkpt lat="44.39978" lon="6.38487">
        <ele>2230</ele>
        <time>2020-07-07T07:41:09.000Z</time>
      </trkpt>
      <trkpt lat="44.39979" lon="6.38487">
        <ele>2231</ele>
        <time>2020-07-07T07:41:10.000Z</time>
      </trkpt>
      <trkpt lat="44.3998" lon="6.38487">
        <ele>2231</ele>
        <time>2020-07-07T07:41:11.000Z</time>
      </trkpt>
      <trkpt lat="44.39981" lon="6.38486">
        <ele>2231</ele>
        <time>2020-07-07T07:41:12.000Z</time>
      </trkpt>
      <trkpt lat="44.39981" lon="6.38486">
        <ele>2231</ele>
        <time>2020-07-07T07:41:13.000Z</time>
      </trkpt>
      <trkpt lat="44.39982" lon="6.38485">
        <ele>2231</ele>
        <time>2020-07-07T07:41:14.000Z</time>
      </trkpt>
      <trkpt lat="44.39983" lon="6.38485">
        <ele>2231</ele>
        <time>2020-07-07T07:41:15.000Z</time>
      </trkpt>
      <trkpt lat="44.39984" lon="6.38485">
        <ele>2231</ele>
        <time>2020-07-07T07:41:16.000Z</time>
      </trkpt>
      <trkpt lat="44.39984" lon="6.38485">
        <ele>2231</ele>
        <time>2020-07-07T07:41:17.000Z</time>
      </trkpt>
      <trkpt lat="44.39985" lon="6.38485">
        <ele>2231</ele>
        <time>2020-07-07T07:41:18.000Z</time>
      </trkpt>
      <trkpt lat="44.39986" lon="6.38485">
        <ele>2231</ele>
        <time>2020-07-07T07:41:19.000Z</time>
      </trkpt>
      <trkpt lat="44.39987" lon="6.38485">
        <ele>2231</ele>
        <time>2020-07-07T07:41:20.000Z</time>
      </trkpt>
      <trkpt lat="44.39988" lon="6.38484">
        <ele>2231</ele>
        <time>2020-07-07T07:41:21.000Z</time>
      </trkpt>
      <trkpt lat="44.39989" lon="6.38484">
        <ele>2231</ele>
        <time>2020-07-07T07:41:22.000Z</time>
      </trkpt>
      <trkpt lat="44.39989" lon="6.38484">
        <ele>2231</ele>
        <time>2020-07-07T07:41:23.000Z</time>
      </trkpt>
      <trkpt lat="44.3999" lon="6.38483">
        <ele>2231</ele>
        <time>2020-07-07T07:41:24.000Z</time>
      </trkpt>
      <trkpt lat="44.39991" lon="6.38483">
        <ele>2231</ele>
        <time>2020-07-07T07:41:25.000Z</time>
      </trkpt>
      <trkpt lat="44.39992" lon="6.38483">
        <ele>2231</ele>
        <time>2020-07-07T07:41:26.000Z</time>
      </trkpt>
      <trkpt lat="44.39993" lon="6.38483">
        <ele>2231</ele>
        <time>2020-07-07T07:41:27.000Z</time>
      </trkpt>
      <trkpt lat="44.39993" lon="6.38483">
        <ele>2231</ele>
        <time>2020-07-07T07:41:28.000Z</time>
      </trkpt>
      <trkpt lat="44.39994" lon="6.38483">
        <ele>2231</ele>
        <time>2020-07-07T07:41:29.000Z</time>
      </trkpt>
      <trkpt lat="44.39995" lon="6.38482">
        <ele>2231</ele>
        <time>2020-07-07T07:41:30.000Z</time>
      </trkpt>
      <trkpt lat="44.39996" lon="6.38482">
        <ele>2231</ele>
        <time>2020-07-07T07:41:31.000Z</time>
      </trkpt>
      <trkpt lat="44.39996" lon="6.38482">
        <ele>2232</ele>
        <time>2020-07-07T07:41:32.000Z</time>
      </trkpt>
      <trkpt lat="44.39997" lon="6.38482">
        <ele>2232</ele>
        <time>2020-07-07T07:41:33.000Z</time>
      </trkpt>
      <trkpt lat="44.39998" lon="6.38481">
        <ele>2232</ele>
        <time>2020-07-07T07:41:34.000Z</time>
      </trkpt>
      <trkpt lat="44.39999" lon="6.38481">
        <ele>2232</ele>
        <time>2020-07-07T07:41:35.000Z</time>
      </trkpt>
      <trkpt lat="44.4" lon="6.38481">
        <ele>2232</ele>
        <time>2020-07-07T07:41:36.000Z</time>
      </trkpt>
      <trkpt lat="44.4" lon="6.38481">
        <ele>2232</ele>
        <time>2020-07-07T07:41:37.000Z</time>
      </trkpt>
      <trkpt lat="44.40001" lon="6.38481">
        <ele>2232</ele>
        <time>2020-07-07T07:41:38.000Z</time>
      </trkpt>
      <trkpt lat="44.40002" lon="6.38481">
        <ele>2232</ele>
        <time>2020-07-07T07:41:39.000Z</time>
      </trkpt>
      <trkpt lat="44.40003" lon="6.38481">
        <ele>2232</ele>
        <time>2020-07-07T07:41:40.000Z</time>
      </trkpt>
      <trkpt lat="44.40004" lon="6.38481">
        <ele>2232</ele>
        <time>2020-07-07T07:41:41.000Z</time>
      </trkpt>
      <trkpt lat="44.40005" lon="6.3848">
        <ele>2233</ele>
        <time>2020-07-07T07:41:42.000Z</time>
      </trkpt>
      <trkpt lat="44.40005" lon="6.3848">
        <ele>2233</ele>
        <time>2020-07-07T07:41:43.000Z</time>
      </trkpt>
      <trkpt lat="44.40006" lon="6.3848">
        <ele>2233</ele>
        <time>2020-07-07T07:41:44.000Z</time>
      </trkpt>
      <trkpt lat="44.40007" lon="6.3848">
        <ele>2233</ele>
        <time>2020-07-07T07:41:45.000Z</time>
      </trkpt>
      <trkpt lat="44.40008" lon="6.38479">
        <ele>2233</ele>
        <time>2020-07-07T07:41:46.000Z</time>
      </trkpt>
      <trkpt lat="44.40009" lon="6.38479">
        <ele>2233</ele>
        <time>2020-07-07T07:41:47.000Z</time>
      </trkpt>
      <trkpt lat="44.40009" lon="6.38479">
        <ele>2233</ele>
        <time>2020-07-07T07:41:48.000Z</time>
      </trkpt>
      <trkpt lat="44.4001" lon="6.38479">
        <ele>2233</ele>
        <time>2020-07-07T07:41:49.000Z</time>
      </trkpt>
      <trkpt lat="44.40011" lon="6.38479">
        <ele>2233</ele>
        <time>2020-07-07T07:41:50.000Z</time>
      </trkpt>
      <trkpt lat="44.40012" lon="6.38478">
        <ele>2233</ele>
        <time>2020-07-07T07:41:51.000Z</time>
      </trkpt>
      <trkpt lat="44.40012" lon="6.38478">
        <ele>2233</ele>
        <time>2020-07-07T07:41:52.000Z</time>
      </trkpt>
      <trkpt lat="44.40013" lon="6.38478">
        <ele>2234</ele>
        <time>2020-07-07T07:41:53.000Z</time>
      </trkpt>
      <trkpt lat="44.40013" lon="6.38478">
        <ele>2234</ele>
        <time>2020-07-07T07:41:54.000Z</time>
      </trkpt>
      <trkpt lat="44.40014" lon="6.38478">
        <ele>2234</ele>
        <time>2020-07-07T07:41:55.000Z</time>
      </trkpt>
      <trkpt lat="44.40015" lon="6.38477">
        <ele>2234</ele>
        <time>2020-07-07T07:41:56.000Z</time>
      </trkpt>
      <trkpt lat="44.40016" lon="6.38477">
        <ele>2234</ele>
        <time>2020-07-07T07:41:57.000Z</time>
      </trkpt>
      <trkpt lat="44.40016" lon="6.38477">
        <ele>2234</ele>
        <time>2020-07-07T07:41:58.000Z</time>
      </trkpt>
      <trkpt lat="44.40017" lon="6.38477">
        <ele>2234</ele>
        <time>2020-07-07T07:41:59.000Z</time>
      </trkpt>
      <trkpt lat="44.40018" lon="6.38477">
        <ele>2234</ele>
        <time>2020-07-07T07:42:00.000Z</time>
      </trkpt>
      <trkpt lat="44.40019" lon="6.38476">
        <ele>2234</ele>
        <time>2020-07-07T07:42:01.000Z</time>
      </trkpt>
      <trkpt lat="44.4002" lon="6.38476">
        <ele>2234</ele>
        <time>2020-07-07T07:42:02.000Z</time>
      </trkpt>
      <trkpt lat="44.40021" lon="6.38476">
        <ele>2234</ele>
        <time>2020-07-07T07:42:03.000Z</time>
      </trkpt>
      <trkpt lat="44.40021" lon="6.38475">
        <ele>2235</ele>
        <time>2020-07-07T07:42:04.000Z</time>
      </trkpt>
      <trkpt lat="44.40022" lon="6.38475">
        <ele>2235</ele>
        <time>2020-07-07T07:42:05.000Z</time>
      </trkpt>
      <trkpt lat="44.40023" lon="6.38474">
        <ele>2235</ele>
        <time>2020-07-07T07:42:06.000Z</time>
      </trkpt>
      <trkpt lat="44.40024" lon="6.38474">
        <ele>2235</ele>
        <time>2020-07-07T07:42:07.000Z</time>
      </trkpt>
      <trkpt lat="44.40025" lon="6.38474">
        <ele>2235</ele>
        <time>2020-07-07T07:42:08.000Z</time>
      </trkpt>
      <trkpt lat="44.40026" lon="6.38474">
        <ele>2235</ele>
        <time>2020-07-07T07:42:09.000Z</time>
      </trkpt>
      <trkpt lat="44.40026" lon="6.38474">
        <ele>2235</ele>
        <time>2020-07-07T07:42:10.000Z</time>
      </trkpt>
      <trkpt lat="44.40027" lon="6.38473">
        <ele>2235</ele>
        <time>2020-07-07T07:42:11.000Z</time>
      </trkpt>
      <trkpt lat="44.40027" lon="6.38473">
        <ele>2235</ele>
        <time>2020-07-07T07:42:12.000Z</time>
      </trkpt>
      <trkpt lat="44.40028" lon="6.38474">
        <ele>2235</ele>
        <time>2020-07-07T07:42:13.000Z</time>
      </trkpt>
      <trkpt lat="44.40029" lon="6.38473">
        <ele>2235</ele>
        <time>2020-07-07T07:42:14.000Z</time>
      </trkpt>
      <trkpt lat="44.4003" lon="6.38473">
        <ele>2235</ele>
        <time>2020-07-07T07:42:15.000Z</time>
      </trkpt>
      <trkpt lat="44.40031" lon="6.38473">
        <ele>2235</ele>
        <time>2020-07-07T07:42:16.000Z</time>
      </trkpt>
      <trkpt lat="44.40031" lon="6.38473">
        <ele>2235</ele>
        <time>2020-07-07T07:42:17.000Z</time>
      </trkpt>
      <trkpt lat="44.40032" lon="6.38473">
        <ele>2235</ele>
        <time>2020-07-07T07:42:18.000Z</time>
      </trkpt>
      <trkpt lat="44.40032" lon="6.38473">
        <ele>2235</ele>
        <time>2020-07-07T07:42:19.000Z</time>
      </trkpt>
      <trkpt lat="44.40033" lon="6.38473">
        <ele>2235</ele>
        <time>2020-07-07T07:42:20.000Z</time>
      </trkpt>
      <trkpt lat="44.40034" lon="6.38473">
        <ele>2235</ele>
        <time>2020-07-07T07:42:21.000Z</time>
      </trkpt>
      <trkpt lat="44.40034" lon="6.38473">
        <ele>2235</ele>
        <time>2020-07-07T07:42:22.000Z</time>
      </trkpt>
      <trkpt lat="44.40035" lon="6.38472">
        <ele>2235</ele>
        <time>2020-07-07T07:42:23.000Z</time>
      </trkpt>
      <trkpt lat="44.40036" lon="6.38472">
        <ele>2235</ele>
        <time>2020-07-07T07:42:24.000Z</time>
      </trkpt>
      <trkpt lat="44.40037" lon="6.38472">
        <ele>2236</ele>
        <time>2020-07-07T07:42:25.000Z</time>
      </trkpt>
      <trkpt lat="44.40038" lon="6.38472">
        <ele>2236</ele>
        <time>2020-07-07T07:42:26.000Z</time>
      </trkpt>
      <trkpt lat="44.40039" lon="6.38471">
        <ele>2236</ele>
        <time>2020-07-07T07:42:27.000Z</time>
      </trkpt>
      <trkpt lat="44.4004" lon="6.38471">
        <ele>2236</ele>
        <time>2020-07-07T07:42:28.000Z</time>
      </trkpt>
      <trkpt lat="44.40041" lon="6.3847">
        <ele>2236</ele>
        <time>2020-07-07T07:42:29.000Z</time>
      </trkpt>
      <trkpt lat="44.40042" lon="6.3847">
        <ele>2236</ele>
        <time>2020-07-07T07:42:30.000Z</time>
      </trkpt>
      <trkpt lat="44.40042" lon="6.3847">
        <ele>2236</ele>
        <time>2020-07-07T07:42:31.000Z</time>
      </trkpt>
      <trkpt lat="44.40043" lon="6.3847">
        <ele>2236</ele>
        <time>2020-07-07T07:42:32.000Z</time>
      </trkpt>
      <trkpt lat="44.40045" lon="6.3847">
        <ele>2236</ele>
        <time>2020-07-07T07:42:33.000Z</time>
      </trkpt>
      <trkpt lat="44.40045" lon="6.3847">
        <ele>2236</ele>
        <time>2020-07-07T07:42:34.000Z</time>
      </trkpt>
      <trkpt lat="44.40046" lon="6.3847">
        <ele>2236</ele>
        <time>2020-07-07T07:42:35.000Z</time>
      </trkpt>
      <trkpt lat="44.40046" lon="6.3847">
        <ele>2236</ele>
        <time>2020-07-07T07:42:36.000Z</time>
      </trkpt>
      <trkpt lat="44.40047" lon="6.38469">
        <ele>2236</ele>
        <time>2020-07-07T07:42:37.000Z</time>
      </trkpt>
      <trkpt lat="44.40048" lon="6.38469">
        <ele>2236</ele>
        <time>2020-07-07T07:42:38.000Z</time>
      </trkpt>
      <trkpt lat="44.40048" lon="6.38469">
        <ele>2236</ele>
        <time>2020-07-07T07:42:39.000Z</time>
      </trkpt>
      <trkpt lat="44.40048" lon="6.38469">
        <ele>2236</ele>
        <time>2020-07-07T07:42:40.000Z</time>
      </trkpt>
      <trkpt lat="44.40049" lon="6.38469">
        <ele>2236</ele>
        <time>2020-07-07T07:42:41.000Z</time>
      </trkpt>
      <trkpt lat="44.4005" lon="6.38469">
        <ele>2236</ele>
        <time>2020-07-07T07:42:42.000Z</time>
      </trkpt>
      <trkpt lat="44.40051" lon="6.38469">
        <ele>2236</ele>
        <time>2020-07-07T07:42:43.000Z</time>
      </trkpt>
      <trkpt lat="44.40051" lon="6.38469">
        <ele>2237</ele>
        <time>2020-07-07T07:42:44.000Z</time>
      </trkpt>
      <trkpt lat="44.40052" lon="6.38469">
        <ele>2237</ele>
        <time>2020-07-07T07:42:45.000Z</time>
      </trkpt>
      <trkpt lat="44.40052" lon="6.38468">
        <ele>2237</ele>
        <time>2020-07-07T07:42:46.000Z</time>
      </trkpt>
      <trkpt lat="44.40053" lon="6.38468">
        <ele>2237</ele>
        <time>2020-07-07T07:42:47.000Z</time>
      </trkpt>
      <trkpt lat="44.40054" lon="6.38468">
        <ele>2237</ele>
        <time>2020-07-07T07:42:48.000Z</time>
      </trkpt>
      <trkpt lat="44.40055" lon="6.38467">
        <ele>2237</ele>
        <time>2020-07-07T07:42:49.000Z</time>
      </trkpt>
      <trkpt lat="44.40055" lon="6.38467">
        <ele>2237</ele>
        <time>2020-07-07T07:42:50.000Z</time>
      </trkpt>
      <trkpt lat="44.40056" lon="6.38467">
        <ele>2237</ele>
        <time>2020-07-07T07:42:51.000Z</time>
      </trkpt>
      <trkpt lat="44.40057" lon="6.38467">
        <ele>2237</ele>
        <time>2020-07-07T07:42:52.000Z</time>
      </trkpt>
      <trkpt lat="44.40057" lon="6.38467">
        <ele>2238</ele>
        <time>2020-07-07T07:42:53.000Z</time>
      </trkpt>
      <trkpt lat="44.40058" lon="6.38466">
        <ele>2238</ele>
        <time>2020-07-07T07:42:54.000Z</time>
      </trkpt>
      <trkpt lat="44.40059" lon="6.38466">
        <ele>2238</ele>
        <time>2020-07-07T07:42:55.000Z</time>
      </trkpt>
      <trkpt lat="44.4006" lon="6.38466">
        <ele>2238</ele>
        <time>2020-07-07T07:42:56.000Z</time>
      </trkpt>
      <trkpt lat="44.40061" lon="6.38466">
        <ele>2238</ele>
        <time>2020-07-07T07:42:57.000Z</time>
      </trkpt>
      <trkpt lat="44.40061" lon="6.38466">
        <ele>2238</ele>
        <time>2020-07-07T07:42:58.000Z</time>
      </trkpt>
      <trkpt lat="44.40062" lon="6.38465">
        <ele>2238</ele>
        <time>2020-07-07T07:42:59.000Z</time>
      </trkpt>
      <trkpt lat="44.40063" lon="6.38465">
        <ele>2238</ele>
        <time>2020-07-07T07:43:00.000Z</time>
      </trkpt>
      <trkpt lat="44.40064" lon="6.38465">
        <ele>2238</ele>
        <time>2020-07-07T07:43:01.000Z</time>
      </trkpt>
      <trkpt lat="44.40065" lon="6.38465">
        <ele>2238</ele>
        <time>2020-07-07T07:43:02.000Z</time>
      </trkpt>
      <trkpt lat="44.40065" lon="6.38465">
        <ele>2238</ele>
        <time>2020-07-07T07:43:03.000Z</time>
      </trkpt>
      <trkpt lat="44.40066" lon="6.38464">
        <ele>2238</ele>
        <time>2020-07-07T07:43:04.000Z</time>
      </trkpt>
      <trkpt lat="44.40067" lon="6.38464">
        <ele>2238</ele>
        <time>2020-07-07T07:43:05.000Z</time>
      </trkpt>
      <trkpt lat="44.40068" lon="6.38464">
        <ele>2239</ele>
        <time>2020-07-07T07:43:06.000Z</time>
      </trkpt>
      <trkpt lat="44.40069" lon="6.38464">
        <ele>2239</ele>
        <time>2020-07-07T07:43:07.000Z</time>
      </trkpt>
      <trkpt lat="44.40069" lon="6.38464">
        <ele>2239</ele>
        <time>2020-07-07T07:43:08.000Z</time>
      </trkpt>
      <trkpt lat="44.4007" lon="6.38463">
        <ele>2239</ele>
        <time>2020-07-07T07:43:09.000Z</time>
      </trkpt>
      <trkpt lat="44.40071" lon="6.38463">
        <ele>2239</ele>
        <time>2020-07-07T07:43:10.000Z</time>
      </trkpt>
      <trkpt lat="44.40071" lon="6.38463">
        <ele>2239</ele>
        <time>2020-07-07T07:43:11.000Z</time>
      </trkpt>
      <trkpt lat="44.40071" lon="6.38463">
        <ele>2239</ele>
        <time>2020-07-07T07:43:12.000Z</time>
      </trkpt>
      <trkpt lat="44.40071" lon="6.38463">
        <ele>2239</ele>
        <time>2020-07-07T07:43:13.000Z</time>
      </trkpt>
      <trkpt lat="44.40071" lon="6.38463">
        <ele>2239</ele>
        <time>2020-07-07T07:43:14.000Z</time>
      </trkpt>
      <trkpt lat="44.40071" lon="6.38463">
        <ele>2239</ele>
        <time>2020-07-07T07:43:15.000Z</time>
      </trkpt>
      <trkpt lat="44.40071" lon="6.38463">
        <ele>2239</ele>
        <time>2020-07-07T07:43:16.000Z</time>
      </trkpt>
      <trkpt lat="44.40071" lon="6.38463">
        <ele>2239</ele>
        <time>2020-07-07T07:43:17.000Z</time>
      </trkpt>
      <trkpt lat="44.40071" lon="6.38462">
        <ele>2239</ele>
        <time>2020-07-07T07:43:18.000Z</time>
      </trkpt>
      <trkpt lat="44.40071" lon="6.38462">
        <ele>2239</ele>
        <time>2020-07-07T07:43:19.000Z</time>
      </trkpt>
      <trkpt lat="44.40071" lon="6.38462">
        <ele>2239</ele>
        <time>2020-07-07T07:43:20.000Z</time>
      </trkpt>
      <trkpt lat="44.40072" lon="6.38462">
        <ele>2239</ele>
        <time>2020-07-07T07:43:21.000Z</time>
      </trkpt>
      <trkpt lat="44.40072" lon="6.38462">
        <ele>2240</ele>
        <time>2020-07-07T07:43:22.000Z</time>
      </trkpt>
      <trkpt lat="44.40071" lon="6.38462">
        <ele>2240</ele>
        <time>2020-07-07T07:43:23.000Z</time>
      </trkpt>
      <trkpt lat="44.40071" lon="6.38462">
        <ele>2240</ele>
        <time>2020-07-07T07:43:24.000Z</time>
      </trkpt>
      <trkpt lat="44.40071" lon="6.38461">
        <ele>2240</ele>
        <time>2020-07-07T07:43:25.000Z</time>
      </trkpt>
      <trkpt lat="44.40071" lon="6.38461">
        <ele>2240</ele>
        <time>2020-07-07T07:43:26.000Z</time>
      </trkpt>
      <trkpt lat="44.40071" lon="6.38461">
        <ele>2240</ele>
        <time>2020-07-07T07:43:27.000Z</time>
      </trkpt>
      <trkpt lat="44.40071" lon="6.38461">
        <ele>2240</ele>
        <time>2020-07-07T07:43:28.000Z</time>
      </trkpt>
      <trkpt lat="44.40071" lon="6.38461">
        <ele>2241</ele>
        <time>2020-07-07T07:43:29.000Z</time>
      </trkpt>
      <trkpt lat="44.40071" lon="6.38461">
        <ele>2241</ele>
        <time>2020-07-07T07:43:30.000Z</time>
      </trkpt>
      <trkpt lat="44.40071" lon="6.38461">
        <ele>2241</ele>
        <time>2020-07-07T07:43:31.000Z</time>
      </trkpt>
      <trkpt lat="44.40071" lon="6.38461">
        <ele>2241</ele>
        <time>2020-07-07T07:43:32.000Z</time>
      </trkpt>
      <trkpt lat="44.40071" lon="6.38461">
        <ele>2241</ele>
        <time>2020-07-07T07:43:33.000Z</time>
      </trkpt>
      <trkpt lat="44.40071" lon="6.38461">
        <ele>2241</ele>
        <time>2020-07-07T07:43:34.000Z</time>
      </trkpt>
      <trkpt lat="44.40071" lon="6.38461">
        <ele>2241</ele>
        <time>2020-07-07T07:43:35.000Z</time>
      </trkpt>
      <trkpt lat="44.40071" lon="6.38461">
        <ele>2241</ele>
        <time>2020-07-07T07:43:36.000Z</time>
      </trkpt>
      <trkpt lat="44.40071" lon="6.38461">
        <ele>2241</ele>
        <time>2020-07-07T07:43:37.000Z</time>
      </trkpt>
      <trkpt lat="44.40071" lon="6.3846">
        <ele>2242</ele>
        <time>2020-07-07T07:43:38.000Z</time>
      </trkpt>
      <trkpt lat="44.40071" lon="6.3846">
        <ele>2242</ele>
        <time>2020-07-07T07:43:39.000Z</time>
      </trkpt>
      <trkpt lat="44.40071" lon="6.3846">
        <ele>2242</ele>
        <time>2020-07-07T07:43:40.000Z</time>
      </trkpt>
      <trkpt lat="44.40071" lon="6.3846">
        <ele>2242</ele>
        <time>2020-07-07T07:43:41.000Z</time>
      </trkpt>
      <trkpt lat="44.40072" lon="6.3846">
        <ele>2242</ele>
        <time>2020-07-07T07:43:42.000Z</time>
      </trkpt>
      <trkpt lat="44.40073" lon="6.3846">
        <ele>2242</ele>
        <time>2020-07-07T07:43:43.000Z</time>
      </trkpt>
      <trkpt lat="44.40073" lon="6.38459">
        <ele>2242</ele>
        <time>2020-07-07T07:43:44.000Z</time>
      </trkpt>
      <trkpt lat="44.40073" lon="6.38459">
        <ele>2242</ele>
        <time>2020-07-07T07:43:45.000Z</time>
      </trkpt>
      <trkpt lat="44.40074" lon="6.38459">
        <ele>2242</ele>
        <time>2020-07-07T07:43:46.000Z</time>
      </trkpt>
      <trkpt lat="44.40075" lon="6.38458">
        <ele>2242</ele>
        <time>2020-07-07T07:43:47.000Z</time>
      </trkpt>
      <trkpt lat="44.40076" lon="6.38458">
        <ele>2243</ele>
        <time>2020-07-07T07:43:48.000Z</time>
      </trkpt>
      <trkpt lat="44.40076" lon="6.38458">
        <ele>2243</ele>
        <time>2020-07-07T07:43:49.000Z</time>
      </trkpt>
      <trkpt lat="44.40077" lon="6.38458">
        <ele>2243</ele>
        <time>2020-07-07T07:43:50.000Z</time>
      </trkpt>
      <trkpt lat="44.40078" lon="6.38458">
        <ele>2243</ele>
        <time>2020-07-07T07:43:51.000Z</time>
      </trkpt>
      <trkpt lat="44.40079" lon="6.38457">
        <ele>2243</ele>
        <time>2020-07-07T07:43:52.000Z</time>
      </trkpt>
      <trkpt lat="44.4008" lon="6.38457">
        <ele>2243</ele>
        <time>2020-07-07T07:43:53.000Z</time>
      </trkpt>
      <trkpt lat="44.40081" lon="6.38457">
        <ele>2243</ele>
        <time>2020-07-07T07:43:54.000Z</time>
      </trkpt>
      <trkpt lat="44.40082" lon="6.38457">
        <ele>2243</ele>
        <time>2020-07-07T07:43:55.000Z</time>
      </trkpt>
      <trkpt lat="44.40083" lon="6.38456">
        <ele>2243</ele>
        <time>2020-07-07T07:43:56.000Z</time>
      </trkpt>
      <trkpt lat="44.40084" lon="6.38456">
        <ele>2244</ele>
        <time>2020-07-07T07:43:57.000Z</time>
      </trkpt>
      <trkpt lat="44.40085" lon="6.38456">
        <ele>2244</ele>
        <time>2020-07-07T07:43:58.000Z</time>
      </trkpt>
      <trkpt lat="44.40086" lon="6.38455">
        <ele>2244</ele>
        <time>2020-07-07T07:43:59.000Z</time>
      </trkpt>
      <trkpt lat="44.40086" lon="6.38455">
        <ele>2244</ele>
        <time>2020-07-07T07:44:00.000Z</time>
      </trkpt>
      <trkpt lat="44.40087" lon="6.38455">
        <ele>2244</ele>
        <time>2020-07-07T07:44:01.000Z</time>
      </trkpt>
      <trkpt lat="44.40088" lon="6.38455">
        <ele>2244</ele>
        <time>2020-07-07T07:44:02.000Z</time>
      </trkpt>
      <trkpt lat="44.40089" lon="6.38454">
        <ele>2244</ele>
        <time>2020-07-07T07:44:03.000Z</time>
      </trkpt>
      <trkpt lat="44.4009" lon="6.38454">
        <ele>2244</ele>
        <time>2020-07-07T07:44:04.000Z</time>
      </trkpt>
      <trkpt lat="44.40091" lon="6.38454">
        <ele>2244</ele>
        <time>2020-07-07T07:44:05.000Z</time>
      </trkpt>
      <trkpt lat="44.40091" lon="6.38454">
        <ele>2244</ele>
        <time>2020-07-07T07:44:06.000Z</time>
      </trkpt>
      <trkpt lat="44.40092" lon="6.38454">
        <ele>2245</ele>
        <time>2020-07-07T07:44:07.000Z</time>
      </trkpt>
      <trkpt lat="44.40093" lon="6.38454">
        <ele>2245</ele>
        <time>2020-07-07T07:44:08.000Z</time>
      </trkpt>
      <trkpt lat="44.40093" lon="6.38453">
        <ele>2245</ele>
        <time>2020-07-07T07:44:09.000Z</time>
      </trkpt>
      <trkpt lat="44.40094" lon="6.38453">
        <ele>2245</ele>
        <time>2020-07-07T07:44:10.000Z</time>
      </trkpt>
      <trkpt lat="44.40094" lon="6.38453">
        <ele>2245</ele>
        <time>2020-07-07T07:44:11.000Z</time>
      </trkpt>
      <trkpt lat="44.40095" lon="6.38452">
        <ele>2245</ele>
        <time>2020-07-07T07:44:12.000Z</time>
      </trkpt>
      <trkpt lat="44.40096" lon="6.38452">
        <ele>2245</ele>
        <time>2020-07-07T07:44:13.000Z</time>
      </trkpt>
      <trkpt lat="44.40097" lon="6.38452">
        <ele>2246</ele>
        <time>2020-07-07T07:44:14.000Z</time>
      </trkpt>
      <trkpt lat="44.40098" lon="6.38451">
        <ele>2246</ele>
        <time>2020-07-07T07:44:15.000Z</time>
      </trkpt>
      <trkpt lat="44.40098" lon="6.38451">
        <ele>2246</ele>
        <time>2020-07-07T07:44:16.000Z</time>
      </trkpt>
      <trkpt lat="44.401" lon="6.38451">
        <ele>2246</ele>
        <time>2020-07-07T07:44:17.000Z</time>
      </trkpt>
      <trkpt lat="44.401" lon="6.3845">
        <ele>2246</ele>
        <time>2020-07-07T07:44:18.000Z</time>
      </trkpt>
      <trkpt lat="44.40101" lon="6.3845">
        <ele>2246</ele>
        <time>2020-07-07T07:44:19.000Z</time>
      </trkpt>
      <trkpt lat="44.40102" lon="6.3845">
        <ele>2246</ele>
        <time>2020-07-07T07:44:20.000Z</time>
      </trkpt>
      <trkpt lat="44.40103" lon="6.3845">
        <ele>2246</ele>
        <time>2020-07-07T07:44:21.000Z</time>
      </trkpt>
      <trkpt lat="44.40104" lon="6.3845">
        <ele>2246</ele>
        <time>2020-07-07T07:44:22.000Z</time>
      </trkpt>
      <trkpt lat="44.40105" lon="6.38449">
        <ele>2246</ele>
        <time>2020-07-07T07:44:23.000Z</time>
      </trkpt>
      <trkpt lat="44.40105" lon="6.38449">
        <ele>2246</ele>
        <time>2020-07-07T07:44:24.000Z</time>
      </trkpt>
      <trkpt lat="44.40106" lon="6.38449">
        <ele>2246</ele>
        <time>2020-07-07T07:44:25.000Z</time>
      </trkpt>
      <trkpt lat="44.40107" lon="6.38448">
        <ele>2247</ele>
        <time>2020-07-07T07:44:26.000Z</time>
      </trkpt>
      <trkpt lat="44.40108" lon="6.38448">
        <ele>2247</ele>
        <time>2020-07-07T07:44:27.000Z</time>
      </trkpt>
      <trkpt lat="44.40109" lon="6.38447">
        <ele>2247</ele>
        <time>2020-07-07T07:44:28.000Z</time>
      </trkpt>
      <trkpt lat="44.4011" lon="6.38447">
        <ele>2247</ele>
        <time>2020-07-07T07:44:29.000Z</time>
      </trkpt>
      <trkpt lat="44.4011" lon="6.38447">
        <ele>2248</ele>
        <time>2020-07-07T07:44:30.000Z</time>
      </trkpt>
      <trkpt lat="44.40112" lon="6.38446">
        <ele>2248</ele>
        <time>2020-07-07T07:44:31.000Z</time>
      </trkpt>
      <trkpt lat="44.40113" lon="6.38446">
        <ele>2248</ele>
        <time>2020-07-07T07:44:32.000Z</time>
      </trkpt>
      <trkpt lat="44.40114" lon="6.38446">
        <ele>2248</ele>
        <time>2020-07-07T07:44:33.000Z</time>
      </trkpt>
      <trkpt lat="44.40115" lon="6.38446">
        <ele>2248</ele>
        <time>2020-07-07T07:44:34.000Z</time>
      </trkpt>
      <trkpt lat="44.40116" lon="6.38445">
        <ele>2248</ele>
        <time>2020-07-07T07:44:35.000Z</time>
      </trkpt>
      <trkpt lat="44.40117" lon="6.38445">
        <ele>2248</ele>
        <time>2020-07-07T07:44:36.000Z</time>
      </trkpt>
      <trkpt lat="44.40117" lon="6.38445">
        <ele>2248</ele>
        <time>2020-07-07T07:44:37.000Z</time>
      </trkpt>
      <trkpt lat="44.40118" lon="6.38445">
        <ele>2248</ele>
        <time>2020-07-07T07:44:38.000Z</time>
      </trkpt>
      <trkpt lat="44.40119" lon="6.38444">
        <ele>2248</ele>
        <time>2020-07-07T07:44:39.000Z</time>
      </trkpt>
      <trkpt lat="44.4012" lon="6.38444">
        <ele>2249</ele>
        <time>2020-07-07T07:44:40.000Z</time>
      </trkpt>
      <trkpt lat="44.40121" lon="6.38444">
        <ele>2249</ele>
        <time>2020-07-07T07:44:41.000Z</time>
      </trkpt>
      <trkpt lat="44.40122" lon="6.38444">
        <ele>2249</ele>
        <time>2020-07-07T07:44:42.000Z</time>
      </trkpt>
      <trkpt lat="44.40123" lon="6.38444">
        <ele>2249</ele>
        <time>2020-07-07T07:44:43.000Z</time>
      </trkpt>
      <trkpt lat="44.40124" lon="6.38443">
        <ele>2249</ele>
        <time>2020-07-07T07:44:44.000Z</time>
      </trkpt>
      <trkpt lat="44.40125" lon="6.38443">
        <ele>2249</ele>
        <time>2020-07-07T07:44:45.000Z</time>
      </trkpt>
      <trkpt lat="44.40126" lon="6.38444">
        <ele>2249</ele>
        <time>2020-07-07T07:44:46.000Z</time>
      </trkpt>
      <trkpt lat="44.40127" lon="6.38443">
        <ele>2249</ele>
        <time>2020-07-07T07:44:47.000Z</time>
      </trkpt>
      <trkpt lat="44.40128" lon="6.38443">
        <ele>2249</ele>
        <time>2020-07-07T07:44:48.000Z</time>
      </trkpt>
      <trkpt lat="44.40128" lon="6.38443">
        <ele>2249</ele>
        <time>2020-07-07T07:44:49.000Z</time>
      </trkpt>
      <trkpt lat="44.40129" lon="6.38442">
        <ele>2249</ele>
        <time>2020-07-07T07:44:50.000Z</time>
      </trkpt>
      <trkpt lat="44.4013" lon="6.38442">
        <ele>2249</ele>
        <time>2020-07-07T07:44:51.000Z</time>
      </trkpt>
      <trkpt lat="44.40131" lon="6.38441">
        <ele>2249</ele>
        <time>2020-07-07T07:44:52.000Z</time>
      </trkpt>
      <trkpt lat="44.40132" lon="6.38441">
        <ele>2249</ele>
        <time>2020-07-07T07:44:53.000Z</time>
      </trkpt>
      <trkpt lat="44.40133" lon="6.38441">
        <ele>2250</ele>
        <time>2020-07-07T07:44:54.000Z</time>
      </trkpt>
      <trkpt lat="44.40134" lon="6.38441">
        <ele>2250</ele>
        <time>2020-07-07T07:44:55.000Z</time>
      </trkpt>
      <trkpt lat="44.40135" lon="6.38442">
        <ele>2250</ele>
        <time>2020-07-07T07:44:56.000Z</time>
      </trkpt>
      <trkpt lat="44.40136" lon="6.38442">
        <ele>2250</ele>
        <time>2020-07-07T07:44:57.000Z</time>
      </trkpt>
      <trkpt lat="44.40136" lon="6.38441">
        <ele>2250</ele>
        <time>2020-07-07T07:44:58.000Z</time>
      </trkpt>
      <trkpt lat="44.40137" lon="6.38441">
        <ele>2250</ele>
        <time>2020-07-07T07:44:59.000Z</time>
      </trkpt>
      <trkpt lat="44.40137" lon="6.3844">
        <ele>2250</ele>
        <time>2020-07-07T07:45:00.000Z</time>
      </trkpt>
      <trkpt lat="44.40138" lon="6.3844">
        <ele>2250</ele>
        <time>2020-07-07T07:45:01.000Z</time>
      </trkpt>
      <trkpt lat="44.40139" lon="6.3844">
        <ele>2250</ele>
        <time>2020-07-07T07:45:02.000Z</time>
      </trkpt>
      <trkpt lat="44.4014" lon="6.38439">
        <ele>2250</ele>
        <time>2020-07-07T07:45:03.000Z</time>
      </trkpt>
      <trkpt lat="44.4014" lon="6.38439">
        <ele>2250</ele>
        <time>2020-07-07T07:45:04.000Z</time>
      </trkpt>
      <trkpt lat="44.40141" lon="6.38439">
        <ele>2250</ele>
        <time>2020-07-07T07:45:05.000Z</time>
      </trkpt>
      <trkpt lat="44.40142" lon="6.38438">
        <ele>2251</ele>
        <time>2020-07-07T07:45:06.000Z</time>
      </trkpt>
      <trkpt lat="44.40142" lon="6.38438">
        <ele>2251</ele>
        <time>2020-07-07T07:45:07.000Z</time>
      </trkpt>
      <trkpt lat="44.40143" lon="6.38437">
        <ele>2251</ele>
        <time>2020-07-07T07:45:08.000Z</time>
      </trkpt>
      <trkpt lat="44.40144" lon="6.38437">
        <ele>2251</ele>
        <time>2020-07-07T07:45:09.000Z</time>
      </trkpt>
      <trkpt lat="44.40144" lon="6.38436">
        <ele>2251</ele>
        <time>2020-07-07T07:45:10.000Z</time>
      </trkpt>
      <trkpt lat="44.40145" lon="6.38436">
        <ele>2251</ele>
        <time>2020-07-07T07:45:11.000Z</time>
      </trkpt>
      <trkpt lat="44.40146" lon="6.38436">
        <ele>2251</ele>
        <time>2020-07-07T07:45:12.000Z</time>
      </trkpt>
      <trkpt lat="44.40147" lon="6.38435">
        <ele>2251</ele>
        <time>2020-07-07T07:45:13.000Z</time>
      </trkpt>
      <trkpt lat="44.40148" lon="6.38435">
        <ele>2251</ele>
        <time>2020-07-07T07:45:14.000Z</time>
      </trkpt>
      <trkpt lat="44.40149" lon="6.38435">
        <ele>2251</ele>
        <time>2020-07-07T07:45:15.000Z</time>
      </trkpt>
      <trkpt lat="44.4015" lon="6.38435">
        <ele>2251</ele>
        <time>2020-07-07T07:45:16.000Z</time>
      </trkpt>
      <trkpt lat="44.40151" lon="6.38434">
        <ele>2251</ele>
        <time>2020-07-07T07:45:17.000Z</time>
      </trkpt>
      <trkpt lat="44.40152" lon="6.38434">
        <ele>2251</ele>
        <time>2020-07-07T07:45:18.000Z</time>
      </trkpt>
      <trkpt lat="44.40152" lon="6.38434">
        <ele>2251</ele>
        <time>2020-07-07T07:45:19.000Z</time>
      </trkpt>
      <trkpt lat="44.40153" lon="6.38433">
        <ele>2252</ele>
        <time>2020-07-07T07:45:20.000Z</time>
      </trkpt>
      <trkpt lat="44.40154" lon="6.38433">
        <ele>2252</ele>
        <time>2020-07-07T07:45:21.000Z</time>
      </trkpt>
      <trkpt lat="44.40155" lon="6.38432">
        <ele>2252</ele>
        <time>2020-07-07T07:45:22.000Z</time>
      </trkpt>
      <trkpt lat="44.40155" lon="6.38432">
        <ele>2252</ele>
        <time>2020-07-07T07:45:23.000Z</time>
      </trkpt>
      <trkpt lat="44.40156" lon="6.38432">
        <ele>2252</ele>
        <time>2020-07-07T07:45:24.000Z</time>
      </trkpt>
      <trkpt lat="44.40157" lon="6.38431">
        <ele>2252</ele>
        <time>2020-07-07T07:45:25.000Z</time>
      </trkpt>
      <trkpt lat="44.40157" lon="6.38431">
        <ele>2252</ele>
        <time>2020-07-07T07:45:26.000Z</time>
      </trkpt>
      <trkpt lat="44.40158" lon="6.38431">
        <ele>2252</ele>
        <time>2020-07-07T07:45:27.000Z</time>
      </trkpt>
      <trkpt lat="44.40159" lon="6.3843">
        <ele>2252</ele>
        <time>2020-07-07T07:45:28.000Z</time>
      </trkpt>
      <trkpt lat="44.4016" lon="6.3843">
        <ele>2253</ele>
        <time>2020-07-07T07:45:29.000Z</time>
      </trkpt>
      <trkpt lat="44.4016" lon="6.3843">
        <ele>2253</ele>
        <time>2020-07-07T07:45:30.000Z</time>
      </trkpt>
      <trkpt lat="44.40161" lon="6.3843">
        <ele>2253</ele>
        <time>2020-07-07T07:45:31.000Z</time>
      </trkpt>
      <trkpt lat="44.40162" lon="6.38429">
        <ele>2253</ele>
        <time>2020-07-07T07:45:32.000Z</time>
      </trkpt>
      <trkpt lat="44.40163" lon="6.38429">
        <ele>2253</ele>
        <time>2020-07-07T07:45:33.000Z</time>
      </trkpt>
      <trkpt lat="44.40164" lon="6.38429">
        <ele>2253</ele>
        <time>2020-07-07T07:45:34.000Z</time>
      </trkpt>
      <trkpt lat="44.40165" lon="6.38428">
        <ele>2253</ele>
        <time>2020-07-07T07:45:35.000Z</time>
      </trkpt>
      <trkpt lat="44.40166" lon="6.38428">
        <ele>2253</ele>
        <time>2020-07-07T07:45:36.000Z</time>
      </trkpt>
      <trkpt lat="44.40167" lon="6.38427">
        <ele>2253</ele>
        <time>2020-07-07T07:45:37.000Z</time>
      </trkpt>
      <trkpt lat="44.40167" lon="6.38428">
        <ele>2253</ele>
        <time>2020-07-07T07:45:38.000Z</time>
      </trkpt>
      <trkpt lat="44.40168" lon="6.38428">
        <ele>2253</ele>
        <time>2020-07-07T07:45:39.000Z</time>
      </trkpt>
      <trkpt lat="44.40169" lon="6.38427">
        <ele>2253</ele>
        <time>2020-07-07T07:45:40.000Z</time>
      </trkpt>
      <trkpt lat="44.4017" lon="6.38426">
        <ele>2253</ele>
        <time>2020-07-07T07:45:41.000Z</time>
      </trkpt>
      <trkpt lat="44.40171" lon="6.38426">
        <ele>2253</ele>
        <time>2020-07-07T07:45:42.000Z</time>
      </trkpt>
      <trkpt lat="44.40172" lon="6.38426">
        <ele>2253</ele>
        <time>2020-07-07T07:45:43.000Z</time>
      </trkpt>
      <trkpt lat="44.40172" lon="6.38426">
        <ele>2253</ele>
        <time>2020-07-07T07:45:44.000Z</time>
      </trkpt>
      <trkpt lat="44.40173" lon="6.38425">
        <ele>2253</ele>
        <time>2020-07-07T07:45:45.000Z</time>
      </trkpt>
      <trkpt lat="44.40174" lon="6.38425">
        <ele>2253</ele>
        <time>2020-07-07T07:45:46.000Z</time>
      </trkpt>
      <trkpt lat="44.40174" lon="6.38424">
        <ele>2254</ele>
        <time>2020-07-07T07:45:47.000Z</time>
      </trkpt>
      <trkpt lat="44.40175" lon="6.38424">
        <ele>2253</ele>
        <time>2020-07-07T07:45:48.000Z</time>
      </trkpt>
      <trkpt lat="44.40176" lon="6.38423">
        <ele>2253</ele>
        <time>2020-07-07T07:45:49.000Z</time>
      </trkpt>
      <trkpt lat="44.40177" lon="6.38423">
        <ele>2253</ele>
        <time>2020-07-07T07:45:50.000Z</time>
      </trkpt>
      <trkpt lat="44.40178" lon="6.38422">
        <ele>2253</ele>
        <time>2020-07-07T07:45:51.000Z</time>
      </trkpt>
      <trkpt lat="44.40179" lon="6.38422">
        <ele>2253</ele>
        <time>2020-07-07T07:45:52.000Z</time>
      </trkpt>
      <trkpt lat="44.4018" lon="6.38421">
        <ele>2254</ele>
        <time>2020-07-07T07:45:53.000Z</time>
      </trkpt>
      <trkpt lat="44.40181" lon="6.38422">
        <ele>2253</ele>
        <time>2020-07-07T07:45:54.000Z</time>
      </trkpt>
      <trkpt lat="44.40182" lon="6.38422">
        <ele>2253</ele>
        <time>2020-07-07T07:45:55.000Z</time>
      </trkpt>
      <trkpt lat="44.40182" lon="6.38422">
        <ele>2253</ele>
        <time>2020-07-07T07:45:56.000Z</time>
      </trkpt>
      <trkpt lat="44.40183" lon="6.38422">
        <ele>2253</ele>
        <time>2020-07-07T07:45:57.000Z</time>
      </trkpt>
      <trkpt lat="44.40184" lon="6.38421">
        <ele>2253</ele>
        <time>2020-07-07T07:45:58.000Z</time>
      </trkpt>
      <trkpt lat="44.40185" lon="6.38421">
        <ele>2253</ele>
        <time>2020-07-07T07:45:59.000Z</time>
      </trkpt>
      <trkpt lat="44.40185" lon="6.38421">
        <ele>2253</ele>
        <time>2020-07-07T07:46:00.000Z</time>
      </trkpt>
      <trkpt lat="44.40186" lon="6.3842">
        <ele>2253</ele>
        <time>2020-07-07T07:46:01.000Z</time>
      </trkpt>
      <trkpt lat="44.40187" lon="6.38419">
        <ele>2253</ele>
        <time>2020-07-07T07:46:02.000Z</time>
      </trkpt>
      <trkpt lat="44.40188" lon="6.38419">
        <ele>2253</ele>
        <time>2020-07-07T07:46:03.000Z</time>
      </trkpt>
      <trkpt lat="44.40188" lon="6.38419">
        <ele>2254</ele>
        <time>2020-07-07T07:46:04.000Z</time>
      </trkpt>
      <trkpt lat="44.40189" lon="6.38418">
        <ele>2254</ele>
        <time>2020-07-07T07:46:05.000Z</time>
      </trkpt>
      <trkpt lat="44.4019" lon="6.38418">
        <ele>2254</ele>
        <time>2020-07-07T07:46:06.000Z</time>
      </trkpt>
      <trkpt lat="44.4019" lon="6.38418">
        <ele>2254</ele>
        <time>2020-07-07T07:46:07.000Z</time>
      </trkpt>
      <trkpt lat="44.40191" lon="6.38419">
        <ele>2254</ele>
        <time>2020-07-07T07:46:08.000Z</time>
      </trkpt>
      <trkpt lat="44.40192" lon="6.38419">
        <ele>2254</ele>
        <time>2020-07-07T07:46:09.000Z</time>
      </trkpt>
      <trkpt lat="44.40192" lon="6.38418">
        <ele>2254</ele>
        <time>2020-07-07T07:46:10.000Z</time>
      </trkpt>
      <trkpt lat="44.40193" lon="6.38418">
        <ele>2254</ele>
        <time>2020-07-07T07:46:11.000Z</time>
      </trkpt>
      <trkpt lat="44.40194" lon="6.38418">
        <ele>2254</ele>
        <time>2020-07-07T07:46:12.000Z</time>
      </trkpt>
      <trkpt lat="44.40194" lon="6.38417">
        <ele>2254</ele>
        <time>2020-07-07T07:46:13.000Z</time>
      </trkpt>
      <trkpt lat="44.40195" lon="6.38417">
        <ele>2255</ele>
        <time>2020-07-07T07:46:14.000Z</time>
      </trkpt>
      <trkpt lat="44.40196" lon="6.38417">
        <ele>2255</ele>
        <time>2020-07-07T07:46:15.000Z</time>
      </trkpt>
      <trkpt lat="44.40197" lon="6.38416">
        <ele>2255</ele>
        <time>2020-07-07T07:46:16.000Z</time>
      </trkpt>
      <trkpt lat="44.40198" lon="6.38416">
        <ele>2255</ele>
        <time>2020-07-07T07:46:17.000Z</time>
      </trkpt>
      <trkpt lat="44.40198" lon="6.38415">
        <ele>2255</ele>
        <time>2020-07-07T07:46:18.000Z</time>
      </trkpt>
      <trkpt lat="44.40199" lon="6.38414">
        <ele>2256</ele>
        <time>2020-07-07T07:46:19.000Z</time>
      </trkpt>
      <trkpt lat="44.402" lon="6.38415">
        <ele>2256</ele>
        <time>2020-07-07T07:46:20.000Z</time>
      </trkpt>
      <trkpt lat="44.40201" lon="6.38415">
        <ele>2256</ele>
        <time>2020-07-07T07:46:21.000Z</time>
      </trkpt>
      <trkpt lat="44.40202" lon="6.38414">
        <ele>2256</ele>
        <time>2020-07-07T07:46:22.000Z</time>
      </trkpt>
      <trkpt lat="44.40203" lon="6.38414">
        <ele>2256</ele>
        <time>2020-07-07T07:46:23.000Z</time>
      </trkpt>
      <trkpt lat="44.40204" lon="6.38413">
        <ele>2256</ele>
        <time>2020-07-07T07:46:24.000Z</time>
      </trkpt>
      <trkpt lat="44.40205" lon="6.38413">
        <ele>2256</ele>
        <time>2020-07-07T07:46:25.000Z</time>
      </trkpt>
      <trkpt lat="44.40206" lon="6.38412">
        <ele>2256</ele>
        <time>2020-07-07T07:46:26.000Z</time>
      </trkpt>
      <trkpt lat="44.40207" lon="6.38412">
        <ele>2256</ele>
        <time>2020-07-07T07:46:27.000Z</time>
      </trkpt>
      <trkpt lat="44.40207" lon="6.38412">
        <ele>2256</ele>
        <time>2020-07-07T07:46:28.000Z</time>
      </trkpt>
      <trkpt lat="44.40208" lon="6.38412">
        <ele>2256</ele>
        <time>2020-07-07T07:46:29.000Z</time>
      </trkpt>
      <trkpt lat="44.40209" lon="6.38411">
        <ele>2256</ele>
        <time>2020-07-07T07:46:30.000Z</time>
      </trkpt>
      <trkpt lat="44.4021" lon="6.38411">
        <ele>2256</ele>
        <time>2020-07-07T07:46:31.000Z</time>
      </trkpt>
      <trkpt lat="44.40212" lon="6.38411">
        <ele>2256</ele>
        <time>2020-07-07T07:46:32.000Z</time>
      </trkpt>
      <trkpt lat="44.40213" lon="6.3841">
        <ele>2256</ele>
        <time>2020-07-07T07:46:33.000Z</time>
      </trkpt>
      <trkpt lat="44.40213" lon="6.3841">
        <ele>2256</ele>
        <time>2020-07-07T07:46:34.000Z</time>
      </trkpt>
      <trkpt lat="44.40214" lon="6.3841">
        <ele>2256</ele>
        <time>2020-07-07T07:46:35.000Z</time>
      </trkpt>
      <trkpt lat="44.40215" lon="6.38409">
        <ele>2257</ele>
        <time>2020-07-07T07:46:36.000Z</time>
      </trkpt>
      <trkpt lat="44.40216" lon="6.38409">
        <ele>2257</ele>
        <time>2020-07-07T07:46:37.000Z</time>
      </trkpt>
      <trkpt lat="44.40217" lon="6.38409">
        <ele>2257</ele>
        <time>2020-07-07T07:46:38.000Z</time>
      </trkpt>
      <trkpt lat="44.40217" lon="6.38408">
        <ele>2258</ele>
        <time>2020-07-07T07:46:39.000Z</time>
      </trkpt>
      <trkpt lat="44.40218" lon="6.38408">
        <ele>2258</ele>
        <time>2020-07-07T07:46:40.000Z</time>
      </trkpt>
      <trkpt lat="44.40219" lon="6.38407">
        <ele>2258</ele>
        <time>2020-07-07T07:46:41.000Z</time>
      </trkpt>
      <trkpt lat="44.4022" lon="6.38407">
        <ele>2258</ele>
        <time>2020-07-07T07:46:42.000Z</time>
      </trkpt>
      <trkpt lat="44.40221" lon="6.38406">
        <ele>2259</ele>
        <time>2020-07-07T07:46:43.000Z</time>
      </trkpt>
      <trkpt lat="44.40221" lon="6.38406">
        <ele>2259</ele>
        <time>2020-07-07T07:46:44.000Z</time>
      </trkpt>
      <trkpt lat="44.40222" lon="6.38406">
        <ele>2259</ele>
        <time>2020-07-07T07:46:45.000Z</time>
      </trkpt>
      <trkpt lat="44.40223" lon="6.38405">
        <ele>2260</ele>
        <time>2020-07-07T07:46:46.000Z</time>
      </trkpt>
      <trkpt lat="44.40223" lon="6.38405">
        <ele>2260</ele>
        <time>2020-07-07T07:46:47.000Z</time>
      </trkpt>
      <trkpt lat="44.40224" lon="6.38404">
        <ele>2260</ele>
        <time>2020-07-07T07:46:48.000Z</time>
      </trkpt>
      <trkpt lat="44.40225" lon="6.38404">
        <ele>2260</ele>
        <time>2020-07-07T07:46:49.000Z</time>
      </trkpt>
      <trkpt lat="44.40225" lon="6.38403">
        <ele>2261</ele>
        <time>2020-07-07T07:46:50.000Z</time>
      </trkpt>
      <trkpt lat="44.40226" lon="6.38403">
        <ele>2261</ele>
        <time>2020-07-07T07:46:51.000Z</time>
      </trkpt>
      <trkpt lat="44.40227" lon="6.38402">
        <ele>2261</ele>
        <time>2020-07-07T07:46:52.000Z</time>
      </trkpt>
      <trkpt lat="44.40227" lon="6.38402">
        <ele>2261</ele>
        <time>2020-07-07T07:46:53.000Z</time>
      </trkpt>
      <trkpt lat="44.40228" lon="6.38402">
        <ele>2261</ele>
        <time>2020-07-07T07:46:54.000Z</time>
      </trkpt>
      <trkpt lat="44.40229" lon="6.38401">
        <ele>2261</ele>
        <time>2020-07-07T07:46:55.000Z</time>
      </trkpt>
      <trkpt lat="44.4023" lon="6.38401">
        <ele>2261</ele>
        <time>2020-07-07T07:46:56.000Z</time>
      </trkpt>
      <trkpt lat="44.4023" lon="6.384">
        <ele>2262</ele>
        <time>2020-07-07T07:46:57.000Z</time>
      </trkpt>
      <trkpt lat="44.40231" lon="6.384">
        <ele>2262</ele>
        <time>2020-07-07T07:46:58.000Z</time>
      </trkpt>
      <trkpt lat="44.40231" lon="6.384">
        <ele>2262</ele>
        <time>2020-07-07T07:46:59.000Z</time>
      </trkpt>
      <trkpt lat="44.40232" lon="6.384">
        <ele>2262</ele>
        <time>2020-07-07T07:47:00.000Z</time>
      </trkpt>
      <trkpt lat="44.40233" lon="6.38399">
        <ele>2262</ele>
        <time>2020-07-07T07:47:01.000Z</time>
      </trkpt>
      <trkpt lat="44.40234" lon="6.38398">
        <ele>2262</ele>
        <time>2020-07-07T07:47:02.000Z</time>
      </trkpt>
      <trkpt lat="44.40235" lon="6.38398">
        <ele>2262</ele>
        <time>2020-07-07T07:47:03.000Z</time>
      </trkpt>
      <trkpt lat="44.40236" lon="6.38398">
        <ele>2262</ele>
        <time>2020-07-07T07:47:04.000Z</time>
      </trkpt>
      <trkpt lat="44.40237" lon="6.38398">
        <ele>2262</ele>
        <time>2020-07-07T07:47:05.000Z</time>
      </trkpt>
      <trkpt lat="44.40238" lon="6.38397">
        <ele>2262</ele>
        <time>2020-07-07T07:47:06.000Z</time>
      </trkpt>
      <trkpt lat="44.40238" lon="6.38398">
        <ele>2262</ele>
        <time>2020-07-07T07:47:07.000Z</time>
      </trkpt>
      <trkpt lat="44.40239" lon="6.38397">
        <ele>2262</ele>
        <time>2020-07-07T07:47:08.000Z</time>
      </trkpt>
      <trkpt lat="44.4024" lon="6.38397">
        <ele>2262</ele>
        <time>2020-07-07T07:47:09.000Z</time>
      </trkpt>
      <trkpt lat="44.40241" lon="6.38396">
        <ele>2262</ele>
        <time>2020-07-07T07:47:10.000Z</time>
      </trkpt>
      <trkpt lat="44.40242" lon="6.38396">
        <ele>2263</ele>
        <time>2020-07-07T07:47:11.000Z</time>
      </trkpt>
      <trkpt lat="44.40242" lon="6.38396">
        <ele>2263</ele>
        <time>2020-07-07T07:47:12.000Z</time>
      </trkpt>
      <trkpt lat="44.40243" lon="6.38396">
        <ele>2263</ele>
        <time>2020-07-07T07:47:13.000Z</time>
      </trkpt>
      <trkpt lat="44.40245" lon="6.38395">
        <ele>2263</ele>
        <time>2020-07-07T07:47:14.000Z</time>
      </trkpt>
      <trkpt lat="44.40246" lon="6.38394">
        <ele>2263</ele>
        <time>2020-07-07T07:47:15.000Z</time>
      </trkpt>
      <trkpt lat="44.40246" lon="6.38394">
        <ele>2263</ele>
        <time>2020-07-07T07:47:16.000Z</time>
      </trkpt>
      <trkpt lat="44.40248" lon="6.38394">
        <ele>2263</ele>
        <time>2020-07-07T07:47:17.000Z</time>
      </trkpt>
      <trkpt lat="44.40248" lon="6.38393">
        <ele>2263</ele>
        <time>2020-07-07T07:47:18.000Z</time>
      </trkpt>
      <trkpt lat="44.40249" lon="6.38393">
        <ele>2263</ele>
        <time>2020-07-07T07:47:19.000Z</time>
      </trkpt>
      <trkpt lat="44.4025" lon="6.38393">
        <ele>2263</ele>
        <time>2020-07-07T07:47:20.000Z</time>
      </trkpt>
      <trkpt lat="44.40251" lon="6.38392">
        <ele>2263</ele>
        <time>2020-07-07T07:47:21.000Z</time>
      </trkpt>
      <trkpt lat="44.40252" lon="6.38392">
        <ele>2263</ele>
        <time>2020-07-07T07:47:22.000Z</time>
      </trkpt>
      <trkpt lat="44.40252" lon="6.38392">
        <ele>2263</ele>
        <time>2020-07-07T07:47:23.000Z</time>
      </trkpt>
      <trkpt lat="44.40253" lon="6.38392">
        <ele>2263</ele>
        <time>2020-07-07T07:47:24.000Z</time>
      </trkpt>
      <trkpt lat="44.40254" lon="6.38391">
        <ele>2263</ele>
        <time>2020-07-07T07:47:25.000Z</time>
      </trkpt>
      <trkpt lat="44.40255" lon="6.38391">
        <ele>2264</ele>
        <time>2020-07-07T07:47:26.000Z</time>
      </trkpt>
      <trkpt lat="44.40256" lon="6.3839">
        <ele>2264</ele>
        <time>2020-07-07T07:47:27.000Z</time>
      </trkpt>
      <trkpt lat="44.40256" lon="6.3839">
        <ele>2264</ele>
        <time>2020-07-07T07:47:28.000Z</time>
      </trkpt>
      <trkpt lat="44.40257" lon="6.3839">
        <ele>2264</ele>
        <time>2020-07-07T07:47:29.000Z</time>
      </trkpt>
      <trkpt lat="44.40258" lon="6.3839">
        <ele>2264</ele>
        <time>2020-07-07T07:47:30.000Z</time>
      </trkpt>
      <trkpt lat="44.40259" lon="6.38389">
        <ele>2264</ele>
        <time>2020-07-07T07:47:31.000Z</time>
      </trkpt>
      <trkpt lat="44.4026" lon="6.38389">
        <ele>2264</ele>
        <time>2020-07-07T07:47:32.000Z</time>
      </trkpt>
      <trkpt lat="44.4026" lon="6.38389">
        <ele>2264</ele>
        <time>2020-07-07T07:47:33.000Z</time>
      </trkpt>
      <trkpt lat="44.40261" lon="6.38389">
        <ele>2263</ele>
        <time>2020-07-07T07:47:34.000Z</time>
      </trkpt>
      <trkpt lat="44.40262" lon="6.38389">
        <ele>2263</ele>
        <time>2020-07-07T07:47:35.000Z</time>
      </trkpt>
      <trkpt lat="44.40263" lon="6.38388">
        <ele>2263</ele>
        <time>2020-07-07T07:47:36.000Z</time>
      </trkpt>
      <trkpt lat="44.40264" lon="6.38388">
        <ele>2263</ele>
        <time>2020-07-07T07:47:37.000Z</time>
      </trkpt>
      <trkpt lat="44.40264" lon="6.38388">
        <ele>2263</ele>
        <time>2020-07-07T07:47:38.000Z</time>
      </trkpt>
      <trkpt lat="44.40265" lon="6.38387">
        <ele>2264</ele>
        <time>2020-07-07T07:47:39.000Z</time>
      </trkpt>
      <trkpt lat="44.40266" lon="6.38386">
        <ele>2264</ele>
        <time>2020-07-07T07:47:40.000Z</time>
      </trkpt>
      <trkpt lat="44.40266" lon="6.38386">
        <ele>2264</ele>
        <time>2020-07-07T07:47:41.000Z</time>
      </trkpt>
      <trkpt lat="44.40267" lon="6.38387">
        <ele>2264</ele>
        <time>2020-07-07T07:47:42.000Z</time>
      </trkpt>
      <trkpt lat="44.40267" lon="6.38387">
        <ele>2264</ele>
        <time>2020-07-07T07:47:43.000Z</time>
      </trkpt>
      <trkpt lat="44.40268" lon="6.38387">
        <ele>2264</ele>
        <time>2020-07-07T07:47:44.000Z</time>
      </trkpt>
      <trkpt lat="44.40268" lon="6.38386">
        <ele>2264</ele>
        <time>2020-07-07T07:47:45.000Z</time>
      </trkpt>
      <trkpt lat="44.40269" lon="6.38385">
        <ele>2264</ele>
        <time>2020-07-07T07:47:46.000Z</time>
      </trkpt>
      <trkpt lat="44.4027" lon="6.38384">
        <ele>2264</ele>
        <time>2020-07-07T07:47:47.000Z</time>
      </trkpt>
      <trkpt lat="44.4027" lon="6.38384">
        <ele>2264</ele>
        <time>2020-07-07T07:47:48.000Z</time>
      </trkpt>
      <trkpt lat="44.40271" lon="6.38384">
        <ele>2264</ele>
        <time>2020-07-07T07:47:49.000Z</time>
      </trkpt>
      <trkpt lat="44.40271" lon="6.38383">
        <ele>2264</ele>
        <time>2020-07-07T07:47:50.000Z</time>
      </trkpt>
      <trkpt lat="44.40272" lon="6.38382">
        <ele>2264</ele>
        <time>2020-07-07T07:47:51.000Z</time>
      </trkpt>
      <trkpt lat="44.40273" lon="6.38381">
        <ele>2264</ele>
        <time>2020-07-07T07:47:52.000Z</time>
      </trkpt>
      <trkpt lat="44.40273" lon="6.38381">
        <ele>2264</ele>
        <time>2020-07-07T07:47:53.000Z</time>
      </trkpt>
      <trkpt lat="44.40274" lon="6.38381">
        <ele>2264</ele>
        <time>2020-07-07T07:47:54.000Z</time>
      </trkpt>
      <trkpt lat="44.40274" lon="6.38381">
        <ele>2264</ele>
        <time>2020-07-07T07:47:55.000Z</time>
      </trkpt>
      <trkpt lat="44.40275" lon="6.38381">
        <ele>2264</ele>
        <time>2020-07-07T07:47:56.000Z</time>
      </trkpt>
      <trkpt lat="44.40275" lon="6.3838">
        <ele>2264</ele>
        <time>2020-07-07T07:47:57.000Z</time>
      </trkpt>
      <trkpt lat="44.40276" lon="6.38379">
        <ele>2264</ele>
        <time>2020-07-07T07:47:58.000Z</time>
      </trkpt>
      <trkpt lat="44.40277" lon="6.38378">
        <ele>2264</ele>
        <time>2020-07-07T07:47:59.000Z</time>
      </trkpt>
      <trkpt lat="44.40278" lon="6.38378">
        <ele>2264</ele>
        <time>2020-07-07T07:48:00.000Z</time>
      </trkpt>
      <trkpt lat="44.40278" lon="6.38377">
        <ele>2265</ele>
        <time>2020-07-07T07:48:01.000Z</time>
      </trkpt>
      <trkpt lat="44.40279" lon="6.38376">
        <ele>2265</ele>
        <time>2020-07-07T07:48:02.000Z</time>
      </trkpt>
      <trkpt lat="44.4028" lon="6.38375">
        <ele>2265</ele>
        <time>2020-07-07T07:48:03.000Z</time>
      </trkpt>
      <trkpt lat="44.4028" lon="6.38374">
        <ele>2265</ele>
        <time>2020-07-07T07:48:04.000Z</time>
      </trkpt>
      <trkpt lat="44.40281" lon="6.38374">
        <ele>2265</ele>
        <time>2020-07-07T07:48:05.000Z</time>
      </trkpt>
      <trkpt lat="44.40281" lon="6.38374">
        <ele>2265</ele>
        <time>2020-07-07T07:48:06.000Z</time>
      </trkpt>
      <trkpt lat="44.40281" lon="6.38375">
        <ele>2265</ele>
        <time>2020-07-07T07:48:07.000Z</time>
      </trkpt>
      <trkpt lat="44.40281" lon="6.38375">
        <ele>2265</ele>
        <time>2020-07-07T07:48:08.000Z</time>
      </trkpt>
      <trkpt lat="44.40281" lon="6.38374">
        <ele>2266</ele>
        <time>2020-07-07T07:48:09.000Z</time>
      </trkpt>
      <trkpt lat="44.40281" lon="6.38374">
        <ele>2266</ele>
        <time>2020-07-07T07:48:10.000Z</time>
      </trkpt>
      <trkpt lat="44.40281" lon="6.38373">
        <ele>2266</ele>
        <time>2020-07-07T07:48:11.000Z</time>
      </trkpt>
      <trkpt lat="44.40281" lon="6.38373">
        <ele>2266</ele>
        <time>2020-07-07T07:48:12.000Z</time>
      </trkpt>
      <trkpt lat="44.40281" lon="6.38373">
        <ele>2266</ele>
        <time>2020-07-07T07:48:13.000Z</time>
      </trkpt>
      <trkpt lat="44.4028" lon="6.38372">
        <ele>2266</ele>
        <time>2020-07-07T07:48:14.000Z</time>
      </trkpt>
      <trkpt lat="44.4028" lon="6.38372">
        <ele>2266</ele>
        <time>2020-07-07T07:48:15.000Z</time>
      </trkpt>
      <trkpt lat="44.4028" lon="6.38372">
        <ele>2267</ele>
        <time>2020-07-07T07:48:16.000Z</time>
      </trkpt>
      <trkpt lat="44.4028" lon="6.38372">
        <ele>2267</ele>
        <time>2020-07-07T07:48:17.000Z</time>
      </trkpt>
      <trkpt lat="44.4028" lon="6.38371">
        <ele>2267</ele>
        <time>2020-07-07T07:48:18.000Z</time>
      </trkpt>
      <trkpt lat="44.40281" lon="6.3837">
        <ele>2267</ele>
        <time>2020-07-07T07:48:19.000Z</time>
      </trkpt>
      <trkpt lat="44.40282" lon="6.38369">
        <ele>2267</ele>
        <time>2020-07-07T07:48:20.000Z</time>
      </trkpt>
      <trkpt lat="44.40283" lon="6.38369">
        <ele>2268</ele>
        <time>2020-07-07T07:48:21.000Z</time>
      </trkpt>
      <trkpt lat="44.40283" lon="6.38368">
        <ele>2268</ele>
        <time>2020-07-07T07:48:22.000Z</time>
      </trkpt>
      <trkpt lat="44.40284" lon="6.38367">
        <ele>2268</ele>
        <time>2020-07-07T07:48:23.000Z</time>
      </trkpt>
      <trkpt lat="44.40285" lon="6.38367">
        <ele>2268</ele>
        <time>2020-07-07T07:48:24.000Z</time>
      </trkpt>
      <trkpt lat="44.40286" lon="6.38366">
        <ele>2268</ele>
        <time>2020-07-07T07:48:25.000Z</time>
      </trkpt>
      <trkpt lat="44.40286" lon="6.38365">
        <ele>2268</ele>
        <time>2020-07-07T07:48:26.000Z</time>
      </trkpt>
      <trkpt lat="44.40287" lon="6.38365">
        <ele>2269</ele>
        <time>2020-07-07T07:48:27.000Z</time>
      </trkpt>
      <trkpt lat="44.40288" lon="6.38364">
        <ele>2269</ele>
        <time>2020-07-07T07:48:28.000Z</time>
      </trkpt>
      <trkpt lat="44.40289" lon="6.38364">
        <ele>2269</ele>
        <time>2020-07-07T07:48:29.000Z</time>
      </trkpt>
      <trkpt lat="44.4029" lon="6.38363">
        <ele>2269</ele>
        <time>2020-07-07T07:48:30.000Z</time>
      </trkpt>
      <trkpt lat="44.40291" lon="6.38363">
        <ele>2269</ele>
        <time>2020-07-07T07:48:31.000Z</time>
      </trkpt>
      <trkpt lat="44.40292" lon="6.38363">
        <ele>2269</ele>
        <time>2020-07-07T07:48:32.000Z</time>
      </trkpt>
      <trkpt lat="44.40292" lon="6.38362">
        <ele>2269</ele>
        <time>2020-07-07T07:48:33.000Z</time>
      </trkpt>
      <trkpt lat="44.40293" lon="6.38362">
        <ele>2269</ele>
        <time>2020-07-07T07:48:34.000Z</time>
      </trkpt>
      <trkpt lat="44.40294" lon="6.38362">
        <ele>2269</ele>
        <time>2020-07-07T07:48:35.000Z</time>
      </trkpt>
      <trkpt lat="44.40295" lon="6.38361">
        <ele>2270</ele>
        <time>2020-07-07T07:48:36.000Z</time>
      </trkpt>
      <trkpt lat="44.40295" lon="6.38361">
        <ele>2270</ele>
        <time>2020-07-07T07:48:37.000Z</time>
      </trkpt>
      <trkpt lat="44.40296" lon="6.38361">
        <ele>2270</ele>
        <time>2020-07-07T07:48:38.000Z</time>
      </trkpt>
      <trkpt lat="44.40297" lon="6.3836">
        <ele>2270</ele>
        <time>2020-07-07T07:48:39.000Z</time>
      </trkpt>
      <trkpt lat="44.40297" lon="6.3836">
        <ele>2270</ele>
        <time>2020-07-07T07:48:40.000Z</time>
      </trkpt>
      <trkpt lat="44.40298" lon="6.3836">
        <ele>2270</ele>
        <time>2020-07-07T07:48:41.000Z</time>
      </trkpt>
      <trkpt lat="44.40299" lon="6.38359">
        <ele>2270</ele>
        <time>2020-07-07T07:48:42.000Z</time>
      </trkpt>
      <trkpt lat="44.403" lon="6.38359">
        <ele>2270</ele>
        <time>2020-07-07T07:48:43.000Z</time>
      </trkpt>
      <trkpt lat="44.40301" lon="6.38359">
        <ele>2270</ele>
        <time>2020-07-07T07:48:44.000Z</time>
      </trkpt>
      <trkpt lat="44.40302" lon="6.38358">
        <ele>2270</ele>
        <time>2020-07-07T07:48:45.000Z</time>
      </trkpt>
      <trkpt lat="44.40303" lon="6.38358">
        <ele>2270</ele>
        <time>2020-07-07T07:48:46.000Z</time>
      </trkpt>
      <trkpt lat="44.40303" lon="6.38358">
        <ele>2270</ele>
        <time>2020-07-07T07:48:47.000Z</time>
      </trkpt>
      <trkpt lat="44.40304" lon="6.38357">
        <ele>2271</ele>
        <time>2020-07-07T07:48:48.000Z</time>
      </trkpt>
      <trkpt lat="44.40305" lon="6.38357">
        <ele>2271</ele>
        <time>2020-07-07T07:48:49.000Z</time>
      </trkpt>
      <trkpt lat="44.40306" lon="6.38357">
        <ele>2271</ele>
        <time>2020-07-07T07:48:50.000Z</time>
      </trkpt>
      <trkpt lat="44.40307" lon="6.38357">
        <ele>2271</ele>
        <time>2020-07-07T07:48:51.000Z</time>
      </trkpt>
      <trkpt lat="44.40307" lon="6.38356">
        <ele>2271</ele>
        <time>2020-07-07T07:48:52.000Z</time>
      </trkpt>
      <trkpt lat="44.40308" lon="6.38356">
        <ele>2271</ele>
        <time>2020-07-07T07:48:53.000Z</time>
      </trkpt>
      <trkpt lat="44.40309" lon="6.38356">
        <ele>2271</ele>
        <time>2020-07-07T07:48:54.000Z</time>
      </trkpt>
      <trkpt lat="44.4031" lon="6.38355">
        <ele>2272</ele>
        <time>2020-07-07T07:48:55.000Z</time>
      </trkpt>
      <trkpt lat="44.40311" lon="6.38354">
        <ele>2272</ele>
        <time>2020-07-07T07:48:56.000Z</time>
      </trkpt>
      <trkpt lat="44.40312" lon="6.38354">
        <ele>2272</ele>
        <time>2020-07-07T07:48:57.000Z</time>
      </trkpt>
      <trkpt lat="44.40312" lon="6.38354">
        <ele>2272</ele>
        <time>2020-07-07T07:48:58.000Z</time>
      </trkpt>
      <trkpt lat="44.40313" lon="6.38353">
        <ele>2273</ele>
        <time>2020-07-07T07:48:59.000Z</time>
      </trkpt>
      <trkpt lat="44.40314" lon="6.38353">
        <ele>2273</ele>
        <time>2020-07-07T07:49:00.000Z</time>
      </trkpt>
      <trkpt lat="44.40315" lon="6.38352">
        <ele>2273</ele>
        <time>2020-07-07T07:49:01.000Z</time>
      </trkpt>
      <trkpt lat="44.40316" lon="6.38352">
        <ele>2273</ele>
        <time>2020-07-07T07:49:02.000Z</time>
      </trkpt>
      <trkpt lat="44.40316" lon="6.38351">
        <ele>2274</ele>
        <time>2020-07-07T07:49:03.000Z</time>
      </trkpt>
      <trkpt lat="44.40317" lon="6.38351">
        <ele>2274</ele>
        <time>2020-07-07T07:49:04.000Z</time>
      </trkpt>
      <trkpt lat="44.40318" lon="6.3835">
        <ele>2274</ele>
        <time>2020-07-07T07:49:05.000Z</time>
      </trkpt>
      <trkpt lat="44.40318" lon="6.38349">
        <ele>2274</ele>
        <time>2020-07-07T07:49:06.000Z</time>
      </trkpt>
      <trkpt lat="44.40319" lon="6.38349">
        <ele>2274</ele>
        <time>2020-07-07T07:49:07.000Z</time>
      </trkpt>
      <trkpt lat="44.4032" lon="6.38348">
        <ele>2274</ele>
        <time>2020-07-07T07:49:08.000Z</time>
      </trkpt>
      <trkpt lat="44.40321" lon="6.38348">
        <ele>2275</ele>
        <time>2020-07-07T07:49:09.000Z</time>
      </trkpt>
      <trkpt lat="44.40322" lon="6.38348">
        <ele>2275</ele>
        <time>2020-07-07T07:49:10.000Z</time>
      </trkpt>
      <trkpt lat="44.40323" lon="6.38348">
        <ele>2275</ele>
        <time>2020-07-07T07:49:11.000Z</time>
      </trkpt>
      <trkpt lat="44.40324" lon="6.38347">
        <ele>2275</ele>
        <time>2020-07-07T07:49:12.000Z</time>
      </trkpt>
      <trkpt lat="44.40325" lon="6.38347">
        <ele>2275</ele>
        <time>2020-07-07T07:49:13.000Z</time>
      </trkpt>
      <trkpt lat="44.40326" lon="6.38347">
        <ele>2275</ele>
        <time>2020-07-07T07:49:14.000Z</time>
      </trkpt>
      <trkpt lat="44.40326" lon="6.38346">
        <ele>2275</ele>
        <time>2020-07-07T07:49:15.000Z</time>
      </trkpt>
      <trkpt lat="44.40327" lon="6.38346">
        <ele>2275</ele>
        <time>2020-07-07T07:49:16.000Z</time>
      </trkpt>
      <trkpt lat="44.40328" lon="6.38347">
        <ele>2275</ele>
        <time>2020-07-07T07:49:17.000Z</time>
      </trkpt>
      <trkpt lat="44.40328" lon="6.38347">
        <ele>2275</ele>
        <time>2020-07-07T07:49:18.000Z</time>
      </trkpt>
      <trkpt lat="44.40329" lon="6.38346">
        <ele>2276</ele>
        <time>2020-07-07T07:49:19.000Z</time>
      </trkpt>
      <trkpt lat="44.4033" lon="6.38347">
        <ele>2275</ele>
        <time>2020-07-07T07:49:20.000Z</time>
      </trkpt>
      <trkpt lat="44.4033" lon="6.38347">
        <ele>2275</ele>
        <time>2020-07-07T07:49:21.000Z</time>
      </trkpt>
      <trkpt lat="44.40331" lon="6.38347">
        <ele>2276</ele>
        <time>2020-07-07T07:49:22.000Z</time>
      </trkpt>
      <trkpt lat="44.40332" lon="6.38347">
        <ele>2276</ele>
        <time>2020-07-07T07:49:23.000Z</time>
      </trkpt>
      <trkpt lat="44.40333" lon="6.38347">
        <ele>2276</ele>
        <time>2020-07-07T07:49:24.000Z</time>
      </trkpt>
      <trkpt lat="44.40334" lon="6.38346">
        <ele>2276</ele>
        <time>2020-07-07T07:49:25.000Z</time>
      </trkpt>
      <trkpt lat="44.40335" lon="6.38346">
        <ele>2276</ele>
        <time>2020-07-07T07:49:26.000Z</time>
      </trkpt>
      <trkpt lat="44.40336" lon="6.38346">
        <ele>2276</ele>
        <time>2020-07-07T07:49:27.000Z</time>
      </trkpt>
      <trkpt lat="44.40337" lon="6.38346">
        <ele>2276</ele>
        <time>2020-07-07T07:49:28.000Z</time>
      </trkpt>
      <trkpt lat="44.40339" lon="6.38346">
        <ele>2277</ele>
        <time>2020-07-07T07:49:29.000Z</time>
      </trkpt>
      <trkpt lat="44.40339" lon="6.38346">
        <ele>2277</ele>
        <time>2020-07-07T07:49:30.000Z</time>
      </trkpt>
      <trkpt lat="44.40339" lon="6.38346">
        <ele>2277</ele>
        <time>2020-07-07T07:49:31.000Z</time>
      </trkpt>
      <trkpt lat="44.40341" lon="6.38346">
        <ele>2277</ele>
        <time>2020-07-07T07:49:32.000Z</time>
      </trkpt>
      <trkpt lat="44.40342" lon="6.38346">
        <ele>2277</ele>
        <time>2020-07-07T07:49:33.000Z</time>
      </trkpt>
      <trkpt lat="44.40343" lon="6.38346">
        <ele>2277</ele>
        <time>2020-07-07T07:49:34.000Z</time>
      </trkpt>
      <trkpt lat="44.40343" lon="6.38346">
        <ele>2277</ele>
        <time>2020-07-07T07:49:35.000Z</time>
      </trkpt>
      <trkpt lat="44.40344" lon="6.38347">
        <ele>2277</ele>
        <time>2020-07-07T07:49:36.000Z</time>
      </trkpt>
      <trkpt lat="44.40345" lon="6.38347">
        <ele>2277</ele>
        <time>2020-07-07T07:49:37.000Z</time>
      </trkpt>
      <trkpt lat="44.40346" lon="6.38347">
        <ele>2277</ele>
        <time>2020-07-07T07:49:38.000Z</time>
      </trkpt>
      <trkpt lat="44.40346" lon="6.38346">
        <ele>2277</ele>
        <time>2020-07-07T07:49:39.000Z</time>
      </trkpt>
      <trkpt lat="44.40347" lon="6.38346">
        <ele>2277</ele>
        <time>2020-07-07T07:49:40.000Z</time>
      </trkpt>
      <trkpt lat="44.40348" lon="6.38345">
        <ele>2277</ele>
        <time>2020-07-07T07:49:41.000Z</time>
      </trkpt>
      <trkpt lat="44.40349" lon="6.38345">
        <ele>2277</ele>
        <time>2020-07-07T07:49:42.000Z</time>
      </trkpt>
      <trkpt lat="44.4035" lon="6.38344">
        <ele>2277</ele>
        <time>2020-07-07T07:49:43.000Z</time>
      </trkpt>
      <trkpt lat="44.40351" lon="6.38343">
        <ele>2277</ele>
        <time>2020-07-07T07:49:44.000Z</time>
      </trkpt>
      <trkpt lat="44.40352" lon="6.38343">
        <ele>2277</ele>
        <time>2020-07-07T07:49:45.000Z</time>
      </trkpt>
      <trkpt lat="44.40353" lon="6.38343">
        <ele>2277</ele>
        <time>2020-07-07T07:49:46.000Z</time>
      </trkpt>
      <trkpt lat="44.40354" lon="6.38342">
        <ele>2277</ele>
        <time>2020-07-07T07:49:47.000Z</time>
      </trkpt>
      <trkpt lat="44.40354" lon="6.38342">
        <ele>2277</ele>
        <time>2020-07-07T07:49:48.000Z</time>
      </trkpt>
      <trkpt lat="44.40355" lon="6.38341">
        <ele>2277</ele>
        <time>2020-07-07T07:49:49.000Z</time>
      </trkpt>
      <trkpt lat="44.40356" lon="6.38341">
        <ele>2277</ele>
        <time>2020-07-07T07:49:50.000Z</time>
      </trkpt>
      <trkpt lat="44.40357" lon="6.38341">
        <ele>2277</ele>
        <time>2020-07-07T07:49:51.000Z</time>
      </trkpt>
      <trkpt lat="44.40357" lon="6.3834">
        <ele>2277</ele>
        <time>2020-07-07T07:49:52.000Z</time>
      </trkpt>
      <trkpt lat="44.40358" lon="6.38339">
        <ele>2277</ele>
        <time>2020-07-07T07:49:53.000Z</time>
      </trkpt>
      <trkpt lat="44.40359" lon="6.38339">
        <ele>2277</ele>
        <time>2020-07-07T07:49:54.000Z</time>
      </trkpt>
      <trkpt lat="44.4036" lon="6.38339">
        <ele>2277</ele>
        <time>2020-07-07T07:49:55.000Z</time>
      </trkpt>
      <trkpt lat="44.4036" lon="6.38338">
        <ele>2278</ele>
        <time>2020-07-07T07:49:56.000Z</time>
      </trkpt>
      <trkpt lat="44.40361" lon="6.38338">
        <ele>2278</ele>
        <time>2020-07-07T07:49:57.000Z</time>
      </trkpt>
      <trkpt lat="44.40362" lon="6.38337">
        <ele>2278</ele>
        <time>2020-07-07T07:49:58.000Z</time>
      </trkpt>
      <trkpt lat="44.40362" lon="6.38337">
        <ele>2278</ele>
        <time>2020-07-07T07:49:59.000Z</time>
      </trkpt>
      <trkpt lat="44.40363" lon="6.38336">
        <ele>2278</ele>
        <time>2020-07-07T07:50:00.000Z</time>
      </trkpt>
      <trkpt lat="44.40365" lon="6.38335">
        <ele>2278</ele>
        <time>2020-07-07T07:50:01.000Z</time>
      </trkpt>
      <trkpt lat="44.40365" lon="6.38335">
        <ele>2278</ele>
        <time>2020-07-07T07:50:02.000Z</time>
      </trkpt>
      <trkpt lat="44.40366" lon="6.38334">
        <ele>2278</ele>
        <time>2020-07-07T07:50:03.000Z</time>
      </trkpt>
      <trkpt lat="44.40366" lon="6.38333">
        <ele>2278</ele>
        <time>2020-07-07T07:50:04.000Z</time>
      </trkpt>
      <trkpt lat="44.40367" lon="6.38333">
        <ele>2278</ele>
        <time>2020-07-07T07:50:05.000Z</time>
      </trkpt>
      <trkpt lat="44.40368" lon="6.38332">
        <ele>2278</ele>
        <time>2020-07-07T07:50:06.000Z</time>
      </trkpt>
      <trkpt lat="44.40368" lon="6.38332">
        <ele>2278</ele>
        <time>2020-07-07T07:50:07.000Z</time>
      </trkpt>
      <trkpt lat="44.40369" lon="6.38331">
        <ele>2279</ele>
        <time>2020-07-07T07:50:08.000Z</time>
      </trkpt>
      <trkpt lat="44.4037" lon="6.3833">
        <ele>2279</ele>
        <time>2020-07-07T07:50:09.000Z</time>
      </trkpt>
      <trkpt lat="44.40371" lon="6.3833">
        <ele>2279</ele>
        <time>2020-07-07T07:50:10.000Z</time>
      </trkpt>
      <trkpt lat="44.40371" lon="6.3833">
        <ele>2279</ele>
        <time>2020-07-07T07:50:11.000Z</time>
      </trkpt>
      <trkpt lat="44.40372" lon="6.38329">
        <ele>2279</ele>
        <time>2020-07-07T07:50:12.000Z</time>
      </trkpt>
      <trkpt lat="44.40374" lon="6.38327">
        <ele>2279</ele>
        <time>2020-07-07T07:50:13.000Z</time>
      </trkpt>
      <trkpt lat="44.40374" lon="6.38326">
        <ele>2279</ele>
        <time>2020-07-07T07:50:14.000Z</time>
      </trkpt>
      <trkpt lat="44.40375" lon="6.38326">
        <ele>2279</ele>
        <time>2020-07-07T07:50:15.000Z</time>
      </trkpt>
      <trkpt lat="44.40375" lon="6.38326">
        <ele>2279</ele>
        <time>2020-07-07T07:50:16.000Z</time>
      </trkpt>
      <trkpt lat="44.40376" lon="6.38325">
        <ele>2280</ele>
        <time>2020-07-07T07:50:17.000Z</time>
      </trkpt>
      <trkpt lat="44.40376" lon="6.38324">
        <ele>2280</ele>
        <time>2020-07-07T07:50:18.000Z</time>
      </trkpt>
      <trkpt lat="44.40377" lon="6.38324">
        <ele>2280</ele>
        <time>2020-07-07T07:50:19.000Z</time>
      </trkpt>
      <trkpt lat="44.40378" lon="6.38323">
        <ele>2280</ele>
        <time>2020-07-07T07:50:20.000Z</time>
      </trkpt>
      <trkpt lat="44.40378" lon="6.38323">
        <ele>2280</ele>
        <time>2020-07-07T07:50:21.000Z</time>
      </trkpt>
      <trkpt lat="44.40379" lon="6.38323">
        <ele>2280</ele>
        <time>2020-07-07T07:50:22.000Z</time>
      </trkpt>
      <trkpt lat="44.4038" lon="6.38323">
        <ele>2281</ele>
        <time>2020-07-07T07:50:23.000Z</time>
      </trkpt>
      <trkpt lat="44.4038" lon="6.38322">
        <ele>2281</ele>
        <time>2020-07-07T07:50:24.000Z</time>
      </trkpt>
      <trkpt lat="44.4038" lon="6.38322">
        <ele>2281</ele>
        <time>2020-07-07T07:50:25.000Z</time>
      </trkpt>
      <trkpt lat="44.4038" lon="6.38322">
        <ele>2281</ele>
        <time>2020-07-07T07:50:26.000Z</time>
      </trkpt>
      <trkpt lat="44.4038" lon="6.38322">
        <ele>2281</ele>
        <time>2020-07-07T07:50:27.000Z</time>
      </trkpt>
      <trkpt lat="44.4038" lon="6.38322">
        <ele>2281</ele>
        <time>2020-07-07T07:50:28.000Z</time>
      </trkpt>
      <trkpt lat="44.4038" lon="6.38322">
        <ele>2281</ele>
        <time>2020-07-07T07:50:29.000Z</time>
      </trkpt>
      <trkpt lat="44.4038" lon="6.38322">
        <ele>2281</ele>
        <time>2020-07-07T07:50:30.000Z</time>
      </trkpt>
      <trkpt lat="44.4038" lon="6.38322">
        <ele>2281</ele>
        <time>2020-07-07T07:50:31.000Z</time>
      </trkpt>
      <trkpt lat="44.4038" lon="6.38322">
        <ele>2281</ele>
        <time>2020-07-07T07:50:32.000Z</time>
      </trkpt>
      <trkpt lat="44.4038" lon="6.38322">
        <ele>2281</ele>
        <time>2020-07-07T07:50:33.000Z</time>
      </trkpt>
      <trkpt lat="44.40379" lon="6.38322">
        <ele>2281</ele>
        <time>2020-07-07T07:50:34.000Z</time>
      </trkpt>
      <trkpt lat="44.40379" lon="6.38322">
        <ele>2281</ele>
        <time>2020-07-07T07:50:35.000Z</time>
      </trkpt>
      <trkpt lat="44.40379" lon="6.38322">
        <ele>2281</ele>
        <time>2020-07-07T07:50:36.000Z</time>
      </trkpt>
      <trkpt lat="44.4038" lon="6.38322">
        <ele>2281</ele>
        <time>2020-07-07T07:50:37.000Z</time>
      </trkpt>
      <trkpt lat="44.4038" lon="6.38322">
        <ele>2281</ele>
        <time>2020-07-07T07:50:38.000Z</time>
      </trkpt>
      <trkpt lat="44.4038" lon="6.38322">
        <ele>2281</ele>
        <time>2020-07-07T07:50:39.000Z</time>
      </trkpt>
      <trkpt lat="44.4038" lon="6.38322">
        <ele>2281</ele>
        <time>2020-07-07T07:50:40.000Z</time>
      </trkpt>
      <trkpt lat="44.4038" lon="6.38322">
        <ele>2281</ele>
        <time>2020-07-07T07:50:41.000Z</time>
      </trkpt>
      <trkpt lat="44.4038" lon="6.38322">
        <ele>2281</ele>
        <time>2020-07-07T07:50:42.000Z</time>
      </trkpt>
      <trkpt lat="44.4038" lon="6.38322">
        <ele>2281</ele>
        <time>2020-07-07T07:50:43.000Z</time>
      </trkpt>
      <trkpt lat="44.4038" lon="6.38321">
        <ele>2281</ele>
        <time>2020-07-07T07:50:44.000Z</time>
      </trkpt>
      <trkpt lat="44.4038" lon="6.38321">
        <ele>2281</ele>
        <time>2020-07-07T07:50:45.000Z</time>
      </trkpt>
      <trkpt lat="44.4038" lon="6.38321">
        <ele>2281</ele>
        <time>2020-07-07T07:50:46.000Z</time>
      </trkpt>
      <trkpt lat="44.40381" lon="6.3832">
        <ele>2281</ele>
        <time>2020-07-07T07:50:47.000Z</time>
      </trkpt>
      <trkpt lat="44.40382" lon="6.3832">
        <ele>2281</ele>
        <time>2020-07-07T07:50:48.000Z</time>
      </trkpt>
      <trkpt lat="44.40383" lon="6.3832">
        <ele>2281</ele>
        <time>2020-07-07T07:50:49.000Z</time>
      </trkpt>
      <trkpt lat="44.40384" lon="6.3832">
        <ele>2282</ele>
        <time>2020-07-07T07:50:50.000Z</time>
      </trkpt>
      <trkpt lat="44.40385" lon="6.3832">
        <ele>2282</ele>
        <time>2020-07-07T07:50:51.000Z</time>
      </trkpt>
      <trkpt lat="44.40386" lon="6.38319">
        <ele>2282</ele>
        <time>2020-07-07T07:50:52.000Z</time>
      </trkpt>
      <trkpt lat="44.40387" lon="6.38319">
        <ele>2282</ele>
        <time>2020-07-07T07:50:53.000Z</time>
      </trkpt>
      <trkpt lat="44.40388" lon="6.38319">
        <ele>2282</ele>
        <time>2020-07-07T07:50:54.000Z</time>
      </trkpt>
      <trkpt lat="44.40388" lon="6.38318">
        <ele>2282</ele>
        <time>2020-07-07T07:50:55.000Z</time>
      </trkpt>
      <trkpt lat="44.40389" lon="6.38318">
        <ele>2282</ele>
        <time>2020-07-07T07:50:56.000Z</time>
      </trkpt>
      <trkpt lat="44.4039" lon="6.38318">
        <ele>2282</ele>
        <time>2020-07-07T07:50:57.000Z</time>
      </trkpt>
      <trkpt lat="44.40391" lon="6.38318">
        <ele>2282</ele>
        <time>2020-07-07T07:50:58.000Z</time>
      </trkpt>
      <trkpt lat="44.40392" lon="6.38317">
        <ele>2282</ele>
        <time>2020-07-07T07:50:59.000Z</time>
      </trkpt>
      <trkpt lat="44.40393" lon="6.38317">
        <ele>2282</ele>
        <time>2020-07-07T07:51:00.000Z</time>
      </trkpt>
      <trkpt lat="44.40394" lon="6.38317">
        <ele>2282</ele>
        <time>2020-07-07T07:51:01.000Z</time>
      </trkpt>
      <trkpt lat="44.40394" lon="6.38317">
        <ele>2282</ele>
        <time>2020-07-07T07:51:02.000Z</time>
      </trkpt>
      <trkpt lat="44.40395" lon="6.38317">
        <ele>2282</ele>
        <time>2020-07-07T07:51:03.000Z</time>
      </trkpt>
      <trkpt lat="44.40396" lon="6.38316">
        <ele>2282</ele>
        <time>2020-07-07T07:51:04.000Z</time>
      </trkpt>
      <trkpt lat="44.40397" lon="6.38316">
        <ele>2282</ele>
        <time>2020-07-07T07:51:05.000Z</time>
      </trkpt>
      <trkpt lat="44.40398" lon="6.38315">
        <ele>2282</ele>
        <time>2020-07-07T07:51:06.000Z</time>
      </trkpt>
      <trkpt lat="44.40398" lon="6.38315">
        <ele>2283</ele>
        <time>2020-07-07T07:51:07.000Z</time>
      </trkpt>
      <trkpt lat="44.40399" lon="6.38314">
        <ele>2283</ele>
        <time>2020-07-07T07:51:08.000Z</time>
      </trkpt>
      <trkpt lat="44.40399" lon="6.38313">
        <ele>2283</ele>
        <time>2020-07-07T07:51:09.000Z</time>
      </trkpt>
      <trkpt lat="44.404" lon="6.38312">
        <ele>2283</ele>
        <time>2020-07-07T07:51:10.000Z</time>
      </trkpt>
      <trkpt lat="44.404" lon="6.38312">
        <ele>2283</ele>
        <time>2020-07-07T07:51:11.000Z</time>
      </trkpt>
      <trkpt lat="44.40401" lon="6.38311">
        <ele>2283</ele>
        <time>2020-07-07T07:51:12.000Z</time>
      </trkpt>
      <trkpt lat="44.40402" lon="6.3831">
        <ele>2283</ele>
        <time>2020-07-07T07:51:13.000Z</time>
      </trkpt>
      <trkpt lat="44.40402" lon="6.38309">
        <ele>2283</ele>
        <time>2020-07-07T07:51:14.000Z</time>
      </trkpt>
      <trkpt lat="44.40402" lon="6.38307">
        <ele>2283</ele>
        <time>2020-07-07T07:51:15.000Z</time>
      </trkpt>
      <trkpt lat="44.40403" lon="6.38306">
        <ele>2283</ele>
        <time>2020-07-07T07:51:16.000Z</time>
      </trkpt>
      <trkpt lat="44.40403" lon="6.38305">
        <ele>2283</ele>
        <time>2020-07-07T07:51:17.000Z</time>
      </trkpt>
      <trkpt lat="44.40404" lon="6.38305">
        <ele>2283</ele>
        <time>2020-07-07T07:51:18.000Z</time>
      </trkpt>
      <trkpt lat="44.40404" lon="6.38304">
        <ele>2283</ele>
        <time>2020-07-07T07:51:19.000Z</time>
      </trkpt>
      <trkpt lat="44.40405" lon="6.38303">
        <ele>2283</ele>
        <time>2020-07-07T07:51:20.000Z</time>
      </trkpt>
      <trkpt lat="44.40406" lon="6.38302">
        <ele>2284</ele>
        <time>2020-07-07T07:51:21.000Z</time>
      </trkpt>
      <trkpt lat="44.40406" lon="6.38301">
        <ele>2284</ele>
        <time>2020-07-07T07:51:22.000Z</time>
      </trkpt>
      <trkpt lat="44.40407" lon="6.383">
        <ele>2284</ele>
        <time>2020-07-07T07:51:23.000Z</time>
      </trkpt>
      <trkpt lat="44.40407" lon="6.38299">
        <ele>2284</ele>
        <time>2020-07-07T07:51:24.000Z</time>
      </trkpt>
      <trkpt lat="44.40408" lon="6.38298">
        <ele>2284</ele>
        <time>2020-07-07T07:51:25.000Z</time>
      </trkpt>
      <trkpt lat="44.40409" lon="6.38297">
        <ele>2284</ele>
        <time>2020-07-07T07:51:26.000Z</time>
      </trkpt>
      <trkpt lat="44.40409" lon="6.38297">
        <ele>2285</ele>
        <time>2020-07-07T07:51:27.000Z</time>
      </trkpt>
      <trkpt lat="44.4041" lon="6.38296">
        <ele>2285</ele>
        <time>2020-07-07T07:51:28.000Z</time>
      </trkpt>
      <trkpt lat="44.40411" lon="6.38296">
        <ele>2285</ele>
        <time>2020-07-07T07:51:29.000Z</time>
      </trkpt>
      <trkpt lat="44.40412" lon="6.38295">
        <ele>2285</ele>
        <time>2020-07-07T07:51:30.000Z</time>
      </trkpt>
      <trkpt lat="44.40413" lon="6.38295">
        <ele>2285</ele>
        <time>2020-07-07T07:51:31.000Z</time>
      </trkpt>
      <trkpt lat="44.40414" lon="6.38294">
        <ele>2285</ele>
        <time>2020-07-07T07:51:32.000Z</time>
      </trkpt>
      <trkpt lat="44.40414" lon="6.38293">
        <ele>2285</ele>
        <time>2020-07-07T07:51:33.000Z</time>
      </trkpt>
      <trkpt lat="44.40415" lon="6.38292">
        <ele>2285</ele>
        <time>2020-07-07T07:51:34.000Z</time>
      </trkpt>
      <trkpt lat="44.40416" lon="6.38291">
        <ele>2286</ele>
        <time>2020-07-07T07:51:35.000Z</time>
      </trkpt>
      <trkpt lat="44.40416" lon="6.38291">
        <ele>2286</ele>
        <time>2020-07-07T07:51:36.000Z</time>
      </trkpt>
      <trkpt lat="44.40417" lon="6.3829">
        <ele>2286</ele>
        <time>2020-07-07T07:51:37.000Z</time>
      </trkpt>
      <trkpt lat="44.40417" lon="6.38289">
        <ele>2286</ele>
        <time>2020-07-07T07:51:38.000Z</time>
      </trkpt>
      <trkpt lat="44.40418" lon="6.38288">
        <ele>2286</ele>
        <time>2020-07-07T07:51:39.000Z</time>
      </trkpt>
      <trkpt lat="44.40419" lon="6.38287">
        <ele>2286</ele>
        <time>2020-07-07T07:51:40.000Z</time>
      </trkpt>
      <trkpt lat="44.4042" lon="6.38287">
        <ele>2286</ele>
        <time>2020-07-07T07:51:41.000Z</time>
      </trkpt>
      <trkpt lat="44.4042" lon="6.38287">
        <ele>2286</ele>
        <time>2020-07-07T07:51:42.000Z</time>
      </trkpt>
      <trkpt lat="44.40421" lon="6.38286">
        <ele>2286</ele>
        <time>2020-07-07T07:51:43.000Z</time>
      </trkpt>
      <trkpt lat="44.40422" lon="6.38286">
        <ele>2286</ele>
        <time>2020-07-07T07:51:44.000Z</time>
      </trkpt>
      <trkpt lat="44.40423" lon="6.38286">
        <ele>2286</ele>
        <time>2020-07-07T07:51:45.000Z</time>
      </trkpt>
      <trkpt lat="44.40423" lon="6.38285">
        <ele>2286</ele>
        <time>2020-07-07T07:51:46.000Z</time>
      </trkpt>
      <trkpt lat="44.40424" lon="6.38284">
        <ele>2286</ele>
        <time>2020-07-07T07:51:47.000Z</time>
      </trkpt>
      <trkpt lat="44.40425" lon="6.38283">
        <ele>2286</ele>
        <time>2020-07-07T07:51:48.000Z</time>
      </trkpt>
      <trkpt lat="44.40425" lon="6.38283">
        <ele>2286</ele>
        <time>2020-07-07T07:51:49.000Z</time>
      </trkpt>
      <trkpt lat="44.40426" lon="6.38282">
        <ele>2286</ele>
        <time>2020-07-07T07:51:50.000Z</time>
      </trkpt>
      <trkpt lat="44.40427" lon="6.38281">
        <ele>2286</ele>
        <time>2020-07-07T07:51:51.000Z</time>
      </trkpt>
      <trkpt lat="44.40427" lon="6.3828">
        <ele>2286</ele>
        <time>2020-07-07T07:51:52.000Z</time>
      </trkpt>
      <trkpt lat="44.40427" lon="6.3828">
        <ele>2286</ele>
        <time>2020-07-07T07:51:53.000Z</time>
      </trkpt>
      <trkpt lat="44.40427" lon="6.3828">
        <ele>2287</ele>
        <time>2020-07-07T07:51:54.000Z</time>
      </trkpt>
      <trkpt lat="44.40427" lon="6.38279">
        <ele>2287</ele>
        <time>2020-07-07T07:51:55.000Z</time>
      </trkpt>
      <trkpt lat="44.40427" lon="6.38279">
        <ele>2287</ele>
        <time>2020-07-07T07:51:56.000Z</time>
      </trkpt>
      <trkpt lat="44.40427" lon="6.38279">
        <ele>2287</ele>
        <time>2020-07-07T07:51:57.000Z</time>
      </trkpt>
      <trkpt lat="44.40427" lon="6.38279">
        <ele>2287</ele>
        <time>2020-07-07T07:51:58.000Z</time>
      </trkpt>
      <trkpt lat="44.40427" lon="6.38279">
        <ele>2287</ele>
        <time>2020-07-07T07:51:59.000Z</time>
      </trkpt>
      <trkpt lat="44.40427" lon="6.38279">
        <ele>2287</ele>
        <time>2020-07-07T07:52:00.000Z</time>
      </trkpt>
      <trkpt lat="44.40427" lon="6.38278">
        <ele>2287</ele>
        <time>2020-07-07T07:52:01.000Z</time>
      </trkpt>
      <trkpt lat="44.40427" lon="6.38278">
        <ele>2287</ele>
        <time>2020-07-07T07:52:02.000Z</time>
      </trkpt>
      <trkpt lat="44.40427" lon="6.38278">
        <ele>2287</ele>
        <time>2020-07-07T07:52:03.000Z</time>
      </trkpt>
      <trkpt lat="44.40427" lon="6.38278">
        <ele>2287</ele>
        <time>2020-07-07T07:52:04.000Z</time>
      </trkpt>
      <trkpt lat="44.40426" lon="6.38278">
        <ele>2287</ele>
        <time>2020-07-07T07:52:05.000Z</time>
      </trkpt>
      <trkpt lat="44.40426" lon="6.38278">
        <ele>2287</ele>
        <time>2020-07-07T07:52:06.000Z</time>
      </trkpt>
      <trkpt lat="44.40426" lon="6.38278">
        <ele>2287</ele>
        <time>2020-07-07T07:52:07.000Z</time>
      </trkpt>
      <trkpt lat="44.40426" lon="6.38278">
        <ele>2287</ele>
        <time>2020-07-07T07:52:08.000Z</time>
      </trkpt>
      <trkpt lat="44.40426" lon="6.38278">
        <ele>2287</ele>
        <time>2020-07-07T07:52:09.000Z</time>
      </trkpt>
      <trkpt lat="44.40426" lon="6.38278">
        <ele>2287</ele>
        <time>2020-07-07T07:52:10.000Z</time>
      </trkpt>
      <trkpt lat="44.40426" lon="6.38278">
        <ele>2287</ele>
        <time>2020-07-07T07:52:11.000Z</time>
      </trkpt>
      <trkpt lat="44.40426" lon="6.38278">
        <ele>2287</ele>
        <time>2020-07-07T07:52:12.000Z</time>
      </trkpt>
      <trkpt lat="44.40426" lon="6.38278">
        <ele>2287</ele>
        <time>2020-07-07T07:52:13.000Z</time>
      </trkpt>
      <trkpt lat="44.40426" lon="6.38278">
        <ele>2287</ele>
        <time>2020-07-07T07:52:14.000Z</time>
      </trkpt>
      <trkpt lat="44.40426" lon="6.38278">
        <ele>2288</ele>
        <time>2020-07-07T07:52:15.000Z</time>
      </trkpt>
      <trkpt lat="44.40426" lon="6.38278">
        <ele>2288</ele>
        <time>2020-07-07T07:52:16.000Z</time>
      </trkpt>
      <trkpt lat="44.40426" lon="6.38278">
        <ele>2288</ele>
        <time>2020-07-07T07:52:17.000Z</time>
      </trkpt>
      <trkpt lat="44.40426" lon="6.38277">
        <ele>2288</ele>
        <time>2020-07-07T07:52:18.000Z</time>
      </trkpt>
      <trkpt lat="44.40426" lon="6.38278">
        <ele>2288</ele>
        <time>2020-07-07T07:52:19.000Z</time>
      </trkpt>
      <trkpt lat="44.40426" lon="6.38277">
        <ele>2288</ele>
        <time>2020-07-07T07:52:20.000Z</time>
      </trkpt>
      <trkpt lat="44.40426" lon="6.38277">
        <ele>2288</ele>
        <time>2020-07-07T07:52:21.000Z</time>
      </trkpt>
      <trkpt lat="44.40426" lon="6.38278">
        <ele>2288</ele>
        <time>2020-07-07T07:52:22.000Z</time>
      </trkpt>
      <trkpt lat="44.40426" lon="6.38278">
        <ele>2288</ele>
        <time>2020-07-07T07:52:23.000Z</time>
      </trkpt>
      <trkpt lat="44.40426" lon="6.38277">
        <ele>2288</ele>
        <time>2020-07-07T07:52:24.000Z</time>
      </trkpt>
      <trkpt lat="44.40426" lon="6.38277">
        <ele>2288</ele>
        <time>2020-07-07T07:52:25.000Z</time>
      </trkpt>
      <trkpt lat="44.40426" lon="6.38277">
        <ele>2288</ele>
        <time>2020-07-07T07:52:26.000Z</time>
      </trkpt>
      <trkpt lat="44.40426" lon="6.38277">
        <ele>2288</ele>
        <time>2020-07-07T07:52:27.000Z</time>
      </trkpt>
      <trkpt lat="44.40426" lon="6.38277">
        <ele>2288</ele>
        <time>2020-07-07T07:52:28.000Z</time>
      </trkpt>
      <trkpt lat="44.40426" lon="6.38277">
        <ele>2288</ele>
        <time>2020-07-07T07:52:29.000Z</time>
      </trkpt>
      <trkpt lat="44.40426" lon="6.38277">
        <ele>2288</ele>
        <time>2020-07-07T07:52:30.000Z</time>
      </trkpt>
      <trkpt lat="44.40426" lon="6.38278">
        <ele>2288</ele>
        <time>2020-07-07T07:52:31.000Z</time>
      </trkpt>
      <trkpt lat="44.40426" lon="6.38278">
        <ele>2288</ele>
        <time>2020-07-07T07:52:32.000Z</time>
      </trkpt>
      <trkpt lat="44.40426" lon="6.38279">
        <ele>2288</ele>
        <time>2020-07-07T07:52:33.000Z</time>
      </trkpt>
      <trkpt lat="44.40426" lon="6.38279">
        <ele>2288</ele>
        <time>2020-07-07T07:52:34.000Z</time>
      </trkpt>
      <trkpt lat="44.40426" lon="6.38279">
        <ele>2288</ele>
        <time>2020-07-07T07:52:35.000Z</time>
      </trkpt>
      <trkpt lat="44.40426" lon="6.38279">
        <ele>2288</ele>
        <time>2020-07-07T07:52:36.000Z</time>
      </trkpt>
      <trkpt lat="44.40426" lon="6.38279">
        <ele>2288</ele>
        <time>2020-07-07T07:52:37.000Z</time>
      </trkpt>
      <trkpt lat="44.40426" lon="6.38279">
        <ele>2288</ele>
        <time>2020-07-07T07:52:38.000Z</time>
      </trkpt>
      <trkpt lat="44.40426" lon="6.38278">
        <ele>2288</ele>
        <time>2020-07-07T07:52:39.000Z</time>
      </trkpt>
      <trkpt lat="44.40426" lon="6.38278">
        <ele>2288</ele>
        <time>2020-07-07T07:52:40.000Z</time>
      </trkpt>
      <trkpt lat="44.40426" lon="6.38278">
        <ele>2288</ele>
        <time>2020-07-07T07:52:41.000Z</time>
      </trkpt>
      <trkpt lat="44.40426" lon="6.38278">
        <ele>2288</ele>
        <time>2020-07-07T07:52:42.000Z</time>
      </trkpt>
      <trkpt lat="44.40426" lon="6.38278">
        <ele>2288</ele>
        <time>2020-07-07T07:52:43.000Z</time>
      </trkpt>
      <trkpt lat="44.40426" lon="6.38278">
        <ele>2288</ele>
        <time>2020-07-07T07:52:44.000Z</time>
      </trkpt>
      <trkpt lat="44.40426" lon="6.38278">
        <ele>2288</ele>
        <time>2020-07-07T07:52:45.000Z</time>
      </trkpt>
      <trkpt lat="44.40426" lon="6.38278">
        <ele>2288</ele>
        <time>2020-07-07T07:52:46.000Z</time>
      </trkpt>
      <trkpt lat="44.40426" lon="6.38278">
        <ele>2288</ele>
        <time>2020-07-07T07:52:47.000Z</time>
      </trkpt>
      <trkpt lat="44.40426" lon="6.38278">
        <ele>2288</ele>
        <time>2020-07-07T07:52:48.000Z</time>
      </trkpt>
      <trkpt lat="44.40426" lon="6.38278">
        <ele>2289</ele>
        <time>2020-07-07T07:52:49.000Z</time>
      </trkpt>
      <trkpt lat="44.40426" lon="6.38278">
        <ele>2289</ele>
        <time>2020-07-07T07:52:50.000Z</time>
      </trkpt>
      <trkpt lat="44.40426" lon="6.38278">
        <ele>2289</ele>
        <time>2020-07-07T07:52:51.000Z</time>
      </trkpt>
      <trkpt lat="44.40426" lon="6.38278">
        <ele>2289</ele>
        <time>2020-07-07T07:52:52.000Z</time>
      </trkpt>
      <trkpt lat="44.40426" lon="6.38278">
        <ele>2289</ele>
        <time>2020-07-07T07:52:53.000Z</time>
      </trkpt>
      <trkpt lat="44.40426" lon="6.38278">
        <ele>2289</ele>
        <time>2020-07-07T07:52:54.000Z</time>
      </trkpt>
      <trkpt lat="44.40427" lon="6.38278">
        <ele>2289</ele>
        <time>2020-07-07T07:52:55.000Z</time>
      </trkpt>
      <trkpt lat="44.40427" lon="6.38278">
        <ele>2289</ele>
        <time>2020-07-07T07:52:56.000Z</time>
      </trkpt>
      <trkpt lat="44.40426" lon="6.38278">
        <ele>2289</ele>
        <time>2020-07-07T07:52:57.000Z</time>
      </trkpt>
      <trkpt lat="44.40426" lon="6.38278">
        <ele>2289</ele>
        <time>2020-07-07T07:52:58.000Z</time>
      </trkpt>
      <trkpt lat="44.40426" lon="6.38278">
        <ele>2289</ele>
        <time>2020-07-07T07:52:59.000Z</time>
      </trkpt>
      <trkpt lat="44.40426" lon="6.38278">
        <ele>2289</ele>
        <time>2020-07-07T07:53:00.000Z</time>
      </trkpt>
      <trkpt lat="44.40426" lon="6.38278">
        <ele>2289</ele>
        <time>2020-07-07T07:53:01.000Z</time>
      </trkpt>
      <trkpt lat="44.40426" lon="6.38278">
        <ele>2289</ele>
        <time>2020-07-07T07:53:02.000Z</time>
      </trkpt>
      <trkpt lat="44.40426" lon="6.38278">
        <ele>2289</ele>
        <time>2020-07-07T07:53:03.000Z</time>
      </trkpt>
      <trkpt lat="44.40426" lon="6.38278">
        <ele>2289</ele>
        <time>2020-07-07T07:53:04.000Z</time>
      </trkpt>
      <trkpt lat="44.40426" lon="6.38278">
        <ele>2289</ele>
        <time>2020-07-07T07:53:05.000Z</time>
      </trkpt>
      <trkpt lat="44.40426" lon="6.38278">
        <ele>2289</ele>
        <time>2020-07-07T07:53:06.000Z</time>
      </trkpt>
      <trkpt lat="44.40426" lon="6.38278">
        <ele>2289</ele>
        <time>2020-07-07T07:53:07.000Z</time>
      </trkpt>
      <trkpt lat="44.40426" lon="6.38278">
        <ele>2289</ele>
        <time>2020-07-07T07:53:08.000Z</time>
      </trkpt>
      <trkpt lat="44.40426" lon="6.38278">
        <ele>2289</ele>
        <time>2020-07-07T07:53:09.000Z</time>
      </trkpt>
      <trkpt lat="44.40426" lon="6.38278">
        <ele>2289</ele>
        <time>2020-07-07T07:53:10.000Z</time>
      </trkpt>
      <trkpt lat="44.40427" lon="6.38278">
        <ele>2289</ele>
        <time>2020-07-07T07:53:11.000Z</time>
      </trkpt>
      <trkpt lat="44.40427" lon="6.38278">
        <ele>2289</ele>
        <time>2020-07-07T07:53:12.000Z</time>
      </trkpt>
      <trkpt lat="44.40427" lon="6.38278">
        <ele>2289</ele>
        <time>2020-07-07T07:53:13.000Z</time>
      </trkpt>
      <trkpt lat="44.40426" lon="6.38278">
        <ele>2288</ele>
        <time>2020-07-07T07:53:14.000Z</time>
      </trkpt>
      <trkpt lat="44.40427" lon="6.38278">
        <ele>2288</ele>
        <time>2020-07-07T07:53:15.000Z</time>
      </trkpt>
      <trkpt lat="44.40428" lon="6.38276">
        <ele>2288</ele>
        <time>2020-07-07T07:53:16.000Z</time>
      </trkpt>
      <trkpt lat="44.40428" lon="6.38276">
        <ele>2288</ele>
        <time>2020-07-07T07:53:17.000Z</time>
      </trkpt>
      <trkpt lat="44.40429" lon="6.38276">
        <ele>2288</ele>
        <time>2020-07-07T07:53:18.000Z</time>
      </trkpt>
      <trkpt lat="44.40429" lon="6.38275">
        <ele>2288</ele>
        <time>2020-07-07T07:53:19.000Z</time>
      </trkpt>
      <trkpt lat="44.4043" lon="6.38275">
        <ele>2288</ele>
        <time>2020-07-07T07:53:20.000Z</time>
      </trkpt>
      <trkpt lat="44.40431" lon="6.38276">
        <ele>2287</ele>
        <time>2020-07-07T07:53:21.000Z</time>
      </trkpt>
      <trkpt lat="44.40432" lon="6.38277">
        <ele>2287</ele>
        <time>2020-07-07T07:53:22.000Z</time>
      </trkpt>
      <trkpt lat="44.40432" lon="6.38277">
        <ele>2287</ele>
        <time>2020-07-07T07:53:23.000Z</time>
      </trkpt>
      <trkpt lat="44.40432" lon="6.38277">
        <ele>2287</ele>
        <time>2020-07-07T07:53:24.000Z</time>
      </trkpt>
      <trkpt lat="44.40432" lon="6.38278">
        <ele>2287</ele>
        <time>2020-07-07T07:53:25.000Z</time>
      </trkpt>
      <trkpt lat="44.40432" lon="6.38278">
        <ele>2287</ele>
        <time>2020-07-07T07:53:26.000Z</time>
      </trkpt>
      <trkpt lat="44.40432" lon="6.38278">
        <ele>2287</ele>
        <time>2020-07-07T07:53:27.000Z</time>
      </trkpt>
      <trkpt lat="44.40432" lon="6.38278">
        <ele>2287</ele>
        <time>2020-07-07T07:53:28.000Z</time>
      </trkpt>
      <trkpt lat="44.40432" lon="6.38278">
        <ele>2287</ele>
        <time>2020-07-07T07:53:29.000Z</time>
      </trkpt>
      <trkpt lat="44.40432" lon="6.38278">
        <ele>2287</ele>
        <time>2020-07-07T07:53:30.000Z</time>
      </trkpt>
      <trkpt lat="44.40432" lon="6.38278">
        <ele>2287</ele>
        <time>2020-07-07T07:53:31.000Z</time>
      </trkpt>
      <trkpt lat="44.40432" lon="6.38278">
        <ele>2287</ele>
        <time>2020-07-07T07:53:32.000Z</time>
      </trkpt>
      <trkpt lat="44.40432" lon="6.38278">
        <ele>2287</ele>
        <time>2020-07-07T07:53:33.000Z</time>
      </trkpt>
      <trkpt lat="44.40432" lon="6.38278">
        <ele>2287</ele>
        <time>2020-07-07T07:53:34.000Z</time>
      </trkpt>
      <trkpt lat="44.40432" lon="6.38278">
        <ele>2287</ele>
        <time>2020-07-07T07:53:35.000Z</time>
      </trkpt>
      <trkpt lat="44.40432" lon="6.38278">
        <ele>2287</ele>
        <time>2020-07-07T07:53:36.000Z</time>
      </trkpt>
      <trkpt lat="44.40432" lon="6.38278">
        <ele>2287</ele>
        <time>2020-07-07T07:53:37.000Z</time>
      </trkpt>
      <trkpt lat="44.40432" lon="6.38278">
        <ele>2287</ele>
        <time>2020-07-07T07:53:38.000Z</time>
      </trkpt>
      <trkpt lat="44.40432" lon="6.38278">
        <ele>2287</ele>
        <time>2020-07-07T07:53:39.000Z</time>
      </trkpt>
      <trkpt lat="44.40432" lon="6.38278">
        <ele>2287</ele>
        <time>2020-07-07T07:53:40.000Z</time>
      </trkpt>
      <trkpt lat="44.40432" lon="6.38278">
        <ele>2287</ele>
        <time>2020-07-07T07:53:41.000Z</time>
      </trkpt>
      <trkpt lat="44.40432" lon="6.38278">
        <ele>2287</ele>
        <time>2020-07-07T07:53:42.000Z</time>
      </trkpt>
      <trkpt lat="44.40432" lon="6.38278">
        <ele>2287</ele>
        <time>2020-07-07T07:53:43.000Z</time>
      </trkpt>
      <trkpt lat="44.40432" lon="6.38278">
        <ele>2287</ele>
        <time>2020-07-07T07:53:44.000Z</time>
      </trkpt>
      <trkpt lat="44.40432" lon="6.38278">
        <ele>2287</ele>
        <time>2020-07-07T07:53:45.000Z</time>
      </trkpt>
      <trkpt lat="44.40432" lon="6.38278">
        <ele>2287</ele>
        <time>2020-07-07T07:53:46.000Z</time>
      </trkpt>
      <trkpt lat="44.40432" lon="6.38278">
        <ele>2287</ele>
        <time>2020-07-07T07:53:47.000Z</time>
      </trkpt>
      <trkpt lat="44.40432" lon="6.38278">
        <ele>2287</ele>
        <time>2020-07-07T07:53:48.000Z</time>
      </trkpt>
      <trkpt lat="44.40432" lon="6.38278">
        <ele>2287</ele>
        <time>2020-07-07T07:53:49.000Z</time>
      </trkpt>
      <trkpt lat="44.40432" lon="6.38278">
        <ele>2287</ele>
        <time>2020-07-07T07:53:50.000Z</time>
      </trkpt>
      <trkpt lat="44.40432" lon="6.38278">
        <ele>2287</ele>
        <time>2020-07-07T07:53:51.000Z</time>
      </trkpt>
      <trkpt lat="44.40432" lon="6.38278">
        <ele>2287</ele>
        <time>2020-07-07T07:53:52.000Z</time>
      </trkpt>
      <trkpt lat="44.40432" lon="6.38278">
        <ele>2287</ele>
        <time>2020-07-07T07:53:53.000Z</time>
      </trkpt>
      <trkpt lat="44.40432" lon="6.38278">
        <ele>2287</ele>
        <time>2020-07-07T07:53:54.000Z</time>
      </trkpt>
      <trkpt lat="44.40432" lon="6.38277">
        <ele>2287</ele>
        <time>2020-07-07T07:53:55.000Z</time>
      </trkpt>
      <trkpt lat="44.40432" lon="6.38277">
        <ele>2287</ele>
        <time>2020-07-07T07:53:56.000Z</time>
      </trkpt>
      <trkpt lat="44.40432" lon="6.38277">
        <ele>2287</ele>
        <time>2020-07-07T07:53:57.000Z</time>
      </trkpt>
      <trkpt lat="44.40432" lon="6.38277">
        <ele>2287</ele>
        <time>2020-07-07T07:53:58.000Z</time>
      </trkpt>
      <trkpt lat="44.40432" lon="6.38277">
        <ele>2287</ele>
        <time>2020-07-07T07:53:59.000Z</time>
      </trkpt>
      <trkpt lat="44.40432" lon="6.38277">
        <ele>2287</ele>
        <time>2020-07-07T07:54:00.000Z</time>
      </trkpt>
      <trkpt lat="44.40432" lon="6.38277">
        <ele>2287</ele>
        <time>2020-07-07T07:54:01.000Z</time>
      </trkpt>
      <trkpt lat="44.40432" lon="6.38277">
        <ele>2287</ele>
        <time>2020-07-07T07:54:02.000Z</time>
      </trkpt>
      <trkpt lat="44.40431" lon="6.38277">
        <ele>2287</ele>
        <time>2020-07-07T07:54:03.000Z</time>
      </trkpt>
      <trkpt lat="44.40431" lon="6.38277">
        <ele>2287</ele>
        <time>2020-07-07T07:54:04.000Z</time>
      </trkpt>
      <trkpt lat="44.40432" lon="6.38277">
        <ele>2287</ele>
        <time>2020-07-07T07:54:05.000Z</time>
      </trkpt>
      <trkpt lat="44.40432" lon="6.38277">
        <ele>2287</ele>
        <time>2020-07-07T07:54:06.000Z</time>
      </trkpt>
      <trkpt lat="44.40432" lon="6.38277">
        <ele>2287</ele>
        <time>2020-07-07T07:54:07.000Z</time>
      </trkpt>
      <trkpt lat="44.40432" lon="6.38277">
        <ele>2287</ele>
        <time>2020-07-07T07:54:08.000Z</time>
      </trkpt>
      <trkpt lat="44.40432" lon="6.38277">
        <ele>2287</ele>
        <time>2020-07-07T07:54:09.000Z</time>
      </trkpt>
      <trkpt lat="44.40432" lon="6.38277">
        <ele>2287</ele>
        <time>2020-07-07T07:54:10.000Z</time>
      </trkpt>
      <trkpt lat="44.40432" lon="6.38277">
        <ele>2287</ele>
        <time>2020-07-07T07:54:11.000Z</time>
      </trkpt>
      <trkpt lat="44.40432" lon="6.38277">
        <ele>2287</ele>
        <time>2020-07-07T07:54:12.000Z</time>
      </trkpt>
      <trkpt lat="44.40432" lon="6.38277">
        <ele>2287</ele>
        <time>2020-07-07T07:54:13.000Z</time>
      </trkpt>
      <trkpt lat="44.40432" lon="6.38277">
        <ele>2287</ele>
        <time>2020-07-07T07:54:14.000Z</time>
      </trkpt>
      <trkpt lat="44.40432" lon="6.38277">
        <ele>2287</ele>
        <time>2020-07-07T07:54:15.000Z</time>
      </trkpt>
      <trkpt lat="44.40432" lon="6.38277">
        <ele>2287</ele>
        <time>2020-07-07T07:54:16.000Z</time>
      </trkpt>
      <trkpt lat="44.40432" lon="6.38277">
        <ele>2287</ele>
        <time>2020-07-07T07:54:17.000Z</time>
      </trkpt>
      <trkpt lat="44.40432" lon="6.38277">
        <ele>2287</ele>
        <time>2020-07-07T07:54:18.000Z</time>
      </trkpt>
      <trkpt lat="44.40432" lon="6.38277">
        <ele>2287</ele>
        <time>2020-07-07T07:54:19.000Z</time>
      </trkpt>
      <trkpt lat="44.40432" lon="6.38277">
        <ele>2287</ele>
        <time>2020-07-07T07:54:20.000Z</time>
      </trkpt>
      <trkpt lat="44.40432" lon="6.38277">
        <ele>2287</ele>
        <time>2020-07-07T07:54:21.000Z</time>
      </trkpt>
      <trkpt lat="44.40432" lon="6.38277">
        <ele>2287</ele>
        <time>2020-07-07T07:54:22.000Z</time>
      </trkpt>
      <trkpt lat="44.40432" lon="6.38277">
        <ele>2287</ele>
        <time>2020-07-07T07:54:23.000Z</time>
      </trkpt>
      <trkpt lat="44.40432" lon="6.38277">
        <ele>2287</ele>
        <time>2020-07-07T07:54:24.000Z</time>
      </trkpt>
      <trkpt lat="44.40432" lon="6.38277">
        <ele>2287</ele>
        <time>2020-07-07T07:54:25.000Z</time>
      </trkpt>
      <trkpt lat="44.40432" lon="6.38277">
        <ele>2287</ele>
        <time>2020-07-07T07:54:26.000Z</time>
      </trkpt>
      <trkpt lat="44.40432" lon="6.38277">
        <ele>2287</ele>
        <time>2020-07-07T07:54:27.000Z</time>
      </trkpt>
      <trkpt lat="44.40432" lon="6.38277">
        <ele>2287</ele>
        <time>2020-07-07T07:54:28.000Z</time>
      </trkpt>
      <trkpt lat="44.40432" lon="6.38278">
        <ele>2287</ele>
        <time>2020-07-07T07:54:29.000Z</time>
      </trkpt>
      <trkpt lat="44.40432" lon="6.38278">
        <ele>2287</ele>
        <time>2020-07-07T07:54:30.000Z</time>
      </trkpt>
      <trkpt lat="44.40432" lon="6.38278">
        <ele>2287</ele>
        <time>2020-07-07T07:54:31.000Z</time>
      </trkpt>
      <trkpt lat="44.40432" lon="6.38278">
        <ele>2287</ele>
        <time>2020-07-07T07:54:32.000Z</time>
      </trkpt>
      <trkpt lat="44.40432" lon="6.38278">
        <ele>2287</ele>
        <time>2020-07-07T07:54:33.000Z</time>
      </trkpt>
      <trkpt lat="44.40432" lon="6.38278">
        <ele>2287</ele>
        <time>2020-07-07T07:54:34.000Z</time>
      </trkpt>
      <trkpt lat="44.40432" lon="6.38278">
        <ele>2287</ele>
        <time>2020-07-07T07:54:35.000Z</time>
      </trkpt>
      <trkpt lat="44.40432" lon="6.38278">
        <ele>2287</ele>
        <time>2020-07-07T07:54:36.000Z</time>
      </trkpt>
      <trkpt lat="44.40432" lon="6.38277">
        <ele>2287</ele>
        <time>2020-07-07T07:54:37.000Z</time>
      </trkpt>
      <trkpt lat="44.40432" lon="6.38277">
        <ele>2287</ele>
        <time>2020-07-07T07:54:38.000Z</time>
      </trkpt>
      <trkpt lat="44.40432" lon="6.38277">
        <ele>2287</ele>
        <time>2020-07-07T07:54:39.000Z</time>
      </trkpt>
      <trkpt lat="44.40432" lon="6.38277">
        <ele>2287</ele>
        <time>2020-07-07T07:54:40.000Z</time>
      </trkpt>
      <trkpt lat="44.40432" lon="6.38277">
        <ele>2287</ele>
        <time>2020-07-07T07:54:41.000Z</time>
      </trkpt>
      <trkpt lat="44.40432" lon="6.38277">
        <ele>2287</ele>
        <time>2020-07-07T07:54:42.000Z</time>
      </trkpt>
      <trkpt lat="44.40432" lon="6.38277">
        <ele>2287</ele>
        <time>2020-07-07T07:54:43.000Z</time>
      </trkpt>
      <trkpt lat="44.40432" lon="6.38277">
        <ele>2287</ele>
        <time>2020-07-07T07:54:44.000Z</time>
      </trkpt>
      <trkpt lat="44.40432" lon="6.38277">
        <ele>2288</ele>
        <time>2020-07-07T07:54:45.000Z</time>
      </trkpt>
      <trkpt lat="44.40432" lon="6.38277">
        <ele>2288</ele>
        <time>2020-07-07T07:54:46.000Z</time>
      </trkpt>
      <trkpt lat="44.40432" lon="6.38277">
        <ele>2288</ele>
        <time>2020-07-07T07:54:47.000Z</time>
      </trkpt>
      <trkpt lat="44.40432" lon="6.38277">
        <ele>2288</ele>
        <time>2020-07-07T07:54:48.000Z</time>
      </trkpt>
      <trkpt lat="44.40432" lon="6.38277">
        <ele>2288</ele>
        <time>2020-07-07T07:54:49.000Z</time>
      </trkpt>
      <trkpt lat="44.40432" lon="6.38277">
        <ele>2288</ele>
        <time>2020-07-07T07:54:50.000Z</time>
      </trkpt>
      <trkpt lat="44.40432" lon="6.38277">
        <ele>2288</ele>
        <time>2020-07-07T07:54:51.000Z</time>
      </trkpt>
      <trkpt lat="44.40432" lon="6.38278">
        <ele>2288</ele>
        <time>2020-07-07T07:54:52.000Z</time>
      </trkpt>
      <trkpt lat="44.40432" lon="6.38277">
        <ele>2288</ele>
        <time>2020-07-07T07:54:53.000Z</time>
      </trkpt>
      <trkpt lat="44.40432" lon="6.38277">
        <ele>2288</ele>
        <time>2020-07-07T07:54:54.000Z</time>
      </trkpt>
      <trkpt lat="44.40433" lon="6.38277">
        <ele>2288</ele>
        <time>2020-07-07T07:54:55.000Z</time>
      </trkpt>
      <trkpt lat="44.40433" lon="6.38277">
        <ele>2288</ele>
        <time>2020-07-07T07:54:56.000Z</time>
      </trkpt>
      <trkpt lat="44.40434" lon="6.38277">
        <ele>2288</ele>
        <time>2020-07-07T07:54:57.000Z</time>
      </trkpt>
      <trkpt lat="44.40435" lon="6.38277">
        <ele>2288</ele>
        <time>2020-07-07T07:54:58.000Z</time>
      </trkpt>
      <trkpt lat="44.40435" lon="6.38277">
        <ele>2288</ele>
        <time>2020-07-07T07:54:59.000Z</time>
      </trkpt>
      <trkpt lat="44.40436" lon="6.38278">
        <ele>2288</ele>
        <time>2020-07-07T07:55:00.000Z</time>
      </trkpt>
      <trkpt lat="44.40437" lon="6.38277">
        <ele>2288</ele>
        <time>2020-07-07T07:55:01.000Z</time>
      </trkpt>
      <trkpt lat="44.40438" lon="6.38277">
        <ele>2288</ele>
        <time>2020-07-07T07:55:02.000Z</time>
      </trkpt>
      <trkpt lat="44.40439" lon="6.38277">
        <ele>2288</ele>
        <time>2020-07-07T07:55:03.000Z</time>
      </trkpt>
      <trkpt lat="44.4044" lon="6.38277">
        <ele>2288</ele>
        <time>2020-07-07T07:55:04.000Z</time>
      </trkpt>
      <trkpt lat="44.40441" lon="6.38277">
        <ele>2288</ele>
        <time>2020-07-07T07:55:05.000Z</time>
      </trkpt>
      <trkpt lat="44.40442" lon="6.38276">
        <ele>2288</ele>
        <time>2020-07-07T07:55:06.000Z</time>
      </trkpt>
      <trkpt lat="44.40443" lon="6.38275">
        <ele>2288</ele>
        <time>2020-07-07T07:55:07.000Z</time>
      </trkpt>
      <trkpt lat="44.40444" lon="6.38275">
        <ele>2288</ele>
        <time>2020-07-07T07:55:08.000Z</time>
      </trkpt>
      <trkpt lat="44.40444" lon="6.38275">
        <ele>2289</ele>
        <time>2020-07-07T07:55:09.000Z</time>
      </trkpt>
      <trkpt lat="44.40445" lon="6.38275">
        <ele>2289</ele>
        <time>2020-07-07T07:55:10.000Z</time>
      </trkpt>
      <trkpt lat="44.40446" lon="6.38275">
        <ele>2289</ele>
        <time>2020-07-07T07:55:11.000Z</time>
      </trkpt>
      <trkpt lat="44.40446" lon="6.38274">
        <ele>2289</ele>
        <time>2020-07-07T07:55:12.000Z</time>
      </trkpt>
      <trkpt lat="44.40447" lon="6.38274">
        <ele>2289</ele>
        <time>2020-07-07T07:55:13.000Z</time>
      </trkpt>
      <trkpt lat="44.40448" lon="6.38274">
        <ele>2289</ele>
        <time>2020-07-07T07:55:14.000Z</time>
      </trkpt>
      <trkpt lat="44.40448" lon="6.38274">
        <ele>2289</ele>
        <time>2020-07-07T07:55:15.000Z</time>
      </trkpt>
      <trkpt lat="44.40449" lon="6.38274">
        <ele>2289</ele>
        <time>2020-07-07T07:55:16.000Z</time>
      </trkpt>
      <trkpt lat="44.4045" lon="6.38274">
        <ele>2289</ele>
        <time>2020-07-07T07:55:17.000Z</time>
      </trkpt>
      <trkpt lat="44.40451" lon="6.38274">
        <ele>2289</ele>
        <time>2020-07-07T07:55:18.000Z</time>
      </trkpt>
      <trkpt lat="44.40451" lon="6.38273">
        <ele>2290</ele>
        <time>2020-07-07T07:55:19.000Z</time>
      </trkpt>
      <trkpt lat="44.40452" lon="6.38273">
        <ele>2290</ele>
        <time>2020-07-07T07:55:20.000Z</time>
      </trkpt>
      <trkpt lat="44.40453" lon="6.38273">
        <ele>2290</ele>
        <time>2020-07-07T07:55:21.000Z</time>
      </trkpt>
      <trkpt lat="44.40453" lon="6.38273">
        <ele>2290</ele>
        <time>2020-07-07T07:55:22.000Z</time>
      </trkpt>
      <trkpt lat="44.40454" lon="6.38273">
        <ele>2290</ele>
        <time>2020-07-07T07:55:23.000Z</time>
      </trkpt>
      <trkpt lat="44.40455" lon="6.38273">
        <ele>2290</ele>
        <time>2020-07-07T07:55:24.000Z</time>
      </trkpt>
      <trkpt lat="44.40456" lon="6.38273">
        <ele>2290</ele>
        <time>2020-07-07T07:55:25.000Z</time>
      </trkpt>
      <trkpt lat="44.40456" lon="6.38272">
        <ele>2290</ele>
        <time>2020-07-07T07:55:26.000Z</time>
      </trkpt>
      <trkpt lat="44.40457" lon="6.38272">
        <ele>2290</ele>
        <time>2020-07-07T07:55:27.000Z</time>
      </trkpt>
      <trkpt lat="44.40458" lon="6.38272">
        <ele>2290</ele>
        <time>2020-07-07T07:55:28.000Z</time>
      </trkpt>
      <trkpt lat="44.40459" lon="6.38272">
        <ele>2290</ele>
        <time>2020-07-07T07:55:29.000Z</time>
      </trkpt>
      <trkpt lat="44.4046" lon="6.38272">
        <ele>2290</ele>
        <time>2020-07-07T07:55:30.000Z</time>
      </trkpt>
      <trkpt lat="44.40461" lon="6.38272">
        <ele>2290</ele>
        <time>2020-07-07T07:55:31.000Z</time>
      </trkpt>
      <trkpt lat="44.40461" lon="6.38271">
        <ele>2290</ele>
        <time>2020-07-07T07:55:32.000Z</time>
      </trkpt>
      <trkpt lat="44.40462" lon="6.38271">
        <ele>2290</ele>
        <time>2020-07-07T07:55:33.000Z</time>
      </trkpt>
      <trkpt lat="44.40463" lon="6.38271">
        <ele>2290</ele>
        <time>2020-07-07T07:55:34.000Z</time>
      </trkpt>
      <trkpt lat="44.40463" lon="6.38271">
        <ele>2290</ele>
        <time>2020-07-07T07:55:35.000Z</time>
      </trkpt>
      <trkpt lat="44.40464" lon="6.38271">
        <ele>2290</ele>
        <time>2020-07-07T07:55:36.000Z</time>
      </trkpt>
      <trkpt lat="44.40465" lon="6.38271">
        <ele>2290</ele>
        <time>2020-07-07T07:55:37.000Z</time>
      </trkpt>
      <trkpt lat="44.40465" lon="6.3827">
        <ele>2290</ele>
        <time>2020-07-07T07:55:38.000Z</time>
      </trkpt>
      <trkpt lat="44.40466" lon="6.3827">
        <ele>2290</ele>
        <time>2020-07-07T07:55:39.000Z</time>
      </trkpt>
      <trkpt lat="44.40467" lon="6.3827">
        <ele>2290</ele>
        <time>2020-07-07T07:55:40.000Z</time>
      </trkpt>
      <trkpt lat="44.40468" lon="6.3827">
        <ele>2290</ele>
        <time>2020-07-07T07:55:41.000Z</time>
      </trkpt>
      <trkpt lat="44.40468" lon="6.3827">
        <ele>2290</ele>
        <time>2020-07-07T07:55:42.000Z</time>
      </trkpt>
      <trkpt lat="44.40469" lon="6.3827">
        <ele>2290</ele>
        <time>2020-07-07T07:55:43.000Z</time>
      </trkpt>
      <trkpt lat="44.4047" lon="6.3827">
        <ele>2290</ele>
        <time>2020-07-07T07:55:44.000Z</time>
      </trkpt>
      <trkpt lat="44.40471" lon="6.3827">
        <ele>2291</ele>
        <time>2020-07-07T07:55:45.000Z</time>
      </trkpt>
      <trkpt lat="44.40471" lon="6.38269">
        <ele>2291</ele>
        <time>2020-07-07T07:55:46.000Z</time>
      </trkpt>
      <trkpt lat="44.40472" lon="6.38269">
        <ele>2291</ele>
        <time>2020-07-07T07:55:47.000Z</time>
      </trkpt>
      <trkpt lat="44.40473" lon="6.38269">
        <ele>2291</ele>
        <time>2020-07-07T07:55:48.000Z</time>
      </trkpt>
      <trkpt lat="44.40473" lon="6.38269">
        <ele>2291</ele>
        <time>2020-07-07T07:55:49.000Z</time>
      </trkpt>
      <trkpt lat="44.40474" lon="6.38268">
        <ele>2291</ele>
        <time>2020-07-07T07:55:50.000Z</time>
      </trkpt>
      <trkpt lat="44.40475" lon="6.38268">
        <ele>2291</ele>
        <time>2020-07-07T07:55:51.000Z</time>
      </trkpt>
      <trkpt lat="44.40475" lon="6.38268">
        <ele>2291</ele>
        <time>2020-07-07T07:55:52.000Z</time>
      </trkpt>
      <trkpt lat="44.40476" lon="6.38267">
        <ele>2292</ele>
        <time>2020-07-07T07:55:53.000Z</time>
      </trkpt>
      <trkpt lat="44.40476" lon="6.38267">
        <ele>2292</ele>
        <time>2020-07-07T07:55:54.000Z</time>
      </trkpt>
      <trkpt lat="44.40477" lon="6.38266">
        <ele>2292</ele>
        <time>2020-07-07T07:55:55.000Z</time>
      </trkpt>
      <trkpt lat="44.40478" lon="6.38266">
        <ele>2292</ele>
        <time>2020-07-07T07:55:56.000Z</time>
      </trkpt>
      <trkpt lat="44.40479" lon="6.38266">
        <ele>2292</ele>
        <time>2020-07-07T07:55:57.000Z</time>
      </trkpt>
      <trkpt lat="44.40479" lon="6.38265">
        <ele>2292</ele>
        <time>2020-07-07T07:55:58.000Z</time>
      </trkpt>
      <trkpt lat="44.4048" lon="6.38265">
        <ele>2293</ele>
        <time>2020-07-07T07:55:59.000Z</time>
      </trkpt>
      <trkpt lat="44.40481" lon="6.38265">
        <ele>2293</ele>
        <time>2020-07-07T07:56:00.000Z</time>
      </trkpt>
      <trkpt lat="44.40482" lon="6.38264">
        <ele>2293</ele>
        <time>2020-07-07T07:56:01.000Z</time>
      </trkpt>
      <trkpt lat="44.40482" lon="6.38264">
        <ele>2293</ele>
        <time>2020-07-07T07:56:02.000Z</time>
      </trkpt>
      <trkpt lat="44.40483" lon="6.38264">
        <ele>2293</ele>
        <time>2020-07-07T07:56:03.000Z</time>
      </trkpt>
      <trkpt lat="44.40483" lon="6.38264">
        <ele>2294</ele>
        <time>2020-07-07T07:56:04.000Z</time>
      </trkpt>
      <trkpt lat="44.40484" lon="6.38263">
        <ele>2294</ele>
        <time>2020-07-07T07:56:05.000Z</time>
      </trkpt>
      <trkpt lat="44.40485" lon="6.38263">
        <ele>2294</ele>
        <time>2020-07-07T07:56:06.000Z</time>
      </trkpt>
      <trkpt lat="44.40485" lon="6.38263">
        <ele>2294</ele>
        <time>2020-07-07T07:56:07.000Z</time>
      </trkpt>
      <trkpt lat="44.40485" lon="6.38262">
        <ele>2294</ele>
        <time>2020-07-07T07:56:08.000Z</time>
      </trkpt>
      <trkpt lat="44.40486" lon="6.38261">
        <ele>2294</ele>
        <time>2020-07-07T07:56:09.000Z</time>
      </trkpt>
      <trkpt lat="44.40486" lon="6.3826">
        <ele>2295</ele>
        <time>2020-07-07T07:56:10.000Z</time>
      </trkpt>
      <trkpt lat="44.40487" lon="6.3826">
        <ele>2295</ele>
        <time>2020-07-07T07:56:11.000Z</time>
      </trkpt>
      <trkpt lat="44.40489" lon="6.3826">
        <ele>2295</ele>
        <time>2020-07-07T07:56:12.000Z</time>
      </trkpt>
      <trkpt lat="44.40489" lon="6.38259">
        <ele>2295</ele>
        <time>2020-07-07T07:56:13.000Z</time>
      </trkpt>
      <trkpt lat="44.4049" lon="6.38258">
        <ele>2295</ele>
        <time>2020-07-07T07:56:14.000Z</time>
      </trkpt>
      <trkpt lat="44.40491" lon="6.38258">
        <ele>2295</ele>
        <time>2020-07-07T07:56:15.000Z</time>
      </trkpt>
      <trkpt lat="44.40491" lon="6.38258">
        <ele>2295</ele>
        <time>2020-07-07T07:56:16.000Z</time>
      </trkpt>
      <trkpt lat="44.40492" lon="6.38257">
        <ele>2295</ele>
        <time>2020-07-07T07:56:17.000Z</time>
      </trkpt>
      <trkpt lat="44.40493" lon="6.38256">
        <ele>2295</ele>
        <time>2020-07-07T07:56:18.000Z</time>
      </trkpt>
      <trkpt lat="44.40493" lon="6.38256">
        <ele>2296</ele>
        <time>2020-07-07T07:56:19.000Z</time>
      </trkpt>
      <trkpt lat="44.40494" lon="6.38255">
        <ele>2296</ele>
        <time>2020-07-07T07:56:20.000Z</time>
      </trkpt>
      <trkpt lat="44.40494" lon="6.38255">
        <ele>2296</ele>
        <time>2020-07-07T07:56:21.000Z</time>
      </trkpt>
      <trkpt lat="44.40495" lon="6.38255">
        <ele>2296</ele>
        <time>2020-07-07T07:56:22.000Z</time>
      </trkpt>
      <trkpt lat="44.40495" lon="6.38254">
        <ele>2296</ele>
        <time>2020-07-07T07:56:23.000Z</time>
      </trkpt>
      <trkpt lat="44.40496" lon="6.38253">
        <ele>2296</ele>
        <time>2020-07-07T07:56:24.000Z</time>
      </trkpt>
      <trkpt lat="44.40497" lon="6.38253">
        <ele>2296</ele>
        <time>2020-07-07T07:56:25.000Z</time>
      </trkpt>
      <trkpt lat="44.40497" lon="6.38253">
        <ele>2296</ele>
        <time>2020-07-07T07:56:26.000Z</time>
      </trkpt>
      <trkpt lat="44.40498" lon="6.38252">
        <ele>2297</ele>
        <time>2020-07-07T07:56:27.000Z</time>
      </trkpt>
      <trkpt lat="44.405" lon="6.3825">
        <ele>2297</ele>
        <time>2020-07-07T07:56:28.000Z</time>
      </trkpt>
      <trkpt lat="44.405" lon="6.3825">
        <ele>2297</ele>
        <time>2020-07-07T07:56:29.000Z</time>
      </trkpt>
      <trkpt lat="44.40501" lon="6.38249">
        <ele>2298</ele>
        <time>2020-07-07T07:56:30.000Z</time>
      </trkpt>
      <trkpt lat="44.40502" lon="6.38249">
        <ele>2298</ele>
        <time>2020-07-07T07:56:31.000Z</time>
      </trkpt>
      <trkpt lat="44.40502" lon="6.38249">
        <ele>2298</ele>
        <time>2020-07-07T07:56:32.000Z</time>
      </trkpt>
      <trkpt lat="44.40503" lon="6.38248">
        <ele>2298</ele>
        <time>2020-07-07T07:56:33.000Z</time>
      </trkpt>
      <trkpt lat="44.40503" lon="6.38248">
        <ele>2299</ele>
        <time>2020-07-07T07:56:34.000Z</time>
      </trkpt>
      <trkpt lat="44.40503" lon="6.38248">
        <ele>2299</ele>
        <time>2020-07-07T07:56:35.000Z</time>
      </trkpt>
      <trkpt lat="44.40505" lon="6.38247">
        <ele>2299</ele>
        <time>2020-07-07T07:56:36.000Z</time>
      </trkpt>
      <trkpt lat="44.40505" lon="6.38247">
        <ele>2299</ele>
        <time>2020-07-07T07:56:37.000Z</time>
      </trkpt>
      <trkpt lat="44.40505" lon="6.38247">
        <ele>2299</ele>
        <time>2020-07-07T07:56:38.000Z</time>
      </trkpt>
      <trkpt lat="44.40507" lon="6.38247">
        <ele>2300</ele>
        <time>2020-07-07T07:56:39.000Z</time>
      </trkpt>
      <trkpt lat="44.40507" lon="6.38247">
        <ele>2300</ele>
        <time>2020-07-07T07:56:40.000Z</time>
      </trkpt>
      <trkpt lat="44.40508" lon="6.38247">
        <ele>2300</ele>
        <time>2020-07-07T07:56:41.000Z</time>
      </trkpt>
      <trkpt lat="44.40509" lon="6.38247">
        <ele>2300</ele>
        <time>2020-07-07T07:56:42.000Z</time>
      </trkpt>
      <trkpt lat="44.40509" lon="6.38247">
        <ele>2300</ele>
        <time>2020-07-07T07:56:43.000Z</time>
      </trkpt>
      <trkpt lat="44.4051" lon="6.38247">
        <ele>2300</ele>
        <time>2020-07-07T07:56:44.000Z</time>
      </trkpt>
      <trkpt lat="44.40511" lon="6.38247">
        <ele>2301</ele>
        <time>2020-07-07T07:56:45.000Z</time>
      </trkpt>
      <trkpt lat="44.40511" lon="6.38247">
        <ele>2301</ele>
        <time>2020-07-07T07:56:46.000Z</time>
      </trkpt>
      <trkpt lat="44.40512" lon="6.38247">
        <ele>2301</ele>
        <time>2020-07-07T07:56:47.000Z</time>
      </trkpt>
      <trkpt lat="44.40513" lon="6.38247">
        <ele>2301</ele>
        <time>2020-07-07T07:56:48.000Z</time>
      </trkpt>
      <trkpt lat="44.40513" lon="6.38247">
        <ele>2301</ele>
        <time>2020-07-07T07:56:49.000Z</time>
      </trkpt>
      <trkpt lat="44.40514" lon="6.38247">
        <ele>2301</ele>
        <time>2020-07-07T07:56:50.000Z</time>
      </trkpt>
      <trkpt lat="44.40515" lon="6.38247">
        <ele>2301</ele>
        <time>2020-07-07T07:56:51.000Z</time>
      </trkpt>
      <trkpt lat="44.40515" lon="6.38247">
        <ele>2302</ele>
        <time>2020-07-07T07:56:52.000Z</time>
      </trkpt>
      <trkpt lat="44.40516" lon="6.38247">
        <ele>2302</ele>
        <time>2020-07-07T07:56:53.000Z</time>
      </trkpt>
      <trkpt lat="44.40517" lon="6.38246">
        <ele>2302</ele>
        <time>2020-07-07T07:56:54.000Z</time>
      </trkpt>
      <trkpt lat="44.40517" lon="6.38246">
        <ele>2302</ele>
        <time>2020-07-07T07:56:55.000Z</time>
      </trkpt>
      <trkpt lat="44.40518" lon="6.38246">
        <ele>2302</ele>
        <time>2020-07-07T07:56:56.000Z</time>
      </trkpt>
      <trkpt lat="44.40519" lon="6.38246">
        <ele>2303</ele>
        <time>2020-07-07T07:56:57.000Z</time>
      </trkpt>
      <trkpt lat="44.4052" lon="6.38246">
        <ele>2303</ele>
        <time>2020-07-07T07:56:58.000Z</time>
      </trkpt>
      <trkpt lat="44.40521" lon="6.38246">
        <ele>2303</ele>
        <time>2020-07-07T07:56:59.000Z</time>
      </trkpt>
      <trkpt lat="44.40522" lon="6.38247">
        <ele>2303</ele>
        <time>2020-07-07T07:57:00.000Z</time>
      </trkpt>
      <trkpt lat="44.40523" lon="6.38247">
        <ele>2303</ele>
        <time>2020-07-07T07:57:01.000Z</time>
      </trkpt>
      <trkpt lat="44.40523" lon="6.38246">
        <ele>2303</ele>
        <time>2020-07-07T07:57:02.000Z</time>
      </trkpt>
      <trkpt lat="44.40523" lon="6.38246">
        <ele>2302</ele>
        <time>2020-07-07T07:57:03.000Z</time>
      </trkpt>
      <trkpt lat="44.40523" lon="6.38246">
        <ele>2302</ele>
        <time>2020-07-07T07:57:04.000Z</time>
      </trkpt>
      <trkpt lat="44.40523" lon="6.38246">
        <ele>2302</ele>
        <time>2020-07-07T07:57:05.000Z</time>
      </trkpt>
      <trkpt lat="44.40523" lon="6.38246">
        <ele>2303</ele>
        <time>2020-07-07T07:57:06.000Z</time>
      </trkpt>
      <trkpt lat="44.40523" lon="6.38246">
        <ele>2303</ele>
        <time>2020-07-07T07:57:07.000Z</time>
      </trkpt>
      <trkpt lat="44.40523" lon="6.38245">
        <ele>2303</ele>
        <time>2020-07-07T07:57:08.000Z</time>
      </trkpt>
      <trkpt lat="44.40523" lon="6.38246">
        <ele>2303</ele>
        <time>2020-07-07T07:57:09.000Z</time>
      </trkpt>
      <trkpt lat="44.40523" lon="6.38245">
        <ele>2302</ele>
        <time>2020-07-07T07:57:10.000Z</time>
      </trkpt>
      <trkpt lat="44.40524" lon="6.38245">
        <ele>2302</ele>
        <time>2020-07-07T07:57:11.000Z</time>
      </trkpt>
      <trkpt lat="44.40525" lon="6.38245">
        <ele>2303</ele>
        <time>2020-07-07T07:57:12.000Z</time>
      </trkpt>
      <trkpt lat="44.40525" lon="6.38245">
        <ele>2303</ele>
        <time>2020-07-07T07:57:13.000Z</time>
      </trkpt>
      <trkpt lat="44.40526" lon="6.38244">
        <ele>2303</ele>
        <time>2020-07-07T07:57:14.000Z</time>
      </trkpt>
      <trkpt lat="44.40527" lon="6.38244">
        <ele>2303</ele>
        <time>2020-07-07T07:57:15.000Z</time>
      </trkpt>
      <trkpt lat="44.40527" lon="6.38244">
        <ele>2303</ele>
        <time>2020-07-07T07:57:16.000Z</time>
      </trkpt>
      <trkpt lat="44.40528" lon="6.38243">
        <ele>2303</ele>
        <time>2020-07-07T07:57:17.000Z</time>
      </trkpt>
      <trkpt lat="44.40529" lon="6.38242">
        <ele>2303</ele>
        <time>2020-07-07T07:57:18.000Z</time>
      </trkpt>
      <trkpt lat="44.40529" lon="6.38242">
        <ele>2303</ele>
        <time>2020-07-07T07:57:19.000Z</time>
      </trkpt>
      <trkpt lat="44.4053" lon="6.38241">
        <ele>2303</ele>
        <time>2020-07-07T07:57:20.000Z</time>
      </trkpt>
      <trkpt lat="44.40531" lon="6.38241">
        <ele>2303</ele>
        <time>2020-07-07T07:57:21.000Z</time>
      </trkpt>
      <trkpt lat="44.40531" lon="6.38241">
        <ele>2303</ele>
        <time>2020-07-07T07:57:22.000Z</time>
      </trkpt>
      <trkpt lat="44.40533" lon="6.3824">
        <ele>2303</ele>
        <time>2020-07-07T07:57:23.000Z</time>
      </trkpt>
      <trkpt lat="44.40533" lon="6.3824">
        <ele>2303</ele>
        <time>2020-07-07T07:57:24.000Z</time>
      </trkpt>
      <trkpt lat="44.40534" lon="6.38239">
        <ele>2303</ele>
        <time>2020-07-07T07:57:25.000Z</time>
      </trkpt>
      <trkpt lat="44.40535" lon="6.38239">
        <ele>2303</ele>
        <time>2020-07-07T07:57:26.000Z</time>
      </trkpt>
      <trkpt lat="44.40536" lon="6.38239">
        <ele>2304</ele>
        <time>2020-07-07T07:57:27.000Z</time>
      </trkpt>
      <trkpt lat="44.40537" lon="6.38239">
        <ele>2304</ele>
        <time>2020-07-07T07:57:28.000Z</time>
      </trkpt>
      <trkpt lat="44.40538" lon="6.38239">
        <ele>2304</ele>
        <time>2020-07-07T07:57:29.000Z</time>
      </trkpt>
      <trkpt lat="44.40538" lon="6.38239">
        <ele>2304</ele>
        <time>2020-07-07T07:57:30.000Z</time>
      </trkpt>
      <trkpt lat="44.40539" lon="6.38239">
        <ele>2304</ele>
        <time>2020-07-07T07:57:31.000Z</time>
      </trkpt>
      <trkpt lat="44.4054" lon="6.38239">
        <ele>2305</ele>
        <time>2020-07-07T07:57:32.000Z</time>
      </trkpt>
      <trkpt lat="44.40541" lon="6.38239">
        <ele>2305</ele>
        <time>2020-07-07T07:57:33.000Z</time>
      </trkpt>
      <trkpt lat="44.40541" lon="6.38239">
        <ele>2305</ele>
        <time>2020-07-07T07:57:34.000Z</time>
      </trkpt>
      <trkpt lat="44.40542" lon="6.38239">
        <ele>2305</ele>
        <time>2020-07-07T07:57:35.000Z</time>
      </trkpt>
      <trkpt lat="44.40543" lon="6.38239">
        <ele>2305</ele>
        <time>2020-07-07T07:57:36.000Z</time>
      </trkpt>
      <trkpt lat="44.40544" lon="6.38239">
        <ele>2306</ele>
        <time>2020-07-07T07:57:37.000Z</time>
      </trkpt>
      <trkpt lat="44.40544" lon="6.3824">
        <ele>2306</ele>
        <time>2020-07-07T07:57:38.000Z</time>
      </trkpt>
      <trkpt lat="44.40545" lon="6.3824">
        <ele>2306</ele>
        <time>2020-07-07T07:57:39.000Z</time>
      </trkpt>
      <trkpt lat="44.40546" lon="6.3824">
        <ele>2306</ele>
        <time>2020-07-07T07:57:40.000Z</time>
      </trkpt>
      <trkpt lat="44.40547" lon="6.3824">
        <ele>2306</ele>
        <time>2020-07-07T07:57:41.000Z</time>
      </trkpt>
      <trkpt lat="44.40547" lon="6.3824">
        <ele>2306</ele>
        <time>2020-07-07T07:57:42.000Z</time>
      </trkpt>
      <trkpt lat="44.40548" lon="6.3824">
        <ele>2307</ele>
        <time>2020-07-07T07:57:43.000Z</time>
      </trkpt>
      <trkpt lat="44.40549" lon="6.3824">
        <ele>2307</ele>
        <time>2020-07-07T07:57:44.000Z</time>
      </trkpt>
      <trkpt lat="44.4055" lon="6.3824">
        <ele>2307</ele>
        <time>2020-07-07T07:57:45.000Z</time>
      </trkpt>
      <trkpt lat="44.40551" lon="6.3824">
        <ele>2307</ele>
        <time>2020-07-07T07:57:46.000Z</time>
      </trkpt>
      <trkpt lat="44.40551" lon="6.3824">
        <ele>2307</ele>
        <time>2020-07-07T07:57:47.000Z</time>
      </trkpt>
      <trkpt lat="44.40552" lon="6.3824">
        <ele>2308</ele>
        <time>2020-07-07T07:57:48.000Z</time>
      </trkpt>
      <trkpt lat="44.40552" lon="6.3824">
        <ele>2308</ele>
        <time>2020-07-07T07:57:49.000Z</time>
      </trkpt>
      <trkpt lat="44.40553" lon="6.3824">
        <ele>2308</ele>
        <time>2020-07-07T07:57:50.000Z</time>
      </trkpt>
      <trkpt lat="44.40555" lon="6.38241">
        <ele>2308</ele>
        <time>2020-07-07T07:57:51.000Z</time>
      </trkpt>
      <trkpt lat="44.40556" lon="6.38241">
        <ele>2308</ele>
        <time>2020-07-07T07:57:52.000Z</time>
      </trkpt>
      <trkpt lat="44.40557" lon="6.38241">
        <ele>2308</ele>
        <time>2020-07-07T07:57:53.000Z</time>
      </trkpt>
      <trkpt lat="44.40558" lon="6.38242">
        <ele>2308</ele>
        <time>2020-07-07T07:57:54.000Z</time>
      </trkpt>
      <trkpt lat="44.40559" lon="6.38242">
        <ele>2308</ele>
        <time>2020-07-07T07:57:55.000Z</time>
      </trkpt>
      <trkpt lat="44.40559" lon="6.38242">
        <ele>2308</ele>
        <time>2020-07-07T07:57:56.000Z</time>
      </trkpt>
      <trkpt lat="44.4056" lon="6.38243">
        <ele>2308</ele>
        <time>2020-07-07T07:57:57.000Z</time>
      </trkpt>
      <trkpt lat="44.40561" lon="6.38243">
        <ele>2308</ele>
        <time>2020-07-07T07:57:58.000Z</time>
      </trkpt>
      <trkpt lat="44.40561" lon="6.38244">
        <ele>2308</ele>
        <time>2020-07-07T07:57:59.000Z</time>
      </trkpt>
      <trkpt lat="44.40561" lon="6.38244">
        <ele>2308</ele>
        <time>2020-07-07T07:58:00.000Z</time>
      </trkpt>
      <trkpt lat="44.40563" lon="6.38246">
        <ele>2309</ele>
        <time>2020-07-07T07:58:01.000Z</time>
      </trkpt>
      <trkpt lat="44.40564" lon="6.38246">
        <ele>2309</ele>
        <time>2020-07-07T07:58:02.000Z</time>
      </trkpt>
      <trkpt lat="44.40565" lon="6.38247">
        <ele>2309</ele>
        <time>2020-07-07T07:58:03.000Z</time>
      </trkpt>
      <trkpt lat="44.40565" lon="6.38247">
        <ele>2309</ele>
        <time>2020-07-07T07:58:04.000Z</time>
      </trkpt>
      <trkpt lat="44.40566" lon="6.38247">
        <ele>2309</ele>
        <time>2020-07-07T07:58:05.000Z</time>
      </trkpt>
      <trkpt lat="44.40567" lon="6.38247">
        <ele>2309</ele>
        <time>2020-07-07T07:58:06.000Z</time>
      </trkpt>
      <trkpt lat="44.40567" lon="6.38247">
        <ele>2309</ele>
        <time>2020-07-07T07:58:07.000Z</time>
      </trkpt>
      <trkpt lat="44.40567" lon="6.38247">
        <ele>2309</ele>
        <time>2020-07-07T07:58:08.000Z</time>
      </trkpt>
      <trkpt lat="44.40569" lon="6.38246">
        <ele>2309</ele>
        <time>2020-07-07T07:58:09.000Z</time>
      </trkpt>
      <trkpt lat="44.4057" lon="6.38246">
        <ele>2310</ele>
        <time>2020-07-07T07:58:10.000Z</time>
      </trkpt>
      <trkpt lat="44.4057" lon="6.38246">
        <ele>2310</ele>
        <time>2020-07-07T07:58:11.000Z</time>
      </trkpt>
      <trkpt lat="44.40571" lon="6.38246">
        <ele>2310</ele>
        <time>2020-07-07T07:58:12.000Z</time>
      </trkpt>
      <trkpt lat="44.40573" lon="6.38245">
        <ele>2310</ele>
        <time>2020-07-07T07:58:13.000Z</time>
      </trkpt>
      <trkpt lat="44.40573" lon="6.38244">
        <ele>2310</ele>
        <time>2020-07-07T07:58:14.000Z</time>
      </trkpt>
      <trkpt lat="44.40574" lon="6.38244">
        <ele>2310</ele>
        <time>2020-07-07T07:58:15.000Z</time>
      </trkpt>
      <trkpt lat="44.40575" lon="6.38243">
        <ele>2310</ele>
        <time>2020-07-07T07:58:16.000Z</time>
      </trkpt>
      <trkpt lat="44.40576" lon="6.38243">
        <ele>2310</ele>
        <time>2020-07-07T07:58:17.000Z</time>
      </trkpt>
      <trkpt lat="44.40577" lon="6.38242">
        <ele>2311</ele>
        <time>2020-07-07T07:58:18.000Z</time>
      </trkpt>
      <trkpt lat="44.40577" lon="6.38242">
        <ele>2311</ele>
        <time>2020-07-07T07:58:19.000Z</time>
      </trkpt>
      <trkpt lat="44.40578" lon="6.38241">
        <ele>2311</ele>
        <time>2020-07-07T07:58:20.000Z</time>
      </trkpt>
      <trkpt lat="44.40579" lon="6.38241">
        <ele>2311</ele>
        <time>2020-07-07T07:58:21.000Z</time>
      </trkpt>
      <trkpt lat="44.4058" lon="6.38241">
        <ele>2311</ele>
        <time>2020-07-07T07:58:22.000Z</time>
      </trkpt>
      <trkpt lat="44.40581" lon="6.38241">
        <ele>2311</ele>
        <time>2020-07-07T07:58:23.000Z</time>
      </trkpt>
      <trkpt lat="44.40581" lon="6.38241">
        <ele>2311</ele>
        <time>2020-07-07T07:58:24.000Z</time>
      </trkpt>
      <trkpt lat="44.40583" lon="6.3824">
        <ele>2312</ele>
        <time>2020-07-07T07:58:25.000Z</time>
      </trkpt>
      <trkpt lat="44.40583" lon="6.3824">
        <ele>2312</ele>
        <time>2020-07-07T07:58:26.000Z</time>
      </trkpt>
      <trkpt lat="44.40583" lon="6.3824">
        <ele>2312</ele>
        <time>2020-07-07T07:58:27.000Z</time>
      </trkpt>
      <trkpt lat="44.40585" lon="6.38239">
        <ele>2311</ele>
        <time>2020-07-07T07:58:28.000Z</time>
      </trkpt>
      <trkpt lat="44.40586" lon="6.38239">
        <ele>2311</ele>
        <time>2020-07-07T07:58:29.000Z</time>
      </trkpt>
      <trkpt lat="44.40586" lon="6.38238">
        <ele>2312</ele>
        <time>2020-07-07T07:58:30.000Z</time>
      </trkpt>
      <trkpt lat="44.40587" lon="6.38238">
        <ele>2312</ele>
        <time>2020-07-07T07:58:31.000Z</time>
      </trkpt>
      <trkpt lat="44.40588" lon="6.38237">
        <ele>2312</ele>
        <time>2020-07-07T07:58:32.000Z</time>
      </trkpt>
      <trkpt lat="44.40588" lon="6.38237">
        <ele>2312</ele>
        <time>2020-07-07T07:58:33.000Z</time>
      </trkpt>
      <trkpt lat="44.40589" lon="6.38237">
        <ele>2312</ele>
        <time>2020-07-07T07:58:34.000Z</time>
      </trkpt>
      <trkpt lat="44.40589" lon="6.38236">
        <ele>2312</ele>
        <time>2020-07-07T07:58:35.000Z</time>
      </trkpt>
      <trkpt lat="44.4059" lon="6.38236">
        <ele>2312</ele>
        <time>2020-07-07T07:58:36.000Z</time>
      </trkpt>
      <trkpt lat="44.4059" lon="6.38235">
        <ele>2312</ele>
        <time>2020-07-07T07:58:37.000Z</time>
      </trkpt>
      <trkpt lat="44.40591" lon="6.38235">
        <ele>2312</ele>
        <time>2020-07-07T07:58:38.000Z</time>
      </trkpt>
      <trkpt lat="44.40591" lon="6.38234">
        <ele>2312</ele>
        <time>2020-07-07T07:58:39.000Z</time>
      </trkpt>
      <trkpt lat="44.40592" lon="6.38234">
        <ele>2312</ele>
        <time>2020-07-07T07:58:40.000Z</time>
      </trkpt>
      <trkpt lat="44.40592" lon="6.38234">
        <ele>2312</ele>
        <time>2020-07-07T07:58:41.000Z</time>
      </trkpt>
      <trkpt lat="44.40594" lon="6.38233">
        <ele>2312</ele>
        <time>2020-07-07T07:58:42.000Z</time>
      </trkpt>
      <trkpt lat="44.40594" lon="6.38233">
        <ele>2312</ele>
        <time>2020-07-07T07:58:43.000Z</time>
      </trkpt>
      <trkpt lat="44.40595" lon="6.38233">
        <ele>2313</ele>
        <time>2020-07-07T07:58:44.000Z</time>
      </trkpt>
      <trkpt lat="44.40595" lon="6.38232">
        <ele>2313</ele>
        <time>2020-07-07T07:58:45.000Z</time>
      </trkpt>
      <trkpt lat="44.40596" lon="6.38232">
        <ele>2313</ele>
        <time>2020-07-07T07:58:46.000Z</time>
      </trkpt>
      <trkpt lat="44.40596" lon="6.38231">
        <ele>2313</ele>
        <time>2020-07-07T07:58:47.000Z</time>
      </trkpt>
      <trkpt lat="44.40597" lon="6.38231">
        <ele>2313</ele>
        <time>2020-07-07T07:58:48.000Z</time>
      </trkpt>
      <trkpt lat="44.40597" lon="6.38231">
        <ele>2313</ele>
        <time>2020-07-07T07:58:49.000Z</time>
      </trkpt>
      <trkpt lat="44.40598" lon="6.38231">
        <ele>2313</ele>
        <time>2020-07-07T07:58:50.000Z</time>
      </trkpt>
      <trkpt lat="44.40598" lon="6.38231">
        <ele>2313</ele>
        <time>2020-07-07T07:58:51.000Z</time>
      </trkpt>
      <trkpt lat="44.406" lon="6.3823">
        <ele>2313</ele>
        <time>2020-07-07T07:58:52.000Z</time>
      </trkpt>
      <trkpt lat="44.406" lon="6.3823">
        <ele>2313</ele>
        <time>2020-07-07T07:58:53.000Z</time>
      </trkpt>
      <trkpt lat="44.40601" lon="6.3823">
        <ele>2313</ele>
        <time>2020-07-07T07:58:54.000Z</time>
      </trkpt>
      <trkpt lat="44.40601" lon="6.38229">
        <ele>2313</ele>
        <time>2020-07-07T07:58:55.000Z</time>
      </trkpt>
      <trkpt lat="44.40602" lon="6.38229">
        <ele>2313</ele>
        <time>2020-07-07T07:58:56.000Z</time>
      </trkpt>
      <trkpt lat="44.40602" lon="6.3823">
        <ele>2313</ele>
        <time>2020-07-07T07:58:57.000Z</time>
      </trkpt>
      <trkpt lat="44.40602" lon="6.3823">
        <ele>2313</ele>
        <time>2020-07-07T07:58:58.000Z</time>
      </trkpt>
      <trkpt lat="44.40602" lon="6.3823">
        <ele>2313</ele>
        <time>2020-07-07T07:58:59.000Z</time>
      </trkpt>
      <trkpt lat="44.40602" lon="6.38229">
        <ele>2313</ele>
        <time>2020-07-07T07:59:00.000Z</time>
      </trkpt>
      <trkpt lat="44.40602" lon="6.38229">
        <ele>2313</ele>
        <time>2020-07-07T07:59:01.000Z</time>
      </trkpt>
      <trkpt lat="44.40602" lon="6.38229">
        <ele>2313</ele>
        <time>2020-07-07T07:59:02.000Z</time>
      </trkpt>
      <trkpt lat="44.40602" lon="6.38229">
        <ele>2313</ele>
        <time>2020-07-07T07:59:03.000Z</time>
      </trkpt>
      <trkpt lat="44.40602" lon="6.38229">
        <ele>2313</ele>
        <time>2020-07-07T07:59:04.000Z</time>
      </trkpt>
      <trkpt lat="44.40602" lon="6.38229">
        <ele>2313</ele>
        <time>2020-07-07T07:59:05.000Z</time>
      </trkpt>
      <trkpt lat="44.40602" lon="6.38229">
        <ele>2314</ele>
        <time>2020-07-07T07:59:06.000Z</time>
      </trkpt>
      <trkpt lat="44.40603" lon="6.38228">
        <ele>2314</ele>
        <time>2020-07-07T07:59:07.000Z</time>
      </trkpt>
      <trkpt lat="44.40603" lon="6.38228">
        <ele>2314</ele>
        <time>2020-07-07T07:59:08.000Z</time>
      </trkpt>
      <trkpt lat="44.40604" lon="6.38227">
        <ele>2314</ele>
        <time>2020-07-07T07:59:09.000Z</time>
      </trkpt>
      <trkpt lat="44.40605" lon="6.38227">
        <ele>2314</ele>
        <time>2020-07-07T07:59:10.000Z</time>
      </trkpt>
      <trkpt lat="44.40605" lon="6.38226">
        <ele>2314</ele>
        <time>2020-07-07T07:59:11.000Z</time>
      </trkpt>
      <trkpt lat="44.40606" lon="6.38226">
        <ele>2315</ele>
        <time>2020-07-07T07:59:12.000Z</time>
      </trkpt>
      <trkpt lat="44.40607" lon="6.38226">
        <ele>2315</ele>
        <time>2020-07-07T07:59:13.000Z</time>
      </trkpt>
      <trkpt lat="44.40608" lon="6.38225">
        <ele>2315</ele>
        <time>2020-07-07T07:59:14.000Z</time>
      </trkpt>
      <trkpt lat="44.40608" lon="6.38225">
        <ele>2315</ele>
        <time>2020-07-07T07:59:15.000Z</time>
      </trkpt>
      <trkpt lat="44.40609" lon="6.38224">
        <ele>2315</ele>
        <time>2020-07-07T07:59:16.000Z</time>
      </trkpt>
      <trkpt lat="44.4061" lon="6.38224">
        <ele>2316</ele>
        <time>2020-07-07T07:59:17.000Z</time>
      </trkpt>
      <trkpt lat="44.4061" lon="6.38224">
        <ele>2316</ele>
        <time>2020-07-07T07:59:18.000Z</time>
      </trkpt>
      <trkpt lat="44.40611" lon="6.38224">
        <ele>2316</ele>
        <time>2020-07-07T07:59:19.000Z</time>
      </trkpt>
      <trkpt lat="44.40612" lon="6.38223">
        <ele>2316</ele>
        <time>2020-07-07T07:59:20.000Z</time>
      </trkpt>
      <trkpt lat="44.40612" lon="6.38223">
        <ele>2316</ele>
        <time>2020-07-07T07:59:21.000Z</time>
      </trkpt>
      <trkpt lat="44.40612" lon="6.38223">
        <ele>2316</ele>
        <time>2020-07-07T07:59:22.000Z</time>
      </trkpt>
      <trkpt lat="44.40614" lon="6.38222">
        <ele>2316</ele>
        <time>2020-07-07T07:59:23.000Z</time>
      </trkpt>
      <trkpt lat="44.40615" lon="6.38222">
        <ele>2316</ele>
        <time>2020-07-07T07:59:24.000Z</time>
      </trkpt>
      <trkpt lat="44.40616" lon="6.38222">
        <ele>2316</ele>
        <time>2020-07-07T07:59:25.000Z</time>
      </trkpt>
      <trkpt lat="44.40616" lon="6.38222">
        <ele>2317</ele>
        <time>2020-07-07T07:59:26.000Z</time>
      </trkpt>
      <trkpt lat="44.40617" lon="6.38221">
        <ele>2317</ele>
        <time>2020-07-07T07:59:27.000Z</time>
      </trkpt>
      <trkpt lat="44.40618" lon="6.38221">
        <ele>2317</ele>
        <time>2020-07-07T07:59:28.000Z</time>
      </trkpt>
      <trkpt lat="44.40618" lon="6.38221">
        <ele>2317</ele>
        <time>2020-07-07T07:59:29.000Z</time>
      </trkpt>
      <trkpt lat="44.40619" lon="6.3822">
        <ele>2317</ele>
        <time>2020-07-07T07:59:30.000Z</time>
      </trkpt>
      <trkpt lat="44.4062" lon="6.3822">
        <ele>2317</ele>
        <time>2020-07-07T07:59:31.000Z</time>
      </trkpt>
      <trkpt lat="44.4062" lon="6.3822">
        <ele>2317</ele>
        <time>2020-07-07T07:59:32.000Z</time>
      </trkpt>
      <trkpt lat="44.40621" lon="6.38219">
        <ele>2318</ele>
        <time>2020-07-07T07:59:33.000Z</time>
      </trkpt>
      <trkpt lat="44.40622" lon="6.38219">
        <ele>2318</ele>
        <time>2020-07-07T07:59:34.000Z</time>
      </trkpt>
      <trkpt lat="44.40622" lon="6.38218">
        <ele>2318</ele>
        <time>2020-07-07T07:59:35.000Z</time>
      </trkpt>
      <trkpt lat="44.40622" lon="6.38218">
        <ele>2318</ele>
        <time>2020-07-07T07:59:36.000Z</time>
      </trkpt>
      <trkpt lat="44.40624" lon="6.38218">
        <ele>2318</ele>
        <time>2020-07-07T07:59:37.000Z</time>
      </trkpt>
      <trkpt lat="44.40624" lon="6.38219">
        <ele>2318</ele>
        <time>2020-07-07T07:59:38.000Z</time>
      </trkpt>
      <trkpt lat="44.40625" lon="6.38219">
        <ele>2318</ele>
        <time>2020-07-07T07:59:39.000Z</time>
      </trkpt>
      <trkpt lat="44.40625" lon="6.3822">
        <ele>2318</ele>
        <time>2020-07-07T07:59:40.000Z</time>
      </trkpt>
      <trkpt lat="44.40625" lon="6.38222">
        <ele>2319</ele>
        <time>2020-07-07T07:59:41.000Z</time>
      </trkpt>
      <trkpt lat="44.40625" lon="6.38222">
        <ele>2319</ele>
        <time>2020-07-07T07:59:42.000Z</time>
      </trkpt>
      <trkpt lat="44.40624" lon="6.38223">
        <ele>2319</ele>
        <time>2020-07-07T07:59:43.000Z</time>
      </trkpt>
      <trkpt lat="44.40624" lon="6.38223">
        <ele>2319</ele>
        <time>2020-07-07T07:59:44.000Z</time>
      </trkpt>
      <trkpt lat="44.40623" lon="6.38224">
        <ele>2319</ele>
        <time>2020-07-07T07:59:45.000Z</time>
      </trkpt>
      <trkpt lat="44.40623" lon="6.38224">
        <ele>2319</ele>
        <time>2020-07-07T07:59:46.000Z</time>
      </trkpt>
      <trkpt lat="44.40622" lon="6.38225">
        <ele>2319</ele>
        <time>2020-07-07T07:59:47.000Z</time>
      </trkpt>
      <trkpt lat="44.40622" lon="6.38225">
        <ele>2319</ele>
        <time>2020-07-07T07:59:48.000Z</time>
      </trkpt>
      <trkpt lat="44.40621" lon="6.38225">
        <ele>2319</ele>
        <time>2020-07-07T07:59:49.000Z</time>
      </trkpt>
      <trkpt lat="44.4062" lon="6.38226">
        <ele>2319</ele>
        <time>2020-07-07T07:59:50.000Z</time>
      </trkpt>
      <trkpt lat="44.4062" lon="6.38226">
        <ele>2319</ele>
        <time>2020-07-07T07:59:51.000Z</time>
      </trkpt>
      <trkpt lat="44.40619" lon="6.38227">
        <ele>2319</ele>
        <time>2020-07-07T07:59:52.000Z</time>
      </trkpt>
      <trkpt lat="44.40619" lon="6.38227">
        <ele>2319</ele>
        <time>2020-07-07T07:59:53.000Z</time>
      </trkpt>
      <trkpt lat="44.40618" lon="6.38228">
        <ele>2319</ele>
        <time>2020-07-07T07:59:54.000Z</time>
      </trkpt>
      <trkpt lat="44.40617" lon="6.38228">
        <ele>2319</ele>
        <time>2020-07-07T07:59:55.000Z</time>
      </trkpt>
      <trkpt lat="44.40616" lon="6.38229">
        <ele>2319</ele>
        <time>2020-07-07T07:59:56.000Z</time>
      </trkpt>
      <trkpt lat="44.40616" lon="6.38229">
        <ele>2319</ele>
        <time>2020-07-07T07:59:57.000Z</time>
      </trkpt>
      <trkpt lat="44.40615" lon="6.38229">
        <ele>2319</ele>
        <time>2020-07-07T07:59:58.000Z</time>
      </trkpt>
      <trkpt lat="44.40614" lon="6.3823">
        <ele>2319</ele>
        <time>2020-07-07T07:59:59.000Z</time>
      </trkpt>
      <trkpt lat="44.40613" lon="6.3823">
        <ele>2319</ele>
        <time>2020-07-07T08:00:00.000Z</time>
      </trkpt>
      <trkpt lat="44.40613" lon="6.38231">
        <ele>2319</ele>
        <time>2020-07-07T08:00:01.000Z</time>
      </trkpt>
      <trkpt lat="44.40612" lon="6.38232">
        <ele>2319</ele>
        <time>2020-07-07T08:00:02.000Z</time>
      </trkpt>
      <trkpt lat="44.40612" lon="6.38232">
        <ele>2319</ele>
        <time>2020-07-07T08:00:03.000Z</time>
      </trkpt>
      <trkpt lat="44.40611" lon="6.38233">
        <ele>2320</ele>
        <time>2020-07-07T08:00:04.000Z</time>
      </trkpt>
      <trkpt lat="44.4061" lon="6.38233">
        <ele>2320</ele>
        <time>2020-07-07T08:00:05.000Z</time>
      </trkpt>
      <trkpt lat="44.4061" lon="6.38234">
        <ele>2320</ele>
        <time>2020-07-07T08:00:06.000Z</time>
      </trkpt>
      <trkpt lat="44.40609" lon="6.38235">
        <ele>2320</ele>
        <time>2020-07-07T08:00:07.000Z</time>
      </trkpt>
      <trkpt lat="44.40609" lon="6.38236">
        <ele>2320</ele>
        <time>2020-07-07T08:00:08.000Z</time>
      </trkpt>
      <trkpt lat="44.40608" lon="6.38236">
        <ele>2320</ele>
        <time>2020-07-07T08:00:09.000Z</time>
      </trkpt>
      <trkpt lat="44.40608" lon="6.38237">
        <ele>2320</ele>
        <time>2020-07-07T08:00:10.000Z</time>
      </trkpt>
      <trkpt lat="44.40607" lon="6.38237">
        <ele>2320</ele>
        <time>2020-07-07T08:00:11.000Z</time>
      </trkpt>
      <trkpt lat="44.40607" lon="6.38238">
        <ele>2320</ele>
        <time>2020-07-07T08:00:12.000Z</time>
      </trkpt>
      <trkpt lat="44.40606" lon="6.38239">
        <ele>2320</ele>
        <time>2020-07-07T08:00:13.000Z</time>
      </trkpt>
      <trkpt lat="44.40605" lon="6.38239">
        <ele>2320</ele>
        <time>2020-07-07T08:00:14.000Z</time>
      </trkpt>
      <trkpt lat="44.40605" lon="6.3824">
        <ele>2320</ele>
        <time>2020-07-07T08:00:15.000Z</time>
      </trkpt>
      <trkpt lat="44.40604" lon="6.3824">
        <ele>2321</ele>
        <time>2020-07-07T08:00:16.000Z</time>
      </trkpt>
      <trkpt lat="44.40604" lon="6.38241">
        <ele>2321</ele>
        <time>2020-07-07T08:00:17.000Z</time>
      </trkpt>
      <trkpt lat="44.40604" lon="6.38242">
        <ele>2321</ele>
        <time>2020-07-07T08:00:18.000Z</time>
      </trkpt>
      <trkpt lat="44.40604" lon="6.38243">
        <ele>2321</ele>
        <time>2020-07-07T08:00:19.000Z</time>
      </trkpt>
      <trkpt lat="44.40604" lon="6.38243">
        <ele>2321</ele>
        <time>2020-07-07T08:00:20.000Z</time>
      </trkpt>
      <trkpt lat="44.40604" lon="6.38244">
        <ele>2321</ele>
        <time>2020-07-07T08:00:21.000Z</time>
      </trkpt>
      <trkpt lat="44.40604" lon="6.38244">
        <ele>2322</ele>
        <time>2020-07-07T08:00:22.000Z</time>
      </trkpt>
      <trkpt lat="44.40604" lon="6.38244">
        <ele>2322</ele>
        <time>2020-07-07T08:00:23.000Z</time>
      </trkpt>
      <trkpt lat="44.40605" lon="6.38243">
        <ele>2322</ele>
        <time>2020-07-07T08:00:24.000Z</time>
      </trkpt>
      <trkpt lat="44.40605" lon="6.38243">
        <ele>2322</ele>
        <time>2020-07-07T08:00:25.000Z</time>
      </trkpt>
      <trkpt lat="44.40606" lon="6.38242">
        <ele>2323</ele>
        <time>2020-07-07T08:00:26.000Z</time>
      </trkpt>
      <trkpt lat="44.40606" lon="6.38241">
        <ele>2323</ele>
        <time>2020-07-07T08:00:27.000Z</time>
      </trkpt>
      <trkpt lat="44.40607" lon="6.38241">
        <ele>2323</ele>
        <time>2020-07-07T08:00:28.000Z</time>
      </trkpt>
      <trkpt lat="44.40608" lon="6.3824">
        <ele>2323</ele>
        <time>2020-07-07T08:00:29.000Z</time>
      </trkpt>
      <trkpt lat="44.40608" lon="6.3824">
        <ele>2324</ele>
        <time>2020-07-07T08:00:30.000Z</time>
      </trkpt>
      <trkpt lat="44.40609" lon="6.38239">
        <ele>2324</ele>
        <time>2020-07-07T08:00:31.000Z</time>
      </trkpt>
      <trkpt lat="44.40609" lon="6.38238">
        <ele>2324</ele>
        <time>2020-07-07T08:00:32.000Z</time>
      </trkpt>
      <trkpt lat="44.4061" lon="6.38238">
        <ele>2324</ele>
        <time>2020-07-07T08:00:33.000Z</time>
      </trkpt>
      <trkpt lat="44.40611" lon="6.38237">
        <ele>2325</ele>
        <time>2020-07-07T08:00:34.000Z</time>
      </trkpt>
      <trkpt lat="44.40611" lon="6.38236">
        <ele>2325</ele>
        <time>2020-07-07T08:00:35.000Z</time>
      </trkpt>
      <trkpt lat="44.40612" lon="6.38236">
        <ele>2325</ele>
        <time>2020-07-07T08:00:36.000Z</time>
      </trkpt>
      <trkpt lat="44.40613" lon="6.38235">
        <ele>2325</ele>
        <time>2020-07-07T08:00:37.000Z</time>
      </trkpt>
      <trkpt lat="44.40613" lon="6.38234">
        <ele>2326</ele>
        <time>2020-07-07T08:00:38.000Z</time>
      </trkpt>
      <trkpt lat="44.40614" lon="6.38234">
        <ele>2326</ele>
        <time>2020-07-07T08:00:39.000Z</time>
      </trkpt>
      <trkpt lat="44.40615" lon="6.38233">
        <ele>2326</ele>
        <time>2020-07-07T08:00:40.000Z</time>
      </trkpt>
      <trkpt lat="44.40616" lon="6.38233">
        <ele>2326</ele>
        <time>2020-07-07T08:00:41.000Z</time>
      </trkpt>
      <trkpt lat="44.40617" lon="6.38232">
        <ele>2326</ele>
        <time>2020-07-07T08:00:42.000Z</time>
      </trkpt>
      <trkpt lat="44.40617" lon="6.38232">
        <ele>2326</ele>
        <time>2020-07-07T08:00:43.000Z</time>
      </trkpt>
      <trkpt lat="44.40617" lon="6.38232">
        <ele>2326</ele>
        <time>2020-07-07T08:00:44.000Z</time>
      </trkpt>
      <trkpt lat="44.40619" lon="6.38232">
        <ele>2327</ele>
        <time>2020-07-07T08:00:45.000Z</time>
      </trkpt>
      <trkpt lat="44.4062" lon="6.38231">
        <ele>2327</ele>
        <time>2020-07-07T08:00:46.000Z</time>
      </trkpt>
      <trkpt lat="44.40621" lon="6.38231">
        <ele>2327</ele>
        <time>2020-07-07T08:00:47.000Z</time>
      </trkpt>
      <trkpt lat="44.40622" lon="6.38231">
        <ele>2327</ele>
        <time>2020-07-07T08:00:48.000Z</time>
      </trkpt>
      <trkpt lat="44.40623" lon="6.3823">
        <ele>2327</ele>
        <time>2020-07-07T08:00:49.000Z</time>
      </trkpt>
      <trkpt lat="44.40623" lon="6.3823">
        <ele>2327</ele>
        <time>2020-07-07T08:00:50.000Z</time>
      </trkpt>
      <trkpt lat="44.40624" lon="6.3823">
        <ele>2327</ele>
        <time>2020-07-07T08:00:51.000Z</time>
      </trkpt>
      <trkpt lat="44.40625" lon="6.38229">
        <ele>2327</ele>
        <time>2020-07-07T08:00:52.000Z</time>
      </trkpt>
      <trkpt lat="44.40625" lon="6.38229">
        <ele>2327</ele>
        <time>2020-07-07T08:00:53.000Z</time>
      </trkpt>
      <trkpt lat="44.40626" lon="6.38228">
        <ele>2328</ele>
        <time>2020-07-07T08:00:54.000Z</time>
      </trkpt>
      <trkpt lat="44.40627" lon="6.38228">
        <ele>2328</ele>
        <time>2020-07-07T08:00:55.000Z</time>
      </trkpt>
      <trkpt lat="44.40628" lon="6.38227">
        <ele>2328</ele>
        <time>2020-07-07T08:00:56.000Z</time>
      </trkpt>
      <trkpt lat="44.40628" lon="6.38226">
        <ele>2328</ele>
        <time>2020-07-07T08:00:57.000Z</time>
      </trkpt>
      <trkpt lat="44.40628" lon="6.38226">
        <ele>2328</ele>
        <time>2020-07-07T08:00:58.000Z</time>
      </trkpt>
      <trkpt lat="44.4063" lon="6.38226">
        <ele>2329</ele>
        <time>2020-07-07T08:00:59.000Z</time>
      </trkpt>
      <trkpt lat="44.40631" lon="6.38225">
        <ele>2329</ele>
        <time>2020-07-07T08:01:00.000Z</time>
      </trkpt>
      <trkpt lat="44.40631" lon="6.38224">
        <ele>2329</ele>
        <time>2020-07-07T08:01:01.000Z</time>
      </trkpt>
      <trkpt lat="44.40632" lon="6.38224">
        <ele>2329</ele>
        <time>2020-07-07T08:01:02.000Z</time>
      </trkpt>
      <trkpt lat="44.40633" lon="6.38224">
        <ele>2329</ele>
        <time>2020-07-07T08:01:03.000Z</time>
      </trkpt>
      <trkpt lat="44.40634" lon="6.38224">
        <ele>2329</ele>
        <time>2020-07-07T08:01:04.000Z</time>
      </trkpt>
      <trkpt lat="44.40634" lon="6.38225">
        <ele>2330</ele>
        <time>2020-07-07T08:01:05.000Z</time>
      </trkpt>
      <trkpt lat="44.40634" lon="6.38226">
        <ele>2330</ele>
        <time>2020-07-07T08:01:06.000Z</time>
      </trkpt>
      <trkpt lat="44.40634" lon="6.38227">
        <ele>2330</ele>
        <time>2020-07-07T08:01:07.000Z</time>
      </trkpt>
      <trkpt lat="44.40634" lon="6.38228">
        <ele>2330</ele>
        <time>2020-07-07T08:01:08.000Z</time>
      </trkpt>
      <trkpt lat="44.40633" lon="6.38229">
        <ele>2330</ele>
        <time>2020-07-07T08:01:09.000Z</time>
      </trkpt>
      <trkpt lat="44.40633" lon="6.3823">
        <ele>2330</ele>
        <time>2020-07-07T08:01:10.000Z</time>
      </trkpt>
      <trkpt lat="44.40632" lon="6.3823">
        <ele>2330</ele>
        <time>2020-07-07T08:01:11.000Z</time>
      </trkpt>
      <trkpt lat="44.40632" lon="6.3823">
        <ele>2330</ele>
        <time>2020-07-07T08:01:12.000Z</time>
      </trkpt>
      <trkpt lat="44.40631" lon="6.38231">
        <ele>2330</ele>
        <time>2020-07-07T08:01:13.000Z</time>
      </trkpt>
      <trkpt lat="44.4063" lon="6.38232">
        <ele>2330</ele>
        <time>2020-07-07T08:01:14.000Z</time>
      </trkpt>
      <trkpt lat="44.4063" lon="6.38232">
        <ele>2330</ele>
        <time>2020-07-07T08:01:15.000Z</time>
      </trkpt>
      <trkpt lat="44.40629" lon="6.38233">
        <ele>2330</ele>
        <time>2020-07-07T08:01:16.000Z</time>
      </trkpt>
      <trkpt lat="44.40628" lon="6.38233">
        <ele>2330</ele>
        <time>2020-07-07T08:01:17.000Z</time>
      </trkpt>
      <trkpt lat="44.40627" lon="6.38234">
        <ele>2330</ele>
        <time>2020-07-07T08:01:18.000Z</time>
      </trkpt>
      <trkpt lat="44.40627" lon="6.38235">
        <ele>2330</ele>
        <time>2020-07-07T08:01:19.000Z</time>
      </trkpt>
      <trkpt lat="44.40626" lon="6.38235">
        <ele>2330</ele>
        <time>2020-07-07T08:01:20.000Z</time>
      </trkpt>
      <trkpt lat="44.40625" lon="6.38236">
        <ele>2330</ele>
        <time>2020-07-07T08:01:21.000Z</time>
      </trkpt>
      <trkpt lat="44.40625" lon="6.38237">
        <ele>2330</ele>
        <time>2020-07-07T08:01:22.000Z</time>
      </trkpt>
      <trkpt lat="44.40624" lon="6.38238">
        <ele>2330</ele>
        <time>2020-07-07T08:01:23.000Z</time>
      </trkpt>
      <trkpt lat="44.40623" lon="6.38239">
        <ele>2330</ele>
        <time>2020-07-07T08:01:24.000Z</time>
      </trkpt>
      <trkpt lat="44.40623" lon="6.38239">
        <ele>2330</ele>
        <time>2020-07-07T08:01:25.000Z</time>
      </trkpt>
      <trkpt lat="44.40623" lon="6.38239">
        <ele>2330</ele>
        <time>2020-07-07T08:01:26.000Z</time>
      </trkpt>
      <trkpt lat="44.40622" lon="6.3824">
        <ele>2330</ele>
        <time>2020-07-07T08:01:27.000Z</time>
      </trkpt>
      <trkpt lat="44.40621" lon="6.3824">
        <ele>2330</ele>
        <time>2020-07-07T08:01:28.000Z</time>
      </trkpt>
      <trkpt lat="44.40621" lon="6.38241">
        <ele>2330</ele>
        <time>2020-07-07T08:01:29.000Z</time>
      </trkpt>
      <trkpt lat="44.4062" lon="6.38241">
        <ele>2330</ele>
        <time>2020-07-07T08:01:30.000Z</time>
      </trkpt>
      <trkpt lat="44.4062" lon="6.38242">
        <ele>2330</ele>
        <time>2020-07-07T08:01:31.000Z</time>
      </trkpt>
      <trkpt lat="44.4062" lon="6.38242">
        <ele>2330</ele>
        <time>2020-07-07T08:01:32.000Z</time>
      </trkpt>
      <trkpt lat="44.4062" lon="6.38242">
        <ele>2330</ele>
        <time>2020-07-07T08:01:33.000Z</time>
      </trkpt>
      <trkpt lat="44.4062" lon="6.38242">
        <ele>2330</ele>
        <time>2020-07-07T08:01:34.000Z</time>
      </trkpt>
      <trkpt lat="44.4062" lon="6.38242">
        <ele>2330</ele>
        <time>2020-07-07T08:01:35.000Z</time>
      </trkpt>
      <trkpt lat="44.4062" lon="6.38242">
        <ele>2330</ele>
        <time>2020-07-07T08:01:36.000Z</time>
      </trkpt>
      <trkpt lat="44.4062" lon="6.38242">
        <ele>2330</ele>
        <time>2020-07-07T08:01:37.000Z</time>
      </trkpt>
      <trkpt lat="44.4062" lon="6.38242">
        <ele>2330</ele>
        <time>2020-07-07T08:01:38.000Z</time>
      </trkpt>
      <trkpt lat="44.4062" lon="6.38242">
        <ele>2330</ele>
        <time>2020-07-07T08:01:39.000Z</time>
      </trkpt>
      <trkpt lat="44.4062" lon="6.38242">
        <ele>2330</ele>
        <time>2020-07-07T08:01:40.000Z</time>
      </trkpt>
      <trkpt lat="44.4062" lon="6.38242">
        <ele>2330</ele>
        <time>2020-07-07T08:01:41.000Z</time>
      </trkpt>
      <trkpt lat="44.4062" lon="6.38242">
        <ele>2330</ele>
        <time>2020-07-07T08:01:42.000Z</time>
      </trkpt>
      <trkpt lat="44.4062" lon="6.38242">
        <ele>2330</ele>
        <time>2020-07-07T08:01:43.000Z</time>
      </trkpt>
      <trkpt lat="44.4062" lon="6.38242">
        <ele>2330</ele>
        <time>2020-07-07T08:01:44.000Z</time>
      </trkpt>
      <trkpt lat="44.4062" lon="6.38242">
        <ele>2330</ele>
        <time>2020-07-07T08:01:45.000Z</time>
      </trkpt>
      <trkpt lat="44.4062" lon="6.38242">
        <ele>2330</ele>
        <time>2020-07-07T08:01:46.000Z</time>
      </trkpt>
      <trkpt lat="44.4062" lon="6.38242">
        <ele>2330</ele>
        <time>2020-07-07T08:01:47.000Z</time>
      </trkpt>
      <trkpt lat="44.4062" lon="6.38242">
        <ele>2330</ele>
        <time>2020-07-07T08:01:48.000Z</time>
      </trkpt>
      <trkpt lat="44.4062" lon="6.38242">
        <ele>2330</ele>
        <time>2020-07-07T08:01:49.000Z</time>
      </trkpt>
      <trkpt lat="44.4062" lon="6.38242">
        <ele>2330</ele>
        <time>2020-07-07T08:01:50.000Z</time>
      </trkpt>
      <trkpt lat="44.4062" lon="6.38242">
        <ele>2330</ele>
        <time>2020-07-07T08:01:51.000Z</time>
      </trkpt>
      <trkpt lat="44.4062" lon="6.38242">
        <ele>2330</ele>
        <time>2020-07-07T08:01:52.000Z</time>
      </trkpt>
      <trkpt lat="44.4062" lon="6.38242">
        <ele>2330</ele>
        <time>2020-07-07T08:01:53.000Z</time>
      </trkpt>
      <trkpt lat="44.4062" lon="6.38242">
        <ele>2330</ele>
        <time>2020-07-07T08:01:54.000Z</time>
      </trkpt>
      <trkpt lat="44.40619" lon="6.38242">
        <ele>2330</ele>
        <time>2020-07-07T08:01:55.000Z</time>
      </trkpt>
      <trkpt lat="44.40619" lon="6.38243">
        <ele>2330</ele>
        <time>2020-07-07T08:01:56.000Z</time>
      </trkpt>
      <trkpt lat="44.40619" lon="6.38243">
        <ele>2330</ele>
        <time>2020-07-07T08:01:57.000Z</time>
      </trkpt>
      <trkpt lat="44.40619" lon="6.38244">
        <ele>2330</ele>
        <time>2020-07-07T08:01:58.000Z</time>
      </trkpt>
      <trkpt lat="44.40618" lon="6.38244">
        <ele>2330</ele>
        <time>2020-07-07T08:01:59.000Z</time>
      </trkpt>
      <trkpt lat="44.40617" lon="6.38245">
        <ele>2330</ele>
        <time>2020-07-07T08:02:00.000Z</time>
      </trkpt>
      <trkpt lat="44.40617" lon="6.38246">
        <ele>2330</ele>
        <time>2020-07-07T08:02:01.000Z</time>
      </trkpt>
      <trkpt lat="44.40616" lon="6.38246">
        <ele>2331</ele>
        <time>2020-07-07T08:02:02.000Z</time>
      </trkpt>
      <trkpt lat="44.40615" lon="6.38247">
        <ele>2331</ele>
        <time>2020-07-07T08:02:03.000Z</time>
      </trkpt>
      <trkpt lat="44.40614" lon="6.38247">
        <ele>2331</ele>
        <time>2020-07-07T08:02:04.000Z</time>
      </trkpt>
      <trkpt lat="44.40613" lon="6.38248">
        <ele>2331</ele>
        <time>2020-07-07T08:02:05.000Z</time>
      </trkpt>
      <trkpt lat="44.40613" lon="6.38248">
        <ele>2331</ele>
        <time>2020-07-07T08:02:06.000Z</time>
      </trkpt>
      <trkpt lat="44.40612" lon="6.38249">
        <ele>2331</ele>
        <time>2020-07-07T08:02:07.000Z</time>
      </trkpt>
      <trkpt lat="44.40611" lon="6.38249">
        <ele>2331</ele>
        <time>2020-07-07T08:02:08.000Z</time>
      </trkpt>
      <trkpt lat="44.40611" lon="6.3825">
        <ele>2331</ele>
        <time>2020-07-07T08:02:09.000Z</time>
      </trkpt>
      <trkpt lat="44.4061" lon="6.3825">
        <ele>2331</ele>
        <time>2020-07-07T08:02:10.000Z</time>
      </trkpt>
      <trkpt lat="44.40609" lon="6.38251">
        <ele>2331</ele>
        <time>2020-07-07T08:02:11.000Z</time>
      </trkpt>
      <trkpt lat="44.40609" lon="6.38252">
        <ele>2331</ele>
        <time>2020-07-07T08:02:12.000Z</time>
      </trkpt>
      <trkpt lat="44.40609" lon="6.38253">
        <ele>2331</ele>
        <time>2020-07-07T08:02:13.000Z</time>
      </trkpt>
      <trkpt lat="44.40609" lon="6.38254">
        <ele>2331</ele>
        <time>2020-07-07T08:02:14.000Z</time>
      </trkpt>
      <trkpt lat="44.40609" lon="6.38254">
        <ele>2331</ele>
        <time>2020-07-07T08:02:15.000Z</time>
      </trkpt>
      <trkpt lat="44.40609" lon="6.38255">
        <ele>2331</ele>
        <time>2020-07-07T08:02:16.000Z</time>
      </trkpt>
      <trkpt lat="44.4061" lon="6.38255">
        <ele>2332</ele>
        <time>2020-07-07T08:02:17.000Z</time>
      </trkpt>
      <trkpt lat="44.40611" lon="6.38255">
        <ele>2332</ele>
        <time>2020-07-07T08:02:18.000Z</time>
      </trkpt>
      <trkpt lat="44.40612" lon="6.38255">
        <ele>2332</ele>
        <time>2020-07-07T08:02:19.000Z</time>
      </trkpt>
      <trkpt lat="44.40612" lon="6.38255">
        <ele>2332</ele>
        <time>2020-07-07T08:02:20.000Z</time>
      </trkpt>
      <trkpt lat="44.40613" lon="6.38254">
        <ele>2333</ele>
        <time>2020-07-07T08:02:21.000Z</time>
      </trkpt>
      <trkpt lat="44.40614" lon="6.38254">
        <ele>2333</ele>
        <time>2020-07-07T08:02:22.000Z</time>
      </trkpt>
      <trkpt lat="44.40614" lon="6.38254">
        <ele>2333</ele>
        <time>2020-07-07T08:02:23.000Z</time>
      </trkpt>
      <trkpt lat="44.40615" lon="6.38253">
        <ele>2333</ele>
        <time>2020-07-07T08:02:24.000Z</time>
      </trkpt>
      <trkpt lat="44.40615" lon="6.38252">
        <ele>2334</ele>
        <time>2020-07-07T08:02:25.000Z</time>
      </trkpt>
      <trkpt lat="44.40616" lon="6.38252">
        <ele>2334</ele>
        <time>2020-07-07T08:02:26.000Z</time>
      </trkpt>
      <trkpt lat="44.40617" lon="6.38251">
        <ele>2334</ele>
        <time>2020-07-07T08:02:27.000Z</time>
      </trkpt>
      <trkpt lat="44.40617" lon="6.38251">
        <ele>2334</ele>
        <time>2020-07-07T08:02:28.000Z</time>
      </trkpt>
      <trkpt lat="44.40617" lon="6.38251">
        <ele>2335</ele>
        <time>2020-07-07T08:02:29.000Z</time>
      </trkpt>
      <trkpt lat="44.40617" lon="6.38251">
        <ele>2335</ele>
        <time>2020-07-07T08:02:30.000Z</time>
      </trkpt>
      <trkpt lat="44.40617" lon="6.38251">
        <ele>2335</ele>
        <time>2020-07-07T08:02:31.000Z</time>
      </trkpt>
      <trkpt lat="44.40617" lon="6.38251">
        <ele>2335</ele>
        <time>2020-07-07T08:02:32.000Z</time>
      </trkpt>
      <trkpt lat="44.40618" lon="6.38251">
        <ele>2335</ele>
        <time>2020-07-07T08:02:33.000Z</time>
      </trkpt>
      <trkpt lat="44.40618" lon="6.38251">
        <ele>2335</ele>
        <time>2020-07-07T08:02:34.000Z</time>
      </trkpt>
      <trkpt lat="44.40617" lon="6.38251">
        <ele>2335</ele>
        <time>2020-07-07T08:02:35.000Z</time>
      </trkpt>
      <trkpt lat="44.40617" lon="6.38251">
        <ele>2335</ele>
        <time>2020-07-07T08:02:36.000Z</time>
      </trkpt>
      <trkpt lat="44.40617" lon="6.38251">
        <ele>2335</ele>
        <time>2020-07-07T08:02:37.000Z</time>
      </trkpt>
      <trkpt lat="44.40617" lon="6.38251">
        <ele>2335</ele>
        <time>2020-07-07T08:02:38.000Z</time>
      </trkpt>
      <trkpt lat="44.40617" lon="6.38251">
        <ele>2335</ele>
        <time>2020-07-07T08:02:39.000Z</time>
      </trkpt>
      <trkpt lat="44.40617" lon="6.38251">
        <ele>2335</ele>
        <time>2020-07-07T08:02:40.000Z</time>
      </trkpt>
      <trkpt lat="44.40617" lon="6.38251">
        <ele>2335</ele>
        <time>2020-07-07T08:02:41.000Z</time>
      </trkpt>
      <trkpt lat="44.40617" lon="6.38251">
        <ele>2335</ele>
        <time>2020-07-07T08:02:42.000Z</time>
      </trkpt>
      <trkpt lat="44.40617" lon="6.38251">
        <ele>2335</ele>
        <time>2020-07-07T08:02:43.000Z</time>
      </trkpt>
      <trkpt lat="44.40617" lon="6.38251">
        <ele>2336</ele>
        <time>2020-07-07T08:02:44.000Z</time>
      </trkpt>
      <trkpt lat="44.40617" lon="6.38251">
        <ele>2336</ele>
        <time>2020-07-07T08:02:45.000Z</time>
      </trkpt>
      <trkpt lat="44.40617" lon="6.38251">
        <ele>2336</ele>
        <time>2020-07-07T08:02:46.000Z</time>
      </trkpt>
      <trkpt lat="44.40617" lon="6.38251">
        <ele>2336</ele>
        <time>2020-07-07T08:02:47.000Z</time>
      </trkpt>
      <trkpt lat="44.40617" lon="6.38251">
        <ele>2336</ele>
        <time>2020-07-07T08:02:48.000Z</time>
      </trkpt>
      <trkpt lat="44.40617" lon="6.38251">
        <ele>2336</ele>
        <time>2020-07-07T08:02:49.000Z</time>
      </trkpt>
      <trkpt lat="44.40617" lon="6.38251">
        <ele>2336</ele>
        <time>2020-07-07T08:02:50.000Z</time>
      </trkpt>
      <trkpt lat="44.40617" lon="6.38251">
        <ele>2336</ele>
        <time>2020-07-07T08:02:51.000Z</time>
      </trkpt>
      <trkpt lat="44.40617" lon="6.38251">
        <ele>2336</ele>
        <time>2020-07-07T08:02:52.000Z</time>
      </trkpt>
      <trkpt lat="44.40617" lon="6.38251">
        <ele>2336</ele>
        <time>2020-07-07T08:02:53.000Z</time>
      </trkpt>
      <trkpt lat="44.40617" lon="6.38251">
        <ele>2336</ele>
        <time>2020-07-07T08:02:54.000Z</time>
      </trkpt>
      <trkpt lat="44.40617" lon="6.38251">
        <ele>2336</ele>
        <time>2020-07-07T08:02:55.000Z</time>
      </trkpt>
      <trkpt lat="44.40617" lon="6.38251">
        <ele>2336</ele>
        <time>2020-07-07T08:02:56.000Z</time>
      </trkpt>
      <trkpt lat="44.40617" lon="6.38251">
        <ele>2336</ele>
        <time>2020-07-07T08:02:57.000Z</time>
      </trkpt>
      <trkpt lat="44.40617" lon="6.38251">
        <ele>2336</ele>
        <time>2020-07-07T08:02:58.000Z</time>
      </trkpt>
      <trkpt lat="44.40617" lon="6.38251">
        <ele>2336</ele>
        <time>2020-07-07T08:02:59.000Z</time>
      </trkpt>
      <trkpt lat="44.40617" lon="6.3825">
        <ele>2336</ele>
        <time>2020-07-07T08:03:00.000Z</time>
      </trkpt>
      <trkpt lat="44.40617" lon="6.3825">
        <ele>2336</ele>
        <time>2020-07-07T08:03:01.000Z</time>
      </trkpt>
      <trkpt lat="44.40618" lon="6.3825">
        <ele>2336</ele>
        <time>2020-07-07T08:03:02.000Z</time>
      </trkpt>
      <trkpt lat="44.40619" lon="6.3825">
        <ele>2336</ele>
        <time>2020-07-07T08:03:03.000Z</time>
      </trkpt>
      <trkpt lat="44.40619" lon="6.3825">
        <ele>2336</ele>
        <time>2020-07-07T08:03:04.000Z</time>
      </trkpt>
      <trkpt lat="44.4062" lon="6.38249">
        <ele>2337</ele>
        <time>2020-07-07T08:03:05.000Z</time>
      </trkpt>
      <trkpt lat="44.40621" lon="6.38249">
        <ele>2337</ele>
        <time>2020-07-07T08:03:06.000Z</time>
      </trkpt>
      <trkpt lat="44.40621" lon="6.38248">
        <ele>2337</ele>
        <time>2020-07-07T08:03:07.000Z</time>
      </trkpt>
      <trkpt lat="44.40622" lon="6.38248">
        <ele>2337</ele>
        <time>2020-07-07T08:03:08.000Z</time>
      </trkpt>
      <trkpt lat="44.40623" lon="6.38248">
        <ele>2337</ele>
        <time>2020-07-07T08:03:09.000Z</time>
      </trkpt>
      <trkpt lat="44.40624" lon="6.38247">
        <ele>2337</ele>
        <time>2020-07-07T08:03:10.000Z</time>
      </trkpt>
      <trkpt lat="44.40625" lon="6.38247">
        <ele>2337</ele>
        <time>2020-07-07T08:03:11.000Z</time>
      </trkpt>
      <trkpt lat="44.40626" lon="6.38247">
        <ele>2337</ele>
        <time>2020-07-07T08:03:12.000Z</time>
      </trkpt>
      <trkpt lat="44.40627" lon="6.38246">
        <ele>2337</ele>
        <time>2020-07-07T08:03:13.000Z</time>
      </trkpt>
      <trkpt lat="44.40628" lon="6.38246">
        <ele>2337</ele>
        <time>2020-07-07T08:03:14.000Z</time>
      </trkpt>
      <trkpt lat="44.40629" lon="6.38246">
        <ele>2338</ele>
        <time>2020-07-07T08:03:15.000Z</time>
      </trkpt>
      <trkpt lat="44.4063" lon="6.38245">
        <ele>2338</ele>
        <time>2020-07-07T08:03:16.000Z</time>
      </trkpt>
      <trkpt lat="44.40631" lon="6.38245">
        <ele>2338</ele>
        <time>2020-07-07T08:03:17.000Z</time>
      </trkpt>
      <trkpt lat="44.40632" lon="6.38245">
        <ele>2338</ele>
        <time>2020-07-07T08:03:18.000Z</time>
      </trkpt>
      <trkpt lat="44.40632" lon="6.38245">
        <ele>2338</ele>
        <time>2020-07-07T08:03:19.000Z</time>
      </trkpt>
      <trkpt lat="44.40633" lon="6.38244">
        <ele>2338</ele>
        <time>2020-07-07T08:03:20.000Z</time>
      </trkpt>
      <trkpt lat="44.40634" lon="6.38244">
        <ele>2338</ele>
        <time>2020-07-07T08:03:21.000Z</time>
      </trkpt>
      <trkpt lat="44.40635" lon="6.38244">
        <ele>2338</ele>
        <time>2020-07-07T08:03:22.000Z</time>
      </trkpt>
      <trkpt lat="44.40636" lon="6.38243">
        <ele>2338</ele>
        <time>2020-07-07T08:03:23.000Z</time>
      </trkpt>
      <trkpt lat="44.40637" lon="6.38243">
        <ele>2338</ele>
        <time>2020-07-07T08:03:24.000Z</time>
      </trkpt>
      <trkpt lat="44.40637" lon="6.38243">
        <ele>2338</ele>
        <time>2020-07-07T08:03:25.000Z</time>
      </trkpt>
      <trkpt lat="44.40638" lon="6.38242">
        <ele>2338</ele>
        <time>2020-07-07T08:03:26.000Z</time>
      </trkpt>
      <trkpt lat="44.40639" lon="6.38242">
        <ele>2339</ele>
        <time>2020-07-07T08:03:27.000Z</time>
      </trkpt>
      <trkpt lat="44.4064" lon="6.38241">
        <ele>2339</ele>
        <time>2020-07-07T08:03:28.000Z</time>
      </trkpt>
      <trkpt lat="44.40641" lon="6.38241">
        <ele>2339</ele>
        <time>2020-07-07T08:03:29.000Z</time>
      </trkpt>
      <trkpt lat="44.40641" lon="6.3824">
        <ele>2339</ele>
        <time>2020-07-07T08:03:30.000Z</time>
      </trkpt>
      <trkpt lat="44.40642" lon="6.3824">
        <ele>2339</ele>
        <time>2020-07-07T08:03:31.000Z</time>
      </trkpt>
      <trkpt lat="44.40643" lon="6.38239">
        <ele>2339</ele>
        <time>2020-07-07T08:03:32.000Z</time>
      </trkpt>
      <trkpt lat="44.40643" lon="6.38238">
        <ele>2339</ele>
        <time>2020-07-07T08:03:33.000Z</time>
      </trkpt>
      <trkpt lat="44.40644" lon="6.38237">
        <ele>2339</ele>
        <time>2020-07-07T08:03:34.000Z</time>
      </trkpt>
      <trkpt lat="44.40645" lon="6.38236">
        <ele>2339</ele>
        <time>2020-07-07T08:03:35.000Z</time>
      </trkpt>
      <trkpt lat="44.40645" lon="6.38235">
        <ele>2339</ele>
        <time>2020-07-07T08:03:36.000Z</time>
      </trkpt>
      <trkpt lat="44.40646" lon="6.38234">
        <ele>2340</ele>
        <time>2020-07-07T08:03:37.000Z</time>
      </trkpt>
      <trkpt lat="44.40646" lon="6.38234">
        <ele>2340</ele>
        <time>2020-07-07T08:03:38.000Z</time>
      </trkpt>
      <trkpt lat="44.40647" lon="6.38233">
        <ele>2340</ele>
        <time>2020-07-07T08:03:39.000Z</time>
      </trkpt>
      <trkpt lat="44.40648" lon="6.38232">
        <ele>2340</ele>
        <time>2020-07-07T08:03:40.000Z</time>
      </trkpt>
      <trkpt lat="44.40648" lon="6.3823">
        <ele>2340</ele>
        <time>2020-07-07T08:03:41.000Z</time>
      </trkpt>
      <trkpt lat="44.40649" lon="6.3823">
        <ele>2340</ele>
        <time>2020-07-07T08:03:42.000Z</time>
      </trkpt>
      <trkpt lat="44.40649" lon="6.3823">
        <ele>2340</ele>
        <time>2020-07-07T08:03:43.000Z</time>
      </trkpt>
      <trkpt lat="44.40649" lon="6.38227">
        <ele>2340</ele>
        <time>2020-07-07T08:03:44.000Z</time>
      </trkpt>
      <trkpt lat="44.40649" lon="6.38227">
        <ele>2340</ele>
        <time>2020-07-07T08:03:45.000Z</time>
      </trkpt>
      <trkpt lat="44.4065" lon="6.38226">
        <ele>2341</ele>
        <time>2020-07-07T08:03:46.000Z</time>
      </trkpt>
      <trkpt lat="44.40651" lon="6.38224">
        <ele>2341</ele>
        <time>2020-07-07T08:03:47.000Z</time>
      </trkpt>
      <trkpt lat="44.40651" lon="6.38223">
        <ele>2341</ele>
        <time>2020-07-07T08:03:48.000Z</time>
      </trkpt>
      <trkpt lat="44.40652" lon="6.38222">
        <ele>2341</ele>
        <time>2020-07-07T08:03:49.000Z</time>
      </trkpt>
      <trkpt lat="44.40652" lon="6.38221">
        <ele>2341</ele>
        <time>2020-07-07T08:03:50.000Z</time>
      </trkpt>
      <trkpt lat="44.40653" lon="6.3822">
        <ele>2341</ele>
        <time>2020-07-07T08:03:51.000Z</time>
      </trkpt>
      <trkpt lat="44.40653" lon="6.38218">
        <ele>2341</ele>
        <time>2020-07-07T08:03:52.000Z</time>
      </trkpt>
      <trkpt lat="44.40654" lon="6.38217">
        <ele>2341</ele>
        <time>2020-07-07T08:03:53.000Z</time>
      </trkpt>
      <trkpt lat="44.40654" lon="6.38216">
        <ele>2341</ele>
        <time>2020-07-07T08:03:54.000Z</time>
      </trkpt>
      <trkpt lat="44.40655" lon="6.38215">
        <ele>2341</ele>
        <time>2020-07-07T08:03:55.000Z</time>
      </trkpt>
      <trkpt lat="44.40656" lon="6.38215">
        <ele>2342</ele>
        <time>2020-07-07T08:03:56.000Z</time>
      </trkpt>
      <trkpt lat="44.40656" lon="6.38214">
        <ele>2342</ele>
        <time>2020-07-07T08:03:57.000Z</time>
      </trkpt>
      <trkpt lat="44.40657" lon="6.38213">
        <ele>2342</ele>
        <time>2020-07-07T08:03:58.000Z</time>
      </trkpt>
      <trkpt lat="44.40658" lon="6.38212">
        <ele>2342</ele>
        <time>2020-07-07T08:03:59.000Z</time>
      </trkpt>
      <trkpt lat="44.40659" lon="6.38212">
        <ele>2342</ele>
        <time>2020-07-07T08:04:00.000Z</time>
      </trkpt>
      <trkpt lat="44.40659" lon="6.38211">
        <ele>2342</ele>
        <time>2020-07-07T08:04:01.000Z</time>
      </trkpt>
      <trkpt lat="44.4066" lon="6.38211">
        <ele>2342</ele>
        <time>2020-07-07T08:04:02.000Z</time>
      </trkpt>
      <trkpt lat="44.40661" lon="6.3821">
        <ele>2342</ele>
        <time>2020-07-07T08:04:03.000Z</time>
      </trkpt>
      <trkpt lat="44.40662" lon="6.38209">
        <ele>2342</ele>
        <time>2020-07-07T08:04:04.000Z</time>
      </trkpt>
      <trkpt lat="44.40662" lon="6.38209">
        <ele>2342</ele>
        <time>2020-07-07T08:04:05.000Z</time>
      </trkpt>
      <trkpt lat="44.40663" lon="6.38209">
        <ele>2342</ele>
        <time>2020-07-07T08:04:06.000Z</time>
      </trkpt>
      <trkpt lat="44.40664" lon="6.38208">
        <ele>2343</ele>
        <time>2020-07-07T08:04:07.000Z</time>
      </trkpt>
      <trkpt lat="44.40664" lon="6.38207">
        <ele>2343</ele>
        <time>2020-07-07T08:04:08.000Z</time>
      </trkpt>
      <trkpt lat="44.40665" lon="6.38207">
        <ele>2343</ele>
        <time>2020-07-07T08:04:09.000Z</time>
      </trkpt>
      <trkpt lat="44.40666" lon="6.38206">
        <ele>2343</ele>
        <time>2020-07-07T08:04:10.000Z</time>
      </trkpt>
      <trkpt lat="44.40667" lon="6.38205">
        <ele>2343</ele>
        <time>2020-07-07T08:04:11.000Z</time>
      </trkpt>
      <trkpt lat="44.40667" lon="6.38204">
        <ele>2343</ele>
        <time>2020-07-07T08:04:12.000Z</time>
      </trkpt>
      <trkpt lat="44.40668" lon="6.38203">
        <ele>2343</ele>
        <time>2020-07-07T08:04:13.000Z</time>
      </trkpt>
      <trkpt lat="44.40669" lon="6.38203">
        <ele>2343</ele>
        <time>2020-07-07T08:04:14.000Z</time>
      </trkpt>
      <trkpt lat="44.4067" lon="6.38203">
        <ele>2343</ele>
        <time>2020-07-07T08:04:15.000Z</time>
      </trkpt>
      <trkpt lat="44.40671" lon="6.38203">
        <ele>2344</ele>
        <time>2020-07-07T08:04:16.000Z</time>
      </trkpt>
      <trkpt lat="44.40671" lon="6.38203">
        <ele>2344</ele>
        <time>2020-07-07T08:04:17.000Z</time>
      </trkpt>
      <trkpt lat="44.40672" lon="6.38204">
        <ele>2344</ele>
        <time>2020-07-07T08:04:18.000Z</time>
      </trkpt>
      <trkpt lat="44.40673" lon="6.38205">
        <ele>2344</ele>
        <time>2020-07-07T08:04:19.000Z</time>
      </trkpt>
      <trkpt lat="44.40673" lon="6.38207">
        <ele>2344</ele>
        <time>2020-07-07T08:04:20.000Z</time>
      </trkpt>
      <trkpt lat="44.40673" lon="6.38208">
        <ele>2344</ele>
        <time>2020-07-07T08:04:21.000Z</time>
      </trkpt>
      <trkpt lat="44.40673" lon="6.38209">
        <ele>2344</ele>
        <time>2020-07-07T08:04:22.000Z</time>
      </trkpt>
      <trkpt lat="44.40673" lon="6.3821">
        <ele>2344</ele>
        <time>2020-07-07T08:04:23.000Z</time>
      </trkpt>
      <trkpt lat="44.40672" lon="6.3821">
        <ele>2344</ele>
        <time>2020-07-07T08:04:24.000Z</time>
      </trkpt>
      <trkpt lat="44.40672" lon="6.38211">
        <ele>2344</ele>
        <time>2020-07-07T08:04:25.000Z</time>
      </trkpt>
      <trkpt lat="44.40671" lon="6.38212">
        <ele>2344</ele>
        <time>2020-07-07T08:04:26.000Z</time>
      </trkpt>
      <trkpt lat="44.40671" lon="6.38213">
        <ele>2344</ele>
        <time>2020-07-07T08:04:27.000Z</time>
      </trkpt>
      <trkpt lat="44.40671" lon="6.38214">
        <ele>2344</ele>
        <time>2020-07-07T08:04:28.000Z</time>
      </trkpt>
      <trkpt lat="44.4067" lon="6.38214">
        <ele>2344</ele>
        <time>2020-07-07T08:04:29.000Z</time>
      </trkpt>
      <trkpt lat="44.4067" lon="6.38215">
        <ele>2344</ele>
        <time>2020-07-07T08:04:30.000Z</time>
      </trkpt>
      <trkpt lat="44.4067" lon="6.38216">
        <ele>2344</ele>
        <time>2020-07-07T08:04:31.000Z</time>
      </trkpt>
      <trkpt lat="44.40669" lon="6.38217">
        <ele>2344</ele>
        <time>2020-07-07T08:04:32.000Z</time>
      </trkpt>
      <trkpt lat="44.40669" lon="6.38218">
        <ele>2344</ele>
        <time>2020-07-07T08:04:33.000Z</time>
      </trkpt>
      <trkpt lat="44.40668" lon="6.38218">
        <ele>2344</ele>
        <time>2020-07-07T08:04:34.000Z</time>
      </trkpt>
      <trkpt lat="44.40668" lon="6.3822">
        <ele>2344</ele>
        <time>2020-07-07T08:04:35.000Z</time>
      </trkpt>
      <trkpt lat="44.40668" lon="6.38221">
        <ele>2344</ele>
        <time>2020-07-07T08:04:36.000Z</time>
      </trkpt>
      <trkpt lat="44.40667" lon="6.38222">
        <ele>2345</ele>
        <time>2020-07-07T08:04:37.000Z</time>
      </trkpt>
      <trkpt lat="44.40667" lon="6.38222">
        <ele>2345</ele>
        <time>2020-07-07T08:04:38.000Z</time>
      </trkpt>
      <trkpt lat="44.40667" lon="6.38223">
        <ele>2345</ele>
        <time>2020-07-07T08:04:39.000Z</time>
      </trkpt>
      <trkpt lat="44.40666" lon="6.38224">
        <ele>2345</ele>
        <time>2020-07-07T08:04:40.000Z</time>
      </trkpt>
      <trkpt lat="44.40666" lon="6.38225">
        <ele>2345</ele>
        <time>2020-07-07T08:04:41.000Z</time>
      </trkpt>
      <trkpt lat="44.40666" lon="6.38226">
        <ele>2345</ele>
        <time>2020-07-07T08:04:42.000Z</time>
      </trkpt>
      <trkpt lat="44.40666" lon="6.38227">
        <ele>2345</ele>
        <time>2020-07-07T08:04:43.000Z</time>
      </trkpt>
      <trkpt lat="44.40665" lon="6.38228">
        <ele>2345</ele>
        <time>2020-07-07T08:04:44.000Z</time>
      </trkpt>
      <trkpt lat="44.40665" lon="6.38229">
        <ele>2345</ele>
        <time>2020-07-07T08:04:45.000Z</time>
      </trkpt>
      <trkpt lat="44.40665" lon="6.3823">
        <ele>2345</ele>
        <time>2020-07-07T08:04:46.000Z</time>
      </trkpt>
      <trkpt lat="44.40665" lon="6.38231">
        <ele>2345</ele>
        <time>2020-07-07T08:04:47.000Z</time>
      </trkpt>
      <trkpt lat="44.40664" lon="6.38232">
        <ele>2346</ele>
        <time>2020-07-07T08:04:48.000Z</time>
      </trkpt>
      <trkpt lat="44.40664" lon="6.38233">
        <ele>2346</ele>
        <time>2020-07-07T08:04:49.000Z</time>
      </trkpt>
      <trkpt lat="44.40663" lon="6.38234">
        <ele>2346</ele>
        <time>2020-07-07T08:04:50.000Z</time>
      </trkpt>
      <trkpt lat="44.40663" lon="6.38235">
        <ele>2346</ele>
        <time>2020-07-07T08:04:51.000Z</time>
      </trkpt>
      <trkpt lat="44.40663" lon="6.38236">
        <ele>2346</ele>
        <time>2020-07-07T08:04:52.000Z</time>
      </trkpt>
      <trkpt lat="44.40662" lon="6.38236">
        <ele>2346</ele>
        <time>2020-07-07T08:04:53.000Z</time>
      </trkpt>
      <trkpt lat="44.40662" lon="6.38237">
        <ele>2346</ele>
        <time>2020-07-07T08:04:54.000Z</time>
      </trkpt>
      <trkpt lat="44.40662" lon="6.38238">
        <ele>2347</ele>
        <time>2020-07-07T08:04:55.000Z</time>
      </trkpt>
      <trkpt lat="44.40661" lon="6.38239">
        <ele>2347</ele>
        <time>2020-07-07T08:04:56.000Z</time>
      </trkpt>
      <trkpt lat="44.40661" lon="6.3824">
        <ele>2347</ele>
        <time>2020-07-07T08:04:57.000Z</time>
      </trkpt>
      <trkpt lat="44.40661" lon="6.38241">
        <ele>2347</ele>
        <time>2020-07-07T08:04:58.000Z</time>
      </trkpt>
      <trkpt lat="44.40661" lon="6.38242">
        <ele>2347</ele>
        <time>2020-07-07T08:04:59.000Z</time>
      </trkpt>
      <trkpt lat="44.40661" lon="6.38243">
        <ele>2347</ele>
        <time>2020-07-07T08:05:00.000Z</time>
      </trkpt>
      <trkpt lat="44.4066" lon="6.38244">
        <ele>2347</ele>
        <time>2020-07-07T08:05:01.000Z</time>
      </trkpt>
      <trkpt lat="44.4066" lon="6.38244">
        <ele>2347</ele>
        <time>2020-07-07T08:05:02.000Z</time>
      </trkpt>
      <trkpt lat="44.4066" lon="6.38245">
        <ele>2347</ele>
        <time>2020-07-07T08:05:03.000Z</time>
      </trkpt>
      <trkpt lat="44.40659" lon="6.38246">
        <ele>2347</ele>
        <time>2020-07-07T08:05:04.000Z</time>
      </trkpt>
      <trkpt lat="44.40659" lon="6.38247">
        <ele>2347</ele>
        <time>2020-07-07T08:05:05.000Z</time>
      </trkpt>
      <trkpt lat="44.40659" lon="6.38248">
        <ele>2347</ele>
        <time>2020-07-07T08:05:06.000Z</time>
      </trkpt>
      <trkpt lat="44.40658" lon="6.38249">
        <ele>2347</ele>
        <time>2020-07-07T08:05:07.000Z</time>
      </trkpt>
      <trkpt lat="44.40658" lon="6.38249">
        <ele>2348</ele>
        <time>2020-07-07T08:05:08.000Z</time>
      </trkpt>
      <trkpt lat="44.40658" lon="6.3825">
        <ele>2348</ele>
        <time>2020-07-07T08:05:09.000Z</time>
      </trkpt>
      <trkpt lat="44.40658" lon="6.38251">
        <ele>2348</ele>
        <time>2020-07-07T08:05:10.000Z</time>
      </trkpt>
      <trkpt lat="44.40657" lon="6.38252">
        <ele>2348</ele>
        <time>2020-07-07T08:05:11.000Z</time>
      </trkpt>
      <trkpt lat="44.40657" lon="6.38253">
        <ele>2348</ele>
        <time>2020-07-07T08:05:12.000Z</time>
      </trkpt>
      <trkpt lat="44.40657" lon="6.38254">
        <ele>2348</ele>
        <time>2020-07-07T08:05:13.000Z</time>
      </trkpt>
      <trkpt lat="44.40656" lon="6.38255">
        <ele>2348</ele>
        <time>2020-07-07T08:05:14.000Z</time>
      </trkpt>
      <trkpt lat="44.40656" lon="6.38256">
        <ele>2348</ele>
        <time>2020-07-07T08:05:15.000Z</time>
      </trkpt>
      <trkpt lat="44.40656" lon="6.38257">
        <ele>2349</ele>
        <time>2020-07-07T08:05:16.000Z</time>
      </trkpt>
      <trkpt lat="44.40655" lon="6.38258">
        <ele>2349</ele>
        <time>2020-07-07T08:05:17.000Z</time>
      </trkpt>
      <trkpt lat="44.40655" lon="6.38258">
        <ele>2349</ele>
        <time>2020-07-07T08:05:18.000Z</time>
      </trkpt>
      <trkpt lat="44.40654" lon="6.38259">
        <ele>2349</ele>
        <time>2020-07-07T08:05:19.000Z</time>
      </trkpt>
      <trkpt lat="44.40654" lon="6.3826">
        <ele>2349</ele>
        <time>2020-07-07T08:05:20.000Z</time>
      </trkpt>
      <trkpt lat="44.40653" lon="6.38261">
        <ele>2349</ele>
        <time>2020-07-07T08:05:21.000Z</time>
      </trkpt>
      <trkpt lat="44.40653" lon="6.38261">
        <ele>2349</ele>
        <time>2020-07-07T08:05:22.000Z</time>
      </trkpt>
      <trkpt lat="44.40653" lon="6.38262">
        <ele>2349</ele>
        <time>2020-07-07T08:05:23.000Z</time>
      </trkpt>
      <trkpt lat="44.40653" lon="6.38263">
        <ele>2349</ele>
        <time>2020-07-07T08:05:24.000Z</time>
      </trkpt>
      <trkpt lat="44.40652" lon="6.38264">
        <ele>2349</ele>
        <time>2020-07-07T08:05:25.000Z</time>
      </trkpt>
      <trkpt lat="44.40652" lon="6.38265">
        <ele>2350</ele>
        <time>2020-07-07T08:05:26.000Z</time>
      </trkpt>
      <trkpt lat="44.40651" lon="6.38265">
        <ele>2350</ele>
        <time>2020-07-07T08:05:27.000Z</time>
      </trkpt>
      <trkpt lat="44.40651" lon="6.38267">
        <ele>2350</ele>
        <time>2020-07-07T08:05:28.000Z</time>
      </trkpt>
      <trkpt lat="44.4065" lon="6.38267">
        <ele>2350</ele>
        <time>2020-07-07T08:05:29.000Z</time>
      </trkpt>
      <trkpt lat="44.4065" lon="6.38268">
        <ele>2350</ele>
        <time>2020-07-07T08:05:30.000Z</time>
      </trkpt>
      <trkpt lat="44.4065" lon="6.38269">
        <ele>2350</ele>
        <time>2020-07-07T08:05:31.000Z</time>
      </trkpt>
      <trkpt lat="44.40649" lon="6.3827">
        <ele>2350</ele>
        <time>2020-07-07T08:05:32.000Z</time>
      </trkpt>
      <trkpt lat="44.40648" lon="6.3827">
        <ele>2350</ele>
        <time>2020-07-07T08:05:33.000Z</time>
      </trkpt>
      <trkpt lat="44.40648" lon="6.38271">
        <ele>2350</ele>
        <time>2020-07-07T08:05:34.000Z</time>
      </trkpt>
      <trkpt lat="44.40647" lon="6.38271">
        <ele>2350</ele>
        <time>2020-07-07T08:05:35.000Z</time>
      </trkpt>
      <trkpt lat="44.40647" lon="6.38272">
        <ele>2351</ele>
        <time>2020-07-07T08:05:36.000Z</time>
      </trkpt>
      <trkpt lat="44.40646" lon="6.38273">
        <ele>2351</ele>
        <time>2020-07-07T08:05:37.000Z</time>
      </trkpt>
      <trkpt lat="44.40645" lon="6.38273">
        <ele>2351</ele>
        <time>2020-07-07T08:05:38.000Z</time>
      </trkpt>
      <trkpt lat="44.40645" lon="6.38274">
        <ele>2351</ele>
        <time>2020-07-07T08:05:39.000Z</time>
      </trkpt>
      <trkpt lat="44.40644" lon="6.38274">
        <ele>2351</ele>
        <time>2020-07-07T08:05:40.000Z</time>
      </trkpt>
      <trkpt lat="44.40644" lon="6.38275">
        <ele>2351</ele>
        <time>2020-07-07T08:05:41.000Z</time>
      </trkpt>
      <trkpt lat="44.40643" lon="6.38275">
        <ele>2351</ele>
        <time>2020-07-07T08:05:42.000Z</time>
      </trkpt>
      <trkpt lat="44.40643" lon="6.38275">
        <ele>2351</ele>
        <time>2020-07-07T08:05:43.000Z</time>
      </trkpt>
      <trkpt lat="44.40642" lon="6.38276">
        <ele>2351</ele>
        <time>2020-07-07T08:05:44.000Z</time>
      </trkpt>
      <trkpt lat="44.40641" lon="6.38276">
        <ele>2351</ele>
        <time>2020-07-07T08:05:45.000Z</time>
      </trkpt>
      <trkpt lat="44.40641" lon="6.38276">
        <ele>2351</ele>
        <time>2020-07-07T08:05:46.000Z</time>
      </trkpt>
      <trkpt lat="44.4064" lon="6.38277">
        <ele>2351</ele>
        <time>2020-07-07T08:05:47.000Z</time>
      </trkpt>
      <trkpt lat="44.40639" lon="6.38277">
        <ele>2352</ele>
        <time>2020-07-07T08:05:48.000Z</time>
      </trkpt>
      <trkpt lat="44.40638" lon="6.38277">
        <ele>2352</ele>
        <time>2020-07-07T08:05:49.000Z</time>
      </trkpt>
      <trkpt lat="44.40638" lon="6.38278">
        <ele>2352</ele>
        <time>2020-07-07T08:05:50.000Z</time>
      </trkpt>
      <trkpt lat="44.40637" lon="6.38278">
        <ele>2352</ele>
        <time>2020-07-07T08:05:51.000Z</time>
      </trkpt>
      <trkpt lat="44.40636" lon="6.38278">
        <ele>2352</ele>
        <time>2020-07-07T08:05:52.000Z</time>
      </trkpt>
      <trkpt lat="44.40636" lon="6.38279">
        <ele>2352</ele>
        <time>2020-07-07T08:05:53.000Z</time>
      </trkpt>
      <trkpt lat="44.40635" lon="6.38279">
        <ele>2352</ele>
        <time>2020-07-07T08:05:54.000Z</time>
      </trkpt>
      <trkpt lat="44.40634" lon="6.38279">
        <ele>2352</ele>
        <time>2020-07-07T08:05:55.000Z</time>
      </trkpt>
      <trkpt lat="44.40633" lon="6.3828">
        <ele>2352</ele>
        <time>2020-07-07T08:05:56.000Z</time>
      </trkpt>
      <trkpt lat="44.40633" lon="6.3828">
        <ele>2352</ele>
        <time>2020-07-07T08:05:57.000Z</time>
      </trkpt>
      <trkpt lat="44.40632" lon="6.3828">
        <ele>2353</ele>
        <time>2020-07-07T08:05:58.000Z</time>
      </trkpt>
      <trkpt lat="44.40631" lon="6.3828">
        <ele>2353</ele>
        <time>2020-07-07T08:05:59.000Z</time>
      </trkpt>
      <trkpt lat="44.4063" lon="6.3828">
        <ele>2353</ele>
        <time>2020-07-07T08:06:00.000Z</time>
      </trkpt>
      <trkpt lat="44.40629" lon="6.3828">
        <ele>2353</ele>
        <time>2020-07-07T08:06:01.000Z</time>
      </trkpt>
      <trkpt lat="44.40628" lon="6.3828">
        <ele>2353</ele>
        <time>2020-07-07T08:06:02.000Z</time>
      </trkpt>
      <trkpt lat="44.40628" lon="6.3828">
        <ele>2353</ele>
        <time>2020-07-07T08:06:03.000Z</time>
      </trkpt>
      <trkpt lat="44.40627" lon="6.38281">
        <ele>2353</ele>
        <time>2020-07-07T08:06:04.000Z</time>
      </trkpt>
      <trkpt lat="44.40626" lon="6.38281">
        <ele>2354</ele>
        <time>2020-07-07T08:06:05.000Z</time>
      </trkpt>
      <trkpt lat="44.40625" lon="6.38281">
        <ele>2354</ele>
        <time>2020-07-07T08:06:06.000Z</time>
      </trkpt>
      <trkpt lat="44.40625" lon="6.38282">
        <ele>2354</ele>
        <time>2020-07-07T08:06:07.000Z</time>
      </trkpt>
      <trkpt lat="44.40625" lon="6.38282">
        <ele>2354</ele>
        <time>2020-07-07T08:06:08.000Z</time>
      </trkpt>
      <trkpt lat="44.40625" lon="6.38283">
        <ele>2354</ele>
        <time>2020-07-07T08:06:09.000Z</time>
      </trkpt>
      <trkpt lat="44.40624" lon="6.38284">
        <ele>2354</ele>
        <time>2020-07-07T08:06:10.000Z</time>
      </trkpt>
      <trkpt lat="44.40624" lon="6.38284">
        <ele>2354</ele>
        <time>2020-07-07T08:06:11.000Z</time>
      </trkpt>
      <trkpt lat="44.40625" lon="6.38285">
        <ele>2355</ele>
        <time>2020-07-07T08:06:12.000Z</time>
      </trkpt>
      <trkpt lat="44.40625" lon="6.38285">
        <ele>2355</ele>
        <time>2020-07-07T08:06:13.000Z</time>
      </trkpt>
      <trkpt lat="44.40626" lon="6.38285">
        <ele>2355</ele>
        <time>2020-07-07T08:06:14.000Z</time>
      </trkpt>
      <trkpt lat="44.40627" lon="6.38286">
        <ele>2355</ele>
        <time>2020-07-07T08:06:15.000Z</time>
      </trkpt>
      <trkpt lat="44.40627" lon="6.38286">
        <ele>2355</ele>
        <time>2020-07-07T08:06:16.000Z</time>
      </trkpt>
      <trkpt lat="44.40628" lon="6.38285">
        <ele>2355</ele>
        <time>2020-07-07T08:06:17.000Z</time>
      </trkpt>
      <trkpt lat="44.40629" lon="6.38285">
        <ele>2355</ele>
        <time>2020-07-07T08:06:18.000Z</time>
      </trkpt>
      <trkpt lat="44.4063" lon="6.38285">
        <ele>2355</ele>
        <time>2020-07-07T08:06:19.000Z</time>
      </trkpt>
      <trkpt lat="44.4063" lon="6.38285">
        <ele>2356</ele>
        <time>2020-07-07T08:06:20.000Z</time>
      </trkpt>
      <trkpt lat="44.40631" lon="6.38285">
        <ele>2356</ele>
        <time>2020-07-07T08:06:21.000Z</time>
      </trkpt>
      <trkpt lat="44.40632" lon="6.38285">
        <ele>2356</ele>
        <time>2020-07-07T08:06:22.000Z</time>
      </trkpt>
      <trkpt lat="44.40633" lon="6.38284">
        <ele>2356</ele>
        <time>2020-07-07T08:06:23.000Z</time>
      </trkpt>
      <trkpt lat="44.40633" lon="6.38284">
        <ele>2356</ele>
        <time>2020-07-07T08:06:24.000Z</time>
      </trkpt>
      <trkpt lat="44.40634" lon="6.38284">
        <ele>2356</ele>
        <time>2020-07-07T08:06:25.000Z</time>
      </trkpt>
      <trkpt lat="44.40635" lon="6.38284">
        <ele>2357</ele>
        <time>2020-07-07T08:06:26.000Z</time>
      </trkpt>
      <trkpt lat="44.40636" lon="6.38283">
        <ele>2357</ele>
        <time>2020-07-07T08:06:27.000Z</time>
      </trkpt>
      <trkpt lat="44.40636" lon="6.38283">
        <ele>2357</ele>
        <time>2020-07-07T08:06:28.000Z</time>
      </trkpt>
      <trkpt lat="44.40637" lon="6.38283">
        <ele>2357</ele>
        <time>2020-07-07T08:06:29.000Z</time>
      </trkpt>
      <trkpt lat="44.40638" lon="6.38283">
        <ele>2357</ele>
        <time>2020-07-07T08:06:30.000Z</time>
      </trkpt>
      <trkpt lat="44.40638" lon="6.38282">
        <ele>2357</ele>
        <time>2020-07-07T08:06:31.000Z</time>
      </trkpt>
      <trkpt lat="44.40639" lon="6.38282">
        <ele>2357</ele>
        <time>2020-07-07T08:06:32.000Z</time>
      </trkpt>
      <trkpt lat="44.4064" lon="6.38281">
        <ele>2357</ele>
        <time>2020-07-07T08:06:33.000Z</time>
      </trkpt>
      <trkpt lat="44.40641" lon="6.38281">
        <ele>2357</ele>
        <time>2020-07-07T08:06:34.000Z</time>
      </trkpt>
      <trkpt lat="44.40642" lon="6.3828">
        <ele>2358</ele>
        <time>2020-07-07T08:06:35.000Z</time>
      </trkpt>
      <trkpt lat="44.40643" lon="6.3828">
        <ele>2358</ele>
        <time>2020-07-07T08:06:36.000Z</time>
      </trkpt>
      <trkpt lat="44.40643" lon="6.38279">
        <ele>2358</ele>
        <time>2020-07-07T08:06:37.000Z</time>
      </trkpt>
      <trkpt lat="44.40644" lon="6.38279">
        <ele>2358</ele>
        <time>2020-07-07T08:06:38.000Z</time>
      </trkpt>
      <trkpt lat="44.40645" lon="6.38278">
        <ele>2358</ele>
        <time>2020-07-07T08:06:39.000Z</time>
      </trkpt>
      <trkpt lat="44.40646" lon="6.38278">
        <ele>2358</ele>
        <time>2020-07-07T08:06:40.000Z</time>
      </trkpt>
      <trkpt lat="44.40646" lon="6.38278">
        <ele>2358</ele>
        <time>2020-07-07T08:06:41.000Z</time>
      </trkpt>
      <trkpt lat="44.40647" lon="6.38277">
        <ele>2358</ele>
        <time>2020-07-07T08:06:42.000Z</time>
      </trkpt>
      <trkpt lat="44.40648" lon="6.38277">
        <ele>2359</ele>
        <time>2020-07-07T08:06:43.000Z</time>
      </trkpt>
      <trkpt lat="44.40649" lon="6.38276">
        <ele>2359</ele>
        <time>2020-07-07T08:06:44.000Z</time>
      </trkpt>
      <trkpt lat="44.40649" lon="6.38276">
        <ele>2359</ele>
        <time>2020-07-07T08:06:45.000Z</time>
      </trkpt>
      <trkpt lat="44.4065" lon="6.38275">
        <ele>2359</ele>
        <time>2020-07-07T08:06:46.000Z</time>
      </trkpt>
      <trkpt lat="44.40651" lon="6.38275">
        <ele>2359</ele>
        <time>2020-07-07T08:06:47.000Z</time>
      </trkpt>
      <trkpt lat="44.40651" lon="6.38274">
        <ele>2359</ele>
        <time>2020-07-07T08:06:48.000Z</time>
      </trkpt>
      <trkpt lat="44.40652" lon="6.38273">
        <ele>2359</ele>
        <time>2020-07-07T08:06:49.000Z</time>
      </trkpt>
      <trkpt lat="44.40653" lon="6.38273">
        <ele>2359</ele>
        <time>2020-07-07T08:06:50.000Z</time>
      </trkpt>
      <trkpt lat="44.40653" lon="6.38272">
        <ele>2359</ele>
        <time>2020-07-07T08:06:51.000Z</time>
      </trkpt>
      <trkpt lat="44.40654" lon="6.38272">
        <ele>2360</ele>
        <time>2020-07-07T08:06:52.000Z</time>
      </trkpt>
      <trkpt lat="44.40655" lon="6.38271">
        <ele>2360</ele>
        <time>2020-07-07T08:06:53.000Z</time>
      </trkpt>
      <trkpt lat="44.40655" lon="6.3827">
        <ele>2360</ele>
        <time>2020-07-07T08:06:54.000Z</time>
      </trkpt>
      <trkpt lat="44.40656" lon="6.38269">
        <ele>2360</ele>
        <time>2020-07-07T08:06:55.000Z</time>
      </trkpt>
      <trkpt lat="44.40657" lon="6.38269">
        <ele>2360</ele>
        <time>2020-07-07T08:06:56.000Z</time>
      </trkpt>
      <trkpt lat="44.40657" lon="6.38268">
        <ele>2360</ele>
        <time>2020-07-07T08:06:57.000Z</time>
      </trkpt>
      <trkpt lat="44.40658" lon="6.38267">
        <ele>2360</ele>
        <time>2020-07-07T08:06:58.000Z</time>
      </trkpt>
      <trkpt lat="44.40659" lon="6.38266">
        <ele>2361</ele>
        <time>2020-07-07T08:06:59.000Z</time>
      </trkpt>
      <trkpt lat="44.4066" lon="6.38266">
        <ele>2361</ele>
        <time>2020-07-07T08:07:00.000Z</time>
      </trkpt>
      <trkpt lat="44.40661" lon="6.38265">
        <ele>2361</ele>
        <time>2020-07-07T08:07:01.000Z</time>
      </trkpt>
      <trkpt lat="44.40661" lon="6.38265">
        <ele>2361</ele>
        <time>2020-07-07T08:07:02.000Z</time>
      </trkpt>
      <trkpt lat="44.40662" lon="6.38264">
        <ele>2361</ele>
        <time>2020-07-07T08:07:03.000Z</time>
      </trkpt>
      <trkpt lat="44.40663" lon="6.38263">
        <ele>2361</ele>
        <time>2020-07-07T08:07:04.000Z</time>
      </trkpt>
      <trkpt lat="44.40663" lon="6.38262">
        <ele>2361</ele>
        <time>2020-07-07T08:07:05.000Z</time>
      </trkpt>
      <trkpt lat="44.40664" lon="6.38261">
        <ele>2361</ele>
        <time>2020-07-07T08:07:06.000Z</time>
      </trkpt>
      <trkpt lat="44.40665" lon="6.38261">
        <ele>2361</ele>
        <time>2020-07-07T08:07:07.000Z</time>
      </trkpt>
      <trkpt lat="44.40665" lon="6.3826">
        <ele>2361</ele>
        <time>2020-07-07T08:07:08.000Z</time>
      </trkpt>
      <trkpt lat="44.40666" lon="6.38259">
        <ele>2361</ele>
        <time>2020-07-07T08:07:09.000Z</time>
      </trkpt>
      <trkpt lat="44.40667" lon="6.38258">
        <ele>2361</ele>
        <time>2020-07-07T08:07:10.000Z</time>
      </trkpt>
      <trkpt lat="44.40667" lon="6.38257">
        <ele>2361</ele>
        <time>2020-07-07T08:07:11.000Z</time>
      </trkpt>
      <trkpt lat="44.40668" lon="6.38256">
        <ele>2361</ele>
        <time>2020-07-07T08:07:12.000Z</time>
      </trkpt>
      <trkpt lat="44.40668" lon="6.38256">
        <ele>2361</ele>
        <time>2020-07-07T08:07:13.000Z</time>
      </trkpt>
      <trkpt lat="44.40669" lon="6.38255">
        <ele>2361</ele>
        <time>2020-07-07T08:07:14.000Z</time>
      </trkpt>
      <trkpt lat="44.4067" lon="6.38254">
        <ele>2361</ele>
        <time>2020-07-07T08:07:15.000Z</time>
      </trkpt>
      <trkpt lat="44.4067" lon="6.38253">
        <ele>2361</ele>
        <time>2020-07-07T08:07:16.000Z</time>
      </trkpt>
      <trkpt lat="44.40671" lon="6.38252">
        <ele>2361</ele>
        <time>2020-07-07T08:07:17.000Z</time>
      </trkpt>
      <trkpt lat="44.40672" lon="6.38251">
        <ele>2361</ele>
        <time>2020-07-07T08:07:18.000Z</time>
      </trkpt>
      <trkpt lat="44.40672" lon="6.38251">
        <ele>2361</ele>
        <time>2020-07-07T08:07:19.000Z</time>
      </trkpt>
      <trkpt lat="44.40673" lon="6.3825">
        <ele>2361</ele>
        <time>2020-07-07T08:07:20.000Z</time>
      </trkpt>
      <trkpt lat="44.40674" lon="6.38249">
        <ele>2361</ele>
        <time>2020-07-07T08:07:21.000Z</time>
      </trkpt>
      <trkpt lat="44.40674" lon="6.38248">
        <ele>2361</ele>
        <time>2020-07-07T08:07:22.000Z</time>
      </trkpt>
      <trkpt lat="44.40675" lon="6.38248">
        <ele>2362</ele>
        <time>2020-07-07T08:07:23.000Z</time>
      </trkpt>
      <trkpt lat="44.40676" lon="6.38247">
        <ele>2362</ele>
        <time>2020-07-07T08:07:24.000Z</time>
      </trkpt>
      <trkpt lat="44.40676" lon="6.38246">
        <ele>2362</ele>
        <time>2020-07-07T08:07:25.000Z</time>
      </trkpt>
      <trkpt lat="44.40677" lon="6.38245">
        <ele>2362</ele>
        <time>2020-07-07T08:07:26.000Z</time>
      </trkpt>
      <trkpt lat="44.40677" lon="6.38244">
        <ele>2362</ele>
        <time>2020-07-07T08:07:27.000Z</time>
      </trkpt>
      <trkpt lat="44.40678" lon="6.38243">
        <ele>2362</ele>
        <time>2020-07-07T08:07:28.000Z</time>
      </trkpt>
      <trkpt lat="44.40679" lon="6.38242">
        <ele>2362</ele>
        <time>2020-07-07T08:07:29.000Z</time>
      </trkpt>
      <trkpt lat="44.40679" lon="6.38242">
        <ele>2362</ele>
        <time>2020-07-07T08:07:30.000Z</time>
      </trkpt>
      <trkpt lat="44.4068" lon="6.38241">
        <ele>2362</ele>
        <time>2020-07-07T08:07:31.000Z</time>
      </trkpt>
      <trkpt lat="44.4068" lon="6.3824">
        <ele>2362</ele>
        <time>2020-07-07T08:07:32.000Z</time>
      </trkpt>
      <trkpt lat="44.40681" lon="6.38239">
        <ele>2362</ele>
        <time>2020-07-07T08:07:33.000Z</time>
      </trkpt>
      <trkpt lat="44.40682" lon="6.38239">
        <ele>2362</ele>
        <time>2020-07-07T08:07:34.000Z</time>
      </trkpt>
      <trkpt lat="44.40682" lon="6.38238">
        <ele>2363</ele>
        <time>2020-07-07T08:07:35.000Z</time>
      </trkpt>
      <trkpt lat="44.40683" lon="6.38237">
        <ele>2363</ele>
        <time>2020-07-07T08:07:36.000Z</time>
      </trkpt>
      <trkpt lat="44.40684" lon="6.38237">
        <ele>2363</ele>
        <time>2020-07-07T08:07:37.000Z</time>
      </trkpt>
      <trkpt lat="44.40684" lon="6.38236">
        <ele>2363</ele>
        <time>2020-07-07T08:07:38.000Z</time>
      </trkpt>
      <trkpt lat="44.40685" lon="6.38236">
        <ele>2363</ele>
        <time>2020-07-07T08:07:39.000Z</time>
      </trkpt>
      <trkpt lat="44.40685" lon="6.38236">
        <ele>2363</ele>
        <time>2020-07-07T08:07:40.000Z</time>
      </trkpt>
      <trkpt lat="44.40684" lon="6.38236">
        <ele>2363</ele>
        <time>2020-07-07T08:07:41.000Z</time>
      </trkpt>
      <trkpt lat="44.40684" lon="6.38236">
        <ele>2363</ele>
        <time>2020-07-07T08:07:42.000Z</time>
      </trkpt>
      <trkpt lat="44.40685" lon="6.38236">
        <ele>2363</ele>
        <time>2020-07-07T08:07:43.000Z</time>
      </trkpt>
      <trkpt lat="44.40685" lon="6.38236">
        <ele>2363</ele>
        <time>2020-07-07T08:07:44.000Z</time>
      </trkpt>
      <trkpt lat="44.40685" lon="6.38236">
        <ele>2363</ele>
        <time>2020-07-07T08:07:45.000Z</time>
      </trkpt>
      <trkpt lat="44.40685" lon="6.38236">
        <ele>2363</ele>
        <time>2020-07-07T08:07:46.000Z</time>
      </trkpt>
      <trkpt lat="44.40686" lon="6.38235">
        <ele>2363</ele>
        <time>2020-07-07T08:07:47.000Z</time>
      </trkpt>
      <trkpt lat="44.40686" lon="6.38234">
        <ele>2364</ele>
        <time>2020-07-07T08:07:48.000Z</time>
      </trkpt>
      <trkpt lat="44.40686" lon="6.38234">
        <ele>2364</ele>
        <time>2020-07-07T08:07:49.000Z</time>
      </trkpt>
      <trkpt lat="44.40687" lon="6.38233">
        <ele>2364</ele>
        <time>2020-07-07T08:07:50.000Z</time>
      </trkpt>
      <trkpt lat="44.40687" lon="6.38233">
        <ele>2364</ele>
        <time>2020-07-07T08:07:51.000Z</time>
      </trkpt>
      <trkpt lat="44.40687" lon="6.38233">
        <ele>2364</ele>
        <time>2020-07-07T08:07:52.000Z</time>
      </trkpt>
      <trkpt lat="44.40687" lon="6.38233">
        <ele>2364</ele>
        <time>2020-07-07T08:07:53.000Z</time>
      </trkpt>
      <trkpt lat="44.40687" lon="6.38233">
        <ele>2364</ele>
        <time>2020-07-07T08:07:54.000Z</time>
      </trkpt>
      <trkpt lat="44.40687" lon="6.38233">
        <ele>2364</ele>
        <time>2020-07-07T08:07:55.000Z</time>
      </trkpt>
      <trkpt lat="44.40687" lon="6.38233">
        <ele>2364</ele>
        <time>2020-07-07T08:07:56.000Z</time>
      </trkpt>
      <trkpt lat="44.40687" lon="6.38233">
        <ele>2364</ele>
        <time>2020-07-07T08:07:57.000Z</time>
      </trkpt>
      <trkpt lat="44.40687" lon="6.38233">
        <ele>2364</ele>
        <time>2020-07-07T08:07:58.000Z</time>
      </trkpt>
      <trkpt lat="44.40687" lon="6.38233">
        <ele>2364</ele>
        <time>2020-07-07T08:07:59.000Z</time>
      </trkpt>
      <trkpt lat="44.40687" lon="6.38233">
        <ele>2364</ele>
        <time>2020-07-07T08:08:00.000Z</time>
      </trkpt>
      <trkpt lat="44.40687" lon="6.38233">
        <ele>2364</ele>
        <time>2020-07-07T08:08:01.000Z</time>
      </trkpt>
      <trkpt lat="44.40687" lon="6.38233">
        <ele>2364</ele>
        <time>2020-07-07T08:08:02.000Z</time>
      </trkpt>
      <trkpt lat="44.40687" lon="6.38233">
        <ele>2364</ele>
        <time>2020-07-07T08:08:03.000Z</time>
      </trkpt>
      <trkpt lat="44.40687" lon="6.38233">
        <ele>2364</ele>
        <time>2020-07-07T08:08:04.000Z</time>
      </trkpt>
      <trkpt lat="44.40687" lon="6.38233">
        <ele>2364</ele>
        <time>2020-07-07T08:08:05.000Z</time>
      </trkpt>
      <trkpt lat="44.40686" lon="6.38233">
        <ele>2364</ele>
        <time>2020-07-07T08:08:06.000Z</time>
      </trkpt>
      <trkpt lat="44.40686" lon="6.38233">
        <ele>2364</ele>
        <time>2020-07-07T08:08:07.000Z</time>
      </trkpt>
      <trkpt lat="44.40687" lon="6.38233">
        <ele>2364</ele>
        <time>2020-07-07T08:08:08.000Z</time>
      </trkpt>
      <trkpt lat="44.40687" lon="6.38233">
        <ele>2364</ele>
        <time>2020-07-07T08:08:09.000Z</time>
      </trkpt>
      <trkpt lat="44.40686" lon="6.38233">
        <ele>2364</ele>
        <time>2020-07-07T08:08:10.000Z</time>
      </trkpt>
      <trkpt lat="44.40686" lon="6.38233">
        <ele>2364</ele>
        <time>2020-07-07T08:08:11.000Z</time>
      </trkpt>
      <trkpt lat="44.40686" lon="6.38233">
        <ele>2364</ele>
        <time>2020-07-07T08:08:12.000Z</time>
      </trkpt>
      <trkpt lat="44.40686" lon="6.38233">
        <ele>2364</ele>
        <time>2020-07-07T08:08:13.000Z</time>
      </trkpt>
      <trkpt lat="44.40686" lon="6.38233">
        <ele>2364</ele>
        <time>2020-07-07T08:08:14.000Z</time>
      </trkpt>
      <trkpt lat="44.40686" lon="6.38233">
        <ele>2364</ele>
        <time>2020-07-07T08:08:15.000Z</time>
      </trkpt>
      <trkpt lat="44.40686" lon="6.38233">
        <ele>2364</ele>
        <time>2020-07-07T08:08:16.000Z</time>
      </trkpt>
      <trkpt lat="44.40686" lon="6.38233">
        <ele>2364</ele>
        <time>2020-07-07T08:08:17.000Z</time>
      </trkpt>
      <trkpt lat="44.40686" lon="6.38233">
        <ele>2364</ele>
        <time>2020-07-07T08:08:18.000Z</time>
      </trkpt>
      <trkpt lat="44.40686" lon="6.38233">
        <ele>2364</ele>
        <time>2020-07-07T08:08:19.000Z</time>
      </trkpt>
      <trkpt lat="44.40686" lon="6.38233">
        <ele>2364</ele>
        <time>2020-07-07T08:08:20.000Z</time>
      </trkpt>
      <trkpt lat="44.40686" lon="6.38233">
        <ele>2364</ele>
        <time>2020-07-07T08:08:21.000Z</time>
      </trkpt>
      <trkpt lat="44.40686" lon="6.38233">
        <ele>2364</ele>
        <time>2020-07-07T08:08:22.000Z</time>
      </trkpt>
      <trkpt lat="44.40686" lon="6.38233">
        <ele>2364</ele>
        <time>2020-07-07T08:08:23.000Z</time>
      </trkpt>
      <trkpt lat="44.40686" lon="6.38233">
        <ele>2364</ele>
        <time>2020-07-07T08:08:24.000Z</time>
      </trkpt>
      <trkpt lat="44.40686" lon="6.38233">
        <ele>2364</ele>
        <time>2020-07-07T08:08:25.000Z</time>
      </trkpt>
      <trkpt lat="44.40686" lon="6.38233">
        <ele>2364</ele>
        <time>2020-07-07T08:08:26.000Z</time>
      </trkpt>
      <trkpt lat="44.40686" lon="6.38233">
        <ele>2364</ele>
        <time>2020-07-07T08:08:27.000Z</time>
      </trkpt>
      <trkpt lat="44.40686" lon="6.38233">
        <ele>2364</ele>
        <time>2020-07-07T08:08:28.000Z</time>
      </trkpt>
      <trkpt lat="44.40686" lon="6.38233">
        <ele>2364</ele>
        <time>2020-07-07T08:08:29.000Z</time>
      </trkpt>
      <trkpt lat="44.40686" lon="6.38233">
        <ele>2364</ele>
        <time>2020-07-07T08:08:30.000Z</time>
      </trkpt>
      <trkpt lat="44.40686" lon="6.38233">
        <ele>2364</ele>
        <time>2020-07-07T08:08:31.000Z</time>
      </trkpt>
      <trkpt lat="44.40687" lon="6.38233">
        <ele>2365</ele>
        <time>2020-07-07T08:08:32.000Z</time>
      </trkpt>
      <trkpt lat="44.40688" lon="6.38233">
        <ele>2365</ele>
        <time>2020-07-07T08:08:33.000Z</time>
      </trkpt>
      <trkpt lat="44.40689" lon="6.38234">
        <ele>2365</ele>
        <time>2020-07-07T08:08:34.000Z</time>
      </trkpt>
      <trkpt lat="44.40689" lon="6.38234">
        <ele>2365</ele>
        <time>2020-07-07T08:08:35.000Z</time>
      </trkpt>
      <trkpt lat="44.4069" lon="6.38234">
        <ele>2365</ele>
        <time>2020-07-07T08:08:36.000Z</time>
      </trkpt>
      <trkpt lat="44.40691" lon="6.38234">
        <ele>2365</ele>
        <time>2020-07-07T08:08:37.000Z</time>
      </trkpt>
      <trkpt lat="44.40692" lon="6.38234">
        <ele>2365</ele>
        <time>2020-07-07T08:08:38.000Z</time>
      </trkpt>
      <trkpt lat="44.40693" lon="6.38235">
        <ele>2365</ele>
        <time>2020-07-07T08:08:39.000Z</time>
      </trkpt>
      <trkpt lat="44.40693" lon="6.38235">
        <ele>2365</ele>
        <time>2020-07-07T08:08:40.000Z</time>
      </trkpt>
      <trkpt lat="44.40694" lon="6.38235">
        <ele>2365</ele>
        <time>2020-07-07T08:08:41.000Z</time>
      </trkpt>
      <trkpt lat="44.40695" lon="6.38236">
        <ele>2365</ele>
        <time>2020-07-07T08:08:42.000Z</time>
      </trkpt>
      <trkpt lat="44.40696" lon="6.38236">
        <ele>2365</ele>
        <time>2020-07-07T08:08:43.000Z</time>
      </trkpt>
      <trkpt lat="44.40697" lon="6.38236">
        <ele>2365</ele>
        <time>2020-07-07T08:08:44.000Z</time>
      </trkpt>
      <trkpt lat="44.40697" lon="6.38237">
        <ele>2365</ele>
        <time>2020-07-07T08:08:45.000Z</time>
      </trkpt>
      <trkpt lat="44.40698" lon="6.38237">
        <ele>2365</ele>
        <time>2020-07-07T08:08:46.000Z</time>
      </trkpt>
      <trkpt lat="44.40699" lon="6.38237">
        <ele>2366</ele>
        <time>2020-07-07T08:08:47.000Z</time>
      </trkpt>
      <trkpt lat="44.407" lon="6.38238">
        <ele>2366</ele>
        <time>2020-07-07T08:08:48.000Z</time>
      </trkpt>
      <trkpt lat="44.40701" lon="6.38238">
        <ele>2366</ele>
        <time>2020-07-07T08:08:49.000Z</time>
      </trkpt>
      <trkpt lat="44.40701" lon="6.38238">
        <ele>2366</ele>
        <time>2020-07-07T08:08:50.000Z</time>
      </trkpt>
      <trkpt lat="44.40702" lon="6.38239">
        <ele>2366</ele>
        <time>2020-07-07T08:08:51.000Z</time>
      </trkpt>
      <trkpt lat="44.40703" lon="6.38239">
        <ele>2366</ele>
        <time>2020-07-07T08:08:52.000Z</time>
      </trkpt>
      <trkpt lat="44.40704" lon="6.38239">
        <ele>2366</ele>
        <time>2020-07-07T08:08:53.000Z</time>
      </trkpt>
      <trkpt lat="44.40705" lon="6.38239">
        <ele>2367</ele>
        <time>2020-07-07T08:08:54.000Z</time>
      </trkpt>
      <trkpt lat="44.40706" lon="6.38239">
        <ele>2367</ele>
        <time>2020-07-07T08:08:55.000Z</time>
      </trkpt>
      <trkpt lat="44.40707" lon="6.3824">
        <ele>2367</ele>
        <time>2020-07-07T08:08:56.000Z</time>
      </trkpt>
      <trkpt lat="44.40707" lon="6.38241">
        <ele>2367</ele>
        <time>2020-07-07T08:08:57.000Z</time>
      </trkpt>
      <trkpt lat="44.40708" lon="6.38242">
        <ele>2367</ele>
        <time>2020-07-07T08:08:58.000Z</time>
      </trkpt>
      <trkpt lat="44.40709" lon="6.38242">
        <ele>2367</ele>
        <time>2020-07-07T08:08:59.000Z</time>
      </trkpt>
      <trkpt lat="44.4071" lon="6.38243">
        <ele>2367</ele>
        <time>2020-07-07T08:09:00.000Z</time>
      </trkpt>
      <trkpt lat="44.4071" lon="6.38243">
        <ele>2367</ele>
        <time>2020-07-07T08:09:01.000Z</time>
      </trkpt>
      <trkpt lat="44.40711" lon="6.38243">
        <ele>2367</ele>
        <time>2020-07-07T08:09:02.000Z</time>
      </trkpt>
      <trkpt lat="44.40712" lon="6.38244">
        <ele>2367</ele>
        <time>2020-07-07T08:09:03.000Z</time>
      </trkpt>
      <trkpt lat="44.40713" lon="6.38244">
        <ele>2367</ele>
        <time>2020-07-07T08:09:04.000Z</time>
      </trkpt>
      <trkpt lat="44.40714" lon="6.38244">
        <ele>2367</ele>
        <time>2020-07-07T08:09:05.000Z</time>
      </trkpt>
      <trkpt lat="44.40715" lon="6.38245">
        <ele>2367</ele>
        <time>2020-07-07T08:09:06.000Z</time>
      </trkpt>
      <trkpt lat="44.40715" lon="6.38245">
        <ele>2367</ele>
        <time>2020-07-07T08:09:07.000Z</time>
      </trkpt>
      <trkpt lat="44.40716" lon="6.38245">
        <ele>2367</ele>
        <time>2020-07-07T08:09:08.000Z</time>
      </trkpt>
      <trkpt lat="44.40717" lon="6.38245">
        <ele>2368</ele>
        <time>2020-07-07T08:09:09.000Z</time>
      </trkpt>
      <trkpt lat="44.40717" lon="6.38246">
        <ele>2368</ele>
        <time>2020-07-07T08:09:10.000Z</time>
      </trkpt>
      <trkpt lat="44.40718" lon="6.38247">
        <ele>2368</ele>
        <time>2020-07-07T08:09:11.000Z</time>
      </trkpt>
      <trkpt lat="44.40719" lon="6.38247">
        <ele>2368</ele>
        <time>2020-07-07T08:09:12.000Z</time>
      </trkpt>
      <trkpt lat="44.4072" lon="6.38247">
        <ele>2368</ele>
        <time>2020-07-07T08:09:13.000Z</time>
      </trkpt>
      <trkpt lat="44.4072" lon="6.38247">
        <ele>2368</ele>
        <time>2020-07-07T08:09:14.000Z</time>
      </trkpt>
      <trkpt lat="44.40721" lon="6.38247">
        <ele>2368</ele>
        <time>2020-07-07T08:09:15.000Z</time>
      </trkpt>
      <trkpt lat="44.40722" lon="6.38248">
        <ele>2368</ele>
        <time>2020-07-07T08:09:16.000Z</time>
      </trkpt>
      <trkpt lat="44.40723" lon="6.38248">
        <ele>2368</ele>
        <time>2020-07-07T08:09:17.000Z</time>
      </trkpt>
      <trkpt lat="44.40723" lon="6.38248">
        <ele>2369</ele>
        <time>2020-07-07T08:09:18.000Z</time>
      </trkpt>
      <trkpt lat="44.40724" lon="6.38248">
        <ele>2369</ele>
        <time>2020-07-07T08:09:19.000Z</time>
      </trkpt>
      <trkpt lat="44.40725" lon="6.38247">
        <ele>2369</ele>
        <time>2020-07-07T08:09:20.000Z</time>
      </trkpt>
      <trkpt lat="44.40726" lon="6.38247">
        <ele>2369</ele>
        <time>2020-07-07T08:09:21.000Z</time>
      </trkpt>
      <trkpt lat="44.40726" lon="6.38247">
        <ele>2369</ele>
        <time>2020-07-07T08:09:22.000Z</time>
      </trkpt>
      <trkpt lat="44.40727" lon="6.38247">
        <ele>2369</ele>
        <time>2020-07-07T08:09:23.000Z</time>
      </trkpt>
      <trkpt lat="44.40728" lon="6.38247">
        <ele>2370</ele>
        <time>2020-07-07T08:09:24.000Z</time>
      </trkpt>
      <trkpt lat="44.40729" lon="6.38247">
        <ele>2370</ele>
        <time>2020-07-07T08:09:25.000Z</time>
      </trkpt>
      <trkpt lat="44.40729" lon="6.38247">
        <ele>2370</ele>
        <time>2020-07-07T08:09:26.000Z</time>
      </trkpt>
      <trkpt lat="44.4073" lon="6.38246">
        <ele>2370</ele>
        <time>2020-07-07T08:09:27.000Z</time>
      </trkpt>
      <trkpt lat="44.40731" lon="6.38246">
        <ele>2370</ele>
        <time>2020-07-07T08:09:28.000Z</time>
      </trkpt>
      <trkpt lat="44.40732" lon="6.38246">
        <ele>2370</ele>
        <time>2020-07-07T08:09:29.000Z</time>
      </trkpt>
      <trkpt lat="44.40732" lon="6.38246">
        <ele>2370</ele>
        <time>2020-07-07T08:09:30.000Z</time>
      </trkpt>
      <trkpt lat="44.40733" lon="6.38245">
        <ele>2370</ele>
        <time>2020-07-07T08:09:31.000Z</time>
      </trkpt>
      <trkpt lat="44.40734" lon="6.38245">
        <ele>2371</ele>
        <time>2020-07-07T08:09:32.000Z</time>
      </trkpt>
      <trkpt lat="44.40734" lon="6.38244">
        <ele>2371</ele>
        <time>2020-07-07T08:09:33.000Z</time>
      </trkpt>
      <trkpt lat="44.40735" lon="6.38243">
        <ele>2371</ele>
        <time>2020-07-07T08:09:34.000Z</time>
      </trkpt>
      <trkpt lat="44.40736" lon="6.38243">
        <ele>2371</ele>
        <time>2020-07-07T08:09:35.000Z</time>
      </trkpt>
      <trkpt lat="44.40737" lon="6.38242">
        <ele>2371</ele>
        <time>2020-07-07T08:09:36.000Z</time>
      </trkpt>
      <trkpt lat="44.40737" lon="6.38241">
        <ele>2371</ele>
        <time>2020-07-07T08:09:37.000Z</time>
      </trkpt>
      <trkpt lat="44.40738" lon="6.38241">
        <ele>2371</ele>
        <time>2020-07-07T08:09:38.000Z</time>
      </trkpt>
      <trkpt lat="44.40739" lon="6.38241">
        <ele>2372</ele>
        <time>2020-07-07T08:09:39.000Z</time>
      </trkpt>
      <trkpt lat="44.40739" lon="6.3824">
        <ele>2372</ele>
        <time>2020-07-07T08:09:40.000Z</time>
      </trkpt>
      <trkpt lat="44.4074" lon="6.38239">
        <ele>2372</ele>
        <time>2020-07-07T08:09:41.000Z</time>
      </trkpt>
      <trkpt lat="44.40741" lon="6.38239">
        <ele>2372</ele>
        <time>2020-07-07T08:09:42.000Z</time>
      </trkpt>
      <trkpt lat="44.40742" lon="6.38238">
        <ele>2372</ele>
        <time>2020-07-07T08:09:43.000Z</time>
      </trkpt>
      <trkpt lat="44.40742" lon="6.38237">
        <ele>2373</ele>
        <time>2020-07-07T08:09:44.000Z</time>
      </trkpt>
      <trkpt lat="44.40742" lon="6.38237">
        <ele>2373</ele>
        <time>2020-07-07T08:09:45.000Z</time>
      </trkpt>
      <trkpt lat="44.40743" lon="6.38236">
        <ele>2373</ele>
        <time>2020-07-07T08:09:46.000Z</time>
      </trkpt>
      <trkpt lat="44.40744" lon="6.38235">
        <ele>2373</ele>
        <time>2020-07-07T08:09:47.000Z</time>
      </trkpt>
      <trkpt lat="44.40744" lon="6.38234">
        <ele>2373</ele>
        <time>2020-07-07T08:09:48.000Z</time>
      </trkpt>
      <trkpt lat="44.40745" lon="6.38234">
        <ele>2373</ele>
        <time>2020-07-07T08:09:49.000Z</time>
      </trkpt>
      <trkpt lat="44.40745" lon="6.38233">
        <ele>2373</ele>
        <time>2020-07-07T08:09:50.000Z</time>
      </trkpt>
      <trkpt lat="44.40746" lon="6.38232">
        <ele>2373</ele>
        <time>2020-07-07T08:09:51.000Z</time>
      </trkpt>
      <trkpt lat="44.40746" lon="6.38231">
        <ele>2373</ele>
        <time>2020-07-07T08:09:52.000Z</time>
      </trkpt>
      <trkpt lat="44.40747" lon="6.38231">
        <ele>2374</ele>
        <time>2020-07-07T08:09:53.000Z</time>
      </trkpt>
      <trkpt lat="44.40747" lon="6.3823">
        <ele>2374</ele>
        <time>2020-07-07T08:09:54.000Z</time>
      </trkpt>
      <trkpt lat="44.40747" lon="6.38229">
        <ele>2374</ele>
        <time>2020-07-07T08:09:55.000Z</time>
      </trkpt>
      <trkpt lat="44.40748" lon="6.38228">
        <ele>2374</ele>
        <time>2020-07-07T08:09:56.000Z</time>
      </trkpt>
      <trkpt lat="44.40748" lon="6.38227">
        <ele>2374</ele>
        <time>2020-07-07T08:09:57.000Z</time>
      </trkpt>
      <trkpt lat="44.40748" lon="6.38226">
        <ele>2374</ele>
        <time>2020-07-07T08:09:58.000Z</time>
      </trkpt>
      <trkpt lat="44.40748" lon="6.38225">
        <ele>2374</ele>
        <time>2020-07-07T08:09:59.000Z</time>
      </trkpt>
      <trkpt lat="44.40749" lon="6.38224">
        <ele>2374</ele>
        <time>2020-07-07T08:10:00.000Z</time>
      </trkpt>
      <trkpt lat="44.40749" lon="6.38223">
        <ele>2375</ele>
        <time>2020-07-07T08:10:01.000Z</time>
      </trkpt>
      <trkpt lat="44.40749" lon="6.38222">
        <ele>2375</ele>
        <time>2020-07-07T08:10:02.000Z</time>
      </trkpt>
      <trkpt lat="44.4075" lon="6.38221">
        <ele>2375</ele>
        <time>2020-07-07T08:10:03.000Z</time>
      </trkpt>
      <trkpt lat="44.4075" lon="6.3822">
        <ele>2375</ele>
        <time>2020-07-07T08:10:04.000Z</time>
      </trkpt>
      <trkpt lat="44.4075" lon="6.38219">
        <ele>2375</ele>
        <time>2020-07-07T08:10:05.000Z</time>
      </trkpt>
      <trkpt lat="44.4075" lon="6.38218">
        <ele>2375</ele>
        <time>2020-07-07T08:10:06.000Z</time>
      </trkpt>
      <trkpt lat="44.40751" lon="6.38217">
        <ele>2375</ele>
        <time>2020-07-07T08:10:07.000Z</time>
      </trkpt>
      <trkpt lat="44.40751" lon="6.38216">
        <ele>2375</ele>
        <time>2020-07-07T08:10:08.000Z</time>
      </trkpt>
      <trkpt lat="44.40752" lon="6.38216">
        <ele>2375</ele>
        <time>2020-07-07T08:10:09.000Z</time>
      </trkpt>
      <trkpt lat="44.40752" lon="6.38214">
        <ele>2376</ele>
        <time>2020-07-07T08:10:10.000Z</time>
      </trkpt>
      <trkpt lat="44.40752" lon="6.38213">
        <ele>2376</ele>
        <time>2020-07-07T08:10:11.000Z</time>
      </trkpt>
      <trkpt lat="44.40752" lon="6.38212">
        <ele>2376</ele>
        <time>2020-07-07T08:10:12.000Z</time>
      </trkpt>
      <trkpt lat="44.40753" lon="6.38211">
        <ele>2376</ele>
        <time>2020-07-07T08:10:13.000Z</time>
      </trkpt>
      <trkpt lat="44.40753" lon="6.3821">
        <ele>2376</ele>
        <time>2020-07-07T08:10:14.000Z</time>
      </trkpt>
      <trkpt lat="44.40753" lon="6.38209">
        <ele>2376</ele>
        <time>2020-07-07T08:10:15.000Z</time>
      </trkpt>
      <trkpt lat="44.40754" lon="6.38207">
        <ele>2376</ele>
        <time>2020-07-07T08:10:16.000Z</time>
      </trkpt>
      <trkpt lat="44.40754" lon="6.38206">
        <ele>2376</ele>
        <time>2020-07-07T08:10:17.000Z</time>
      </trkpt>
      <trkpt lat="44.40754" lon="6.38205">
        <ele>2376</ele>
        <time>2020-07-07T08:10:18.000Z</time>
      </trkpt>
      <trkpt lat="44.40755" lon="6.38204">
        <ele>2376</ele>
        <time>2020-07-07T08:10:19.000Z</time>
      </trkpt>
      <trkpt lat="44.40755" lon="6.38203">
        <ele>2376</ele>
        <time>2020-07-07T08:10:20.000Z</time>
      </trkpt>
      <trkpt lat="44.40756" lon="6.38202">
        <ele>2376</ele>
        <time>2020-07-07T08:10:21.000Z</time>
      </trkpt>
      <trkpt lat="44.40756" lon="6.38201">
        <ele>2376</ele>
        <time>2020-07-07T08:10:22.000Z</time>
      </trkpt>
      <trkpt lat="44.40756" lon="6.382">
        <ele>2377</ele>
        <time>2020-07-07T08:10:23.000Z</time>
      </trkpt>
      <trkpt lat="44.40756" lon="6.382">
        <ele>2377</ele>
        <time>2020-07-07T08:10:24.000Z</time>
      </trkpt>
      <trkpt lat="44.40757" lon="6.38199">
        <ele>2377</ele>
        <time>2020-07-07T08:10:25.000Z</time>
      </trkpt>
      <trkpt lat="44.40757" lon="6.38199">
        <ele>2377</ele>
        <time>2020-07-07T08:10:26.000Z</time>
      </trkpt>
      <trkpt lat="44.40757" lon="6.38199">
        <ele>2377</ele>
        <time>2020-07-07T08:10:27.000Z</time>
      </trkpt>
      <trkpt lat="44.40757" lon="6.38197">
        <ele>2377</ele>
        <time>2020-07-07T08:10:28.000Z</time>
      </trkpt>
      <trkpt lat="44.40757" lon="6.38197">
        <ele>2377</ele>
        <time>2020-07-07T08:10:29.000Z</time>
      </trkpt>
      <trkpt lat="44.40758" lon="6.38196">
        <ele>2377</ele>
        <time>2020-07-07T08:10:30.000Z</time>
      </trkpt>
      <trkpt lat="44.40758" lon="6.38195">
        <ele>2377</ele>
        <time>2020-07-07T08:10:31.000Z</time>
      </trkpt>
      <trkpt lat="44.40759" lon="6.38194">
        <ele>2377</ele>
        <time>2020-07-07T08:10:32.000Z</time>
      </trkpt>
      <trkpt lat="44.4076" lon="6.38192">
        <ele>2377</ele>
        <time>2020-07-07T08:10:33.000Z</time>
      </trkpt>
      <trkpt lat="44.40759" lon="6.38192">
        <ele>2377</ele>
        <time>2020-07-07T08:10:34.000Z</time>
      </trkpt>
      <trkpt lat="44.4076" lon="6.38191">
        <ele>2377</ele>
        <time>2020-07-07T08:10:35.000Z</time>
      </trkpt>
      <trkpt lat="44.4076" lon="6.3819">
        <ele>2377</ele>
        <time>2020-07-07T08:10:36.000Z</time>
      </trkpt>
      <trkpt lat="44.40761" lon="6.38189">
        <ele>2377</ele>
        <time>2020-07-07T08:10:37.000Z</time>
      </trkpt>
      <trkpt lat="44.40761" lon="6.38188">
        <ele>2377</ele>
        <time>2020-07-07T08:10:38.000Z</time>
      </trkpt>
      <trkpt lat="44.40762" lon="6.38187">
        <ele>2377</ele>
        <time>2020-07-07T08:10:39.000Z</time>
      </trkpt>
      <trkpt lat="44.40762" lon="6.38186">
        <ele>2377</ele>
        <time>2020-07-07T08:10:40.000Z</time>
      </trkpt>
      <trkpt lat="44.40762" lon="6.38185">
        <ele>2377</ele>
        <time>2020-07-07T08:10:41.000Z</time>
      </trkpt>
      <trkpt lat="44.40763" lon="6.38184">
        <ele>2377</ele>
        <time>2020-07-07T08:10:42.000Z</time>
      </trkpt>
      <trkpt lat="44.40763" lon="6.38183">
        <ele>2377</ele>
        <time>2020-07-07T08:10:43.000Z</time>
      </trkpt>
      <trkpt lat="44.40763" lon="6.38181">
        <ele>2377</ele>
        <time>2020-07-07T08:10:44.000Z</time>
      </trkpt>
      <trkpt lat="44.40764" lon="6.38181">
        <ele>2377</ele>
        <time>2020-07-07T08:10:45.000Z</time>
      </trkpt>
      <trkpt lat="44.40765" lon="6.38179">
        <ele>2377</ele>
        <time>2020-07-07T08:10:46.000Z</time>
      </trkpt>
      <trkpt lat="44.40765" lon="6.38179">
        <ele>2377</ele>
        <time>2020-07-07T08:10:47.000Z</time>
      </trkpt>
      <trkpt lat="44.40766" lon="6.38178">
        <ele>2377</ele>
        <time>2020-07-07T08:10:48.000Z</time>
      </trkpt>
      <trkpt lat="44.40766" lon="6.38178">
        <ele>2377</ele>
        <time>2020-07-07T08:10:49.000Z</time>
      </trkpt>
      <trkpt lat="44.40767" lon="6.38178">
        <ele>2377</ele>
        <time>2020-07-07T08:10:50.000Z</time>
      </trkpt>
      <trkpt lat="44.40768" lon="6.38177">
        <ele>2377</ele>
        <time>2020-07-07T08:10:51.000Z</time>
      </trkpt>
      <trkpt lat="44.40769" lon="6.38178">
        <ele>2377</ele>
        <time>2020-07-07T08:10:52.000Z</time>
      </trkpt>
      <trkpt lat="44.4077" lon="6.38178">
        <ele>2377</ele>
        <time>2020-07-07T08:10:53.000Z</time>
      </trkpt>
      <trkpt lat="44.40771" lon="6.38178">
        <ele>2377</ele>
        <time>2020-07-07T08:10:54.000Z</time>
      </trkpt>
      <trkpt lat="44.40772" lon="6.38177">
        <ele>2377</ele>
        <time>2020-07-07T08:10:55.000Z</time>
      </trkpt>
      <trkpt lat="44.40773" lon="6.38178">
        <ele>2377</ele>
        <time>2020-07-07T08:10:56.000Z</time>
      </trkpt>
      <trkpt lat="44.40774" lon="6.38178">
        <ele>2378</ele>
        <time>2020-07-07T08:10:57.000Z</time>
      </trkpt>
      <trkpt lat="44.40774" lon="6.38179">
        <ele>2378</ele>
        <time>2020-07-07T08:10:58.000Z</time>
      </trkpt>
      <trkpt lat="44.40775" lon="6.38179">
        <ele>2378</ele>
        <time>2020-07-07T08:10:59.000Z</time>
      </trkpt>
      <trkpt lat="44.40776" lon="6.38179">
        <ele>2378</ele>
        <time>2020-07-07T08:11:00.000Z</time>
      </trkpt>
      <trkpt lat="44.40777" lon="6.3818">
        <ele>2378</ele>
        <time>2020-07-07T08:11:01.000Z</time>
      </trkpt>
      <trkpt lat="44.40778" lon="6.3818">
        <ele>2378</ele>
        <time>2020-07-07T08:11:02.000Z</time>
      </trkpt>
      <trkpt lat="44.40779" lon="6.3818">
        <ele>2379</ele>
        <time>2020-07-07T08:11:03.000Z</time>
      </trkpt>
      <trkpt lat="44.40779" lon="6.3818">
        <ele>2379</ele>
        <time>2020-07-07T08:11:04.000Z</time>
      </trkpt>
      <trkpt lat="44.4078" lon="6.3818">
        <ele>2379</ele>
        <time>2020-07-07T08:11:05.000Z</time>
      </trkpt>
      <trkpt lat="44.40781" lon="6.38181">
        <ele>2379</ele>
        <time>2020-07-07T08:11:06.000Z</time>
      </trkpt>
      <trkpt lat="44.40781" lon="6.38181">
        <ele>2379</ele>
        <time>2020-07-07T08:11:07.000Z</time>
      </trkpt>
      <trkpt lat="44.40782" lon="6.38182">
        <ele>2379</ele>
        <time>2020-07-07T08:11:08.000Z</time>
      </trkpt>
      <trkpt lat="44.40783" lon="6.38182">
        <ele>2380</ele>
        <time>2020-07-07T08:11:09.000Z</time>
      </trkpt>
      <trkpt lat="44.40784" lon="6.38182">
        <ele>2380</ele>
        <time>2020-07-07T08:11:10.000Z</time>
      </trkpt>
      <trkpt lat="44.40785" lon="6.38182">
        <ele>2380</ele>
        <time>2020-07-07T08:11:11.000Z</time>
      </trkpt>
      <trkpt lat="44.40786" lon="6.38182">
        <ele>2380</ele>
        <time>2020-07-07T08:11:12.000Z</time>
      </trkpt>
      <trkpt lat="44.40787" lon="6.38182">
        <ele>2380</ele>
        <time>2020-07-07T08:11:13.000Z</time>
      </trkpt>
      <trkpt lat="44.40787" lon="6.38182">
        <ele>2380</ele>
        <time>2020-07-07T08:11:14.000Z</time>
      </trkpt>
      <trkpt lat="44.40788" lon="6.38183">
        <ele>2380</ele>
        <time>2020-07-07T08:11:15.000Z</time>
      </trkpt>
      <trkpt lat="44.40789" lon="6.38184">
        <ele>2380</ele>
        <time>2020-07-07T08:11:16.000Z</time>
      </trkpt>
      <trkpt lat="44.4079" lon="6.38184">
        <ele>2380</ele>
        <time>2020-07-07T08:11:17.000Z</time>
      </trkpt>
      <trkpt lat="44.4079" lon="6.38185">
        <ele>2380</ele>
        <time>2020-07-07T08:11:18.000Z</time>
      </trkpt>
      <trkpt lat="44.40791" lon="6.38185">
        <ele>2380</ele>
        <time>2020-07-07T08:11:19.000Z</time>
      </trkpt>
      <trkpt lat="44.40792" lon="6.38185">
        <ele>2380</ele>
        <time>2020-07-07T08:11:20.000Z</time>
      </trkpt>
      <trkpt lat="44.40792" lon="6.38185">
        <ele>2380</ele>
        <time>2020-07-07T08:11:21.000Z</time>
      </trkpt>
      <trkpt lat="44.40793" lon="6.38184">
        <ele>2380</ele>
        <time>2020-07-07T08:11:22.000Z</time>
      </trkpt>
      <trkpt lat="44.40793" lon="6.38184">
        <ele>2380</ele>
        <time>2020-07-07T08:11:23.000Z</time>
      </trkpt>
      <trkpt lat="44.40794" lon="6.38184">
        <ele>2380</ele>
        <time>2020-07-07T08:11:24.000Z</time>
      </trkpt>
      <trkpt lat="44.40794" lon="6.38184">
        <ele>2380</ele>
        <time>2020-07-07T08:11:25.000Z</time>
      </trkpt>
      <trkpt lat="44.40794" lon="6.38184">
        <ele>2380</ele>
        <time>2020-07-07T08:11:26.000Z</time>
      </trkpt>
      <trkpt lat="44.40794" lon="6.38184">
        <ele>2380</ele>
        <time>2020-07-07T08:11:27.000Z</time>
      </trkpt>
      <trkpt lat="44.40795" lon="6.38185">
        <ele>2380</ele>
        <time>2020-07-07T08:11:28.000Z</time>
      </trkpt>
      <trkpt lat="44.40795" lon="6.38185">
        <ele>2381</ele>
        <time>2020-07-07T08:11:29.000Z</time>
      </trkpt>
      <trkpt lat="44.40795" lon="6.38185">
        <ele>2381</ele>
        <time>2020-07-07T08:11:30.000Z</time>
      </trkpt>
      <trkpt lat="44.40795" lon="6.38185">
        <ele>2381</ele>
        <time>2020-07-07T08:11:31.000Z</time>
      </trkpt>
      <trkpt lat="44.40795" lon="6.38185">
        <ele>2381</ele>
        <time>2020-07-07T08:11:32.000Z</time>
      </trkpt>
      <trkpt lat="44.40794" lon="6.38184">
        <ele>2381</ele>
        <time>2020-07-07T08:11:33.000Z</time>
      </trkpt>
      <trkpt lat="44.40794" lon="6.38184">
        <ele>2381</ele>
        <time>2020-07-07T08:11:34.000Z</time>
      </trkpt>
      <trkpt lat="44.40794" lon="6.38184">
        <ele>2381</ele>
        <time>2020-07-07T08:11:35.000Z</time>
      </trkpt>
      <trkpt lat="44.40794" lon="6.38184">
        <ele>2381</ele>
        <time>2020-07-07T08:11:36.000Z</time>
      </trkpt>
      <trkpt lat="44.40794" lon="6.38184">
        <ele>2381</ele>
        <time>2020-07-07T08:11:37.000Z</time>
      </trkpt>
      <trkpt lat="44.40794" lon="6.38184">
        <ele>2381</ele>
        <time>2020-07-07T08:11:38.000Z</time>
      </trkpt>
      <trkpt lat="44.40794" lon="6.38183">
        <ele>2381</ele>
        <time>2020-07-07T08:11:39.000Z</time>
      </trkpt>
      <trkpt lat="44.40794" lon="6.38183">
        <ele>2381</ele>
        <time>2020-07-07T08:11:40.000Z</time>
      </trkpt>
      <trkpt lat="44.40794" lon="6.38184">
        <ele>2381</ele>
        <time>2020-07-07T08:11:41.000Z</time>
      </trkpt>
      <trkpt lat="44.40794" lon="6.38184">
        <ele>2381</ele>
        <time>2020-07-07T08:11:42.000Z</time>
      </trkpt>
      <trkpt lat="44.40794" lon="6.38183">
        <ele>2381</ele>
        <time>2020-07-07T08:11:43.000Z</time>
      </trkpt>
      <trkpt lat="44.40794" lon="6.38183">
        <ele>2381</ele>
        <time>2020-07-07T08:11:44.000Z</time>
      </trkpt>
      <trkpt lat="44.40794" lon="6.38183">
        <ele>2381</ele>
        <time>2020-07-07T08:11:45.000Z</time>
      </trkpt>
      <trkpt lat="44.40794" lon="6.38182">
        <ele>2381</ele>
        <time>2020-07-07T08:11:46.000Z</time>
      </trkpt>
      <trkpt lat="44.40794" lon="6.38182">
        <ele>2381</ele>
        <time>2020-07-07T08:11:47.000Z</time>
      </trkpt>
      <trkpt lat="44.40794" lon="6.38181">
        <ele>2381</ele>
        <time>2020-07-07T08:11:48.000Z</time>
      </trkpt>
      <trkpt lat="44.40794" lon="6.38181">
        <ele>2381</ele>
        <time>2020-07-07T08:11:49.000Z</time>
      </trkpt>
      <trkpt lat="44.40794" lon="6.3818">
        <ele>2381</ele>
        <time>2020-07-07T08:11:50.000Z</time>
      </trkpt>
      <trkpt lat="44.40794" lon="6.3818">
        <ele>2381</ele>
        <time>2020-07-07T08:11:51.000Z</time>
      </trkpt>
      <trkpt lat="44.40794" lon="6.3818">
        <ele>2381</ele>
        <time>2020-07-07T08:11:52.000Z</time>
      </trkpt>
      <trkpt lat="44.40794" lon="6.3818">
        <ele>2381</ele>
        <time>2020-07-07T08:11:53.000Z</time>
      </trkpt>
      <trkpt lat="44.40794" lon="6.3818">
        <ele>2381</ele>
        <time>2020-07-07T08:11:54.000Z</time>
      </trkpt>
      <trkpt lat="44.40794" lon="6.3818">
        <ele>2381</ele>
        <time>2020-07-07T08:11:55.000Z</time>
      </trkpt>
      <trkpt lat="44.40794" lon="6.3818">
        <ele>2381</ele>
        <time>2020-07-07T08:11:56.000Z</time>
      </trkpt>
      <trkpt lat="44.40794" lon="6.3818">
        <ele>2381</ele>
        <time>2020-07-07T08:11:57.000Z</time>
      </trkpt>
      <trkpt lat="44.40794" lon="6.3818">
        <ele>2381</ele>
        <time>2020-07-07T08:11:58.000Z</time>
      </trkpt>
      <trkpt lat="44.40794" lon="6.3818">
        <ele>2381</ele>
        <time>2020-07-07T08:11:59.000Z</time>
      </trkpt>
      <trkpt lat="44.40794" lon="6.3818">
        <ele>2381</ele>
        <time>2020-07-07T08:12:00.000Z</time>
      </trkpt>
      <trkpt lat="44.40794" lon="6.3818">
        <ele>2381</ele>
        <time>2020-07-07T08:12:01.000Z</time>
      </trkpt>
      <trkpt lat="44.40794" lon="6.3818">
        <ele>2381</ele>
        <time>2020-07-07T08:12:02.000Z</time>
      </trkpt>
      <trkpt lat="44.40794" lon="6.3818">
        <ele>2381</ele>
        <time>2020-07-07T08:12:03.000Z</time>
      </trkpt>
      <trkpt lat="44.40794" lon="6.3818">
        <ele>2381</ele>
        <time>2020-07-07T08:12:04.000Z</time>
      </trkpt>
      <trkpt lat="44.40794" lon="6.3818">
        <ele>2381</ele>
        <time>2020-07-07T08:12:05.000Z</time>
      </trkpt>
      <trkpt lat="44.40794" lon="6.3818">
        <ele>2381</ele>
        <time>2020-07-07T08:12:06.000Z</time>
      </trkpt>
      <trkpt lat="44.40794" lon="6.3818">
        <ele>2381</ele>
        <time>2020-07-07T08:12:07.000Z</time>
      </trkpt>
      <trkpt lat="44.40794" lon="6.38179">
        <ele>2381</ele>
        <time>2020-07-07T08:12:08.000Z</time>
      </trkpt>
      <trkpt lat="44.40794" lon="6.38179">
        <ele>2381</ele>
        <time>2020-07-07T08:12:09.000Z</time>
      </trkpt>
      <trkpt lat="44.40794" lon="6.38179">
        <ele>2381</ele>
        <time>2020-07-07T08:12:10.000Z</time>
      </trkpt>
      <trkpt lat="44.40794" lon="6.38179">
        <ele>2381</ele>
        <time>2020-07-07T08:12:11.000Z</time>
      </trkpt>
      <trkpt lat="44.40794" lon="6.38179">
        <ele>2381</ele>
        <time>2020-07-07T08:12:12.000Z</time>
      </trkpt>
      <trkpt lat="44.40794" lon="6.38179">
        <ele>2381</ele>
        <time>2020-07-07T08:12:13.000Z</time>
      </trkpt>
      <trkpt lat="44.40794" lon="6.38179">
        <ele>2381</ele>
        <time>2020-07-07T08:12:14.000Z</time>
      </trkpt>
      <trkpt lat="44.40794" lon="6.38179">
        <ele>2381</ele>
        <time>2020-07-07T08:12:15.000Z</time>
      </trkpt>
      <trkpt lat="44.40794" lon="6.38179">
        <ele>2381</ele>
        <time>2020-07-07T08:12:16.000Z</time>
      </trkpt>
      <trkpt lat="44.40794" lon="6.38179">
        <ele>2381</ele>
        <time>2020-07-07T08:12:17.000Z</time>
      </trkpt>
      <trkpt lat="44.40794" lon="6.38179">
        <ele>2381</ele>
        <time>2020-07-07T08:12:18.000Z</time>
      </trkpt>
      <trkpt lat="44.40795" lon="6.38178">
        <ele>2382</ele>
        <time>2020-07-07T08:12:19.000Z</time>
      </trkpt>
      <trkpt lat="44.40796" lon="6.38178">
        <ele>2382</ele>
        <time>2020-07-07T08:12:20.000Z</time>
      </trkpt>
      <trkpt lat="44.40796" lon="6.38178">
        <ele>2382</ele>
        <time>2020-07-07T08:12:21.000Z</time>
      </trkpt>
      <trkpt lat="44.40797" lon="6.38177">
        <ele>2382</ele>
        <time>2020-07-07T08:12:22.000Z</time>
      </trkpt>
      <trkpt lat="44.40798" lon="6.38177">
        <ele>2381</ele>
        <time>2020-07-07T08:12:23.000Z</time>
      </trkpt>
      <trkpt lat="44.40799" lon="6.38177">
        <ele>2381</ele>
        <time>2020-07-07T08:12:24.000Z</time>
      </trkpt>
      <trkpt lat="44.408" lon="6.38176">
        <ele>2381</ele>
        <time>2020-07-07T08:12:25.000Z</time>
      </trkpt>
      <trkpt lat="44.40801" lon="6.38175">
        <ele>2381</ele>
        <time>2020-07-07T08:12:26.000Z</time>
      </trkpt>
      <trkpt lat="44.40802" lon="6.38174">
        <ele>2382</ele>
        <time>2020-07-07T08:12:27.000Z</time>
      </trkpt>
      <trkpt lat="44.40803" lon="6.38173">
        <ele>2382</ele>
        <time>2020-07-07T08:12:28.000Z</time>
      </trkpt>
      <trkpt lat="44.40804" lon="6.38172">
        <ele>2382</ele>
        <time>2020-07-07T08:12:29.000Z</time>
      </trkpt>
      <trkpt lat="44.40804" lon="6.38172">
        <ele>2382</ele>
        <time>2020-07-07T08:12:30.000Z</time>
      </trkpt>
      <trkpt lat="44.40805" lon="6.38171">
        <ele>2382</ele>
        <time>2020-07-07T08:12:31.000Z</time>
      </trkpt>
      <trkpt lat="44.40806" lon="6.3817">
        <ele>2382</ele>
        <time>2020-07-07T08:12:32.000Z</time>
      </trkpt>
      <trkpt lat="44.40806" lon="6.38169">
        <ele>2382</ele>
        <time>2020-07-07T08:12:33.000Z</time>
      </trkpt>
      <trkpt lat="44.40807" lon="6.38168">
        <ele>2382</ele>
        <time>2020-07-07T08:12:34.000Z</time>
      </trkpt>
      <trkpt lat="44.40808" lon="6.38168">
        <ele>2382</ele>
        <time>2020-07-07T08:12:35.000Z</time>
      </trkpt>
      <trkpt lat="44.40808" lon="6.38167">
        <ele>2383</ele>
        <time>2020-07-07T08:12:36.000Z</time>
      </trkpt>
      <trkpt lat="44.40809" lon="6.38165">
        <ele>2383</ele>
        <time>2020-07-07T08:12:37.000Z</time>
      </trkpt>
      <trkpt lat="44.4081" lon="6.38165">
        <ele>2383</ele>
        <time>2020-07-07T08:12:38.000Z</time>
      </trkpt>
      <trkpt lat="44.4081" lon="6.38164">
        <ele>2383</ele>
        <time>2020-07-07T08:12:39.000Z</time>
      </trkpt>
      <trkpt lat="44.40811" lon="6.38162">
        <ele>2383</ele>
        <time>2020-07-07T08:12:40.000Z</time>
      </trkpt>
      <trkpt lat="44.40812" lon="6.38162">
        <ele>2383</ele>
        <time>2020-07-07T08:12:41.000Z</time>
      </trkpt>
      <trkpt lat="44.40813" lon="6.38162">
        <ele>2383</ele>
        <time>2020-07-07T08:12:42.000Z</time>
      </trkpt>
      <trkpt lat="44.40815" lon="6.38161">
        <ele>2383</ele>
        <time>2020-07-07T08:12:43.000Z</time>
      </trkpt>
      <trkpt lat="44.40815" lon="6.38161">
        <ele>2384</ele>
        <time>2020-07-07T08:12:44.000Z</time>
      </trkpt>
      <trkpt lat="44.40816" lon="6.38161">
        <ele>2384</ele>
        <time>2020-07-07T08:12:45.000Z</time>
      </trkpt>
      <trkpt lat="44.40817" lon="6.38162">
        <ele>2384</ele>
        <time>2020-07-07T08:12:46.000Z</time>
      </trkpt>
      <trkpt lat="44.40818" lon="6.38162">
        <ele>2384</ele>
        <time>2020-07-07T08:12:47.000Z</time>
      </trkpt>
      <trkpt lat="44.40819" lon="6.38163">
        <ele>2384</ele>
        <time>2020-07-07T08:12:48.000Z</time>
      </trkpt>
      <trkpt lat="44.40819" lon="6.38164">
        <ele>2385</ele>
        <time>2020-07-07T08:12:49.000Z</time>
      </trkpt>
      <trkpt lat="44.4082" lon="6.38164">
        <ele>2385</ele>
        <time>2020-07-07T08:12:50.000Z</time>
      </trkpt>
      <trkpt lat="44.4082" lon="6.38165">
        <ele>2385</ele>
        <time>2020-07-07T08:12:51.000Z</time>
      </trkpt>
      <trkpt lat="44.40821" lon="6.38166">
        <ele>2385</ele>
        <time>2020-07-07T08:12:52.000Z</time>
      </trkpt>
      <trkpt lat="44.40821" lon="6.38167">
        <ele>2385</ele>
        <time>2020-07-07T08:12:53.000Z</time>
      </trkpt>
      <trkpt lat="44.40822" lon="6.38168">
        <ele>2385</ele>
        <time>2020-07-07T08:12:54.000Z</time>
      </trkpt>
      <trkpt lat="44.40823" lon="6.38169">
        <ele>2385</ele>
        <time>2020-07-07T08:12:55.000Z</time>
      </trkpt>
      <trkpt lat="44.40823" lon="6.3817">
        <ele>2385</ele>
        <time>2020-07-07T08:12:56.000Z</time>
      </trkpt>
      <trkpt lat="44.40824" lon="6.38171">
        <ele>2385</ele>
        <time>2020-07-07T08:12:57.000Z</time>
      </trkpt>
      <trkpt lat="44.40824" lon="6.38172">
        <ele>2385</ele>
        <time>2020-07-07T08:12:58.000Z</time>
      </trkpt>
      <trkpt lat="44.40825" lon="6.38173">
        <ele>2386</ele>
        <time>2020-07-07T08:12:59.000Z</time>
      </trkpt>
      <trkpt lat="44.40825" lon="6.38174">
        <ele>2386</ele>
        <time>2020-07-07T08:13:00.000Z</time>
      </trkpt>
      <trkpt lat="44.40826" lon="6.38174">
        <ele>2386</ele>
        <time>2020-07-07T08:13:01.000Z</time>
      </trkpt>
      <trkpt lat="44.40827" lon="6.38175">
        <ele>2386</ele>
        <time>2020-07-07T08:13:02.000Z</time>
      </trkpt>
      <trkpt lat="44.40828" lon="6.38176">
        <ele>2386</ele>
        <time>2020-07-07T08:13:03.000Z</time>
      </trkpt>
      <trkpt lat="44.40829" lon="6.38177">
        <ele>2386</ele>
        <time>2020-07-07T08:13:04.000Z</time>
      </trkpt>
      <trkpt lat="44.4083" lon="6.38177">
        <ele>2386</ele>
        <time>2020-07-07T08:13:05.000Z</time>
      </trkpt>
      <trkpt lat="44.40831" lon="6.38177">
        <ele>2386</ele>
        <time>2020-07-07T08:13:06.000Z</time>
      </trkpt>
      <trkpt lat="44.40832" lon="6.38177">
        <ele>2386</ele>
        <time>2020-07-07T08:13:07.000Z</time>
      </trkpt>
      <trkpt lat="44.40833" lon="6.38177">
        <ele>2386</ele>
        <time>2020-07-07T08:13:08.000Z</time>
      </trkpt>
      <trkpt lat="44.40834" lon="6.38177">
        <ele>2387</ele>
        <time>2020-07-07T08:13:09.000Z</time>
      </trkpt>
      <trkpt lat="44.40836" lon="6.38177">
        <ele>2387</ele>
        <time>2020-07-07T08:13:10.000Z</time>
      </trkpt>
      <trkpt lat="44.40836" lon="6.38178">
        <ele>2387</ele>
        <time>2020-07-07T08:13:11.000Z</time>
      </trkpt>
      <trkpt lat="44.40838" lon="6.38178">
        <ele>2387</ele>
        <time>2020-07-07T08:13:12.000Z</time>
      </trkpt>
      <trkpt lat="44.40838" lon="6.38178">
        <ele>2387</ele>
        <time>2020-07-07T08:13:13.000Z</time>
      </trkpt>
      <trkpt lat="44.40839" lon="6.38178">
        <ele>2387</ele>
        <time>2020-07-07T08:13:14.000Z</time>
      </trkpt>
      <trkpt lat="44.4084" lon="6.38177">
        <ele>2387</ele>
        <time>2020-07-07T08:13:15.000Z</time>
      </trkpt>
      <trkpt lat="44.40841" lon="6.38177">
        <ele>2387</ele>
        <time>2020-07-07T08:13:16.000Z</time>
      </trkpt>
      <trkpt lat="44.40842" lon="6.38177">
        <ele>2388</ele>
        <time>2020-07-07T08:13:17.000Z</time>
      </trkpt>
      <trkpt lat="44.40843" lon="6.38177">
        <ele>2388</ele>
        <time>2020-07-07T08:13:18.000Z</time>
      </trkpt>
      <trkpt lat="44.40843" lon="6.38177">
        <ele>2388</ele>
        <time>2020-07-07T08:13:19.000Z</time>
      </trkpt>
      <trkpt lat="44.40844" lon="6.38177">
        <ele>2388</ele>
        <time>2020-07-07T08:13:20.000Z</time>
      </trkpt>
      <trkpt lat="44.40845" lon="6.38176">
        <ele>2388</ele>
        <time>2020-07-07T08:13:21.000Z</time>
      </trkpt>
      <trkpt lat="44.40846" lon="6.38176">
        <ele>2388</ele>
        <time>2020-07-07T08:13:22.000Z</time>
      </trkpt>
      <trkpt lat="44.40847" lon="6.38177">
        <ele>2389</ele>
        <time>2020-07-07T08:13:23.000Z</time>
      </trkpt>
      <trkpt lat="44.40848" lon="6.38177">
        <ele>2389</ele>
        <time>2020-07-07T08:13:24.000Z</time>
      </trkpt>
      <trkpt lat="44.40848" lon="6.38177">
        <ele>2389</ele>
        <time>2020-07-07T08:13:25.000Z</time>
      </trkpt>
      <trkpt lat="44.40849" lon="6.38178">
        <ele>2389</ele>
        <time>2020-07-07T08:13:26.000Z</time>
      </trkpt>
      <trkpt lat="44.4085" lon="6.38179">
        <ele>2390</ele>
        <time>2020-07-07T08:13:27.000Z</time>
      </trkpt>
      <trkpt lat="44.40851" lon="6.38179">
        <ele>2390</ele>
        <time>2020-07-07T08:13:28.000Z</time>
      </trkpt>
      <trkpt lat="44.40851" lon="6.3818">
        <ele>2390</ele>
        <time>2020-07-07T08:13:29.000Z</time>
      </trkpt>
      <trkpt lat="44.40852" lon="6.38181">
        <ele>2390</ele>
        <time>2020-07-07T08:13:30.000Z</time>
      </trkpt>
      <trkpt lat="44.40853" lon="6.38181">
        <ele>2390</ele>
        <time>2020-07-07T08:13:31.000Z</time>
      </trkpt>
      <trkpt lat="44.40853" lon="6.38181">
        <ele>2390</ele>
        <time>2020-07-07T08:13:32.000Z</time>
      </trkpt>
      <trkpt lat="44.40854" lon="6.38182">
        <ele>2391</ele>
        <time>2020-07-07T08:13:33.000Z</time>
      </trkpt>
      <trkpt lat="44.40855" lon="6.38182">
        <ele>2391</ele>
        <time>2020-07-07T08:13:34.000Z</time>
      </trkpt>
      <trkpt lat="44.40856" lon="6.38182">
        <ele>2391</ele>
        <time>2020-07-07T08:13:35.000Z</time>
      </trkpt>
      <trkpt lat="44.40856" lon="6.38183">
        <ele>2391</ele>
        <time>2020-07-07T08:13:36.000Z</time>
      </trkpt>
      <trkpt lat="44.40857" lon="6.38183">
        <ele>2391</ele>
        <time>2020-07-07T08:13:37.000Z</time>
      </trkpt>
      <trkpt lat="44.40858" lon="6.38183">
        <ele>2391</ele>
        <time>2020-07-07T08:13:38.000Z</time>
      </trkpt>
      <trkpt lat="44.40859" lon="6.38183">
        <ele>2391</ele>
        <time>2020-07-07T08:13:39.000Z</time>
      </trkpt>
      <trkpt lat="44.4086" lon="6.38183">
        <ele>2391</ele>
        <time>2020-07-07T08:13:40.000Z</time>
      </trkpt>
      <trkpt lat="44.40861" lon="6.38184">
        <ele>2392</ele>
        <time>2020-07-07T08:13:41.000Z</time>
      </trkpt>
      <trkpt lat="44.40862" lon="6.38184">
        <ele>2392</ele>
        <time>2020-07-07T08:13:42.000Z</time>
      </trkpt>
      <trkpt lat="44.40863" lon="6.38183">
        <ele>2392</ele>
        <time>2020-07-07T08:13:43.000Z</time>
      </trkpt>
      <trkpt lat="44.40864" lon="6.38183">
        <ele>2392</ele>
        <time>2020-07-07T08:13:44.000Z</time>
      </trkpt>
      <trkpt lat="44.40865" lon="6.38183">
        <ele>2392</ele>
        <time>2020-07-07T08:13:45.000Z</time>
      </trkpt>
      <trkpt lat="44.40866" lon="6.38184">
        <ele>2392</ele>
        <time>2020-07-07T08:13:46.000Z</time>
      </trkpt>
      <trkpt lat="44.40866" lon="6.38184">
        <ele>2392</ele>
        <time>2020-07-07T08:13:47.000Z</time>
      </trkpt>
      <trkpt lat="44.40867" lon="6.38184">
        <ele>2392</ele>
        <time>2020-07-07T08:13:48.000Z</time>
      </trkpt>
      <trkpt lat="44.40868" lon="6.38184">
        <ele>2392</ele>
        <time>2020-07-07T08:13:49.000Z</time>
      </trkpt>
      <trkpt lat="44.40868" lon="6.38184">
        <ele>2392</ele>
        <time>2020-07-07T08:13:50.000Z</time>
      </trkpt>
      <trkpt lat="44.40869" lon="6.38183">
        <ele>2392</ele>
        <time>2020-07-07T08:13:51.000Z</time>
      </trkpt>
      <trkpt lat="44.4087" lon="6.38183">
        <ele>2392</ele>
        <time>2020-07-07T08:13:52.000Z</time>
      </trkpt>
      <trkpt lat="44.4087" lon="6.38183">
        <ele>2393</ele>
        <time>2020-07-07T08:13:53.000Z</time>
      </trkpt>
      <trkpt lat="44.40871" lon="6.38183">
        <ele>2393</ele>
        <time>2020-07-07T08:13:54.000Z</time>
      </trkpt>
      <trkpt lat="44.40872" lon="6.38182">
        <ele>2393</ele>
        <time>2020-07-07T08:13:55.000Z</time>
      </trkpt>
      <trkpt lat="44.40873" lon="6.38182">
        <ele>2393</ele>
        <time>2020-07-07T08:13:56.000Z</time>
      </trkpt>
      <trkpt lat="44.40873" lon="6.38181">
        <ele>2393</ele>
        <time>2020-07-07T08:13:57.000Z</time>
      </trkpt>
      <trkpt lat="44.40874" lon="6.38181">
        <ele>2393</ele>
        <time>2020-07-07T08:13:58.000Z</time>
      </trkpt>
      <trkpt lat="44.40875" lon="6.38181">
        <ele>2393</ele>
        <time>2020-07-07T08:13:59.000Z</time>
      </trkpt>
      <trkpt lat="44.40875" lon="6.38181">
        <ele>2394</ele>
        <time>2020-07-07T08:14:00.000Z</time>
      </trkpt>
      <trkpt lat="44.40876" lon="6.3818">
        <ele>2394</ele>
        <time>2020-07-07T08:14:01.000Z</time>
      </trkpt>
      <trkpt lat="44.40877" lon="6.3818">
        <ele>2394</ele>
        <time>2020-07-07T08:14:02.000Z</time>
      </trkpt>
      <trkpt lat="44.40878" lon="6.3818">
        <ele>2394</ele>
        <time>2020-07-07T08:14:03.000Z</time>
      </trkpt>
      <trkpt lat="44.40878" lon="6.38179">
        <ele>2394</ele>
        <time>2020-07-07T08:14:04.000Z</time>
      </trkpt>
      <trkpt lat="44.40879" lon="6.38178">
        <ele>2394</ele>
        <time>2020-07-07T08:14:05.000Z</time>
      </trkpt>
      <trkpt lat="44.4088" lon="6.38178">
        <ele>2395</ele>
        <time>2020-07-07T08:14:06.000Z</time>
      </trkpt>
      <trkpt lat="44.40881" lon="6.38177">
        <ele>2395</ele>
        <time>2020-07-07T08:14:07.000Z</time>
      </trkpt>
      <trkpt lat="44.40881" lon="6.38176">
        <ele>2395</ele>
        <time>2020-07-07T08:14:08.000Z</time>
      </trkpt>
      <trkpt lat="44.40882" lon="6.38175">
        <ele>2395</ele>
        <time>2020-07-07T08:14:09.000Z</time>
      </trkpt>
      <trkpt lat="44.40883" lon="6.38175">
        <ele>2395</ele>
        <time>2020-07-07T08:14:10.000Z</time>
      </trkpt>
      <trkpt lat="44.40884" lon="6.38174">
        <ele>2395</ele>
        <time>2020-07-07T08:14:11.000Z</time>
      </trkpt>
      <trkpt lat="44.40885" lon="6.38172">
        <ele>2395</ele>
        <time>2020-07-07T08:14:12.000Z</time>
      </trkpt>
      <trkpt lat="44.40886" lon="6.38171">
        <ele>2395</ele>
        <time>2020-07-07T08:14:13.000Z</time>
      </trkpt>
      <trkpt lat="44.40887" lon="6.3817">
        <ele>2395</ele>
        <time>2020-07-07T08:14:14.000Z</time>
      </trkpt>
      <trkpt lat="44.40888" lon="6.38169">
        <ele>2395</ele>
        <time>2020-07-07T08:14:15.000Z</time>
      </trkpt>
      <trkpt lat="44.40888" lon="6.38168">
        <ele>2395</ele>
        <time>2020-07-07T08:14:16.000Z</time>
      </trkpt>
      <trkpt lat="44.40888" lon="6.38167">
        <ele>2395</ele>
        <time>2020-07-07T08:14:17.000Z</time>
      </trkpt>
      <trkpt lat="44.40889" lon="6.38165">
        <ele>2395</ele>
        <time>2020-07-07T08:14:18.000Z</time>
      </trkpt>
      <trkpt lat="44.40889" lon="6.38164">
        <ele>2395</ele>
        <time>2020-07-07T08:14:19.000Z</time>
      </trkpt>
      <trkpt lat="44.4089" lon="6.38164">
        <ele>2395</ele>
        <time>2020-07-07T08:14:20.000Z</time>
      </trkpt>
      <trkpt lat="44.40891" lon="6.38163">
        <ele>2395</ele>
        <time>2020-07-07T08:14:21.000Z</time>
      </trkpt>
      <trkpt lat="44.40891" lon="6.38162">
        <ele>2395</ele>
        <time>2020-07-07T08:14:22.000Z</time>
      </trkpt>
      <trkpt lat="44.40892" lon="6.38161">
        <ele>2395</ele>
        <time>2020-07-07T08:14:23.000Z</time>
      </trkpt>
      <trkpt lat="44.40892" lon="6.3816">
        <ele>2395</ele>
        <time>2020-07-07T08:14:24.000Z</time>
      </trkpt>
      <trkpt lat="44.40892" lon="6.38159">
        <ele>2395</ele>
        <time>2020-07-07T08:14:25.000Z</time>
      </trkpt>
      <trkpt lat="44.40893" lon="6.38158">
        <ele>2395</ele>
        <time>2020-07-07T08:14:26.000Z</time>
      </trkpt>
      <trkpt lat="44.40894" lon="6.38157">
        <ele>2395</ele>
        <time>2020-07-07T08:14:27.000Z</time>
      </trkpt>
      <trkpt lat="44.40894" lon="6.38157">
        <ele>2395</ele>
        <time>2020-07-07T08:14:28.000Z</time>
      </trkpt>
      <trkpt lat="44.40895" lon="6.38156">
        <ele>2395</ele>
        <time>2020-07-07T08:14:29.000Z</time>
      </trkpt>
      <trkpt lat="44.40896" lon="6.38156">
        <ele>2395</ele>
        <time>2020-07-07T08:14:30.000Z</time>
      </trkpt>
      <trkpt lat="44.40897" lon="6.38156">
        <ele>2395</ele>
        <time>2020-07-07T08:14:31.000Z</time>
      </trkpt>
      <trkpt lat="44.40897" lon="6.38156">
        <ele>2396</ele>
        <time>2020-07-07T08:14:32.000Z</time>
      </trkpt>
      <trkpt lat="44.40898" lon="6.38156">
        <ele>2396</ele>
        <time>2020-07-07T08:14:33.000Z</time>
      </trkpt>
      <trkpt lat="44.40899" lon="6.38156">
        <ele>2396</ele>
        <time>2020-07-07T08:14:34.000Z</time>
      </trkpt>
      <trkpt lat="44.409" lon="6.38156">
        <ele>2396</ele>
        <time>2020-07-07T08:14:35.000Z</time>
      </trkpt>
      <trkpt lat="44.40901" lon="6.38157">
        <ele>2396</ele>
        <time>2020-07-07T08:14:36.000Z</time>
      </trkpt>
      <trkpt lat="44.40902" lon="6.38157">
        <ele>2396</ele>
        <time>2020-07-07T08:14:37.000Z</time>
      </trkpt>
      <trkpt lat="44.40903" lon="6.38157">
        <ele>2397</ele>
        <time>2020-07-07T08:14:38.000Z</time>
      </trkpt>
      <trkpt lat="44.40903" lon="6.38158">
        <ele>2397</ele>
        <time>2020-07-07T08:14:39.000Z</time>
      </trkpt>
      <trkpt lat="44.40904" lon="6.38159">
        <ele>2397</ele>
        <time>2020-07-07T08:14:40.000Z</time>
      </trkpt>
      <trkpt lat="44.40905" lon="6.38159">
        <ele>2397</ele>
        <time>2020-07-07T08:14:41.000Z</time>
      </trkpt>
      <trkpt lat="44.40906" lon="6.38159">
        <ele>2397</ele>
        <time>2020-07-07T08:14:42.000Z</time>
      </trkpt>
      <trkpt lat="44.40907" lon="6.3816">
        <ele>2397</ele>
        <time>2020-07-07T08:14:43.000Z</time>
      </trkpt>
      <trkpt lat="44.40908" lon="6.3816">
        <ele>2397</ele>
        <time>2020-07-07T08:14:44.000Z</time>
      </trkpt>
      <trkpt lat="44.40909" lon="6.3816">
        <ele>2397</ele>
        <time>2020-07-07T08:14:45.000Z</time>
      </trkpt>
      <trkpt lat="44.4091" lon="6.38161">
        <ele>2397</ele>
        <time>2020-07-07T08:14:46.000Z</time>
      </trkpt>
      <trkpt lat="44.40911" lon="6.38161">
        <ele>2397</ele>
        <time>2020-07-07T08:14:47.000Z</time>
      </trkpt>
      <trkpt lat="44.40913" lon="6.38162">
        <ele>2397</ele>
        <time>2020-07-07T08:14:48.000Z</time>
      </trkpt>
      <trkpt lat="44.40914" lon="6.38162">
        <ele>2398</ele>
        <time>2020-07-07T08:14:49.000Z</time>
      </trkpt>
      <trkpt lat="44.40915" lon="6.38162">
        <ele>2398</ele>
        <time>2020-07-07T08:14:50.000Z</time>
      </trkpt>
      <trkpt lat="44.40916" lon="6.38162">
        <ele>2398</ele>
        <time>2020-07-07T08:14:51.000Z</time>
      </trkpt>
      <trkpt lat="44.40916" lon="6.38162">
        <ele>2398</ele>
        <time>2020-07-07T08:14:52.000Z</time>
      </trkpt>
      <trkpt lat="44.40917" lon="6.38162">
        <ele>2398</ele>
        <time>2020-07-07T08:14:53.000Z</time>
      </trkpt>
      <trkpt lat="44.40918" lon="6.38162">
        <ele>2398</ele>
        <time>2020-07-07T08:14:54.000Z</time>
      </trkpt>
      <trkpt lat="44.40919" lon="6.38162">
        <ele>2398</ele>
        <time>2020-07-07T08:14:55.000Z</time>
      </trkpt>
      <trkpt lat="44.4092" lon="6.38161">
        <ele>2398</ele>
        <time>2020-07-07T08:14:56.000Z</time>
      </trkpt>
      <trkpt lat="44.4092" lon="6.38161">
        <ele>2398</ele>
        <time>2020-07-07T08:14:57.000Z</time>
      </trkpt>
      <trkpt lat="44.40921" lon="6.38161">
        <ele>2398</ele>
        <time>2020-07-07T08:14:58.000Z</time>
      </trkpt>
      <trkpt lat="44.40922" lon="6.3816">
        <ele>2398</ele>
        <time>2020-07-07T08:14:59.000Z</time>
      </trkpt>
      <trkpt lat="44.40922" lon="6.38159">
        <ele>2399</ele>
        <time>2020-07-07T08:15:00.000Z</time>
      </trkpt>
      <trkpt lat="44.40923" lon="6.38159">
        <ele>2399</ele>
        <time>2020-07-07T08:15:01.000Z</time>
      </trkpt>
      <trkpt lat="44.40924" lon="6.38159">
        <ele>2399</ele>
        <time>2020-07-07T08:15:02.000Z</time>
      </trkpt>
      <trkpt lat="44.40925" lon="6.38158">
        <ele>2399</ele>
        <time>2020-07-07T08:15:03.000Z</time>
      </trkpt>
      <trkpt lat="44.40926" lon="6.38158">
        <ele>2399</ele>
        <time>2020-07-07T08:15:04.000Z</time>
      </trkpt>
      <trkpt lat="44.40927" lon="6.38158">
        <ele>2399</ele>
        <time>2020-07-07T08:15:05.000Z</time>
      </trkpt>
      <trkpt lat="44.40928" lon="6.38158">
        <ele>2399</ele>
        <time>2020-07-07T08:15:06.000Z</time>
      </trkpt>
      <trkpt lat="44.40928" lon="6.38158">
        <ele>2399</ele>
        <time>2020-07-07T08:15:07.000Z</time>
      </trkpt>
      <trkpt lat="44.40929" lon="6.38157">
        <ele>2400</ele>
        <time>2020-07-07T08:15:08.000Z</time>
      </trkpt>
      <trkpt lat="44.4093" lon="6.38157">
        <ele>2400</ele>
        <time>2020-07-07T08:15:09.000Z</time>
      </trkpt>
      <trkpt lat="44.4093" lon="6.38156">
        <ele>2400</ele>
        <time>2020-07-07T08:15:10.000Z</time>
      </trkpt>
      <trkpt lat="44.40931" lon="6.38156">
        <ele>2400</ele>
        <time>2020-07-07T08:15:11.000Z</time>
      </trkpt>
      <trkpt lat="44.40932" lon="6.38155">
        <ele>2400</ele>
        <time>2020-07-07T08:15:12.000Z</time>
      </trkpt>
      <trkpt lat="44.40933" lon="6.38155">
        <ele>2400</ele>
        <time>2020-07-07T08:15:13.000Z</time>
      </trkpt>
      <trkpt lat="44.40933" lon="6.38155">
        <ele>2400</ele>
        <time>2020-07-07T08:15:14.000Z</time>
      </trkpt>
      <trkpt lat="44.40934" lon="6.38155">
        <ele>2400</ele>
        <time>2020-07-07T08:15:15.000Z</time>
      </trkpt>
      <trkpt lat="44.40934" lon="6.38155">
        <ele>2400</ele>
        <time>2020-07-07T08:15:16.000Z</time>
      </trkpt>
      <trkpt lat="44.40934" lon="6.38155">
        <ele>2400</ele>
        <time>2020-07-07T08:15:17.000Z</time>
      </trkpt>
      <trkpt lat="44.40934" lon="6.38155">
        <ele>2400</ele>
        <time>2020-07-07T08:15:18.000Z</time>
      </trkpt>
      <trkpt lat="44.40934" lon="6.38155">
        <ele>2399</ele>
        <time>2020-07-07T08:15:19.000Z</time>
      </trkpt>
      <trkpt lat="44.40935" lon="6.38155">
        <ele>2399</ele>
        <time>2020-07-07T08:15:20.000Z</time>
      </trkpt>
      <trkpt lat="44.40935" lon="6.38155">
        <ele>2399</ele>
        <time>2020-07-07T08:15:21.000Z</time>
      </trkpt>
      <trkpt lat="44.40935" lon="6.38155">
        <ele>2399</ele>
        <time>2020-07-07T08:15:22.000Z</time>
      </trkpt>
      <trkpt lat="44.40935" lon="6.38155">
        <ele>2399</ele>
        <time>2020-07-07T08:15:23.000Z</time>
      </trkpt>
      <trkpt lat="44.40935" lon="6.38155">
        <ele>2399</ele>
        <time>2020-07-07T08:15:24.000Z</time>
      </trkpt>
      <trkpt lat="44.40935" lon="6.38155">
        <ele>2399</ele>
        <time>2020-07-07T08:15:25.000Z</time>
      </trkpt>
      <trkpt lat="44.40935" lon="6.38155">
        <ele>2399</ele>
        <time>2020-07-07T08:15:26.000Z</time>
      </trkpt>
      <trkpt lat="44.40935" lon="6.38155">
        <ele>2399</ele>
        <time>2020-07-07T08:15:27.000Z</time>
      </trkpt>
      <trkpt lat="44.40935" lon="6.38155">
        <ele>2399</ele>
        <time>2020-07-07T08:15:28.000Z</time>
      </trkpt>
      <trkpt lat="44.40935" lon="6.38155">
        <ele>2399</ele>
        <time>2020-07-07T08:15:29.000Z</time>
      </trkpt>
      <trkpt lat="44.40935" lon="6.38155">
        <ele>2399</ele>
        <time>2020-07-07T08:15:30.000Z</time>
      </trkpt>
      <trkpt lat="44.40935" lon="6.38155">
        <ele>2399</ele>
        <time>2020-07-07T08:15:31.000Z</time>
      </trkpt>
      <trkpt lat="44.40935" lon="6.38155">
        <ele>2399</ele>
        <time>2020-07-07T08:15:32.000Z</time>
      </trkpt>
      <trkpt lat="44.40935" lon="6.38156">
        <ele>2399</ele>
        <time>2020-07-07T08:15:33.000Z</time>
      </trkpt>
      <trkpt lat="44.40936" lon="6.38156">
        <ele>2399</ele>
        <time>2020-07-07T08:15:34.000Z</time>
      </trkpt>
      <trkpt lat="44.40936" lon="6.38156">
        <ele>2399</ele>
        <time>2020-07-07T08:15:35.000Z</time>
      </trkpt>
      <trkpt lat="44.40937" lon="6.38156">
        <ele>2399</ele>
        <time>2020-07-07T08:15:36.000Z</time>
      </trkpt>
      <trkpt lat="44.40937" lon="6.38156">
        <ele>2399</ele>
        <time>2020-07-07T08:15:37.000Z</time>
      </trkpt>
      <trkpt lat="44.40937" lon="6.38156">
        <ele>2399</ele>
        <time>2020-07-07T08:15:38.000Z</time>
      </trkpt>
      <trkpt lat="44.40937" lon="6.38156">
        <ele>2399</ele>
        <time>2020-07-07T08:15:39.000Z</time>
      </trkpt>
      <trkpt lat="44.40937" lon="6.38156">
        <ele>2399</ele>
        <time>2020-07-07T08:15:40.000Z</time>
      </trkpt>
      <trkpt lat="44.40937" lon="6.38156">
        <ele>2399</ele>
        <time>2020-07-07T08:15:41.000Z</time>
      </trkpt>
      <trkpt lat="44.40937" lon="6.38156">
        <ele>2399</ele>
        <time>2020-07-07T08:15:42.000Z</time>
      </trkpt>
      <trkpt lat="44.40937" lon="6.38156">
        <ele>2399</ele>
        <time>2020-07-07T08:15:43.000Z</time>
      </trkpt>
      <trkpt lat="44.40937" lon="6.38156">
        <ele>2399</ele>
        <time>2020-07-07T08:15:44.000Z</time>
      </trkpt>
      <trkpt lat="44.40937" lon="6.38156">
        <ele>2399</ele>
        <time>2020-07-07T08:15:45.000Z</time>
      </trkpt>
      <trkpt lat="44.40937" lon="6.38156">
        <ele>2399</ele>
        <time>2020-07-07T08:15:46.000Z</time>
      </trkpt>
      <trkpt lat="44.40937" lon="6.38156">
        <ele>2399</ele>
        <time>2020-07-07T08:15:47.000Z</time>
      </trkpt>
      <trkpt lat="44.40937" lon="6.38156">
        <ele>2399</ele>
        <time>2020-07-07T08:15:48.000Z</time>
      </trkpt>
      <trkpt lat="44.40937" lon="6.38156">
        <ele>2399</ele>
        <time>2020-07-07T08:15:49.000Z</time>
      </trkpt>
      <trkpt lat="44.40937" lon="6.38156">
        <ele>2399</ele>
        <time>2020-07-07T08:15:50.000Z</time>
      </trkpt>
      <trkpt lat="44.40937" lon="6.38156">
        <ele>2399</ele>
        <time>2020-07-07T08:15:51.000Z</time>
      </trkpt>
      <trkpt lat="44.40937" lon="6.38156">
        <ele>2399</ele>
        <time>2020-07-07T08:15:52.000Z</time>
      </trkpt>
      <trkpt lat="44.40937" lon="6.38156">
        <ele>2399</ele>
        <time>2020-07-07T08:15:53.000Z</time>
      </trkpt>
      <trkpt lat="44.40937" lon="6.38156">
        <ele>2399</ele>
        <time>2020-07-07T08:15:54.000Z</time>
      </trkpt>
      <trkpt lat="44.40937" lon="6.38156">
        <ele>2399</ele>
        <time>2020-07-07T08:15:55.000Z</time>
      </trkpt>
      <trkpt lat="44.40937" lon="6.38156">
        <ele>2399</ele>
        <time>2020-07-07T08:15:56.000Z</time>
      </trkpt>
      <trkpt lat="44.40937" lon="6.38156">
        <ele>2399</ele>
        <time>2020-07-07T08:15:57.000Z</time>
      </trkpt>
      <trkpt lat="44.40937" lon="6.38156">
        <ele>2399</ele>
        <time>2020-07-07T08:15:58.000Z</time>
      </trkpt>
      <trkpt lat="44.40937" lon="6.38156">
        <ele>2399</ele>
        <time>2020-07-07T08:15:59.000Z</time>
      </trkpt>
      <trkpt lat="44.40937" lon="6.38156">
        <ele>2399</ele>
        <time>2020-07-07T08:16:00.000Z</time>
      </trkpt>
      <trkpt lat="44.40937" lon="6.38156">
        <ele>2398</ele>
        <time>2020-07-07T08:16:01.000Z</time>
      </trkpt>
      <trkpt lat="44.40937" lon="6.38156">
        <ele>2398</ele>
        <time>2020-07-07T08:16:02.000Z</time>
      </trkpt>
      <trkpt lat="44.40937" lon="6.38156">
        <ele>2398</ele>
        <time>2020-07-07T08:16:03.000Z</time>
      </trkpt>
      <trkpt lat="44.40937" lon="6.38156">
        <ele>2398</ele>
        <time>2020-07-07T08:16:04.000Z</time>
      </trkpt>
      <trkpt lat="44.40937" lon="6.38156">
        <ele>2398</ele>
        <time>2020-07-07T08:16:05.000Z</time>
      </trkpt>
      <trkpt lat="44.40937" lon="6.38156">
        <ele>2398</ele>
        <time>2020-07-07T08:16:06.000Z</time>
      </trkpt>
      <trkpt lat="44.40937" lon="6.38156">
        <ele>2398</ele>
        <time>2020-07-07T08:16:07.000Z</time>
      </trkpt>
      <trkpt lat="44.40937" lon="6.38156">
        <ele>2398</ele>
        <time>2020-07-07T08:16:08.000Z</time>
      </trkpt>
      <trkpt lat="44.40937" lon="6.38156">
        <ele>2398</ele>
        <time>2020-07-07T08:16:09.000Z</time>
      </trkpt>
      <trkpt lat="44.40937" lon="6.38156">
        <ele>2398</ele>
        <time>2020-07-07T08:16:10.000Z</time>
      </trkpt>
      <trkpt lat="44.40937" lon="6.38156">
        <ele>2398</ele>
        <time>2020-07-07T08:16:11.000Z</time>
      </trkpt>
      <trkpt lat="44.40937" lon="6.38156">
        <ele>2398</ele>
        <time>2020-07-07T08:16:12.000Z</time>
      </trkpt>
      <trkpt lat="44.40937" lon="6.38156">
        <ele>2398</ele>
        <time>2020-07-07T08:16:13.000Z</time>
      </trkpt>
      <trkpt lat="44.40937" lon="6.38156">
        <ele>2398</ele>
        <time>2020-07-07T08:16:14.000Z</time>
      </trkpt>
      <trkpt lat="44.40937" lon="6.38156">
        <ele>2398</ele>
        <time>2020-07-07T08:16:15.000Z</time>
      </trkpt>
      <trkpt lat="44.40937" lon="6.38156">
        <ele>2398</ele>
        <time>2020-07-07T08:16:16.000Z</time>
      </trkpt>
      <trkpt lat="44.40937" lon="6.38156">
        <ele>2398</ele>
        <time>2020-07-07T08:16:17.000Z</time>
      </trkpt>
      <trkpt lat="44.40937" lon="6.38156">
        <ele>2398</ele>
        <time>2020-07-07T08:16:18.000Z</time>
      </trkpt>
      <trkpt lat="44.40938" lon="6.38156">
        <ele>2398</ele>
        <time>2020-07-07T08:16:19.000Z</time>
      </trkpt>
      <trkpt lat="44.40938" lon="6.38156">
        <ele>2398</ele>
        <time>2020-07-07T08:16:20.000Z</time>
      </trkpt>
      <trkpt lat="44.40938" lon="6.38156">
        <ele>2398</ele>
        <time>2020-07-07T08:16:21.000Z</time>
      </trkpt>
      <trkpt lat="44.40938" lon="6.38156">
        <ele>2398</ele>
        <time>2020-07-07T08:16:22.000Z</time>
      </trkpt>
      <trkpt lat="44.40938" lon="6.38156">
        <ele>2398</ele>
        <time>2020-07-07T08:16:23.000Z</time>
      </trkpt>
      <trkpt lat="44.40938" lon="6.38156">
        <ele>2398</ele>
        <time>2020-07-07T08:16:24.000Z</time>
      </trkpt>
      <trkpt lat="44.40938" lon="6.38156">
        <ele>2398</ele>
        <time>2020-07-07T08:16:25.000Z</time>
      </trkpt>
      <trkpt lat="44.40938" lon="6.38156">
        <ele>2398</ele>
        <time>2020-07-07T08:16:26.000Z</time>
      </trkpt>
      <trkpt lat="44.40938" lon="6.38156">
        <ele>2398</ele>
        <time>2020-07-07T08:16:27.000Z</time>
      </trkpt>
      <trkpt lat="44.40938" lon="6.38156">
        <ele>2398</ele>
        <time>2020-07-07T08:16:28.000Z</time>
      </trkpt>
      <trkpt lat="44.40938" lon="6.38156">
        <ele>2398</ele>
        <time>2020-07-07T08:16:29.000Z</time>
      </trkpt>
      <trkpt lat="44.40938" lon="6.38156">
        <ele>2398</ele>
        <time>2020-07-07T08:16:30.000Z</time>
      </trkpt>
      <trkpt lat="44.40938" lon="6.38156">
        <ele>2398</ele>
        <time>2020-07-07T08:16:31.000Z</time>
      </trkpt>
      <trkpt lat="44.40938" lon="6.38156">
        <ele>2398</ele>
        <time>2020-07-07T08:16:32.000Z</time>
      </trkpt>
      <trkpt lat="44.40938" lon="6.38156">
        <ele>2398</ele>
        <time>2020-07-07T08:16:33.000Z</time>
      </trkpt>
      <trkpt lat="44.40938" lon="6.38156">
        <ele>2398</ele>
        <time>2020-07-07T08:16:34.000Z</time>
      </trkpt>
      <trkpt lat="44.40938" lon="6.38156">
        <ele>2398</ele>
        <time>2020-07-07T08:16:35.000Z</time>
      </trkpt>
      <trkpt lat="44.40938" lon="6.38156">
        <ele>2398</ele>
        <time>2020-07-07T08:16:36.000Z</time>
      </trkpt>
      <trkpt lat="44.40938" lon="6.38156">
        <ele>2398</ele>
        <time>2020-07-07T08:16:37.000Z</time>
      </trkpt>
      <trkpt lat="44.40938" lon="6.38156">
        <ele>2398</ele>
        <time>2020-07-07T08:16:38.000Z</time>
      </trkpt>
      <trkpt lat="44.40938" lon="6.38156">
        <ele>2398</ele>
        <time>2020-07-07T08:16:39.000Z</time>
      </trkpt>
      <trkpt lat="44.40938" lon="6.38157">
        <ele>2398</ele>
        <time>2020-07-07T08:16:40.000Z</time>
      </trkpt>
      <trkpt lat="44.40938" lon="6.38157">
        <ele>2398</ele>
        <time>2020-07-07T08:16:41.000Z</time>
      </trkpt>
      <trkpt lat="44.40938" lon="6.38157">
        <ele>2398</ele>
        <time>2020-07-07T08:16:42.000Z</time>
      </trkpt>
      <trkpt lat="44.40938" lon="6.38157">
        <ele>2398</ele>
        <time>2020-07-07T08:16:43.000Z</time>
      </trkpt>
      <trkpt lat="44.40938" lon="6.38157">
        <ele>2398</ele>
        <time>2020-07-07T08:16:44.000Z</time>
      </trkpt>
      <trkpt lat="44.40938" lon="6.38157">
        <ele>2398</ele>
        <time>2020-07-07T08:16:45.000Z</time>
      </trkpt>
      <trkpt lat="44.40938" lon="6.38157">
        <ele>2398</ele>
        <time>2020-07-07T08:16:46.000Z</time>
      </trkpt>
      <trkpt lat="44.40938" lon="6.38157">
        <ele>2398</ele>
        <time>2020-07-07T08:16:47.000Z</time>
      </trkpt>
      <trkpt lat="44.40938" lon="6.38157">
        <ele>2398</ele>
        <time>2020-07-07T08:16:48.000Z</time>
      </trkpt>
      <trkpt lat="44.40938" lon="6.38157">
        <ele>2398</ele>
        <time>2020-07-07T08:16:49.000Z</time>
      </trkpt>
      <trkpt lat="44.40938" lon="6.38157">
        <ele>2398</ele>
        <time>2020-07-07T08:16:50.000Z</time>
      </trkpt>
      <trkpt lat="44.40938" lon="6.38157">
        <ele>2398</ele>
        <time>2020-07-07T08:16:51.000Z</time>
      </trkpt>
      <trkpt lat="44.40938" lon="6.38157">
        <ele>2398</ele>
        <time>2020-07-07T08:16:52.000Z</time>
      </trkpt>
      <trkpt lat="44.40938" lon="6.38157">
        <ele>2398</ele>
        <time>2020-07-07T08:16:53.000Z</time>
      </trkpt>
      <trkpt lat="44.40938" lon="6.38157">
        <ele>2398</ele>
        <time>2020-07-07T08:16:54.000Z</time>
      </trkpt>
      <trkpt lat="44.40938" lon="6.38157">
        <ele>2398</ele>
        <time>2020-07-07T08:16:55.000Z</time>
      </trkpt>
      <trkpt lat="44.40938" lon="6.38157">
        <ele>2397</ele>
        <time>2020-07-07T08:16:56.000Z</time>
      </trkpt>
      <trkpt lat="44.40938" lon="6.38157">
        <ele>2397</ele>
        <time>2020-07-07T08:16:57.000Z</time>
      </trkpt>
      <trkpt lat="44.40938" lon="6.38157">
        <ele>2397</ele>
        <time>2020-07-07T08:16:58.000Z</time>
      </trkpt>
      <trkpt lat="44.40938" lon="6.38157">
        <ele>2397</ele>
        <time>2020-07-07T08:16:59.000Z</time>
      </trkpt>
      <trkpt lat="44.40938" lon="6.38157">
        <ele>2397</ele>
        <time>2020-07-07T08:17:00.000Z</time>
      </trkpt>
      <trkpt lat="44.40938" lon="6.38157">
        <ele>2397</ele>
        <time>2020-07-07T08:17:01.000Z</time>
      </trkpt>
      <trkpt lat="44.40938" lon="6.38157">
        <ele>2397</ele>
        <time>2020-07-07T08:17:02.000Z</time>
      </trkpt>
      <trkpt lat="44.40938" lon="6.38157">
        <ele>2397</ele>
        <time>2020-07-07T08:17:03.000Z</time>
      </trkpt>
      <trkpt lat="44.40938" lon="6.38157">
        <ele>2397</ele>
        <time>2020-07-07T08:17:04.000Z</time>
      </trkpt>
      <trkpt lat="44.40938" lon="6.38157">
        <ele>2397</ele>
        <time>2020-07-07T08:17:05.000Z</time>
      </trkpt>
      <trkpt lat="44.40938" lon="6.38157">
        <ele>2397</ele>
        <time>2020-07-07T08:17:06.000Z</time>
      </trkpt>
      <trkpt lat="44.40938" lon="6.38157">
        <ele>2397</ele>
        <time>2020-07-07T08:17:07.000Z</time>
      </trkpt>
      <trkpt lat="44.40938" lon="6.38157">
        <ele>2397</ele>
        <time>2020-07-07T08:17:08.000Z</time>
      </trkpt>
      <trkpt lat="44.40938" lon="6.38157">
        <ele>2397</ele>
        <time>2020-07-07T08:17:09.000Z</time>
      </trkpt>
      <trkpt lat="44.40938" lon="6.38157">
        <ele>2397</ele>
        <time>2020-07-07T08:17:10.000Z</time>
      </trkpt>
      <trkpt lat="44.40938" lon="6.38157">
        <ele>2397</ele>
        <time>2020-07-07T08:17:11.000Z</time>
      </trkpt>
      <trkpt lat="44.40938" lon="6.38157">
        <ele>2397</ele>
        <time>2020-07-07T08:17:12.000Z</time>
      </trkpt>
      <trkpt lat="44.40938" lon="6.38157">
        <ele>2397</ele>
        <time>2020-07-07T08:17:13.000Z</time>
      </trkpt>
      <trkpt lat="44.40938" lon="6.38157">
        <ele>2397</ele>
        <time>2020-07-07T08:17:14.000Z</time>
      </trkpt>
      <trkpt lat="44.40938" lon="6.38157">
        <ele>2397</ele>
        <time>2020-07-07T08:17:15.000Z</time>
      </trkpt>
      <trkpt lat="44.40938" lon="6.38157">
        <ele>2397</ele>
        <time>2020-07-07T08:17:16.000Z</time>
      </trkpt>
      <trkpt lat="44.40938" lon="6.38157">
        <ele>2397</ele>
        <time>2020-07-07T08:17:17.000Z</time>
      </trkpt>
      <trkpt lat="44.40938" lon="6.38157">
        <ele>2397</ele>
        <time>2020-07-07T08:17:18.000Z</time>
      </trkpt>
      <trkpt lat="44.40938" lon="6.38157">
        <ele>2397</ele>
        <time>2020-07-07T08:17:19.000Z</time>
      </trkpt>
      <trkpt lat="44.40938" lon="6.38157">
        <ele>2397</ele>
        <time>2020-07-07T08:17:20.000Z</time>
      </trkpt>
      <trkpt lat="44.40938" lon="6.38157">
        <ele>2397</ele>
        <time>2020-07-07T08:17:21.000Z</time>
      </trkpt>
      <trkpt lat="44.40938" lon="6.38157">
        <ele>2397</ele>
        <time>2020-07-07T08:17:22.000Z</time>
      </trkpt>
      <trkpt lat="44.40938" lon="6.38157">
        <ele>2397</ele>
        <time>2020-07-07T08:17:23.000Z</time>
      </trkpt>
      <trkpt lat="44.40938" lon="6.38157">
        <ele>2397</ele>
        <time>2020-07-07T08:17:24.000Z</time>
      </trkpt>
      <trkpt lat="44.40938" lon="6.38157">
        <ele>2397</ele>
        <time>2020-07-07T08:17:25.000Z</time>
      </trkpt>
      <trkpt lat="44.40938" lon="6.38157">
        <ele>2397</ele>
        <time>2020-07-07T08:17:26.000Z</time>
      </trkpt>
      <trkpt lat="44.40938" lon="6.38158">
        <ele>2397</ele>
        <time>2020-07-07T08:17:27.000Z</time>
      </trkpt>
      <trkpt lat="44.40938" lon="6.38158">
        <ele>2397</ele>
        <time>2020-07-07T08:17:28.000Z</time>
      </trkpt>
      <trkpt lat="44.40938" lon="6.38158">
        <ele>2397</ele>
        <time>2020-07-07T08:17:29.000Z</time>
      </trkpt>
      <trkpt lat="44.40938" lon="6.38158">
        <ele>2397</ele>
        <time>2020-07-07T08:17:30.000Z</time>
      </trkpt>
      <trkpt lat="44.40938" lon="6.38159">
        <ele>2398</ele>
        <time>2020-07-07T08:17:31.000Z</time>
      </trkpt>
      <trkpt lat="44.40938" lon="6.38159">
        <ele>2398</ele>
        <time>2020-07-07T08:17:32.000Z</time>
      </trkpt>
      <trkpt lat="44.40939" lon="6.38159">
        <ele>2398</ele>
        <time>2020-07-07T08:17:33.000Z</time>
      </trkpt>
      <trkpt lat="44.40939" lon="6.3816">
        <ele>2398</ele>
        <time>2020-07-07T08:17:34.000Z</time>
      </trkpt>
      <trkpt lat="44.40939" lon="6.3816">
        <ele>2398</ele>
        <time>2020-07-07T08:17:35.000Z</time>
      </trkpt>
      <trkpt lat="44.4094" lon="6.3816">
        <ele>2398</ele>
        <time>2020-07-07T08:17:36.000Z</time>
      </trkpt>
      <trkpt lat="44.4094" lon="6.3816">
        <ele>2398</ele>
        <time>2020-07-07T08:17:37.000Z</time>
      </trkpt>
      <trkpt lat="44.4094" lon="6.3816">
        <ele>2398</ele>
        <time>2020-07-07T08:17:38.000Z</time>
      </trkpt>
      <trkpt lat="44.4094" lon="6.38161">
        <ele>2398</ele>
        <time>2020-07-07T08:17:39.000Z</time>
      </trkpt>
      <trkpt lat="44.4094" lon="6.38161">
        <ele>2398</ele>
        <time>2020-07-07T08:17:40.000Z</time>
      </trkpt>
      <trkpt lat="44.4094" lon="6.38161">
        <ele>2398</ele>
        <time>2020-07-07T08:17:41.000Z</time>
      </trkpt>
      <trkpt lat="44.4094" lon="6.38161">
        <ele>2398</ele>
        <time>2020-07-07T08:17:42.000Z</time>
      </trkpt>
      <trkpt lat="44.4094" lon="6.38161">
        <ele>2398</ele>
        <time>2020-07-07T08:17:43.000Z</time>
      </trkpt>
      <trkpt lat="44.4094" lon="6.38161">
        <ele>2398</ele>
        <time>2020-07-07T08:17:44.000Z</time>
      </trkpt>
      <trkpt lat="44.4094" lon="6.38161">
        <ele>2398</ele>
        <time>2020-07-07T08:17:45.000Z</time>
      </trkpt>
      <trkpt lat="44.4094" lon="6.38161">
        <ele>2398</ele>
        <time>2020-07-07T08:17:46.000Z</time>
      </trkpt>
      <trkpt lat="44.4094" lon="6.38161">
        <ele>2398</ele>
        <time>2020-07-07T08:17:47.000Z</time>
      </trkpt>
      <trkpt lat="44.4094" lon="6.38161">
        <ele>2398</ele>
        <time>2020-07-07T08:17:48.000Z</time>
      </trkpt>
      <trkpt lat="44.4094" lon="6.38161">
        <ele>2398</ele>
        <time>2020-07-07T08:17:49.000Z</time>
      </trkpt>
      <trkpt lat="44.4094" lon="6.38161">
        <ele>2398</ele>
        <time>2020-07-07T08:17:50.000Z</time>
      </trkpt>
      <trkpt lat="44.4094" lon="6.38161">
        <ele>2398</ele>
        <time>2020-07-07T08:17:51.000Z</time>
      </trkpt>
      <trkpt lat="44.4094" lon="6.38161">
        <ele>2398</ele>
        <time>2020-07-07T08:17:52.000Z</time>
      </trkpt>
      <trkpt lat="44.4094" lon="6.38161">
        <ele>2398</ele>
        <time>2020-07-07T08:17:53.000Z</time>
      </trkpt>
      <trkpt lat="44.4094" lon="6.38161">
        <ele>2398</ele>
        <time>2020-07-07T08:17:54.000Z</time>
      </trkpt>
      <trkpt lat="44.4094" lon="6.38161">
        <ele>2398</ele>
        <time>2020-07-07T08:17:55.000Z</time>
      </trkpt>
      <trkpt lat="44.4094" lon="6.38161">
        <ele>2398</ele>
        <time>2020-07-07T08:17:56.000Z</time>
      </trkpt>
      <trkpt lat="44.4094" lon="6.38161">
        <ele>2398</ele>
        <time>2020-07-07T08:17:57.000Z</time>
      </trkpt>
      <trkpt lat="44.4094" lon="6.38161">
        <ele>2398</ele>
        <time>2020-07-07T08:17:58.000Z</time>
      </trkpt>
      <trkpt lat="44.4094" lon="6.3816">
        <ele>2398</ele>
        <time>2020-07-07T08:17:59.000Z</time>
      </trkpt>
      <trkpt lat="44.4094" lon="6.3816">
        <ele>2398</ele>
        <time>2020-07-07T08:18:00.000Z</time>
      </trkpt>
      <trkpt lat="44.4094" lon="6.3816">
        <ele>2398</ele>
        <time>2020-07-07T08:18:01.000Z</time>
      </trkpt>
      <trkpt lat="44.4094" lon="6.3816">
        <ele>2398</ele>
        <time>2020-07-07T08:18:02.000Z</time>
      </trkpt>
      <trkpt lat="44.4094" lon="6.3816">
        <ele>2398</ele>
        <time>2020-07-07T08:18:03.000Z</time>
      </trkpt>
      <trkpt lat="44.4094" lon="6.3816">
        <ele>2398</ele>
        <time>2020-07-07T08:18:04.000Z</time>
      </trkpt>
      <trkpt lat="44.4094" lon="6.3816">
        <ele>2398</ele>
        <time>2020-07-07T08:18:05.000Z</time>
      </trkpt>
      <trkpt lat="44.4094" lon="6.3816">
        <ele>2398</ele>
        <time>2020-07-07T08:18:06.000Z</time>
      </trkpt>
      <trkpt lat="44.4094" lon="6.38161">
        <ele>2398</ele>
        <time>2020-07-07T08:18:07.000Z</time>
      </trkpt>
      <trkpt lat="44.4094" lon="6.38161">
        <ele>2398</ele>
        <time>2020-07-07T08:18:08.000Z</time>
      </trkpt>
      <trkpt lat="44.40939" lon="6.38162">
        <ele>2398</ele>
        <time>2020-07-07T08:18:09.000Z</time>
      </trkpt>
      <trkpt lat="44.40939" lon="6.38162">
        <ele>2398</ele>
        <time>2020-07-07T08:18:10.000Z</time>
      </trkpt>
      <trkpt lat="44.40939" lon="6.38161">
        <ele>2398</ele>
        <time>2020-07-07T08:18:11.000Z</time>
      </trkpt>
      <trkpt lat="44.40939" lon="6.38161">
        <ele>2398</ele>
        <time>2020-07-07T08:18:12.000Z</time>
      </trkpt>
      <trkpt lat="44.40939" lon="6.38162">
        <ele>2398</ele>
        <time>2020-07-07T08:18:13.000Z</time>
      </trkpt>
      <trkpt lat="44.40939" lon="6.38162">
        <ele>2398</ele>
        <time>2020-07-07T08:18:14.000Z</time>
      </trkpt>
      <trkpt lat="44.40939" lon="6.38162">
        <ele>2398</ele>
        <time>2020-07-07T08:18:15.000Z</time>
      </trkpt>
      <trkpt lat="44.4094" lon="6.38162">
        <ele>2398</ele>
        <time>2020-07-07T08:18:16.000Z</time>
      </trkpt>
      <trkpt lat="44.4094" lon="6.38162">
        <ele>2398</ele>
        <time>2020-07-07T08:18:17.000Z</time>
      </trkpt>
      <trkpt lat="44.4094" lon="6.38162">
        <ele>2398</ele>
        <time>2020-07-07T08:18:18.000Z</time>
      </trkpt>
      <trkpt lat="44.4094" lon="6.38162">
        <ele>2398</ele>
        <time>2020-07-07T08:18:19.000Z</time>
      </trkpt>
      <trkpt lat="44.4094" lon="6.38162">
        <ele>2398</ele>
        <time>2020-07-07T08:18:20.000Z</time>
      </trkpt>
      <trkpt lat="44.4094" lon="6.38162">
        <ele>2398</ele>
        <time>2020-07-07T08:18:21.000Z</time>
      </trkpt>
      <trkpt lat="44.4094" lon="6.38162">
        <ele>2398</ele>
        <time>2020-07-07T08:18:22.000Z</time>
      </trkpt>
      <trkpt lat="44.4094" lon="6.38162">
        <ele>2398</ele>
        <time>2020-07-07T08:18:23.000Z</time>
      </trkpt>
      <trkpt lat="44.4094" lon="6.38162">
        <ele>2398</ele>
        <time>2020-07-07T08:18:24.000Z</time>
      </trkpt>
      <trkpt lat="44.4094" lon="6.38162">
        <ele>2398</ele>
        <time>2020-07-07T08:18:25.000Z</time>
      </trkpt>
      <trkpt lat="44.4094" lon="6.38162">
        <ele>2398</ele>
        <time>2020-07-07T08:18:26.000Z</time>
      </trkpt>
      <trkpt lat="44.4094" lon="6.38162">
        <ele>2398</ele>
        <time>2020-07-07T08:18:27.000Z</time>
      </trkpt>
      <trkpt lat="44.4094" lon="6.38162">
        <ele>2398</ele>
        <time>2020-07-07T08:18:28.000Z</time>
      </trkpt>
      <trkpt lat="44.4094" lon="6.38162">
        <ele>2398</ele>
        <time>2020-07-07T08:18:29.000Z</time>
      </trkpt>
      <trkpt lat="44.4094" lon="6.38162">
        <ele>2398</ele>
        <time>2020-07-07T08:18:30.000Z</time>
      </trkpt>
      <trkpt lat="44.4094" lon="6.38162">
        <ele>2398</ele>
        <time>2020-07-07T08:18:31.000Z</time>
      </trkpt>
      <trkpt lat="44.4094" lon="6.38162">
        <ele>2398</ele>
        <time>2020-07-07T08:18:32.000Z</time>
      </trkpt>
      <trkpt lat="44.4094" lon="6.38162">
        <ele>2398</ele>
        <time>2020-07-07T08:18:33.000Z</time>
      </trkpt>
      <trkpt lat="44.4094" lon="6.38162">
        <ele>2398</ele>
        <time>2020-07-07T08:18:34.000Z</time>
      </trkpt>
      <trkpt lat="44.4094" lon="6.38162">
        <ele>2398</ele>
        <time>2020-07-07T08:18:35.000Z</time>
      </trkpt>
      <trkpt lat="44.4094" lon="6.38162">
        <ele>2398</ele>
        <time>2020-07-07T08:18:36.000Z</time>
      </trkpt>
      <trkpt lat="44.4094" lon="6.38162">
        <ele>2398</ele>
        <time>2020-07-07T08:18:37.000Z</time>
      </trkpt>
      <trkpt lat="44.4094" lon="6.38162">
        <ele>2398</ele>
        <time>2020-07-07T08:18:38.000Z</time>
      </trkpt>
      <trkpt lat="44.40939" lon="6.38163">
        <ele>2398</ele>
        <time>2020-07-07T08:18:39.000Z</time>
      </trkpt>
      <trkpt lat="44.40939" lon="6.38164">
        <ele>2398</ele>
        <time>2020-07-07T08:18:40.000Z</time>
      </trkpt>
      <trkpt lat="44.40939" lon="6.38165">
        <ele>2398</ele>
        <time>2020-07-07T08:18:41.000Z</time>
      </trkpt>
      <trkpt lat="44.40939" lon="6.38165">
        <ele>2398</ele>
        <time>2020-07-07T08:18:42.000Z</time>
      </trkpt>
      <trkpt lat="44.40939" lon="6.38166">
        <ele>2398</ele>
        <time>2020-07-07T08:18:43.000Z</time>
      </trkpt>
      <trkpt lat="44.40939" lon="6.38168">
        <ele>2398</ele>
        <time>2020-07-07T08:18:44.000Z</time>
      </trkpt>
      <trkpt lat="44.4094" lon="6.38169">
        <ele>2398</ele>
        <time>2020-07-07T08:18:45.000Z</time>
      </trkpt>
      <trkpt lat="44.4094" lon="6.38171">
        <ele>2398</ele>
        <time>2020-07-07T08:18:46.000Z</time>
      </trkpt>
      <trkpt lat="44.4094" lon="6.38172">
        <ele>2398</ele>
        <time>2020-07-07T08:18:47.000Z</time>
      </trkpt>
      <trkpt lat="44.4094" lon="6.38174">
        <ele>2398</ele>
        <time>2020-07-07T08:18:48.000Z</time>
      </trkpt>
      <trkpt lat="44.4094" lon="6.38176">
        <ele>2398</ele>
        <time>2020-07-07T08:18:49.000Z</time>
      </trkpt>
      <trkpt lat="44.4094" lon="6.38177">
        <ele>2398</ele>
        <time>2020-07-07T08:18:50.000Z</time>
      </trkpt>
      <trkpt lat="44.4094" lon="6.38179">
        <ele>2398</ele>
        <time>2020-07-07T08:18:51.000Z</time>
      </trkpt>
      <trkpt lat="44.4094" lon="6.3818">
        <ele>2398</ele>
        <time>2020-07-07T08:18:52.000Z</time>
      </trkpt>
      <trkpt lat="44.4094" lon="6.38182">
        <ele>2398</ele>
        <time>2020-07-07T08:18:53.000Z</time>
      </trkpt>
      <trkpt lat="44.4094" lon="6.38182">
        <ele>2398</ele>
        <time>2020-07-07T08:18:54.000Z</time>
      </trkpt>
      <trkpt lat="44.4094" lon="6.38184">
        <ele>2397</ele>
        <time>2020-07-07T08:18:55.000Z</time>
      </trkpt>
      <trkpt lat="44.4094" lon="6.38185">
        <ele>2397</ele>
        <time>2020-07-07T08:18:56.000Z</time>
      </trkpt>
      <trkpt lat="44.4094" lon="6.38185">
        <ele>2397</ele>
        <time>2020-07-07T08:18:57.000Z</time>
      </trkpt>
      <trkpt lat="44.4094" lon="6.38187">
        <ele>2397</ele>
        <time>2020-07-07T08:18:58.000Z</time>
      </trkpt>
      <trkpt lat="44.4094" lon="6.38188">
        <ele>2397</ele>
        <time>2020-07-07T08:18:59.000Z</time>
      </trkpt>
      <trkpt lat="44.4094" lon="6.38189">
        <ele>2397</ele>
        <time>2020-07-07T08:19:00.000Z</time>
      </trkpt>
      <trkpt lat="44.4094" lon="6.3819">
        <ele>2397</ele>
        <time>2020-07-07T08:19:01.000Z</time>
      </trkpt>
      <trkpt lat="44.4094" lon="6.38191">
        <ele>2397</ele>
        <time>2020-07-07T08:19:02.000Z</time>
      </trkpt>
      <trkpt lat="44.40939" lon="6.38193">
        <ele>2397</ele>
        <time>2020-07-07T08:19:03.000Z</time>
      </trkpt>
      <trkpt lat="44.40938" lon="6.38193">
        <ele>2397</ele>
        <time>2020-07-07T08:19:04.000Z</time>
      </trkpt>
      <trkpt lat="44.40938" lon="6.38194">
        <ele>2397</ele>
        <time>2020-07-07T08:19:05.000Z</time>
      </trkpt>
      <trkpt lat="44.40937" lon="6.38194">
        <ele>2397</ele>
        <time>2020-07-07T08:19:06.000Z</time>
      </trkpt>
      <trkpt lat="44.40936" lon="6.38194">
        <ele>2397</ele>
        <time>2020-07-07T08:19:07.000Z</time>
      </trkpt>
      <trkpt lat="44.40936" lon="6.38194">
        <ele>2397</ele>
        <time>2020-07-07T08:19:08.000Z</time>
      </trkpt>
      <trkpt lat="44.40936" lon="6.38193">
        <ele>2397</ele>
        <time>2020-07-07T08:19:09.000Z</time>
      </trkpt>
      <trkpt lat="44.40936" lon="6.38193">
        <ele>2397</ele>
        <time>2020-07-07T08:19:10.000Z</time>
      </trkpt>
      <trkpt lat="44.40936" lon="6.38193">
        <ele>2397</ele>
        <time>2020-07-07T08:19:11.000Z</time>
      </trkpt>
      <trkpt lat="44.40936" lon="6.38194">
        <ele>2397</ele>
        <time>2020-07-07T08:19:12.000Z</time>
      </trkpt>
      <trkpt lat="44.40936" lon="6.38194">
        <ele>2397</ele>
        <time>2020-07-07T08:19:13.000Z</time>
      </trkpt>
      <trkpt lat="44.40936" lon="6.38194">
        <ele>2397</ele>
        <time>2020-07-07T08:19:14.000Z</time>
      </trkpt>
      <trkpt lat="44.40936" lon="6.38194">
        <ele>2397</ele>
        <time>2020-07-07T08:19:15.000Z</time>
      </trkpt>
      <trkpt lat="44.40936" lon="6.38194">
        <ele>2397</ele>
        <time>2020-07-07T08:19:16.000Z</time>
      </trkpt>
      <trkpt lat="44.40935" lon="6.38193">
        <ele>2397</ele>
        <time>2020-07-07T08:19:17.000Z</time>
      </trkpt>
      <trkpt lat="44.40934" lon="6.38193">
        <ele>2397</ele>
        <time>2020-07-07T08:19:18.000Z</time>
      </trkpt>
      <trkpt lat="44.40933" lon="6.38193">
        <ele>2397</ele>
        <time>2020-07-07T08:19:19.000Z</time>
      </trkpt>
      <trkpt lat="44.40932" lon="6.38193">
        <ele>2397</ele>
        <time>2020-07-07T08:19:20.000Z</time>
      </trkpt>
      <trkpt lat="44.40931" lon="6.38193">
        <ele>2397</ele>
        <time>2020-07-07T08:19:21.000Z</time>
      </trkpt>
      <trkpt lat="44.40931" lon="6.38192">
        <ele>2397</ele>
        <time>2020-07-07T08:19:22.000Z</time>
      </trkpt>
      <trkpt lat="44.4093" lon="6.38192">
        <ele>2397</ele>
        <time>2020-07-07T08:19:23.000Z</time>
      </trkpt>
      <trkpt lat="44.40929" lon="6.38192">
        <ele>2397</ele>
        <time>2020-07-07T08:19:24.000Z</time>
      </trkpt>
      <trkpt lat="44.40928" lon="6.38192">
        <ele>2397</ele>
        <time>2020-07-07T08:19:25.000Z</time>
      </trkpt>
      <trkpt lat="44.40927" lon="6.38191">
        <ele>2397</ele>
        <time>2020-07-07T08:19:26.000Z</time>
      </trkpt>
      <trkpt lat="44.40927" lon="6.38191">
        <ele>2397</ele>
        <time>2020-07-07T08:19:27.000Z</time>
      </trkpt>
      <trkpt lat="44.40926" lon="6.38191">
        <ele>2398</ele>
        <time>2020-07-07T08:19:28.000Z</time>
      </trkpt>
      <trkpt lat="44.40925" lon="6.3819">
        <ele>2398</ele>
        <time>2020-07-07T08:19:29.000Z</time>
      </trkpt>
      <trkpt lat="44.40924" lon="6.3819">
        <ele>2398</ele>
        <time>2020-07-07T08:19:30.000Z</time>
      </trkpt>
      <trkpt lat="44.40923" lon="6.3819">
        <ele>2398</ele>
        <time>2020-07-07T08:19:31.000Z</time>
      </trkpt>
      <trkpt lat="44.40923" lon="6.3819">
        <ele>2398</ele>
        <time>2020-07-07T08:19:32.000Z</time>
      </trkpt>
      <trkpt lat="44.40922" lon="6.3819">
        <ele>2398</ele>
        <time>2020-07-07T08:19:33.000Z</time>
      </trkpt>
      <trkpt lat="44.40921" lon="6.38189">
        <ele>2398</ele>
        <time>2020-07-07T08:19:34.000Z</time>
      </trkpt>
      <trkpt lat="44.4092" lon="6.38189">
        <ele>2398</ele>
        <time>2020-07-07T08:19:35.000Z</time>
      </trkpt>
      <trkpt lat="44.40919" lon="6.38189">
        <ele>2399</ele>
        <time>2020-07-07T08:19:36.000Z</time>
      </trkpt>
      <trkpt lat="44.40918" lon="6.38189">
        <ele>2399</ele>
        <time>2020-07-07T08:19:37.000Z</time>
      </trkpt>
      <trkpt lat="44.40917" lon="6.38189">
        <ele>2399</ele>
        <time>2020-07-07T08:19:38.000Z</time>
      </trkpt>
      <trkpt lat="44.40917" lon="6.38189">
        <ele>2399</ele>
        <time>2020-07-07T08:19:39.000Z</time>
      </trkpt>
      <trkpt lat="44.40916" lon="6.38188">
        <ele>2399</ele>
        <time>2020-07-07T08:19:40.000Z</time>
      </trkpt>
      <trkpt lat="44.40916" lon="6.38188">
        <ele>2399</ele>
        <time>2020-07-07T08:19:41.000Z</time>
      </trkpt>
      <trkpt lat="44.40915" lon="6.38188">
        <ele>2400</ele>
        <time>2020-07-07T08:19:42.000Z</time>
      </trkpt>
      <trkpt lat="44.40914" lon="6.38188">
        <ele>2400</ele>
        <time>2020-07-07T08:19:43.000Z</time>
      </trkpt>
      <trkpt lat="44.40913" lon="6.38188">
        <ele>2400</ele>
        <time>2020-07-07T08:19:44.000Z</time>
      </trkpt>
      <trkpt lat="44.40912" lon="6.38189">
        <ele>2400</ele>
        <time>2020-07-07T08:19:45.000Z</time>
      </trkpt>
      <trkpt lat="44.40911" lon="6.38189">
        <ele>2400</ele>
        <time>2020-07-07T08:19:46.000Z</time>
      </trkpt>
      <trkpt lat="44.4091" lon="6.38189">
        <ele>2400</ele>
        <time>2020-07-07T08:19:47.000Z</time>
      </trkpt>
      <trkpt lat="44.40909" lon="6.38189">
        <ele>2400</ele>
        <time>2020-07-07T08:19:48.000Z</time>
      </trkpt>
      <trkpt lat="44.40908" lon="6.38189">
        <ele>2400</ele>
        <time>2020-07-07T08:19:49.000Z</time>
      </trkpt>
      <trkpt lat="44.40907" lon="6.38189">
        <ele>2400</ele>
        <time>2020-07-07T08:19:50.000Z</time>
      </trkpt>
      <trkpt lat="44.40907" lon="6.38189">
        <ele>2400</ele>
        <time>2020-07-07T08:19:51.000Z</time>
      </trkpt>
      <trkpt lat="44.40906" lon="6.38189">
        <ele>2400</ele>
        <time>2020-07-07T08:19:52.000Z</time>
      </trkpt>
      <trkpt lat="44.40905" lon="6.38189">
        <ele>2400</ele>
        <time>2020-07-07T08:19:53.000Z</time>
      </trkpt>
      <trkpt lat="44.40904" lon="6.3819">
        <ele>2400</ele>
        <time>2020-07-07T08:19:54.000Z</time>
      </trkpt>
      <trkpt lat="44.40903" lon="6.3819">
        <ele>2400</ele>
        <time>2020-07-07T08:19:55.000Z</time>
      </trkpt>
      <trkpt lat="44.40902" lon="6.3819">
        <ele>2400</ele>
        <time>2020-07-07T08:19:56.000Z</time>
      </trkpt>
      <trkpt lat="44.40901" lon="6.3819">
        <ele>2400</ele>
        <time>2020-07-07T08:19:57.000Z</time>
      </trkpt>
      <trkpt lat="44.409" lon="6.38191">
        <ele>2400</ele>
        <time>2020-07-07T08:19:58.000Z</time>
      </trkpt>
      <trkpt lat="44.40899" lon="6.38191">
        <ele>2400</ele>
        <time>2020-07-07T08:19:59.000Z</time>
      </trkpt>
      <trkpt lat="44.40898" lon="6.38192">
        <ele>2401</ele>
        <time>2020-07-07T08:20:00.000Z</time>
      </trkpt>
      <trkpt lat="44.40897" lon="6.38192">
        <ele>2401</ele>
        <time>2020-07-07T08:20:01.000Z</time>
      </trkpt>
      <trkpt lat="44.40896" lon="6.38192">
        <ele>2401</ele>
        <time>2020-07-07T08:20:02.000Z</time>
      </trkpt>
      <trkpt lat="44.40895" lon="6.38193">
        <ele>2401</ele>
        <time>2020-07-07T08:20:03.000Z</time>
      </trkpt>
      <trkpt lat="44.40895" lon="6.38193">
        <ele>2401</ele>
        <time>2020-07-07T08:20:04.000Z</time>
      </trkpt>
      <trkpt lat="44.40893" lon="6.38194">
        <ele>2401</ele>
        <time>2020-07-07T08:20:05.000Z</time>
      </trkpt>
      <trkpt lat="44.40892" lon="6.38195">
        <ele>2401</ele>
        <time>2020-07-07T08:20:06.000Z</time>
      </trkpt>
      <trkpt lat="44.40892" lon="6.38195">
        <ele>2401</ele>
        <time>2020-07-07T08:20:07.000Z</time>
      </trkpt>
      <trkpt lat="44.40891" lon="6.38196">
        <ele>2401</ele>
        <time>2020-07-07T08:20:08.000Z</time>
      </trkpt>
      <trkpt lat="44.40891" lon="6.38196">
        <ele>2401</ele>
        <time>2020-07-07T08:20:09.000Z</time>
      </trkpt>
      <trkpt lat="44.4089" lon="6.38196">
        <ele>2402</ele>
        <time>2020-07-07T08:20:10.000Z</time>
      </trkpt>
      <trkpt lat="44.40889" lon="6.38197">
        <ele>2402</ele>
        <time>2020-07-07T08:20:11.000Z</time>
      </trkpt>
      <trkpt lat="44.40888" lon="6.38198">
        <ele>2402</ele>
        <time>2020-07-07T08:20:12.000Z</time>
      </trkpt>
      <trkpt lat="44.40887" lon="6.38198">
        <ele>2402</ele>
        <time>2020-07-07T08:20:13.000Z</time>
      </trkpt>
      <trkpt lat="44.40886" lon="6.38199">
        <ele>2402</ele>
        <time>2020-07-07T08:20:14.000Z</time>
      </trkpt>
      <trkpt lat="44.40886" lon="6.38199">
        <ele>2402</ele>
        <time>2020-07-07T08:20:15.000Z</time>
      </trkpt>
      <trkpt lat="44.40885" lon="6.38199">
        <ele>2402</ele>
        <time>2020-07-07T08:20:16.000Z</time>
      </trkpt>
      <trkpt lat="44.40884" lon="6.382">
        <ele>2402</ele>
        <time>2020-07-07T08:20:17.000Z</time>
      </trkpt>
      <trkpt lat="44.40883" lon="6.382">
        <ele>2402</ele>
        <time>2020-07-07T08:20:18.000Z</time>
      </trkpt>
      <trkpt lat="44.40882" lon="6.382">
        <ele>2402</ele>
        <time>2020-07-07T08:20:19.000Z</time>
      </trkpt>
      <trkpt lat="44.40881" lon="6.38201">
        <ele>2402</ele>
        <time>2020-07-07T08:20:20.000Z</time>
      </trkpt>
      <trkpt lat="44.4088" lon="6.38201">
        <ele>2402</ele>
        <time>2020-07-07T08:20:21.000Z</time>
      </trkpt>
      <trkpt lat="44.40879" lon="6.38201">
        <ele>2402</ele>
        <time>2020-07-07T08:20:22.000Z</time>
      </trkpt>
      <trkpt lat="44.40879" lon="6.38202">
        <ele>2402</ele>
        <time>2020-07-07T08:20:23.000Z</time>
      </trkpt>
      <trkpt lat="44.40878" lon="6.38202">
        <ele>2402</ele>
        <time>2020-07-07T08:20:24.000Z</time>
      </trkpt>
      <trkpt lat="44.40877" lon="6.38202">
        <ele>2402</ele>
        <time>2020-07-07T08:20:25.000Z</time>
      </trkpt>
      <trkpt lat="44.40877" lon="6.38202">
        <ele>2402</ele>
        <time>2020-07-07T08:20:26.000Z</time>
      </trkpt>
      <trkpt lat="44.40876" lon="6.38202">
        <ele>2402</ele>
        <time>2020-07-07T08:20:27.000Z</time>
      </trkpt>
      <trkpt lat="44.40875" lon="6.38202">
        <ele>2402</ele>
        <time>2020-07-07T08:20:28.000Z</time>
      </trkpt>
      <trkpt lat="44.40874" lon="6.38202">
        <ele>2402</ele>
        <time>2020-07-07T08:20:29.000Z</time>
      </trkpt>
      <trkpt lat="44.40874" lon="6.38203">
        <ele>2402</ele>
        <time>2020-07-07T08:20:30.000Z</time>
      </trkpt>
      <trkpt lat="44.40873" lon="6.38203">
        <ele>2402</ele>
        <time>2020-07-07T08:20:31.000Z</time>
      </trkpt>
      <trkpt lat="44.40872" lon="6.38203">
        <ele>2402</ele>
        <time>2020-07-07T08:20:32.000Z</time>
      </trkpt>
      <trkpt lat="44.40871" lon="6.38203">
        <ele>2402</ele>
        <time>2020-07-07T08:20:33.000Z</time>
      </trkpt>
      <trkpt lat="44.40871" lon="6.38203">
        <ele>2402</ele>
        <time>2020-07-07T08:20:34.000Z</time>
      </trkpt>
      <trkpt lat="44.40871" lon="6.38204">
        <ele>2402</ele>
        <time>2020-07-07T08:20:35.000Z</time>
      </trkpt>
      <trkpt lat="44.4087" lon="6.38204">
        <ele>2402</ele>
        <time>2020-07-07T08:20:36.000Z</time>
      </trkpt>
      <trkpt lat="44.40869" lon="6.38204">
        <ele>2402</ele>
        <time>2020-07-07T08:20:37.000Z</time>
      </trkpt>
      <trkpt lat="44.40868" lon="6.38204">
        <ele>2403</ele>
        <time>2020-07-07T08:20:38.000Z</time>
      </trkpt>
      <trkpt lat="44.40867" lon="6.38205">
        <ele>2403</ele>
        <time>2020-07-07T08:20:39.000Z</time>
      </trkpt>
      <trkpt lat="44.40866" lon="6.38205">
        <ele>2403</ele>
        <time>2020-07-07T08:20:40.000Z</time>
      </trkpt>
      <trkpt lat="44.40865" lon="6.38206">
        <ele>2403</ele>
        <time>2020-07-07T08:20:41.000Z</time>
      </trkpt>
      <trkpt lat="44.40864" lon="6.38206">
        <ele>2403</ele>
        <time>2020-07-07T08:20:42.000Z</time>
      </trkpt>
      <trkpt lat="44.40863" lon="6.38206">
        <ele>2403</ele>
        <time>2020-07-07T08:20:43.000Z</time>
      </trkpt>
      <trkpt lat="44.40861" lon="6.38207">
        <ele>2404</ele>
        <time>2020-07-07T08:20:44.000Z</time>
      </trkpt>
      <trkpt lat="44.4086" lon="6.38207">
        <ele>2404</ele>
        <time>2020-07-07T08:20:45.000Z</time>
      </trkpt>
      <trkpt lat="44.40859" lon="6.38207">
        <ele>2404</ele>
        <time>2020-07-07T08:20:46.000Z</time>
      </trkpt>
      <trkpt lat="44.40858" lon="6.38207">
        <ele>2404</ele>
        <time>2020-07-07T08:20:47.000Z</time>
      </trkpt>
      <trkpt lat="44.40857" lon="6.38207">
        <ele>2404</ele>
        <time>2020-07-07T08:20:48.000Z</time>
      </trkpt>
      <trkpt lat="44.40856" lon="6.38207">
        <ele>2405</ele>
        <time>2020-07-07T08:20:49.000Z</time>
      </trkpt>
      <trkpt lat="44.40856" lon="6.38207">
        <ele>2405</ele>
        <time>2020-07-07T08:20:50.000Z</time>
      </trkpt>
      <trkpt lat="44.40856" lon="6.38207">
        <ele>2405</ele>
        <time>2020-07-07T08:20:51.000Z</time>
      </trkpt>
      <trkpt lat="44.40855" lon="6.38207">
        <ele>2405</ele>
        <time>2020-07-07T08:20:52.000Z</time>
      </trkpt>
      <trkpt lat="44.40854" lon="6.38207">
        <ele>2405</ele>
        <time>2020-07-07T08:20:53.000Z</time>
      </trkpt>
      <trkpt lat="44.40853" lon="6.38207">
        <ele>2405</ele>
        <time>2020-07-07T08:20:54.000Z</time>
      </trkpt>
      <trkpt lat="44.40852" lon="6.38207">
        <ele>2406</ele>
        <time>2020-07-07T08:20:55.000Z</time>
      </trkpt>
      <trkpt lat="44.40851" lon="6.38207">
        <ele>2406</ele>
        <time>2020-07-07T08:20:56.000Z</time>
      </trkpt>
      <trkpt lat="44.4085" lon="6.38207">
        <ele>2406</ele>
        <time>2020-07-07T08:20:57.000Z</time>
      </trkpt>
      <trkpt lat="44.40848" lon="6.38207">
        <ele>2406</ele>
        <time>2020-07-07T08:20:58.000Z</time>
      </trkpt>
      <trkpt lat="44.40847" lon="6.38207">
        <ele>2406</ele>
        <time>2020-07-07T08:20:59.000Z</time>
      </trkpt>
      <trkpt lat="44.40847" lon="6.38207">
        <ele>2406</ele>
        <time>2020-07-07T08:21:00.000Z</time>
      </trkpt>
      <trkpt lat="44.40846" lon="6.38206">
        <ele>2406</ele>
        <time>2020-07-07T08:21:01.000Z</time>
      </trkpt>
      <trkpt lat="44.40846" lon="6.38207">
        <ele>2406</ele>
        <time>2020-07-07T08:21:02.000Z</time>
      </trkpt>
      <trkpt lat="44.40844" lon="6.38208">
        <ele>2406</ele>
        <time>2020-07-07T08:21:03.000Z</time>
      </trkpt>
      <trkpt lat="44.40844" lon="6.38208">
        <ele>2406</ele>
        <time>2020-07-07T08:21:04.000Z</time>
      </trkpt>
      <trkpt lat="44.40844" lon="6.38209">
        <ele>2407</ele>
        <time>2020-07-07T08:21:05.000Z</time>
      </trkpt>
      <trkpt lat="44.40845" lon="6.3821">
        <ele>2407</ele>
        <time>2020-07-07T08:21:06.000Z</time>
      </trkpt>
      <trkpt lat="44.40845" lon="6.38211">
        <ele>2407</ele>
        <time>2020-07-07T08:21:07.000Z</time>
      </trkpt>
      <trkpt lat="44.40846" lon="6.38211">
        <ele>2407</ele>
        <time>2020-07-07T08:21:08.000Z</time>
      </trkpt>
      <trkpt lat="44.40847" lon="6.38211">
        <ele>2407</ele>
        <time>2020-07-07T08:21:09.000Z</time>
      </trkpt>
      <trkpt lat="44.40847" lon="6.38212">
        <ele>2407</ele>
        <time>2020-07-07T08:21:10.000Z</time>
      </trkpt>
      <trkpt lat="44.40848" lon="6.38212">
        <ele>2407</ele>
        <time>2020-07-07T08:21:11.000Z</time>
      </trkpt>
      <trkpt lat="44.40849" lon="6.38212">
        <ele>2407</ele>
        <time>2020-07-07T08:21:12.000Z</time>
      </trkpt>
      <trkpt lat="44.4085" lon="6.38213">
        <ele>2407</ele>
        <time>2020-07-07T08:21:13.000Z</time>
      </trkpt>
      <trkpt lat="44.40851" lon="6.38213">
        <ele>2407</ele>
        <time>2020-07-07T08:21:14.000Z</time>
      </trkpt>
      <trkpt lat="44.40851" lon="6.38212">
        <ele>2407</ele>
        <time>2020-07-07T08:21:15.000Z</time>
      </trkpt>
      <trkpt lat="44.40851" lon="6.38212">
        <ele>2407</ele>
        <time>2020-07-07T08:21:16.000Z</time>
      </trkpt>
      <trkpt lat="44.40852" lon="6.38212">
        <ele>2407</ele>
        <time>2020-07-07T08:21:17.000Z</time>
      </trkpt>
      <trkpt lat="44.40852" lon="6.38212">
        <ele>2407</ele>
        <time>2020-07-07T08:21:18.000Z</time>
      </trkpt>
      <trkpt lat="44.40852" lon="6.38212">
        <ele>2407</ele>
        <time>2020-07-07T08:21:19.000Z</time>
      </trkpt>
      <trkpt lat="44.40852" lon="6.38212">
        <ele>2408</ele>
        <time>2020-07-07T08:21:20.000Z</time>
      </trkpt>
      <trkpt lat="44.40852" lon="6.38212">
        <ele>2408</ele>
        <time>2020-07-07T08:21:21.000Z</time>
      </trkpt>
      <trkpt lat="44.40852" lon="6.38212">
        <ele>2408</ele>
        <time>2020-07-07T08:21:22.000Z</time>
      </trkpt>
      <trkpt lat="44.40852" lon="6.38212">
        <ele>2408</ele>
        <time>2020-07-07T08:21:23.000Z</time>
      </trkpt>
      <trkpt lat="44.40852" lon="6.38212">
        <ele>2408</ele>
        <time>2020-07-07T08:21:24.000Z</time>
      </trkpt>
      <trkpt lat="44.40852" lon="6.38212">
        <ele>2408</ele>
        <time>2020-07-07T08:21:25.000Z</time>
      </trkpt>
      <trkpt lat="44.40852" lon="6.38212">
        <ele>2409</ele>
        <time>2020-07-07T08:21:26.000Z</time>
      </trkpt>
      <trkpt lat="44.40852" lon="6.38212">
        <ele>2409</ele>
        <time>2020-07-07T08:21:27.000Z</time>
      </trkpt>
      <trkpt lat="44.40852" lon="6.38212">
        <ele>2409</ele>
        <time>2020-07-07T08:21:28.000Z</time>
      </trkpt>
      <trkpt lat="44.40852" lon="6.38212">
        <ele>2409</ele>
        <time>2020-07-07T08:21:29.000Z</time>
      </trkpt>
      <trkpt lat="44.40852" lon="6.38212">
        <ele>2409</ele>
        <time>2020-07-07T08:21:30.000Z</time>
      </trkpt>
      <trkpt lat="44.40852" lon="6.38212">
        <ele>2409</ele>
        <time>2020-07-07T08:21:31.000Z</time>
      </trkpt>
      <trkpt lat="44.40852" lon="6.38212">
        <ele>2409</ele>
        <time>2020-07-07T08:21:32.000Z</time>
      </trkpt>
      <trkpt lat="44.40852" lon="6.38212">
        <ele>2409</ele>
        <time>2020-07-07T08:21:33.000Z</time>
      </trkpt>
      <trkpt lat="44.40852" lon="6.38212">
        <ele>2409</ele>
        <time>2020-07-07T08:21:34.000Z</time>
      </trkpt>
      <trkpt lat="44.40852" lon="6.38211">
        <ele>2409</ele>
        <time>2020-07-07T08:21:35.000Z</time>
      </trkpt>
      <trkpt lat="44.40852" lon="6.38211">
        <ele>2409</ele>
        <time>2020-07-07T08:21:36.000Z</time>
      </trkpt>
      <trkpt lat="44.40853" lon="6.38211">
        <ele>2409</ele>
        <time>2020-07-07T08:21:37.000Z</time>
      </trkpt>
      <trkpt lat="44.40854" lon="6.38212">
        <ele>2409</ele>
        <time>2020-07-07T08:21:38.000Z</time>
      </trkpt>
      <trkpt lat="44.40855" lon="6.38212">
        <ele>2410</ele>
        <time>2020-07-07T08:21:39.000Z</time>
      </trkpt>
      <trkpt lat="44.40856" lon="6.38212">
        <ele>2410</ele>
        <time>2020-07-07T08:21:40.000Z</time>
      </trkpt>
      <trkpt lat="44.40857" lon="6.38212">
        <ele>2410</ele>
        <time>2020-07-07T08:21:41.000Z</time>
      </trkpt>
      <trkpt lat="44.40858" lon="6.38213">
        <ele>2410</ele>
        <time>2020-07-07T08:21:42.000Z</time>
      </trkpt>
      <trkpt lat="44.40859" lon="6.38213">
        <ele>2410</ele>
        <time>2020-07-07T08:21:43.000Z</time>
      </trkpt>
      <trkpt lat="44.40859" lon="6.38214">
        <ele>2410</ele>
        <time>2020-07-07T08:21:44.000Z</time>
      </trkpt>
      <trkpt lat="44.4086" lon="6.38214">
        <ele>2410</ele>
        <time>2020-07-07T08:21:45.000Z</time>
      </trkpt>
      <trkpt lat="44.40861" lon="6.38214">
        <ele>2410</ele>
        <time>2020-07-07T08:21:46.000Z</time>
      </trkpt>
      <trkpt lat="44.40862" lon="6.38215">
        <ele>2410</ele>
        <time>2020-07-07T08:21:47.000Z</time>
      </trkpt>
      <trkpt lat="44.40863" lon="6.38215">
        <ele>2410</ele>
        <time>2020-07-07T08:21:48.000Z</time>
      </trkpt>
      <trkpt lat="44.40865" lon="6.38215">
        <ele>2410</ele>
        <time>2020-07-07T08:21:49.000Z</time>
      </trkpt>
      <trkpt lat="44.40866" lon="6.38216">
        <ele>2410</ele>
        <time>2020-07-07T08:21:50.000Z</time>
      </trkpt>
      <trkpt lat="44.40866" lon="6.38217">
        <ele>2410</ele>
        <time>2020-07-07T08:21:51.000Z</time>
      </trkpt>
      <trkpt lat="44.40867" lon="6.38217">
        <ele>2410</ele>
        <time>2020-07-07T08:21:52.000Z</time>
      </trkpt>
      <trkpt lat="44.40868" lon="6.38218">
        <ele>2410</ele>
        <time>2020-07-07T08:21:53.000Z</time>
      </trkpt>
      <trkpt lat="44.40869" lon="6.38218">
        <ele>2410</ele>
        <time>2020-07-07T08:21:54.000Z</time>
      </trkpt>
      <trkpt lat="44.4087" lon="6.38219">
        <ele>2410</ele>
        <time>2020-07-07T08:21:55.000Z</time>
      </trkpt>
      <trkpt lat="44.40871" lon="6.3822">
        <ele>2410</ele>
        <time>2020-07-07T08:21:56.000Z</time>
      </trkpt>
      <trkpt lat="44.40871" lon="6.3822">
        <ele>2410</ele>
        <time>2020-07-07T08:21:57.000Z</time>
      </trkpt>
      <trkpt lat="44.40872" lon="6.38221">
        <ele>2410</ele>
        <time>2020-07-07T08:21:58.000Z</time>
      </trkpt>
      <trkpt lat="44.40873" lon="6.38221">
        <ele>2410</ele>
        <time>2020-07-07T08:21:59.000Z</time>
      </trkpt>
      <trkpt lat="44.40874" lon="6.38222">
        <ele>2410</ele>
        <time>2020-07-07T08:22:00.000Z</time>
      </trkpt>
      <trkpt lat="44.40874" lon="6.38223">
        <ele>2410</ele>
        <time>2020-07-07T08:22:01.000Z</time>
      </trkpt>
      <trkpt lat="44.40875" lon="6.38223">
        <ele>2410</ele>
        <time>2020-07-07T08:22:02.000Z</time>
      </trkpt>
      <trkpt lat="44.40876" lon="6.38224">
        <ele>2411</ele>
        <time>2020-07-07T08:22:03.000Z</time>
      </trkpt>
      <trkpt lat="44.40877" lon="6.38225">
        <ele>2411</ele>
        <time>2020-07-07T08:22:04.000Z</time>
      </trkpt>
      <trkpt lat="44.40878" lon="6.38226">
        <ele>2411</ele>
        <time>2020-07-07T08:22:05.000Z</time>
      </trkpt>
      <trkpt lat="44.40878" lon="6.38226">
        <ele>2411</ele>
        <time>2020-07-07T08:22:06.000Z</time>
      </trkpt>
      <trkpt lat="44.40879" lon="6.38227">
        <ele>2411</ele>
        <time>2020-07-07T08:22:07.000Z</time>
      </trkpt>
      <trkpt lat="44.4088" lon="6.38227">
        <ele>2411</ele>
        <time>2020-07-07T08:22:08.000Z</time>
      </trkpt>
      <trkpt lat="44.40881" lon="6.38227">
        <ele>2411</ele>
        <time>2020-07-07T08:22:09.000Z</time>
      </trkpt>
      <trkpt lat="44.40882" lon="6.38228">
        <ele>2412</ele>
        <time>2020-07-07T08:22:10.000Z</time>
      </trkpt>
      <trkpt lat="44.40882" lon="6.38228">
        <ele>2412</ele>
        <time>2020-07-07T08:22:11.000Z</time>
      </trkpt>
      <trkpt lat="44.40883" lon="6.38229">
        <ele>2412</ele>
        <time>2020-07-07T08:22:12.000Z</time>
      </trkpt>
      <trkpt lat="44.40884" lon="6.38229">
        <ele>2412</ele>
        <time>2020-07-07T08:22:13.000Z</time>
      </trkpt>
      <trkpt lat="44.40885" lon="6.3823">
        <ele>2412</ele>
        <time>2020-07-07T08:22:14.000Z</time>
      </trkpt>
      <trkpt lat="44.40886" lon="6.3823">
        <ele>2412</ele>
        <time>2020-07-07T08:22:15.000Z</time>
      </trkpt>
      <trkpt lat="44.40887" lon="6.38231">
        <ele>2412</ele>
        <time>2020-07-07T08:22:16.000Z</time>
      </trkpt>
      <trkpt lat="44.40888" lon="6.38232">
        <ele>2413</ele>
        <time>2020-07-07T08:22:17.000Z</time>
      </trkpt>
      <trkpt lat="44.40889" lon="6.38232">
        <ele>2413</ele>
        <time>2020-07-07T08:22:18.000Z</time>
      </trkpt>
      <trkpt lat="44.4089" lon="6.38233">
        <ele>2413</ele>
        <time>2020-07-07T08:22:19.000Z</time>
      </trkpt>
      <trkpt lat="44.40891" lon="6.38234">
        <ele>2413</ele>
        <time>2020-07-07T08:22:20.000Z</time>
      </trkpt>
      <trkpt lat="44.40891" lon="6.38235">
        <ele>2413</ele>
        <time>2020-07-07T08:22:21.000Z</time>
      </trkpt>
      <trkpt lat="44.40892" lon="6.38236">
        <ele>2413</ele>
        <time>2020-07-07T08:22:22.000Z</time>
      </trkpt>
      <trkpt lat="44.40893" lon="6.38237">
        <ele>2414</ele>
        <time>2020-07-07T08:22:23.000Z</time>
      </trkpt>
      <trkpt lat="44.40894" lon="6.38237">
        <ele>2414</ele>
        <time>2020-07-07T08:22:24.000Z</time>
      </trkpt>
      <trkpt lat="44.40895" lon="6.38238">
        <ele>2414</ele>
        <time>2020-07-07T08:22:25.000Z</time>
      </trkpt>
      <trkpt lat="44.40895" lon="6.38239">
        <ele>2414</ele>
        <time>2020-07-07T08:22:26.000Z</time>
      </trkpt>
      <trkpt lat="44.40896" lon="6.38239">
        <ele>2414</ele>
        <time>2020-07-07T08:22:27.000Z</time>
      </trkpt>
      <trkpt lat="44.40896" lon="6.38239">
        <ele>2414</ele>
        <time>2020-07-07T08:22:28.000Z</time>
      </trkpt>
      <trkpt lat="44.40897" lon="6.3824">
        <ele>2415</ele>
        <time>2020-07-07T08:22:29.000Z</time>
      </trkpt>
      <trkpt lat="44.40898" lon="6.38241">
        <ele>2415</ele>
        <time>2020-07-07T08:22:30.000Z</time>
      </trkpt>
      <trkpt lat="44.40899" lon="6.38242">
        <ele>2415</ele>
        <time>2020-07-07T08:22:31.000Z</time>
      </trkpt>
      <trkpt lat="44.409" lon="6.38243">
        <ele>2415</ele>
        <time>2020-07-07T08:22:32.000Z</time>
      </trkpt>
      <trkpt lat="44.40901" lon="6.38244">
        <ele>2415</ele>
        <time>2020-07-07T08:22:33.000Z</time>
      </trkpt>
      <trkpt lat="44.40902" lon="6.38245">
        <ele>2415</ele>
        <time>2020-07-07T08:22:34.000Z</time>
      </trkpt>
      <trkpt lat="44.40903" lon="6.38246">
        <ele>2415</ele>
        <time>2020-07-07T08:22:35.000Z</time>
      </trkpt>
      <trkpt lat="44.40904" lon="6.38247">
        <ele>2415</ele>
        <time>2020-07-07T08:22:36.000Z</time>
      </trkpt>
      <trkpt lat="44.40905" lon="6.38248">
        <ele>2415</ele>
        <time>2020-07-07T08:22:37.000Z</time>
      </trkpt>
      <trkpt lat="44.40905" lon="6.38248">
        <ele>2415</ele>
        <time>2020-07-07T08:22:38.000Z</time>
      </trkpt>
      <trkpt lat="44.40906" lon="6.38249">
        <ele>2415</ele>
        <time>2020-07-07T08:22:39.000Z</time>
      </trkpt>
      <trkpt lat="44.40907" lon="6.3825">
        <ele>2415</ele>
        <time>2020-07-07T08:22:40.000Z</time>
      </trkpt>
      <trkpt lat="44.40908" lon="6.38251">
        <ele>2415</ele>
        <time>2020-07-07T08:22:41.000Z</time>
      </trkpt>
      <trkpt lat="44.40909" lon="6.38252">
        <ele>2415</ele>
        <time>2020-07-07T08:22:42.000Z</time>
      </trkpt>
      <trkpt lat="44.40909" lon="6.38253">
        <ele>2415</ele>
        <time>2020-07-07T08:22:43.000Z</time>
      </trkpt>
      <trkpt lat="44.4091" lon="6.38254">
        <ele>2415</ele>
        <time>2020-07-07T08:22:44.000Z</time>
      </trkpt>
      <trkpt lat="44.40911" lon="6.38256">
        <ele>2416</ele>
        <time>2020-07-07T08:22:45.000Z</time>
      </trkpt>
      <trkpt lat="44.40911" lon="6.38257">
        <ele>2416</ele>
        <time>2020-07-07T08:22:46.000Z</time>
      </trkpt>
      <trkpt lat="44.40912" lon="6.38258">
        <ele>2416</ele>
        <time>2020-07-07T08:22:47.000Z</time>
      </trkpt>
      <trkpt lat="44.40912" lon="6.38258">
        <ele>2416</ele>
        <time>2020-07-07T08:22:48.000Z</time>
      </trkpt>
      <trkpt lat="44.40913" lon="6.3826">
        <ele>2416</ele>
        <time>2020-07-07T08:22:49.000Z</time>
      </trkpt>
      <trkpt lat="44.40913" lon="6.38261">
        <ele>2416</ele>
        <time>2020-07-07T08:22:50.000Z</time>
      </trkpt>
      <trkpt lat="44.40913" lon="6.38262">
        <ele>2417</ele>
        <time>2020-07-07T08:22:51.000Z</time>
      </trkpt>
      <trkpt lat="44.40913" lon="6.38263">
        <ele>2417</ele>
        <time>2020-07-07T08:22:52.000Z</time>
      </trkpt>
      <trkpt lat="44.40914" lon="6.38265">
        <ele>2417</ele>
        <time>2020-07-07T08:22:53.000Z</time>
      </trkpt>
      <trkpt lat="44.40915" lon="6.38266">
        <ele>2417</ele>
        <time>2020-07-07T08:22:54.000Z</time>
      </trkpt>
      <trkpt lat="44.40916" lon="6.38267">
        <ele>2417</ele>
        <time>2020-07-07T08:22:55.000Z</time>
      </trkpt>
      <trkpt lat="44.40916" lon="6.38269">
        <ele>2417</ele>
        <time>2020-07-07T08:22:56.000Z</time>
      </trkpt>
      <trkpt lat="44.40917" lon="6.3827">
        <ele>2417</ele>
        <time>2020-07-07T08:22:57.000Z</time>
      </trkpt>
      <trkpt lat="44.40917" lon="6.38271">
        <ele>2417</ele>
        <time>2020-07-07T08:22:58.000Z</time>
      </trkpt>
      <trkpt lat="44.40917" lon="6.38273">
        <ele>2417</ele>
        <time>2020-07-07T08:22:59.000Z</time>
      </trkpt>
      <trkpt lat="44.40917" lon="6.38274">
        <ele>2417</ele>
        <time>2020-07-07T08:23:00.000Z</time>
      </trkpt>
      <trkpt lat="44.40918" lon="6.38275">
        <ele>2417</ele>
        <time>2020-07-07T08:23:01.000Z</time>
      </trkpt>
      <trkpt lat="44.40918" lon="6.38277">
        <ele>2417</ele>
        <time>2020-07-07T08:23:02.000Z</time>
      </trkpt>
      <trkpt lat="44.40918" lon="6.3828">
        <ele>2417</ele>
        <time>2020-07-07T08:23:03.000Z</time>
      </trkpt>
      <trkpt lat="44.40918" lon="6.3828">
        <ele>2417</ele>
        <time>2020-07-07T08:23:04.000Z</time>
      </trkpt>
      <trkpt lat="44.40919" lon="6.38282">
        <ele>2417</ele>
        <time>2020-07-07T08:23:05.000Z</time>
      </trkpt>
      <trkpt lat="44.40919" lon="6.38282">
        <ele>2417</ele>
        <time>2020-07-07T08:23:06.000Z</time>
      </trkpt>
      <trkpt lat="44.40919" lon="6.38284">
        <ele>2417</ele>
        <time>2020-07-07T08:23:07.000Z</time>
      </trkpt>
      <trkpt lat="44.40919" lon="6.38284">
        <ele>2417</ele>
        <time>2020-07-07T08:23:08.000Z</time>
      </trkpt>
      <trkpt lat="44.40919" lon="6.38286">
        <ele>2418</ele>
        <time>2020-07-07T08:23:09.000Z</time>
      </trkpt>
      <trkpt lat="44.40919" lon="6.38287">
        <ele>2418</ele>
        <time>2020-07-07T08:23:10.000Z</time>
      </trkpt>
      <trkpt lat="44.40919" lon="6.38288">
        <ele>2418</ele>
        <time>2020-07-07T08:23:11.000Z</time>
      </trkpt>
      <trkpt lat="44.40919" lon="6.38289">
        <ele>2418</ele>
        <time>2020-07-07T08:23:12.000Z</time>
      </trkpt>
      <trkpt lat="44.4092" lon="6.3829">
        <ele>2418</ele>
        <time>2020-07-07T08:23:13.000Z</time>
      </trkpt>
      <trkpt lat="44.4092" lon="6.38292">
        <ele>2418</ele>
        <time>2020-07-07T08:23:14.000Z</time>
      </trkpt>
      <trkpt lat="44.4092" lon="6.38293">
        <ele>2418</ele>
        <time>2020-07-07T08:23:15.000Z</time>
      </trkpt>
      <trkpt lat="44.4092" lon="6.38294">
        <ele>2418</ele>
        <time>2020-07-07T08:23:16.000Z</time>
      </trkpt>
      <trkpt lat="44.4092" lon="6.38295">
        <ele>2418</ele>
        <time>2020-07-07T08:23:17.000Z</time>
      </trkpt>
      <trkpt lat="44.4092" lon="6.38296">
        <ele>2418</ele>
        <time>2020-07-07T08:23:18.000Z</time>
      </trkpt>
      <trkpt lat="44.4092" lon="6.38298">
        <ele>2418</ele>
        <time>2020-07-07T08:23:19.000Z</time>
      </trkpt>
      <trkpt lat="44.4092" lon="6.38298">
        <ele>2418</ele>
        <time>2020-07-07T08:23:20.000Z</time>
      </trkpt>
      <trkpt lat="44.4092" lon="6.383">
        <ele>2418</ele>
        <time>2020-07-07T08:23:21.000Z</time>
      </trkpt>
      <trkpt lat="44.4092" lon="6.38302">
        <ele>2418</ele>
        <time>2020-07-07T08:23:22.000Z</time>
      </trkpt>
      <trkpt lat="44.4092" lon="6.38303">
        <ele>2417</ele>
        <time>2020-07-07T08:23:23.000Z</time>
      </trkpt>
      <trkpt lat="44.4092" lon="6.38304">
        <ele>2417</ele>
        <time>2020-07-07T08:23:24.000Z</time>
      </trkpt>
      <trkpt lat="44.4092" lon="6.38306">
        <ele>2417</ele>
        <time>2020-07-07T08:23:25.000Z</time>
      </trkpt>
      <trkpt lat="44.4092" lon="6.38307">
        <ele>2417</ele>
        <time>2020-07-07T08:23:26.000Z</time>
      </trkpt>
      <trkpt lat="44.4092" lon="6.38308">
        <ele>2418</ele>
        <time>2020-07-07T08:23:27.000Z</time>
      </trkpt>
      <trkpt lat="44.40919" lon="6.3831">
        <ele>2418</ele>
        <time>2020-07-07T08:23:28.000Z</time>
      </trkpt>
      <trkpt lat="44.40919" lon="6.38311">
        <ele>2418</ele>
        <time>2020-07-07T08:23:29.000Z</time>
      </trkpt>
      <trkpt lat="44.40919" lon="6.38312">
        <ele>2418</ele>
        <time>2020-07-07T08:23:30.000Z</time>
      </trkpt>
      <trkpt lat="44.40918" lon="6.38313">
        <ele>2418</ele>
        <time>2020-07-07T08:23:31.000Z</time>
      </trkpt>
      <trkpt lat="44.40918" lon="6.38314">
        <ele>2418</ele>
        <time>2020-07-07T08:23:32.000Z</time>
      </trkpt>
      <trkpt lat="44.40917" lon="6.38315">
        <ele>2418</ele>
        <time>2020-07-07T08:23:33.000Z</time>
      </trkpt>
      <trkpt lat="44.40916" lon="6.38316">
        <ele>2418</ele>
        <time>2020-07-07T08:23:34.000Z</time>
      </trkpt>
      <trkpt lat="44.40915" lon="6.38317">
        <ele>2418</ele>
        <time>2020-07-07T08:23:35.000Z</time>
      </trkpt>
      <trkpt lat="44.40914" lon="6.38317">
        <ele>2418</ele>
        <time>2020-07-07T08:23:36.000Z</time>
      </trkpt>
      <trkpt lat="44.40913" lon="6.38317">
        <ele>2418</ele>
        <time>2020-07-07T08:23:37.000Z</time>
      </trkpt>
      <trkpt lat="44.40912" lon="6.38318">
        <ele>2418</ele>
        <time>2020-07-07T08:23:38.000Z</time>
      </trkpt>
      <trkpt lat="44.40911" lon="6.38318">
        <ele>2418</ele>
        <time>2020-07-07T08:23:39.000Z</time>
      </trkpt>
      <trkpt lat="44.4091" lon="6.38318">
        <ele>2418</ele>
        <time>2020-07-07T08:23:40.000Z</time>
      </trkpt>
      <trkpt lat="44.4091" lon="6.38318">
        <ele>2419</ele>
        <time>2020-07-07T08:23:41.000Z</time>
      </trkpt>
      <trkpt lat="44.40909" lon="6.38319">
        <ele>2419</ele>
        <time>2020-07-07T08:23:42.000Z</time>
      </trkpt>
      <trkpt lat="44.40908" lon="6.3832">
        <ele>2419</ele>
        <time>2020-07-07T08:23:43.000Z</time>
      </trkpt>
      <trkpt lat="44.40907" lon="6.3832">
        <ele>2419</ele>
        <time>2020-07-07T08:23:44.000Z</time>
      </trkpt>
      <trkpt lat="44.40907" lon="6.3832">
        <ele>2419</ele>
        <time>2020-07-07T08:23:45.000Z</time>
      </trkpt>
      <trkpt lat="44.40906" lon="6.38321">
        <ele>2420</ele>
        <time>2020-07-07T08:23:46.000Z</time>
      </trkpt>
      <trkpt lat="44.40905" lon="6.38321">
        <ele>2420</ele>
        <time>2020-07-07T08:23:47.000Z</time>
      </trkpt>
      <trkpt lat="44.40904" lon="6.38321">
        <ele>2420</ele>
        <time>2020-07-07T08:23:48.000Z</time>
      </trkpt>
      <trkpt lat="44.40904" lon="6.38321">
        <ele>2420</ele>
        <time>2020-07-07T08:23:49.000Z</time>
      </trkpt>
      <trkpt lat="44.40903" lon="6.38321">
        <ele>2420</ele>
        <time>2020-07-07T08:23:50.000Z</time>
      </trkpt>
      <trkpt lat="44.40902" lon="6.38321">
        <ele>2421</ele>
        <time>2020-07-07T08:23:51.000Z</time>
      </trkpt>
      <trkpt lat="44.40901" lon="6.38321">
        <ele>2421</ele>
        <time>2020-07-07T08:23:52.000Z</time>
      </trkpt>
      <trkpt lat="44.409" lon="6.38321">
        <ele>2421</ele>
        <time>2020-07-07T08:23:53.000Z</time>
      </trkpt>
      <trkpt lat="44.409" lon="6.38322">
        <ele>2421</ele>
        <time>2020-07-07T08:23:54.000Z</time>
      </trkpt>
      <trkpt lat="44.40899" lon="6.38322">
        <ele>2421</ele>
        <time>2020-07-07T08:23:55.000Z</time>
      </trkpt>
      <trkpt lat="44.40898" lon="6.38323">
        <ele>2421</ele>
        <time>2020-07-07T08:23:56.000Z</time>
      </trkpt>
      <trkpt lat="44.40897" lon="6.38323">
        <ele>2421</ele>
        <time>2020-07-07T08:23:57.000Z</time>
      </trkpt>
      <trkpt lat="44.40896" lon="6.38324">
        <ele>2422</ele>
        <time>2020-07-07T08:23:58.000Z</time>
      </trkpt>
      <trkpt lat="44.40895" lon="6.38324">
        <ele>2422</ele>
        <time>2020-07-07T08:23:59.000Z</time>
      </trkpt>
      <trkpt lat="44.40895" lon="6.38325">
        <ele>2421</ele>
        <time>2020-07-07T08:24:00.000Z</time>
      </trkpt>
      <trkpt lat="44.40895" lon="6.38326">
        <ele>2421</ele>
        <time>2020-07-07T08:24:01.000Z</time>
      </trkpt>
      <trkpt lat="44.40893" lon="6.38327">
        <ele>2421</ele>
        <time>2020-07-07T08:24:02.000Z</time>
      </trkpt>
      <trkpt lat="44.40893" lon="6.38327">
        <ele>2421</ele>
        <time>2020-07-07T08:24:03.000Z</time>
      </trkpt>
      <trkpt lat="44.40892" lon="6.38327">
        <ele>2421</ele>
        <time>2020-07-07T08:24:04.000Z</time>
      </trkpt>
      <trkpt lat="44.40891" lon="6.38328">
        <ele>2421</ele>
        <time>2020-07-07T08:24:05.000Z</time>
      </trkpt>
      <trkpt lat="44.40891" lon="6.38328">
        <ele>2422</ele>
        <time>2020-07-07T08:24:06.000Z</time>
      </trkpt>
      <trkpt lat="44.4089" lon="6.38328">
        <ele>2422</ele>
        <time>2020-07-07T08:24:07.000Z</time>
      </trkpt>
      <trkpt lat="44.40889" lon="6.38329">
        <ele>2422</ele>
        <time>2020-07-07T08:24:08.000Z</time>
      </trkpt>
      <trkpt lat="44.40888" lon="6.38329">
        <ele>2422</ele>
        <time>2020-07-07T08:24:09.000Z</time>
      </trkpt>
      <trkpt lat="44.40888" lon="6.3833">
        <ele>2422</ele>
        <time>2020-07-07T08:24:10.000Z</time>
      </trkpt>
      <trkpt lat="44.40887" lon="6.3833">
        <ele>2422</ele>
        <time>2020-07-07T08:24:11.000Z</time>
      </trkpt>
      <trkpt lat="44.40886" lon="6.38331">
        <ele>2422</ele>
        <time>2020-07-07T08:24:12.000Z</time>
      </trkpt>
      <trkpt lat="44.40884" lon="6.38331">
        <ele>2422</ele>
        <time>2020-07-07T08:24:13.000Z</time>
      </trkpt>
      <trkpt lat="44.40884" lon="6.38331">
        <ele>2422</ele>
        <time>2020-07-07T08:24:14.000Z</time>
      </trkpt>
      <trkpt lat="44.40883" lon="6.38332">
        <ele>2422</ele>
        <time>2020-07-07T08:24:15.000Z</time>
      </trkpt>
      <trkpt lat="44.40883" lon="6.38332">
        <ele>2422</ele>
        <time>2020-07-07T08:24:16.000Z</time>
      </trkpt>
      <trkpt lat="44.40882" lon="6.38332">
        <ele>2423</ele>
        <time>2020-07-07T08:24:17.000Z</time>
      </trkpt>
      <trkpt lat="44.40881" lon="6.38333">
        <ele>2423</ele>
        <time>2020-07-07T08:24:18.000Z</time>
      </trkpt>
      <trkpt lat="44.4088" lon="6.38333">
        <ele>2423</ele>
        <time>2020-07-07T08:24:19.000Z</time>
      </trkpt>
      <trkpt lat="44.40879" lon="6.38333">
        <ele>2423</ele>
        <time>2020-07-07T08:24:20.000Z</time>
      </trkpt>
      <trkpt lat="44.40878" lon="6.38333">
        <ele>2423</ele>
        <time>2020-07-07T08:24:21.000Z</time>
      </trkpt>
      <trkpt lat="44.40878" lon="6.38333">
        <ele>2423</ele>
        <time>2020-07-07T08:24:22.000Z</time>
      </trkpt>
      <trkpt lat="44.40877" lon="6.38333">
        <ele>2423</ele>
        <time>2020-07-07T08:24:23.000Z</time>
      </trkpt>
      <trkpt lat="44.40876" lon="6.38333">
        <ele>2424</ele>
        <time>2020-07-07T08:24:24.000Z</time>
      </trkpt>
      <trkpt lat="44.40876" lon="6.38333">
        <ele>2424</ele>
        <time>2020-07-07T08:24:25.000Z</time>
      </trkpt>
      <trkpt lat="44.40874" lon="6.38335">
        <ele>2424</ele>
        <time>2020-07-07T08:24:26.000Z</time>
      </trkpt>
      <trkpt lat="44.40873" lon="6.38335">
        <ele>2424</ele>
        <time>2020-07-07T08:24:27.000Z</time>
      </trkpt>
      <trkpt lat="44.40873" lon="6.38335">
        <ele>2424</ele>
        <time>2020-07-07T08:24:28.000Z</time>
      </trkpt>
      <trkpt lat="44.40873" lon="6.38336">
        <ele>2424</ele>
        <time>2020-07-07T08:24:29.000Z</time>
      </trkpt>
      <trkpt lat="44.40872" lon="6.38336">
        <ele>2424</ele>
        <time>2020-07-07T08:24:30.000Z</time>
      </trkpt>
      <trkpt lat="44.40872" lon="6.38336">
        <ele>2424</ele>
        <time>2020-07-07T08:24:31.000Z</time>
      </trkpt>
      <trkpt lat="44.40871" lon="6.38337">
        <ele>2424</ele>
        <time>2020-07-07T08:24:32.000Z</time>
      </trkpt>
      <trkpt lat="44.4087" lon="6.38337">
        <ele>2424</ele>
        <time>2020-07-07T08:24:33.000Z</time>
      </trkpt>
      <trkpt lat="44.4087" lon="6.38338">
        <ele>2424</ele>
        <time>2020-07-07T08:24:34.000Z</time>
      </trkpt>
      <trkpt lat="44.40869" lon="6.38338">
        <ele>2424</ele>
        <time>2020-07-07T08:24:35.000Z</time>
      </trkpt>
      <trkpt lat="44.40868" lon="6.38338">
        <ele>2424</ele>
        <time>2020-07-07T08:24:36.000Z</time>
      </trkpt>
      <trkpt lat="44.40867" lon="6.38338">
        <ele>2424</ele>
        <time>2020-07-07T08:24:37.000Z</time>
      </trkpt>
      <trkpt lat="44.40866" lon="6.38338">
        <ele>2424</ele>
        <time>2020-07-07T08:24:38.000Z</time>
      </trkpt>
      <trkpt lat="44.40865" lon="6.38339">
        <ele>2424</ele>
        <time>2020-07-07T08:24:39.000Z</time>
      </trkpt>
      <trkpt lat="44.40863" lon="6.38339">
        <ele>2424</ele>
        <time>2020-07-07T08:24:40.000Z</time>
      </trkpt>
      <trkpt lat="44.40863" lon="6.38339">
        <ele>2424</ele>
        <time>2020-07-07T08:24:41.000Z</time>
      </trkpt>
      <trkpt lat="44.40862" lon="6.3834">
        <ele>2424</ele>
        <time>2020-07-07T08:24:42.000Z</time>
      </trkpt>
      <trkpt lat="44.40861" lon="6.3834">
        <ele>2425</ele>
        <time>2020-07-07T08:24:43.000Z</time>
      </trkpt>
      <trkpt lat="44.40861" lon="6.3834">
        <ele>2425</ele>
        <time>2020-07-07T08:24:44.000Z</time>
      </trkpt>
      <trkpt lat="44.40861" lon="6.3834">
        <ele>2425</ele>
        <time>2020-07-07T08:24:45.000Z</time>
      </trkpt>
      <trkpt lat="44.40861" lon="6.3834">
        <ele>2425</ele>
        <time>2020-07-07T08:24:46.000Z</time>
      </trkpt>
      <trkpt lat="44.40861" lon="6.3834">
        <ele>2425</ele>
        <time>2020-07-07T08:24:47.000Z</time>
      </trkpt>
      <trkpt lat="44.40861" lon="6.3834">
        <ele>2425</ele>
        <time>2020-07-07T08:24:48.000Z</time>
      </trkpt>
      <trkpt lat="44.40861" lon="6.3834">
        <ele>2425</ele>
        <time>2020-07-07T08:24:49.000Z</time>
      </trkpt>
      <trkpt lat="44.40861" lon="6.3834">
        <ele>2425</ele>
        <time>2020-07-07T08:24:50.000Z</time>
      </trkpt>
      <trkpt lat="44.40861" lon="6.3834">
        <ele>2425</ele>
        <time>2020-07-07T08:24:51.000Z</time>
      </trkpt>
      <trkpt lat="44.40861" lon="6.3834">
        <ele>2425</ele>
        <time>2020-07-07T08:24:52.000Z</time>
      </trkpt>
      <trkpt lat="44.40861" lon="6.3834">
        <ele>2425</ele>
        <time>2020-07-07T08:24:53.000Z</time>
      </trkpt>
      <trkpt lat="44.40861" lon="6.3834">
        <ele>2425</ele>
        <time>2020-07-07T08:24:54.000Z</time>
      </trkpt>
      <trkpt lat="44.40861" lon="6.3834">
        <ele>2425</ele>
        <time>2020-07-07T08:24:55.000Z</time>
      </trkpt>
      <trkpt lat="44.4086" lon="6.3834">
        <ele>2425</ele>
        <time>2020-07-07T08:24:56.000Z</time>
      </trkpt>
      <trkpt lat="44.4086" lon="6.3834">
        <ele>2425</ele>
        <time>2020-07-07T08:24:57.000Z</time>
      </trkpt>
      <trkpt lat="44.40859" lon="6.3834">
        <ele>2425</ele>
        <time>2020-07-07T08:24:58.000Z</time>
      </trkpt>
      <trkpt lat="44.40858" lon="6.3834">
        <ele>2425</ele>
        <time>2020-07-07T08:24:59.000Z</time>
      </trkpt>
      <trkpt lat="44.40858" lon="6.38341">
        <ele>2426</ele>
        <time>2020-07-07T08:25:00.000Z</time>
      </trkpt>
      <trkpt lat="44.40857" lon="6.38341">
        <ele>2426</ele>
        <time>2020-07-07T08:25:01.000Z</time>
      </trkpt>
      <trkpt lat="44.40856" lon="6.38341">
        <ele>2426</ele>
        <time>2020-07-07T08:25:02.000Z</time>
      </trkpt>
      <trkpt lat="44.40855" lon="6.38341">
        <ele>2426</ele>
        <time>2020-07-07T08:25:03.000Z</time>
      </trkpt>
      <trkpt lat="44.40854" lon="6.38341">
        <ele>2426</ele>
        <time>2020-07-07T08:25:04.000Z</time>
      </trkpt>
      <trkpt lat="44.40853" lon="6.38342">
        <ele>2426</ele>
        <time>2020-07-07T08:25:05.000Z</time>
      </trkpt>
      <trkpt lat="44.40852" lon="6.38342">
        <ele>2426</ele>
        <time>2020-07-07T08:25:06.000Z</time>
      </trkpt>
      <trkpt lat="44.40851" lon="6.38342">
        <ele>2426</ele>
        <time>2020-07-07T08:25:07.000Z</time>
      </trkpt>
      <trkpt lat="44.40851" lon="6.38343">
        <ele>2426</ele>
        <time>2020-07-07T08:25:08.000Z</time>
      </trkpt>
      <trkpt lat="44.4085" lon="6.38343">
        <ele>2426</ele>
        <time>2020-07-07T08:25:09.000Z</time>
      </trkpt>
      <trkpt lat="44.40849" lon="6.38343">
        <ele>2427</ele>
        <time>2020-07-07T08:25:10.000Z</time>
      </trkpt>
      <trkpt lat="44.40848" lon="6.38344">
        <ele>2427</ele>
        <time>2020-07-07T08:25:11.000Z</time>
      </trkpt>
      <trkpt lat="44.40848" lon="6.38344">
        <ele>2427</ele>
        <time>2020-07-07T08:25:12.000Z</time>
      </trkpt>
      <trkpt lat="44.40848" lon="6.38345">
        <ele>2427</ele>
        <time>2020-07-07T08:25:13.000Z</time>
      </trkpt>
      <trkpt lat="44.40848" lon="6.38346">
        <ele>2427</ele>
        <time>2020-07-07T08:25:14.000Z</time>
      </trkpt>
      <trkpt lat="44.40847" lon="6.38347">
        <ele>2427</ele>
        <time>2020-07-07T08:25:15.000Z</time>
      </trkpt>
      <trkpt lat="44.40847" lon="6.38348">
        <ele>2427</ele>
        <time>2020-07-07T08:25:16.000Z</time>
      </trkpt>
      <trkpt lat="44.40847" lon="6.3835">
        <ele>2427</ele>
        <time>2020-07-07T08:25:17.000Z</time>
      </trkpt>
      <trkpt lat="44.40848" lon="6.38351">
        <ele>2427</ele>
        <time>2020-07-07T08:25:18.000Z</time>
      </trkpt>
      <trkpt lat="44.40848" lon="6.38353">
        <ele>2427</ele>
        <time>2020-07-07T08:25:19.000Z</time>
      </trkpt>
      <trkpt lat="44.40848" lon="6.38354">
        <ele>2427</ele>
        <time>2020-07-07T08:25:20.000Z</time>
      </trkpt>
      <trkpt lat="44.40848" lon="6.38355">
        <ele>2427</ele>
        <time>2020-07-07T08:25:21.000Z</time>
      </trkpt>
      <trkpt lat="44.40847" lon="6.38356">
        <ele>2427</ele>
        <time>2020-07-07T08:25:22.000Z</time>
      </trkpt>
      <trkpt lat="44.40847" lon="6.38358">
        <ele>2427</ele>
        <time>2020-07-07T08:25:23.000Z</time>
      </trkpt>
      <trkpt lat="44.40847" lon="6.3836">
        <ele>2427</ele>
        <time>2020-07-07T08:25:24.000Z</time>
      </trkpt>
      <trkpt lat="44.40848" lon="6.38361">
        <ele>2427</ele>
        <time>2020-07-07T08:25:25.000Z</time>
      </trkpt>
      <trkpt lat="44.40848" lon="6.38363">
        <ele>2427</ele>
        <time>2020-07-07T08:25:26.000Z</time>
      </trkpt>
      <trkpt lat="44.40848" lon="6.38364">
        <ele>2427</ele>
        <time>2020-07-07T08:25:27.000Z</time>
      </trkpt>
      <trkpt lat="44.40848" lon="6.38366">
        <ele>2427</ele>
        <time>2020-07-07T08:25:28.000Z</time>
      </trkpt>
      <trkpt lat="44.40848" lon="6.38367">
        <ele>2427</ele>
        <time>2020-07-07T08:25:29.000Z</time>
      </trkpt>
      <trkpt lat="44.40848" lon="6.38369">
        <ele>2427</ele>
        <time>2020-07-07T08:25:30.000Z</time>
      </trkpt>
      <trkpt lat="44.40848" lon="6.3837">
        <ele>2427</ele>
        <time>2020-07-07T08:25:31.000Z</time>
      </trkpt>
      <trkpt lat="44.40848" lon="6.38371">
        <ele>2427</ele>
        <time>2020-07-07T08:25:32.000Z</time>
      </trkpt>
      <trkpt lat="44.40848" lon="6.38372">
        <ele>2427</ele>
        <time>2020-07-07T08:25:33.000Z</time>
      </trkpt>
      <trkpt lat="44.40849" lon="6.38375">
        <ele>2428</ele>
        <time>2020-07-07T08:25:34.000Z</time>
      </trkpt>
      <trkpt lat="44.40849" lon="6.38376">
        <ele>2428</ele>
        <time>2020-07-07T08:25:35.000Z</time>
      </trkpt>
      <trkpt lat="44.4085" lon="6.38378">
        <ele>2428</ele>
        <time>2020-07-07T08:25:36.000Z</time>
      </trkpt>
      <trkpt lat="44.4085" lon="6.38379">
        <ele>2428</ele>
        <time>2020-07-07T08:25:37.000Z</time>
      </trkpt>
      <trkpt lat="44.4085" lon="6.3838">
        <ele>2428</ele>
        <time>2020-07-07T08:25:38.000Z</time>
      </trkpt>
      <trkpt lat="44.4085" lon="6.3838">
        <ele>2428</ele>
        <time>2020-07-07T08:25:39.000Z</time>
      </trkpt>
      <trkpt lat="44.40851" lon="6.38381">
        <ele>2428</ele>
        <time>2020-07-07T08:25:40.000Z</time>
      </trkpt>
      <trkpt lat="44.40852" lon="6.38382">
        <ele>2429</ele>
        <time>2020-07-07T08:25:41.000Z</time>
      </trkpt>
      <trkpt lat="44.40853" lon="6.38383">
        <ele>2429</ele>
        <time>2020-07-07T08:25:42.000Z</time>
      </trkpt>
      <trkpt lat="44.40854" lon="6.38384">
        <ele>2429</ele>
        <time>2020-07-07T08:25:43.000Z</time>
      </trkpt>
      <trkpt lat="44.40855" lon="6.38385">
        <ele>2429</ele>
        <time>2020-07-07T08:25:44.000Z</time>
      </trkpt>
      <trkpt lat="44.40855" lon="6.38386">
        <ele>2429</ele>
        <time>2020-07-07T08:25:45.000Z</time>
      </trkpt>
      <trkpt lat="44.40857" lon="6.38388">
        <ele>2429</ele>
        <time>2020-07-07T08:25:46.000Z</time>
      </trkpt>
      <trkpt lat="44.40857" lon="6.38388">
        <ele>2429</ele>
        <time>2020-07-07T08:25:47.000Z</time>
      </trkpt>
      <trkpt lat="44.40857" lon="6.38389">
        <ele>2429</ele>
        <time>2020-07-07T08:25:48.000Z</time>
      </trkpt>
      <trkpt lat="44.40858" lon="6.3839">
        <ele>2429</ele>
        <time>2020-07-07T08:25:49.000Z</time>
      </trkpt>
      <trkpt lat="44.40858" lon="6.38392">
        <ele>2429</ele>
        <time>2020-07-07T08:25:50.000Z</time>
      </trkpt>
      <trkpt lat="44.40858" lon="6.38393">
        <ele>2429</ele>
        <time>2020-07-07T08:25:51.000Z</time>
      </trkpt>
      <trkpt lat="44.40859" lon="6.38394">
        <ele>2429</ele>
        <time>2020-07-07T08:25:52.000Z</time>
      </trkpt>
      <trkpt lat="44.40859" lon="6.38395">
        <ele>2429</ele>
        <time>2020-07-07T08:25:53.000Z</time>
      </trkpt>
      <trkpt lat="44.4086" lon="6.38396">
        <ele>2429</ele>
        <time>2020-07-07T08:25:54.000Z</time>
      </trkpt>
      <trkpt lat="44.4086" lon="6.38397">
        <ele>2429</ele>
        <time>2020-07-07T08:25:55.000Z</time>
      </trkpt>
      <trkpt lat="44.4086" lon="6.38398">
        <ele>2429</ele>
        <time>2020-07-07T08:25:56.000Z</time>
      </trkpt>
      <trkpt lat="44.4086" lon="6.384">
        <ele>2429</ele>
        <time>2020-07-07T08:25:57.000Z</time>
      </trkpt>
      <trkpt lat="44.4086" lon="6.38401">
        <ele>2429</ele>
        <time>2020-07-07T08:25:58.000Z</time>
      </trkpt>
      <trkpt lat="44.40861" lon="6.38402">
        <ele>2430</ele>
        <time>2020-07-07T08:25:59.000Z</time>
      </trkpt>
      <trkpt lat="44.40861" lon="6.38403">
        <ele>2430</ele>
        <time>2020-07-07T08:26:00.000Z</time>
      </trkpt>
      <trkpt lat="44.40862" lon="6.38403">
        <ele>2430</ele>
        <time>2020-07-07T08:26:01.000Z</time>
      </trkpt>
      <trkpt lat="44.40862" lon="6.38404">
        <ele>2430</ele>
        <time>2020-07-07T08:26:02.000Z</time>
      </trkpt>
      <trkpt lat="44.40863" lon="6.38405">
        <ele>2430</ele>
        <time>2020-07-07T08:26:03.000Z</time>
      </trkpt>
      <trkpt lat="44.40863" lon="6.38406">
        <ele>2430</ele>
        <time>2020-07-07T08:26:04.000Z</time>
      </trkpt>
      <trkpt lat="44.40865" lon="6.38408">
        <ele>2430</ele>
        <time>2020-07-07T08:26:05.000Z</time>
      </trkpt>
      <trkpt lat="44.40865" lon="6.38408">
        <ele>2430</ele>
        <time>2020-07-07T08:26:06.000Z</time>
      </trkpt>
      <trkpt lat="44.40866" lon="6.38409">
        <ele>2430</ele>
        <time>2020-07-07T08:26:07.000Z</time>
      </trkpt>
      <trkpt lat="44.40866" lon="6.3841">
        <ele>2430</ele>
        <time>2020-07-07T08:26:08.000Z</time>
      </trkpt>
      <trkpt lat="44.40867" lon="6.3841">
        <ele>2430</ele>
        <time>2020-07-07T08:26:09.000Z</time>
      </trkpt>
      <trkpt lat="44.40868" lon="6.38411">
        <ele>2430</ele>
        <time>2020-07-07T08:26:10.000Z</time>
      </trkpt>
      <trkpt lat="44.40868" lon="6.38412">
        <ele>2430</ele>
        <time>2020-07-07T08:26:11.000Z</time>
      </trkpt>
      <trkpt lat="44.40869" lon="6.38413">
        <ele>2430</ele>
        <time>2020-07-07T08:26:12.000Z</time>
      </trkpt>
      <trkpt lat="44.40869" lon="6.38414">
        <ele>2430</ele>
        <time>2020-07-07T08:26:13.000Z</time>
      </trkpt>
      <trkpt lat="44.4087" lon="6.38415">
        <ele>2431</ele>
        <time>2020-07-07T08:26:14.000Z</time>
      </trkpt>
      <trkpt lat="44.4087" lon="6.38416">
        <ele>2431</ele>
        <time>2020-07-07T08:26:15.000Z</time>
      </trkpt>
      <trkpt lat="44.40871" lon="6.38416">
        <ele>2431</ele>
        <time>2020-07-07T08:26:16.000Z</time>
      </trkpt>
      <trkpt lat="44.40872" lon="6.38417">
        <ele>2431</ele>
        <time>2020-07-07T08:26:17.000Z</time>
      </trkpt>
      <trkpt lat="44.40873" lon="6.38418">
        <ele>2432</ele>
        <time>2020-07-07T08:26:18.000Z</time>
      </trkpt>
      <trkpt lat="44.40874" lon="6.38418">
        <ele>2432</ele>
        <time>2020-07-07T08:26:19.000Z</time>
      </trkpt>
      <trkpt lat="44.40874" lon="6.38419">
        <ele>2432</ele>
        <time>2020-07-07T08:26:20.000Z</time>
      </trkpt>
      <trkpt lat="44.40875" lon="6.3842">
        <ele>2432</ele>
        <time>2020-07-07T08:26:21.000Z</time>
      </trkpt>
      <trkpt lat="44.40876" lon="6.3842">
        <ele>2432</ele>
        <time>2020-07-07T08:26:22.000Z</time>
      </trkpt>
      <trkpt lat="44.40876" lon="6.3842">
        <ele>2432</ele>
        <time>2020-07-07T08:26:23.000Z</time>
      </trkpt>
      <trkpt lat="44.40877" lon="6.3842">
        <ele>2433</ele>
        <time>2020-07-07T08:26:24.000Z</time>
      </trkpt>
      <trkpt lat="44.40878" lon="6.3842">
        <ele>2433</ele>
        <time>2020-07-07T08:26:25.000Z</time>
      </trkpt>
      <trkpt lat="44.40878" lon="6.38421">
        <ele>2433</ele>
        <time>2020-07-07T08:26:26.000Z</time>
      </trkpt>
      <trkpt lat="44.40879" lon="6.38423">
        <ele>2433</ele>
        <time>2020-07-07T08:26:27.000Z</time>
      </trkpt>
      <trkpt lat="44.40879" lon="6.38423">
        <ele>2433</ele>
        <time>2020-07-07T08:26:28.000Z</time>
      </trkpt>
      <trkpt lat="44.4088" lon="6.38424">
        <ele>2434</ele>
        <time>2020-07-07T08:26:29.000Z</time>
      </trkpt>
      <trkpt lat="44.40881" lon="6.38425">
        <ele>2434</ele>
        <time>2020-07-07T08:26:30.000Z</time>
      </trkpt>
      <trkpt lat="44.4088" lon="6.38426">
        <ele>2434</ele>
        <time>2020-07-07T08:26:31.000Z</time>
      </trkpt>
      <trkpt lat="44.4088" lon="6.38426">
        <ele>2434</ele>
        <time>2020-07-07T08:26:32.000Z</time>
      </trkpt>
      <trkpt lat="44.4088" lon="6.38427">
        <ele>2434</ele>
        <time>2020-07-07T08:26:33.000Z</time>
      </trkpt>
      <trkpt lat="44.40879" lon="6.38427">
        <ele>2434</ele>
        <time>2020-07-07T08:26:34.000Z</time>
      </trkpt>
      <trkpt lat="44.40879" lon="6.38427">
        <ele>2434</ele>
        <time>2020-07-07T08:26:35.000Z</time>
      </trkpt>
      <trkpt lat="44.40878" lon="6.38427">
        <ele>2434</ele>
        <time>2020-07-07T08:26:36.000Z</time>
      </trkpt>
      <trkpt lat="44.40878" lon="6.38427">
        <ele>2434</ele>
        <time>2020-07-07T08:26:37.000Z</time>
      </trkpt>
      <trkpt lat="44.40878" lon="6.38427">
        <ele>2435</ele>
        <time>2020-07-07T08:26:38.000Z</time>
      </trkpt>
      <trkpt lat="44.40878" lon="6.38427">
        <ele>2435</ele>
        <time>2020-07-07T08:26:39.000Z</time>
      </trkpt>
      <trkpt lat="44.40877" lon="6.38427">
        <ele>2435</ele>
        <time>2020-07-07T08:26:40.000Z</time>
      </trkpt>
      <trkpt lat="44.40877" lon="6.38427">
        <ele>2435</ele>
        <time>2020-07-07T08:26:41.000Z</time>
      </trkpt>
      <trkpt lat="44.40877" lon="6.38427">
        <ele>2435</ele>
        <time>2020-07-07T08:26:42.000Z</time>
      </trkpt>
      <trkpt lat="44.40877" lon="6.38427">
        <ele>2435</ele>
        <time>2020-07-07T08:26:43.000Z</time>
      </trkpt>
      <trkpt lat="44.40877" lon="6.38427">
        <ele>2435</ele>
        <time>2020-07-07T08:26:44.000Z</time>
      </trkpt>
      <trkpt lat="44.40877" lon="6.38427">
        <ele>2435</ele>
        <time>2020-07-07T08:26:45.000Z</time>
      </trkpt>
      <trkpt lat="44.40877" lon="6.38427">
        <ele>2435</ele>
        <time>2020-07-07T08:26:46.000Z</time>
      </trkpt>
      <trkpt lat="44.40877" lon="6.38427">
        <ele>2435</ele>
        <time>2020-07-07T08:26:47.000Z</time>
      </trkpt>
      <trkpt lat="44.40876" lon="6.38427">
        <ele>2435</ele>
        <time>2020-07-07T08:26:48.000Z</time>
      </trkpt>
      <trkpt lat="44.40876" lon="6.38427">
        <ele>2435</ele>
        <time>2020-07-07T08:26:49.000Z</time>
      </trkpt>
      <trkpt lat="44.40876" lon="6.38427">
        <ele>2435</ele>
        <time>2020-07-07T08:26:50.000Z</time>
      </trkpt>
      <trkpt lat="44.40876" lon="6.38426">
        <ele>2435</ele>
        <time>2020-07-07T08:26:51.000Z</time>
      </trkpt>
      <trkpt lat="44.40876" lon="6.38426">
        <ele>2435</ele>
        <time>2020-07-07T08:26:52.000Z</time>
      </trkpt>
      <trkpt lat="44.40876" lon="6.38426">
        <ele>2435</ele>
        <time>2020-07-07T08:26:53.000Z</time>
      </trkpt>
      <trkpt lat="44.40876" lon="6.38426">
        <ele>2435</ele>
        <time>2020-07-07T08:26:54.000Z</time>
      </trkpt>
      <trkpt lat="44.40876" lon="6.38426">
        <ele>2435</ele>
        <time>2020-07-07T08:26:55.000Z</time>
      </trkpt>
      <trkpt lat="44.40876" lon="6.38426">
        <ele>2435</ele>
        <time>2020-07-07T08:26:56.000Z</time>
      </trkpt>
      <trkpt lat="44.40876" lon="6.38425">
        <ele>2435</ele>
        <time>2020-07-07T08:26:57.000Z</time>
      </trkpt>
      <trkpt lat="44.40876" lon="6.38424">
        <ele>2435</ele>
        <time>2020-07-07T08:26:58.000Z</time>
      </trkpt>
      <trkpt lat="44.40877" lon="6.38424">
        <ele>2435</ele>
        <time>2020-07-07T08:26:59.000Z</time>
      </trkpt>
      <trkpt lat="44.40877" lon="6.38424">
        <ele>2435</ele>
        <time>2020-07-07T08:27:00.000Z</time>
      </trkpt>
      <trkpt lat="44.40878" lon="6.38424">
        <ele>2435</ele>
        <time>2020-07-07T08:27:01.000Z</time>
      </trkpt>
      <trkpt lat="44.40878" lon="6.38424">
        <ele>2435</ele>
        <time>2020-07-07T08:27:02.000Z</time>
      </trkpt>
      <trkpt lat="44.40879" lon="6.38425">
        <ele>2435</ele>
        <time>2020-07-07T08:27:03.000Z</time>
      </trkpt>
      <trkpt lat="44.4088" lon="6.38425">
        <ele>2435</ele>
        <time>2020-07-07T08:27:04.000Z</time>
      </trkpt>
      <trkpt lat="44.40881" lon="6.38426">
        <ele>2435</ele>
        <time>2020-07-07T08:27:05.000Z</time>
      </trkpt>
      <trkpt lat="44.40882" lon="6.38427">
        <ele>2435</ele>
        <time>2020-07-07T08:27:06.000Z</time>
      </trkpt>
      <trkpt lat="44.40882" lon="6.38427">
        <ele>2436</ele>
        <time>2020-07-07T08:27:07.000Z</time>
      </trkpt>
      <trkpt lat="44.40883" lon="6.38427">
        <ele>2436</ele>
        <time>2020-07-07T08:27:08.000Z</time>
      </trkpt>
      <trkpt lat="44.40884" lon="6.38428">
        <ele>2436</ele>
        <time>2020-07-07T08:27:09.000Z</time>
      </trkpt>
      <trkpt lat="44.40884" lon="6.38429">
        <ele>2436</ele>
        <time>2020-07-07T08:27:10.000Z</time>
      </trkpt>
      <trkpt lat="44.40885" lon="6.38431">
        <ele>2436</ele>
        <time>2020-07-07T08:27:11.000Z</time>
      </trkpt>
      <trkpt lat="44.40885" lon="6.38431">
        <ele>2436</ele>
        <time>2020-07-07T08:27:12.000Z</time>
      </trkpt>
      <trkpt lat="44.40886" lon="6.38432">
        <ele>2436</ele>
        <time>2020-07-07T08:27:13.000Z</time>
      </trkpt>
      <trkpt lat="44.40886" lon="6.38433">
        <ele>2436</ele>
        <time>2020-07-07T08:27:14.000Z</time>
      </trkpt>
      <trkpt lat="44.40886" lon="6.38433">
        <ele>2436</ele>
        <time>2020-07-07T08:27:15.000Z</time>
      </trkpt>
      <trkpt lat="44.40887" lon="6.38433">
        <ele>2436</ele>
        <time>2020-07-07T08:27:16.000Z</time>
      </trkpt>
      <trkpt lat="44.40887" lon="6.38434">
        <ele>2436</ele>
        <time>2020-07-07T08:27:17.000Z</time>
      </trkpt>
      <trkpt lat="44.40888" lon="6.38435">
        <ele>2436</ele>
        <time>2020-07-07T08:27:18.000Z</time>
      </trkpt>
      <trkpt lat="44.40889" lon="6.38436">
        <ele>2437</ele>
        <time>2020-07-07T08:27:19.000Z</time>
      </trkpt>
      <trkpt lat="44.40889" lon="6.38437">
        <ele>2437</ele>
        <time>2020-07-07T08:27:20.000Z</time>
      </trkpt>
      <trkpt lat="44.4089" lon="6.38437">
        <ele>2437</ele>
        <time>2020-07-07T08:27:21.000Z</time>
      </trkpt>
      <trkpt lat="44.40891" lon="6.38438">
        <ele>2437</ele>
        <time>2020-07-07T08:27:22.000Z</time>
      </trkpt>
      <trkpt lat="44.40892" lon="6.38439">
        <ele>2437</ele>
        <time>2020-07-07T08:27:23.000Z</time>
      </trkpt>
      <trkpt lat="44.40892" lon="6.3844">
        <ele>2437</ele>
        <time>2020-07-07T08:27:24.000Z</time>
      </trkpt>
      <trkpt lat="44.40894" lon="6.38441">
        <ele>2437</ele>
        <time>2020-07-07T08:27:25.000Z</time>
      </trkpt>
      <trkpt lat="44.40894" lon="6.38441">
        <ele>2438</ele>
        <time>2020-07-07T08:27:26.000Z</time>
      </trkpt>
      <trkpt lat="44.40895" lon="6.38442">
        <ele>2438</ele>
        <time>2020-07-07T08:27:27.000Z</time>
      </trkpt>
      <trkpt lat="44.40896" lon="6.38443">
        <ele>2438</ele>
        <time>2020-07-07T08:27:28.000Z</time>
      </trkpt>
      <trkpt lat="44.40896" lon="6.38443">
        <ele>2438</ele>
        <time>2020-07-07T08:27:29.000Z</time>
      </trkpt>
      <trkpt lat="44.40897" lon="6.38444">
        <ele>2438</ele>
        <time>2020-07-07T08:27:30.000Z</time>
      </trkpt>
      <trkpt lat="44.40897" lon="6.38445">
        <ele>2438</ele>
        <time>2020-07-07T08:27:31.000Z</time>
      </trkpt>
      <trkpt lat="44.40898" lon="6.38445">
        <ele>2438</ele>
        <time>2020-07-07T08:27:32.000Z</time>
      </trkpt>
      <trkpt lat="44.40899" lon="6.38446">
        <ele>2438</ele>
        <time>2020-07-07T08:27:33.000Z</time>
      </trkpt>
      <trkpt lat="44.409" lon="6.38447">
        <ele>2438</ele>
        <time>2020-07-07T08:27:34.000Z</time>
      </trkpt>
      <trkpt lat="44.40901" lon="6.38447">
        <ele>2438</ele>
        <time>2020-07-07T08:27:35.000Z</time>
      </trkpt>
      <trkpt lat="44.40902" lon="6.38448">
        <ele>2438</ele>
        <time>2020-07-07T08:27:36.000Z</time>
      </trkpt>
      <trkpt lat="44.40903" lon="6.38449">
        <ele>2439</ele>
        <time>2020-07-07T08:27:37.000Z</time>
      </trkpt>
      <trkpt lat="44.40905" lon="6.3845">
        <ele>2439</ele>
        <time>2020-07-07T08:27:38.000Z</time>
      </trkpt>
      <trkpt lat="44.40905" lon="6.3845">
        <ele>2439</ele>
        <time>2020-07-07T08:27:39.000Z</time>
      </trkpt>
      <trkpt lat="44.40905" lon="6.3845">
        <ele>2439</ele>
        <time>2020-07-07T08:27:40.000Z</time>
      </trkpt>
      <trkpt lat="44.40907" lon="6.38451">
        <ele>2439</ele>
        <time>2020-07-07T08:27:41.000Z</time>
      </trkpt>
      <trkpt lat="44.40908" lon="6.38451">
        <ele>2439</ele>
        <time>2020-07-07T08:27:42.000Z</time>
      </trkpt>
      <trkpt lat="44.40908" lon="6.38451">
        <ele>2439</ele>
        <time>2020-07-07T08:27:43.000Z</time>
      </trkpt>
      <trkpt lat="44.40909" lon="6.38452">
        <ele>2439</ele>
        <time>2020-07-07T08:27:44.000Z</time>
      </trkpt>
      <trkpt lat="44.4091" lon="6.38453">
        <ele>2440</ele>
        <time>2020-07-07T08:27:45.000Z</time>
      </trkpt>
      <trkpt lat="44.40911" lon="6.38453">
        <ele>2440</ele>
        <time>2020-07-07T08:27:46.000Z</time>
      </trkpt>
      <trkpt lat="44.40912" lon="6.38454">
        <ele>2440</ele>
        <time>2020-07-07T08:27:47.000Z</time>
      </trkpt>
      <trkpt lat="44.40912" lon="6.38455">
        <ele>2440</ele>
        <time>2020-07-07T08:27:48.000Z</time>
      </trkpt>
      <trkpt lat="44.40913" lon="6.38456">
        <ele>2440</ele>
        <time>2020-07-07T08:27:49.000Z</time>
      </trkpt>
      <trkpt lat="44.40914" lon="6.38456">
        <ele>2440</ele>
        <time>2020-07-07T08:27:50.000Z</time>
      </trkpt>
      <trkpt lat="44.40915" lon="6.38457">
        <ele>2440</ele>
        <time>2020-07-07T08:27:51.000Z</time>
      </trkpt>
      <trkpt lat="44.40915" lon="6.38457">
        <ele>2440</ele>
        <time>2020-07-07T08:27:52.000Z</time>
      </trkpt>
      <trkpt lat="44.40916" lon="6.38458">
        <ele>2440</ele>
        <time>2020-07-07T08:27:53.000Z</time>
      </trkpt>
      <trkpt lat="44.40917" lon="6.38459">
        <ele>2440</ele>
        <time>2020-07-07T08:27:54.000Z</time>
      </trkpt>
      <trkpt lat="44.40917" lon="6.38459">
        <ele>2440</ele>
        <time>2020-07-07T08:27:55.000Z</time>
      </trkpt>
      <trkpt lat="44.40918" lon="6.38459">
        <ele>2440</ele>
        <time>2020-07-07T08:27:56.000Z</time>
      </trkpt>
      <trkpt lat="44.40919" lon="6.38459">
        <ele>2440</ele>
        <time>2020-07-07T08:27:57.000Z</time>
      </trkpt>
      <trkpt lat="44.4092" lon="6.3846">
        <ele>2441</ele>
        <time>2020-07-07T08:27:58.000Z</time>
      </trkpt>
      <trkpt lat="44.4092" lon="6.3846">
        <ele>2441</ele>
        <time>2020-07-07T08:27:59.000Z</time>
      </trkpt>
      <trkpt lat="44.40921" lon="6.38461">
        <ele>2441</ele>
        <time>2020-07-07T08:28:00.000Z</time>
      </trkpt>
      <trkpt lat="44.40922" lon="6.38462">
        <ele>2441</ele>
        <time>2020-07-07T08:28:01.000Z</time>
      </trkpt>
      <trkpt lat="44.40923" lon="6.38462">
        <ele>2441</ele>
        <time>2020-07-07T08:28:02.000Z</time>
      </trkpt>
      <trkpt lat="44.40923" lon="6.38463">
        <ele>2441</ele>
        <time>2020-07-07T08:28:03.000Z</time>
      </trkpt>
      <trkpt lat="44.40925" lon="6.38463">
        <ele>2441</ele>
        <time>2020-07-07T08:28:04.000Z</time>
      </trkpt>
      <trkpt lat="44.40925" lon="6.38464">
        <ele>2441</ele>
        <time>2020-07-07T08:28:05.000Z</time>
      </trkpt>
      <trkpt lat="44.40926" lon="6.38464">
        <ele>2441</ele>
        <time>2020-07-07T08:28:06.000Z</time>
      </trkpt>
      <trkpt lat="44.40927" lon="6.38465">
        <ele>2441</ele>
        <time>2020-07-07T08:28:07.000Z</time>
      </trkpt>
      <trkpt lat="44.40928" lon="6.38465">
        <ele>2441</ele>
        <time>2020-07-07T08:28:08.000Z</time>
      </trkpt>
      <trkpt lat="44.4093" lon="6.38466">
        <ele>2441</ele>
        <time>2020-07-07T08:28:09.000Z</time>
      </trkpt>
      <trkpt lat="44.4093" lon="6.38466">
        <ele>2441</ele>
        <time>2020-07-07T08:28:10.000Z</time>
      </trkpt>
      <trkpt lat="44.40931" lon="6.38466">
        <ele>2441</ele>
        <time>2020-07-07T08:28:11.000Z</time>
      </trkpt>
      <trkpt lat="44.40932" lon="6.38467">
        <ele>2441</ele>
        <time>2020-07-07T08:28:12.000Z</time>
      </trkpt>
      <trkpt lat="44.40932" lon="6.38467">
        <ele>2441</ele>
        <time>2020-07-07T08:28:13.000Z</time>
      </trkpt>
      <trkpt lat="44.40933" lon="6.38467">
        <ele>2441</ele>
        <time>2020-07-07T08:28:14.000Z</time>
      </trkpt>
      <trkpt lat="44.40934" lon="6.38467">
        <ele>2441</ele>
        <time>2020-07-07T08:28:15.000Z</time>
      </trkpt>
      <trkpt lat="44.40935" lon="6.38467">
        <ele>2441</ele>
        <time>2020-07-07T08:28:16.000Z</time>
      </trkpt>
      <trkpt lat="44.40936" lon="6.38467">
        <ele>2441</ele>
        <time>2020-07-07T08:28:17.000Z</time>
      </trkpt>
      <trkpt lat="44.40936" lon="6.38467">
        <ele>2441</ele>
        <time>2020-07-07T08:28:18.000Z</time>
      </trkpt>
      <trkpt lat="44.40937" lon="6.38468">
        <ele>2441</ele>
        <time>2020-07-07T08:28:19.000Z</time>
      </trkpt>
      <trkpt lat="44.40938" lon="6.38468">
        <ele>2441</ele>
        <time>2020-07-07T08:28:20.000Z</time>
      </trkpt>
      <trkpt lat="44.40939" lon="6.38468">
        <ele>2441</ele>
        <time>2020-07-07T08:28:21.000Z</time>
      </trkpt>
      <trkpt lat="44.4094" lon="6.38469">
        <ele>2441</ele>
        <time>2020-07-07T08:28:22.000Z</time>
      </trkpt>
      <trkpt lat="44.40941" lon="6.38469">
        <ele>2442</ele>
        <time>2020-07-07T08:28:23.000Z</time>
      </trkpt>
      <trkpt lat="44.40942" lon="6.38469">
        <ele>2442</ele>
        <time>2020-07-07T08:28:24.000Z</time>
      </trkpt>
      <trkpt lat="44.40942" lon="6.38469">
        <ele>2442</ele>
        <time>2020-07-07T08:28:25.000Z</time>
      </trkpt>
      <trkpt lat="44.40943" lon="6.38469">
        <ele>2442</ele>
        <time>2020-07-07T08:28:26.000Z</time>
      </trkpt>
      <trkpt lat="44.40944" lon="6.38469">
        <ele>2442</ele>
        <time>2020-07-07T08:28:27.000Z</time>
      </trkpt>
      <trkpt lat="44.40945" lon="6.38469">
        <ele>2442</ele>
        <time>2020-07-07T08:28:28.000Z</time>
      </trkpt>
      <trkpt lat="44.40946" lon="6.38469">
        <ele>2443</ele>
        <time>2020-07-07T08:28:29.000Z</time>
      </trkpt>
      <trkpt lat="44.40946" lon="6.38469">
        <ele>2443</ele>
        <time>2020-07-07T08:28:30.000Z</time>
      </trkpt>
      <trkpt lat="44.40947" lon="6.38469">
        <ele>2443</ele>
        <time>2020-07-07T08:28:31.000Z</time>
      </trkpt>
      <trkpt lat="44.40948" lon="6.38468">
        <ele>2443</ele>
        <time>2020-07-07T08:28:32.000Z</time>
      </trkpt>
      <trkpt lat="44.40949" lon="6.38468">
        <ele>2443</ele>
        <time>2020-07-07T08:28:33.000Z</time>
      </trkpt>
      <trkpt lat="44.4095" lon="6.38468">
        <ele>2444</ele>
        <time>2020-07-07T08:28:34.000Z</time>
      </trkpt>
      <trkpt lat="44.40951" lon="6.38468">
        <ele>2444</ele>
        <time>2020-07-07T08:28:35.000Z</time>
      </trkpt>
      <trkpt lat="44.40952" lon="6.38468">
        <ele>2444</ele>
        <time>2020-07-07T08:28:36.000Z</time>
      </trkpt>
      <trkpt lat="44.40952" lon="6.38468">
        <ele>2444</ele>
        <time>2020-07-07T08:28:37.000Z</time>
      </trkpt>
      <trkpt lat="44.40953" lon="6.38468">
        <ele>2444</ele>
        <time>2020-07-07T08:28:38.000Z</time>
      </trkpt>
      <trkpt lat="44.40954" lon="6.38468">
        <ele>2444</ele>
        <time>2020-07-07T08:28:39.000Z</time>
      </trkpt>
      <trkpt lat="44.40955" lon="6.38468">
        <ele>2444</ele>
        <time>2020-07-07T08:28:40.000Z</time>
      </trkpt>
      <trkpt lat="44.40956" lon="6.38467">
        <ele>2444</ele>
        <time>2020-07-07T08:28:41.000Z</time>
      </trkpt>
      <trkpt lat="44.40956" lon="6.38467">
        <ele>2444</ele>
        <time>2020-07-07T08:28:42.000Z</time>
      </trkpt>
      <trkpt lat="44.40957" lon="6.38467">
        <ele>2445</ele>
        <time>2020-07-07T08:28:43.000Z</time>
      </trkpt>
      <trkpt lat="44.40958" lon="6.38466">
        <ele>2445</ele>
        <time>2020-07-07T08:28:44.000Z</time>
      </trkpt>
      <trkpt lat="44.40958" lon="6.38466">
        <ele>2445</ele>
        <time>2020-07-07T08:28:45.000Z</time>
      </trkpt>
      <trkpt lat="44.40959" lon="6.38465">
        <ele>2445</ele>
        <time>2020-07-07T08:28:46.000Z</time>
      </trkpt>
      <trkpt lat="44.4096" lon="6.38465">
        <ele>2445</ele>
        <time>2020-07-07T08:28:47.000Z</time>
      </trkpt>
      <trkpt lat="44.4096" lon="6.38465">
        <ele>2445</ele>
        <time>2020-07-07T08:28:48.000Z</time>
      </trkpt>
      <trkpt lat="44.40961" lon="6.38464">
        <ele>2446</ele>
        <time>2020-07-07T08:28:49.000Z</time>
      </trkpt>
      <trkpt lat="44.40961" lon="6.38464">
        <ele>2446</ele>
        <time>2020-07-07T08:28:50.000Z</time>
      </trkpt>
      <trkpt lat="44.40962" lon="6.38463">
        <ele>2446</ele>
        <time>2020-07-07T08:28:51.000Z</time>
      </trkpt>
      <trkpt lat="44.40963" lon="6.38462">
        <ele>2446</ele>
        <time>2020-07-07T08:28:52.000Z</time>
      </trkpt>
      <trkpt lat="44.40964" lon="6.38462">
        <ele>2446</ele>
        <time>2020-07-07T08:28:53.000Z</time>
      </trkpt>
      <trkpt lat="44.40964" lon="6.38462">
        <ele>2446</ele>
        <time>2020-07-07T08:28:54.000Z</time>
      </trkpt>
      <trkpt lat="44.40965" lon="6.38462">
        <ele>2446</ele>
        <time>2020-07-07T08:28:55.000Z</time>
      </trkpt>
      <trkpt lat="44.40966" lon="6.38462">
        <ele>2447</ele>
        <time>2020-07-07T08:28:56.000Z</time>
      </trkpt>
      <trkpt lat="44.40967" lon="6.38462">
        <ele>2447</ele>
        <time>2020-07-07T08:28:57.000Z</time>
      </trkpt>
      <trkpt lat="44.40967" lon="6.38462">
        <ele>2447</ele>
        <time>2020-07-07T08:28:58.000Z</time>
      </trkpt>
      <trkpt lat="44.40968" lon="6.38462">
        <ele>2447</ele>
        <time>2020-07-07T08:28:59.000Z</time>
      </trkpt>
      <trkpt lat="44.40969" lon="6.38462">
        <ele>2447</ele>
        <time>2020-07-07T08:29:00.000Z</time>
      </trkpt>
      <trkpt lat="44.4097" lon="6.38462">
        <ele>2447</ele>
        <time>2020-07-07T08:29:01.000Z</time>
      </trkpt>
      <trkpt lat="44.40971" lon="6.38462">
        <ele>2447</ele>
        <time>2020-07-07T08:29:02.000Z</time>
      </trkpt>
      <trkpt lat="44.40972" lon="6.38461">
        <ele>2447</ele>
        <time>2020-07-07T08:29:03.000Z</time>
      </trkpt>
      <trkpt lat="44.40972" lon="6.38461">
        <ele>2447</ele>
        <time>2020-07-07T08:29:04.000Z</time>
      </trkpt>
      <trkpt lat="44.40973" lon="6.38461">
        <ele>2447</ele>
        <time>2020-07-07T08:29:05.000Z</time>
      </trkpt>
      <trkpt lat="44.40974" lon="6.38461">
        <ele>2447</ele>
        <time>2020-07-07T08:29:06.000Z</time>
      </trkpt>
      <trkpt lat="44.40975" lon="6.38461">
        <ele>2448</ele>
        <time>2020-07-07T08:29:07.000Z</time>
      </trkpt>
      <trkpt lat="44.40975" lon="6.38461">
        <ele>2448</ele>
        <time>2020-07-07T08:29:08.000Z</time>
      </trkpt>
      <trkpt lat="44.40976" lon="6.38461">
        <ele>2448</ele>
        <time>2020-07-07T08:29:09.000Z</time>
      </trkpt>
      <trkpt lat="44.40977" lon="6.38461">
        <ele>2448</ele>
        <time>2020-07-07T08:29:10.000Z</time>
      </trkpt>
      <trkpt lat="44.40978" lon="6.38461">
        <ele>2448</ele>
        <time>2020-07-07T08:29:11.000Z</time>
      </trkpt>
      <trkpt lat="44.40979" lon="6.38461">
        <ele>2448</ele>
        <time>2020-07-07T08:29:12.000Z</time>
      </trkpt>
      <trkpt lat="44.4098" lon="6.3846">
        <ele>2448</ele>
        <time>2020-07-07T08:29:13.000Z</time>
      </trkpt>
      <trkpt lat="44.4098" lon="6.3846">
        <ele>2448</ele>
        <time>2020-07-07T08:29:14.000Z</time>
      </trkpt>
      <trkpt lat="44.40981" lon="6.38461">
        <ele>2448</ele>
        <time>2020-07-07T08:29:15.000Z</time>
      </trkpt>
      <trkpt lat="44.40982" lon="6.3846">
        <ele>2448</ele>
        <time>2020-07-07T08:29:16.000Z</time>
      </trkpt>
      <trkpt lat="44.40983" lon="6.3846">
        <ele>2448</ele>
        <time>2020-07-07T08:29:17.000Z</time>
      </trkpt>
      <trkpt lat="44.40984" lon="6.3846">
        <ele>2448</ele>
        <time>2020-07-07T08:29:18.000Z</time>
      </trkpt>
      <trkpt lat="44.40985" lon="6.3846">
        <ele>2448</ele>
        <time>2020-07-07T08:29:19.000Z</time>
      </trkpt>
      <trkpt lat="44.40986" lon="6.3846">
        <ele>2448</ele>
        <time>2020-07-07T08:29:20.000Z</time>
      </trkpt>
      <trkpt lat="44.40987" lon="6.3846">
        <ele>2448</ele>
        <time>2020-07-07T08:29:21.000Z</time>
      </trkpt>
      <trkpt lat="44.40987" lon="6.3846">
        <ele>2448</ele>
        <time>2020-07-07T08:29:22.000Z</time>
      </trkpt>
      <trkpt lat="44.40988" lon="6.3846">
        <ele>2448</ele>
        <time>2020-07-07T08:29:23.000Z</time>
      </trkpt>
      <trkpt lat="44.40989" lon="6.38459">
        <ele>2449</ele>
        <time>2020-07-07T08:29:24.000Z</time>
      </trkpt>
      <trkpt lat="44.40989" lon="6.38459">
        <ele>2449</ele>
        <time>2020-07-07T08:29:25.000Z</time>
      </trkpt>
      <trkpt lat="44.4099" lon="6.38459">
        <ele>2449</ele>
        <time>2020-07-07T08:29:26.000Z</time>
      </trkpt>
      <trkpt lat="44.4099" lon="6.38459">
        <ele>2449</ele>
        <time>2020-07-07T08:29:27.000Z</time>
      </trkpt>
      <trkpt lat="44.4099" lon="6.38459">
        <ele>2449</ele>
        <time>2020-07-07T08:29:28.000Z</time>
      </trkpt>
      <trkpt lat="44.4099" lon="6.38459">
        <ele>2449</ele>
        <time>2020-07-07T08:29:29.000Z</time>
      </trkpt>
      <trkpt lat="44.40991" lon="6.38459">
        <ele>2449</ele>
        <time>2020-07-07T08:29:30.000Z</time>
      </trkpt>
      <trkpt lat="44.40991" lon="6.38459">
        <ele>2449</ele>
        <time>2020-07-07T08:29:31.000Z</time>
      </trkpt>
      <trkpt lat="44.40991" lon="6.38459">
        <ele>2449</ele>
        <time>2020-07-07T08:29:32.000Z</time>
      </trkpt>
      <trkpt lat="44.40991" lon="6.38459">
        <ele>2449</ele>
        <time>2020-07-07T08:29:33.000Z</time>
      </trkpt>
      <trkpt lat="44.40991" lon="6.38459">
        <ele>2449</ele>
        <time>2020-07-07T08:29:34.000Z</time>
      </trkpt>
      <trkpt lat="44.40991" lon="6.38459">
        <ele>2449</ele>
        <time>2020-07-07T08:29:35.000Z</time>
      </trkpt>
      <trkpt lat="44.40991" lon="6.38459">
        <ele>2449</ele>
        <time>2020-07-07T08:29:36.000Z</time>
      </trkpt>
      <trkpt lat="44.40991" lon="6.38459">
        <ele>2449</ele>
        <time>2020-07-07T08:29:37.000Z</time>
      </trkpt>
      <trkpt lat="44.40991" lon="6.38459">
        <ele>2449</ele>
        <time>2020-07-07T08:29:38.000Z</time>
      </trkpt>
      <trkpt lat="44.40991" lon="6.38459">
        <ele>2449</ele>
        <time>2020-07-07T08:29:39.000Z</time>
      </trkpt>
      <trkpt lat="44.40991" lon="6.38459">
        <ele>2449</ele>
        <time>2020-07-07T08:29:40.000Z</time>
      </trkpt>
      <trkpt lat="44.40992" lon="6.38459">
        <ele>2449</ele>
        <time>2020-07-07T08:29:41.000Z</time>
      </trkpt>
      <trkpt lat="44.40993" lon="6.38459">
        <ele>2449</ele>
        <time>2020-07-07T08:29:42.000Z</time>
      </trkpt>
      <trkpt lat="44.40993" lon="6.38459">
        <ele>2450</ele>
        <time>2020-07-07T08:29:43.000Z</time>
      </trkpt>
      <trkpt lat="44.40994" lon="6.38459">
        <ele>2450</ele>
        <time>2020-07-07T08:29:44.000Z</time>
      </trkpt>
      <trkpt lat="44.40995" lon="6.38459">
        <ele>2450</ele>
        <time>2020-07-07T08:29:45.000Z</time>
      </trkpt>
      <trkpt lat="44.40996" lon="6.38459">
        <ele>2450</ele>
        <time>2020-07-07T08:29:46.000Z</time>
      </trkpt>
      <trkpt lat="44.40996" lon="6.38459">
        <ele>2450</ele>
        <time>2020-07-07T08:29:47.000Z</time>
      </trkpt>
      <trkpt lat="44.40997" lon="6.38459">
        <ele>2450</ele>
        <time>2020-07-07T08:29:48.000Z</time>
      </trkpt>
      <trkpt lat="44.40998" lon="6.38459">
        <ele>2450</ele>
        <time>2020-07-07T08:29:49.000Z</time>
      </trkpt>
      <trkpt lat="44.40999" lon="6.38459">
        <ele>2450</ele>
        <time>2020-07-07T08:29:50.000Z</time>
      </trkpt>
      <trkpt lat="44.41" lon="6.38459">
        <ele>2450</ele>
        <time>2020-07-07T08:29:51.000Z</time>
      </trkpt>
      <trkpt lat="44.41" lon="6.38459">
        <ele>2451</ele>
        <time>2020-07-07T08:29:52.000Z</time>
      </trkpt>
      <trkpt lat="44.41001" lon="6.38459">
        <ele>2451</ele>
        <time>2020-07-07T08:29:53.000Z</time>
      </trkpt>
      <trkpt lat="44.41002" lon="6.38459">
        <ele>2451</ele>
        <time>2020-07-07T08:29:54.000Z</time>
      </trkpt>
      <trkpt lat="44.41003" lon="6.38459">
        <ele>2451</ele>
        <time>2020-07-07T08:29:55.000Z</time>
      </trkpt>
      <trkpt lat="44.41004" lon="6.38459">
        <ele>2451</ele>
        <time>2020-07-07T08:29:56.000Z</time>
      </trkpt>
      <trkpt lat="44.41004" lon="6.38459">
        <ele>2451</ele>
        <time>2020-07-07T08:29:57.000Z</time>
      </trkpt>
      <trkpt lat="44.41005" lon="6.38459">
        <ele>2451</ele>
        <time>2020-07-07T08:29:58.000Z</time>
      </trkpt>
      <trkpt lat="44.41006" lon="6.38459">
        <ele>2451</ele>
        <time>2020-07-07T08:29:59.000Z</time>
      </trkpt>
      <trkpt lat="44.41007" lon="6.38458">
        <ele>2451</ele>
        <time>2020-07-07T08:30:00.000Z</time>
      </trkpt>
      <trkpt lat="44.41008" lon="6.38458">
        <ele>2451</ele>
        <time>2020-07-07T08:30:01.000Z</time>
      </trkpt>
      <trkpt lat="44.41009" lon="6.38458">
        <ele>2452</ele>
        <time>2020-07-07T08:30:02.000Z</time>
      </trkpt>
      <trkpt lat="44.4101" lon="6.38458">
        <ele>2452</ele>
        <time>2020-07-07T08:30:03.000Z</time>
      </trkpt>
      <trkpt lat="44.4101" lon="6.38458">
        <ele>2452</ele>
        <time>2020-07-07T08:30:04.000Z</time>
      </trkpt>
      <trkpt lat="44.41011" lon="6.38457">
        <ele>2452</ele>
        <time>2020-07-07T08:30:05.000Z</time>
      </trkpt>
      <trkpt lat="44.41012" lon="6.38456">
        <ele>2452</ele>
        <time>2020-07-07T08:30:06.000Z</time>
      </trkpt>
      <trkpt lat="44.41013" lon="6.38456">
        <ele>2452</ele>
        <time>2020-07-07T08:30:07.000Z</time>
      </trkpt>
      <trkpt lat="44.41013" lon="6.38455">
        <ele>2452</ele>
        <time>2020-07-07T08:30:08.000Z</time>
      </trkpt>
      <trkpt lat="44.41014" lon="6.38455">
        <ele>2453</ele>
        <time>2020-07-07T08:30:09.000Z</time>
      </trkpt>
      <trkpt lat="44.41015" lon="6.38455">
        <ele>2453</ele>
        <time>2020-07-07T08:30:10.000Z</time>
      </trkpt>
      <trkpt lat="44.41016" lon="6.38454">
        <ele>2453</ele>
        <time>2020-07-07T08:30:11.000Z</time>
      </trkpt>
      <trkpt lat="44.41017" lon="6.38454">
        <ele>2453</ele>
        <time>2020-07-07T08:30:12.000Z</time>
      </trkpt>
      <trkpt lat="44.41017" lon="6.38453">
        <ele>2453</ele>
        <time>2020-07-07T08:30:13.000Z</time>
      </trkpt>
      <trkpt lat="44.41018" lon="6.38453">
        <ele>2453</ele>
        <time>2020-07-07T08:30:14.000Z</time>
      </trkpt>
      <trkpt lat="44.41019" lon="6.38453">
        <ele>2453</ele>
        <time>2020-07-07T08:30:15.000Z</time>
      </trkpt>
      <trkpt lat="44.4102" lon="6.38452">
        <ele>2453</ele>
        <time>2020-07-07T08:30:16.000Z</time>
      </trkpt>
      <trkpt lat="44.41021" lon="6.38451">
        <ele>2453</ele>
        <time>2020-07-07T08:30:17.000Z</time>
      </trkpt>
      <trkpt lat="44.41021" lon="6.38451">
        <ele>2453</ele>
        <time>2020-07-07T08:30:18.000Z</time>
      </trkpt>
      <trkpt lat="44.41022" lon="6.3845">
        <ele>2453</ele>
        <time>2020-07-07T08:30:19.000Z</time>
      </trkpt>
      <trkpt lat="44.41023" lon="6.3845">
        <ele>2453</ele>
        <time>2020-07-07T08:30:20.000Z</time>
      </trkpt>
      <trkpt lat="44.41024" lon="6.38449">
        <ele>2454</ele>
        <time>2020-07-07T08:30:21.000Z</time>
      </trkpt>
      <trkpt lat="44.41025" lon="6.38448">
        <ele>2454</ele>
        <time>2020-07-07T08:30:22.000Z</time>
      </trkpt>
      <trkpt lat="44.41026" lon="6.38448">
        <ele>2454</ele>
        <time>2020-07-07T08:30:23.000Z</time>
      </trkpt>
      <trkpt lat="44.41026" lon="6.38447">
        <ele>2454</ele>
        <time>2020-07-07T08:30:24.000Z</time>
      </trkpt>
      <trkpt lat="44.41027" lon="6.38446">
        <ele>2454</ele>
        <time>2020-07-07T08:30:25.000Z</time>
      </trkpt>
      <trkpt lat="44.41027" lon="6.38446">
        <ele>2454</ele>
        <time>2020-07-07T08:30:26.000Z</time>
      </trkpt>
      <trkpt lat="44.41028" lon="6.38446">
        <ele>2454</ele>
        <time>2020-07-07T08:30:27.000Z</time>
      </trkpt>
      <trkpt lat="44.41029" lon="6.38445">
        <ele>2454</ele>
        <time>2020-07-07T08:30:28.000Z</time>
      </trkpt>
      <trkpt lat="44.4103" lon="6.38445">
        <ele>2454</ele>
        <time>2020-07-07T08:30:29.000Z</time>
      </trkpt>
      <trkpt lat="44.41031" lon="6.38445">
        <ele>2454</ele>
        <time>2020-07-07T08:30:30.000Z</time>
      </trkpt>
      <trkpt lat="44.41031" lon="6.38444">
        <ele>2454</ele>
        <time>2020-07-07T08:30:31.000Z</time>
      </trkpt>
      <trkpt lat="44.41032" lon="6.38444">
        <ele>2455</ele>
        <time>2020-07-07T08:30:32.000Z</time>
      </trkpt>
      <trkpt lat="44.41033" lon="6.38443">
        <ele>2455</ele>
        <time>2020-07-07T08:30:33.000Z</time>
      </trkpt>
      <trkpt lat="44.41034" lon="6.38443">
        <ele>2455</ele>
        <time>2020-07-07T08:30:34.000Z</time>
      </trkpt>
      <trkpt lat="44.41035" lon="6.38443">
        <ele>2455</ele>
        <time>2020-07-07T08:30:35.000Z</time>
      </trkpt>
      <trkpt lat="44.41036" lon="6.38443">
        <ele>2455</ele>
        <time>2020-07-07T08:30:36.000Z</time>
      </trkpt>
      <trkpt lat="44.41037" lon="6.38443">
        <ele>2455</ele>
        <time>2020-07-07T08:30:37.000Z</time>
      </trkpt>
      <trkpt lat="44.41038" lon="6.38442">
        <ele>2455</ele>
        <time>2020-07-07T08:30:38.000Z</time>
      </trkpt>
      <trkpt lat="44.41039" lon="6.38442">
        <ele>2455</ele>
        <time>2020-07-07T08:30:39.000Z</time>
      </trkpt>
      <trkpt lat="44.4104" lon="6.38442">
        <ele>2456</ele>
        <time>2020-07-07T08:30:40.000Z</time>
      </trkpt>
      <trkpt lat="44.41041" lon="6.38442">
        <ele>2456</ele>
        <time>2020-07-07T08:30:41.000Z</time>
      </trkpt>
      <trkpt lat="44.41041" lon="6.38442">
        <ele>2456</ele>
        <time>2020-07-07T08:30:42.000Z</time>
      </trkpt>
      <trkpt lat="44.41042" lon="6.38442">
        <ele>2456</ele>
        <time>2020-07-07T08:30:43.000Z</time>
      </trkpt>
      <trkpt lat="44.41043" lon="6.38442">
        <ele>2456</ele>
        <time>2020-07-07T08:30:44.000Z</time>
      </trkpt>
      <trkpt lat="44.41044" lon="6.38442">
        <ele>2456</ele>
        <time>2020-07-07T08:30:45.000Z</time>
      </trkpt>
      <trkpt lat="44.41045" lon="6.38441">
        <ele>2456</ele>
        <time>2020-07-07T08:30:46.000Z</time>
      </trkpt>
      <trkpt lat="44.41046" lon="6.38441">
        <ele>2456</ele>
        <time>2020-07-07T08:30:47.000Z</time>
      </trkpt>
      <trkpt lat="44.41047" lon="6.38441">
        <ele>2457</ele>
        <time>2020-07-07T08:30:48.000Z</time>
      </trkpt>
      <trkpt lat="44.41047" lon="6.38441">
        <ele>2457</ele>
        <time>2020-07-07T08:30:49.000Z</time>
      </trkpt>
      <trkpt lat="44.41048" lon="6.38441">
        <ele>2457</ele>
        <time>2020-07-07T08:30:50.000Z</time>
      </trkpt>
      <trkpt lat="44.41049" lon="6.3844">
        <ele>2457</ele>
        <time>2020-07-07T08:30:51.000Z</time>
      </trkpt>
      <trkpt lat="44.4105" lon="6.3844">
        <ele>2457</ele>
        <time>2020-07-07T08:30:52.000Z</time>
      </trkpt>
      <trkpt lat="44.41051" lon="6.38439">
        <ele>2457</ele>
        <time>2020-07-07T08:30:53.000Z</time>
      </trkpt>
      <trkpt lat="44.41052" lon="6.38439">
        <ele>2457</ele>
        <time>2020-07-07T08:30:54.000Z</time>
      </trkpt>
      <trkpt lat="44.41053" lon="6.38439">
        <ele>2457</ele>
        <time>2020-07-07T08:30:55.000Z</time>
      </trkpt>
      <trkpt lat="44.41054" lon="6.38439">
        <ele>2457</ele>
        <time>2020-07-07T08:30:56.000Z</time>
      </trkpt>
      <trkpt lat="44.41055" lon="6.38438">
        <ele>2457</ele>
        <time>2020-07-07T08:30:57.000Z</time>
      </trkpt>
      <trkpt lat="44.41055" lon="6.38438">
        <ele>2457</ele>
        <time>2020-07-07T08:30:58.000Z</time>
      </trkpt>
      <trkpt lat="44.41056" lon="6.38437">
        <ele>2458</ele>
        <time>2020-07-07T08:30:59.000Z</time>
      </trkpt>
      <trkpt lat="44.41057" lon="6.38437">
        <ele>2458</ele>
        <time>2020-07-07T08:31:00.000Z</time>
      </trkpt>
      <trkpt lat="44.41058" lon="6.38437">
        <ele>2458</ele>
        <time>2020-07-07T08:31:01.000Z</time>
      </trkpt>
      <trkpt lat="44.41059" lon="6.38437">
        <ele>2458</ele>
        <time>2020-07-07T08:31:02.000Z</time>
      </trkpt>
      <trkpt lat="44.4106" lon="6.38437">
        <ele>2458</ele>
        <time>2020-07-07T08:31:03.000Z</time>
      </trkpt>
      <trkpt lat="44.41061" lon="6.38436">
        <ele>2458</ele>
        <time>2020-07-07T08:31:04.000Z</time>
      </trkpt>
      <trkpt lat="44.41062" lon="6.38436">
        <ele>2458</ele>
        <time>2020-07-07T08:31:05.000Z</time>
      </trkpt>
      <trkpt lat="44.41063" lon="6.38436">
        <ele>2458</ele>
        <time>2020-07-07T08:31:06.000Z</time>
      </trkpt>
      <trkpt lat="44.41064" lon="6.38435">
        <ele>2459</ele>
        <time>2020-07-07T08:31:07.000Z</time>
      </trkpt>
      <trkpt lat="44.41064" lon="6.38435">
        <ele>2459</ele>
        <time>2020-07-07T08:31:08.000Z</time>
      </trkpt>
      <trkpt lat="44.41065" lon="6.38434">
        <ele>2459</ele>
        <time>2020-07-07T08:31:09.000Z</time>
      </trkpt>
      <trkpt lat="44.41066" lon="6.38434">
        <ele>2459</ele>
        <time>2020-07-07T08:31:10.000Z</time>
      </trkpt>
      <trkpt lat="44.41067" lon="6.38434">
        <ele>2459</ele>
        <time>2020-07-07T08:31:11.000Z</time>
      </trkpt>
      <trkpt lat="44.41068" lon="6.38433">
        <ele>2459</ele>
        <time>2020-07-07T08:31:12.000Z</time>
      </trkpt>
      <trkpt lat="44.41069" lon="6.38433">
        <ele>2459</ele>
        <time>2020-07-07T08:31:13.000Z</time>
      </trkpt>
      <trkpt lat="44.4107" lon="6.38433">
        <ele>2459</ele>
        <time>2020-07-07T08:31:14.000Z</time>
      </trkpt>
      <trkpt lat="44.41071" lon="6.38432">
        <ele>2459</ele>
        <time>2020-07-07T08:31:15.000Z</time>
      </trkpt>
      <trkpt lat="44.41071" lon="6.38432">
        <ele>2459</ele>
        <time>2020-07-07T08:31:16.000Z</time>
      </trkpt>
      <trkpt lat="44.41072" lon="6.38431">
        <ele>2460</ele>
        <time>2020-07-07T08:31:17.000Z</time>
      </trkpt>
      <trkpt lat="44.41073" lon="6.38431">
        <ele>2460</ele>
        <time>2020-07-07T08:31:18.000Z</time>
      </trkpt>
      <trkpt lat="44.41074" lon="6.3843">
        <ele>2460</ele>
        <time>2020-07-07T08:31:19.000Z</time>
      </trkpt>
      <trkpt lat="44.41074" lon="6.3843">
        <ele>2460</ele>
        <time>2020-07-07T08:31:20.000Z</time>
      </trkpt>
      <trkpt lat="44.41075" lon="6.3843">
        <ele>2461</ele>
        <time>2020-07-07T08:31:21.000Z</time>
      </trkpt>
      <trkpt lat="44.41076" lon="6.38429">
        <ele>2461</ele>
        <time>2020-07-07T08:31:22.000Z</time>
      </trkpt>
      <trkpt lat="44.41077" lon="6.38428">
        <ele>2461</ele>
        <time>2020-07-07T08:31:23.000Z</time>
      </trkpt>
      <trkpt lat="44.41078" lon="6.38428">
        <ele>2461</ele>
        <time>2020-07-07T08:31:24.000Z</time>
      </trkpt>
      <trkpt lat="44.41079" lon="6.38427">
        <ele>2461</ele>
        <time>2020-07-07T08:31:25.000Z</time>
      </trkpt>
      <trkpt lat="44.4108" lon="6.38427">
        <ele>2461</ele>
        <time>2020-07-07T08:31:26.000Z</time>
      </trkpt>
      <trkpt lat="44.41081" lon="6.38426">
        <ele>2461</ele>
        <time>2020-07-07T08:31:27.000Z</time>
      </trkpt>
      <trkpt lat="44.41081" lon="6.38426">
        <ele>2461</ele>
        <time>2020-07-07T08:31:28.000Z</time>
      </trkpt>
      <trkpt lat="44.41082" lon="6.38426">
        <ele>2461</ele>
        <time>2020-07-07T08:31:29.000Z</time>
      </trkpt>
      <trkpt lat="44.41083" lon="6.38426">
        <ele>2462</ele>
        <time>2020-07-07T08:31:30.000Z</time>
      </trkpt>
      <trkpt lat="44.41084" lon="6.38425">
        <ele>2461</ele>
        <time>2020-07-07T08:31:31.000Z</time>
      </trkpt>
      <trkpt lat="44.41085" lon="6.38425">
        <ele>2461</ele>
        <time>2020-07-07T08:31:32.000Z</time>
      </trkpt>
      <trkpt lat="44.41086" lon="6.38425">
        <ele>2462</ele>
        <time>2020-07-07T08:31:33.000Z</time>
      </trkpt>
      <trkpt lat="44.41086" lon="6.38425">
        <ele>2462</ele>
        <time>2020-07-07T08:31:34.000Z</time>
      </trkpt>
      <trkpt lat="44.41086" lon="6.38425">
        <ele>2462</ele>
        <time>2020-07-07T08:31:35.000Z</time>
      </trkpt>
      <trkpt lat="44.41086" lon="6.38425">
        <ele>2462</ele>
        <time>2020-07-07T08:31:36.000Z</time>
      </trkpt>
      <trkpt lat="44.41086" lon="6.38425">
        <ele>2462</ele>
        <time>2020-07-07T08:31:37.000Z</time>
      </trkpt>
      <trkpt lat="44.41086" lon="6.38425">
        <ele>2462</ele>
        <time>2020-07-07T08:31:38.000Z</time>
      </trkpt>
      <trkpt lat="44.41086" lon="6.38425">
        <ele>2462</ele>
        <time>2020-07-07T08:31:39.000Z</time>
      </trkpt>
      <trkpt lat="44.41086" lon="6.38425">
        <ele>2462</ele>
        <time>2020-07-07T08:31:40.000Z</time>
      </trkpt>
      <trkpt lat="44.41086" lon="6.38425">
        <ele>2462</ele>
        <time>2020-07-07T08:31:41.000Z</time>
      </trkpt>
      <trkpt lat="44.41086" lon="6.38425">
        <ele>2462</ele>
        <time>2020-07-07T08:31:42.000Z</time>
      </trkpt>
      <trkpt lat="44.41086" lon="6.38425">
        <ele>2462</ele>
        <time>2020-07-07T08:31:43.000Z</time>
      </trkpt>
      <trkpt lat="44.41086" lon="6.38425">
        <ele>2461</ele>
        <time>2020-07-07T08:31:44.000Z</time>
      </trkpt>
      <trkpt lat="44.41086" lon="6.38425">
        <ele>2461</ele>
        <time>2020-07-07T08:31:45.000Z</time>
      </trkpt>
      <trkpt lat="44.41087" lon="6.38425">
        <ele>2461</ele>
        <time>2020-07-07T08:31:46.000Z</time>
      </trkpt>
      <trkpt lat="44.41087" lon="6.38425">
        <ele>2461</ele>
        <time>2020-07-07T08:31:47.000Z</time>
      </trkpt>
      <trkpt lat="44.41087" lon="6.38425">
        <ele>2461</ele>
        <time>2020-07-07T08:31:48.000Z</time>
      </trkpt>
      <trkpt lat="44.41087" lon="6.38425">
        <ele>2461</ele>
        <time>2020-07-07T08:31:49.000Z</time>
      </trkpt>
      <trkpt lat="44.41087" lon="6.38425">
        <ele>2461</ele>
        <time>2020-07-07T08:31:50.000Z</time>
      </trkpt>
      <trkpt lat="44.41088" lon="6.38424">
        <ele>2461</ele>
        <time>2020-07-07T08:31:51.000Z</time>
      </trkpt>
      <trkpt lat="44.41088" lon="6.38424">
        <ele>2461</ele>
        <time>2020-07-07T08:31:52.000Z</time>
      </trkpt>
      <trkpt lat="44.41089" lon="6.38424">
        <ele>2461</ele>
        <time>2020-07-07T08:31:53.000Z</time>
      </trkpt>
      <trkpt lat="44.4109" lon="6.38424">
        <ele>2461</ele>
        <time>2020-07-07T08:31:54.000Z</time>
      </trkpt>
      <trkpt lat="44.41091" lon="6.38423">
        <ele>2461</ele>
        <time>2020-07-07T08:31:55.000Z</time>
      </trkpt>
      <trkpt lat="44.41092" lon="6.38423">
        <ele>2461</ele>
        <time>2020-07-07T08:31:56.000Z</time>
      </trkpt>
      <trkpt lat="44.41093" lon="6.38423">
        <ele>2462</ele>
        <time>2020-07-07T08:31:57.000Z</time>
      </trkpt>
      <trkpt lat="44.41094" lon="6.38422">
        <ele>2462</ele>
        <time>2020-07-07T08:31:58.000Z</time>
      </trkpt>
      <trkpt lat="44.41095" lon="6.38422">
        <ele>2462</ele>
        <time>2020-07-07T08:31:59.000Z</time>
      </trkpt>
      <trkpt lat="44.41096" lon="6.38422">
        <ele>2462</ele>
        <time>2020-07-07T08:32:00.000Z</time>
      </trkpt>
      <trkpt lat="44.41096" lon="6.38421">
        <ele>2462</ele>
        <time>2020-07-07T08:32:01.000Z</time>
      </trkpt>
      <trkpt lat="44.41097" lon="6.38421">
        <ele>2462</ele>
        <time>2020-07-07T08:32:02.000Z</time>
      </trkpt>
      <trkpt lat="44.41098" lon="6.38421">
        <ele>2462</ele>
        <time>2020-07-07T08:32:03.000Z</time>
      </trkpt>
      <trkpt lat="44.41099" lon="6.3842">
        <ele>2463</ele>
        <time>2020-07-07T08:32:04.000Z</time>
      </trkpt>
      <trkpt lat="44.411" lon="6.38421">
        <ele>2463</ele>
        <time>2020-07-07T08:32:05.000Z</time>
      </trkpt>
      <trkpt lat="44.41101" lon="6.38421">
        <ele>2463</ele>
        <time>2020-07-07T08:32:06.000Z</time>
      </trkpt>
      <trkpt lat="44.41102" lon="6.3842">
        <ele>2463</ele>
        <time>2020-07-07T08:32:07.000Z</time>
      </trkpt>
      <trkpt lat="44.41103" lon="6.38419">
        <ele>2463</ele>
        <time>2020-07-07T08:32:08.000Z</time>
      </trkpt>
      <trkpt lat="44.41104" lon="6.38419">
        <ele>2463</ele>
        <time>2020-07-07T08:32:09.000Z</time>
      </trkpt>
      <trkpt lat="44.41105" lon="6.38418">
        <ele>2463</ele>
        <time>2020-07-07T08:32:10.000Z</time>
      </trkpt>
      <trkpt lat="44.41105" lon="6.38418">
        <ele>2463</ele>
        <time>2020-07-07T08:32:11.000Z</time>
      </trkpt>
      <trkpt lat="44.41106" lon="6.38417">
        <ele>2463</ele>
        <time>2020-07-07T08:32:12.000Z</time>
      </trkpt>
      <trkpt lat="44.41107" lon="6.38417">
        <ele>2463</ele>
        <time>2020-07-07T08:32:13.000Z</time>
      </trkpt>
      <trkpt lat="44.41108" lon="6.38417">
        <ele>2464</ele>
        <time>2020-07-07T08:32:14.000Z</time>
      </trkpt>
      <trkpt lat="44.41109" lon="6.38416">
        <ele>2464</ele>
        <time>2020-07-07T08:32:15.000Z</time>
      </trkpt>
      <trkpt lat="44.41109" lon="6.38415">
        <ele>2464</ele>
        <time>2020-07-07T08:32:16.000Z</time>
      </trkpt>
      <trkpt lat="44.4111" lon="6.38414">
        <ele>2464</ele>
        <time>2020-07-07T08:32:17.000Z</time>
      </trkpt>
      <trkpt lat="44.41112" lon="6.38414">
        <ele>2464</ele>
        <time>2020-07-07T08:32:18.000Z</time>
      </trkpt>
      <trkpt lat="44.41112" lon="6.38414">
        <ele>2464</ele>
        <time>2020-07-07T08:32:19.000Z</time>
      </trkpt>
      <trkpt lat="44.41113" lon="6.38414">
        <ele>2464</ele>
        <time>2020-07-07T08:32:20.000Z</time>
      </trkpt>
      <trkpt lat="44.41114" lon="6.38414">
        <ele>2464</ele>
        <time>2020-07-07T08:32:21.000Z</time>
      </trkpt>
      <trkpt lat="44.41115" lon="6.38413">
        <ele>2464</ele>
        <time>2020-07-07T08:32:22.000Z</time>
      </trkpt>
      <trkpt lat="44.41116" lon="6.38413">
        <ele>2464</ele>
        <time>2020-07-07T08:32:23.000Z</time>
      </trkpt>
      <trkpt lat="44.41117" lon="6.38413">
        <ele>2464</ele>
        <time>2020-07-07T08:32:24.000Z</time>
      </trkpt>
      <trkpt lat="44.41118" lon="6.38412">
        <ele>2464</ele>
        <time>2020-07-07T08:32:25.000Z</time>
      </trkpt>
      <trkpt lat="44.41118" lon="6.38412">
        <ele>2465</ele>
        <time>2020-07-07T08:32:26.000Z</time>
      </trkpt>
      <trkpt lat="44.41119" lon="6.38411">
        <ele>2465</ele>
        <time>2020-07-07T08:32:27.000Z</time>
      </trkpt>
      <trkpt lat="44.4112" lon="6.3841">
        <ele>2465</ele>
        <time>2020-07-07T08:32:28.000Z</time>
      </trkpt>
      <trkpt lat="44.41121" lon="6.3841">
        <ele>2465</ele>
        <time>2020-07-07T08:32:29.000Z</time>
      </trkpt>
      <trkpt lat="44.41122" lon="6.38409">
        <ele>2465</ele>
        <time>2020-07-07T08:32:30.000Z</time>
      </trkpt>
      <trkpt lat="44.41123" lon="6.38409">
        <ele>2465</ele>
        <time>2020-07-07T08:32:31.000Z</time>
      </trkpt>
      <trkpt lat="44.41124" lon="6.38409">
        <ele>2465</ele>
        <time>2020-07-07T08:32:32.000Z</time>
      </trkpt>
      <trkpt lat="44.41124" lon="6.38408">
        <ele>2465</ele>
        <time>2020-07-07T08:32:33.000Z</time>
      </trkpt>
      <trkpt lat="44.41125" lon="6.38408">
        <ele>2465</ele>
        <time>2020-07-07T08:32:34.000Z</time>
      </trkpt>
      <trkpt lat="44.41126" lon="6.38408">
        <ele>2465</ele>
        <time>2020-07-07T08:32:35.000Z</time>
      </trkpt>
      <trkpt lat="44.41127" lon="6.38407">
        <ele>2465</ele>
        <time>2020-07-07T08:32:36.000Z</time>
      </trkpt>
      <trkpt lat="44.41127" lon="6.38407">
        <ele>2465</ele>
        <time>2020-07-07T08:32:37.000Z</time>
      </trkpt>
      <trkpt lat="44.41128" lon="6.38406">
        <ele>2465</ele>
        <time>2020-07-07T08:32:38.000Z</time>
      </trkpt>
      <trkpt lat="44.41129" lon="6.38405">
        <ele>2465</ele>
        <time>2020-07-07T08:32:39.000Z</time>
      </trkpt>
      <trkpt lat="44.4113" lon="6.38405">
        <ele>2465</ele>
        <time>2020-07-07T08:32:40.000Z</time>
      </trkpt>
      <trkpt lat="44.41131" lon="6.38404">
        <ele>2465</ele>
        <time>2020-07-07T08:32:41.000Z</time>
      </trkpt>
      <trkpt lat="44.41132" lon="6.38404">
        <ele>2466</ele>
        <time>2020-07-07T08:32:42.000Z</time>
      </trkpt>
      <trkpt lat="44.41133" lon="6.38403">
        <ele>2466</ele>
        <time>2020-07-07T08:32:43.000Z</time>
      </trkpt>
      <trkpt lat="44.41134" lon="6.38403">
        <ele>2466</ele>
        <time>2020-07-07T08:32:44.000Z</time>
      </trkpt>
      <trkpt lat="44.41134" lon="6.38403">
        <ele>2466</ele>
        <time>2020-07-07T08:32:45.000Z</time>
      </trkpt>
      <trkpt lat="44.41135" lon="6.38402">
        <ele>2466</ele>
        <time>2020-07-07T08:32:46.000Z</time>
      </trkpt>
      <trkpt lat="44.41136" lon="6.38402">
        <ele>2466</ele>
        <time>2020-07-07T08:32:47.000Z</time>
      </trkpt>
      <trkpt lat="44.41137" lon="6.38401">
        <ele>2466</ele>
        <time>2020-07-07T08:32:48.000Z</time>
      </trkpt>
      <trkpt lat="44.41138" lon="6.38401">
        <ele>2467</ele>
        <time>2020-07-07T08:32:49.000Z</time>
      </trkpt>
      <trkpt lat="44.41139" lon="6.384">
        <ele>2467</ele>
        <time>2020-07-07T08:32:50.000Z</time>
      </trkpt>
      <trkpt lat="44.4114" lon="6.384">
        <ele>2467</ele>
        <time>2020-07-07T08:32:51.000Z</time>
      </trkpt>
      <trkpt lat="44.4114" lon="6.384">
        <ele>2467</ele>
        <time>2020-07-07T08:32:52.000Z</time>
      </trkpt>
      <trkpt lat="44.41141" lon="6.38399">
        <ele>2467</ele>
        <time>2020-07-07T08:32:53.000Z</time>
      </trkpt>
      <trkpt lat="44.41142" lon="6.38399">
        <ele>2467</ele>
        <time>2020-07-07T08:32:54.000Z</time>
      </trkpt>
      <trkpt lat="44.41143" lon="6.38399">
        <ele>2468</ele>
        <time>2020-07-07T08:32:55.000Z</time>
      </trkpt>
      <trkpt lat="44.41144" lon="6.38399">
        <ele>2468</ele>
        <time>2020-07-07T08:32:56.000Z</time>
      </trkpt>
      <trkpt lat="44.41145" lon="6.38399">
        <ele>2468</ele>
        <time>2020-07-07T08:32:57.000Z</time>
      </trkpt>
      <trkpt lat="44.41146" lon="6.38399">
        <ele>2468</ele>
        <time>2020-07-07T08:32:58.000Z</time>
      </trkpt>
      <trkpt lat="44.41147" lon="6.38398">
        <ele>2468</ele>
        <time>2020-07-07T08:32:59.000Z</time>
      </trkpt>
      <trkpt lat="44.41147" lon="6.38398">
        <ele>2468</ele>
        <time>2020-07-07T08:33:00.000Z</time>
      </trkpt>
      <trkpt lat="44.41148" lon="6.38397">
        <ele>2468</ele>
        <time>2020-07-07T08:33:01.000Z</time>
      </trkpt>
      <trkpt lat="44.4115" lon="6.38397">
        <ele>2468</ele>
        <time>2020-07-07T08:33:02.000Z</time>
      </trkpt>
      <trkpt lat="44.4115" lon="6.38397">
        <ele>2468</ele>
        <time>2020-07-07T08:33:03.000Z</time>
      </trkpt>
      <trkpt lat="44.4115" lon="6.38396">
        <ele>2468</ele>
        <time>2020-07-07T08:33:04.000Z</time>
      </trkpt>
      <trkpt lat="44.41151" lon="6.38396">
        <ele>2467</ele>
        <time>2020-07-07T08:33:05.000Z</time>
      </trkpt>
      <trkpt lat="44.41152" lon="6.38396">
        <ele>2467</ele>
        <time>2020-07-07T08:33:06.000Z</time>
      </trkpt>
      <trkpt lat="44.41153" lon="6.38396">
        <ele>2467</ele>
        <time>2020-07-07T08:33:07.000Z</time>
      </trkpt>
      <trkpt lat="44.41154" lon="6.38396">
        <ele>2467</ele>
        <time>2020-07-07T08:33:08.000Z</time>
      </trkpt>
      <trkpt lat="44.41155" lon="6.38396">
        <ele>2468</ele>
        <time>2020-07-07T08:33:09.000Z</time>
      </trkpt>
      <trkpt lat="44.41156" lon="6.38396">
        <ele>2468</ele>
        <time>2020-07-07T08:33:10.000Z</time>
      </trkpt>
      <trkpt lat="44.41157" lon="6.38395">
        <ele>2468</ele>
        <time>2020-07-07T08:33:11.000Z</time>
      </trkpt>
      <trkpt lat="44.41157" lon="6.38395">
        <ele>2468</ele>
        <time>2020-07-07T08:33:12.000Z</time>
      </trkpt>
      <trkpt lat="44.41158" lon="6.38395">
        <ele>2468</ele>
        <time>2020-07-07T08:33:13.000Z</time>
      </trkpt>
      <trkpt lat="44.41159" lon="6.38395">
        <ele>2468</ele>
        <time>2020-07-07T08:33:14.000Z</time>
      </trkpt>
      <trkpt lat="44.41161" lon="6.38394">
        <ele>2468</ele>
        <time>2020-07-07T08:33:15.000Z</time>
      </trkpt>
      <trkpt lat="44.41161" lon="6.38394">
        <ele>2468</ele>
        <time>2020-07-07T08:33:16.000Z</time>
      </trkpt>
      <trkpt lat="44.41162" lon="6.38394">
        <ele>2468</ele>
        <time>2020-07-07T08:33:17.000Z</time>
      </trkpt>
      <trkpt lat="44.41163" lon="6.38393">
        <ele>2468</ele>
        <time>2020-07-07T08:33:18.000Z</time>
      </trkpt>
      <trkpt lat="44.41164" lon="6.38393">
        <ele>2468</ele>
        <time>2020-07-07T08:33:19.000Z</time>
      </trkpt>
      <trkpt lat="44.41164" lon="6.38392">
        <ele>2468</ele>
        <time>2020-07-07T08:33:20.000Z</time>
      </trkpt>
      <trkpt lat="44.41165" lon="6.38391">
        <ele>2468</ele>
        <time>2020-07-07T08:33:21.000Z</time>
      </trkpt>
      <trkpt lat="44.41166" lon="6.38391">
        <ele>2468</ele>
        <time>2020-07-07T08:33:22.000Z</time>
      </trkpt>
      <trkpt lat="44.41167" lon="6.38391">
        <ele>2468</ele>
        <time>2020-07-07T08:33:23.000Z</time>
      </trkpt>
      <trkpt lat="44.41168" lon="6.38391">
        <ele>2468</ele>
        <time>2020-07-07T08:33:24.000Z</time>
      </trkpt>
      <trkpt lat="44.41168" lon="6.3839">
        <ele>2468</ele>
        <time>2020-07-07T08:33:25.000Z</time>
      </trkpt>
      <trkpt lat="44.41169" lon="6.3839">
        <ele>2468</ele>
        <time>2020-07-07T08:33:26.000Z</time>
      </trkpt>
      <trkpt lat="44.4117" lon="6.3839">
        <ele>2468</ele>
        <time>2020-07-07T08:33:27.000Z</time>
      </trkpt>
      <trkpt lat="44.41171" lon="6.3839">
        <ele>2468</ele>
        <time>2020-07-07T08:33:28.000Z</time>
      </trkpt>
      <trkpt lat="44.41172" lon="6.3839">
        <ele>2468</ele>
        <time>2020-07-07T08:33:29.000Z</time>
      </trkpt>
      <trkpt lat="44.41173" lon="6.3839">
        <ele>2468</ele>
        <time>2020-07-07T08:33:30.000Z</time>
      </trkpt>
      <trkpt lat="44.41174" lon="6.3839">
        <ele>2469</ele>
        <time>2020-07-07T08:33:31.000Z</time>
      </trkpt>
      <trkpt lat="44.41175" lon="6.3839">
        <ele>2469</ele>
        <time>2020-07-07T08:33:32.000Z</time>
      </trkpt>
      <trkpt lat="44.41176" lon="6.3839">
        <ele>2469</ele>
        <time>2020-07-07T08:33:33.000Z</time>
      </trkpt>
      <trkpt lat="44.41177" lon="6.3839">
        <ele>2469</ele>
        <time>2020-07-07T08:33:34.000Z</time>
      </trkpt>
      <trkpt lat="44.41177" lon="6.38389">
        <ele>2469</ele>
        <time>2020-07-07T08:33:35.000Z</time>
      </trkpt>
      <trkpt lat="44.41177" lon="6.38388">
        <ele>2469</ele>
        <time>2020-07-07T08:33:36.000Z</time>
      </trkpt>
      <trkpt lat="44.41178" lon="6.38388">
        <ele>2469</ele>
        <time>2020-07-07T08:33:37.000Z</time>
      </trkpt>
      <trkpt lat="44.41178" lon="6.38388">
        <ele>2470</ele>
        <time>2020-07-07T08:33:38.000Z</time>
      </trkpt>
      <trkpt lat="44.41178" lon="6.38388">
        <ele>2470</ele>
        <time>2020-07-07T08:33:39.000Z</time>
      </trkpt>
      <trkpt lat="44.41178" lon="6.38388">
        <ele>2470</ele>
        <time>2020-07-07T08:33:40.000Z</time>
      </trkpt>
      <trkpt lat="44.41178" lon="6.38388">
        <ele>2469</ele>
        <time>2020-07-07T08:33:41.000Z</time>
      </trkpt>
      <trkpt lat="44.41178" lon="6.38388">
        <ele>2470</ele>
        <time>2020-07-07T08:33:42.000Z</time>
      </trkpt>
      <trkpt lat="44.41178" lon="6.38388">
        <ele>2470</ele>
        <time>2020-07-07T08:33:43.000Z</time>
      </trkpt>
      <trkpt lat="44.41178" lon="6.38388">
        <ele>2470</ele>
        <time>2020-07-07T08:33:44.000Z</time>
      </trkpt>
      <trkpt lat="44.41178" lon="6.38388">
        <ele>2470</ele>
        <time>2020-07-07T08:33:45.000Z</time>
      </trkpt>
      <trkpt lat="44.41178" lon="6.38388">
        <ele>2470</ele>
        <time>2020-07-07T08:33:46.000Z</time>
      </trkpt>
      <trkpt lat="44.41178" lon="6.38388">
        <ele>2470</ele>
        <time>2020-07-07T08:33:47.000Z</time>
      </trkpt>
      <trkpt lat="44.41178" lon="6.38388">
        <ele>2470</ele>
        <time>2020-07-07T08:33:48.000Z</time>
      </trkpt>
      <trkpt lat="44.41178" lon="6.38389">
        <ele>2470</ele>
        <time>2020-07-07T08:33:49.000Z</time>
      </trkpt>
      <trkpt lat="44.41178" lon="6.38389">
        <ele>2470</ele>
        <time>2020-07-07T08:33:50.000Z</time>
      </trkpt>
      <trkpt lat="44.41178" lon="6.38389">
        <ele>2470</ele>
        <time>2020-07-07T08:33:51.000Z</time>
      </trkpt>
      <trkpt lat="44.41178" lon="6.38389">
        <ele>2470</ele>
        <time>2020-07-07T08:33:52.000Z</time>
      </trkpt>
      <trkpt lat="44.41178" lon="6.38389">
        <ele>2470</ele>
        <time>2020-07-07T08:33:53.000Z</time>
      </trkpt>
      <trkpt lat="44.41178" lon="6.38389">
        <ele>2470</ele>
        <time>2020-07-07T08:33:54.000Z</time>
      </trkpt>
      <trkpt lat="44.41178" lon="6.38389">
        <ele>2470</ele>
        <time>2020-07-07T08:33:55.000Z</time>
      </trkpt>
      <trkpt lat="44.41178" lon="6.38389">
        <ele>2470</ele>
        <time>2020-07-07T08:33:56.000Z</time>
      </trkpt>
      <trkpt lat="44.41178" lon="6.38389">
        <ele>2470</ele>
        <time>2020-07-07T08:33:57.000Z</time>
      </trkpt>
      <trkpt lat="44.41178" lon="6.38389">
        <ele>2470</ele>
        <time>2020-07-07T08:33:58.000Z</time>
      </trkpt>
      <trkpt lat="44.41178" lon="6.38389">
        <ele>2470</ele>
        <time>2020-07-07T08:33:59.000Z</time>
      </trkpt>
      <trkpt lat="44.41178" lon="6.38389">
        <ele>2470</ele>
        <time>2020-07-07T08:34:00.000Z</time>
      </trkpt>
      <trkpt lat="44.41178" lon="6.38389">
        <ele>2470</ele>
        <time>2020-07-07T08:34:01.000Z</time>
      </trkpt>
      <trkpt lat="44.41178" lon="6.38389">
        <ele>2470</ele>
        <time>2020-07-07T08:34:02.000Z</time>
      </trkpt>
      <trkpt lat="44.41178" lon="6.38389">
        <ele>2470</ele>
        <time>2020-07-07T08:34:03.000Z</time>
      </trkpt>
      <trkpt lat="44.41178" lon="6.38389">
        <ele>2469</ele>
        <time>2020-07-07T08:34:04.000Z</time>
      </trkpt>
      <trkpt lat="44.41178" lon="6.38389">
        <ele>2469</ele>
        <time>2020-07-07T08:34:05.000Z</time>
      </trkpt>
      <trkpt lat="44.41178" lon="6.38389">
        <ele>2469</ele>
        <time>2020-07-07T08:34:06.000Z</time>
      </trkpt>
      <trkpt lat="44.41178" lon="6.38389">
        <ele>2469</ele>
        <time>2020-07-07T08:34:07.000Z</time>
      </trkpt>
      <trkpt lat="44.41178" lon="6.38389">
        <ele>2469</ele>
        <time>2020-07-07T08:34:08.000Z</time>
      </trkpt>
      <trkpt lat="44.41178" lon="6.38389">
        <ele>2469</ele>
        <time>2020-07-07T08:34:09.000Z</time>
      </trkpt>
      <trkpt lat="44.41178" lon="6.38389">
        <ele>2469</ele>
        <time>2020-07-07T08:34:10.000Z</time>
      </trkpt>
      <trkpt lat="44.41178" lon="6.38389">
        <ele>2469</ele>
        <time>2020-07-07T08:34:11.000Z</time>
      </trkpt>
      <trkpt lat="44.41178" lon="6.38389">
        <ele>2469</ele>
        <time>2020-07-07T08:34:12.000Z</time>
      </trkpt>
      <trkpt lat="44.41178" lon="6.38389">
        <ele>2469</ele>
        <time>2020-07-07T08:34:13.000Z</time>
      </trkpt>
      <trkpt lat="44.41178" lon="6.38389">
        <ele>2469</ele>
        <time>2020-07-07T08:34:14.000Z</time>
      </trkpt>
      <trkpt lat="44.41178" lon="6.38389">
        <ele>2469</ele>
        <time>2020-07-07T08:34:15.000Z</time>
      </trkpt>
      <trkpt lat="44.41178" lon="6.38389">
        <ele>2469</ele>
        <time>2020-07-07T08:34:16.000Z</time>
      </trkpt>
      <trkpt lat="44.41178" lon="6.38389">
        <ele>2469</ele>
        <time>2020-07-07T08:34:17.000Z</time>
      </trkpt>
      <trkpt lat="44.41178" lon="6.38389">
        <ele>2469</ele>
        <time>2020-07-07T08:34:18.000Z</time>
      </trkpt>
      <trkpt lat="44.41178" lon="6.38389">
        <ele>2469</ele>
        <time>2020-07-07T08:34:19.000Z</time>
      </trkpt>
      <trkpt lat="44.41178" lon="6.38389">
        <ele>2470</ele>
        <time>2020-07-07T08:34:20.000Z</time>
      </trkpt>
      <trkpt lat="44.41178" lon="6.38389">
        <ele>2470</ele>
        <time>2020-07-07T08:34:21.000Z</time>
      </trkpt>
      <trkpt lat="44.41178" lon="6.38389">
        <ele>2470</ele>
        <time>2020-07-07T08:34:22.000Z</time>
      </trkpt>
      <trkpt lat="44.41178" lon="6.38389">
        <ele>2470</ele>
        <time>2020-07-07T08:34:23.000Z</time>
      </trkpt>
      <trkpt lat="44.41178" lon="6.38389">
        <ele>2470</ele>
        <time>2020-07-07T08:34:24.000Z</time>
      </trkpt>
      <trkpt lat="44.41178" lon="6.38389">
        <ele>2470</ele>
        <time>2020-07-07T08:34:25.000Z</time>
      </trkpt>
      <trkpt lat="44.41178" lon="6.38389">
        <ele>2470</ele>
        <time>2020-07-07T08:34:26.000Z</time>
      </trkpt>
      <trkpt lat="44.41178" lon="6.38389">
        <ele>2470</ele>
        <time>2020-07-07T08:34:27.000Z</time>
      </trkpt>
      <trkpt lat="44.41178" lon="6.38389">
        <ele>2470</ele>
        <time>2020-07-07T08:34:28.000Z</time>
      </trkpt>
      <trkpt lat="44.41178" lon="6.38389">
        <ele>2470</ele>
        <time>2020-07-07T08:34:29.000Z</time>
      </trkpt>
      <trkpt lat="44.41178" lon="6.38389">
        <ele>2470</ele>
        <time>2020-07-07T08:34:30.000Z</time>
      </trkpt>
      <trkpt lat="44.41178" lon="6.38389">
        <ele>2470</ele>
        <time>2020-07-07T08:34:31.000Z</time>
      </trkpt>
      <trkpt lat="44.41178" lon="6.38389">
        <ele>2470</ele>
        <time>2020-07-07T08:34:32.000Z</time>
      </trkpt>
      <trkpt lat="44.41178" lon="6.38389">
        <ele>2470</ele>
        <time>2020-07-07T08:34:33.000Z</time>
      </trkpt>
      <trkpt lat="44.41178" lon="6.38389">
        <ele>2470</ele>
        <time>2020-07-07T08:34:34.000Z</time>
      </trkpt>
      <trkpt lat="44.41178" lon="6.3839">
        <ele>2470</ele>
        <time>2020-07-07T08:34:35.000Z</time>
      </trkpt>
      <trkpt lat="44.41178" lon="6.3839">
        <ele>2470</ele>
        <time>2020-07-07T08:34:36.000Z</time>
      </trkpt>
      <trkpt lat="44.41178" lon="6.3839">
        <ele>2470</ele>
        <time>2020-07-07T08:34:37.000Z</time>
      </trkpt>
      <trkpt lat="44.41178" lon="6.3839">
        <ele>2470</ele>
        <time>2020-07-07T08:34:38.000Z</time>
      </trkpt>
      <trkpt lat="44.41178" lon="6.3839">
        <ele>2470</ele>
        <time>2020-07-07T08:34:39.000Z</time>
      </trkpt>
      <trkpt lat="44.41178" lon="6.3839">
        <ele>2470</ele>
        <time>2020-07-07T08:34:40.000Z</time>
      </trkpt>
      <trkpt lat="44.41178" lon="6.3839">
        <ele>2470</ele>
        <time>2020-07-07T08:34:41.000Z</time>
      </trkpt>
      <trkpt lat="44.41178" lon="6.3839">
        <ele>2470</ele>
        <time>2020-07-07T08:34:42.000Z</time>
      </trkpt>
      <trkpt lat="44.41178" lon="6.3839">
        <ele>2470</ele>
        <time>2020-07-07T08:34:43.000Z</time>
      </trkpt>
      <trkpt lat="44.41178" lon="6.3839">
        <ele>2470</ele>
        <time>2020-07-07T08:34:44.000Z</time>
      </trkpt>
      <trkpt lat="44.41178" lon="6.3839">
        <ele>2470</ele>
        <time>2020-07-07T08:34:45.000Z</time>
      </trkpt>
      <trkpt lat="44.41178" lon="6.3839">
        <ele>2470</ele>
        <time>2020-07-07T08:34:46.000Z</time>
      </trkpt>
      <trkpt lat="44.41178" lon="6.3839">
        <ele>2470</ele>
        <time>2020-07-07T08:34:47.000Z</time>
      </trkpt>
      <trkpt lat="44.41178" lon="6.3839">
        <ele>2470</ele>
        <time>2020-07-07T08:34:48.000Z</time>
      </trkpt>
      <trkpt lat="44.41178" lon="6.3839">
        <ele>2470</ele>
        <time>2020-07-07T08:34:49.000Z</time>
      </trkpt>
      <trkpt lat="44.41178" lon="6.3839">
        <ele>2470</ele>
        <time>2020-07-07T08:34:50.000Z</time>
      </trkpt>
      <trkpt lat="44.41178" lon="6.3839">
        <ele>2470</ele>
        <time>2020-07-07T08:34:51.000Z</time>
      </trkpt>
      <trkpt lat="44.41178" lon="6.38391">
        <ele>2470</ele>
        <time>2020-07-07T08:34:52.000Z</time>
      </trkpt>
      <trkpt lat="44.41178" lon="6.38391">
        <ele>2470</ele>
        <time>2020-07-07T08:34:53.000Z</time>
      </trkpt>
      <trkpt lat="44.41178" lon="6.38391">
        <ele>2470</ele>
        <time>2020-07-07T08:34:54.000Z</time>
      </trkpt>
      <trkpt lat="44.41178" lon="6.38391">
        <ele>2470</ele>
        <time>2020-07-07T08:34:55.000Z</time>
      </trkpt>
      <trkpt lat="44.41178" lon="6.38391">
        <ele>2470</ele>
        <time>2020-07-07T08:34:56.000Z</time>
      </trkpt>
      <trkpt lat="44.41178" lon="6.38391">
        <ele>2470</ele>
        <time>2020-07-07T08:34:57.000Z</time>
      </trkpt>
      <trkpt lat="44.41178" lon="6.38391">
        <ele>2470</ele>
        <time>2020-07-07T08:34:58.000Z</time>
      </trkpt>
      <trkpt lat="44.41178" lon="6.38391">
        <ele>2470</ele>
        <time>2020-07-07T08:34:59.000Z</time>
      </trkpt>
      <trkpt lat="44.41178" lon="6.38391">
        <ele>2470</ele>
        <time>2020-07-07T08:35:00.000Z</time>
      </trkpt>
      <trkpt lat="44.41178" lon="6.38391">
        <ele>2470</ele>
        <time>2020-07-07T08:35:01.000Z</time>
      </trkpt>
      <trkpt lat="44.41178" lon="6.38391">
        <ele>2470</ele>
        <time>2020-07-07T08:35:02.000Z</time>
      </trkpt>
      <trkpt lat="44.41178" lon="6.38391">
        <ele>2470</ele>
        <time>2020-07-07T08:35:03.000Z</time>
      </trkpt>
      <trkpt lat="44.41179" lon="6.38391">
        <ele>2470</ele>
        <time>2020-07-07T08:35:04.000Z</time>
      </trkpt>
      <trkpt lat="44.41178" lon="6.38391">
        <ele>2470</ele>
        <time>2020-07-07T08:35:05.000Z</time>
      </trkpt>
      <trkpt lat="44.41178" lon="6.38391">
        <ele>2470</ele>
        <time>2020-07-07T08:35:06.000Z</time>
      </trkpt>
      <trkpt lat="44.41178" lon="6.38391">
        <ele>2470</ele>
        <time>2020-07-07T08:35:07.000Z</time>
      </trkpt>
      <trkpt lat="44.41178" lon="6.38391">
        <ele>2470</ele>
        <time>2020-07-07T08:35:08.000Z</time>
      </trkpt>
      <trkpt lat="44.41178" lon="6.38391">
        <ele>2470</ele>
        <time>2020-07-07T08:35:09.000Z</time>
      </trkpt>
      <trkpt lat="44.41178" lon="6.38391">
        <ele>2470</ele>
        <time>2020-07-07T08:35:10.000Z</time>
      </trkpt>
      <trkpt lat="44.41178" lon="6.38391">
        <ele>2470</ele>
        <time>2020-07-07T08:35:11.000Z</time>
      </trkpt>
      <trkpt lat="44.41178" lon="6.38391">
        <ele>2470</ele>
        <time>2020-07-07T08:35:12.000Z</time>
      </trkpt>
      <trkpt lat="44.41178" lon="6.38391">
        <ele>2470</ele>
        <time>2020-07-07T08:35:13.000Z</time>
      </trkpt>
      <trkpt lat="44.41178" lon="6.38391">
        <ele>2470</ele>
        <time>2020-07-07T08:35:14.000Z</time>
      </trkpt>
      <trkpt lat="44.41178" lon="6.38392">
        <ele>2470</ele>
        <time>2020-07-07T08:35:15.000Z</time>
      </trkpt>
      <trkpt lat="44.41177" lon="6.38392">
        <ele>2470</ele>
        <time>2020-07-07T08:35:16.000Z</time>
      </trkpt>
      <trkpt lat="44.41177" lon="6.38392">
        <ele>2470</ele>
        <time>2020-07-07T08:35:17.000Z</time>
      </trkpt>
      <trkpt lat="44.41177" lon="6.38392">
        <ele>2469</ele>
        <time>2020-07-07T08:35:18.000Z</time>
      </trkpt>
      <trkpt lat="44.41177" lon="6.38393">
        <ele>2469</ele>
        <time>2020-07-07T08:35:19.000Z</time>
      </trkpt>
      <trkpt lat="44.41177" lon="6.38393">
        <ele>2469</ele>
        <time>2020-07-07T08:35:20.000Z</time>
      </trkpt>
      <trkpt lat="44.41177" lon="6.38393">
        <ele>2469</ele>
        <time>2020-07-07T08:35:21.000Z</time>
      </trkpt>
      <trkpt lat="44.41176" lon="6.38393">
        <ele>2469</ele>
        <time>2020-07-07T08:35:22.000Z</time>
      </trkpt>
      <trkpt lat="44.41176" lon="6.38392">
        <ele>2469</ele>
        <time>2020-07-07T08:35:23.000Z</time>
      </trkpt>
      <trkpt lat="44.41175" lon="6.38393">
        <ele>2469</ele>
        <time>2020-07-07T08:35:24.000Z</time>
      </trkpt>
      <trkpt lat="44.41174" lon="6.38394">
        <ele>2469</ele>
        <time>2020-07-07T08:35:25.000Z</time>
      </trkpt>
      <trkpt lat="44.41173" lon="6.38394">
        <ele>2469</ele>
        <time>2020-07-07T08:35:26.000Z</time>
      </trkpt>
      <trkpt lat="44.41172" lon="6.38395">
        <ele>2469</ele>
        <time>2020-07-07T08:35:27.000Z</time>
      </trkpt>
      <trkpt lat="44.41171" lon="6.38396">
        <ele>2469</ele>
        <time>2020-07-07T08:35:28.000Z</time>
      </trkpt>
      <trkpt lat="44.4117" lon="6.38397">
        <ele>2469</ele>
        <time>2020-07-07T08:35:29.000Z</time>
      </trkpt>
      <trkpt lat="44.41169" lon="6.38398">
        <ele>2469</ele>
        <time>2020-07-07T08:35:30.000Z</time>
      </trkpt>
      <trkpt lat="44.41168" lon="6.38398">
        <ele>2469</ele>
        <time>2020-07-07T08:35:31.000Z</time>
      </trkpt>
      <trkpt lat="44.41167" lon="6.38399">
        <ele>2469</ele>
        <time>2020-07-07T08:35:32.000Z</time>
      </trkpt>
      <trkpt lat="44.41166" lon="6.38399">
        <ele>2469</ele>
        <time>2020-07-07T08:35:33.000Z</time>
      </trkpt>
      <trkpt lat="44.41165" lon="6.384">
        <ele>2469</ele>
        <time>2020-07-07T08:35:34.000Z</time>
      </trkpt>
      <trkpt lat="44.41164" lon="6.384">
        <ele>2469</ele>
        <time>2020-07-07T08:35:35.000Z</time>
      </trkpt>
      <trkpt lat="44.41163" lon="6.38401">
        <ele>2469</ele>
        <time>2020-07-07T08:35:36.000Z</time>
      </trkpt>
      <trkpt lat="44.41163" lon="6.38401">
        <ele>2469</ele>
        <time>2020-07-07T08:35:37.000Z</time>
      </trkpt>
      <trkpt lat="44.41162" lon="6.38402">
        <ele>2469</ele>
        <time>2020-07-07T08:35:38.000Z</time>
      </trkpt>
      <trkpt lat="44.41161" lon="6.38404">
        <ele>2469</ele>
        <time>2020-07-07T08:35:39.000Z</time>
      </trkpt>
      <trkpt lat="44.41161" lon="6.38404">
        <ele>2469</ele>
        <time>2020-07-07T08:35:40.000Z</time>
      </trkpt>
      <trkpt lat="44.4116" lon="6.38404">
        <ele>2470</ele>
        <time>2020-07-07T08:35:41.000Z</time>
      </trkpt>
      <trkpt lat="44.4116" lon="6.38406">
        <ele>2470</ele>
        <time>2020-07-07T08:35:42.000Z</time>
      </trkpt>
      <trkpt lat="44.41161" lon="6.38406">
        <ele>2470</ele>
        <time>2020-07-07T08:35:43.000Z</time>
      </trkpt>
      <trkpt lat="44.41161" lon="6.38406">
        <ele>2470</ele>
        <time>2020-07-07T08:35:44.000Z</time>
      </trkpt>
      <trkpt lat="44.41162" lon="6.38406">
        <ele>2470</ele>
        <time>2020-07-07T08:35:45.000Z</time>
      </trkpt>
      <trkpt lat="44.41162" lon="6.38406">
        <ele>2470</ele>
        <time>2020-07-07T08:35:46.000Z</time>
      </trkpt>
      <trkpt lat="44.41163" lon="6.38407">
        <ele>2471</ele>
        <time>2020-07-07T08:35:47.000Z</time>
      </trkpt>
      <trkpt lat="44.41163" lon="6.38407">
        <ele>2471</ele>
        <time>2020-07-07T08:35:48.000Z</time>
      </trkpt>
      <trkpt lat="44.41164" lon="6.38407">
        <ele>2471</ele>
        <time>2020-07-07T08:35:49.000Z</time>
      </trkpt>
      <trkpt lat="44.41165" lon="6.38407">
        <ele>2471</ele>
        <time>2020-07-07T08:35:50.000Z</time>
      </trkpt>
      <trkpt lat="44.41165" lon="6.38408">
        <ele>2471</ele>
        <time>2020-07-07T08:35:51.000Z</time>
      </trkpt>
      <trkpt lat="44.41166" lon="6.38408">
        <ele>2471</ele>
        <time>2020-07-07T08:35:52.000Z</time>
      </trkpt>
      <trkpt lat="44.41165" lon="6.38407">
        <ele>2471</ele>
        <time>2020-07-07T08:35:53.000Z</time>
      </trkpt>
      <trkpt lat="44.41165" lon="6.38407">
        <ele>2471</ele>
        <time>2020-07-07T08:35:54.000Z</time>
      </trkpt>
      <trkpt lat="44.41166" lon="6.38407">
        <ele>2471</ele>
        <time>2020-07-07T08:35:55.000Z</time>
      </trkpt>
      <trkpt lat="44.41167" lon="6.38407">
        <ele>2471</ele>
        <time>2020-07-07T08:35:56.000Z</time>
      </trkpt>
      <trkpt lat="44.41168" lon="6.38407">
        <ele>2471</ele>
        <time>2020-07-07T08:35:57.000Z</time>
      </trkpt>
      <trkpt lat="44.41168" lon="6.38407">
        <ele>2471</ele>
        <time>2020-07-07T08:35:58.000Z</time>
      </trkpt>
      <trkpt lat="44.4117" lon="6.38408">
        <ele>2471</ele>
        <time>2020-07-07T08:35:59.000Z</time>
      </trkpt>
      <trkpt lat="44.4117" lon="6.38408">
        <ele>2471</ele>
        <time>2020-07-07T08:36:00.000Z</time>
      </trkpt>
      <trkpt lat="44.4117" lon="6.38409">
        <ele>2472</ele>
        <time>2020-07-07T08:36:01.000Z</time>
      </trkpt>
      <trkpt lat="44.41171" lon="6.38409">
        <ele>2472</ele>
        <time>2020-07-07T08:36:02.000Z</time>
      </trkpt>
      <trkpt lat="44.41171" lon="6.38409">
        <ele>2472</ele>
        <time>2020-07-07T08:36:03.000Z</time>
      </trkpt>
      <trkpt lat="44.41171" lon="6.38409">
        <ele>2472</ele>
        <time>2020-07-07T08:36:04.000Z</time>
      </trkpt>
      <trkpt lat="44.41172" lon="6.3841">
        <ele>2472</ele>
        <time>2020-07-07T08:36:05.000Z</time>
      </trkpt>
      <trkpt lat="44.41172" lon="6.3841">
        <ele>2473</ele>
        <time>2020-07-07T08:36:06.000Z</time>
      </trkpt>
      <trkpt lat="44.41172" lon="6.3841">
        <ele>2473</ele>
        <time>2020-07-07T08:36:07.000Z</time>
      </trkpt>
      <trkpt lat="44.41173" lon="6.38411">
        <ele>2473</ele>
        <time>2020-07-07T08:36:08.000Z</time>
      </trkpt>
      <trkpt lat="44.41173" lon="6.38411">
        <ele>2473</ele>
        <time>2020-07-07T08:36:09.000Z</time>
      </trkpt>
      <trkpt lat="44.41174" lon="6.38412">
        <ele>2473</ele>
        <time>2020-07-07T08:36:10.000Z</time>
      </trkpt>
      <trkpt lat="44.41174" lon="6.38414">
        <ele>2474</ele>
        <time>2020-07-07T08:36:11.000Z</time>
      </trkpt>
      <trkpt lat="44.41174" lon="6.38414">
        <ele>2474</ele>
        <time>2020-07-07T08:36:12.000Z</time>
      </trkpt>
      <trkpt lat="44.41173" lon="6.38414">
        <ele>2474</ele>
        <time>2020-07-07T08:36:13.000Z</time>
      </trkpt>
      <trkpt lat="44.41173" lon="6.38414">
        <ele>2474</ele>
        <time>2020-07-07T08:36:14.000Z</time>
      </trkpt>
      <trkpt lat="44.41173" lon="6.38415">
        <ele>2474</ele>
        <time>2020-07-07T08:36:15.000Z</time>
      </trkpt>
      <trkpt lat="44.41172" lon="6.38416">
        <ele>2475</ele>
        <time>2020-07-07T08:36:16.000Z</time>
      </trkpt>
      <trkpt lat="44.41172" lon="6.38417">
        <ele>2475</ele>
        <time>2020-07-07T08:36:17.000Z</time>
      </trkpt>
      <trkpt lat="44.41172" lon="6.38418">
        <ele>2475</ele>
        <time>2020-07-07T08:36:18.000Z</time>
      </trkpt>
      <trkpt lat="44.41171" lon="6.38418">
        <ele>2475</ele>
        <time>2020-07-07T08:36:19.000Z</time>
      </trkpt>
      <trkpt lat="44.41171" lon="6.38419">
        <ele>2475</ele>
        <time>2020-07-07T08:36:20.000Z</time>
      </trkpt>
      <trkpt lat="44.4117" lon="6.38419">
        <ele>2475</ele>
        <time>2020-07-07T08:36:21.000Z</time>
      </trkpt>
      <trkpt lat="44.4117" lon="6.38419">
        <ele>2475</ele>
        <time>2020-07-07T08:36:22.000Z</time>
      </trkpt>
      <trkpt lat="44.41169" lon="6.38419">
        <ele>2475</ele>
        <time>2020-07-07T08:36:23.000Z</time>
      </trkpt>
      <trkpt lat="44.41169" lon="6.38419">
        <ele>2476</ele>
        <time>2020-07-07T08:36:24.000Z</time>
      </trkpt>
      <trkpt lat="44.41169" lon="6.38419">
        <ele>2476</ele>
        <time>2020-07-07T08:36:25.000Z</time>
      </trkpt>
      <trkpt lat="44.41169" lon="6.38419">
        <ele>2476</ele>
        <time>2020-07-07T08:36:26.000Z</time>
      </trkpt>
      <trkpt lat="44.41169" lon="6.38419">
        <ele>2476</ele>
        <time>2020-07-07T08:36:27.000Z</time>
      </trkpt>
      <trkpt lat="44.41169" lon="6.38419">
        <ele>2476</ele>
        <time>2020-07-07T08:36:28.000Z</time>
      </trkpt>
      <trkpt lat="44.41169" lon="6.38419">
        <ele>2476</ele>
        <time>2020-07-07T08:36:29.000Z</time>
      </trkpt>
      <trkpt lat="44.41169" lon="6.38419">
        <ele>2476</ele>
        <time>2020-07-07T08:36:30.000Z</time>
      </trkpt>
      <trkpt lat="44.41169" lon="6.38419">
        <ele>2476</ele>
        <time>2020-07-07T08:36:31.000Z</time>
      </trkpt>
      <trkpt lat="44.41169" lon="6.38419">
        <ele>2476</ele>
        <time>2020-07-07T08:36:32.000Z</time>
      </trkpt>
      <trkpt lat="44.41169" lon="6.38419">
        <ele>2476</ele>
        <time>2020-07-07T08:36:33.000Z</time>
      </trkpt>
      <trkpt lat="44.41169" lon="6.3842">
        <ele>2476</ele>
        <time>2020-07-07T08:36:34.000Z</time>
      </trkpt>
      <trkpt lat="44.41169" lon="6.3842">
        <ele>2476</ele>
        <time>2020-07-07T08:36:35.000Z</time>
      </trkpt>
      <trkpt lat="44.41169" lon="6.3842">
        <ele>2476</ele>
        <time>2020-07-07T08:36:36.000Z</time>
      </trkpt>
      <trkpt lat="44.41169" lon="6.3842">
        <ele>2476</ele>
        <time>2020-07-07T08:36:37.000Z</time>
      </trkpt>
      <trkpt lat="44.41169" lon="6.3842">
        <ele>2476</ele>
        <time>2020-07-07T08:36:38.000Z</time>
      </trkpt>
      <trkpt lat="44.41169" lon="6.3842">
        <ele>2476</ele>
        <time>2020-07-07T08:36:39.000Z</time>
      </trkpt>
      <trkpt lat="44.41169" lon="6.38419">
        <ele>2476</ele>
        <time>2020-07-07T08:36:40.000Z</time>
      </trkpt>
      <trkpt lat="44.41169" lon="6.38419">
        <ele>2475</ele>
        <time>2020-07-07T08:36:41.000Z</time>
      </trkpt>
      <trkpt lat="44.41169" lon="6.38419">
        <ele>2475</ele>
        <time>2020-07-07T08:36:42.000Z</time>
      </trkpt>
      <trkpt lat="44.4117" lon="6.38419">
        <ele>2475</ele>
        <time>2020-07-07T08:36:43.000Z</time>
      </trkpt>
      <trkpt lat="44.4117" lon="6.38419">
        <ele>2475</ele>
        <time>2020-07-07T08:36:44.000Z</time>
      </trkpt>
      <trkpt lat="44.4117" lon="6.38419">
        <ele>2475</ele>
        <time>2020-07-07T08:36:45.000Z</time>
      </trkpt>
      <trkpt lat="44.4117" lon="6.38419">
        <ele>2475</ele>
        <time>2020-07-07T08:36:46.000Z</time>
      </trkpt>
      <trkpt lat="44.4117" lon="6.38419">
        <ele>2475</ele>
        <time>2020-07-07T08:36:47.000Z</time>
      </trkpt>
      <trkpt lat="44.4117" lon="6.38419">
        <ele>2475</ele>
        <time>2020-07-07T08:36:48.000Z</time>
      </trkpt>
      <trkpt lat="44.4117" lon="6.38419">
        <ele>2476</ele>
        <time>2020-07-07T08:36:49.000Z</time>
      </trkpt>
      <trkpt lat="44.4117" lon="6.38419">
        <ele>2476</ele>
        <time>2020-07-07T08:36:50.000Z</time>
      </trkpt>
      <trkpt lat="44.41169" lon="6.38419">
        <ele>2476</ele>
        <time>2020-07-07T08:36:51.000Z</time>
      </trkpt>
      <trkpt lat="44.41169" lon="6.38419">
        <ele>2476</ele>
        <time>2020-07-07T08:36:52.000Z</time>
      </trkpt>
      <trkpt lat="44.41169" lon="6.3842">
        <ele>2476</ele>
        <time>2020-07-07T08:36:53.000Z</time>
      </trkpt>
      <trkpt lat="44.41169" lon="6.38419">
        <ele>2476</ele>
        <time>2020-07-07T08:36:54.000Z</time>
      </trkpt>
      <trkpt lat="44.41169" lon="6.38419">
        <ele>2476</ele>
        <time>2020-07-07T08:36:55.000Z</time>
      </trkpt>
      <trkpt lat="44.41169" lon="6.38419">
        <ele>2476</ele>
        <time>2020-07-07T08:36:56.000Z</time>
      </trkpt>
      <trkpt lat="44.41169" lon="6.38419">
        <ele>2476</ele>
        <time>2020-07-07T08:36:57.000Z</time>
      </trkpt>
      <trkpt lat="44.41169" lon="6.38419">
        <ele>2476</ele>
        <time>2020-07-07T08:36:58.000Z</time>
      </trkpt>
      <trkpt lat="44.41169" lon="6.38419">
        <ele>2476</ele>
        <time>2020-07-07T08:36:59.000Z</time>
      </trkpt>
      <trkpt lat="44.41169" lon="6.38419">
        <ele>2476</ele>
        <time>2020-07-07T08:37:00.000Z</time>
      </trkpt>
      <trkpt lat="44.41169" lon="6.38419">
        <ele>2476</ele>
        <time>2020-07-07T08:37:01.000Z</time>
      </trkpt>
      <trkpt lat="44.41169" lon="6.38419">
        <ele>2476</ele>
        <time>2020-07-07T08:37:02.000Z</time>
      </trkpt>
      <trkpt lat="44.41169" lon="6.38419">
        <ele>2476</ele>
        <time>2020-07-07T08:37:03.000Z</time>
      </trkpt>
      <trkpt lat="44.4117" lon="6.38419">
        <ele>2476</ele>
        <time>2020-07-07T08:37:04.000Z</time>
      </trkpt>
      <trkpt lat="44.4117" lon="6.38419">
        <ele>2476</ele>
        <time>2020-07-07T08:37:05.000Z</time>
      </trkpt>
      <trkpt lat="44.41169" lon="6.38419">
        <ele>2476</ele>
        <time>2020-07-07T08:37:06.000Z</time>
      </trkpt>
      <trkpt lat="44.41169" lon="6.38419">
        <ele>2476</ele>
        <time>2020-07-07T08:37:07.000Z</time>
      </trkpt>
      <trkpt lat="44.41169" lon="6.38419">
        <ele>2476</ele>
        <time>2020-07-07T08:37:08.000Z</time>
      </trkpt>
      <trkpt lat="44.4117" lon="6.38419">
        <ele>2476</ele>
        <time>2020-07-07T08:37:09.000Z</time>
      </trkpt>
      <trkpt lat="44.41169" lon="6.38419">
        <ele>2476</ele>
        <time>2020-07-07T08:37:10.000Z</time>
      </trkpt>
      <trkpt lat="44.41169" lon="6.38419">
        <ele>2476</ele>
        <time>2020-07-07T08:37:11.000Z</time>
      </trkpt>
      <trkpt lat="44.41169" lon="6.38419">
        <ele>2476</ele>
        <time>2020-07-07T08:37:12.000Z</time>
      </trkpt>
      <trkpt lat="44.41169" lon="6.38419">
        <ele>2476</ele>
        <time>2020-07-07T08:37:13.000Z</time>
      </trkpt>
      <trkpt lat="44.41169" lon="6.38419">
        <ele>2476</ele>
        <time>2020-07-07T08:37:14.000Z</time>
      </trkpt>
      <trkpt lat="44.41169" lon="6.38419">
        <ele>2476</ele>
        <time>2020-07-07T08:37:15.000Z</time>
      </trkpt>
      <trkpt lat="44.41169" lon="6.38419">
        <ele>2476</ele>
        <time>2020-07-07T08:37:16.000Z</time>
      </trkpt>
      <trkpt lat="44.41169" lon="6.38419">
        <ele>2476</ele>
        <time>2020-07-07T08:37:17.000Z</time>
      </trkpt>
      <trkpt lat="44.41169" lon="6.38419">
        <ele>2476</ele>
        <time>2020-07-07T08:37:18.000Z</time>
      </trkpt>
      <trkpt lat="44.41169" lon="6.38419">
        <ele>2476</ele>
        <time>2020-07-07T08:37:19.000Z</time>
      </trkpt>
      <trkpt lat="44.41169" lon="6.38419">
        <ele>2476</ele>
        <time>2020-07-07T08:37:20.000Z</time>
      </trkpt>
      <trkpt lat="44.41169" lon="6.38419">
        <ele>2476</ele>
        <time>2020-07-07T08:37:21.000Z</time>
      </trkpt>
      <trkpt lat="44.41169" lon="6.38419">
        <ele>2476</ele>
        <time>2020-07-07T08:37:22.000Z</time>
      </trkpt>
      <trkpt lat="44.41169" lon="6.38419">
        <ele>2476</ele>
        <time>2020-07-07T08:37:23.000Z</time>
      </trkpt>
      <trkpt lat="44.41169" lon="6.38419">
        <ele>2476</ele>
        <time>2020-07-07T08:37:24.000Z</time>
      </trkpt>
      <trkpt lat="44.41169" lon="6.38419">
        <ele>2476</ele>
        <time>2020-07-07T08:37:25.000Z</time>
      </trkpt>
      <trkpt lat="44.41169" lon="6.38419">
        <ele>2476</ele>
        <time>2020-07-07T08:37:26.000Z</time>
      </trkpt>
      <trkpt lat="44.41169" lon="6.38419">
        <ele>2476</ele>
        <time>2020-07-07T08:37:27.000Z</time>
      </trkpt>
      <trkpt lat="44.41169" lon="6.38419">
        <ele>2476</ele>
        <time>2020-07-07T08:37:28.000Z</time>
      </trkpt>
      <trkpt lat="44.41169" lon="6.38419">
        <ele>2476</ele>
        <time>2020-07-07T08:37:29.000Z</time>
      </trkpt>
      <trkpt lat="44.41169" lon="6.38419">
        <ele>2476</ele>
        <time>2020-07-07T08:37:30.000Z</time>
      </trkpt>
      <trkpt lat="44.41169" lon="6.38419">
        <ele>2476</ele>
        <time>2020-07-07T08:37:31.000Z</time>
      </trkpt>
      <trkpt lat="44.41169" lon="6.38419">
        <ele>2476</ele>
        <time>2020-07-07T08:37:32.000Z</time>
      </trkpt>
      <trkpt lat="44.41169" lon="6.38419">
        <ele>2476</ele>
        <time>2020-07-07T08:37:33.000Z</time>
      </trkpt>
      <trkpt lat="44.41169" lon="6.38419">
        <ele>2476</ele>
        <time>2020-07-07T08:37:34.000Z</time>
      </trkpt>
      <trkpt lat="44.41169" lon="6.38419">
        <ele>2476</ele>
        <time>2020-07-07T08:37:35.000Z</time>
      </trkpt>
      <trkpt lat="44.41169" lon="6.38419">
        <ele>2476</ele>
        <time>2020-07-07T08:37:36.000Z</time>
      </trkpt>
      <trkpt lat="44.41168" lon="6.3842">
        <ele>2476</ele>
        <time>2020-07-07T08:37:37.000Z</time>
      </trkpt>
      <trkpt lat="44.41168" lon="6.38419">
        <ele>2476</ele>
        <time>2020-07-07T08:37:38.000Z</time>
      </trkpt>
      <trkpt lat="44.41169" lon="6.38419">
        <ele>2476</ele>
        <time>2020-07-07T08:37:39.000Z</time>
      </trkpt>
      <trkpt lat="44.41169" lon="6.38419">
        <ele>2476</ele>
        <time>2020-07-07T08:37:40.000Z</time>
      </trkpt>
      <trkpt lat="44.41169" lon="6.38419">
        <ele>2476</ele>
        <time>2020-07-07T08:37:41.000Z</time>
      </trkpt>
      <trkpt lat="44.41169" lon="6.38419">
        <ele>2476</ele>
        <time>2020-07-07T08:37:42.000Z</time>
      </trkpt>
      <trkpt lat="44.41169" lon="6.38419">
        <ele>2476</ele>
        <time>2020-07-07T08:37:43.000Z</time>
      </trkpt>
      <trkpt lat="44.41169" lon="6.38419">
        <ele>2476</ele>
        <time>2020-07-07T08:37:44.000Z</time>
      </trkpt>
      <trkpt lat="44.41169" lon="6.38419">
        <ele>2476</ele>
        <time>2020-07-07T08:37:45.000Z</time>
      </trkpt>
      <trkpt lat="44.41169" lon="6.38419">
        <ele>2476</ele>
        <time>2020-07-07T08:37:46.000Z</time>
      </trkpt>
      <trkpt lat="44.41169" lon="6.38419">
        <ele>2476</ele>
        <time>2020-07-07T08:37:47.000Z</time>
      </trkpt>
      <trkpt lat="44.41169" lon="6.38419">
        <ele>2476</ele>
        <time>2020-07-07T08:37:48.000Z</time>
      </trkpt>
      <trkpt lat="44.41169" lon="6.38419">
        <ele>2476</ele>
        <time>2020-07-07T08:37:49.000Z</time>
      </trkpt>
      <trkpt lat="44.41169" lon="6.38419">
        <ele>2476</ele>
        <time>2020-07-07T08:37:50.000Z</time>
      </trkpt>
      <trkpt lat="44.41169" lon="6.38419">
        <ele>2476</ele>
        <time>2020-07-07T08:37:51.000Z</time>
      </trkpt>
      <trkpt lat="44.41169" lon="6.38419">
        <ele>2476</ele>
        <time>2020-07-07T08:37:52.000Z</time>
      </trkpt>
      <trkpt lat="44.41169" lon="6.38419">
        <ele>2476</ele>
        <time>2020-07-07T08:37:53.000Z</time>
      </trkpt>
      <trkpt lat="44.41169" lon="6.38419">
        <ele>2476</ele>
        <time>2020-07-07T08:37:54.000Z</time>
      </trkpt>
      <trkpt lat="44.41169" lon="6.38419">
        <ele>2476</ele>
        <time>2020-07-07T08:37:55.000Z</time>
      </trkpt>
      <trkpt lat="44.41169" lon="6.38419">
        <ele>2476</ele>
        <time>2020-07-07T08:37:56.000Z</time>
      </trkpt>
      <trkpt lat="44.41169" lon="6.38419">
        <ele>2476</ele>
        <time>2020-07-07T08:37:57.000Z</time>
      </trkpt>
      <trkpt lat="44.41169" lon="6.38419">
        <ele>2476</ele>
        <time>2020-07-07T08:37:58.000Z</time>
      </trkpt>
      <trkpt lat="44.41169" lon="6.38419">
        <ele>2476</ele>
        <time>2020-07-07T08:37:59.000Z</time>
      </trkpt>
      <trkpt lat="44.41169" lon="6.38419">
        <ele>2476</ele>
        <time>2020-07-07T08:38:00.000Z</time>
      </trkpt>
      <trkpt lat="44.41169" lon="6.38419">
        <ele>2476</ele>
        <time>2020-07-07T08:38:01.000Z</time>
      </trkpt>
      <trkpt lat="44.41169" lon="6.38419">
        <ele>2476</ele>
        <time>2020-07-07T08:38:02.000Z</time>
      </trkpt>
      <trkpt lat="44.41169" lon="6.38419">
        <ele>2476</ele>
        <time>2020-07-07T08:38:03.000Z</time>
      </trkpt>
      <trkpt lat="44.41169" lon="6.38419">
        <ele>2476</ele>
        <time>2020-07-07T08:38:04.000Z</time>
      </trkpt>
      <trkpt lat="44.41169" lon="6.38419">
        <ele>2476</ele>
        <time>2020-07-07T08:38:05.000Z</time>
      </trkpt>
      <trkpt lat="44.41169" lon="6.38419">
        <ele>2476</ele>
        <time>2020-07-07T08:38:06.000Z</time>
      </trkpt>
      <trkpt lat="44.41169" lon="6.38419">
        <ele>2476</ele>
        <time>2020-07-07T08:38:07.000Z</time>
      </trkpt>
      <trkpt lat="44.41169" lon="6.38419">
        <ele>2476</ele>
        <time>2020-07-07T08:38:08.000Z</time>
      </trkpt>
      <trkpt lat="44.41169" lon="6.38419">
        <ele>2476</ele>
        <time>2020-07-07T08:38:09.000Z</time>
      </trkpt>
      <trkpt lat="44.41169" lon="6.38419">
        <ele>2476</ele>
        <time>2020-07-07T08:38:10.000Z</time>
      </trkpt>
      <trkpt lat="44.41169" lon="6.38419">
        <ele>2476</ele>
        <time>2020-07-07T08:38:11.000Z</time>
      </trkpt>
      <trkpt lat="44.41169" lon="6.38419">
        <ele>2476</ele>
        <time>2020-07-07T08:38:12.000Z</time>
      </trkpt>
      <trkpt lat="44.41169" lon="6.38419">
        <ele>2476</ele>
        <time>2020-07-07T08:38:13.000Z</time>
      </trkpt>
      <trkpt lat="44.41169" lon="6.38419">
        <ele>2476</ele>
        <time>2020-07-07T08:38:14.000Z</time>
      </trkpt>
      <trkpt lat="44.41169" lon="6.38419">
        <ele>2476</ele>
        <time>2020-07-07T08:38:15.000Z</time>
      </trkpt>
      <trkpt lat="44.41169" lon="6.38419">
        <ele>2476</ele>
        <time>2020-07-07T08:38:16.000Z</time>
      </trkpt>
      <trkpt lat="44.41169" lon="6.38419">
        <ele>2476</ele>
        <time>2020-07-07T08:38:17.000Z</time>
      </trkpt>
      <trkpt lat="44.41169" lon="6.38419">
        <ele>2476</ele>
        <time>2020-07-07T08:38:18.000Z</time>
      </trkpt>
      <trkpt lat="44.41169" lon="6.38419">
        <ele>2476</ele>
        <time>2020-07-07T08:38:19.000Z</time>
      </trkpt>
      <trkpt lat="44.41169" lon="6.38419">
        <ele>2476</ele>
        <time>2020-07-07T08:38:20.000Z</time>
      </trkpt>
      <trkpt lat="44.41169" lon="6.38419">
        <ele>2476</ele>
        <time>2020-07-07T08:38:21.000Z</time>
      </trkpt>
      <trkpt lat="44.41169" lon="6.38419">
        <ele>2476</ele>
        <time>2020-07-07T08:38:22.000Z</time>
      </trkpt>
      <trkpt lat="44.41169" lon="6.38419">
        <ele>2476</ele>
        <time>2020-07-07T08:38:23.000Z</time>
      </trkpt>
      <trkpt lat="44.4117" lon="6.38419">
        <ele>2476</ele>
        <time>2020-07-07T08:38:24.000Z</time>
      </trkpt>
      <trkpt lat="44.4117" lon="6.38419">
        <ele>2476</ele>
        <time>2020-07-07T08:38:25.000Z</time>
      </trkpt>
      <trkpt lat="44.4117" lon="6.38419">
        <ele>2476</ele>
        <time>2020-07-07T08:38:26.000Z</time>
      </trkpt>
      <trkpt lat="44.4117" lon="6.38419">
        <ele>2476</ele>
        <time>2020-07-07T08:38:27.000Z</time>
      </trkpt>
      <trkpt lat="44.4117" lon="6.38419">
        <ele>2476</ele>
        <time>2020-07-07T08:38:28.000Z</time>
      </trkpt>
      <trkpt lat="44.4117" lon="6.38419">
        <ele>2476</ele>
        <time>2020-07-07T08:38:29.000Z</time>
      </trkpt>
      <trkpt lat="44.4117" lon="6.38419">
        <ele>2476</ele>
        <time>2020-07-07T08:38:30.000Z</time>
      </trkpt>
      <trkpt lat="44.4117" lon="6.38419">
        <ele>2476</ele>
        <time>2020-07-07T08:38:31.000Z</time>
      </trkpt>
      <trkpt lat="44.4117" lon="6.38419">
        <ele>2476</ele>
        <time>2020-07-07T08:38:32.000Z</time>
      </trkpt>
      <trkpt lat="44.4117" lon="6.38419">
        <ele>2476</ele>
        <time>2020-07-07T08:38:33.000Z</time>
      </trkpt>
      <trkpt lat="44.4117" lon="6.38419">
        <ele>2476</ele>
        <time>2020-07-07T08:38:34.000Z</time>
      </trkpt>
      <trkpt lat="44.4117" lon="6.38419">
        <ele>2476</ele>
        <time>2020-07-07T08:38:35.000Z</time>
      </trkpt>
      <trkpt lat="44.4117" lon="6.38419">
        <ele>2476</ele>
        <time>2020-07-07T08:38:36.000Z</time>
      </trkpt>
      <trkpt lat="44.4117" lon="6.38419">
        <ele>2476</ele>
        <time>2020-07-07T08:38:37.000Z</time>
      </trkpt>
      <trkpt lat="44.4117" lon="6.38419">
        <ele>2476</ele>
        <time>2020-07-07T08:38:38.000Z</time>
      </trkpt>
      <trkpt lat="44.4117" lon="6.38419">
        <ele>2476</ele>
        <time>2020-07-07T08:38:39.000Z</time>
      </trkpt>
      <trkpt lat="44.4117" lon="6.38419">
        <ele>2476</ele>
        <time>2020-07-07T08:38:40.000Z</time>
      </trkpt>
      <trkpt lat="44.4117" lon="6.38419">
        <ele>2476</ele>
        <time>2020-07-07T08:38:41.000Z</time>
      </trkpt>
      <trkpt lat="44.4117" lon="6.38419">
        <ele>2476</ele>
        <time>2020-07-07T08:38:42.000Z</time>
      </trkpt>
      <trkpt lat="44.4117" lon="6.38419">
        <ele>2476</ele>
        <time>2020-07-07T08:38:43.000Z</time>
      </trkpt>
      <trkpt lat="44.4117" lon="6.38419">
        <ele>2476</ele>
        <time>2020-07-07T08:38:44.000Z</time>
      </trkpt>
      <trkpt lat="44.4117" lon="6.38419">
        <ele>2476</ele>
        <time>2020-07-07T08:38:45.000Z</time>
      </trkpt>
      <trkpt lat="44.4117" lon="6.38419">
        <ele>2476</ele>
        <time>2020-07-07T08:38:46.000Z</time>
      </trkpt>
      <trkpt lat="44.4117" lon="6.38419">
        <ele>2476</ele>
        <time>2020-07-07T08:38:47.000Z</time>
      </trkpt>
      <trkpt lat="44.4117" lon="6.38419">
        <ele>2476</ele>
        <time>2020-07-07T08:38:48.000Z</time>
      </trkpt>
      <trkpt lat="44.4117" lon="6.38419">
        <ele>2476</ele>
        <time>2020-07-07T08:38:49.000Z</time>
      </trkpt>
      <trkpt lat="44.4117" lon="6.38419">
        <ele>2476</ele>
        <time>2020-07-07T08:38:50.000Z</time>
      </trkpt>
      <trkpt lat="44.4117" lon="6.38419">
        <ele>2476</ele>
        <time>2020-07-07T08:38:51.000Z</time>
      </trkpt>
      <trkpt lat="44.4117" lon="6.38419">
        <ele>2476</ele>
        <time>2020-07-07T08:38:52.000Z</time>
      </trkpt>
      <trkpt lat="44.4117" lon="6.38419">
        <ele>2476</ele>
        <time>2020-07-07T08:38:53.000Z</time>
      </trkpt>
      <trkpt lat="44.4117" lon="6.38419">
        <ele>2476</ele>
        <time>2020-07-07T08:38:54.000Z</time>
      </trkpt>
      <trkpt lat="44.4117" lon="6.38419">
        <ele>2476</ele>
        <time>2020-07-07T08:38:55.000Z</time>
      </trkpt>
      <trkpt lat="44.4117" lon="6.38419">
        <ele>2476</ele>
        <time>2020-07-07T08:38:56.000Z</time>
      </trkpt>
      <trkpt lat="44.4117" lon="6.38419">
        <ele>2476</ele>
        <time>2020-07-07T08:38:57.000Z</time>
      </trkpt>
      <trkpt lat="44.4117" lon="6.38419">
        <ele>2476</ele>
        <time>2020-07-07T08:38:58.000Z</time>
      </trkpt>
      <trkpt lat="44.4117" lon="6.38419">
        <ele>2476</ele>
        <time>2020-07-07T08:38:59.000Z</time>
      </trkpt>
      <trkpt lat="44.4117" lon="6.3842">
        <ele>2476</ele>
        <time>2020-07-07T08:39:00.000Z</time>
      </trkpt>
      <trkpt lat="44.4117" lon="6.3842">
        <ele>2476</ele>
        <time>2020-07-07T08:39:01.000Z</time>
      </trkpt>
      <trkpt lat="44.4117" lon="6.38419">
        <ele>2476</ele>
        <time>2020-07-07T08:39:02.000Z</time>
      </trkpt>
      <trkpt lat="44.4117" lon="6.38419">
        <ele>2476</ele>
        <time>2020-07-07T08:39:03.000Z</time>
      </trkpt>
      <trkpt lat="44.4117" lon="6.38419">
        <ele>2476</ele>
        <time>2020-07-07T08:39:04.000Z</time>
      </trkpt>
      <trkpt lat="44.4117" lon="6.38419">
        <ele>2476</ele>
        <time>2020-07-07T08:39:05.000Z</time>
      </trkpt>
      <trkpt lat="44.4117" lon="6.38419">
        <ele>2476</ele>
        <time>2020-07-07T08:39:06.000Z</time>
      </trkpt>
      <trkpt lat="44.4117" lon="6.38419">
        <ele>2476</ele>
        <time>2020-07-07T08:39:07.000Z</time>
      </trkpt>
      <trkpt lat="44.4117" lon="6.38419">
        <ele>2476</ele>
        <time>2020-07-07T08:39:08.000Z</time>
      </trkpt>
      <trkpt lat="44.4117" lon="6.38419">
        <ele>2476</ele>
        <time>2020-07-07T08:39:09.000Z</time>
      </trkpt>
      <trkpt lat="44.4117" lon="6.38419">
        <ele>2476</ele>
        <time>2020-07-07T08:39:10.000Z</time>
      </trkpt>
      <trkpt lat="44.4117" lon="6.38419">
        <ele>2476</ele>
        <time>2020-07-07T08:39:11.000Z</time>
      </trkpt>
      <trkpt lat="44.4117" lon="6.38419">
        <ele>2476</ele>
        <time>2020-07-07T08:39:12.000Z</time>
      </trkpt>
      <trkpt lat="44.4117" lon="6.38419">
        <ele>2476</ele>
        <time>2020-07-07T08:39:13.000Z</time>
      </trkpt>
      <trkpt lat="44.4117" lon="6.38419">
        <ele>2476</ele>
        <time>2020-07-07T08:39:14.000Z</time>
      </trkpt>
      <trkpt lat="44.4117" lon="6.38419">
        <ele>2476</ele>
        <time>2020-07-07T08:39:15.000Z</time>
      </trkpt>
      <trkpt lat="44.4117" lon="6.38419">
        <ele>2476</ele>
        <time>2020-07-07T08:39:16.000Z</time>
      </trkpt>
      <trkpt lat="44.4117" lon="6.38419">
        <ele>2476</ele>
        <time>2020-07-07T08:39:17.000Z</time>
      </trkpt>
      <trkpt lat="44.4117" lon="6.38419">
        <ele>2477</ele>
        <time>2020-07-07T08:39:18.000Z</time>
      </trkpt>
      <trkpt lat="44.4117" lon="6.38419">
        <ele>2477</ele>
        <time>2020-07-07T08:39:19.000Z</time>
      </trkpt>
      <trkpt lat="44.4117" lon="6.38419">
        <ele>2477</ele>
        <time>2020-07-07T08:39:20.000Z</time>
      </trkpt>
      <trkpt lat="44.4117" lon="6.38419">
        <ele>2477</ele>
        <time>2020-07-07T08:39:21.000Z</time>
      </trkpt>
      <trkpt lat="44.4117" lon="6.38419">
        <ele>2477</ele>
        <time>2020-07-07T08:39:22.000Z</time>
      </trkpt>
      <trkpt lat="44.4117" lon="6.38419">
        <ele>2477</ele>
        <time>2020-07-07T08:39:23.000Z</time>
      </trkpt>
      <trkpt lat="44.4117" lon="6.38419">
        <ele>2477</ele>
        <time>2020-07-07T08:39:24.000Z</time>
      </trkpt>
      <trkpt lat="44.4117" lon="6.38419">
        <ele>2477</ele>
        <time>2020-07-07T08:39:25.000Z</time>
      </trkpt>
      <trkpt lat="44.4117" lon="6.38419">
        <ele>2477</ele>
        <time>2020-07-07T08:39:26.000Z</time>
      </trkpt>
      <trkpt lat="44.4117" lon="6.38419">
        <ele>2477</ele>
        <time>2020-07-07T08:39:27.000Z</time>
      </trkpt>
      <trkpt lat="44.4117" lon="6.38419">
        <ele>2477</ele>
        <time>2020-07-07T08:39:28.000Z</time>
      </trkpt>
      <trkpt lat="44.4117" lon="6.38419">
        <ele>2477</ele>
        <time>2020-07-07T08:39:29.000Z</time>
      </trkpt>
      <trkpt lat="44.4117" lon="6.38419">
        <ele>2477</ele>
        <time>2020-07-07T08:39:30.000Z</time>
      </trkpt>
      <trkpt lat="44.4117" lon="6.38419">
        <ele>2477</ele>
        <time>2020-07-07T08:39:31.000Z</time>
      </trkpt>
      <trkpt lat="44.4117" lon="6.38419">
        <ele>2477</ele>
        <time>2020-07-07T08:39:32.000Z</time>
      </trkpt>
      <trkpt lat="44.4117" lon="6.38419">
        <ele>2477</ele>
        <time>2020-07-07T08:39:33.000Z</time>
      </trkpt>
      <trkpt lat="44.4117" lon="6.38419">
        <ele>2477</ele>
        <time>2020-07-07T08:39:34.000Z</time>
      </trkpt>
      <trkpt lat="44.4117" lon="6.38419">
        <ele>2477</ele>
        <time>2020-07-07T08:39:35.000Z</time>
      </trkpt>
      <trkpt lat="44.4117" lon="6.38419">
        <ele>2477</ele>
        <time>2020-07-07T08:39:36.000Z</time>
      </trkpt>
      <trkpt lat="44.4117" lon="6.38419">
        <ele>2477</ele>
        <time>2020-07-07T08:39:37.000Z</time>
      </trkpt>
      <trkpt lat="44.4117" lon="6.38419">
        <ele>2477</ele>
        <time>2020-07-07T08:39:38.000Z</time>
      </trkpt>
      <trkpt lat="44.4117" lon="6.38419">
        <ele>2477</ele>
        <time>2020-07-07T08:39:39.000Z</time>
      </trkpt>
      <trkpt lat="44.4117" lon="6.38419">
        <ele>2477</ele>
        <time>2020-07-07T08:39:40.000Z</time>
      </trkpt>
      <trkpt lat="44.4117" lon="6.38419">
        <ele>2477</ele>
        <time>2020-07-07T08:39:41.000Z</time>
      </trkpt>
      <trkpt lat="44.4117" lon="6.38419">
        <ele>2477</ele>
        <time>2020-07-07T08:39:42.000Z</time>
      </trkpt>
      <trkpt lat="44.4117" lon="6.38419">
        <ele>2477</ele>
        <time>2020-07-07T08:39:43.000Z</time>
      </trkpt>
      <trkpt lat="44.4117" lon="6.38419">
        <ele>2477</ele>
        <time>2020-07-07T08:39:44.000Z</time>
      </trkpt>
      <trkpt lat="44.4117" lon="6.38419">
        <ele>2477</ele>
        <time>2020-07-07T08:39:45.000Z</time>
      </trkpt>
      <trkpt lat="44.4117" lon="6.38419">
        <ele>2477</ele>
        <time>2020-07-07T08:39:46.000Z</time>
      </trkpt>
      <trkpt lat="44.4117" lon="6.38419">
        <ele>2477</ele>
        <time>2020-07-07T08:39:47.000Z</time>
      </trkpt>
      <trkpt lat="44.4117" lon="6.38419">
        <ele>2477</ele>
        <time>2020-07-07T08:39:48.000Z</time>
      </trkpt>
      <trkpt lat="44.4117" lon="6.38419">
        <ele>2477</ele>
        <time>2020-07-07T08:39:49.000Z</time>
      </trkpt>
      <trkpt lat="44.4117" lon="6.38419">
        <ele>2477</ele>
        <time>2020-07-07T08:39:50.000Z</time>
      </trkpt>
      <trkpt lat="44.4117" lon="6.38419">
        <ele>2477</ele>
        <time>2020-07-07T08:39:51.000Z</time>
      </trkpt>
      <trkpt lat="44.4117" lon="6.38419">
        <ele>2477</ele>
        <time>2020-07-07T08:39:52.000Z</time>
      </trkpt>
      <trkpt lat="44.4117" lon="6.38419">
        <ele>2477</ele>
        <time>2020-07-07T08:39:53.000Z</time>
      </trkpt>
      <trkpt lat="44.4117" lon="6.38419">
        <ele>2477</ele>
        <time>2020-07-07T08:39:54.000Z</time>
      </trkpt>
      <trkpt lat="44.4117" lon="6.38419">
        <ele>2477</ele>
        <time>2020-07-07T08:39:55.000Z</time>
      </trkpt>
      <trkpt lat="44.4117" lon="6.38419">
        <ele>2477</ele>
        <time>2020-07-07T08:39:56.000Z</time>
      </trkpt>
      <trkpt lat="44.4117" lon="6.38419">
        <ele>2477</ele>
        <time>2020-07-07T08:39:57.000Z</time>
      </trkpt>
      <trkpt lat="44.4117" lon="6.38419">
        <ele>2477</ele>
        <time>2020-07-07T08:39:58.000Z</time>
      </trkpt>
      <trkpt lat="44.4117" lon="6.38419">
        <ele>2477</ele>
        <time>2020-07-07T08:39:59.000Z</time>
      </trkpt>
      <trkpt lat="44.4117" lon="6.38419">
        <ele>2477</ele>
        <time>2020-07-07T08:40:00.000Z</time>
      </trkpt>
      <trkpt lat="44.4117" lon="6.38419">
        <ele>2477</ele>
        <time>2020-07-07T08:40:01.000Z</time>
      </trkpt>
      <trkpt lat="44.4117" lon="6.38419">
        <ele>2477</ele>
        <time>2020-07-07T08:40:02.000Z</time>
      </trkpt>
      <trkpt lat="44.4117" lon="6.38419">
        <ele>2477</ele>
        <time>2020-07-07T08:40:03.000Z</time>
      </trkpt>
      <trkpt lat="44.4117" lon="6.38419">
        <ele>2477</ele>
        <time>2020-07-07T08:40:04.000Z</time>
      </trkpt>
      <trkpt lat="44.4117" lon="6.38419">
        <ele>2477</ele>
        <time>2020-07-07T08:40:05.000Z</time>
      </trkpt>
      <trkpt lat="44.4117" lon="6.38419">
        <ele>2477</ele>
        <time>2020-07-07T08:40:06.000Z</time>
      </trkpt>
      <trkpt lat="44.4117" lon="6.38419">
        <ele>2477</ele>
        <time>2020-07-07T08:40:07.000Z</time>
      </trkpt>
      <trkpt lat="44.4117" lon="6.38419">
        <ele>2477</ele>
        <time>2020-07-07T08:40:08.000Z</time>
      </trkpt>
      <trkpt lat="44.4117" lon="6.38419">
        <ele>2477</ele>
        <time>2020-07-07T08:40:09.000Z</time>
      </trkpt>
      <trkpt lat="44.4117" lon="6.38419">
        <ele>2477</ele>
        <time>2020-07-07T08:40:10.000Z</time>
      </trkpt>
      <trkpt lat="44.4117" lon="6.38419">
        <ele>2477</ele>
        <time>2020-07-07T08:40:11.000Z</time>
      </trkpt>
      <trkpt lat="44.4117" lon="6.38419">
        <ele>2477</ele>
        <time>2020-07-07T08:40:12.000Z</time>
      </trkpt>
      <trkpt lat="44.4117" lon="6.38419">
        <ele>2477</ele>
        <time>2020-07-07T08:40:13.000Z</time>
      </trkpt>
      <trkpt lat="44.4117" lon="6.38419">
        <ele>2477</ele>
        <time>2020-07-07T08:40:14.000Z</time>
      </trkpt>
      <trkpt lat="44.4117" lon="6.38419">
        <ele>2477</ele>
        <time>2020-07-07T08:40:15.000Z</time>
      </trkpt>
      <trkpt lat="44.4117" lon="6.38419">
        <ele>2477</ele>
        <time>2020-07-07T08:40:16.000Z</time>
      </trkpt>
      <trkpt lat="44.4117" lon="6.38419">
        <ele>2477</ele>
        <time>2020-07-07T08:40:17.000Z</time>
      </trkpt>
      <trkpt lat="44.4117" lon="6.38419">
        <ele>2477</ele>
        <time>2020-07-07T08:40:18.000Z</time>
      </trkpt>
      <trkpt lat="44.4117" lon="6.38419">
        <ele>2477</ele>
        <time>2020-07-07T08:40:19.000Z</time>
      </trkpt>
      <trkpt lat="44.4117" lon="6.38419">
        <ele>2477</ele>
        <time>2020-07-07T08:40:20.000Z</time>
      </trkpt>
      <trkpt lat="44.4117" lon="6.38419">
        <ele>2477</ele>
        <time>2020-07-07T08:40:21.000Z</time>
      </trkpt>
      <trkpt lat="44.4117" lon="6.38419">
        <ele>2477</ele>
        <time>2020-07-07T08:40:22.000Z</time>
      </trkpt>
      <trkpt lat="44.4117" lon="6.38419">
        <ele>2477</ele>
        <time>2020-07-07T08:40:23.000Z</time>
      </trkpt>
      <trkpt lat="44.4117" lon="6.38419">
        <ele>2477</ele>
        <time>2020-07-07T08:40:24.000Z</time>
      </trkpt>
      <trkpt lat="44.4117" lon="6.38419">
        <ele>2477</ele>
        <time>2020-07-07T08:40:25.000Z</time>
      </trkpt>
      <trkpt lat="44.4117" lon="6.38419">
        <ele>2477</ele>
        <time>2020-07-07T08:40:26.000Z</time>
      </trkpt>
      <trkpt lat="44.4117" lon="6.38419">
        <ele>2477</ele>
        <time>2020-07-07T08:40:27.000Z</time>
      </trkpt>
      <trkpt lat="44.4117" lon="6.38419">
        <ele>2477</ele>
        <time>2020-07-07T08:40:28.000Z</time>
      </trkpt>
      <trkpt lat="44.4117" lon="6.38419">
        <ele>2477</ele>
        <time>2020-07-07T08:40:29.000Z</time>
      </trkpt>
      <trkpt lat="44.4117" lon="6.38419">
        <ele>2477</ele>
        <time>2020-07-07T08:40:30.000Z</time>
      </trkpt>
      <trkpt lat="44.4117" lon="6.38419">
        <ele>2477</ele>
        <time>2020-07-07T08:40:31.000Z</time>
      </trkpt>
      <trkpt lat="44.4117" lon="6.38419">
        <ele>2477</ele>
        <time>2020-07-07T08:40:32.000Z</time>
      </trkpt>
      <trkpt lat="44.4117" lon="6.38419">
        <ele>2477</ele>
        <time>2020-07-07T08:40:33.000Z</time>
      </trkpt>
      <trkpt lat="44.4117" lon="6.38419">
        <ele>2477</ele>
        <time>2020-07-07T08:40:34.000Z</time>
      </trkpt>
      <trkpt lat="44.4117" lon="6.38419">
        <ele>2477</ele>
        <time>2020-07-07T08:40:35.000Z</time>
      </trkpt>
      <trkpt lat="44.4117" lon="6.38419">
        <ele>2477</ele>
        <time>2020-07-07T08:40:36.000Z</time>
      </trkpt>
      <trkpt lat="44.4117" lon="6.38419">
        <ele>2477</ele>
        <time>2020-07-07T08:40:37.000Z</time>
      </trkpt>
      <trkpt lat="44.4117" lon="6.38419">
        <ele>2477</ele>
        <time>2020-07-07T08:40:38.000Z</time>
      </trkpt>
      <trkpt lat="44.4117" lon="6.38419">
        <ele>2477</ele>
        <time>2020-07-07T08:40:39.000Z</time>
      </trkpt>
      <trkpt lat="44.4117" lon="6.38419">
        <ele>2477</ele>
        <time>2020-07-07T08:40:40.000Z</time>
      </trkpt>
      <trkpt lat="44.4117" lon="6.38419">
        <ele>2477</ele>
        <time>2020-07-07T08:40:41.000Z</time>
      </trkpt>
      <trkpt lat="44.4117" lon="6.38419">
        <ele>2477</ele>
        <time>2020-07-07T08:40:42.000Z</time>
      </trkpt>
      <trkpt lat="44.4117" lon="6.38419">
        <ele>2477</ele>
        <time>2020-07-07T08:40:43.000Z</time>
      </trkpt>
      <trkpt lat="44.4117" lon="6.38419">
        <ele>2477</ele>
        <time>2020-07-07T08:40:44.000Z</time>
      </trkpt>
      <trkpt lat="44.4117" lon="6.38419">
        <ele>2477</ele>
        <time>2020-07-07T08:40:45.000Z</time>
      </trkpt>
      <trkpt lat="44.4117" lon="6.38419">
        <ele>2477</ele>
        <time>2020-07-07T08:40:46.000Z</time>
      </trkpt>
      <trkpt lat="44.4117" lon="6.38419">
        <ele>2477</ele>
        <time>2020-07-07T08:40:47.000Z</time>
      </trkpt>
      <trkpt lat="44.4117" lon="6.38419">
        <ele>2477</ele>
        <time>2020-07-07T08:40:48.000Z</time>
      </trkpt>
      <trkpt lat="44.4117" lon="6.38419">
        <ele>2477</ele>
        <time>2020-07-07T08:40:49.000Z</time>
      </trkpt>
      <trkpt lat="44.4117" lon="6.38419">
        <ele>2477</ele>
        <time>2020-07-07T08:40:50.000Z</time>
      </trkpt>
      <trkpt lat="44.4117" lon="6.38419">
        <ele>2477</ele>
        <time>2020-07-07T08:40:51.000Z</time>
      </trkpt>
      <trkpt lat="44.4117" lon="6.38419">
        <ele>2477</ele>
        <time>2020-07-07T08:40:52.000Z</time>
      </trkpt>
      <trkpt lat="44.4117" lon="6.38419">
        <ele>2477</ele>
        <time>2020-07-07T08:40:53.000Z</time>
      </trkpt>
      <trkpt lat="44.4117" lon="6.38419">
        <ele>2477</ele>
        <time>2020-07-07T08:40:54.000Z</time>
      </trkpt>
      <trkpt lat="44.4117" lon="6.3842">
        <ele>2477</ele>
        <time>2020-07-07T08:40:55.000Z</time>
      </trkpt>
      <trkpt lat="44.4117" lon="6.3842">
        <ele>2477</ele>
        <time>2020-07-07T08:40:56.000Z</time>
      </trkpt>
      <trkpt lat="44.4117" lon="6.3842">
        <ele>2477</ele>
        <time>2020-07-07T08:40:57.000Z</time>
      </trkpt>
      <trkpt lat="44.4117" lon="6.3842">
        <ele>2477</ele>
        <time>2020-07-07T08:40:58.000Z</time>
      </trkpt>
      <trkpt lat="44.4117" lon="6.3842">
        <ele>2477</ele>
        <time>2020-07-07T08:40:59.000Z</time>
      </trkpt>
      <trkpt lat="44.4117" lon="6.3842">
        <ele>2477</ele>
        <time>2020-07-07T08:41:00.000Z</time>
      </trkpt>
      <trkpt lat="44.4117" lon="6.3842">
        <ele>2477</ele>
        <time>2020-07-07T08:41:01.000Z</time>
      </trkpt>
      <trkpt lat="44.4117" lon="6.3842">
        <ele>2477</ele>
        <time>2020-07-07T08:41:02.000Z</time>
      </trkpt>
      <trkpt lat="44.4117" lon="6.3842">
        <ele>2477</ele>
        <time>2020-07-07T08:41:03.000Z</time>
      </trkpt>
      <trkpt lat="44.4117" lon="6.3842">
        <ele>2477</ele>
        <time>2020-07-07T08:41:04.000Z</time>
      </trkpt>
      <trkpt lat="44.4117" lon="6.3842">
        <ele>2477</ele>
        <time>2020-07-07T08:41:05.000Z</time>
      </trkpt>
      <trkpt lat="44.4117" lon="6.3842">
        <ele>2477</ele>
        <time>2020-07-07T08:41:06.000Z</time>
      </trkpt>
      <trkpt lat="44.41169" lon="6.3842">
        <ele>2477</ele>
        <time>2020-07-07T08:41:07.000Z</time>
      </trkpt>
      <trkpt lat="44.41169" lon="6.3842">
        <ele>2477</ele>
        <time>2020-07-07T08:41:08.000Z</time>
      </trkpt>
      <trkpt lat="44.41168" lon="6.3842">
        <ele>2477</ele>
        <time>2020-07-07T08:41:09.000Z</time>
      </trkpt>
      <trkpt lat="44.41167" lon="6.3842">
        <ele>2477</ele>
        <time>2020-07-07T08:41:10.000Z</time>
      </trkpt>
      <trkpt lat="44.41166" lon="6.38419">
        <ele>2477</ele>
        <time>2020-07-07T08:41:11.000Z</time>
      </trkpt>
      <trkpt lat="44.41165" lon="6.38419">
        <ele>2477</ele>
        <time>2020-07-07T08:41:12.000Z</time>
      </trkpt>
      <trkpt lat="44.41164" lon="6.38421">
        <ele>2477</ele>
        <time>2020-07-07T08:41:13.000Z</time>
      </trkpt>
      <trkpt lat="44.41161" lon="6.38424">
        <ele>2477</ele>
        <time>2020-07-07T08:41:14.000Z</time>
      </trkpt>
      <trkpt lat="44.41161" lon="6.38424">
        <ele>2477</ele>
        <time>2020-07-07T08:41:15.000Z</time>
      </trkpt>
      <trkpt lat="44.4116" lon="6.38425">
        <ele>2477</ele>
        <time>2020-07-07T08:41:16.000Z</time>
      </trkpt>
      <trkpt lat="44.41159" lon="6.38426">
        <ele>2477</ele>
        <time>2020-07-07T08:41:17.000Z</time>
      </trkpt>
      <trkpt lat="44.41156" lon="6.38428">
        <ele>2477</ele>
        <time>2020-07-07T08:41:18.000Z</time>
      </trkpt>
      <trkpt lat="44.41155" lon="6.38429">
        <ele>2477</ele>
        <time>2020-07-07T08:41:19.000Z</time>
      </trkpt>
      <trkpt lat="44.41154" lon="6.3843">
        <ele>2477</ele>
        <time>2020-07-07T08:41:20.000Z</time>
      </trkpt>
      <trkpt lat="44.41153" lon="6.38431">
        <ele>2477</ele>
        <time>2020-07-07T08:41:21.000Z</time>
      </trkpt>
      <trkpt lat="44.41152" lon="6.38432">
        <ele>2477</ele>
        <time>2020-07-07T08:41:22.000Z</time>
      </trkpt>
      <trkpt lat="44.41151" lon="6.38432">
        <ele>2477</ele>
        <time>2020-07-07T08:41:23.000Z</time>
      </trkpt>
      <trkpt lat="44.4115" lon="6.38433">
        <ele>2478</ele>
        <time>2020-07-07T08:41:24.000Z</time>
      </trkpt>
      <trkpt lat="44.41149" lon="6.38434">
        <ele>2478</ele>
        <time>2020-07-07T08:41:25.000Z</time>
      </trkpt>
      <trkpt lat="44.41148" lon="6.38435">
        <ele>2478</ele>
        <time>2020-07-07T08:41:26.000Z</time>
      </trkpt>
      <trkpt lat="44.41148" lon="6.38435">
        <ele>2478</ele>
        <time>2020-07-07T08:41:27.000Z</time>
      </trkpt>
      <trkpt lat="44.41146" lon="6.38435">
        <ele>2478</ele>
        <time>2020-07-07T08:41:28.000Z</time>
      </trkpt>
      <trkpt lat="44.41145" lon="6.38436">
        <ele>2478</ele>
        <time>2020-07-07T08:41:29.000Z</time>
      </trkpt>
      <trkpt lat="44.41145" lon="6.38437">
        <ele>2478</ele>
        <time>2020-07-07T08:41:30.000Z</time>
      </trkpt>
      <trkpt lat="44.41144" lon="6.38438">
        <ele>2478</ele>
        <time>2020-07-07T08:41:31.000Z</time>
      </trkpt>
      <trkpt lat="44.41142" lon="6.38439">
        <ele>2478</ele>
        <time>2020-07-07T08:41:32.000Z</time>
      </trkpt>
      <trkpt lat="44.41141" lon="6.3844">
        <ele>2478</ele>
        <time>2020-07-07T08:41:33.000Z</time>
      </trkpt>
      <trkpt lat="44.41139" lon="6.38442">
        <ele>2478</ele>
        <time>2020-07-07T08:41:34.000Z</time>
      </trkpt>
      <trkpt lat="44.41139" lon="6.38442">
        <ele>2478</ele>
        <time>2020-07-07T08:41:35.000Z</time>
      </trkpt>
      <trkpt lat="44.41139" lon="6.38443">
        <ele>2478</ele>
        <time>2020-07-07T08:41:36.000Z</time>
      </trkpt>
      <trkpt lat="44.41138" lon="6.38444">
        <ele>2478</ele>
        <time>2020-07-07T08:41:37.000Z</time>
      </trkpt>
      <trkpt lat="44.41136" lon="6.38446">
        <ele>2478</ele>
        <time>2020-07-07T08:41:38.000Z</time>
      </trkpt>
      <trkpt lat="44.41136" lon="6.38446">
        <ele>2478</ele>
        <time>2020-07-07T08:41:39.000Z</time>
      </trkpt>
      <trkpt lat="44.41135" lon="6.38447">
        <ele>2478</ele>
        <time>2020-07-07T08:41:40.000Z</time>
      </trkpt>
      <trkpt lat="44.41134" lon="6.38448">
        <ele>2479</ele>
        <time>2020-07-07T08:41:41.000Z</time>
      </trkpt>
      <trkpt lat="44.41133" lon="6.3845">
        <ele>2479</ele>
        <time>2020-07-07T08:41:42.000Z</time>
      </trkpt>
      <trkpt lat="44.41133" lon="6.3845">
        <ele>2479</ele>
        <time>2020-07-07T08:41:43.000Z</time>
      </trkpt>
      <trkpt lat="44.41132" lon="6.38451">
        <ele>2479</ele>
        <time>2020-07-07T08:41:44.000Z</time>
      </trkpt>
      <trkpt lat="44.41131" lon="6.38451">
        <ele>2479</ele>
        <time>2020-07-07T08:41:45.000Z</time>
      </trkpt>
      <trkpt lat="44.4113" lon="6.38452">
        <ele>2479</ele>
        <time>2020-07-07T08:41:46.000Z</time>
      </trkpt>
      <trkpt lat="44.41129" lon="6.38453">
        <ele>2479</ele>
        <time>2020-07-07T08:41:47.000Z</time>
      </trkpt>
      <trkpt lat="44.41128" lon="6.38454">
        <ele>2479</ele>
        <time>2020-07-07T08:41:48.000Z</time>
      </trkpt>
      <trkpt lat="44.41128" lon="6.38455">
        <ele>2479</ele>
        <time>2020-07-07T08:41:49.000Z</time>
      </trkpt>
      <trkpt lat="44.41127" lon="6.38456">
        <ele>2479</ele>
        <time>2020-07-07T08:41:50.000Z</time>
      </trkpt>
      <trkpt lat="44.41126" lon="6.38457">
        <ele>2479</ele>
        <time>2020-07-07T08:41:51.000Z</time>
      </trkpt>
      <trkpt lat="44.41125" lon="6.38458">
        <ele>2479</ele>
        <time>2020-07-07T08:41:52.000Z</time>
      </trkpt>
      <trkpt lat="44.41124" lon="6.38458">
        <ele>2479</ele>
        <time>2020-07-07T08:41:53.000Z</time>
      </trkpt>
      <trkpt lat="44.41123" lon="6.38459">
        <ele>2479</ele>
        <time>2020-07-07T08:41:54.000Z</time>
      </trkpt>
      <trkpt lat="44.41122" lon="6.38461">
        <ele>2479</ele>
        <time>2020-07-07T08:41:55.000Z</time>
      </trkpt>
      <trkpt lat="44.41121" lon="6.38461">
        <ele>2480</ele>
        <time>2020-07-07T08:41:56.000Z</time>
      </trkpt>
      <trkpt lat="44.4112" lon="6.38462">
        <ele>2480</ele>
        <time>2020-07-07T08:41:57.000Z</time>
      </trkpt>
      <trkpt lat="44.41119" lon="6.38463">
        <ele>2480</ele>
        <time>2020-07-07T08:41:58.000Z</time>
      </trkpt>
      <trkpt lat="44.41118" lon="6.38464">
        <ele>2480</ele>
        <time>2020-07-07T08:41:59.000Z</time>
      </trkpt>
      <trkpt lat="44.41117" lon="6.38465">
        <ele>2480</ele>
        <time>2020-07-07T08:42:00.000Z</time>
      </trkpt>
      <trkpt lat="44.41116" lon="6.38466">
        <ele>2480</ele>
        <time>2020-07-07T08:42:01.000Z</time>
      </trkpt>
      <trkpt lat="44.41113" lon="6.38467">
        <ele>2480</ele>
        <time>2020-07-07T08:42:02.000Z</time>
      </trkpt>
      <trkpt lat="44.41113" lon="6.38467">
        <ele>2480</ele>
        <time>2020-07-07T08:42:03.000Z</time>
      </trkpt>
      <trkpt lat="44.41112" lon="6.38468">
        <ele>2480</ele>
        <time>2020-07-07T08:42:04.000Z</time>
      </trkpt>
      <trkpt lat="44.41111" lon="6.38469">
        <ele>2480</ele>
        <time>2020-07-07T08:42:05.000Z</time>
      </trkpt>
      <trkpt lat="44.4111" lon="6.3847">
        <ele>2480</ele>
        <time>2020-07-07T08:42:06.000Z</time>
      </trkpt>
      <trkpt lat="44.4111" lon="6.3847">
        <ele>2480</ele>
        <time>2020-07-07T08:42:07.000Z</time>
      </trkpt>
      <trkpt lat="44.41109" lon="6.3847">
        <ele>2480</ele>
        <time>2020-07-07T08:42:08.000Z</time>
      </trkpt>
      <trkpt lat="44.41107" lon="6.38472">
        <ele>2480</ele>
        <time>2020-07-07T08:42:09.000Z</time>
      </trkpt>
      <trkpt lat="44.41106" lon="6.38473">
        <ele>2480</ele>
        <time>2020-07-07T08:42:10.000Z</time>
      </trkpt>
      <trkpt lat="44.41105" lon="6.38473">
        <ele>2480</ele>
        <time>2020-07-07T08:42:11.000Z</time>
      </trkpt>
      <trkpt lat="44.41103" lon="6.38474">
        <ele>2480</ele>
        <time>2020-07-07T08:42:12.000Z</time>
      </trkpt>
      <trkpt lat="44.41103" lon="6.38474">
        <ele>2480</ele>
        <time>2020-07-07T08:42:13.000Z</time>
      </trkpt>
      <trkpt lat="44.411" lon="6.38475">
        <ele>2480</ele>
        <time>2020-07-07T08:42:14.000Z</time>
      </trkpt>
      <trkpt lat="44.41099" lon="6.38476">
        <ele>2480</ele>
        <time>2020-07-07T08:42:15.000Z</time>
      </trkpt>
      <trkpt lat="44.41098" lon="6.38477">
        <ele>2480</ele>
        <time>2020-07-07T08:42:16.000Z</time>
      </trkpt>
      <trkpt lat="44.41097" lon="6.38478">
        <ele>2480</ele>
        <time>2020-07-07T08:42:17.000Z</time>
      </trkpt>
      <trkpt lat="44.41097" lon="6.38479">
        <ele>2480</ele>
        <time>2020-07-07T08:42:18.000Z</time>
      </trkpt>
      <trkpt lat="44.41096" lon="6.3848">
        <ele>2481</ele>
        <time>2020-07-07T08:42:19.000Z</time>
      </trkpt>
      <trkpt lat="44.41095" lon="6.38481">
        <ele>2481</ele>
        <time>2020-07-07T08:42:20.000Z</time>
      </trkpt>
      <trkpt lat="44.41094" lon="6.38483">
        <ele>2481</ele>
        <time>2020-07-07T08:42:21.000Z</time>
      </trkpt>
      <trkpt lat="44.41093" lon="6.38483">
        <ele>2481</ele>
        <time>2020-07-07T08:42:22.000Z</time>
      </trkpt>
      <trkpt lat="44.41092" lon="6.38484">
        <ele>2481</ele>
        <time>2020-07-07T08:42:23.000Z</time>
      </trkpt>
      <trkpt lat="44.41092" lon="6.38485">
        <ele>2481</ele>
        <time>2020-07-07T08:42:24.000Z</time>
      </trkpt>
      <trkpt lat="44.41091" lon="6.38486">
        <ele>2481</ele>
        <time>2020-07-07T08:42:25.000Z</time>
      </trkpt>
      <trkpt lat="44.4109" lon="6.38487">
        <ele>2481</ele>
        <time>2020-07-07T08:42:26.000Z</time>
      </trkpt>
      <trkpt lat="44.41089" lon="6.38488">
        <ele>2481</ele>
        <time>2020-07-07T08:42:27.000Z</time>
      </trkpt>
      <trkpt lat="44.41088" lon="6.38489">
        <ele>2481</ele>
        <time>2020-07-07T08:42:28.000Z</time>
      </trkpt>
      <trkpt lat="44.41087" lon="6.38489">
        <ele>2481</ele>
        <time>2020-07-07T08:42:29.000Z</time>
      </trkpt>
      <trkpt lat="44.41087" lon="6.3849">
        <ele>2481</ele>
        <time>2020-07-07T08:42:30.000Z</time>
      </trkpt>
      <trkpt lat="44.41086" lon="6.38491">
        <ele>2481</ele>
        <time>2020-07-07T08:42:31.000Z</time>
      </trkpt>
      <trkpt lat="44.41085" lon="6.38491">
        <ele>2481</ele>
        <time>2020-07-07T08:42:32.000Z</time>
      </trkpt>
      <trkpt lat="44.41084" lon="6.38492">
        <ele>2481</ele>
        <time>2020-07-07T08:42:33.000Z</time>
      </trkpt>
      <trkpt lat="44.41083" lon="6.38493">
        <ele>2481</ele>
        <time>2020-07-07T08:42:34.000Z</time>
      </trkpt>
      <trkpt lat="44.41083" lon="6.38494">
        <ele>2481</ele>
        <time>2020-07-07T08:42:35.000Z</time>
      </trkpt>
      <trkpt lat="44.41082" lon="6.38494">
        <ele>2481</ele>
        <time>2020-07-07T08:42:36.000Z</time>
      </trkpt>
      <trkpt lat="44.41081" lon="6.38495">
        <ele>2481</ele>
        <time>2020-07-07T08:42:37.000Z</time>
      </trkpt>
      <trkpt lat="44.4108" lon="6.38496">
        <ele>2481</ele>
        <time>2020-07-07T08:42:38.000Z</time>
      </trkpt>
      <trkpt lat="44.4108" lon="6.38497">
        <ele>2481</ele>
        <time>2020-07-07T08:42:39.000Z</time>
      </trkpt>
      <trkpt lat="44.41079" lon="6.38498">
        <ele>2481</ele>
        <time>2020-07-07T08:42:40.000Z</time>
      </trkpt>
      <trkpt lat="44.41078" lon="6.38499">
        <ele>2481</ele>
        <time>2020-07-07T08:42:41.000Z</time>
      </trkpt>
      <trkpt lat="44.41077" lon="6.385">
        <ele>2481</ele>
        <time>2020-07-07T08:42:42.000Z</time>
      </trkpt>
      <trkpt lat="44.41076" lon="6.385">
        <ele>2481</ele>
        <time>2020-07-07T08:42:43.000Z</time>
      </trkpt>
      <trkpt lat="44.41076" lon="6.38501">
        <ele>2481</ele>
        <time>2020-07-07T08:42:44.000Z</time>
      </trkpt>
      <trkpt lat="44.41075" lon="6.38501">
        <ele>2481</ele>
        <time>2020-07-07T08:42:45.000Z</time>
      </trkpt>
      <trkpt lat="44.41074" lon="6.38502">
        <ele>2481</ele>
        <time>2020-07-07T08:42:46.000Z</time>
      </trkpt>
      <trkpt lat="44.41073" lon="6.38503">
        <ele>2481</ele>
        <time>2020-07-07T08:42:47.000Z</time>
      </trkpt>
      <trkpt lat="44.41073" lon="6.38503">
        <ele>2482</ele>
        <time>2020-07-07T08:42:48.000Z</time>
      </trkpt>
      <trkpt lat="44.41072" lon="6.38505">
        <ele>2482</ele>
        <time>2020-07-07T08:42:49.000Z</time>
      </trkpt>
      <trkpt lat="44.41072" lon="6.38506">
        <ele>2482</ele>
        <time>2020-07-07T08:42:50.000Z</time>
      </trkpt>
      <trkpt lat="44.41071" lon="6.38506">
        <ele>2482</ele>
        <time>2020-07-07T08:42:51.000Z</time>
      </trkpt>
      <trkpt lat="44.4107" lon="6.38507">
        <ele>2482</ele>
        <time>2020-07-07T08:42:52.000Z</time>
      </trkpt>
      <trkpt lat="44.41069" lon="6.38508">
        <ele>2482</ele>
        <time>2020-07-07T08:42:53.000Z</time>
      </trkpt>
      <trkpt lat="44.41069" lon="6.38508">
        <ele>2482</ele>
        <time>2020-07-07T08:42:54.000Z</time>
      </trkpt>
      <trkpt lat="44.41068" lon="6.38509">
        <ele>2482</ele>
        <time>2020-07-07T08:42:55.000Z</time>
      </trkpt>
      <trkpt lat="44.41067" lon="6.3851">
        <ele>2482</ele>
        <time>2020-07-07T08:42:56.000Z</time>
      </trkpt>
      <trkpt lat="44.41067" lon="6.3851">
        <ele>2482</ele>
        <time>2020-07-07T08:42:57.000Z</time>
      </trkpt>
      <trkpt lat="44.41066" lon="6.38512">
        <ele>2482</ele>
        <time>2020-07-07T08:42:58.000Z</time>
      </trkpt>
      <trkpt lat="44.41066" lon="6.38513">
        <ele>2482</ele>
        <time>2020-07-07T08:42:59.000Z</time>
      </trkpt>
      <trkpt lat="44.41065" lon="6.38514">
        <ele>2482</ele>
        <time>2020-07-07T08:43:00.000Z</time>
      </trkpt>
      <trkpt lat="44.41064" lon="6.38515">
        <ele>2482</ele>
        <time>2020-07-07T08:43:01.000Z</time>
      </trkpt>
      <trkpt lat="44.41064" lon="6.38515">
        <ele>2482</ele>
        <time>2020-07-07T08:43:02.000Z</time>
      </trkpt>
      <trkpt lat="44.41063" lon="6.38516">
        <ele>2482</ele>
        <time>2020-07-07T08:43:03.000Z</time>
      </trkpt>
      <trkpt lat="44.41062" lon="6.38516">
        <ele>2482</ele>
        <time>2020-07-07T08:43:04.000Z</time>
      </trkpt>
      <trkpt lat="44.41062" lon="6.38517">
        <ele>2482</ele>
        <time>2020-07-07T08:43:05.000Z</time>
      </trkpt>
      <trkpt lat="44.41061" lon="6.38517">
        <ele>2482</ele>
        <time>2020-07-07T08:43:06.000Z</time>
      </trkpt>
      <trkpt lat="44.4106" lon="6.38518">
        <ele>2482</ele>
        <time>2020-07-07T08:43:07.000Z</time>
      </trkpt>
      <trkpt lat="44.4106" lon="6.38519">
        <ele>2482</ele>
        <time>2020-07-07T08:43:08.000Z</time>
      </trkpt>
      <trkpt lat="44.41059" lon="6.3852">
        <ele>2482</ele>
        <time>2020-07-07T08:43:09.000Z</time>
      </trkpt>
      <trkpt lat="44.41059" lon="6.3852">
        <ele>2482</ele>
        <time>2020-07-07T08:43:10.000Z</time>
      </trkpt>
      <trkpt lat="44.41058" lon="6.38521">
        <ele>2483</ele>
        <time>2020-07-07T08:43:11.000Z</time>
      </trkpt>
      <trkpt lat="44.41057" lon="6.38522">
        <ele>2483</ele>
        <time>2020-07-07T08:43:12.000Z</time>
      </trkpt>
      <trkpt lat="44.41056" lon="6.38522">
        <ele>2483</ele>
        <time>2020-07-07T08:43:13.000Z</time>
      </trkpt>
      <trkpt lat="44.41056" lon="6.38523">
        <ele>2483</ele>
        <time>2020-07-07T08:43:14.000Z</time>
      </trkpt>
      <trkpt lat="44.41055" lon="6.38523">
        <ele>2483</ele>
        <time>2020-07-07T08:43:15.000Z</time>
      </trkpt>
      <trkpt lat="44.41054" lon="6.38524">
        <ele>2483</ele>
        <time>2020-07-07T08:43:16.000Z</time>
      </trkpt>
      <trkpt lat="44.41053" lon="6.38524">
        <ele>2483</ele>
        <time>2020-07-07T08:43:17.000Z</time>
      </trkpt>
      <trkpt lat="44.41053" lon="6.38525">
        <ele>2483</ele>
        <time>2020-07-07T08:43:18.000Z</time>
      </trkpt>
      <trkpt lat="44.41052" lon="6.38525">
        <ele>2483</ele>
        <time>2020-07-07T08:43:19.000Z</time>
      </trkpt>
      <trkpt lat="44.41051" lon="6.38526">
        <ele>2484</ele>
        <time>2020-07-07T08:43:20.000Z</time>
      </trkpt>
      <trkpt lat="44.4105" lon="6.38526">
        <ele>2484</ele>
        <time>2020-07-07T08:43:21.000Z</time>
      </trkpt>
      <trkpt lat="44.4105" lon="6.38527">
        <ele>2484</ele>
        <time>2020-07-07T08:43:22.000Z</time>
      </trkpt>
      <trkpt lat="44.41049" lon="6.38527">
        <ele>2484</ele>
        <time>2020-07-07T08:43:23.000Z</time>
      </trkpt>
      <trkpt lat="44.41048" lon="6.38528">
        <ele>2484</ele>
        <time>2020-07-07T08:43:24.000Z</time>
      </trkpt>
      <trkpt lat="44.41048" lon="6.38528">
        <ele>2484</ele>
        <time>2020-07-07T08:43:25.000Z</time>
      </trkpt>
      <trkpt lat="44.41047" lon="6.38529">
        <ele>2484</ele>
        <time>2020-07-07T08:43:26.000Z</time>
      </trkpt>
      <trkpt lat="44.41046" lon="6.3853">
        <ele>2484</ele>
        <time>2020-07-07T08:43:27.000Z</time>
      </trkpt>
      <trkpt lat="44.41045" lon="6.3853">
        <ele>2484</ele>
        <time>2020-07-07T08:43:28.000Z</time>
      </trkpt>
      <trkpt lat="44.41045" lon="6.38531">
        <ele>2484</ele>
        <time>2020-07-07T08:43:29.000Z</time>
      </trkpt>
      <trkpt lat="44.41044" lon="6.38531">
        <ele>2484</ele>
        <time>2020-07-07T08:43:30.000Z</time>
      </trkpt>
      <trkpt lat="44.41043" lon="6.38532">
        <ele>2484</ele>
        <time>2020-07-07T08:43:31.000Z</time>
      </trkpt>
      <trkpt lat="44.41042" lon="6.38532">
        <ele>2485</ele>
        <time>2020-07-07T08:43:32.000Z</time>
      </trkpt>
      <trkpt lat="44.41042" lon="6.38533">
        <ele>2485</ele>
        <time>2020-07-07T08:43:33.000Z</time>
      </trkpt>
      <trkpt lat="44.41041" lon="6.38533">
        <ele>2485</ele>
        <time>2020-07-07T08:43:34.000Z</time>
      </trkpt>
      <trkpt lat="44.4104" lon="6.38534">
        <ele>2485</ele>
        <time>2020-07-07T08:43:35.000Z</time>
      </trkpt>
      <trkpt lat="44.41039" lon="6.38535">
        <ele>2485</ele>
        <time>2020-07-07T08:43:36.000Z</time>
      </trkpt>
      <trkpt lat="44.41039" lon="6.38535">
        <ele>2485</ele>
        <time>2020-07-07T08:43:37.000Z</time>
      </trkpt>
      <trkpt lat="44.41038" lon="6.38536">
        <ele>2485</ele>
        <time>2020-07-07T08:43:38.000Z</time>
      </trkpt>
      <trkpt lat="44.41037" lon="6.38536">
        <ele>2486</ele>
        <time>2020-07-07T08:43:39.000Z</time>
      </trkpt>
      <trkpt lat="44.41036" lon="6.38537">
        <ele>2486</ele>
        <time>2020-07-07T08:43:40.000Z</time>
      </trkpt>
      <trkpt lat="44.41035" lon="6.38538">
        <ele>2486</ele>
        <time>2020-07-07T08:43:41.000Z</time>
      </trkpt>
      <trkpt lat="44.41035" lon="6.38538">
        <ele>2486</ele>
        <time>2020-07-07T08:43:42.000Z</time>
      </trkpt>
      <trkpt lat="44.41034" lon="6.38539">
        <ele>2486</ele>
        <time>2020-07-07T08:43:43.000Z</time>
      </trkpt>
      <trkpt lat="44.41033" lon="6.3854">
        <ele>2486</ele>
        <time>2020-07-07T08:43:44.000Z</time>
      </trkpt>
      <trkpt lat="44.41033" lon="6.3854">
        <ele>2486</ele>
        <time>2020-07-07T08:43:45.000Z</time>
      </trkpt>
      <trkpt lat="44.41032" lon="6.38541">
        <ele>2486</ele>
        <time>2020-07-07T08:43:46.000Z</time>
      </trkpt>
      <trkpt lat="44.41031" lon="6.38541">
        <ele>2487</ele>
        <time>2020-07-07T08:43:47.000Z</time>
      </trkpt>
      <trkpt lat="44.41031" lon="6.38542">
        <ele>2487</ele>
        <time>2020-07-07T08:43:48.000Z</time>
      </trkpt>
      <trkpt lat="44.4103" lon="6.38543">
        <ele>2487</ele>
        <time>2020-07-07T08:43:49.000Z</time>
      </trkpt>
      <trkpt lat="44.41029" lon="6.38543">
        <ele>2487</ele>
        <time>2020-07-07T08:43:50.000Z</time>
      </trkpt>
      <trkpt lat="44.41028" lon="6.38544">
        <ele>2487</ele>
        <time>2020-07-07T08:43:51.000Z</time>
      </trkpt>
      <trkpt lat="44.41028" lon="6.38545">
        <ele>2487</ele>
        <time>2020-07-07T08:43:52.000Z</time>
      </trkpt>
      <trkpt lat="44.41027" lon="6.38545">
        <ele>2488</ele>
        <time>2020-07-07T08:43:53.000Z</time>
      </trkpt>
      <trkpt lat="44.41026" lon="6.38546">
        <ele>2488</ele>
        <time>2020-07-07T08:43:54.000Z</time>
      </trkpt>
      <trkpt lat="44.41026" lon="6.38547">
        <ele>2488</ele>
        <time>2020-07-07T08:43:55.000Z</time>
      </trkpt>
      <trkpt lat="44.41025" lon="6.38547">
        <ele>2488</ele>
        <time>2020-07-07T08:43:56.000Z</time>
      </trkpt>
      <trkpt lat="44.41025" lon="6.38548">
        <ele>2488</ele>
        <time>2020-07-07T08:43:57.000Z</time>
      </trkpt>
      <trkpt lat="44.41024" lon="6.38548">
        <ele>2488</ele>
        <time>2020-07-07T08:43:58.000Z</time>
      </trkpt>
      <trkpt lat="44.41023" lon="6.38549">
        <ele>2488</ele>
        <time>2020-07-07T08:43:59.000Z</time>
      </trkpt>
      <trkpt lat="44.41023" lon="6.3855">
        <ele>2488</ele>
        <time>2020-07-07T08:44:00.000Z</time>
      </trkpt>
      <trkpt lat="44.41022" lon="6.3855">
        <ele>2488</ele>
        <time>2020-07-07T08:44:01.000Z</time>
      </trkpt>
      <trkpt lat="44.41022" lon="6.38551">
        <ele>2488</ele>
        <time>2020-07-07T08:44:02.000Z</time>
      </trkpt>
      <trkpt lat="44.41021" lon="6.38552">
        <ele>2489</ele>
        <time>2020-07-07T08:44:03.000Z</time>
      </trkpt>
      <trkpt lat="44.4102" lon="6.38552">
        <ele>2489</ele>
        <time>2020-07-07T08:44:04.000Z</time>
      </trkpt>
      <trkpt lat="44.41019" lon="6.38553">
        <ele>2489</ele>
        <time>2020-07-07T08:44:05.000Z</time>
      </trkpt>
      <trkpt lat="44.41019" lon="6.38554">
        <ele>2489</ele>
        <time>2020-07-07T08:44:06.000Z</time>
      </trkpt>
      <trkpt lat="44.41018" lon="6.38554">
        <ele>2489</ele>
        <time>2020-07-07T08:44:07.000Z</time>
      </trkpt>
      <trkpt lat="44.41017" lon="6.38555">
        <ele>2489</ele>
        <time>2020-07-07T08:44:08.000Z</time>
      </trkpt>
      <trkpt lat="44.41017" lon="6.38555">
        <ele>2489</ele>
        <time>2020-07-07T08:44:09.000Z</time>
      </trkpt>
      <trkpt lat="44.41016" lon="6.38556">
        <ele>2490</ele>
        <time>2020-07-07T08:44:10.000Z</time>
      </trkpt>
      <trkpt lat="44.41015" lon="6.38557">
        <ele>2490</ele>
        <time>2020-07-07T08:44:11.000Z</time>
      </trkpt>
      <trkpt lat="44.41015" lon="6.38557">
        <ele>2490</ele>
        <time>2020-07-07T08:44:12.000Z</time>
      </trkpt>
      <trkpt lat="44.41014" lon="6.38557">
        <ele>2490</ele>
        <time>2020-07-07T08:44:13.000Z</time>
      </trkpt>
      <trkpt lat="44.41013" lon="6.38558">
        <ele>2490</ele>
        <time>2020-07-07T08:44:14.000Z</time>
      </trkpt>
      <trkpt lat="44.41013" lon="6.38558">
        <ele>2490</ele>
        <time>2020-07-07T08:44:15.000Z</time>
      </trkpt>
      <trkpt lat="44.41012" lon="6.38559">
        <ele>2490</ele>
        <time>2020-07-07T08:44:16.000Z</time>
      </trkpt>
      <trkpt lat="44.41011" lon="6.38559">
        <ele>2490</ele>
        <time>2020-07-07T08:44:17.000Z</time>
      </trkpt>
      <trkpt lat="44.4101" lon="6.38559">
        <ele>2490</ele>
        <time>2020-07-07T08:44:18.000Z</time>
      </trkpt>
      <trkpt lat="44.41009" lon="6.3856">
        <ele>2490</ele>
        <time>2020-07-07T08:44:19.000Z</time>
      </trkpt>
      <trkpt lat="44.41008" lon="6.3856">
        <ele>2490</ele>
        <time>2020-07-07T08:44:20.000Z</time>
      </trkpt>
      <trkpt lat="44.41008" lon="6.3856">
        <ele>2490</ele>
        <time>2020-07-07T08:44:21.000Z</time>
      </trkpt>
      <trkpt lat="44.41007" lon="6.38561">
        <ele>2490</ele>
        <time>2020-07-07T08:44:22.000Z</time>
      </trkpt>
      <trkpt lat="44.41006" lon="6.38561">
        <ele>2490</ele>
        <time>2020-07-07T08:44:23.000Z</time>
      </trkpt>
      <trkpt lat="44.41006" lon="6.38562">
        <ele>2490</ele>
        <time>2020-07-07T08:44:24.000Z</time>
      </trkpt>
      <trkpt lat="44.41005" lon="6.38563">
        <ele>2490</ele>
        <time>2020-07-07T08:44:25.000Z</time>
      </trkpt>
      <trkpt lat="44.41004" lon="6.38564">
        <ele>2491</ele>
        <time>2020-07-07T08:44:26.000Z</time>
      </trkpt>
      <trkpt lat="44.41004" lon="6.38564">
        <ele>2491</ele>
        <time>2020-07-07T08:44:27.000Z</time>
      </trkpt>
      <trkpt lat="44.41003" lon="6.38565">
        <ele>2491</ele>
        <time>2020-07-07T08:44:28.000Z</time>
      </trkpt>
      <trkpt lat="44.41002" lon="6.38565">
        <ele>2491</ele>
        <time>2020-07-07T08:44:29.000Z</time>
      </trkpt>
      <trkpt lat="44.41002" lon="6.38566">
        <ele>2491</ele>
        <time>2020-07-07T08:44:30.000Z</time>
      </trkpt>
      <trkpt lat="44.41002" lon="6.38566">
        <ele>2491</ele>
        <time>2020-07-07T08:44:31.000Z</time>
      </trkpt>
      <trkpt lat="44.41002" lon="6.38566">
        <ele>2491</ele>
        <time>2020-07-07T08:44:32.000Z</time>
      </trkpt>
      <trkpt lat="44.41002" lon="6.38566">
        <ele>2491</ele>
        <time>2020-07-07T08:44:33.000Z</time>
      </trkpt>
      <trkpt lat="44.41002" lon="6.38566">
        <ele>2491</ele>
        <time>2020-07-07T08:44:34.000Z</time>
      </trkpt>
      <trkpt lat="44.41002" lon="6.38566">
        <ele>2491</ele>
        <time>2020-07-07T08:44:35.000Z</time>
      </trkpt>
      <trkpt lat="44.41002" lon="6.38566">
        <ele>2491</ele>
        <time>2020-07-07T08:44:36.000Z</time>
      </trkpt>
      <trkpt lat="44.41002" lon="6.38566">
        <ele>2491</ele>
        <time>2020-07-07T08:44:37.000Z</time>
      </trkpt>
      <trkpt lat="44.41002" lon="6.38566">
        <ele>2491</ele>
        <time>2020-07-07T08:44:38.000Z</time>
      </trkpt>
      <trkpt lat="44.41002" lon="6.38565">
        <ele>2491</ele>
        <time>2020-07-07T08:44:39.000Z</time>
      </trkpt>
      <trkpt lat="44.41002" lon="6.38565">
        <ele>2491</ele>
        <time>2020-07-07T08:44:40.000Z</time>
      </trkpt>
      <trkpt lat="44.41001" lon="6.38566">
        <ele>2491</ele>
        <time>2020-07-07T08:44:41.000Z</time>
      </trkpt>
      <trkpt lat="44.41001" lon="6.38566">
        <ele>2491</ele>
        <time>2020-07-07T08:44:42.000Z</time>
      </trkpt>
      <trkpt lat="44.41" lon="6.38567">
        <ele>2491</ele>
        <time>2020-07-07T08:44:43.000Z</time>
      </trkpt>
      <trkpt lat="44.40999" lon="6.38567">
        <ele>2491</ele>
        <time>2020-07-07T08:44:44.000Z</time>
      </trkpt>
      <trkpt lat="44.40998" lon="6.38568">
        <ele>2492</ele>
        <time>2020-07-07T08:44:45.000Z</time>
      </trkpt>
      <trkpt lat="44.40997" lon="6.38569">
        <ele>2492</ele>
        <time>2020-07-07T08:44:46.000Z</time>
      </trkpt>
      <trkpt lat="44.40996" lon="6.38569">
        <ele>2492</ele>
        <time>2020-07-07T08:44:47.000Z</time>
      </trkpt>
      <trkpt lat="44.40995" lon="6.3857">
        <ele>2492</ele>
        <time>2020-07-07T08:44:48.000Z</time>
      </trkpt>
      <trkpt lat="44.40994" lon="6.38571">
        <ele>2492</ele>
        <time>2020-07-07T08:44:49.000Z</time>
      </trkpt>
      <trkpt lat="44.40994" lon="6.38571">
        <ele>2492</ele>
        <time>2020-07-07T08:44:50.000Z</time>
      </trkpt>
      <trkpt lat="44.40993" lon="6.38572">
        <ele>2492</ele>
        <time>2020-07-07T08:44:51.000Z</time>
      </trkpt>
      <trkpt lat="44.40992" lon="6.38572">
        <ele>2492</ele>
        <time>2020-07-07T08:44:52.000Z</time>
      </trkpt>
      <trkpt lat="44.40991" lon="6.38573">
        <ele>2492</ele>
        <time>2020-07-07T08:44:53.000Z</time>
      </trkpt>
      <trkpt lat="44.4099" lon="6.38573">
        <ele>2493</ele>
        <time>2020-07-07T08:44:54.000Z</time>
      </trkpt>
      <trkpt lat="44.40989" lon="6.38574">
        <ele>2493</ele>
        <time>2020-07-07T08:44:55.000Z</time>
      </trkpt>
      <trkpt lat="44.40988" lon="6.38575">
        <ele>2493</ele>
        <time>2020-07-07T08:44:56.000Z</time>
      </trkpt>
      <trkpt lat="44.40987" lon="6.38576">
        <ele>2493</ele>
        <time>2020-07-07T08:44:57.000Z</time>
      </trkpt>
      <trkpt lat="44.40987" lon="6.38576">
        <ele>2493</ele>
        <time>2020-07-07T08:44:58.000Z</time>
      </trkpt>
      <trkpt lat="44.40986" lon="6.38577">
        <ele>2493</ele>
        <time>2020-07-07T08:44:59.000Z</time>
      </trkpt>
      <trkpt lat="44.40985" lon="6.38578">
        <ele>2493</ele>
        <time>2020-07-07T08:45:00.000Z</time>
      </trkpt>
      <trkpt lat="44.40984" lon="6.38578">
        <ele>2493</ele>
        <time>2020-07-07T08:45:01.000Z</time>
      </trkpt>
      <trkpt lat="44.40983" lon="6.38579">
        <ele>2494</ele>
        <time>2020-07-07T08:45:02.000Z</time>
      </trkpt>
      <trkpt lat="44.40983" lon="6.3858">
        <ele>2494</ele>
        <time>2020-07-07T08:45:03.000Z</time>
      </trkpt>
      <trkpt lat="44.40982" lon="6.3858">
        <ele>2494</ele>
        <time>2020-07-07T08:45:04.000Z</time>
      </trkpt>
      <trkpt lat="44.4098" lon="6.38581">
        <ele>2494</ele>
        <time>2020-07-07T08:45:05.000Z</time>
      </trkpt>
      <trkpt lat="44.4098" lon="6.38581">
        <ele>2494</ele>
        <time>2020-07-07T08:45:06.000Z</time>
      </trkpt>
      <trkpt lat="44.40979" lon="6.38582">
        <ele>2494</ele>
        <time>2020-07-07T08:45:07.000Z</time>
      </trkpt>
      <trkpt lat="44.40978" lon="6.38583">
        <ele>2495</ele>
        <time>2020-07-07T08:45:08.000Z</time>
      </trkpt>
      <trkpt lat="44.40977" lon="6.38583">
        <ele>2495</ele>
        <time>2020-07-07T08:45:09.000Z</time>
      </trkpt>
      <trkpt lat="44.40976" lon="6.38583">
        <ele>2495</ele>
        <time>2020-07-07T08:45:10.000Z</time>
      </trkpt>
      <trkpt lat="44.40975" lon="6.38584">
        <ele>2495</ele>
        <time>2020-07-07T08:45:11.000Z</time>
      </trkpt>
      <trkpt lat="44.40975" lon="6.38585">
        <ele>2495</ele>
        <time>2020-07-07T08:45:12.000Z</time>
      </trkpt>
      <trkpt lat="44.40974" lon="6.38585">
        <ele>2495</ele>
        <time>2020-07-07T08:45:13.000Z</time>
      </trkpt>
      <trkpt lat="44.40973" lon="6.38585">
        <ele>2495</ele>
        <time>2020-07-07T08:45:14.000Z</time>
      </trkpt>
      <trkpt lat="44.40972" lon="6.38586">
        <ele>2495</ele>
        <time>2020-07-07T08:45:15.000Z</time>
      </trkpt>
      <trkpt lat="44.40972" lon="6.38587">
        <ele>2495</ele>
        <time>2020-07-07T08:45:16.000Z</time>
      </trkpt>
      <trkpt lat="44.40971" lon="6.38587">
        <ele>2495</ele>
        <time>2020-07-07T08:45:17.000Z</time>
      </trkpt>
      <trkpt lat="44.4097" lon="6.38588">
        <ele>2495</ele>
        <time>2020-07-07T08:45:18.000Z</time>
      </trkpt>
      <trkpt lat="44.40969" lon="6.38588">
        <ele>2495</ele>
        <time>2020-07-07T08:45:19.000Z</time>
      </trkpt>
      <trkpt lat="44.40968" lon="6.38589">
        <ele>2495</ele>
        <time>2020-07-07T08:45:20.000Z</time>
      </trkpt>
      <trkpt lat="44.40968" lon="6.38589">
        <ele>2495</ele>
        <time>2020-07-07T08:45:21.000Z</time>
      </trkpt>
      <trkpt lat="44.40967" lon="6.3859">
        <ele>2495</ele>
        <time>2020-07-07T08:45:22.000Z</time>
      </trkpt>
      <trkpt lat="44.40966" lon="6.3859">
        <ele>2495</ele>
        <time>2020-07-07T08:45:23.000Z</time>
      </trkpt>
      <trkpt lat="44.40966" lon="6.38591">
        <ele>2496</ele>
        <time>2020-07-07T08:45:24.000Z</time>
      </trkpt>
      <trkpt lat="44.40965" lon="6.38591">
        <ele>2496</ele>
        <time>2020-07-07T08:45:25.000Z</time>
      </trkpt>
      <trkpt lat="44.40965" lon="6.38592">
        <ele>2496</ele>
        <time>2020-07-07T08:45:26.000Z</time>
      </trkpt>
      <trkpt lat="44.40964" lon="6.38592">
        <ele>2496</ele>
        <time>2020-07-07T08:45:27.000Z</time>
      </trkpt>
      <trkpt lat="44.40964" lon="6.38593">
        <ele>2496</ele>
        <time>2020-07-07T08:45:28.000Z</time>
      </trkpt>
      <trkpt lat="44.40963" lon="6.38594">
        <ele>2496</ele>
        <time>2020-07-07T08:45:29.000Z</time>
      </trkpt>
      <trkpt lat="44.40962" lon="6.38594">
        <ele>2496</ele>
        <time>2020-07-07T08:45:30.000Z</time>
      </trkpt>
      <trkpt lat="44.40961" lon="6.38595">
        <ele>2497</ele>
        <time>2020-07-07T08:45:31.000Z</time>
      </trkpt>
      <trkpt lat="44.40961" lon="6.38596">
        <ele>2497</ele>
        <time>2020-07-07T08:45:32.000Z</time>
      </trkpt>
      <trkpt lat="44.4096" lon="6.38597">
        <ele>2497</ele>
        <time>2020-07-07T08:45:33.000Z</time>
      </trkpt>
      <trkpt lat="44.40959" lon="6.38598">
        <ele>2497</ele>
        <time>2020-07-07T08:45:34.000Z</time>
      </trkpt>
      <trkpt lat="44.40959" lon="6.38599">
        <ele>2497</ele>
        <time>2020-07-07T08:45:35.000Z</time>
      </trkpt>
      <trkpt lat="44.40958" lon="6.386">
        <ele>2497</ele>
        <time>2020-07-07T08:45:36.000Z</time>
      </trkpt>
      <trkpt lat="44.40957" lon="6.386">
        <ele>2497</ele>
        <time>2020-07-07T08:45:37.000Z</time>
      </trkpt>
      <trkpt lat="44.40956" lon="6.38601">
        <ele>2498</ele>
        <time>2020-07-07T08:45:38.000Z</time>
      </trkpt>
      <trkpt lat="44.40955" lon="6.38601">
        <ele>2498</ele>
        <time>2020-07-07T08:45:39.000Z</time>
      </trkpt>
      <trkpt lat="44.40955" lon="6.38602">
        <ele>2498</ele>
        <time>2020-07-07T08:45:40.000Z</time>
      </trkpt>
      <trkpt lat="44.40954" lon="6.38603">
        <ele>2498</ele>
        <time>2020-07-07T08:45:41.000Z</time>
      </trkpt>
      <trkpt lat="44.40953" lon="6.38603">
        <ele>2498</ele>
        <time>2020-07-07T08:45:42.000Z</time>
      </trkpt>
      <trkpt lat="44.40952" lon="6.38604">
        <ele>2498</ele>
        <time>2020-07-07T08:45:43.000Z</time>
      </trkpt>
      <trkpt lat="44.40951" lon="6.38604">
        <ele>2498</ele>
        <time>2020-07-07T08:45:44.000Z</time>
      </trkpt>
      <trkpt lat="44.4095" lon="6.38605">
        <ele>2498</ele>
        <time>2020-07-07T08:45:45.000Z</time>
      </trkpt>
      <trkpt lat="44.40949" lon="6.38606">
        <ele>2498</ele>
        <time>2020-07-07T08:45:46.000Z</time>
      </trkpt>
      <trkpt lat="44.40949" lon="6.38606">
        <ele>2498</ele>
        <time>2020-07-07T08:45:47.000Z</time>
      </trkpt>
      <trkpt lat="44.40948" lon="6.38607">
        <ele>2498</ele>
        <time>2020-07-07T08:45:48.000Z</time>
      </trkpt>
      <trkpt lat="44.40947" lon="6.38607">
        <ele>2498</ele>
        <time>2020-07-07T08:45:49.000Z</time>
      </trkpt>
      <trkpt lat="44.40946" lon="6.38608">
        <ele>2498</ele>
        <time>2020-07-07T08:45:50.000Z</time>
      </trkpt>
      <trkpt lat="44.40945" lon="6.38608">
        <ele>2498</ele>
        <time>2020-07-07T08:45:51.000Z</time>
      </trkpt>
      <trkpt lat="44.40945" lon="6.38609">
        <ele>2499</ele>
        <time>2020-07-07T08:45:52.000Z</time>
      </trkpt>
      <trkpt lat="44.40944" lon="6.38609">
        <ele>2499</ele>
        <time>2020-07-07T08:45:53.000Z</time>
      </trkpt>
      <trkpt lat="44.40943" lon="6.3861">
        <ele>2499</ele>
        <time>2020-07-07T08:45:54.000Z</time>
      </trkpt>
      <trkpt lat="44.40942" lon="6.3861">
        <ele>2499</ele>
        <time>2020-07-07T08:45:55.000Z</time>
      </trkpt>
      <trkpt lat="44.40941" lon="6.38611">
        <ele>2499</ele>
        <time>2020-07-07T08:45:56.000Z</time>
      </trkpt>
      <trkpt lat="44.40941" lon="6.38611">
        <ele>2499</ele>
        <time>2020-07-07T08:45:57.000Z</time>
      </trkpt>
      <trkpt lat="44.4094" lon="6.38612">
        <ele>2499</ele>
        <time>2020-07-07T08:45:58.000Z</time>
      </trkpt>
      <trkpt lat="44.40939" lon="6.38612">
        <ele>2499</ele>
        <time>2020-07-07T08:45:59.000Z</time>
      </trkpt>
      <trkpt lat="44.40938" lon="6.38613">
        <ele>2499</ele>
        <time>2020-07-07T08:46:00.000Z</time>
      </trkpt>
      <trkpt lat="44.40937" lon="6.38613">
        <ele>2499</ele>
        <time>2020-07-07T08:46:01.000Z</time>
      </trkpt>
      <trkpt lat="44.40937" lon="6.38614">
        <ele>2499</ele>
        <time>2020-07-07T08:46:02.000Z</time>
      </trkpt>
      <trkpt lat="44.40936" lon="6.38615">
        <ele>2499</ele>
        <time>2020-07-07T08:46:03.000Z</time>
      </trkpt>
      <trkpt lat="44.40935" lon="6.38615">
        <ele>2499</ele>
        <time>2020-07-07T08:46:04.000Z</time>
      </trkpt>
      <trkpt lat="44.40934" lon="6.38616">
        <ele>2499</ele>
        <time>2020-07-07T08:46:05.000Z</time>
      </trkpt>
      <trkpt lat="44.40933" lon="6.38616">
        <ele>2499</ele>
        <time>2020-07-07T08:46:06.000Z</time>
      </trkpt>
      <trkpt lat="44.40933" lon="6.38617">
        <ele>2499</ele>
        <time>2020-07-07T08:46:07.000Z</time>
      </trkpt>
      <trkpt lat="44.40932" lon="6.38618">
        <ele>2499</ele>
        <time>2020-07-07T08:46:08.000Z</time>
      </trkpt>
      <trkpt lat="44.40931" lon="6.38619">
        <ele>2499</ele>
        <time>2020-07-07T08:46:09.000Z</time>
      </trkpt>
      <trkpt lat="44.4093" lon="6.38619">
        <ele>2500</ele>
        <time>2020-07-07T08:46:10.000Z</time>
      </trkpt>
      <trkpt lat="44.4093" lon="6.3862">
        <ele>2500</ele>
        <time>2020-07-07T08:46:11.000Z</time>
      </trkpt>
      <trkpt lat="44.40929" lon="6.38621">
        <ele>2500</ele>
        <time>2020-07-07T08:46:12.000Z</time>
      </trkpt>
      <trkpt lat="44.40928" lon="6.38622">
        <ele>2500</ele>
        <time>2020-07-07T08:46:13.000Z</time>
      </trkpt>
      <trkpt lat="44.40928" lon="6.38622">
        <ele>2500</ele>
        <time>2020-07-07T08:46:14.000Z</time>
      </trkpt>
      <trkpt lat="44.40928" lon="6.38623">
        <ele>2500</ele>
        <time>2020-07-07T08:46:15.000Z</time>
      </trkpt>
      <trkpt lat="44.40928" lon="6.38623">
        <ele>2500</ele>
        <time>2020-07-07T08:46:16.000Z</time>
      </trkpt>
      <trkpt lat="44.40928" lon="6.38623">
        <ele>2500</ele>
        <time>2020-07-07T08:46:17.000Z</time>
      </trkpt>
      <trkpt lat="44.40928" lon="6.38623">
        <ele>2500</ele>
        <time>2020-07-07T08:46:18.000Z</time>
      </trkpt>
      <trkpt lat="44.40928" lon="6.38623">
        <ele>2500</ele>
        <time>2020-07-07T08:46:19.000Z</time>
      </trkpt>
      <trkpt lat="44.40928" lon="6.38623">
        <ele>2500</ele>
        <time>2020-07-07T08:46:20.000Z</time>
      </trkpt>
      <trkpt lat="44.40928" lon="6.38623">
        <ele>2500</ele>
        <time>2020-07-07T08:46:21.000Z</time>
      </trkpt>
      <trkpt lat="44.40928" lon="6.38623">
        <ele>2500</ele>
        <time>2020-07-07T08:46:22.000Z</time>
      </trkpt>
      <trkpt lat="44.40927" lon="6.38623">
        <ele>2500</ele>
        <time>2020-07-07T08:46:23.000Z</time>
      </trkpt>
      <trkpt lat="44.40926" lon="6.38624">
        <ele>2501</ele>
        <time>2020-07-07T08:46:24.000Z</time>
      </trkpt>
      <trkpt lat="44.40925" lon="6.38625">
        <ele>2501</ele>
        <time>2020-07-07T08:46:25.000Z</time>
      </trkpt>
      <trkpt lat="44.40925" lon="6.38626">
        <ele>2501</ele>
        <time>2020-07-07T08:46:26.000Z</time>
      </trkpt>
      <trkpt lat="44.40924" lon="6.38626">
        <ele>2501</ele>
        <time>2020-07-07T08:46:27.000Z</time>
      </trkpt>
      <trkpt lat="44.40923" lon="6.38627">
        <ele>2501</ele>
        <time>2020-07-07T08:46:28.000Z</time>
      </trkpt>
      <trkpt lat="44.40922" lon="6.38628">
        <ele>2501</ele>
        <time>2020-07-07T08:46:29.000Z</time>
      </trkpt>
      <trkpt lat="44.40921" lon="6.38628">
        <ele>2501</ele>
        <time>2020-07-07T08:46:30.000Z</time>
      </trkpt>
      <trkpt lat="44.40921" lon="6.38629">
        <ele>2501</ele>
        <time>2020-07-07T08:46:31.000Z</time>
      </trkpt>
      <trkpt lat="44.4092" lon="6.3863">
        <ele>2501</ele>
        <time>2020-07-07T08:46:32.000Z</time>
      </trkpt>
      <trkpt lat="44.40919" lon="6.3863">
        <ele>2502</ele>
        <time>2020-07-07T08:46:33.000Z</time>
      </trkpt>
      <trkpt lat="44.40918" lon="6.38631">
        <ele>2502</ele>
        <time>2020-07-07T08:46:34.000Z</time>
      </trkpt>
      <trkpt lat="44.40918" lon="6.38632">
        <ele>2502</ele>
        <time>2020-07-07T08:46:35.000Z</time>
      </trkpt>
      <trkpt lat="44.40917" lon="6.38633">
        <ele>2502</ele>
        <time>2020-07-07T08:46:36.000Z</time>
      </trkpt>
      <trkpt lat="44.40917" lon="6.38633">
        <ele>2502</ele>
        <time>2020-07-07T08:46:37.000Z</time>
      </trkpt>
      <trkpt lat="44.40916" lon="6.38633">
        <ele>2502</ele>
        <time>2020-07-07T08:46:38.000Z</time>
      </trkpt>
      <trkpt lat="44.40915" lon="6.38634">
        <ele>2502</ele>
        <time>2020-07-07T08:46:39.000Z</time>
      </trkpt>
      <trkpt lat="44.40915" lon="6.38634">
        <ele>2502</ele>
        <time>2020-07-07T08:46:40.000Z</time>
      </trkpt>
      <trkpt lat="44.40914" lon="6.38635">
        <ele>2502</ele>
        <time>2020-07-07T08:46:41.000Z</time>
      </trkpt>
      <trkpt lat="44.40913" lon="6.38636">
        <ele>2503</ele>
        <time>2020-07-07T08:46:42.000Z</time>
      </trkpt>
      <trkpt lat="44.40912" lon="6.38637">
        <ele>2503</ele>
        <time>2020-07-07T08:46:43.000Z</time>
      </trkpt>
      <trkpt lat="44.40912" lon="6.38638">
        <ele>2503</ele>
        <time>2020-07-07T08:46:44.000Z</time>
      </trkpt>
      <trkpt lat="44.40912" lon="6.38639">
        <ele>2503</ele>
        <time>2020-07-07T08:46:45.000Z</time>
      </trkpt>
      <trkpt lat="44.40912" lon="6.38639">
        <ele>2503</ele>
        <time>2020-07-07T08:46:46.000Z</time>
      </trkpt>
      <trkpt lat="44.40912" lon="6.38639">
        <ele>2503</ele>
        <time>2020-07-07T08:46:47.000Z</time>
      </trkpt>
      <trkpt lat="44.40912" lon="6.38639">
        <ele>2503</ele>
        <time>2020-07-07T08:46:48.000Z</time>
      </trkpt>
      <trkpt lat="44.40912" lon="6.38639">
        <ele>2503</ele>
        <time>2020-07-07T08:46:49.000Z</time>
      </trkpt>
      <trkpt lat="44.40912" lon="6.38639">
        <ele>2503</ele>
        <time>2020-07-07T08:46:50.000Z</time>
      </trkpt>
      <trkpt lat="44.40912" lon="6.3864">
        <ele>2503</ele>
        <time>2020-07-07T08:46:51.000Z</time>
      </trkpt>
      <trkpt lat="44.40912" lon="6.3864">
        <ele>2503</ele>
        <time>2020-07-07T08:46:52.000Z</time>
      </trkpt>
      <trkpt lat="44.40912" lon="6.38639">
        <ele>2503</ele>
        <time>2020-07-07T08:46:53.000Z</time>
      </trkpt>
      <trkpt lat="44.40912" lon="6.38639">
        <ele>2503</ele>
        <time>2020-07-07T08:46:54.000Z</time>
      </trkpt>
      <trkpt lat="44.40912" lon="6.38639">
        <ele>2503</ele>
        <time>2020-07-07T08:46:55.000Z</time>
      </trkpt>
      <trkpt lat="44.40912" lon="6.38639">
        <ele>2503</ele>
        <time>2020-07-07T08:46:56.000Z</time>
      </trkpt>
      <trkpt lat="44.40912" lon="6.38639">
        <ele>2503</ele>
        <time>2020-07-07T08:46:57.000Z</time>
      </trkpt>
      <trkpt lat="44.40912" lon="6.38639">
        <ele>2503</ele>
        <time>2020-07-07T08:46:58.000Z</time>
      </trkpt>
      <trkpt lat="44.40912" lon="6.38639">
        <ele>2503</ele>
        <time>2020-07-07T08:46:59.000Z</time>
      </trkpt>
      <trkpt lat="44.40912" lon="6.38639">
        <ele>2503</ele>
        <time>2020-07-07T08:47:00.000Z</time>
      </trkpt>
      <trkpt lat="44.40912" lon="6.38639">
        <ele>2503</ele>
        <time>2020-07-07T08:47:01.000Z</time>
      </trkpt>
      <trkpt lat="44.40912" lon="6.38639">
        <ele>2503</ele>
        <time>2020-07-07T08:47:02.000Z</time>
      </trkpt>
      <trkpt lat="44.40912" lon="6.38639">
        <ele>2503</ele>
        <time>2020-07-07T08:47:03.000Z</time>
      </trkpt>
      <trkpt lat="44.40912" lon="6.38638">
        <ele>2503</ele>
        <time>2020-07-07T08:47:04.000Z</time>
      </trkpt>
      <trkpt lat="44.40913" lon="6.38639">
        <ele>2503</ele>
        <time>2020-07-07T08:47:05.000Z</time>
      </trkpt>
      <trkpt lat="44.40914" lon="6.38639">
        <ele>2503</ele>
        <time>2020-07-07T08:47:06.000Z</time>
      </trkpt>
      <trkpt lat="44.40915" lon="6.38639">
        <ele>2503</ele>
        <time>2020-07-07T08:47:07.000Z</time>
      </trkpt>
      <trkpt lat="44.40915" lon="6.38638">
        <ele>2502</ele>
        <time>2020-07-07T08:47:08.000Z</time>
      </trkpt>
      <trkpt lat="44.40916" lon="6.38638">
        <ele>2502</ele>
        <time>2020-07-07T08:47:09.000Z</time>
      </trkpt>
      <trkpt lat="44.40917" lon="6.38638">
        <ele>2502</ele>
        <time>2020-07-07T08:47:10.000Z</time>
      </trkpt>
      <trkpt lat="44.40917" lon="6.38638">
        <ele>2502</ele>
        <time>2020-07-07T08:47:11.000Z</time>
      </trkpt>
      <trkpt lat="44.40918" lon="6.38638">
        <ele>2502</ele>
        <time>2020-07-07T08:47:12.000Z</time>
      </trkpt>
      <trkpt lat="44.40919" lon="6.38638">
        <ele>2502</ele>
        <time>2020-07-07T08:47:13.000Z</time>
      </trkpt>
      <trkpt lat="44.4092" lon="6.38638">
        <ele>2502</ele>
        <time>2020-07-07T08:47:14.000Z</time>
      </trkpt>
      <trkpt lat="44.40922" lon="6.38637">
        <ele>2502</ele>
        <time>2020-07-07T08:47:15.000Z</time>
      </trkpt>
      <trkpt lat="44.40923" lon="6.38636">
        <ele>2502</ele>
        <time>2020-07-07T08:47:16.000Z</time>
      </trkpt>
      <trkpt lat="44.40923" lon="6.38636">
        <ele>2502</ele>
        <time>2020-07-07T08:47:17.000Z</time>
      </trkpt>
      <trkpt lat="44.40924" lon="6.38636">
        <ele>2502</ele>
        <time>2020-07-07T08:47:18.000Z</time>
      </trkpt>
      <trkpt lat="44.40925" lon="6.38635">
        <ele>2502</ele>
        <time>2020-07-07T08:47:19.000Z</time>
      </trkpt>
      <trkpt lat="44.40926" lon="6.38635">
        <ele>2502</ele>
        <time>2020-07-07T08:47:20.000Z</time>
      </trkpt>
      <trkpt lat="44.40926" lon="6.38635">
        <ele>2502</ele>
        <time>2020-07-07T08:47:21.000Z</time>
      </trkpt>
      <trkpt lat="44.40928" lon="6.38635">
        <ele>2502</ele>
        <time>2020-07-07T08:47:22.000Z</time>
      </trkpt>
      <trkpt lat="44.40929" lon="6.38634">
        <ele>2502</ele>
        <time>2020-07-07T08:47:23.000Z</time>
      </trkpt>
      <trkpt lat="44.4093" lon="6.38634">
        <ele>2502</ele>
        <time>2020-07-07T08:47:24.000Z</time>
      </trkpt>
      <trkpt lat="44.40931" lon="6.38633">
        <ele>2503</ele>
        <time>2020-07-07T08:47:25.000Z</time>
      </trkpt>
      <trkpt lat="44.40932" lon="6.38632">
        <ele>2503</ele>
        <time>2020-07-07T08:47:26.000Z</time>
      </trkpt>
      <trkpt lat="44.40933" lon="6.38631">
        <ele>2503</ele>
        <time>2020-07-07T08:47:27.000Z</time>
      </trkpt>
      <trkpt lat="44.40933" lon="6.38631">
        <ele>2503</ele>
        <time>2020-07-07T08:47:28.000Z</time>
      </trkpt>
      <trkpt lat="44.40934" lon="6.3863">
        <ele>2503</ele>
        <time>2020-07-07T08:47:29.000Z</time>
      </trkpt>
      <trkpt lat="44.40936" lon="6.38629">
        <ele>2503</ele>
        <time>2020-07-07T08:47:30.000Z</time>
      </trkpt>
      <trkpt lat="44.40937" lon="6.38629">
        <ele>2503</ele>
        <time>2020-07-07T08:47:31.000Z</time>
      </trkpt>
      <trkpt lat="44.40937" lon="6.38628">
        <ele>2503</ele>
        <time>2020-07-07T08:47:32.000Z</time>
      </trkpt>
      <trkpt lat="44.40939" lon="6.38627">
        <ele>2504</ele>
        <time>2020-07-07T08:47:33.000Z</time>
      </trkpt>
      <trkpt lat="44.4094" lon="6.38626">
        <ele>2504</ele>
        <time>2020-07-07T08:47:34.000Z</time>
      </trkpt>
      <trkpt lat="44.40941" lon="6.38625">
        <ele>2504</ele>
        <time>2020-07-07T08:47:35.000Z</time>
      </trkpt>
      <trkpt lat="44.40942" lon="6.38624">
        <ele>2504</ele>
        <time>2020-07-07T08:47:36.000Z</time>
      </trkpt>
      <trkpt lat="44.40943" lon="6.38624">
        <ele>2504</ele>
        <time>2020-07-07T08:47:37.000Z</time>
      </trkpt>
      <trkpt lat="44.40944" lon="6.38623">
        <ele>2504</ele>
        <time>2020-07-07T08:47:38.000Z</time>
      </trkpt>
      <trkpt lat="44.40945" lon="6.38623">
        <ele>2504</ele>
        <time>2020-07-07T08:47:39.000Z</time>
      </trkpt>
      <trkpt lat="44.40945" lon="6.38622">
        <ele>2505</ele>
        <time>2020-07-07T08:47:40.000Z</time>
      </trkpt>
      <trkpt lat="44.40946" lon="6.38621">
        <ele>2505</ele>
        <time>2020-07-07T08:47:41.000Z</time>
      </trkpt>
      <trkpt lat="44.40947" lon="6.3862">
        <ele>2505</ele>
        <time>2020-07-07T08:47:42.000Z</time>
      </trkpt>
      <trkpt lat="44.40947" lon="6.3862">
        <ele>2505</ele>
        <time>2020-07-07T08:47:43.000Z</time>
      </trkpt>
      <trkpt lat="44.40948" lon="6.38619">
        <ele>2505</ele>
        <time>2020-07-07T08:47:44.000Z</time>
      </trkpt>
      <trkpt lat="44.40949" lon="6.38618">
        <ele>2505</ele>
        <time>2020-07-07T08:47:45.000Z</time>
      </trkpt>
      <trkpt lat="44.4095" lon="6.38618">
        <ele>2505</ele>
        <time>2020-07-07T08:47:46.000Z</time>
      </trkpt>
      <trkpt lat="44.4095" lon="6.38618">
        <ele>2505</ele>
        <time>2020-07-07T08:47:47.000Z</time>
      </trkpt>
      <trkpt lat="44.4095" lon="6.38618">
        <ele>2505</ele>
        <time>2020-07-07T08:47:48.000Z</time>
      </trkpt>
      <trkpt lat="44.40951" lon="6.38617">
        <ele>2506</ele>
        <time>2020-07-07T08:47:49.000Z</time>
      </trkpt>
      <trkpt lat="44.40952" lon="6.38618">
        <ele>2506</ele>
        <time>2020-07-07T08:47:50.000Z</time>
      </trkpt>
      <trkpt lat="44.40953" lon="6.38619">
        <ele>2506</ele>
        <time>2020-07-07T08:47:51.000Z</time>
      </trkpt>
      <trkpt lat="44.40954" lon="6.3862">
        <ele>2506</ele>
        <time>2020-07-07T08:47:52.000Z</time>
      </trkpt>
      <trkpt lat="44.40954" lon="6.3862">
        <ele>2506</ele>
        <time>2020-07-07T08:47:53.000Z</time>
      </trkpt>
      <trkpt lat="44.40954" lon="6.3862">
        <ele>2506</ele>
        <time>2020-07-07T08:47:54.000Z</time>
      </trkpt>
      <trkpt lat="44.40954" lon="6.3862">
        <ele>2506</ele>
        <time>2020-07-07T08:47:55.000Z</time>
      </trkpt>
      <trkpt lat="44.40954" lon="6.3862">
        <ele>2506</ele>
        <time>2020-07-07T08:47:56.000Z</time>
      </trkpt>
      <trkpt lat="44.40954" lon="6.3862">
        <ele>2506</ele>
        <time>2020-07-07T08:47:57.000Z</time>
      </trkpt>
      <trkpt lat="44.40954" lon="6.3862">
        <ele>2506</ele>
        <time>2020-07-07T08:47:58.000Z</time>
      </trkpt>
      <trkpt lat="44.40954" lon="6.3862">
        <ele>2506</ele>
        <time>2020-07-07T08:47:59.000Z</time>
      </trkpt>
      <trkpt lat="44.40954" lon="6.3862">
        <ele>2506</ele>
        <time>2020-07-07T08:48:00.000Z</time>
      </trkpt>
      <trkpt lat="44.40954" lon="6.3862">
        <ele>2505</ele>
        <time>2020-07-07T08:48:01.000Z</time>
      </trkpt>
      <trkpt lat="44.40955" lon="6.3862">
        <ele>2505</ele>
        <time>2020-07-07T08:48:02.000Z</time>
      </trkpt>
      <trkpt lat="44.40955" lon="6.38621">
        <ele>2505</ele>
        <time>2020-07-07T08:48:03.000Z</time>
      </trkpt>
      <trkpt lat="44.40955" lon="6.38622">
        <ele>2505</ele>
        <time>2020-07-07T08:48:04.000Z</time>
      </trkpt>
      <trkpt lat="44.40956" lon="6.38622">
        <ele>2505</ele>
        <time>2020-07-07T08:48:05.000Z</time>
      </trkpt>
      <trkpt lat="44.40956" lon="6.38623">
        <ele>2505</ele>
        <time>2020-07-07T08:48:06.000Z</time>
      </trkpt>
      <trkpt lat="44.40956" lon="6.38625">
        <ele>2505</ele>
        <time>2020-07-07T08:48:07.000Z</time>
      </trkpt>
      <trkpt lat="44.40957" lon="6.38625">
        <ele>2505</ele>
        <time>2020-07-07T08:48:08.000Z</time>
      </trkpt>
      <trkpt lat="44.40957" lon="6.38627">
        <ele>2505</ele>
        <time>2020-07-07T08:48:09.000Z</time>
      </trkpt>
      <trkpt lat="44.40957" lon="6.38628">
        <ele>2505</ele>
        <time>2020-07-07T08:48:10.000Z</time>
      </trkpt>
      <trkpt lat="44.40958" lon="6.38629">
        <ele>2505</ele>
        <time>2020-07-07T08:48:11.000Z</time>
      </trkpt>
      <trkpt lat="44.40958" lon="6.3863">
        <ele>2505</ele>
        <time>2020-07-07T08:48:12.000Z</time>
      </trkpt>
      <trkpt lat="44.40958" lon="6.38631">
        <ele>2505</ele>
        <time>2020-07-07T08:48:13.000Z</time>
      </trkpt>
      <trkpt lat="44.40958" lon="6.38633">
        <ele>2505</ele>
        <time>2020-07-07T08:48:14.000Z</time>
      </trkpt>
      <trkpt lat="44.40958" lon="6.38634">
        <ele>2505</ele>
        <time>2020-07-07T08:48:15.000Z</time>
      </trkpt>
      <trkpt lat="44.40958" lon="6.38635">
        <ele>2505</ele>
        <time>2020-07-07T08:48:16.000Z</time>
      </trkpt>
      <trkpt lat="44.40959" lon="6.38636">
        <ele>2505</ele>
        <time>2020-07-07T08:48:17.000Z</time>
      </trkpt>
      <trkpt lat="44.40959" lon="6.38637">
        <ele>2505</ele>
        <time>2020-07-07T08:48:18.000Z</time>
      </trkpt>
      <trkpt lat="44.40959" lon="6.38638">
        <ele>2505</ele>
        <time>2020-07-07T08:48:19.000Z</time>
      </trkpt>
      <trkpt lat="44.40959" lon="6.3864">
        <ele>2505</ele>
        <time>2020-07-07T08:48:20.000Z</time>
      </trkpt>
      <trkpt lat="44.40959" lon="6.38641">
        <ele>2505</ele>
        <time>2020-07-07T08:48:21.000Z</time>
      </trkpt>
      <trkpt lat="44.40959" lon="6.38642">
        <ele>2505</ele>
        <time>2020-07-07T08:48:22.000Z</time>
      </trkpt>
      <trkpt lat="44.40959" lon="6.38642">
        <ele>2505</ele>
        <time>2020-07-07T08:48:23.000Z</time>
      </trkpt>
      <trkpt lat="44.40959" lon="6.38643">
        <ele>2505</ele>
        <time>2020-07-07T08:48:24.000Z</time>
      </trkpt>
      <trkpt lat="44.40959" lon="6.38643">
        <ele>2505</ele>
        <time>2020-07-07T08:48:25.000Z</time>
      </trkpt>
      <trkpt lat="44.40959" lon="6.38643">
        <ele>2505</ele>
        <time>2020-07-07T08:48:26.000Z</time>
      </trkpt>
      <trkpt lat="44.40959" lon="6.38643">
        <ele>2505</ele>
        <time>2020-07-07T08:48:27.000Z</time>
      </trkpt>
      <trkpt lat="44.40959" lon="6.38643">
        <ele>2504</ele>
        <time>2020-07-07T08:48:28.000Z</time>
      </trkpt>
      <trkpt lat="44.40959" lon="6.38643">
        <ele>2504</ele>
        <time>2020-07-07T08:48:29.000Z</time>
      </trkpt>
      <trkpt lat="44.40959" lon="6.38643">
        <ele>2504</ele>
        <time>2020-07-07T08:48:30.000Z</time>
      </trkpt>
      <trkpt lat="44.40959" lon="6.38643">
        <ele>2504</ele>
        <time>2020-07-07T08:48:31.000Z</time>
      </trkpt>
      <trkpt lat="44.40959" lon="6.38643">
        <ele>2504</ele>
        <time>2020-07-07T08:48:32.000Z</time>
      </trkpt>
      <trkpt lat="44.40959" lon="6.38643">
        <ele>2504</ele>
        <time>2020-07-07T08:48:33.000Z</time>
      </trkpt>
      <trkpt lat="44.40958" lon="6.38643">
        <ele>2504</ele>
        <time>2020-07-07T08:48:34.000Z</time>
      </trkpt>
      <trkpt lat="44.40958" lon="6.38643">
        <ele>2504</ele>
        <time>2020-07-07T08:48:35.000Z</time>
      </trkpt>
      <trkpt lat="44.40958" lon="6.38643">
        <ele>2504</ele>
        <time>2020-07-07T08:48:36.000Z</time>
      </trkpt>
      <trkpt lat="44.40959" lon="6.38643">
        <ele>2504</ele>
        <time>2020-07-07T08:48:37.000Z</time>
      </trkpt>
      <trkpt lat="44.40958" lon="6.38643">
        <ele>2504</ele>
        <time>2020-07-07T08:48:38.000Z</time>
      </trkpt>
      <trkpt lat="44.40958" lon="6.38643">
        <ele>2504</ele>
        <time>2020-07-07T08:48:39.000Z</time>
      </trkpt>
      <trkpt lat="44.40958" lon="6.38643">
        <ele>2504</ele>
        <time>2020-07-07T08:48:40.000Z</time>
      </trkpt>
      <trkpt lat="44.40958" lon="6.38643">
        <ele>2504</ele>
        <time>2020-07-07T08:48:41.000Z</time>
      </trkpt>
      <trkpt lat="44.40958" lon="6.38642">
        <ele>2504</ele>
        <time>2020-07-07T08:48:42.000Z</time>
      </trkpt>
      <trkpt lat="44.40957" lon="6.38641">
        <ele>2505</ele>
        <time>2020-07-07T08:48:43.000Z</time>
      </trkpt>
      <trkpt lat="44.40957" lon="6.3864">
        <ele>2505</ele>
        <time>2020-07-07T08:48:44.000Z</time>
      </trkpt>
      <trkpt lat="44.40956" lon="6.38639">
        <ele>2505</ele>
        <time>2020-07-07T08:48:45.000Z</time>
      </trkpt>
      <trkpt lat="44.40956" lon="6.38638">
        <ele>2505</ele>
        <time>2020-07-07T08:48:46.000Z</time>
      </trkpt>
      <trkpt lat="44.40955" lon="6.38637">
        <ele>2505</ele>
        <time>2020-07-07T08:48:47.000Z</time>
      </trkpt>
      <trkpt lat="44.40954" lon="6.38635">
        <ele>2505</ele>
        <time>2020-07-07T08:48:48.000Z</time>
      </trkpt>
      <trkpt lat="44.40954" lon="6.38634">
        <ele>2505</ele>
        <time>2020-07-07T08:48:49.000Z</time>
      </trkpt>
      <trkpt lat="44.40954" lon="6.38633">
        <ele>2505</ele>
        <time>2020-07-07T08:48:50.000Z</time>
      </trkpt>
      <trkpt lat="44.40954" lon="6.38631">
        <ele>2505</ele>
        <time>2020-07-07T08:48:51.000Z</time>
      </trkpt>
      <trkpt lat="44.40953" lon="6.3863">
        <ele>2505</ele>
        <time>2020-07-07T08:48:52.000Z</time>
      </trkpt>
      <trkpt lat="44.40953" lon="6.3863">
        <ele>2505</ele>
        <time>2020-07-07T08:48:53.000Z</time>
      </trkpt>
      <trkpt lat="44.40953" lon="6.38629">
        <ele>2505</ele>
        <time>2020-07-07T08:48:54.000Z</time>
      </trkpt>
      <trkpt lat="44.40952" lon="6.38628">
        <ele>2505</ele>
        <time>2020-07-07T08:48:55.000Z</time>
      </trkpt>
      <trkpt lat="44.40952" lon="6.38627">
        <ele>2505</ele>
        <time>2020-07-07T08:48:56.000Z</time>
      </trkpt>
      <trkpt lat="44.40951" lon="6.38626">
        <ele>2505</ele>
        <time>2020-07-07T08:48:57.000Z</time>
      </trkpt>
      <trkpt lat="44.40951" lon="6.38626">
        <ele>2505</ele>
        <time>2020-07-07T08:48:58.000Z</time>
      </trkpt>
      <trkpt lat="44.4095" lon="6.38625">
        <ele>2505</ele>
        <time>2020-07-07T08:48:59.000Z</time>
      </trkpt>
      <trkpt lat="44.40949" lon="6.38625">
        <ele>2505</ele>
        <time>2020-07-07T08:49:00.000Z</time>
      </trkpt>
      <trkpt lat="44.40948" lon="6.38625">
        <ele>2505</ele>
        <time>2020-07-07T08:49:01.000Z</time>
      </trkpt>
      <trkpt lat="44.40947" lon="6.38624">
        <ele>2505</ele>
        <time>2020-07-07T08:49:02.000Z</time>
      </trkpt>
      <trkpt lat="44.40946" lon="6.38624">
        <ele>2505</ele>
        <time>2020-07-07T08:49:03.000Z</time>
      </trkpt>
      <trkpt lat="44.40946" lon="6.38624">
        <ele>2505</ele>
        <time>2020-07-07T08:49:04.000Z</time>
      </trkpt>
      <trkpt lat="44.40945" lon="6.38624">
        <ele>2505</ele>
        <time>2020-07-07T08:49:05.000Z</time>
      </trkpt>
      <trkpt lat="44.40945" lon="6.38624">
        <ele>2505</ele>
        <time>2020-07-07T08:49:06.000Z</time>
      </trkpt>
      <trkpt lat="44.40944" lon="6.38625">
        <ele>2506</ele>
        <time>2020-07-07T08:49:07.000Z</time>
      </trkpt>
      <trkpt lat="44.40944" lon="6.38626">
        <ele>2506</ele>
        <time>2020-07-07T08:49:08.000Z</time>
      </trkpt>
      <trkpt lat="44.40943" lon="6.38626">
        <ele>2506</ele>
        <time>2020-07-07T08:49:09.000Z</time>
      </trkpt>
      <trkpt lat="44.40942" lon="6.38626">
        <ele>2506</ele>
        <time>2020-07-07T08:49:10.000Z</time>
      </trkpt>
      <trkpt lat="44.40941" lon="6.38627">
        <ele>2506</ele>
        <time>2020-07-07T08:49:11.000Z</time>
      </trkpt>
      <trkpt lat="44.4094" lon="6.38628">
        <ele>2506</ele>
        <time>2020-07-07T08:49:12.000Z</time>
      </trkpt>
      <trkpt lat="44.40939" lon="6.38628">
        <ele>2506</ele>
        <time>2020-07-07T08:49:13.000Z</time>
      </trkpt>
      <trkpt lat="44.40938" lon="6.38628">
        <ele>2506</ele>
        <time>2020-07-07T08:49:14.000Z</time>
      </trkpt>
      <trkpt lat="44.40937" lon="6.38628">
        <ele>2506</ele>
        <time>2020-07-07T08:49:15.000Z</time>
      </trkpt>
      <trkpt lat="44.40936" lon="6.38629">
        <ele>2506</ele>
        <time>2020-07-07T08:49:16.000Z</time>
      </trkpt>
      <trkpt lat="44.40935" lon="6.38629">
        <ele>2506</ele>
        <time>2020-07-07T08:49:17.000Z</time>
      </trkpt>
      <trkpt lat="44.40935" lon="6.3863">
        <ele>2506</ele>
        <time>2020-07-07T08:49:18.000Z</time>
      </trkpt>
      <trkpt lat="44.40934" lon="6.38631">
        <ele>2506</ele>
        <time>2020-07-07T08:49:19.000Z</time>
      </trkpt>
      <trkpt lat="44.40933" lon="6.38632">
        <ele>2506</ele>
        <time>2020-07-07T08:49:20.000Z</time>
      </trkpt>
      <trkpt lat="44.40933" lon="6.38633">
        <ele>2506</ele>
        <time>2020-07-07T08:49:21.000Z</time>
      </trkpt>
      <trkpt lat="44.40931" lon="6.38634">
        <ele>2506</ele>
        <time>2020-07-07T08:49:22.000Z</time>
      </trkpt>
      <trkpt lat="44.4093" lon="6.38634">
        <ele>2506</ele>
        <time>2020-07-07T08:49:23.000Z</time>
      </trkpt>
      <trkpt lat="44.4093" lon="6.38634">
        <ele>2506</ele>
        <time>2020-07-07T08:49:24.000Z</time>
      </trkpt>
      <trkpt lat="44.40929" lon="6.38635">
        <ele>2506</ele>
        <time>2020-07-07T08:49:25.000Z</time>
      </trkpt>
      <trkpt lat="44.40928" lon="6.38635">
        <ele>2506</ele>
        <time>2020-07-07T08:49:26.000Z</time>
      </trkpt>
      <trkpt lat="44.40928" lon="6.38635">
        <ele>2507</ele>
        <time>2020-07-07T08:49:27.000Z</time>
      </trkpt>
      <trkpt lat="44.40927" lon="6.38636">
        <ele>2507</ele>
        <time>2020-07-07T08:49:28.000Z</time>
      </trkpt>
      <trkpt lat="44.40926" lon="6.38637">
        <ele>2507</ele>
        <time>2020-07-07T08:49:29.000Z</time>
      </trkpt>
      <trkpt lat="44.40925" lon="6.38638">
        <ele>2507</ele>
        <time>2020-07-07T08:49:30.000Z</time>
      </trkpt>
      <trkpt lat="44.40924" lon="6.38638">
        <ele>2507</ele>
        <time>2020-07-07T08:49:31.000Z</time>
      </trkpt>
      <trkpt lat="44.40924" lon="6.38639">
        <ele>2507</ele>
        <time>2020-07-07T08:49:32.000Z</time>
      </trkpt>
      <trkpt lat="44.40923" lon="6.3864">
        <ele>2507</ele>
        <time>2020-07-07T08:49:33.000Z</time>
      </trkpt>
      <trkpt lat="44.40923" lon="6.38641">
        <ele>2507</ele>
        <time>2020-07-07T08:49:34.000Z</time>
      </trkpt>
      <trkpt lat="44.40922" lon="6.38642">
        <ele>2507</ele>
        <time>2020-07-07T08:49:35.000Z</time>
      </trkpt>
      <trkpt lat="44.40922" lon="6.38643">
        <ele>2507</ele>
        <time>2020-07-07T08:49:36.000Z</time>
      </trkpt>
      <trkpt lat="44.40921" lon="6.38644">
        <ele>2507</ele>
        <time>2020-07-07T08:49:37.000Z</time>
      </trkpt>
      <trkpt lat="44.40921" lon="6.38644">
        <ele>2507</ele>
        <time>2020-07-07T08:49:38.000Z</time>
      </trkpt>
      <trkpt lat="44.4092" lon="6.38646">
        <ele>2507</ele>
        <time>2020-07-07T08:49:39.000Z</time>
      </trkpt>
      <trkpt lat="44.4092" lon="6.38647">
        <ele>2507</ele>
        <time>2020-07-07T08:49:40.000Z</time>
      </trkpt>
      <trkpt lat="44.4092" lon="6.38648">
        <ele>2507</ele>
        <time>2020-07-07T08:49:41.000Z</time>
      </trkpt>
      <trkpt lat="44.4092" lon="6.38649">
        <ele>2507</ele>
        <time>2020-07-07T08:49:42.000Z</time>
      </trkpt>
      <trkpt lat="44.4092" lon="6.3865">
        <ele>2507</ele>
        <time>2020-07-07T08:49:43.000Z</time>
      </trkpt>
      <trkpt lat="44.40919" lon="6.38652">
        <ele>2507</ele>
        <time>2020-07-07T08:49:44.000Z</time>
      </trkpt>
      <trkpt lat="44.40919" lon="6.38653">
        <ele>2507</ele>
        <time>2020-07-07T08:49:45.000Z</time>
      </trkpt>
      <trkpt lat="44.40918" lon="6.38653">
        <ele>2507</ele>
        <time>2020-07-07T08:49:46.000Z</time>
      </trkpt>
      <trkpt lat="44.40918" lon="6.38654">
        <ele>2507</ele>
        <time>2020-07-07T08:49:47.000Z</time>
      </trkpt>
      <trkpt lat="44.40918" lon="6.38654">
        <ele>2507</ele>
        <time>2020-07-07T08:49:48.000Z</time>
      </trkpt>
      <trkpt lat="44.40918" lon="6.38654">
        <ele>2507</ele>
        <time>2020-07-07T08:49:49.000Z</time>
      </trkpt>
      <trkpt lat="44.40918" lon="6.38653">
        <ele>2507</ele>
        <time>2020-07-07T08:49:50.000Z</time>
      </trkpt>
      <trkpt lat="44.40918" lon="6.38653">
        <ele>2507</ele>
        <time>2020-07-07T08:49:51.000Z</time>
      </trkpt>
      <trkpt lat="44.40918" lon="6.38654">
        <ele>2507</ele>
        <time>2020-07-07T08:49:52.000Z</time>
      </trkpt>
      <trkpt lat="44.40918" lon="6.38654">
        <ele>2507</ele>
        <time>2020-07-07T08:49:53.000Z</time>
      </trkpt>
      <trkpt lat="44.40918" lon="6.38654">
        <ele>2507</ele>
        <time>2020-07-07T08:49:54.000Z</time>
      </trkpt>
      <trkpt lat="44.40918" lon="6.38654">
        <ele>2507</ele>
        <time>2020-07-07T08:49:55.000Z</time>
      </trkpt>
      <trkpt lat="44.40918" lon="6.38654">
        <ele>2507</ele>
        <time>2020-07-07T08:49:56.000Z</time>
      </trkpt>
      <trkpt lat="44.40918" lon="6.38654">
        <ele>2507</ele>
        <time>2020-07-07T08:49:57.000Z</time>
      </trkpt>
      <trkpt lat="44.40918" lon="6.38654">
        <ele>2507</ele>
        <time>2020-07-07T08:49:58.000Z</time>
      </trkpt>
      <trkpt lat="44.40918" lon="6.38654">
        <ele>2507</ele>
        <time>2020-07-07T08:49:59.000Z</time>
      </trkpt>
      <trkpt lat="44.40919" lon="6.38654">
        <ele>2507</ele>
        <time>2020-07-07T08:50:00.000Z</time>
      </trkpt>
      <trkpt lat="44.40919" lon="6.38654">
        <ele>2507</ele>
        <time>2020-07-07T08:50:01.000Z</time>
      </trkpt>
      <trkpt lat="44.40919" lon="6.38654">
        <ele>2507</ele>
        <time>2020-07-07T08:50:02.000Z</time>
      </trkpt>
      <trkpt lat="44.40919" lon="6.38654">
        <ele>2507</ele>
        <time>2020-07-07T08:50:03.000Z</time>
      </trkpt>
      <trkpt lat="44.40919" lon="6.38654">
        <ele>2507</ele>
        <time>2020-07-07T08:50:04.000Z</time>
      </trkpt>
      <trkpt lat="44.40919" lon="6.38654">
        <ele>2507</ele>
        <time>2020-07-07T08:50:05.000Z</time>
      </trkpt>
      <trkpt lat="44.40919" lon="6.38654">
        <ele>2507</ele>
        <time>2020-07-07T08:50:06.000Z</time>
      </trkpt>
      <trkpt lat="44.40919" lon="6.38654">
        <ele>2507</ele>
        <time>2020-07-07T08:50:07.000Z</time>
      </trkpt>
      <trkpt lat="44.40919" lon="6.38654">
        <ele>2507</ele>
        <time>2020-07-07T08:50:08.000Z</time>
      </trkpt>
      <trkpt lat="44.40919" lon="6.38654">
        <ele>2507</ele>
        <time>2020-07-07T08:50:09.000Z</time>
      </trkpt>
      <trkpt lat="44.40919" lon="6.38654">
        <ele>2507</ele>
        <time>2020-07-07T08:50:10.000Z</time>
      </trkpt>
      <trkpt lat="44.40919" lon="6.38654">
        <ele>2507</ele>
        <time>2020-07-07T08:50:11.000Z</time>
      </trkpt>
      <trkpt lat="44.40919" lon="6.38654">
        <ele>2507</ele>
        <time>2020-07-07T08:50:12.000Z</time>
      </trkpt>
      <trkpt lat="44.40919" lon="6.38654">
        <ele>2507</ele>
        <time>2020-07-07T08:50:13.000Z</time>
      </trkpt>
      <trkpt lat="44.40919" lon="6.38653">
        <ele>2507</ele>
        <time>2020-07-07T08:50:14.000Z</time>
      </trkpt>
      <trkpt lat="44.40919" lon="6.38653">
        <ele>2507</ele>
        <time>2020-07-07T08:50:15.000Z</time>
      </trkpt>
      <trkpt lat="44.40919" lon="6.38653">
        <ele>2507</ele>
        <time>2020-07-07T08:50:16.000Z</time>
      </trkpt>
      <trkpt lat="44.40919" lon="6.38653">
        <ele>2507</ele>
        <time>2020-07-07T08:50:17.000Z</time>
      </trkpt>
      <trkpt lat="44.40919" lon="6.38653">
        <ele>2507</ele>
        <time>2020-07-07T08:50:18.000Z</time>
      </trkpt>
      <trkpt lat="44.40919" lon="6.38653">
        <ele>2507</ele>
        <time>2020-07-07T08:50:19.000Z</time>
      </trkpt>
      <trkpt lat="44.40919" lon="6.38653">
        <ele>2507</ele>
        <time>2020-07-07T08:50:20.000Z</time>
      </trkpt>
      <trkpt lat="44.40919" lon="6.38653">
        <ele>2507</ele>
        <time>2020-07-07T08:50:21.000Z</time>
      </trkpt>
      <trkpt lat="44.40919" lon="6.38653">
        <ele>2507</ele>
        <time>2020-07-07T08:50:22.000Z</time>
      </trkpt>
      <trkpt lat="44.40919" lon="6.38652">
        <ele>2507</ele>
        <time>2020-07-07T08:50:23.000Z</time>
      </trkpt>
      <trkpt lat="44.4092" lon="6.38652">
        <ele>2507</ele>
        <time>2020-07-07T08:50:24.000Z</time>
      </trkpt>
      <trkpt lat="44.4092" lon="6.38652">
        <ele>2507</ele>
        <time>2020-07-07T08:50:25.000Z</time>
      </trkpt>
      <trkpt lat="44.4092" lon="6.38652">
        <ele>2507</ele>
        <time>2020-07-07T08:50:26.000Z</time>
      </trkpt>
      <trkpt lat="44.4092" lon="6.38652">
        <ele>2507</ele>
        <time>2020-07-07T08:50:27.000Z</time>
      </trkpt>
      <trkpt lat="44.4092" lon="6.38652">
        <ele>2507</ele>
        <time>2020-07-07T08:50:28.000Z</time>
      </trkpt>
      <trkpt lat="44.4092" lon="6.38652">
        <ele>2507</ele>
        <time>2020-07-07T08:50:29.000Z</time>
      </trkpt>
      <trkpt lat="44.4092" lon="6.38651">
        <ele>2507</ele>
        <time>2020-07-07T08:50:30.000Z</time>
      </trkpt>
      <trkpt lat="44.4092" lon="6.38651">
        <ele>2507</ele>
        <time>2020-07-07T08:50:31.000Z</time>
      </trkpt>
      <trkpt lat="44.4092" lon="6.38651">
        <ele>2507</ele>
        <time>2020-07-07T08:50:32.000Z</time>
      </trkpt>
      <trkpt lat="44.4092" lon="6.38651">
        <ele>2507</ele>
        <time>2020-07-07T08:50:33.000Z</time>
      </trkpt>
      <trkpt lat="44.4092" lon="6.38651">
        <ele>2507</ele>
        <time>2020-07-07T08:50:34.000Z</time>
      </trkpt>
      <trkpt lat="44.4092" lon="6.38651">
        <ele>2507</ele>
        <time>2020-07-07T08:50:35.000Z</time>
      </trkpt>
      <trkpt lat="44.4092" lon="6.38651">
        <ele>2507</ele>
        <time>2020-07-07T08:50:36.000Z</time>
      </trkpt>
      <trkpt lat="44.4092" lon="6.38651">
        <ele>2507</ele>
        <time>2020-07-07T08:50:37.000Z</time>
      </trkpt>
      <trkpt lat="44.4092" lon="6.38651">
        <ele>2507</ele>
        <time>2020-07-07T08:50:38.000Z</time>
      </trkpt>
      <trkpt lat="44.4092" lon="6.38651">
        <ele>2507</ele>
        <time>2020-07-07T08:50:39.000Z</time>
      </trkpt>
      <trkpt lat="44.4092" lon="6.38651">
        <ele>2507</ele>
        <time>2020-07-07T08:50:40.000Z</time>
      </trkpt>
      <trkpt lat="44.40919" lon="6.38651">
        <ele>2507</ele>
        <time>2020-07-07T08:50:41.000Z</time>
      </trkpt>
      <trkpt lat="44.40919" lon="6.38651">
        <ele>2507</ele>
        <time>2020-07-07T08:50:42.000Z</time>
      </trkpt>
      <trkpt lat="44.40919" lon="6.38651">
        <ele>2507</ele>
        <time>2020-07-07T08:50:43.000Z</time>
      </trkpt>
      <trkpt lat="44.40919" lon="6.38651">
        <ele>2507</ele>
        <time>2020-07-07T08:50:44.000Z</time>
      </trkpt>
      <trkpt lat="44.40919" lon="6.38651">
        <ele>2507</ele>
        <time>2020-07-07T08:50:45.000Z</time>
      </trkpt>
      <trkpt lat="44.40919" lon="6.38651">
        <ele>2506</ele>
        <time>2020-07-07T08:50:46.000Z</time>
      </trkpt>
      <trkpt lat="44.40919" lon="6.38651">
        <ele>2506</ele>
        <time>2020-07-07T08:50:47.000Z</time>
      </trkpt>
      <trkpt lat="44.40919" lon="6.38651">
        <ele>2506</ele>
        <time>2020-07-07T08:50:48.000Z</time>
      </trkpt>
      <trkpt lat="44.40919" lon="6.38651">
        <ele>2506</ele>
        <time>2020-07-07T08:50:49.000Z</time>
      </trkpt>
      <trkpt lat="44.40919" lon="6.38651">
        <ele>2506</ele>
        <time>2020-07-07T08:50:50.000Z</time>
      </trkpt>
      <trkpt lat="44.40919" lon="6.38651">
        <ele>2506</ele>
        <time>2020-07-07T08:50:51.000Z</time>
      </trkpt>
      <trkpt lat="44.40919" lon="6.38651">
        <ele>2506</ele>
        <time>2020-07-07T08:50:52.000Z</time>
      </trkpt>
      <trkpt lat="44.40919" lon="6.38651">
        <ele>2506</ele>
        <time>2020-07-07T08:50:53.000Z</time>
      </trkpt>
      <trkpt lat="44.40919" lon="6.38651">
        <ele>2506</ele>
        <time>2020-07-07T08:50:54.000Z</time>
      </trkpt>
      <trkpt lat="44.40919" lon="6.38651">
        <ele>2506</ele>
        <time>2020-07-07T08:50:55.000Z</time>
      </trkpt>
      <trkpt lat="44.40919" lon="6.38651">
        <ele>2506</ele>
        <time>2020-07-07T08:50:56.000Z</time>
      </trkpt>
      <trkpt lat="44.40919" lon="6.38651">
        <ele>2506</ele>
        <time>2020-07-07T08:50:57.000Z</time>
      </trkpt>
      <trkpt lat="44.40919" lon="6.38651">
        <ele>2506</ele>
        <time>2020-07-07T08:50:58.000Z</time>
      </trkpt>
      <trkpt lat="44.40919" lon="6.38651">
        <ele>2506</ele>
        <time>2020-07-07T08:50:59.000Z</time>
      </trkpt>
      <trkpt lat="44.40919" lon="6.38651">
        <ele>2506</ele>
        <time>2020-07-07T08:51:00.000Z</time>
      </trkpt>
      <trkpt lat="44.40919" lon="6.38651">
        <ele>2506</ele>
        <time>2020-07-07T08:51:01.000Z</time>
      </trkpt>
      <trkpt lat="44.40919" lon="6.38651">
        <ele>2506</ele>
        <time>2020-07-07T08:51:02.000Z</time>
      </trkpt>
      <trkpt lat="44.40919" lon="6.38651">
        <ele>2506</ele>
        <time>2020-07-07T08:51:03.000Z</time>
      </trkpt>
      <trkpt lat="44.40919" lon="6.38651">
        <ele>2506</ele>
        <time>2020-07-07T08:51:04.000Z</time>
      </trkpt>
      <trkpt lat="44.40919" lon="6.38651">
        <ele>2506</ele>
        <time>2020-07-07T08:51:05.000Z</time>
      </trkpt>
      <trkpt lat="44.40919" lon="6.38652">
        <ele>2506</ele>
        <time>2020-07-07T08:51:06.000Z</time>
      </trkpt>
      <trkpt lat="44.40919" lon="6.38652">
        <ele>2506</ele>
        <time>2020-07-07T08:51:07.000Z</time>
      </trkpt>
      <trkpt lat="44.40919" lon="6.38652">
        <ele>2506</ele>
        <time>2020-07-07T08:51:08.000Z</time>
      </trkpt>
      <trkpt lat="44.40919" lon="6.38652">
        <ele>2506</ele>
        <time>2020-07-07T08:51:09.000Z</time>
      </trkpt>
      <trkpt lat="44.40919" lon="6.38652">
        <ele>2506</ele>
        <time>2020-07-07T08:51:10.000Z</time>
      </trkpt>
      <trkpt lat="44.40919" lon="6.38652">
        <ele>2506</ele>
        <time>2020-07-07T08:51:11.000Z</time>
      </trkpt>
      <trkpt lat="44.40919" lon="6.38652">
        <ele>2506</ele>
        <time>2020-07-07T08:51:12.000Z</time>
      </trkpt>
      <trkpt lat="44.40919" lon="6.38652">
        <ele>2506</ele>
        <time>2020-07-07T08:51:13.000Z</time>
      </trkpt>
      <trkpt lat="44.40919" lon="6.38652">
        <ele>2506</ele>
        <time>2020-07-07T08:51:14.000Z</time>
      </trkpt>
      <trkpt lat="44.40919" lon="6.38652">
        <ele>2506</ele>
        <time>2020-07-07T08:51:15.000Z</time>
      </trkpt>
      <trkpt lat="44.40919" lon="6.38652">
        <ele>2506</ele>
        <time>2020-07-07T08:51:16.000Z</time>
      </trkpt>
      <trkpt lat="44.40919" lon="6.38652">
        <ele>2506</ele>
        <time>2020-07-07T08:51:17.000Z</time>
      </trkpt>
      <trkpt lat="44.40919" lon="6.38652">
        <ele>2506</ele>
        <time>2020-07-07T08:51:18.000Z</time>
      </trkpt>
      <trkpt lat="44.40919" lon="6.38652">
        <ele>2506</ele>
        <time>2020-07-07T08:51:19.000Z</time>
      </trkpt>
      <trkpt lat="44.40919" lon="6.38651">
        <ele>2506</ele>
        <time>2020-07-07T08:51:20.000Z</time>
      </trkpt>
      <trkpt lat="44.40919" lon="6.38651">
        <ele>2506</ele>
        <time>2020-07-07T08:51:21.000Z</time>
      </trkpt>
      <trkpt lat="44.40919" lon="6.38651">
        <ele>2506</ele>
        <time>2020-07-07T08:51:22.000Z</time>
      </trkpt>
      <trkpt lat="44.40919" lon="6.38651">
        <ele>2506</ele>
        <time>2020-07-07T08:51:23.000Z</time>
      </trkpt>
      <trkpt lat="44.40919" lon="6.38651">
        <ele>2506</ele>
        <time>2020-07-07T08:51:24.000Z</time>
      </trkpt>
      <trkpt lat="44.40919" lon="6.38651">
        <ele>2506</ele>
        <time>2020-07-07T08:51:25.000Z</time>
      </trkpt>
      <trkpt lat="44.40919" lon="6.38651">
        <ele>2506</ele>
        <time>2020-07-07T08:51:26.000Z</time>
      </trkpt>
      <trkpt lat="44.40919" lon="6.38651">
        <ele>2506</ele>
        <time>2020-07-07T08:51:27.000Z</time>
      </trkpt>
      <trkpt lat="44.40919" lon="6.38651">
        <ele>2506</ele>
        <time>2020-07-07T08:51:28.000Z</time>
      </trkpt>
      <trkpt lat="44.40919" lon="6.3865">
        <ele>2506</ele>
        <time>2020-07-07T08:51:29.000Z</time>
      </trkpt>
      <trkpt lat="44.40919" lon="6.3865">
        <ele>2506</ele>
        <time>2020-07-07T08:51:30.000Z</time>
      </trkpt>
      <trkpt lat="44.40919" lon="6.3865">
        <ele>2506</ele>
        <time>2020-07-07T08:51:31.000Z</time>
      </trkpt>
      <trkpt lat="44.40919" lon="6.3865">
        <ele>2506</ele>
        <time>2020-07-07T08:51:32.000Z</time>
      </trkpt>
      <trkpt lat="44.40919" lon="6.3865">
        <ele>2506</ele>
        <time>2020-07-07T08:51:33.000Z</time>
      </trkpt>
      <trkpt lat="44.40919" lon="6.3865">
        <ele>2506</ele>
        <time>2020-07-07T08:51:34.000Z</time>
      </trkpt>
      <trkpt lat="44.4092" lon="6.38649">
        <ele>2506</ele>
        <time>2020-07-07T08:51:35.000Z</time>
      </trkpt>
      <trkpt lat="44.4092" lon="6.3865">
        <ele>2506</ele>
        <time>2020-07-07T08:51:36.000Z</time>
      </trkpt>
      <trkpt lat="44.40921" lon="6.3865">
        <ele>2506</ele>
        <time>2020-07-07T08:51:37.000Z</time>
      </trkpt>
      <trkpt lat="44.40921" lon="6.3865">
        <ele>2506</ele>
        <time>2020-07-07T08:51:38.000Z</time>
      </trkpt>
      <trkpt lat="44.40921" lon="6.3865">
        <ele>2506</ele>
        <time>2020-07-07T08:51:39.000Z</time>
      </trkpt>
      <trkpt lat="44.4092" lon="6.3865">
        <ele>2506</ele>
        <time>2020-07-07T08:51:40.000Z</time>
      </trkpt>
      <trkpt lat="44.40921" lon="6.3865">
        <ele>2506</ele>
        <time>2020-07-07T08:51:41.000Z</time>
      </trkpt>
      <trkpt lat="44.40922" lon="6.38651">
        <ele>2506</ele>
        <time>2020-07-07T08:51:42.000Z</time>
      </trkpt>
      <trkpt lat="44.40922" lon="6.38652">
        <ele>2506</ele>
        <time>2020-07-07T08:51:43.000Z</time>
      </trkpt>
      <trkpt lat="44.40923" lon="6.38652">
        <ele>2506</ele>
        <time>2020-07-07T08:51:44.000Z</time>
      </trkpt>
      <trkpt lat="44.40924" lon="6.38651">
        <ele>2506</ele>
        <time>2020-07-07T08:51:45.000Z</time>
      </trkpt>
      <trkpt lat="44.40924" lon="6.38651">
        <ele>2506</ele>
        <time>2020-07-07T08:51:46.000Z</time>
      </trkpt>
      <trkpt lat="44.40925" lon="6.3865">
        <ele>2506</ele>
        <time>2020-07-07T08:51:47.000Z</time>
      </trkpt>
      <trkpt lat="44.40925" lon="6.38649">
        <ele>2506</ele>
        <time>2020-07-07T08:51:48.000Z</time>
      </trkpt>
      <trkpt lat="44.40925" lon="6.38649">
        <ele>2506</ele>
        <time>2020-07-07T08:51:49.000Z</time>
      </trkpt>
      <trkpt lat="44.40926" lon="6.38648">
        <ele>2506</ele>
        <time>2020-07-07T08:51:50.000Z</time>
      </trkpt>
      <trkpt lat="44.40926" lon="6.38647">
        <ele>2506</ele>
        <time>2020-07-07T08:51:51.000Z</time>
      </trkpt>
      <trkpt lat="44.40927" lon="6.38646">
        <ele>2507</ele>
        <time>2020-07-07T08:51:52.000Z</time>
      </trkpt>
      <trkpt lat="44.40928" lon="6.38645">
        <ele>2507</ele>
        <time>2020-07-07T08:51:53.000Z</time>
      </trkpt>
      <trkpt lat="44.40928" lon="6.38645">
        <ele>2507</ele>
        <time>2020-07-07T08:51:54.000Z</time>
      </trkpt>
      <trkpt lat="44.40929" lon="6.38644">
        <ele>2507</ele>
        <time>2020-07-07T08:51:55.000Z</time>
      </trkpt>
      <trkpt lat="44.40928" lon="6.38643">
        <ele>2507</ele>
        <time>2020-07-07T08:51:56.000Z</time>
      </trkpt>
      <trkpt lat="44.40928" lon="6.38642">
        <ele>2507</ele>
        <time>2020-07-07T08:51:57.000Z</time>
      </trkpt>
      <trkpt lat="44.40929" lon="6.38641">
        <ele>2508</ele>
        <time>2020-07-07T08:51:58.000Z</time>
      </trkpt>
      <trkpt lat="44.40929" lon="6.38642">
        <ele>2508</ele>
        <time>2020-07-07T08:51:59.000Z</time>
      </trkpt>
      <trkpt lat="44.4093" lon="6.38641">
        <ele>2508</ele>
        <time>2020-07-07T08:52:00.000Z</time>
      </trkpt>
      <trkpt lat="44.4093" lon="6.38641">
        <ele>2508</ele>
        <time>2020-07-07T08:52:01.000Z</time>
      </trkpt>
      <trkpt lat="44.4093" lon="6.38641">
        <ele>2508</ele>
        <time>2020-07-07T08:52:02.000Z</time>
      </trkpt>
      <trkpt lat="44.4093" lon="6.38641">
        <ele>2508</ele>
        <time>2020-07-07T08:52:03.000Z</time>
      </trkpt>
      <trkpt lat="44.4093" lon="6.3864">
        <ele>2508</ele>
        <time>2020-07-07T08:52:04.000Z</time>
      </trkpt>
      <trkpt lat="44.4093" lon="6.3864">
        <ele>2508</ele>
        <time>2020-07-07T08:52:05.000Z</time>
      </trkpt>
      <trkpt lat="44.40931" lon="6.38639">
        <ele>2508</ele>
        <time>2020-07-07T08:52:06.000Z</time>
      </trkpt>
      <trkpt lat="44.40931" lon="6.38639">
        <ele>2508</ele>
        <time>2020-07-07T08:52:07.000Z</time>
      </trkpt>
      <trkpt lat="44.40931" lon="6.38638">
        <ele>2508</ele>
        <time>2020-07-07T08:52:08.000Z</time>
      </trkpt>
      <trkpt lat="44.40932" lon="6.38638">
        <ele>2508</ele>
        <time>2020-07-07T08:52:09.000Z</time>
      </trkpt>
      <trkpt lat="44.40932" lon="6.38638">
        <ele>2508</ele>
        <time>2020-07-07T08:52:10.000Z</time>
      </trkpt>
      <trkpt lat="44.40932" lon="6.38639">
        <ele>2508</ele>
        <time>2020-07-07T08:52:11.000Z</time>
      </trkpt>
      <trkpt lat="44.40932" lon="6.38639">
        <ele>2508</ele>
        <time>2020-07-07T08:52:12.000Z</time>
      </trkpt>
      <trkpt lat="44.40932" lon="6.38639">
        <ele>2508</ele>
        <time>2020-07-07T08:52:13.000Z</time>
      </trkpt>
      <trkpt lat="44.40932" lon="6.38639">
        <ele>2508</ele>
        <time>2020-07-07T08:52:14.000Z</time>
      </trkpt>
      <trkpt lat="44.40933" lon="6.38639">
        <ele>2508</ele>
        <time>2020-07-07T08:52:15.000Z</time>
      </trkpt>
      <trkpt lat="44.40933" lon="6.38639">
        <ele>2508</ele>
        <time>2020-07-07T08:52:16.000Z</time>
      </trkpt>
      <trkpt lat="44.40933" lon="6.38639">
        <ele>2508</ele>
        <time>2020-07-07T08:52:17.000Z</time>
      </trkpt>
      <trkpt lat="44.40933" lon="6.38639">
        <ele>2508</ele>
        <time>2020-07-07T08:52:18.000Z</time>
      </trkpt>
      <trkpt lat="44.40933" lon="6.38639">
        <ele>2508</ele>
        <time>2020-07-07T08:52:19.000Z</time>
      </trkpt>
      <trkpt lat="44.40933" lon="6.38639">
        <ele>2508</ele>
        <time>2020-07-07T08:52:20.000Z</time>
      </trkpt>
      <trkpt lat="44.40933" lon="6.38639">
        <ele>2508</ele>
        <time>2020-07-07T08:52:21.000Z</time>
      </trkpt>
      <trkpt lat="44.40933" lon="6.38639">
        <ele>2508</ele>
        <time>2020-07-07T08:52:22.000Z</time>
      </trkpt>
      <trkpt lat="44.40933" lon="6.38639">
        <ele>2508</ele>
        <time>2020-07-07T08:52:23.000Z</time>
      </trkpt>
      <trkpt lat="44.40933" lon="6.38639">
        <ele>2508</ele>
        <time>2020-07-07T08:52:24.000Z</time>
      </trkpt>
      <trkpt lat="44.40933" lon="6.38639">
        <ele>2508</ele>
        <time>2020-07-07T08:52:25.000Z</time>
      </trkpt>
      <trkpt lat="44.40933" lon="6.38639">
        <ele>2508</ele>
        <time>2020-07-07T08:52:26.000Z</time>
      </trkpt>
      <trkpt lat="44.40933" lon="6.38639">
        <ele>2508</ele>
        <time>2020-07-07T08:52:27.000Z</time>
      </trkpt>
      <trkpt lat="44.40933" lon="6.38639">
        <ele>2508</ele>
        <time>2020-07-07T08:52:28.000Z</time>
      </trkpt>
      <trkpt lat="44.40934" lon="6.38639">
        <ele>2508</ele>
        <time>2020-07-07T08:52:29.000Z</time>
      </trkpt>
      <trkpt lat="44.40934" lon="6.3864">
        <ele>2508</ele>
        <time>2020-07-07T08:52:30.000Z</time>
      </trkpt>
      <trkpt lat="44.40934" lon="6.3864">
        <ele>2508</ele>
        <time>2020-07-07T08:52:31.000Z</time>
      </trkpt>
      <trkpt lat="44.40934" lon="6.3864">
        <ele>2508</ele>
        <time>2020-07-07T08:52:32.000Z</time>
      </trkpt>
      <trkpt lat="44.40934" lon="6.3864">
        <ele>2508</ele>
        <time>2020-07-07T08:52:33.000Z</time>
      </trkpt>
      <trkpt lat="44.40934" lon="6.3864">
        <ele>2508</ele>
        <time>2020-07-07T08:52:34.000Z</time>
      </trkpt>
      <trkpt lat="44.40934" lon="6.3864">
        <ele>2508</ele>
        <time>2020-07-07T08:52:35.000Z</time>
      </trkpt>
      <trkpt lat="44.40934" lon="6.3864">
        <ele>2508</ele>
        <time>2020-07-07T08:52:36.000Z</time>
      </trkpt>
      <trkpt lat="44.40934" lon="6.3864">
        <ele>2508</ele>
        <time>2020-07-07T08:52:37.000Z</time>
      </trkpt>
      <trkpt lat="44.40934" lon="6.3864">
        <ele>2508</ele>
        <time>2020-07-07T08:52:38.000Z</time>
      </trkpt>
      <trkpt lat="44.40934" lon="6.3864">
        <ele>2508</ele>
        <time>2020-07-07T08:52:39.000Z</time>
      </trkpt>
      <trkpt lat="44.40934" lon="6.3864">
        <ele>2508</ele>
        <time>2020-07-07T08:52:40.000Z</time>
      </trkpt>
      <trkpt lat="44.40934" lon="6.3864">
        <ele>2508</ele>
        <time>2020-07-07T08:52:41.000Z</time>
      </trkpt>
      <trkpt lat="44.40934" lon="6.3864">
        <ele>2508</ele>
        <time>2020-07-07T08:52:42.000Z</time>
      </trkpt>
      <trkpt lat="44.40934" lon="6.3864">
        <ele>2508</ele>
        <time>2020-07-07T08:52:43.000Z</time>
      </trkpt>
      <trkpt lat="44.40934" lon="6.3864">
        <ele>2508</ele>
        <time>2020-07-07T08:52:44.000Z</time>
      </trkpt>
      <trkpt lat="44.40935" lon="6.3864">
        <ele>2508</ele>
        <time>2020-07-07T08:52:45.000Z</time>
      </trkpt>
      <trkpt lat="44.40935" lon="6.3864">
        <ele>2508</ele>
        <time>2020-07-07T08:52:46.000Z</time>
      </trkpt>
      <trkpt lat="44.40936" lon="6.38639">
        <ele>2508</ele>
        <time>2020-07-07T08:52:47.000Z</time>
      </trkpt>
      <trkpt lat="44.40936" lon="6.38639">
        <ele>2508</ele>
        <time>2020-07-07T08:52:48.000Z</time>
      </trkpt>
      <trkpt lat="44.40938" lon="6.38637">
        <ele>2509</ele>
        <time>2020-07-07T08:52:49.000Z</time>
      </trkpt>
      <trkpt lat="44.40938" lon="6.38636">
        <ele>2509</ele>
        <time>2020-07-07T08:52:50.000Z</time>
      </trkpt>
      <trkpt lat="44.40939" lon="6.38635">
        <ele>2509</ele>
        <time>2020-07-07T08:52:51.000Z</time>
      </trkpt>
      <trkpt lat="44.40939" lon="6.38635">
        <ele>2509</ele>
        <time>2020-07-07T08:52:52.000Z</time>
      </trkpt>
      <trkpt lat="44.4094" lon="6.38634">
        <ele>2509</ele>
        <time>2020-07-07T08:52:53.000Z</time>
      </trkpt>
      <trkpt lat="44.40941" lon="6.38633">
        <ele>2509</ele>
        <time>2020-07-07T08:52:54.000Z</time>
      </trkpt>
      <trkpt lat="44.40941" lon="6.38633">
        <ele>2509</ele>
        <time>2020-07-07T08:52:55.000Z</time>
      </trkpt>
      <trkpt lat="44.40942" lon="6.38633">
        <ele>2509</ele>
        <time>2020-07-07T08:52:56.000Z</time>
      </trkpt>
      <trkpt lat="44.40942" lon="6.38633">
        <ele>2509</ele>
        <time>2020-07-07T08:52:57.000Z</time>
      </trkpt>
      <trkpt lat="44.40942" lon="6.38633">
        <ele>2509</ele>
        <time>2020-07-07T08:52:58.000Z</time>
      </trkpt>
      <trkpt lat="44.40942" lon="6.38633">
        <ele>2509</ele>
        <time>2020-07-07T08:52:59.000Z</time>
      </trkpt>
      <trkpt lat="44.40942" lon="6.38633">
        <ele>2509</ele>
        <time>2020-07-07T08:53:00.000Z</time>
      </trkpt>
      <trkpt lat="44.40942" lon="6.38633">
        <ele>2510</ele>
        <time>2020-07-07T08:53:01.000Z</time>
      </trkpt>
      <trkpt lat="44.40942" lon="6.38633">
        <ele>2510</ele>
        <time>2020-07-07T08:53:02.000Z</time>
      </trkpt>
      <trkpt lat="44.40942" lon="6.38633">
        <ele>2510</ele>
        <time>2020-07-07T08:53:03.000Z</time>
      </trkpt>
      <trkpt lat="44.40942" lon="6.38633">
        <ele>2510</ele>
        <time>2020-07-07T08:53:04.000Z</time>
      </trkpt>
      <trkpt lat="44.40942" lon="6.38633">
        <ele>2510</ele>
        <time>2020-07-07T08:53:05.000Z</time>
      </trkpt>
      <trkpt lat="44.40943" lon="6.38633">
        <ele>2510</ele>
        <time>2020-07-07T08:53:06.000Z</time>
      </trkpt>
      <trkpt lat="44.40944" lon="6.38632">
        <ele>2510</ele>
        <time>2020-07-07T08:53:07.000Z</time>
      </trkpt>
      <trkpt lat="44.40944" lon="6.38631">
        <ele>2510</ele>
        <time>2020-07-07T08:53:08.000Z</time>
      </trkpt>
      <trkpt lat="44.40945" lon="6.3863">
        <ele>2510</ele>
        <time>2020-07-07T08:53:09.000Z</time>
      </trkpt>
      <trkpt lat="44.40946" lon="6.38629">
        <ele>2510</ele>
        <time>2020-07-07T08:53:10.000Z</time>
      </trkpt>
      <trkpt lat="44.40947" lon="6.38629">
        <ele>2509</ele>
        <time>2020-07-07T08:53:11.000Z</time>
      </trkpt>
      <trkpt lat="44.40947" lon="6.38629">
        <ele>2509</ele>
        <time>2020-07-07T08:53:12.000Z</time>
      </trkpt>
      <trkpt lat="44.40948" lon="6.38628">
        <ele>2509</ele>
        <time>2020-07-07T08:53:13.000Z</time>
      </trkpt>
      <trkpt lat="44.40949" lon="6.38628">
        <ele>2509</ele>
        <time>2020-07-07T08:53:14.000Z</time>
      </trkpt>
      <trkpt lat="44.40949" lon="6.38628">
        <ele>2509</ele>
        <time>2020-07-07T08:53:15.000Z</time>
      </trkpt>
      <trkpt lat="44.40948" lon="6.38628">
        <ele>2509</ele>
        <time>2020-07-07T08:53:16.000Z</time>
      </trkpt>
      <trkpt lat="44.40948" lon="6.38628">
        <ele>2509</ele>
        <time>2020-07-07T08:53:17.000Z</time>
      </trkpt>
      <trkpt lat="44.40948" lon="6.38627">
        <ele>2510</ele>
        <time>2020-07-07T08:53:18.000Z</time>
      </trkpt>
      <trkpt lat="44.40948" lon="6.38627">
        <ele>2510</ele>
        <time>2020-07-07T08:53:19.000Z</time>
      </trkpt>
      <trkpt lat="44.40948" lon="6.38627">
        <ele>2510</ele>
        <time>2020-07-07T08:53:20.000Z</time>
      </trkpt>
      <trkpt lat="44.40949" lon="6.38627">
        <ele>2510</ele>
        <time>2020-07-07T08:53:21.000Z</time>
      </trkpt>
      <trkpt lat="44.40949" lon="6.38627">
        <ele>2510</ele>
        <time>2020-07-07T08:53:22.000Z</time>
      </trkpt>
      <trkpt lat="44.40949" lon="6.38626">
        <ele>2510</ele>
        <time>2020-07-07T08:53:23.000Z</time>
      </trkpt>
      <trkpt lat="44.40949" lon="6.38626">
        <ele>2510</ele>
        <time>2020-07-07T08:53:24.000Z</time>
      </trkpt>
      <trkpt lat="44.40949" lon="6.38626">
        <ele>2510</ele>
        <time>2020-07-07T08:53:25.000Z</time>
      </trkpt>
      <trkpt lat="44.40949" lon="6.38627">
        <ele>2510</ele>
        <time>2020-07-07T08:53:26.000Z</time>
      </trkpt>
      <trkpt lat="44.40949" lon="6.38627">
        <ele>2510</ele>
        <time>2020-07-07T08:53:27.000Z</time>
      </trkpt>
      <trkpt lat="44.40949" lon="6.38627">
        <ele>2510</ele>
        <time>2020-07-07T08:53:28.000Z</time>
      </trkpt>
      <trkpt lat="44.40949" lon="6.38627">
        <ele>2510</ele>
        <time>2020-07-07T08:53:29.000Z</time>
      </trkpt>
      <trkpt lat="44.4095" lon="6.38627">
        <ele>2510</ele>
        <time>2020-07-07T08:53:30.000Z</time>
      </trkpt>
      <trkpt lat="44.4095" lon="6.38627">
        <ele>2510</ele>
        <time>2020-07-07T08:53:31.000Z</time>
      </trkpt>
      <trkpt lat="44.4095" lon="6.38627">
        <ele>2510</ele>
        <time>2020-07-07T08:53:32.000Z</time>
      </trkpt>
      <trkpt lat="44.4095" lon="6.38627">
        <ele>2510</ele>
        <time>2020-07-07T08:53:33.000Z</time>
      </trkpt>
      <trkpt lat="44.4095" lon="6.38627">
        <ele>2510</ele>
        <time>2020-07-07T08:53:34.000Z</time>
      </trkpt>
      <trkpt lat="44.4095" lon="6.38627">
        <ele>2510</ele>
        <time>2020-07-07T08:53:35.000Z</time>
      </trkpt>
      <trkpt lat="44.4095" lon="6.38627">
        <ele>2510</ele>
        <time>2020-07-07T08:53:36.000Z</time>
      </trkpt>
      <trkpt lat="44.4095" lon="6.38627">
        <ele>2510</ele>
        <time>2020-07-07T08:53:37.000Z</time>
      </trkpt>
      <trkpt lat="44.40951" lon="6.38627">
        <ele>2510</ele>
        <time>2020-07-07T08:53:38.000Z</time>
      </trkpt>
      <trkpt lat="44.40951" lon="6.38627">
        <ele>2510</ele>
        <time>2020-07-07T08:53:39.000Z</time>
      </trkpt>
      <trkpt lat="44.40951" lon="6.38626">
        <ele>2510</ele>
        <time>2020-07-07T08:53:40.000Z</time>
      </trkpt>
      <trkpt lat="44.40951" lon="6.38626">
        <ele>2510</ele>
        <time>2020-07-07T08:53:41.000Z</time>
      </trkpt>
      <trkpt lat="44.40951" lon="6.38626">
        <ele>2510</ele>
        <time>2020-07-07T08:53:42.000Z</time>
      </trkpt>
      <trkpt lat="44.4095" lon="6.38625">
        <ele>2510</ele>
        <time>2020-07-07T08:53:43.000Z</time>
      </trkpt>
      <trkpt lat="44.4095" lon="6.38626">
        <ele>2510</ele>
        <time>2020-07-07T08:53:44.000Z</time>
      </trkpt>
      <trkpt lat="44.4095" lon="6.38626">
        <ele>2510</ele>
        <time>2020-07-07T08:53:45.000Z</time>
      </trkpt>
      <trkpt lat="44.4095" lon="6.38627">
        <ele>2511</ele>
        <time>2020-07-07T08:53:46.000Z</time>
      </trkpt>
      <trkpt lat="44.4095" lon="6.38627">
        <ele>2511</ele>
        <time>2020-07-07T08:53:47.000Z</time>
      </trkpt>
      <trkpt lat="44.4095" lon="6.38627">
        <ele>2511</ele>
        <time>2020-07-07T08:53:48.000Z</time>
      </trkpt>
      <trkpt lat="44.40949" lon="6.38627">
        <ele>2511</ele>
        <time>2020-07-07T08:53:49.000Z</time>
      </trkpt>
      <trkpt lat="44.40949" lon="6.38626">
        <ele>2511</ele>
        <time>2020-07-07T08:53:50.000Z</time>
      </trkpt>
      <trkpt lat="44.40949" lon="6.38625">
        <ele>2511</ele>
        <time>2020-07-07T08:53:51.000Z</time>
      </trkpt>
      <trkpt lat="44.40949" lon="6.38625">
        <ele>2511</ele>
        <time>2020-07-07T08:53:52.000Z</time>
      </trkpt>
      <trkpt lat="44.40949" lon="6.38625">
        <ele>2511</ele>
        <time>2020-07-07T08:53:53.000Z</time>
      </trkpt>
      <trkpt lat="44.40949" lon="6.38625">
        <ele>2511</ele>
        <time>2020-07-07T08:53:54.000Z</time>
      </trkpt>
      <trkpt lat="44.40949" lon="6.38624">
        <ele>2511</ele>
        <time>2020-07-07T08:53:55.000Z</time>
      </trkpt>
      <trkpt lat="44.40949" lon="6.38624">
        <ele>2511</ele>
        <time>2020-07-07T08:53:56.000Z</time>
      </trkpt>
      <trkpt lat="44.40949" lon="6.38624">
        <ele>2511</ele>
        <time>2020-07-07T08:53:57.000Z</time>
      </trkpt>
      <trkpt lat="44.40949" lon="6.38624">
        <ele>2511</ele>
        <time>2020-07-07T08:53:58.000Z</time>
      </trkpt>
      <trkpt lat="44.40949" lon="6.38624">
        <ele>2511</ele>
        <time>2020-07-07T08:53:59.000Z</time>
      </trkpt>
      <trkpt lat="44.40949" lon="6.38624">
        <ele>2511</ele>
        <time>2020-07-07T08:54:00.000Z</time>
      </trkpt>
      <trkpt lat="44.40949" lon="6.38624">
        <ele>2511</ele>
        <time>2020-07-07T08:54:01.000Z</time>
      </trkpt>
      <trkpt lat="44.4095" lon="6.38624">
        <ele>2511</ele>
        <time>2020-07-07T08:54:02.000Z</time>
      </trkpt>
      <trkpt lat="44.4095" lon="6.38624">
        <ele>2511</ele>
        <time>2020-07-07T08:54:03.000Z</time>
      </trkpt>
      <trkpt lat="44.4095" lon="6.38624">
        <ele>2511</ele>
        <time>2020-07-07T08:54:04.000Z</time>
      </trkpt>
      <trkpt lat="44.40951" lon="6.38625">
        <ele>2511</ele>
        <time>2020-07-07T08:54:05.000Z</time>
      </trkpt>
      <trkpt lat="44.40951" lon="6.38625">
        <ele>2511</ele>
        <time>2020-07-07T08:54:06.000Z</time>
      </trkpt>
      <trkpt lat="44.40951" lon="6.38625">
        <ele>2511</ele>
        <time>2020-07-07T08:54:07.000Z</time>
      </trkpt>
      <trkpt lat="44.40951" lon="6.38626">
        <ele>2511</ele>
        <time>2020-07-07T08:54:08.000Z</time>
      </trkpt>
      <trkpt lat="44.40951" lon="6.38627">
        <ele>2511</ele>
        <time>2020-07-07T08:54:09.000Z</time>
      </trkpt>
      <trkpt lat="44.40951" lon="6.38628">
        <ele>2511</ele>
        <time>2020-07-07T08:54:10.000Z</time>
      </trkpt>
      <trkpt lat="44.40951" lon="6.38629">
        <ele>2511</ele>
        <time>2020-07-07T08:54:11.000Z</time>
      </trkpt>
      <trkpt lat="44.40952" lon="6.38629">
        <ele>2511</ele>
        <time>2020-07-07T08:54:12.000Z</time>
      </trkpt>
      <trkpt lat="44.40952" lon="6.38629">
        <ele>2511</ele>
        <time>2020-07-07T08:54:13.000Z</time>
      </trkpt>
      <trkpt lat="44.40952" lon="6.38629">
        <ele>2511</ele>
        <time>2020-07-07T08:54:14.000Z</time>
      </trkpt>
      <trkpt lat="44.40952" lon="6.38629">
        <ele>2511</ele>
        <time>2020-07-07T08:54:15.000Z</time>
      </trkpt>
      <trkpt lat="44.40952" lon="6.3863">
        <ele>2511</ele>
        <time>2020-07-07T08:54:16.000Z</time>
      </trkpt>
      <trkpt lat="44.40952" lon="6.3863">
        <ele>2511</ele>
        <time>2020-07-07T08:54:17.000Z</time>
      </trkpt>
      <trkpt lat="44.40952" lon="6.3863">
        <ele>2511</ele>
        <time>2020-07-07T08:54:18.000Z</time>
      </trkpt>
      <trkpt lat="44.40952" lon="6.38631">
        <ele>2511</ele>
        <time>2020-07-07T08:54:19.000Z</time>
      </trkpt>
      <trkpt lat="44.40951" lon="6.38631">
        <ele>2511</ele>
        <time>2020-07-07T08:54:20.000Z</time>
      </trkpt>
      <trkpt lat="44.40951" lon="6.38632">
        <ele>2511</ele>
        <time>2020-07-07T08:54:21.000Z</time>
      </trkpt>
      <trkpt lat="44.40951" lon="6.38633">
        <ele>2511</ele>
        <time>2020-07-07T08:54:22.000Z</time>
      </trkpt>
      <trkpt lat="44.40951" lon="6.38635">
        <ele>2511</ele>
        <time>2020-07-07T08:54:23.000Z</time>
      </trkpt>
      <trkpt lat="44.40952" lon="6.38636">
        <ele>2511</ele>
        <time>2020-07-07T08:54:24.000Z</time>
      </trkpt>
      <trkpt lat="44.40952" lon="6.38637">
        <ele>2511</ele>
        <time>2020-07-07T08:54:25.000Z</time>
      </trkpt>
      <trkpt lat="44.40952" lon="6.38638">
        <ele>2511</ele>
        <time>2020-07-07T08:54:26.000Z</time>
      </trkpt>
      <trkpt lat="44.40953" lon="6.38639">
        <ele>2511</ele>
        <time>2020-07-07T08:54:27.000Z</time>
      </trkpt>
      <trkpt lat="44.40953" lon="6.38641">
        <ele>2511</ele>
        <time>2020-07-07T08:54:28.000Z</time>
      </trkpt>
      <trkpt lat="44.40953" lon="6.38642">
        <ele>2511</ele>
        <time>2020-07-07T08:54:29.000Z</time>
      </trkpt>
      <trkpt lat="44.40954" lon="6.38643">
        <ele>2511</ele>
        <time>2020-07-07T08:54:30.000Z</time>
      </trkpt>
      <trkpt lat="44.40954" lon="6.38645">
        <ele>2511</ele>
        <time>2020-07-07T08:54:31.000Z</time>
      </trkpt>
      <trkpt lat="44.40954" lon="6.38646">
        <ele>2511</ele>
        <time>2020-07-07T08:54:32.000Z</time>
      </trkpt>
      <trkpt lat="44.40954" lon="6.38647">
        <ele>2511</ele>
        <time>2020-07-07T08:54:33.000Z</time>
      </trkpt>
      <trkpt lat="44.40954" lon="6.38649">
        <ele>2510</ele>
        <time>2020-07-07T08:54:34.000Z</time>
      </trkpt>
      <trkpt lat="44.40954" lon="6.3865">
        <ele>2510</ele>
        <time>2020-07-07T08:54:35.000Z</time>
      </trkpt>
      <trkpt lat="44.40955" lon="6.3865">
        <ele>2510</ele>
        <time>2020-07-07T08:54:36.000Z</time>
      </trkpt>
      <trkpt lat="44.40956" lon="6.38652">
        <ele>2510</ele>
        <time>2020-07-07T08:54:37.000Z</time>
      </trkpt>
      <trkpt lat="44.40957" lon="6.38653">
        <ele>2510</ele>
        <time>2020-07-07T08:54:38.000Z</time>
      </trkpt>
      <trkpt lat="44.40958" lon="6.38654">
        <ele>2510</ele>
        <time>2020-07-07T08:54:39.000Z</time>
      </trkpt>
      <trkpt lat="44.40959" lon="6.38655">
        <ele>2510</ele>
        <time>2020-07-07T08:54:40.000Z</time>
      </trkpt>
      <trkpt lat="44.4096" lon="6.38656">
        <ele>2510</ele>
        <time>2020-07-07T08:54:41.000Z</time>
      </trkpt>
      <trkpt lat="44.4096" lon="6.38656">
        <ele>2510</ele>
        <time>2020-07-07T08:54:42.000Z</time>
      </trkpt>
      <trkpt lat="44.40961" lon="6.38657">
        <ele>2510</ele>
        <time>2020-07-07T08:54:43.000Z</time>
      </trkpt>
      <trkpt lat="44.40961" lon="6.38658">
        <ele>2510</ele>
        <time>2020-07-07T08:54:44.000Z</time>
      </trkpt>
      <trkpt lat="44.40962" lon="6.38659">
        <ele>2510</ele>
        <time>2020-07-07T08:54:45.000Z</time>
      </trkpt>
      <trkpt lat="44.40962" lon="6.3866">
        <ele>2510</ele>
        <time>2020-07-07T08:54:46.000Z</time>
      </trkpt>
      <trkpt lat="44.40963" lon="6.38661">
        <ele>2509</ele>
        <time>2020-07-07T08:54:47.000Z</time>
      </trkpt>
      <trkpt lat="44.40963" lon="6.38662">
        <ele>2509</ele>
        <time>2020-07-07T08:54:48.000Z</time>
      </trkpt>
      <trkpt lat="44.40964" lon="6.38662">
        <ele>2509</ele>
        <time>2020-07-07T08:54:49.000Z</time>
      </trkpt>
      <trkpt lat="44.40964" lon="6.38663">
        <ele>2509</ele>
        <time>2020-07-07T08:54:50.000Z</time>
      </trkpt>
      <trkpt lat="44.40964" lon="6.38664">
        <ele>2509</ele>
        <time>2020-07-07T08:54:51.000Z</time>
      </trkpt>
      <trkpt lat="44.40964" lon="6.38665">
        <ele>2510</ele>
        <time>2020-07-07T08:54:52.000Z</time>
      </trkpt>
      <trkpt lat="44.40965" lon="6.38666">
        <ele>2510</ele>
        <time>2020-07-07T08:54:53.000Z</time>
      </trkpt>
      <trkpt lat="44.40965" lon="6.38666">
        <ele>2509</ele>
        <time>2020-07-07T08:54:54.000Z</time>
      </trkpt>
      <trkpt lat="44.40966" lon="6.38666">
        <ele>2510</ele>
        <time>2020-07-07T08:54:55.000Z</time>
      </trkpt>
      <trkpt lat="44.40967" lon="6.38667">
        <ele>2510</ele>
        <time>2020-07-07T08:54:56.000Z</time>
      </trkpt>
      <trkpt lat="44.40967" lon="6.38667">
        <ele>2510</ele>
        <time>2020-07-07T08:54:57.000Z</time>
      </trkpt>
      <trkpt lat="44.40968" lon="6.38667">
        <ele>2510</ele>
        <time>2020-07-07T08:54:58.000Z</time>
      </trkpt>
      <trkpt lat="44.40968" lon="6.38667">
        <ele>2510</ele>
        <time>2020-07-07T08:54:59.000Z</time>
      </trkpt>
      <trkpt lat="44.40968" lon="6.38667">
        <ele>2510</ele>
        <time>2020-07-07T08:55:00.000Z</time>
      </trkpt>
      <trkpt lat="44.40968" lon="6.38667">
        <ele>2510</ele>
        <time>2020-07-07T08:55:01.000Z</time>
      </trkpt>
      <trkpt lat="44.40968" lon="6.38667">
        <ele>2510</ele>
        <time>2020-07-07T08:55:02.000Z</time>
      </trkpt>
      <trkpt lat="44.40968" lon="6.38667">
        <ele>2509</ele>
        <time>2020-07-07T08:55:03.000Z</time>
      </trkpt>
      <trkpt lat="44.40968" lon="6.38667">
        <ele>2509</ele>
        <time>2020-07-07T08:55:04.000Z</time>
      </trkpt>
      <trkpt lat="44.40968" lon="6.38667">
        <ele>2509</ele>
        <time>2020-07-07T08:55:05.000Z</time>
      </trkpt>
      <trkpt lat="44.40968" lon="6.38667">
        <ele>2509</ele>
        <time>2020-07-07T08:55:06.000Z</time>
      </trkpt>
      <trkpt lat="44.40968" lon="6.38667">
        <ele>2509</ele>
        <time>2020-07-07T08:55:07.000Z</time>
      </trkpt>
      <trkpt lat="44.40968" lon="6.38667">
        <ele>2509</ele>
        <time>2020-07-07T08:55:08.000Z</time>
      </trkpt>
      <trkpt lat="44.40968" lon="6.38667">
        <ele>2509</ele>
        <time>2020-07-07T08:55:09.000Z</time>
      </trkpt>
      <trkpt lat="44.40969" lon="6.38666">
        <ele>2509</ele>
        <time>2020-07-07T08:55:10.000Z</time>
      </trkpt>
      <trkpt lat="44.40969" lon="6.38666">
        <ele>2509</ele>
        <time>2020-07-07T08:55:11.000Z</time>
      </trkpt>
      <trkpt lat="44.40969" lon="6.38667">
        <ele>2509</ele>
        <time>2020-07-07T08:55:12.000Z</time>
      </trkpt>
      <trkpt lat="44.40969" lon="6.38667">
        <ele>2509</ele>
        <time>2020-07-07T08:55:13.000Z</time>
      </trkpt>
      <trkpt lat="44.40969" lon="6.38667">
        <ele>2509</ele>
        <time>2020-07-07T08:55:14.000Z</time>
      </trkpt>
      <trkpt lat="44.40969" lon="6.38667">
        <ele>2509</ele>
        <time>2020-07-07T08:55:15.000Z</time>
      </trkpt>
      <trkpt lat="44.40969" lon="6.38666">
        <ele>2509</ele>
        <time>2020-07-07T08:55:16.000Z</time>
      </trkpt>
      <trkpt lat="44.40968" lon="6.38667">
        <ele>2509</ele>
        <time>2020-07-07T08:55:17.000Z</time>
      </trkpt>
      <trkpt lat="44.40968" lon="6.38667">
        <ele>2509</ele>
        <time>2020-07-07T08:55:18.000Z</time>
      </trkpt>
      <trkpt lat="44.40968" lon="6.38667">
        <ele>2509</ele>
        <time>2020-07-07T08:55:19.000Z</time>
      </trkpt>
      <trkpt lat="44.40968" lon="6.38667">
        <ele>2509</ele>
        <time>2020-07-07T08:55:20.000Z</time>
      </trkpt>
      <trkpt lat="44.40968" lon="6.38667">
        <ele>2509</ele>
        <time>2020-07-07T08:55:21.000Z</time>
      </trkpt>
      <trkpt lat="44.40968" lon="6.38666">
        <ele>2509</ele>
        <time>2020-07-07T08:55:22.000Z</time>
      </trkpt>
      <trkpt lat="44.40968" lon="6.38666">
        <ele>2509</ele>
        <time>2020-07-07T08:55:23.000Z</time>
      </trkpt>
      <trkpt lat="44.40968" lon="6.38666">
        <ele>2509</ele>
        <time>2020-07-07T08:55:24.000Z</time>
      </trkpt>
      <trkpt lat="44.40968" lon="6.38666">
        <ele>2509</ele>
        <time>2020-07-07T08:55:25.000Z</time>
      </trkpt>
      <trkpt lat="44.40968" lon="6.38666">
        <ele>2509</ele>
        <time>2020-07-07T08:55:26.000Z</time>
      </trkpt>
      <trkpt lat="44.40968" lon="6.38666">
        <ele>2509</ele>
        <time>2020-07-07T08:55:27.000Z</time>
      </trkpt>
      <trkpt lat="44.40968" lon="6.38666">
        <ele>2509</ele>
        <time>2020-07-07T08:55:28.000Z</time>
      </trkpt>
      <trkpt lat="44.40968" lon="6.38667">
        <ele>2509</ele>
        <time>2020-07-07T08:55:29.000Z</time>
      </trkpt>
      <trkpt lat="44.40968" lon="6.38667">
        <ele>2509</ele>
        <time>2020-07-07T08:55:30.000Z</time>
      </trkpt>
      <trkpt lat="44.40969" lon="6.38666">
        <ele>2509</ele>
        <time>2020-07-07T08:55:31.000Z</time>
      </trkpt>
      <trkpt lat="44.40969" lon="6.38666">
        <ele>2509</ele>
        <time>2020-07-07T08:55:32.000Z</time>
      </trkpt>
      <trkpt lat="44.40969" lon="6.38666">
        <ele>2509</ele>
        <time>2020-07-07T08:55:33.000Z</time>
      </trkpt>
      <trkpt lat="44.40969" lon="6.38666">
        <ele>2509</ele>
        <time>2020-07-07T08:55:34.000Z</time>
      </trkpt>
      <trkpt lat="44.40969" lon="6.38666">
        <ele>2509</ele>
        <time>2020-07-07T08:55:35.000Z</time>
      </trkpt>
      <trkpt lat="44.40969" lon="6.38666">
        <ele>2509</ele>
        <time>2020-07-07T08:55:36.000Z</time>
      </trkpt>
      <trkpt lat="44.40969" lon="6.38666">
        <ele>2509</ele>
        <time>2020-07-07T08:55:37.000Z</time>
      </trkpt>
      <trkpt lat="44.40969" lon="6.38666">
        <ele>2509</ele>
        <time>2020-07-07T08:55:38.000Z</time>
      </trkpt>
      <trkpt lat="44.40969" lon="6.38666">
        <ele>2509</ele>
        <time>2020-07-07T08:55:39.000Z</time>
      </trkpt>
      <trkpt lat="44.40969" lon="6.38666">
        <ele>2509</ele>
        <time>2020-07-07T08:55:40.000Z</time>
      </trkpt>
      <trkpt lat="44.40969" lon="6.38666">
        <ele>2509</ele>
        <time>2020-07-07T08:55:41.000Z</time>
      </trkpt>
      <trkpt lat="44.40969" lon="6.38666">
        <ele>2509</ele>
        <time>2020-07-07T08:55:42.000Z</time>
      </trkpt>
      <trkpt lat="44.40969" lon="6.38666">
        <ele>2509</ele>
        <time>2020-07-07T08:55:43.000Z</time>
      </trkpt>
      <trkpt lat="44.40969" lon="6.38666">
        <ele>2509</ele>
        <time>2020-07-07T08:55:44.000Z</time>
      </trkpt>
      <trkpt lat="44.40969" lon="6.38666">
        <ele>2509</ele>
        <time>2020-07-07T08:55:45.000Z</time>
      </trkpt>
      <trkpt lat="44.40969" lon="6.38666">
        <ele>2508</ele>
        <time>2020-07-07T08:55:46.000Z</time>
      </trkpt>
      <trkpt lat="44.40969" lon="6.38666">
        <ele>2508</ele>
        <time>2020-07-07T08:55:47.000Z</time>
      </trkpt>
      <trkpt lat="44.40969" lon="6.38666">
        <ele>2508</ele>
        <time>2020-07-07T08:55:48.000Z</time>
      </trkpt>
      <trkpt lat="44.40969" lon="6.38666">
        <ele>2508</ele>
        <time>2020-07-07T08:55:49.000Z</time>
      </trkpt>
      <trkpt lat="44.40969" lon="6.38666">
        <ele>2508</ele>
        <time>2020-07-07T08:55:50.000Z</time>
      </trkpt>
      <trkpt lat="44.40969" lon="6.38666">
        <ele>2508</ele>
        <time>2020-07-07T08:55:51.000Z</time>
      </trkpt>
      <trkpt lat="44.40969" lon="6.38666">
        <ele>2508</ele>
        <time>2020-07-07T08:55:52.000Z</time>
      </trkpt>
      <trkpt lat="44.40969" lon="6.38666">
        <ele>2509</ele>
        <time>2020-07-07T08:55:53.000Z</time>
      </trkpt>
      <trkpt lat="44.40968" lon="6.38667">
        <ele>2508</ele>
        <time>2020-07-07T08:55:54.000Z</time>
      </trkpt>
      <trkpt lat="44.40968" lon="6.38667">
        <ele>2508</ele>
        <time>2020-07-07T08:55:55.000Z</time>
      </trkpt>
      <trkpt lat="44.40968" lon="6.38666">
        <ele>2509</ele>
        <time>2020-07-07T08:55:56.000Z</time>
      </trkpt>
      <trkpt lat="44.40967" lon="6.38666">
        <ele>2509</ele>
        <time>2020-07-07T08:55:57.000Z</time>
      </trkpt>
      <trkpt lat="44.40967" lon="6.38665">
        <ele>2509</ele>
        <time>2020-07-07T08:55:58.000Z</time>
      </trkpt>
      <trkpt lat="44.40967" lon="6.38664">
        <ele>2508</ele>
        <time>2020-07-07T08:55:59.000Z</time>
      </trkpt>
      <trkpt lat="44.40967" lon="6.38663">
        <ele>2508</ele>
        <time>2020-07-07T08:56:00.000Z</time>
      </trkpt>
      <trkpt lat="44.40966" lon="6.38661">
        <ele>2508</ele>
        <time>2020-07-07T08:56:01.000Z</time>
      </trkpt>
      <trkpt lat="44.40966" lon="6.3866">
        <ele>2508</ele>
        <time>2020-07-07T08:56:02.000Z</time>
      </trkpt>
      <trkpt lat="44.40965" lon="6.38659">
        <ele>2508</ele>
        <time>2020-07-07T08:56:03.000Z</time>
      </trkpt>
      <trkpt lat="44.40965" lon="6.38658">
        <ele>2508</ele>
        <time>2020-07-07T08:56:04.000Z</time>
      </trkpt>
      <trkpt lat="44.40965" lon="6.38657">
        <ele>2508</ele>
        <time>2020-07-07T08:56:05.000Z</time>
      </trkpt>
      <trkpt lat="44.40965" lon="6.38657">
        <ele>2508</ele>
        <time>2020-07-07T08:56:06.000Z</time>
      </trkpt>
      <trkpt lat="44.40964" lon="6.38656">
        <ele>2508</ele>
        <time>2020-07-07T08:56:07.000Z</time>
      </trkpt>
      <trkpt lat="44.40964" lon="6.38655">
        <ele>2508</ele>
        <time>2020-07-07T08:56:08.000Z</time>
      </trkpt>
      <trkpt lat="44.40963" lon="6.38655">
        <ele>2508</ele>
        <time>2020-07-07T08:56:09.000Z</time>
      </trkpt>
      <trkpt lat="44.40963" lon="6.38654">
        <ele>2508</ele>
        <time>2020-07-07T08:56:10.000Z</time>
      </trkpt>
      <trkpt lat="44.40962" lon="6.38654">
        <ele>2508</ele>
        <time>2020-07-07T08:56:11.000Z</time>
      </trkpt>
      <trkpt lat="44.40961" lon="6.38653">
        <ele>2508</ele>
        <time>2020-07-07T08:56:12.000Z</time>
      </trkpt>
      <trkpt lat="44.40961" lon="6.38652">
        <ele>2508</ele>
        <time>2020-07-07T08:56:13.000Z</time>
      </trkpt>
      <trkpt lat="44.40961" lon="6.38652">
        <ele>2508</ele>
        <time>2020-07-07T08:56:14.000Z</time>
      </trkpt>
      <trkpt lat="44.4096" lon="6.38651">
        <ele>2508</ele>
        <time>2020-07-07T08:56:15.000Z</time>
      </trkpt>
      <trkpt lat="44.4096" lon="6.38651">
        <ele>2508</ele>
        <time>2020-07-07T08:56:16.000Z</time>
      </trkpt>
      <trkpt lat="44.4096" lon="6.38652">
        <ele>2508</ele>
        <time>2020-07-07T08:56:17.000Z</time>
      </trkpt>
      <trkpt lat="44.4096" lon="6.38652">
        <ele>2508</ele>
        <time>2020-07-07T08:56:18.000Z</time>
      </trkpt>
      <trkpt lat="44.4096" lon="6.38652">
        <ele>2508</ele>
        <time>2020-07-07T08:56:19.000Z</time>
      </trkpt>
      <trkpt lat="44.4096" lon="6.38652">
        <ele>2508</ele>
        <time>2020-07-07T08:56:20.000Z</time>
      </trkpt>
      <trkpt lat="44.4096" lon="6.38652">
        <ele>2508</ele>
        <time>2020-07-07T08:56:21.000Z</time>
      </trkpt>
      <trkpt lat="44.4096" lon="6.38652">
        <ele>2508</ele>
        <time>2020-07-07T08:56:22.000Z</time>
      </trkpt>
      <trkpt lat="44.4096" lon="6.38652">
        <ele>2508</ele>
        <time>2020-07-07T08:56:23.000Z</time>
      </trkpt>
      <trkpt lat="44.4096" lon="6.38651">
        <ele>2508</ele>
        <time>2020-07-07T08:56:24.000Z</time>
      </trkpt>
      <trkpt lat="44.40959" lon="6.3865">
        <ele>2508</ele>
        <time>2020-07-07T08:56:25.000Z</time>
      </trkpt>
      <trkpt lat="44.40959" lon="6.38649">
        <ele>2508</ele>
        <time>2020-07-07T08:56:26.000Z</time>
      </trkpt>
      <trkpt lat="44.40958" lon="6.38649">
        <ele>2508</ele>
        <time>2020-07-07T08:56:27.000Z</time>
      </trkpt>
      <trkpt lat="44.40957" lon="6.38649">
        <ele>2508</ele>
        <time>2020-07-07T08:56:28.000Z</time>
      </trkpt>
      <trkpt lat="44.40957" lon="6.38649">
        <ele>2508</ele>
        <time>2020-07-07T08:56:29.000Z</time>
      </trkpt>
      <trkpt lat="44.40956" lon="6.38648">
        <ele>2508</ele>
        <time>2020-07-07T08:56:30.000Z</time>
      </trkpt>
      <trkpt lat="44.40956" lon="6.38647">
        <ele>2508</ele>
        <time>2020-07-07T08:56:31.000Z</time>
      </trkpt>
      <trkpt lat="44.40955" lon="6.38646">
        <ele>2508</ele>
        <time>2020-07-07T08:56:32.000Z</time>
      </trkpt>
      <trkpt lat="44.40955" lon="6.38645">
        <ele>2508</ele>
        <time>2020-07-07T08:56:33.000Z</time>
      </trkpt>
      <trkpt lat="44.40954" lon="6.38644">
        <ele>2507</ele>
        <time>2020-07-07T08:56:34.000Z</time>
      </trkpt>
      <trkpt lat="44.40954" lon="6.38644">
        <ele>2507</ele>
        <time>2020-07-07T08:56:35.000Z</time>
      </trkpt>
      <trkpt lat="44.40953" lon="6.38644">
        <ele>2507</ele>
        <time>2020-07-07T08:56:36.000Z</time>
      </trkpt>
      <trkpt lat="44.40953" lon="6.38644">
        <ele>2507</ele>
        <time>2020-07-07T08:56:37.000Z</time>
      </trkpt>
      <trkpt lat="44.40953" lon="6.38644">
        <ele>2507</ele>
        <time>2020-07-07T08:56:38.000Z</time>
      </trkpt>
      <trkpt lat="44.40953" lon="6.38644">
        <ele>2507</ele>
        <time>2020-07-07T08:56:39.000Z</time>
      </trkpt>
      <trkpt lat="44.40953" lon="6.38644">
        <ele>2507</ele>
        <time>2020-07-07T08:56:40.000Z</time>
      </trkpt>
      <trkpt lat="44.40953" lon="6.38644">
        <ele>2507</ele>
        <time>2020-07-07T08:56:41.000Z</time>
      </trkpt>
      <trkpt lat="44.40953" lon="6.38644">
        <ele>2507</ele>
        <time>2020-07-07T08:56:42.000Z</time>
      </trkpt>
      <trkpt lat="44.40952" lon="6.38645">
        <ele>2508</ele>
        <time>2020-07-07T08:56:43.000Z</time>
      </trkpt>
      <trkpt lat="44.40952" lon="6.38645">
        <ele>2508</ele>
        <time>2020-07-07T08:56:44.000Z</time>
      </trkpt>
      <trkpt lat="44.40952" lon="6.38645">
        <ele>2508</ele>
        <time>2020-07-07T08:56:45.000Z</time>
      </trkpt>
      <trkpt lat="44.40952" lon="6.38645">
        <ele>2508</ele>
        <time>2020-07-07T08:56:46.000Z</time>
      </trkpt>
      <trkpt lat="44.40952" lon="6.38645">
        <ele>2508</ele>
        <time>2020-07-07T08:56:47.000Z</time>
      </trkpt>
      <trkpt lat="44.40952" lon="6.38646">
        <ele>2508</ele>
        <time>2020-07-07T08:56:48.000Z</time>
      </trkpt>
      <trkpt lat="44.40952" lon="6.38646">
        <ele>2508</ele>
        <time>2020-07-07T08:56:49.000Z</time>
      </trkpt>
      <trkpt lat="44.40952" lon="6.38646">
        <ele>2508</ele>
        <time>2020-07-07T08:56:50.000Z</time>
      </trkpt>
      <trkpt lat="44.40951" lon="6.38646">
        <ele>2508</ele>
        <time>2020-07-07T08:56:51.000Z</time>
      </trkpt>
      <trkpt lat="44.40952" lon="6.38645">
        <ele>2508</ele>
        <time>2020-07-07T08:56:52.000Z</time>
      </trkpt>
      <trkpt lat="44.40951" lon="6.38645">
        <ele>2508</ele>
        <time>2020-07-07T08:56:53.000Z</time>
      </trkpt>
      <trkpt lat="44.40951" lon="6.38646">
        <ele>2508</ele>
        <time>2020-07-07T08:56:54.000Z</time>
      </trkpt>
      <trkpt lat="44.40951" lon="6.38646">
        <ele>2508</ele>
        <time>2020-07-07T08:56:55.000Z</time>
      </trkpt>
      <trkpt lat="44.40951" lon="6.38646">
        <ele>2508</ele>
        <time>2020-07-07T08:56:56.000Z</time>
      </trkpt>
      <trkpt lat="44.40951" lon="6.38646">
        <ele>2508</ele>
        <time>2020-07-07T08:56:57.000Z</time>
      </trkpt>
      <trkpt lat="44.40951" lon="6.38647">
        <ele>2508</ele>
        <time>2020-07-07T08:56:58.000Z</time>
      </trkpt>
      <trkpt lat="44.40951" lon="6.38647">
        <ele>2508</ele>
        <time>2020-07-07T08:56:59.000Z</time>
      </trkpt>
      <trkpt lat="44.40951" lon="6.38647">
        <ele>2508</ele>
        <time>2020-07-07T08:57:00.000Z</time>
      </trkpt>
      <trkpt lat="44.40951" lon="6.38647">
        <ele>2508</ele>
        <time>2020-07-07T08:57:01.000Z</time>
      </trkpt>
      <trkpt lat="44.40951" lon="6.38647">
        <ele>2508</ele>
        <time>2020-07-07T08:57:02.000Z</time>
      </trkpt>
      <trkpt lat="44.40951" lon="6.38647">
        <ele>2508</ele>
        <time>2020-07-07T08:57:03.000Z</time>
      </trkpt>
      <trkpt lat="44.40951" lon="6.38647">
        <ele>2509</ele>
        <time>2020-07-07T08:57:04.000Z</time>
      </trkpt>
      <trkpt lat="44.40951" lon="6.38647">
        <ele>2509</ele>
        <time>2020-07-07T08:57:05.000Z</time>
      </trkpt>
      <trkpt lat="44.40951" lon="6.38647">
        <ele>2509</ele>
        <time>2020-07-07T08:57:06.000Z</time>
      </trkpt>
      <trkpt lat="44.40951" lon="6.38647">
        <ele>2509</ele>
        <time>2020-07-07T08:57:07.000Z</time>
      </trkpt>
      <trkpt lat="44.40951" lon="6.38647">
        <ele>2509</ele>
        <time>2020-07-07T08:57:08.000Z</time>
      </trkpt>
      <trkpt lat="44.40951" lon="6.38647">
        <ele>2509</ele>
        <time>2020-07-07T08:57:09.000Z</time>
      </trkpt>
      <trkpt lat="44.40951" lon="6.38647">
        <ele>2509</ele>
        <time>2020-07-07T08:57:10.000Z</time>
      </trkpt>
      <trkpt lat="44.40951" lon="6.38647">
        <ele>2509</ele>
        <time>2020-07-07T08:57:11.000Z</time>
      </trkpt>
      <trkpt lat="44.40951" lon="6.38647">
        <ele>2509</ele>
        <time>2020-07-07T08:57:12.000Z</time>
      </trkpt>
      <trkpt lat="44.40951" lon="6.38647">
        <ele>2509</ele>
        <time>2020-07-07T08:57:13.000Z</time>
      </trkpt>
      <trkpt lat="44.40951" lon="6.38648">
        <ele>2509</ele>
        <time>2020-07-07T08:57:14.000Z</time>
      </trkpt>
      <trkpt lat="44.40951" lon="6.38648">
        <ele>2509</ele>
        <time>2020-07-07T08:57:15.000Z</time>
      </trkpt>
      <trkpt lat="44.4095" lon="6.38649">
        <ele>2509</ele>
        <time>2020-07-07T08:57:16.000Z</time>
      </trkpt>
      <trkpt lat="44.4095" lon="6.3865">
        <ele>2509</ele>
        <time>2020-07-07T08:57:17.000Z</time>
      </trkpt>
      <trkpt lat="44.40949" lon="6.38652">
        <ele>2509</ele>
        <time>2020-07-07T08:57:18.000Z</time>
      </trkpt>
      <trkpt lat="44.40949" lon="6.38653">
        <ele>2509</ele>
        <time>2020-07-07T08:57:19.000Z</time>
      </trkpt>
      <trkpt lat="44.40949" lon="6.38654">
        <ele>2509</ele>
        <time>2020-07-07T08:57:20.000Z</time>
      </trkpt>
      <trkpt lat="44.40949" lon="6.38654">
        <ele>2510</ele>
        <time>2020-07-07T08:57:21.000Z</time>
      </trkpt>
      <trkpt lat="44.40949" lon="6.38656">
        <ele>2510</ele>
        <time>2020-07-07T08:57:22.000Z</time>
      </trkpt>
      <trkpt lat="44.40949" lon="6.38656">
        <ele>2510</ele>
        <time>2020-07-07T08:57:23.000Z</time>
      </trkpt>
      <trkpt lat="44.40949" lon="6.38657">
        <ele>2510</ele>
        <time>2020-07-07T08:57:24.000Z</time>
      </trkpt>
      <trkpt lat="44.4095" lon="6.38658">
        <ele>2510</ele>
        <time>2020-07-07T08:57:25.000Z</time>
      </trkpt>
      <trkpt lat="44.4095" lon="6.38658">
        <ele>2511</ele>
        <time>2020-07-07T08:57:26.000Z</time>
      </trkpt>
      <trkpt lat="44.4095" lon="6.38659">
        <ele>2511</ele>
        <time>2020-07-07T08:57:27.000Z</time>
      </trkpt>
      <trkpt lat="44.4095" lon="6.3866">
        <ele>2511</ele>
        <time>2020-07-07T08:57:28.000Z</time>
      </trkpt>
      <trkpt lat="44.4095" lon="6.3866">
        <ele>2511</ele>
        <time>2020-07-07T08:57:29.000Z</time>
      </trkpt>
      <trkpt lat="44.4095" lon="6.38661">
        <ele>2511</ele>
        <time>2020-07-07T08:57:30.000Z</time>
      </trkpt>
      <trkpt lat="44.40949" lon="6.38663">
        <ele>2511</ele>
        <time>2020-07-07T08:57:31.000Z</time>
      </trkpt>
      <trkpt lat="44.40949" lon="6.38664">
        <ele>2511</ele>
        <time>2020-07-07T08:57:32.000Z</time>
      </trkpt>
      <trkpt lat="44.40948" lon="6.38664">
        <ele>2511</ele>
        <time>2020-07-07T08:57:33.000Z</time>
      </trkpt>
      <trkpt lat="44.40947" lon="6.38665">
        <ele>2511</ele>
        <time>2020-07-07T08:57:34.000Z</time>
      </trkpt>
      <trkpt lat="44.40946" lon="6.38666">
        <ele>2511</ele>
        <time>2020-07-07T08:57:35.000Z</time>
      </trkpt>
      <trkpt lat="44.40946" lon="6.38667">
        <ele>2511</ele>
        <time>2020-07-07T08:57:36.000Z</time>
      </trkpt>
      <trkpt lat="44.40945" lon="6.38668">
        <ele>2511</ele>
        <time>2020-07-07T08:57:37.000Z</time>
      </trkpt>
      <trkpt lat="44.40944" lon="6.38669">
        <ele>2511</ele>
        <time>2020-07-07T08:57:38.000Z</time>
      </trkpt>
      <trkpt lat="44.40944" lon="6.3867">
        <ele>2511</ele>
        <time>2020-07-07T08:57:39.000Z</time>
      </trkpt>
      <trkpt lat="44.40943" lon="6.38671">
        <ele>2512</ele>
        <time>2020-07-07T08:57:40.000Z</time>
      </trkpt>
      <trkpt lat="44.40942" lon="6.38671">
        <ele>2512</ele>
        <time>2020-07-07T08:57:41.000Z</time>
      </trkpt>
      <trkpt lat="44.40941" lon="6.38672">
        <ele>2512</ele>
        <time>2020-07-07T08:57:42.000Z</time>
      </trkpt>
      <trkpt lat="44.4094" lon="6.38673">
        <ele>2512</ele>
        <time>2020-07-07T08:57:43.000Z</time>
      </trkpt>
      <trkpt lat="44.40939" lon="6.38674">
        <ele>2512</ele>
        <time>2020-07-07T08:57:44.000Z</time>
      </trkpt>
      <trkpt lat="44.40938" lon="6.38674">
        <ele>2513</ele>
        <time>2020-07-07T08:57:45.000Z</time>
      </trkpt>
      <trkpt lat="44.40938" lon="6.38674">
        <ele>2513</ele>
        <time>2020-07-07T08:57:46.000Z</time>
      </trkpt>
      <trkpt lat="44.40937" lon="6.38675">
        <ele>2513</ele>
        <time>2020-07-07T08:57:47.000Z</time>
      </trkpt>
      <trkpt lat="44.40937" lon="6.38675">
        <ele>2513</ele>
        <time>2020-07-07T08:57:48.000Z</time>
      </trkpt>
      <trkpt lat="44.40937" lon="6.38675">
        <ele>2513</ele>
        <time>2020-07-07T08:57:49.000Z</time>
      </trkpt>
      <trkpt lat="44.40937" lon="6.38675">
        <ele>2513</ele>
        <time>2020-07-07T08:57:50.000Z</time>
      </trkpt>
      <trkpt lat="44.40937" lon="6.38675">
        <ele>2513</ele>
        <time>2020-07-07T08:57:51.000Z</time>
      </trkpt>
      <trkpt lat="44.40937" lon="6.38675">
        <ele>2513</ele>
        <time>2020-07-07T08:57:52.000Z</time>
      </trkpt>
      <trkpt lat="44.40936" lon="6.38675">
        <ele>2513</ele>
        <time>2020-07-07T08:57:53.000Z</time>
      </trkpt>
      <trkpt lat="44.40936" lon="6.38675">
        <ele>2513</ele>
        <time>2020-07-07T08:57:54.000Z</time>
      </trkpt>
      <trkpt lat="44.40936" lon="6.38675">
        <ele>2513</ele>
        <time>2020-07-07T08:57:55.000Z</time>
      </trkpt>
      <trkpt lat="44.40936" lon="6.38675">
        <ele>2513</ele>
        <time>2020-07-07T08:57:56.000Z</time>
      </trkpt>
      <trkpt lat="44.40936" lon="6.38675">
        <ele>2513</ele>
        <time>2020-07-07T08:57:57.000Z</time>
      </trkpt>
      <trkpt lat="44.40936" lon="6.38675">
        <ele>2513</ele>
        <time>2020-07-07T08:57:58.000Z</time>
      </trkpt>
      <trkpt lat="44.40936" lon="6.38675">
        <ele>2513</ele>
        <time>2020-07-07T08:57:59.000Z</time>
      </trkpt>
      <trkpt lat="44.40936" lon="6.38675">
        <ele>2513</ele>
        <time>2020-07-07T08:58:00.000Z</time>
      </trkpt>
      <trkpt lat="44.40936" lon="6.38675">
        <ele>2513</ele>
        <time>2020-07-07T08:58:01.000Z</time>
      </trkpt>
      <trkpt lat="44.40936" lon="6.38675">
        <ele>2513</ele>
        <time>2020-07-07T08:58:02.000Z</time>
      </trkpt>
      <trkpt lat="44.40936" lon="6.38675">
        <ele>2513</ele>
        <time>2020-07-07T08:58:03.000Z</time>
      </trkpt>
      <trkpt lat="44.40936" lon="6.38675">
        <ele>2513</ele>
        <time>2020-07-07T08:58:04.000Z</time>
      </trkpt>
      <trkpt lat="44.40936" lon="6.38675">
        <ele>2513</ele>
        <time>2020-07-07T08:58:05.000Z</time>
      </trkpt>
      <trkpt lat="44.40936" lon="6.38675">
        <ele>2513</ele>
        <time>2020-07-07T08:58:06.000Z</time>
      </trkpt>
      <trkpt lat="44.40936" lon="6.38675">
        <ele>2513</ele>
        <time>2020-07-07T08:58:07.000Z</time>
      </trkpt>
      <trkpt lat="44.40936" lon="6.38675">
        <ele>2513</ele>
        <time>2020-07-07T08:58:08.000Z</time>
      </trkpt>
      <trkpt lat="44.40936" lon="6.38675">
        <ele>2513</ele>
        <time>2020-07-07T08:58:09.000Z</time>
      </trkpt>
      <trkpt lat="44.40936" lon="6.38675">
        <ele>2513</ele>
        <time>2020-07-07T08:58:10.000Z</time>
      </trkpt>
      <trkpt lat="44.40936" lon="6.38675">
        <ele>2513</ele>
        <time>2020-07-07T08:58:11.000Z</time>
      </trkpt>
      <trkpt lat="44.40936" lon="6.38675">
        <ele>2513</ele>
        <time>2020-07-07T08:58:12.000Z</time>
      </trkpt>
      <trkpt lat="44.40936" lon="6.38675">
        <ele>2513</ele>
        <time>2020-07-07T08:58:13.000Z</time>
      </trkpt>
      <trkpt lat="44.40936" lon="6.38675">
        <ele>2513</ele>
        <time>2020-07-07T08:58:14.000Z</time>
      </trkpt>
      <trkpt lat="44.40936" lon="6.38675">
        <ele>2513</ele>
        <time>2020-07-07T08:58:15.000Z</time>
      </trkpt>
      <trkpt lat="44.40936" lon="6.38675">
        <ele>2513</ele>
        <time>2020-07-07T08:58:16.000Z</time>
      </trkpt>
      <trkpt lat="44.40936" lon="6.38675">
        <ele>2513</ele>
        <time>2020-07-07T08:58:17.000Z</time>
      </trkpt>
      <trkpt lat="44.40936" lon="6.38675">
        <ele>2513</ele>
        <time>2020-07-07T08:58:18.000Z</time>
      </trkpt>
      <trkpt lat="44.40936" lon="6.38675">
        <ele>2513</ele>
        <time>2020-07-07T08:58:19.000Z</time>
      </trkpt>
      <trkpt lat="44.40936" lon="6.38675">
        <ele>2513</ele>
        <time>2020-07-07T08:58:20.000Z</time>
      </trkpt>
      <trkpt lat="44.40936" lon="6.38675">
        <ele>2513</ele>
        <time>2020-07-07T08:58:21.000Z</time>
      </trkpt>
      <trkpt lat="44.40936" lon="6.38675">
        <ele>2513</ele>
        <time>2020-07-07T08:58:22.000Z</time>
      </trkpt>
      <trkpt lat="44.40936" lon="6.38675">
        <ele>2513</ele>
        <time>2020-07-07T08:58:23.000Z</time>
      </trkpt>
      <trkpt lat="44.40936" lon="6.38675">
        <ele>2513</ele>
        <time>2020-07-07T08:58:24.000Z</time>
      </trkpt>
      <trkpt lat="44.40936" lon="6.38675">
        <ele>2513</ele>
        <time>2020-07-07T08:58:25.000Z</time>
      </trkpt>
      <trkpt lat="44.40936" lon="6.38675">
        <ele>2513</ele>
        <time>2020-07-07T08:58:26.000Z</time>
      </trkpt>
      <trkpt lat="44.40936" lon="6.38675">
        <ele>2513</ele>
        <time>2020-07-07T08:58:27.000Z</time>
      </trkpt>
      <trkpt lat="44.40936" lon="6.38675">
        <ele>2513</ele>
        <time>2020-07-07T08:58:28.000Z</time>
      </trkpt>
      <trkpt lat="44.40936" lon="6.38675">
        <ele>2513</ele>
        <time>2020-07-07T08:58:29.000Z</time>
      </trkpt>
      <trkpt lat="44.40936" lon="6.38675">
        <ele>2513</ele>
        <time>2020-07-07T08:58:30.000Z</time>
      </trkpt>
      <trkpt lat="44.40937" lon="6.38675">
        <ele>2513</ele>
        <time>2020-07-07T08:58:31.000Z</time>
      </trkpt>
      <trkpt lat="44.40937" lon="6.38675">
        <ele>2513</ele>
        <time>2020-07-07T08:58:32.000Z</time>
      </trkpt>
      <trkpt lat="44.40937" lon="6.38675">
        <ele>2513</ele>
        <time>2020-07-07T08:58:33.000Z</time>
      </trkpt>
      <trkpt lat="44.40937" lon="6.38675">
        <ele>2513</ele>
        <time>2020-07-07T08:58:34.000Z</time>
      </trkpt>
      <trkpt lat="44.40937" lon="6.38675">
        <ele>2513</ele>
        <time>2020-07-07T08:58:35.000Z</time>
      </trkpt>
      <trkpt lat="44.40937" lon="6.38675">
        <ele>2513</ele>
        <time>2020-07-07T08:58:36.000Z</time>
      </trkpt>
      <trkpt lat="44.40936" lon="6.38675">
        <ele>2513</ele>
        <time>2020-07-07T08:58:37.000Z</time>
      </trkpt>
      <trkpt lat="44.40936" lon="6.38675">
        <ele>2513</ele>
        <time>2020-07-07T08:58:38.000Z</time>
      </trkpt>
      <trkpt lat="44.40936" lon="6.38675">
        <ele>2513</ele>
        <time>2020-07-07T08:58:39.000Z</time>
      </trkpt>
      <trkpt lat="44.40936" lon="6.38674">
        <ele>2513</ele>
        <time>2020-07-07T08:58:40.000Z</time>
      </trkpt>
      <trkpt lat="44.40936" lon="6.38675">
        <ele>2513</ele>
        <time>2020-07-07T08:58:41.000Z</time>
      </trkpt>
      <trkpt lat="44.40936" lon="6.38674">
        <ele>2513</ele>
        <time>2020-07-07T08:58:42.000Z</time>
      </trkpt>
      <trkpt lat="44.40936" lon="6.38674">
        <ele>2513</ele>
        <time>2020-07-07T08:58:43.000Z</time>
      </trkpt>
      <trkpt lat="44.40936" lon="6.38674">
        <ele>2513</ele>
        <time>2020-07-07T08:58:44.000Z</time>
      </trkpt>
      <trkpt lat="44.40936" lon="6.38675">
        <ele>2513</ele>
        <time>2020-07-07T08:58:45.000Z</time>
      </trkpt>
      <trkpt lat="44.40936" lon="6.38675">
        <ele>2513</ele>
        <time>2020-07-07T08:58:46.000Z</time>
      </trkpt>
      <trkpt lat="44.40936" lon="6.38675">
        <ele>2513</ele>
        <time>2020-07-07T08:58:47.000Z</time>
      </trkpt>
      <trkpt lat="44.40936" lon="6.38675">
        <ele>2513</ele>
        <time>2020-07-07T08:58:48.000Z</time>
      </trkpt>
      <trkpt lat="44.40936" lon="6.38675">
        <ele>2513</ele>
        <time>2020-07-07T08:58:49.000Z</time>
      </trkpt>
      <trkpt lat="44.40936" lon="6.38675">
        <ele>2513</ele>
        <time>2020-07-07T08:58:50.000Z</time>
      </trkpt>
      <trkpt lat="44.40936" lon="6.38675">
        <ele>2513</ele>
        <time>2020-07-07T08:58:51.000Z</time>
      </trkpt>
      <trkpt lat="44.40936" lon="6.38675">
        <ele>2513</ele>
        <time>2020-07-07T08:58:52.000Z</time>
      </trkpt>
      <trkpt lat="44.40936" lon="6.38675">
        <ele>2513</ele>
        <time>2020-07-07T08:58:53.000Z</time>
      </trkpt>
      <trkpt lat="44.40936" lon="6.38675">
        <ele>2513</ele>
        <time>2020-07-07T08:58:54.000Z</time>
      </trkpt>
      <trkpt lat="44.40936" lon="6.38675">
        <ele>2513</ele>
        <time>2020-07-07T08:58:55.000Z</time>
      </trkpt>
      <trkpt lat="44.40936" lon="6.38675">
        <ele>2513</ele>
        <time>2020-07-07T08:58:56.000Z</time>
      </trkpt>
      <trkpt lat="44.40936" lon="6.38675">
        <ele>2513</ele>
        <time>2020-07-07T08:58:57.000Z</time>
      </trkpt>
      <trkpt lat="44.40936" lon="6.38674">
        <ele>2513</ele>
        <time>2020-07-07T08:58:58.000Z</time>
      </trkpt>
      <trkpt lat="44.40936" lon="6.38674">
        <ele>2513</ele>
        <time>2020-07-07T08:58:59.000Z</time>
      </trkpt>
      <trkpt lat="44.40936" lon="6.38674">
        <ele>2513</ele>
        <time>2020-07-07T08:59:00.000Z</time>
      </trkpt>
      <trkpt lat="44.40936" lon="6.38674">
        <ele>2513</ele>
        <time>2020-07-07T08:59:01.000Z</time>
      </trkpt>
      <trkpt lat="44.40936" lon="6.38674">
        <ele>2513</ele>
        <time>2020-07-07T08:59:02.000Z</time>
      </trkpt>
      <trkpt lat="44.40936" lon="6.38674">
        <ele>2513</ele>
        <time>2020-07-07T08:59:03.000Z</time>
      </trkpt>
      <trkpt lat="44.40936" lon="6.38675">
        <ele>2513</ele>
        <time>2020-07-07T08:59:04.000Z</time>
      </trkpt>
      <trkpt lat="44.40936" lon="6.38675">
        <ele>2513</ele>
        <time>2020-07-07T08:59:05.000Z</time>
      </trkpt>
      <trkpt lat="44.40936" lon="6.38675">
        <ele>2513</ele>
        <time>2020-07-07T08:59:06.000Z</time>
      </trkpt>
      <trkpt lat="44.40936" lon="6.38675">
        <ele>2513</ele>
        <time>2020-07-07T08:59:07.000Z</time>
      </trkpt>
      <trkpt lat="44.40936" lon="6.38675">
        <ele>2513</ele>
        <time>2020-07-07T08:59:08.000Z</time>
      </trkpt>
      <trkpt lat="44.40936" lon="6.38675">
        <ele>2513</ele>
        <time>2020-07-07T08:59:09.000Z</time>
      </trkpt>
      <trkpt lat="44.40936" lon="6.38675">
        <ele>2513</ele>
        <time>2020-07-07T08:59:10.000Z</time>
      </trkpt>
      <trkpt lat="44.40936" lon="6.38675">
        <ele>2513</ele>
        <time>2020-07-07T08:59:11.000Z</time>
      </trkpt>
      <trkpt lat="44.40936" lon="6.38674">
        <ele>2513</ele>
        <time>2020-07-07T08:59:12.000Z</time>
      </trkpt>
      <trkpt lat="44.40936" lon="6.38674">
        <ele>2513</ele>
        <time>2020-07-07T08:59:13.000Z</time>
      </trkpt>
      <trkpt lat="44.40936" lon="6.38674">
        <ele>2513</ele>
        <time>2020-07-07T08:59:14.000Z</time>
      </trkpt>
      <trkpt lat="44.40936" lon="6.38674">
        <ele>2513</ele>
        <time>2020-07-07T08:59:15.000Z</time>
      </trkpt>
      <trkpt lat="44.40936" lon="6.38674">
        <ele>2513</ele>
        <time>2020-07-07T08:59:16.000Z</time>
      </trkpt>
      <trkpt lat="44.40936" lon="6.38674">
        <ele>2513</ele>
        <time>2020-07-07T08:59:17.000Z</time>
      </trkpt>
      <trkpt lat="44.40936" lon="6.38674">
        <ele>2513</ele>
        <time>2020-07-07T08:59:18.000Z</time>
      </trkpt>
      <trkpt lat="44.40936" lon="6.38674">
        <ele>2513</ele>
        <time>2020-07-07T08:59:19.000Z</time>
      </trkpt>
      <trkpt lat="44.40936" lon="6.38674">
        <ele>2513</ele>
        <time>2020-07-07T08:59:20.000Z</time>
      </trkpt>
      <trkpt lat="44.40936" lon="6.38674">
        <ele>2513</ele>
        <time>2020-07-07T08:59:21.000Z</time>
      </trkpt>
      <trkpt lat="44.40936" lon="6.38674">
        <ele>2513</ele>
        <time>2020-07-07T08:59:22.000Z</time>
      </trkpt>
      <trkpt lat="44.40936" lon="6.38674">
        <ele>2513</ele>
        <time>2020-07-07T08:59:23.000Z</time>
      </trkpt>
      <trkpt lat="44.40936" lon="6.38674">
        <ele>2513</ele>
        <time>2020-07-07T08:59:24.000Z</time>
      </trkpt>
      <trkpt lat="44.40936" lon="6.38674">
        <ele>2513</ele>
        <time>2020-07-07T08:59:25.000Z</time>
      </trkpt>
      <trkpt lat="44.40936" lon="6.38675">
        <ele>2513</ele>
        <time>2020-07-07T08:59:26.000Z</time>
      </trkpt>
      <trkpt lat="44.40936" lon="6.38675">
        <ele>2513</ele>
        <time>2020-07-07T08:59:27.000Z</time>
      </trkpt>
      <trkpt lat="44.40936" lon="6.38674">
        <ele>2513</ele>
        <time>2020-07-07T08:59:28.000Z</time>
      </trkpt>
      <trkpt lat="44.40936" lon="6.38674">
        <ele>2513</ele>
        <time>2020-07-07T08:59:29.000Z</time>
      </trkpt>
      <trkpt lat="44.40936" lon="6.38674">
        <ele>2513</ele>
        <time>2020-07-07T08:59:30.000Z</time>
      </trkpt>
      <trkpt lat="44.40936" lon="6.38674">
        <ele>2513</ele>
        <time>2020-07-07T08:59:31.000Z</time>
      </trkpt>
      <trkpt lat="44.40936" lon="6.38674">
        <ele>2513</ele>
        <time>2020-07-07T08:59:32.000Z</time>
      </trkpt>
      <trkpt lat="44.40936" lon="6.38674">
        <ele>2513</ele>
        <time>2020-07-07T08:59:33.000Z</time>
      </trkpt>
      <trkpt lat="44.40936" lon="6.38674">
        <ele>2513</ele>
        <time>2020-07-07T08:59:34.000Z</time>
      </trkpt>
      <trkpt lat="44.40936" lon="6.38674">
        <ele>2513</ele>
        <time>2020-07-07T08:59:35.000Z</time>
      </trkpt>
      <trkpt lat="44.40936" lon="6.38674">
        <ele>2513</ele>
        <time>2020-07-07T08:59:36.000Z</time>
      </trkpt>
      <trkpt lat="44.40935" lon="6.38674">
        <ele>2514</ele>
        <time>2020-07-07T08:59:37.000Z</time>
      </trkpt>
      <trkpt lat="44.40935" lon="6.38674">
        <ele>2514</ele>
        <time>2020-07-07T08:59:38.000Z</time>
      </trkpt>
      <trkpt lat="44.40935" lon="6.38676">
        <ele>2513</ele>
        <time>2020-07-07T08:59:39.000Z</time>
      </trkpt>
      <trkpt lat="44.40934" lon="6.38675">
        <ele>2513</ele>
        <time>2020-07-07T08:59:40.000Z</time>
      </trkpt>
      <trkpt lat="44.40934" lon="6.38675">
        <ele>2513</ele>
        <time>2020-07-07T08:59:41.000Z</time>
      </trkpt>
      <trkpt lat="44.40933" lon="6.38674">
        <ele>2513</ele>
        <time>2020-07-07T08:59:42.000Z</time>
      </trkpt>
      <trkpt lat="44.40933" lon="6.38673">
        <ele>2513</ele>
        <time>2020-07-07T08:59:43.000Z</time>
      </trkpt>
      <trkpt lat="44.40933" lon="6.38672">
        <ele>2514</ele>
        <time>2020-07-07T08:59:44.000Z</time>
      </trkpt>
      <trkpt lat="44.40933" lon="6.38672">
        <ele>2514</ele>
        <time>2020-07-07T08:59:45.000Z</time>
      </trkpt>
      <trkpt lat="44.40932" lon="6.38671">
        <ele>2514</ele>
        <time>2020-07-07T08:59:46.000Z</time>
      </trkpt>
      <trkpt lat="44.40932" lon="6.3867">
        <ele>2514</ele>
        <time>2020-07-07T08:59:47.000Z</time>
      </trkpt>
      <trkpt lat="44.40931" lon="6.38669">
        <ele>2514</ele>
        <time>2020-07-07T08:59:48.000Z</time>
      </trkpt>
      <trkpt lat="44.40931" lon="6.38669">
        <ele>2514</ele>
        <time>2020-07-07T08:59:49.000Z</time>
      </trkpt>
      <trkpt lat="44.40931" lon="6.38668">
        <ele>2514</ele>
        <time>2020-07-07T08:59:50.000Z</time>
      </trkpt>
      <trkpt lat="44.4093" lon="6.38667">
        <ele>2515</ele>
        <time>2020-07-07T08:59:51.000Z</time>
      </trkpt>
      <trkpt lat="44.4093" lon="6.38667">
        <ele>2515</ele>
        <time>2020-07-07T08:59:52.000Z</time>
      </trkpt>
      <trkpt lat="44.40929" lon="6.38667">
        <ele>2515</ele>
        <time>2020-07-07T08:59:53.000Z</time>
      </trkpt>
      <trkpt lat="44.40929" lon="6.38666">
        <ele>2515</ele>
        <time>2020-07-07T08:59:54.000Z</time>
      </trkpt>
      <trkpt lat="44.40929" lon="6.38665">
        <ele>2515</ele>
        <time>2020-07-07T08:59:55.000Z</time>
      </trkpt>
      <trkpt lat="44.40929" lon="6.38665">
        <ele>2515</ele>
        <time>2020-07-07T08:59:56.000Z</time>
      </trkpt>
      <trkpt lat="44.40929" lon="6.38665">
        <ele>2515</ele>
        <time>2020-07-07T08:59:57.000Z</time>
      </trkpt>
      <trkpt lat="44.40928" lon="6.38665">
        <ele>2515</ele>
        <time>2020-07-07T08:59:58.000Z</time>
      </trkpt>
      <trkpt lat="44.40928" lon="6.38665">
        <ele>2515</ele>
        <time>2020-07-07T08:59:59.000Z</time>
      </trkpt>
      <trkpt lat="44.40928" lon="6.38665">
        <ele>2515</ele>
        <time>2020-07-07T09:00:00.000Z</time>
      </trkpt>
      <trkpt lat="44.40927" lon="6.38666">
        <ele>2515</ele>
        <time>2020-07-07T09:00:01.000Z</time>
      </trkpt>
      <trkpt lat="44.40927" lon="6.38666">
        <ele>2515</ele>
        <time>2020-07-07T09:00:02.000Z</time>
      </trkpt>
      <trkpt lat="44.40926" lon="6.38666">
        <ele>2515</ele>
        <time>2020-07-07T09:00:03.000Z</time>
      </trkpt>
      <trkpt lat="44.40926" lon="6.38666">
        <ele>2515</ele>
        <time>2020-07-07T09:00:04.000Z</time>
      </trkpt>
      <trkpt lat="44.40925" lon="6.38666">
        <ele>2515</ele>
        <time>2020-07-07T09:00:05.000Z</time>
      </trkpt>
      <trkpt lat="44.40925" lon="6.38665">
        <ele>2515</ele>
        <time>2020-07-07T09:00:06.000Z</time>
      </trkpt>
      <trkpt lat="44.40925" lon="6.38665">
        <ele>2515</ele>
        <time>2020-07-07T09:00:07.000Z</time>
      </trkpt>
      <trkpt lat="44.40925" lon="6.38664">
        <ele>2515</ele>
        <time>2020-07-07T09:00:08.000Z</time>
      </trkpt>
      <trkpt lat="44.40925" lon="6.38664">
        <ele>2515</ele>
        <time>2020-07-07T09:00:09.000Z</time>
      </trkpt>
      <trkpt lat="44.40925" lon="6.38663">
        <ele>2515</ele>
        <time>2020-07-07T09:00:10.000Z</time>
      </trkpt>
      <trkpt lat="44.40924" lon="6.38663">
        <ele>2515</ele>
        <time>2020-07-07T09:00:11.000Z</time>
      </trkpt>
      <trkpt lat="44.40924" lon="6.38661">
        <ele>2515</ele>
        <time>2020-07-07T09:00:12.000Z</time>
      </trkpt>
      <trkpt lat="44.40925" lon="6.3866">
        <ele>2515</ele>
        <time>2020-07-07T09:00:13.000Z</time>
      </trkpt>
      <trkpt lat="44.40925" lon="6.38659">
        <ele>2515</ele>
        <time>2020-07-07T09:00:14.000Z</time>
      </trkpt>
      <trkpt lat="44.40925" lon="6.38659">
        <ele>2515</ele>
        <time>2020-07-07T09:00:15.000Z</time>
      </trkpt>
      <trkpt lat="44.40925" lon="6.38659">
        <ele>2515</ele>
        <time>2020-07-07T09:00:16.000Z</time>
      </trkpt>
      <trkpt lat="44.40925" lon="6.38658">
        <ele>2515</ele>
        <time>2020-07-07T09:00:17.000Z</time>
      </trkpt>
      <trkpt lat="44.40925" lon="6.38658">
        <ele>2514</ele>
        <time>2020-07-07T09:00:18.000Z</time>
      </trkpt>
      <trkpt lat="44.40924" lon="6.38658">
        <ele>2514</ele>
        <time>2020-07-07T09:00:19.000Z</time>
      </trkpt>
      <trkpt lat="44.40924" lon="6.38657">
        <ele>2514</ele>
        <time>2020-07-07T09:00:20.000Z</time>
      </trkpt>
      <trkpt lat="44.40925" lon="6.38657">
        <ele>2514</ele>
        <time>2020-07-07T09:00:21.000Z</time>
      </trkpt>
      <trkpt lat="44.40924" lon="6.38656">
        <ele>2514</ele>
        <time>2020-07-07T09:00:22.000Z</time>
      </trkpt>
      <trkpt lat="44.40924" lon="6.38655">
        <ele>2514</ele>
        <time>2020-07-07T09:00:23.000Z</time>
      </trkpt>
      <trkpt lat="44.40924" lon="6.38655">
        <ele>2514</ele>
        <time>2020-07-07T09:00:24.000Z</time>
      </trkpt>
      <trkpt lat="44.40923" lon="6.38655">
        <ele>2513</ele>
        <time>2020-07-07T09:00:25.000Z</time>
      </trkpt>
      <trkpt lat="44.40923" lon="6.38654">
        <ele>2513</ele>
        <time>2020-07-07T09:00:26.000Z</time>
      </trkpt>
      <trkpt lat="44.40922" lon="6.38654">
        <ele>2513</ele>
        <time>2020-07-07T09:00:27.000Z</time>
      </trkpt>
      <trkpt lat="44.40921" lon="6.38654">
        <ele>2513</ele>
        <time>2020-07-07T09:00:28.000Z</time>
      </trkpt>
      <trkpt lat="44.40921" lon="6.38654">
        <ele>2512</ele>
        <time>2020-07-07T09:00:29.000Z</time>
      </trkpt>
      <trkpt lat="44.4092" lon="6.38655">
        <ele>2512</ele>
        <time>2020-07-07T09:00:30.000Z</time>
      </trkpt>
      <trkpt lat="44.40919" lon="6.38656">
        <ele>2512</ele>
        <time>2020-07-07T09:00:31.000Z</time>
      </trkpt>
      <trkpt lat="44.40918" lon="6.38657">
        <ele>2512</ele>
        <time>2020-07-07T09:00:32.000Z</time>
      </trkpt>
      <trkpt lat="44.40916" lon="6.38658">
        <ele>2512</ele>
        <time>2020-07-07T09:00:33.000Z</time>
      </trkpt>
      <trkpt lat="44.40916" lon="6.38659">
        <ele>2512</ele>
        <time>2020-07-07T09:00:34.000Z</time>
      </trkpt>
      <trkpt lat="44.40915" lon="6.3866">
        <ele>2511</ele>
        <time>2020-07-07T09:00:35.000Z</time>
      </trkpt>
      <trkpt lat="44.40914" lon="6.38661">
        <ele>2511</ele>
        <time>2020-07-07T09:00:36.000Z</time>
      </trkpt>
      <trkpt lat="44.40913" lon="6.38661">
        <ele>2511</ele>
        <time>2020-07-07T09:00:37.000Z</time>
      </trkpt>
      <trkpt lat="44.40913" lon="6.38661">
        <ele>2511</ele>
        <time>2020-07-07T09:00:38.000Z</time>
      </trkpt>
      <trkpt lat="44.40912" lon="6.3866">
        <ele>2511</ele>
        <time>2020-07-07T09:00:39.000Z</time>
      </trkpt>
      <trkpt lat="44.40912" lon="6.3866">
        <ele>2511</ele>
        <time>2020-07-07T09:00:40.000Z</time>
      </trkpt>
      <trkpt lat="44.40911" lon="6.38659">
        <ele>2511</ele>
        <time>2020-07-07T09:00:41.000Z</time>
      </trkpt>
      <trkpt lat="44.40911" lon="6.38659">
        <ele>2510</ele>
        <time>2020-07-07T09:00:42.000Z</time>
      </trkpt>
      <trkpt lat="44.40911" lon="6.3866">
        <ele>2510</ele>
        <time>2020-07-07T09:00:43.000Z</time>
      </trkpt>
      <trkpt lat="44.4091" lon="6.3866">
        <ele>2510</ele>
        <time>2020-07-07T09:00:44.000Z</time>
      </trkpt>
      <trkpt lat="44.40909" lon="6.38661">
        <ele>2510</ele>
        <time>2020-07-07T09:00:45.000Z</time>
      </trkpt>
      <trkpt lat="44.40908" lon="6.38661">
        <ele>2510</ele>
        <time>2020-07-07T09:00:46.000Z</time>
      </trkpt>
      <trkpt lat="44.40908" lon="6.38661">
        <ele>2509</ele>
        <time>2020-07-07T09:00:47.000Z</time>
      </trkpt>
      <trkpt lat="44.40907" lon="6.38662">
        <ele>2509</ele>
        <time>2020-07-07T09:00:48.000Z</time>
      </trkpt>
      <trkpt lat="44.40906" lon="6.38662">
        <ele>2509</ele>
        <time>2020-07-07T09:00:49.000Z</time>
      </trkpt>
      <trkpt lat="44.40905" lon="6.38661">
        <ele>2509</ele>
        <time>2020-07-07T09:00:50.000Z</time>
      </trkpt>
      <trkpt lat="44.40904" lon="6.3866">
        <ele>2508</ele>
        <time>2020-07-07T09:00:51.000Z</time>
      </trkpt>
      <trkpt lat="44.40903" lon="6.38659">
        <ele>2508</ele>
        <time>2020-07-07T09:00:52.000Z</time>
      </trkpt>
      <trkpt lat="44.40903" lon="6.38658">
        <ele>2508</ele>
        <time>2020-07-07T09:00:53.000Z</time>
      </trkpt>
      <trkpt lat="44.40903" lon="6.38656">
        <ele>2508</ele>
        <time>2020-07-07T09:00:54.000Z</time>
      </trkpt>
      <trkpt lat="44.40903" lon="6.38655">
        <ele>2507</ele>
        <time>2020-07-07T09:00:55.000Z</time>
      </trkpt>
      <trkpt lat="44.40903" lon="6.38653">
        <ele>2507</ele>
        <time>2020-07-07T09:00:56.000Z</time>
      </trkpt>
      <trkpt lat="44.40904" lon="6.38652">
        <ele>2507</ele>
        <time>2020-07-07T09:00:57.000Z</time>
      </trkpt>
      <trkpt lat="44.40904" lon="6.3865">
        <ele>2507</ele>
        <time>2020-07-07T09:00:58.000Z</time>
      </trkpt>
      <trkpt lat="44.40904" lon="6.38649">
        <ele>2507</ele>
        <time>2020-07-07T09:00:59.000Z</time>
      </trkpt>
      <trkpt lat="44.40904" lon="6.38647">
        <ele>2507</ele>
        <time>2020-07-07T09:01:00.000Z</time>
      </trkpt>
      <trkpt lat="44.40904" lon="6.38646">
        <ele>2507</ele>
        <time>2020-07-07T09:01:01.000Z</time>
      </trkpt>
      <trkpt lat="44.40904" lon="6.38644">
        <ele>2507</ele>
        <time>2020-07-07T09:01:02.000Z</time>
      </trkpt>
      <trkpt lat="44.40904" lon="6.38643">
        <ele>2506</ele>
        <time>2020-07-07T09:01:03.000Z</time>
      </trkpt>
      <trkpt lat="44.40905" lon="6.38642">
        <ele>2506</ele>
        <time>2020-07-07T09:01:04.000Z</time>
      </trkpt>
      <trkpt lat="44.40905" lon="6.38641">
        <ele>2506</ele>
        <time>2020-07-07T09:01:05.000Z</time>
      </trkpt>
      <trkpt lat="44.40905" lon="6.3864">
        <ele>2506</ele>
        <time>2020-07-07T09:01:06.000Z</time>
      </trkpt>
      <trkpt lat="44.40905" lon="6.38639">
        <ele>2506</ele>
        <time>2020-07-07T09:01:07.000Z</time>
      </trkpt>
      <trkpt lat="44.40905" lon="6.38638">
        <ele>2506</ele>
        <time>2020-07-07T09:01:08.000Z</time>
      </trkpt>
      <trkpt lat="44.40904" lon="6.38638">
        <ele>2506</ele>
        <time>2020-07-07T09:01:09.000Z</time>
      </trkpt>
      <trkpt lat="44.40905" lon="6.38637">
        <ele>2506</ele>
        <time>2020-07-07T09:01:10.000Z</time>
      </trkpt>
      <trkpt lat="44.40905" lon="6.38637">
        <ele>2506</ele>
        <time>2020-07-07T09:01:11.000Z</time>
      </trkpt>
      <trkpt lat="44.40905" lon="6.38636">
        <ele>2505</ele>
        <time>2020-07-07T09:01:12.000Z</time>
      </trkpt>
      <trkpt lat="44.40904" lon="6.38636">
        <ele>2505</ele>
        <time>2020-07-07T09:01:13.000Z</time>
      </trkpt>
      <trkpt lat="44.40904" lon="6.38636">
        <ele>2505</ele>
        <time>2020-07-07T09:01:14.000Z</time>
      </trkpt>
      <trkpt lat="44.40903" lon="6.38636">
        <ele>2505</ele>
        <time>2020-07-07T09:01:15.000Z</time>
      </trkpt>
      <trkpt lat="44.40903" lon="6.38636">
        <ele>2505</ele>
        <time>2020-07-07T09:01:16.000Z</time>
      </trkpt>
      <trkpt lat="44.40902" lon="6.38635">
        <ele>2504</ele>
        <time>2020-07-07T09:01:17.000Z</time>
      </trkpt>
      <trkpt lat="44.40902" lon="6.38635">
        <ele>2504</ele>
        <time>2020-07-07T09:01:18.000Z</time>
      </trkpt>
      <trkpt lat="44.40902" lon="6.38635">
        <ele>2504</ele>
        <time>2020-07-07T09:01:19.000Z</time>
      </trkpt>
      <trkpt lat="44.40902" lon="6.38634">
        <ele>2504</ele>
        <time>2020-07-07T09:01:20.000Z</time>
      </trkpt>
      <trkpt lat="44.40901" lon="6.38634">
        <ele>2504</ele>
        <time>2020-07-07T09:01:21.000Z</time>
      </trkpt>
      <trkpt lat="44.40901" lon="6.38634">
        <ele>2504</ele>
        <time>2020-07-07T09:01:22.000Z</time>
      </trkpt>
      <trkpt lat="44.409" lon="6.38634">
        <ele>2503</ele>
        <time>2020-07-07T09:01:23.000Z</time>
      </trkpt>
      <trkpt lat="44.409" lon="6.38634">
        <ele>2503</ele>
        <time>2020-07-07T09:01:24.000Z</time>
      </trkpt>
      <trkpt lat="44.40899" lon="6.38634">
        <ele>2503</ele>
        <time>2020-07-07T09:01:25.000Z</time>
      </trkpt>
      <trkpt lat="44.40898" lon="6.38635">
        <ele>2503</ele>
        <time>2020-07-07T09:01:26.000Z</time>
      </trkpt>
      <trkpt lat="44.40897" lon="6.38635">
        <ele>2502</ele>
        <time>2020-07-07T09:01:27.000Z</time>
      </trkpt>
      <trkpt lat="44.40897" lon="6.38635">
        <ele>2502</ele>
        <time>2020-07-07T09:01:28.000Z</time>
      </trkpt>
      <trkpt lat="44.40896" lon="6.38635">
        <ele>2502</ele>
        <time>2020-07-07T09:01:29.000Z</time>
      </trkpt>
      <trkpt lat="44.40895" lon="6.38634">
        <ele>2502</ele>
        <time>2020-07-07T09:01:30.000Z</time>
      </trkpt>
      <trkpt lat="44.40894" lon="6.38634">
        <ele>2502</ele>
        <time>2020-07-07T09:01:31.000Z</time>
      </trkpt>
      <trkpt lat="44.40894" lon="6.38634">
        <ele>2502</ele>
        <time>2020-07-07T09:01:32.000Z</time>
      </trkpt>
      <trkpt lat="44.40893" lon="6.38633">
        <ele>2502</ele>
        <time>2020-07-07T09:01:33.000Z</time>
      </trkpt>
      <trkpt lat="44.40892" lon="6.38634">
        <ele>2502</ele>
        <time>2020-07-07T09:01:34.000Z</time>
      </trkpt>
      <trkpt lat="44.40891" lon="6.38634">
        <ele>2502</ele>
        <time>2020-07-07T09:01:35.000Z</time>
      </trkpt>
      <trkpt lat="44.4089" lon="6.38634">
        <ele>2501</ele>
        <time>2020-07-07T09:01:36.000Z</time>
      </trkpt>
      <trkpt lat="44.40889" lon="6.38635">
        <ele>2501</ele>
        <time>2020-07-07T09:01:37.000Z</time>
      </trkpt>
      <trkpt lat="44.40888" lon="6.38635">
        <ele>2501</ele>
        <time>2020-07-07T09:01:38.000Z</time>
      </trkpt>
      <trkpt lat="44.40887" lon="6.38636">
        <ele>2501</ele>
        <time>2020-07-07T09:01:39.000Z</time>
      </trkpt>
      <trkpt lat="44.40886" lon="6.38637">
        <ele>2501</ele>
        <time>2020-07-07T09:01:40.000Z</time>
      </trkpt>
      <trkpt lat="44.40885" lon="6.38637">
        <ele>2501</ele>
        <time>2020-07-07T09:01:41.000Z</time>
      </trkpt>
      <trkpt lat="44.40884" lon="6.38637">
        <ele>2501</ele>
        <time>2020-07-07T09:01:42.000Z</time>
      </trkpt>
      <trkpt lat="44.40884" lon="6.38637">
        <ele>2501</ele>
        <time>2020-07-07T09:01:43.000Z</time>
      </trkpt>
      <trkpt lat="44.40883" lon="6.38637">
        <ele>2501</ele>
        <time>2020-07-07T09:01:44.000Z</time>
      </trkpt>
      <trkpt lat="44.40882" lon="6.38637">
        <ele>2500</ele>
        <time>2020-07-07T09:01:45.000Z</time>
      </trkpt>
      <trkpt lat="44.40882" lon="6.38638">
        <ele>2500</ele>
        <time>2020-07-07T09:01:46.000Z</time>
      </trkpt>
      <trkpt lat="44.40881" lon="6.38638">
        <ele>2500</ele>
        <time>2020-07-07T09:01:47.000Z</time>
      </trkpt>
      <trkpt lat="44.4088" lon="6.38638">
        <ele>2500</ele>
        <time>2020-07-07T09:01:48.000Z</time>
      </trkpt>
      <trkpt lat="44.40879" lon="6.38639">
        <ele>2500</ele>
        <time>2020-07-07T09:01:49.000Z</time>
      </trkpt>
      <trkpt lat="44.40878" lon="6.38639">
        <ele>2500</ele>
        <time>2020-07-07T09:01:50.000Z</time>
      </trkpt>
      <trkpt lat="44.40877" lon="6.38639">
        <ele>2500</ele>
        <time>2020-07-07T09:01:51.000Z</time>
      </trkpt>
      <trkpt lat="44.40877" lon="6.38639">
        <ele>2500</ele>
        <time>2020-07-07T09:01:52.000Z</time>
      </trkpt>
      <trkpt lat="44.40876" lon="6.38639">
        <ele>2499</ele>
        <time>2020-07-07T09:01:53.000Z</time>
      </trkpt>
      <trkpt lat="44.40876" lon="6.3864">
        <ele>2499</ele>
        <time>2020-07-07T09:01:54.000Z</time>
      </trkpt>
      <trkpt lat="44.40875" lon="6.3864">
        <ele>2499</ele>
        <time>2020-07-07T09:01:55.000Z</time>
      </trkpt>
      <trkpt lat="44.40874" lon="6.38639">
        <ele>2499</ele>
        <time>2020-07-07T09:01:56.000Z</time>
      </trkpt>
      <trkpt lat="44.40874" lon="6.38638">
        <ele>2499</ele>
        <time>2020-07-07T09:01:57.000Z</time>
      </trkpt>
      <trkpt lat="44.40875" lon="6.38637">
        <ele>2499</ele>
        <time>2020-07-07T09:01:58.000Z</time>
      </trkpt>
      <trkpt lat="44.40875" lon="6.38636">
        <ele>2499</ele>
        <time>2020-07-07T09:01:59.000Z</time>
      </trkpt>
      <trkpt lat="44.40875" lon="6.38636">
        <ele>2498</ele>
        <time>2020-07-07T09:02:00.000Z</time>
      </trkpt>
      <trkpt lat="44.40875" lon="6.38635">
        <ele>2498</ele>
        <time>2020-07-07T09:02:01.000Z</time>
      </trkpt>
      <trkpt lat="44.40875" lon="6.38634">
        <ele>2498</ele>
        <time>2020-07-07T09:02:02.000Z</time>
      </trkpt>
      <trkpt lat="44.40876" lon="6.38634">
        <ele>2498</ele>
        <time>2020-07-07T09:02:03.000Z</time>
      </trkpt>
      <trkpt lat="44.40876" lon="6.38633">
        <ele>2497</ele>
        <time>2020-07-07T09:02:04.000Z</time>
      </trkpt>
      <trkpt lat="44.40876" lon="6.38633">
        <ele>2497</ele>
        <time>2020-07-07T09:02:05.000Z</time>
      </trkpt>
      <trkpt lat="44.40876" lon="6.38632">
        <ele>2497</ele>
        <time>2020-07-07T09:02:06.000Z</time>
      </trkpt>
      <trkpt lat="44.40876" lon="6.38631">
        <ele>2497</ele>
        <time>2020-07-07T09:02:07.000Z</time>
      </trkpt>
      <trkpt lat="44.40876" lon="6.3863">
        <ele>2497</ele>
        <time>2020-07-07T09:02:08.000Z</time>
      </trkpt>
      <trkpt lat="44.40875" lon="6.3863">
        <ele>2496</ele>
        <time>2020-07-07T09:02:09.000Z</time>
      </trkpt>
      <trkpt lat="44.40875" lon="6.3863">
        <ele>2496</ele>
        <time>2020-07-07T09:02:10.000Z</time>
      </trkpt>
      <trkpt lat="44.40874" lon="6.3863">
        <ele>2496</ele>
        <time>2020-07-07T09:02:11.000Z</time>
      </trkpt>
      <trkpt lat="44.40873" lon="6.38631">
        <ele>2496</ele>
        <time>2020-07-07T09:02:12.000Z</time>
      </trkpt>
      <trkpt lat="44.40873" lon="6.38631">
        <ele>2496</ele>
        <time>2020-07-07T09:02:13.000Z</time>
      </trkpt>
      <trkpt lat="44.40872" lon="6.38631">
        <ele>2496</ele>
        <time>2020-07-07T09:02:14.000Z</time>
      </trkpt>
      <trkpt lat="44.40871" lon="6.38631">
        <ele>2496</ele>
        <time>2020-07-07T09:02:15.000Z</time>
      </trkpt>
      <trkpt lat="44.40871" lon="6.38631">
        <ele>2496</ele>
        <time>2020-07-07T09:02:16.000Z</time>
      </trkpt>
      <trkpt lat="44.4087" lon="6.3863">
        <ele>2496</ele>
        <time>2020-07-07T09:02:17.000Z</time>
      </trkpt>
      <trkpt lat="44.4087" lon="6.38629">
        <ele>2496</ele>
        <time>2020-07-07T09:02:18.000Z</time>
      </trkpt>
      <trkpt lat="44.4087" lon="6.38628">
        <ele>2496</ele>
        <time>2020-07-07T09:02:19.000Z</time>
      </trkpt>
      <trkpt lat="44.4087" lon="6.38627">
        <ele>2495</ele>
        <time>2020-07-07T09:02:20.000Z</time>
      </trkpt>
      <trkpt lat="44.40871" lon="6.38626">
        <ele>2495</ele>
        <time>2020-07-07T09:02:21.000Z</time>
      </trkpt>
      <trkpt lat="44.40872" lon="6.38626">
        <ele>2495</ele>
        <time>2020-07-07T09:02:22.000Z</time>
      </trkpt>
      <trkpt lat="44.40872" lon="6.38625">
        <ele>2495</ele>
        <time>2020-07-07T09:02:23.000Z</time>
      </trkpt>
      <trkpt lat="44.40873" lon="6.38625">
        <ele>2495</ele>
        <time>2020-07-07T09:02:24.000Z</time>
      </trkpt>
      <trkpt lat="44.40874" lon="6.38623">
        <ele>2495</ele>
        <time>2020-07-07T09:02:25.000Z</time>
      </trkpt>
      <trkpt lat="44.40874" lon="6.38623">
        <ele>2495</ele>
        <time>2020-07-07T09:02:26.000Z</time>
      </trkpt>
      <trkpt lat="44.40875" lon="6.38622">
        <ele>2494</ele>
        <time>2020-07-07T09:02:27.000Z</time>
      </trkpt>
      <trkpt lat="44.40875" lon="6.38621">
        <ele>2494</ele>
        <time>2020-07-07T09:02:28.000Z</time>
      </trkpt>
      <trkpt lat="44.40876" lon="6.3862">
        <ele>2494</ele>
        <time>2020-07-07T09:02:29.000Z</time>
      </trkpt>
      <trkpt lat="44.40877" lon="6.38619">
        <ele>2494</ele>
        <time>2020-07-07T09:02:30.000Z</time>
      </trkpt>
      <trkpt lat="44.40877" lon="6.38619">
        <ele>2494</ele>
        <time>2020-07-07T09:02:31.000Z</time>
      </trkpt>
      <trkpt lat="44.40878" lon="6.38618">
        <ele>2494</ele>
        <time>2020-07-07T09:02:32.000Z</time>
      </trkpt>
      <trkpt lat="44.40878" lon="6.38617">
        <ele>2494</ele>
        <time>2020-07-07T09:02:33.000Z</time>
      </trkpt>
      <trkpt lat="44.40879" lon="6.38616">
        <ele>2494</ele>
        <time>2020-07-07T09:02:34.000Z</time>
      </trkpt>
      <trkpt lat="44.4088" lon="6.38616">
        <ele>2493</ele>
        <time>2020-07-07T09:02:35.000Z</time>
      </trkpt>
      <trkpt lat="44.4088" lon="6.38615">
        <ele>2493</ele>
        <time>2020-07-07T09:02:36.000Z</time>
      </trkpt>
      <trkpt lat="44.40881" lon="6.38615">
        <ele>2493</ele>
        <time>2020-07-07T09:02:37.000Z</time>
      </trkpt>
      <trkpt lat="44.40881" lon="6.38615">
        <ele>2493</ele>
        <time>2020-07-07T09:02:38.000Z</time>
      </trkpt>
      <trkpt lat="44.40881" lon="6.38614">
        <ele>2493</ele>
        <time>2020-07-07T09:02:39.000Z</time>
      </trkpt>
      <trkpt lat="44.40881" lon="6.38614">
        <ele>2493</ele>
        <time>2020-07-07T09:02:40.000Z</time>
      </trkpt>
      <trkpt lat="44.40882" lon="6.38613">
        <ele>2493</ele>
        <time>2020-07-07T09:02:41.000Z</time>
      </trkpt>
      <trkpt lat="44.40882" lon="6.38613">
        <ele>2493</ele>
        <time>2020-07-07T09:02:42.000Z</time>
      </trkpt>
      <trkpt lat="44.40882" lon="6.38613">
        <ele>2493</ele>
        <time>2020-07-07T09:02:43.000Z</time>
      </trkpt>
      <trkpt lat="44.40883" lon="6.38612">
        <ele>2493</ele>
        <time>2020-07-07T09:02:44.000Z</time>
      </trkpt>
      <trkpt lat="44.40883" lon="6.38612">
        <ele>2492</ele>
        <time>2020-07-07T09:02:45.000Z</time>
      </trkpt>
      <trkpt lat="44.40883" lon="6.38612">
        <ele>2492</ele>
        <time>2020-07-07T09:02:46.000Z</time>
      </trkpt>
      <trkpt lat="44.40883" lon="6.38612">
        <ele>2492</ele>
        <time>2020-07-07T09:02:47.000Z</time>
      </trkpt>
      <trkpt lat="44.40884" lon="6.38612">
        <ele>2492</ele>
        <time>2020-07-07T09:02:48.000Z</time>
      </trkpt>
      <trkpt lat="44.40884" lon="6.38612">
        <ele>2492</ele>
        <time>2020-07-07T09:02:49.000Z</time>
      </trkpt>
      <trkpt lat="44.40884" lon="6.38611">
        <ele>2492</ele>
        <time>2020-07-07T09:02:50.000Z</time>
      </trkpt>
      <trkpt lat="44.40884" lon="6.38611">
        <ele>2491</ele>
        <time>2020-07-07T09:02:51.000Z</time>
      </trkpt>
      <trkpt lat="44.40884" lon="6.38611">
        <ele>2491</ele>
        <time>2020-07-07T09:02:52.000Z</time>
      </trkpt>
      <trkpt lat="44.40884" lon="6.38611">
        <ele>2491</ele>
        <time>2020-07-07T09:02:53.000Z</time>
      </trkpt>
      <trkpt lat="44.40884" lon="6.3861">
        <ele>2491</ele>
        <time>2020-07-07T09:02:54.000Z</time>
      </trkpt>
      <trkpt lat="44.40884" lon="6.3861">
        <ele>2491</ele>
        <time>2020-07-07T09:02:55.000Z</time>
      </trkpt>
      <trkpt lat="44.40884" lon="6.38609">
        <ele>2491</ele>
        <time>2020-07-07T09:02:56.000Z</time>
      </trkpt>
      <trkpt lat="44.40884" lon="6.38609">
        <ele>2491</ele>
        <time>2020-07-07T09:02:57.000Z</time>
      </trkpt>
      <trkpt lat="44.40884" lon="6.38609">
        <ele>2491</ele>
        <time>2020-07-07T09:02:58.000Z</time>
      </trkpt>
      <trkpt lat="44.40883" lon="6.38609">
        <ele>2491</ele>
        <time>2020-07-07T09:02:59.000Z</time>
      </trkpt>
      <trkpt lat="44.40883" lon="6.38608">
        <ele>2490</ele>
        <time>2020-07-07T09:03:00.000Z</time>
      </trkpt>
      <trkpt lat="44.40882" lon="6.38608">
        <ele>2490</ele>
        <time>2020-07-07T09:03:01.000Z</time>
      </trkpt>
      <trkpt lat="44.40881" lon="6.38608">
        <ele>2490</ele>
        <time>2020-07-07T09:03:02.000Z</time>
      </trkpt>
      <trkpt lat="44.40881" lon="6.38607">
        <ele>2490</ele>
        <time>2020-07-07T09:03:03.000Z</time>
      </trkpt>
      <trkpt lat="44.4088" lon="6.38607">
        <ele>2490</ele>
        <time>2020-07-07T09:03:04.000Z</time>
      </trkpt>
      <trkpt lat="44.4088" lon="6.38607">
        <ele>2489</ele>
        <time>2020-07-07T09:03:05.000Z</time>
      </trkpt>
      <trkpt lat="44.40879" lon="6.38607">
        <ele>2489</ele>
        <time>2020-07-07T09:03:06.000Z</time>
      </trkpt>
      <trkpt lat="44.40878" lon="6.38607">
        <ele>2489</ele>
        <time>2020-07-07T09:03:07.000Z</time>
      </trkpt>
      <trkpt lat="44.40878" lon="6.38607">
        <ele>2489</ele>
        <time>2020-07-07T09:03:08.000Z</time>
      </trkpt>
      <trkpt lat="44.40877" lon="6.38607">
        <ele>2489</ele>
        <time>2020-07-07T09:03:09.000Z</time>
      </trkpt>
      <trkpt lat="44.40876" lon="6.38607">
        <ele>2489</ele>
        <time>2020-07-07T09:03:10.000Z</time>
      </trkpt>
      <trkpt lat="44.40875" lon="6.38606">
        <ele>2489</ele>
        <time>2020-07-07T09:03:11.000Z</time>
      </trkpt>
      <trkpt lat="44.40874" lon="6.38606">
        <ele>2489</ele>
        <time>2020-07-07T09:03:12.000Z</time>
      </trkpt>
      <trkpt lat="44.40874" lon="6.38607">
        <ele>2489</ele>
        <time>2020-07-07T09:03:13.000Z</time>
      </trkpt>
      <trkpt lat="44.40873" lon="6.38607">
        <ele>2488</ele>
        <time>2020-07-07T09:03:14.000Z</time>
      </trkpt>
      <trkpt lat="44.40872" lon="6.38607">
        <ele>2488</ele>
        <time>2020-07-07T09:03:15.000Z</time>
      </trkpt>
      <trkpt lat="44.40872" lon="6.38607">
        <ele>2488</ele>
        <time>2020-07-07T09:03:16.000Z</time>
      </trkpt>
      <trkpt lat="44.40871" lon="6.38608">
        <ele>2488</ele>
        <time>2020-07-07T09:03:17.000Z</time>
      </trkpt>
      <trkpt lat="44.4087" lon="6.38608">
        <ele>2488</ele>
        <time>2020-07-07T09:03:18.000Z</time>
      </trkpt>
      <trkpt lat="44.40869" lon="6.38608">
        <ele>2488</ele>
        <time>2020-07-07T09:03:19.000Z</time>
      </trkpt>
      <trkpt lat="44.40868" lon="6.38609">
        <ele>2487</ele>
        <time>2020-07-07T09:03:20.000Z</time>
      </trkpt>
      <trkpt lat="44.40868" lon="6.38609">
        <ele>2487</ele>
        <time>2020-07-07T09:03:21.000Z</time>
      </trkpt>
      <trkpt lat="44.40867" lon="6.38609">
        <ele>2487</ele>
        <time>2020-07-07T09:03:22.000Z</time>
      </trkpt>
      <trkpt lat="44.40866" lon="6.38609">
        <ele>2487</ele>
        <time>2020-07-07T09:03:23.000Z</time>
      </trkpt>
      <trkpt lat="44.40865" lon="6.38609">
        <ele>2487</ele>
        <time>2020-07-07T09:03:24.000Z</time>
      </trkpt>
      <trkpt lat="44.40865" lon="6.38609">
        <ele>2487</ele>
        <time>2020-07-07T09:03:25.000Z</time>
      </trkpt>
      <trkpt lat="44.40864" lon="6.3861">
        <ele>2486</ele>
        <time>2020-07-07T09:03:26.000Z</time>
      </trkpt>
      <trkpt lat="44.40863" lon="6.38611">
        <ele>2486</ele>
        <time>2020-07-07T09:03:27.000Z</time>
      </trkpt>
      <trkpt lat="44.40863" lon="6.3861">
        <ele>2486</ele>
        <time>2020-07-07T09:03:28.000Z</time>
      </trkpt>
      <trkpt lat="44.40863" lon="6.3861">
        <ele>2486</ele>
        <time>2020-07-07T09:03:29.000Z</time>
      </trkpt>
      <trkpt lat="44.40862" lon="6.3861">
        <ele>2486</ele>
        <time>2020-07-07T09:03:30.000Z</time>
      </trkpt>
      <trkpt lat="44.40861" lon="6.3861">
        <ele>2486</ele>
        <time>2020-07-07T09:03:31.000Z</time>
      </trkpt>
      <trkpt lat="44.40861" lon="6.38609">
        <ele>2486</ele>
        <time>2020-07-07T09:03:32.000Z</time>
      </trkpt>
      <trkpt lat="44.4086" lon="6.38609">
        <ele>2486</ele>
        <time>2020-07-07T09:03:33.000Z</time>
      </trkpt>
      <trkpt lat="44.4086" lon="6.38609">
        <ele>2486</ele>
        <time>2020-07-07T09:03:34.000Z</time>
      </trkpt>
      <trkpt lat="44.40859" lon="6.38609">
        <ele>2485</ele>
        <time>2020-07-07T09:03:35.000Z</time>
      </trkpt>
      <trkpt lat="44.40858" lon="6.38609">
        <ele>2485</ele>
        <time>2020-07-07T09:03:36.000Z</time>
      </trkpt>
      <trkpt lat="44.40858" lon="6.38609">
        <ele>2485</ele>
        <time>2020-07-07T09:03:37.000Z</time>
      </trkpt>
      <trkpt lat="44.40857" lon="6.38609">
        <ele>2485</ele>
        <time>2020-07-07T09:03:38.000Z</time>
      </trkpt>
      <trkpt lat="44.40856" lon="6.38609">
        <ele>2484</ele>
        <time>2020-07-07T09:03:39.000Z</time>
      </trkpt>
      <trkpt lat="44.40856" lon="6.38609">
        <ele>2484</ele>
        <time>2020-07-07T09:03:40.000Z</time>
      </trkpt>
      <trkpt lat="44.40855" lon="6.38609">
        <ele>2484</ele>
        <time>2020-07-07T09:03:41.000Z</time>
      </trkpt>
      <trkpt lat="44.40855" lon="6.38609">
        <ele>2484</ele>
        <time>2020-07-07T09:03:42.000Z</time>
      </trkpt>
      <trkpt lat="44.40854" lon="6.38609">
        <ele>2484</ele>
        <time>2020-07-07T09:03:43.000Z</time>
      </trkpt>
      <trkpt lat="44.40853" lon="6.3861">
        <ele>2483</ele>
        <time>2020-07-07T09:03:44.000Z</time>
      </trkpt>
      <trkpt lat="44.40852" lon="6.3861">
        <ele>2483</ele>
        <time>2020-07-07T09:03:45.000Z</time>
      </trkpt>
      <trkpt lat="44.40851" lon="6.3861">
        <ele>2483</ele>
        <time>2020-07-07T09:03:46.000Z</time>
      </trkpt>
      <trkpt lat="44.40851" lon="6.3861">
        <ele>2483</ele>
        <time>2020-07-07T09:03:47.000Z</time>
      </trkpt>
      <trkpt lat="44.4085" lon="6.38611">
        <ele>2483</ele>
        <time>2020-07-07T09:03:48.000Z</time>
      </trkpt>
      <trkpt lat="44.40849" lon="6.38611">
        <ele>2482</ele>
        <time>2020-07-07T09:03:49.000Z</time>
      </trkpt>
      <trkpt lat="44.40848" lon="6.38612">
        <ele>2482</ele>
        <time>2020-07-07T09:03:50.000Z</time>
      </trkpt>
      <trkpt lat="44.40848" lon="6.38611">
        <ele>2482</ele>
        <time>2020-07-07T09:03:51.000Z</time>
      </trkpt>
      <trkpt lat="44.40847" lon="6.38611">
        <ele>2482</ele>
        <time>2020-07-07T09:03:52.000Z</time>
      </trkpt>
      <trkpt lat="44.40846" lon="6.38611">
        <ele>2482</ele>
        <time>2020-07-07T09:03:53.000Z</time>
      </trkpt>
      <trkpt lat="44.40846" lon="6.38611">
        <ele>2482</ele>
        <time>2020-07-07T09:03:54.000Z</time>
      </trkpt>
      <trkpt lat="44.40845" lon="6.38612">
        <ele>2481</ele>
        <time>2020-07-07T09:03:55.000Z</time>
      </trkpt>
      <trkpt lat="44.40845" lon="6.38612">
        <ele>2481</ele>
        <time>2020-07-07T09:03:56.000Z</time>
      </trkpt>
      <trkpt lat="44.40844" lon="6.38612">
        <ele>2481</ele>
        <time>2020-07-07T09:03:57.000Z</time>
      </trkpt>
      <trkpt lat="44.40843" lon="6.38612">
        <ele>2481</ele>
        <time>2020-07-07T09:03:58.000Z</time>
      </trkpt>
      <trkpt lat="44.40842" lon="6.38611">
        <ele>2480</ele>
        <time>2020-07-07T09:03:59.000Z</time>
      </trkpt>
      <trkpt lat="44.40841" lon="6.38611">
        <ele>2480</ele>
        <time>2020-07-07T09:04:00.000Z</time>
      </trkpt>
      <trkpt lat="44.4084" lon="6.3861">
        <ele>2480</ele>
        <time>2020-07-07T09:04:01.000Z</time>
      </trkpt>
      <trkpt lat="44.4084" lon="6.3861">
        <ele>2479</ele>
        <time>2020-07-07T09:04:02.000Z</time>
      </trkpt>
      <trkpt lat="44.40839" lon="6.3861">
        <ele>2479</ele>
        <time>2020-07-07T09:04:03.000Z</time>
      </trkpt>
      <trkpt lat="44.40838" lon="6.3861">
        <ele>2479</ele>
        <time>2020-07-07T09:04:04.000Z</time>
      </trkpt>
      <trkpt lat="44.40838" lon="6.3861">
        <ele>2479</ele>
        <time>2020-07-07T09:04:05.000Z</time>
      </trkpt>
      <trkpt lat="44.40837" lon="6.38611">
        <ele>2479</ele>
        <time>2020-07-07T09:04:06.000Z</time>
      </trkpt>
      <trkpt lat="44.40836" lon="6.38611">
        <ele>2479</ele>
        <time>2020-07-07T09:04:07.000Z</time>
      </trkpt>
      <trkpt lat="44.40835" lon="6.38611">
        <ele>2478</ele>
        <time>2020-07-07T09:04:08.000Z</time>
      </trkpt>
      <trkpt lat="44.40834" lon="6.38611">
        <ele>2478</ele>
        <time>2020-07-07T09:04:09.000Z</time>
      </trkpt>
      <trkpt lat="44.40833" lon="6.38613">
        <ele>2478</ele>
        <time>2020-07-07T09:04:10.000Z</time>
      </trkpt>
      <trkpt lat="44.40832" lon="6.38613">
        <ele>2477</ele>
        <time>2020-07-07T09:04:11.000Z</time>
      </trkpt>
      <trkpt lat="44.40832" lon="6.38612">
        <ele>2477</ele>
        <time>2020-07-07T09:04:12.000Z</time>
      </trkpt>
      <trkpt lat="44.40832" lon="6.38612">
        <ele>2477</ele>
        <time>2020-07-07T09:04:13.000Z</time>
      </trkpt>
      <trkpt lat="44.40831" lon="6.38612">
        <ele>2477</ele>
        <time>2020-07-07T09:04:14.000Z</time>
      </trkpt>
      <trkpt lat="44.4083" lon="6.38612">
        <ele>2477</ele>
        <time>2020-07-07T09:04:15.000Z</time>
      </trkpt>
      <trkpt lat="44.4083" lon="6.38612">
        <ele>2477</ele>
        <time>2020-07-07T09:04:16.000Z</time>
      </trkpt>
      <trkpt lat="44.40829" lon="6.38612">
        <ele>2477</ele>
        <time>2020-07-07T09:04:17.000Z</time>
      </trkpt>
      <trkpt lat="44.40828" lon="6.38612">
        <ele>2476</ele>
        <time>2020-07-07T09:04:18.000Z</time>
      </trkpt>
      <trkpt lat="44.40827" lon="6.38612">
        <ele>2476</ele>
        <time>2020-07-07T09:04:19.000Z</time>
      </trkpt>
      <trkpt lat="44.40826" lon="6.38612">
        <ele>2476</ele>
        <time>2020-07-07T09:04:20.000Z</time>
      </trkpt>
      <trkpt lat="44.40826" lon="6.38612">
        <ele>2476</ele>
        <time>2020-07-07T09:04:21.000Z</time>
      </trkpt>
      <trkpt lat="44.40825" lon="6.38611">
        <ele>2476</ele>
        <time>2020-07-07T09:04:22.000Z</time>
      </trkpt>
      <trkpt lat="44.40825" lon="6.38611">
        <ele>2476</ele>
        <time>2020-07-07T09:04:23.000Z</time>
      </trkpt>
      <trkpt lat="44.40824" lon="6.38609">
        <ele>2476</ele>
        <time>2020-07-07T09:04:24.000Z</time>
      </trkpt>
      <trkpt lat="44.40824" lon="6.38608">
        <ele>2476</ele>
        <time>2020-07-07T09:04:25.000Z</time>
      </trkpt>
      <trkpt lat="44.40823" lon="6.38607">
        <ele>2476</ele>
        <time>2020-07-07T09:04:26.000Z</time>
      </trkpt>
      <trkpt lat="44.40822" lon="6.38607">
        <ele>2476</ele>
        <time>2020-07-07T09:04:27.000Z</time>
      </trkpt>
      <trkpt lat="44.40821" lon="6.38606">
        <ele>2476</ele>
        <time>2020-07-07T09:04:28.000Z</time>
      </trkpt>
      <trkpt lat="44.40821" lon="6.38606">
        <ele>2476</ele>
        <time>2020-07-07T09:04:29.000Z</time>
      </trkpt>
      <trkpt lat="44.4082" lon="6.38605">
        <ele>2475</ele>
        <time>2020-07-07T09:04:30.000Z</time>
      </trkpt>
      <trkpt lat="44.4082" lon="6.38605">
        <ele>2475</ele>
        <time>2020-07-07T09:04:31.000Z</time>
      </trkpt>
      <trkpt lat="44.40819" lon="6.38605">
        <ele>2475</ele>
        <time>2020-07-07T09:04:32.000Z</time>
      </trkpt>
      <trkpt lat="44.40819" lon="6.38605">
        <ele>2475</ele>
        <time>2020-07-07T09:04:33.000Z</time>
      </trkpt>
      <trkpt lat="44.40818" lon="6.38604">
        <ele>2475</ele>
        <time>2020-07-07T09:04:34.000Z</time>
      </trkpt>
      <trkpt lat="44.40817" lon="6.38604">
        <ele>2474</ele>
        <time>2020-07-07T09:04:35.000Z</time>
      </trkpt>
      <trkpt lat="44.40817" lon="6.38603">
        <ele>2474</ele>
        <time>2020-07-07T09:04:36.000Z</time>
      </trkpt>
      <trkpt lat="44.40816" lon="6.38602">
        <ele>2474</ele>
        <time>2020-07-07T09:04:37.000Z</time>
      </trkpt>
      <trkpt lat="44.40816" lon="6.38602">
        <ele>2474</ele>
        <time>2020-07-07T09:04:38.000Z</time>
      </trkpt>
      <trkpt lat="44.40815" lon="6.38602">
        <ele>2474</ele>
        <time>2020-07-07T09:04:39.000Z</time>
      </trkpt>
      <trkpt lat="44.40814" lon="6.38602">
        <ele>2474</ele>
        <time>2020-07-07T09:04:40.000Z</time>
      </trkpt>
      <trkpt lat="44.40814" lon="6.38602">
        <ele>2473</ele>
        <time>2020-07-07T09:04:41.000Z</time>
      </trkpt>
      <trkpt lat="44.40813" lon="6.38602">
        <ele>2473</ele>
        <time>2020-07-07T09:04:42.000Z</time>
      </trkpt>
      <trkpt lat="44.40812" lon="6.38601">
        <ele>2473</ele>
        <time>2020-07-07T09:04:43.000Z</time>
      </trkpt>
      <trkpt lat="44.40812" lon="6.38601">
        <ele>2473</ele>
        <time>2020-07-07T09:04:44.000Z</time>
      </trkpt>
      <trkpt lat="44.40812" lon="6.38601">
        <ele>2472</ele>
        <time>2020-07-07T09:04:45.000Z</time>
      </trkpt>
      <trkpt lat="44.40812" lon="6.38601">
        <ele>2472</ele>
        <time>2020-07-07T09:04:46.000Z</time>
      </trkpt>
      <trkpt lat="44.40812" lon="6.38601">
        <ele>2472</ele>
        <time>2020-07-07T09:04:47.000Z</time>
      </trkpt>
      <trkpt lat="44.40812" lon="6.38601">
        <ele>2472</ele>
        <time>2020-07-07T09:04:48.000Z</time>
      </trkpt>
      <trkpt lat="44.40812" lon="6.38601">
        <ele>2472</ele>
        <time>2020-07-07T09:04:49.000Z</time>
      </trkpt>
      <trkpt lat="44.40812" lon="6.38601">
        <ele>2472</ele>
        <time>2020-07-07T09:04:50.000Z</time>
      </trkpt>
      <trkpt lat="44.40812" lon="6.38601">
        <ele>2472</ele>
        <time>2020-07-07T09:04:51.000Z</time>
      </trkpt>
      <trkpt lat="44.40812" lon="6.38601">
        <ele>2472</ele>
        <time>2020-07-07T09:04:52.000Z</time>
      </trkpt>
      <trkpt lat="44.40811" lon="6.38601">
        <ele>2472</ele>
        <time>2020-07-07T09:04:53.000Z</time>
      </trkpt>
      <trkpt lat="44.40811" lon="6.38601">
        <ele>2472</ele>
        <time>2020-07-07T09:04:54.000Z</time>
      </trkpt>
      <trkpt lat="44.4081" lon="6.386">
        <ele>2472</ele>
        <time>2020-07-07T09:04:55.000Z</time>
      </trkpt>
      <trkpt lat="44.4081" lon="6.386">
        <ele>2471</ele>
        <time>2020-07-07T09:04:56.000Z</time>
      </trkpt>
      <trkpt lat="44.40809" lon="6.386">
        <ele>2471</ele>
        <time>2020-07-07T09:04:57.000Z</time>
      </trkpt>
      <trkpt lat="44.40808" lon="6.38599">
        <ele>2471</ele>
        <time>2020-07-07T09:04:58.000Z</time>
      </trkpt>
      <trkpt lat="44.40808" lon="6.38599">
        <ele>2471</ele>
        <time>2020-07-07T09:04:59.000Z</time>
      </trkpt>
      <trkpt lat="44.40807" lon="6.38599">
        <ele>2471</ele>
        <time>2020-07-07T09:05:00.000Z</time>
      </trkpt>
      <trkpt lat="44.40807" lon="6.38599">
        <ele>2471</ele>
        <time>2020-07-07T09:05:01.000Z</time>
      </trkpt>
      <trkpt lat="44.40807" lon="6.38599">
        <ele>2470</ele>
        <time>2020-07-07T09:05:02.000Z</time>
      </trkpt>
      <trkpt lat="44.40807" lon="6.38599">
        <ele>2470</ele>
        <time>2020-07-07T09:05:03.000Z</time>
      </trkpt>
      <trkpt lat="44.40807" lon="6.386">
        <ele>2470</ele>
        <time>2020-07-07T09:05:04.000Z</time>
      </trkpt>
      <trkpt lat="44.40806" lon="6.386">
        <ele>2470</ele>
        <time>2020-07-07T09:05:05.000Z</time>
      </trkpt>
      <trkpt lat="44.40806" lon="6.38601">
        <ele>2470</ele>
        <time>2020-07-07T09:05:06.000Z</time>
      </trkpt>
      <trkpt lat="44.40805" lon="6.38601">
        <ele>2470</ele>
        <time>2020-07-07T09:05:07.000Z</time>
      </trkpt>
      <trkpt lat="44.40805" lon="6.38602">
        <ele>2470</ele>
        <time>2020-07-07T09:05:08.000Z</time>
      </trkpt>
      <trkpt lat="44.40804" lon="6.38603">
        <ele>2470</ele>
        <time>2020-07-07T09:05:09.000Z</time>
      </trkpt>
      <trkpt lat="44.40804" lon="6.38603">
        <ele>2470</ele>
        <time>2020-07-07T09:05:10.000Z</time>
      </trkpt>
      <trkpt lat="44.40804" lon="6.38604">
        <ele>2470</ele>
        <time>2020-07-07T09:05:11.000Z</time>
      </trkpt>
      <trkpt lat="44.40803" lon="6.38605">
        <ele>2469</ele>
        <time>2020-07-07T09:05:12.000Z</time>
      </trkpt>
      <trkpt lat="44.40803" lon="6.38606">
        <ele>2469</ele>
        <time>2020-07-07T09:05:13.000Z</time>
      </trkpt>
      <trkpt lat="44.40803" lon="6.38606">
        <ele>2469</ele>
        <time>2020-07-07T09:05:14.000Z</time>
      </trkpt>
      <trkpt lat="44.40802" lon="6.38607">
        <ele>2469</ele>
        <time>2020-07-07T09:05:15.000Z</time>
      </trkpt>
      <trkpt lat="44.40801" lon="6.38608">
        <ele>2469</ele>
        <time>2020-07-07T09:05:16.000Z</time>
      </trkpt>
      <trkpt lat="44.40801" lon="6.38608">
        <ele>2469</ele>
        <time>2020-07-07T09:05:17.000Z</time>
      </trkpt>
      <trkpt lat="44.408" lon="6.38609">
        <ele>2469</ele>
        <time>2020-07-07T09:05:18.000Z</time>
      </trkpt>
      <trkpt lat="44.408" lon="6.3861">
        <ele>2469</ele>
        <time>2020-07-07T09:05:19.000Z</time>
      </trkpt>
      <trkpt lat="44.40799" lon="6.38611">
        <ele>2469</ele>
        <time>2020-07-07T09:05:20.000Z</time>
      </trkpt>
      <trkpt lat="44.40798" lon="6.38611">
        <ele>2469</ele>
        <time>2020-07-07T09:05:21.000Z</time>
      </trkpt>
      <trkpt lat="44.40797" lon="6.38611">
        <ele>2469</ele>
        <time>2020-07-07T09:05:22.000Z</time>
      </trkpt>
      <trkpt lat="44.40797" lon="6.38611">
        <ele>2469</ele>
        <time>2020-07-07T09:05:23.000Z</time>
      </trkpt>
      <trkpt lat="44.40796" lon="6.38611">
        <ele>2468</ele>
        <time>2020-07-07T09:05:24.000Z</time>
      </trkpt>
      <trkpt lat="44.40795" lon="6.38612">
        <ele>2468</ele>
        <time>2020-07-07T09:05:25.000Z</time>
      </trkpt>
      <trkpt lat="44.40794" lon="6.38612">
        <ele>2468</ele>
        <time>2020-07-07T09:05:26.000Z</time>
      </trkpt>
      <trkpt lat="44.40793" lon="6.38611">
        <ele>2468</ele>
        <time>2020-07-07T09:05:27.000Z</time>
      </trkpt>
      <trkpt lat="44.40792" lon="6.38612">
        <ele>2467</ele>
        <time>2020-07-07T09:05:28.000Z</time>
      </trkpt>
      <trkpt lat="44.40791" lon="6.38612">
        <ele>2467</ele>
        <time>2020-07-07T09:05:29.000Z</time>
      </trkpt>
      <trkpt lat="44.4079" lon="6.38611">
        <ele>2467</ele>
        <time>2020-07-07T09:05:30.000Z</time>
      </trkpt>
      <trkpt lat="44.40789" lon="6.38611">
        <ele>2467</ele>
        <time>2020-07-07T09:05:31.000Z</time>
      </trkpt>
      <trkpt lat="44.40788" lon="6.38611">
        <ele>2467</ele>
        <time>2020-07-07T09:05:32.000Z</time>
      </trkpt>
      <trkpt lat="44.40787" lon="6.3861">
        <ele>2467</ele>
        <time>2020-07-07T09:05:33.000Z</time>
      </trkpt>
      <trkpt lat="44.40786" lon="6.3861">
        <ele>2467</ele>
        <time>2020-07-07T09:05:34.000Z</time>
      </trkpt>
      <trkpt lat="44.40785" lon="6.3861">
        <ele>2466</ele>
        <time>2020-07-07T09:05:35.000Z</time>
      </trkpt>
      <trkpt lat="44.40785" lon="6.3861">
        <ele>2466</ele>
        <time>2020-07-07T09:05:36.000Z</time>
      </trkpt>
      <trkpt lat="44.40784" lon="6.3861">
        <ele>2466</ele>
        <time>2020-07-07T09:05:37.000Z</time>
      </trkpt>
      <trkpt lat="44.40783" lon="6.3861">
        <ele>2466</ele>
        <time>2020-07-07T09:05:38.000Z</time>
      </trkpt>
      <trkpt lat="44.40782" lon="6.3861">
        <ele>2466</ele>
        <time>2020-07-07T09:05:39.000Z</time>
      </trkpt>
      <trkpt lat="44.40781" lon="6.3861">
        <ele>2465</ele>
        <time>2020-07-07T09:05:40.000Z</time>
      </trkpt>
      <trkpt lat="44.40781" lon="6.3861">
        <ele>2465</ele>
        <time>2020-07-07T09:05:41.000Z</time>
      </trkpt>
      <trkpt lat="44.4078" lon="6.38611">
        <ele>2465</ele>
        <time>2020-07-07T09:05:42.000Z</time>
      </trkpt>
      <trkpt lat="44.40779" lon="6.38611">
        <ele>2465</ele>
        <time>2020-07-07T09:05:43.000Z</time>
      </trkpt>
      <trkpt lat="44.40778" lon="6.38612">
        <ele>2465</ele>
        <time>2020-07-07T09:05:44.000Z</time>
      </trkpt>
      <trkpt lat="44.40777" lon="6.38612">
        <ele>2464</ele>
        <time>2020-07-07T09:05:45.000Z</time>
      </trkpt>
      <trkpt lat="44.40776" lon="6.38612">
        <ele>2464</ele>
        <time>2020-07-07T09:05:46.000Z</time>
      </trkpt>
      <trkpt lat="44.40775" lon="6.38612">
        <ele>2464</ele>
        <time>2020-07-07T09:05:47.000Z</time>
      </trkpt>
      <trkpt lat="44.40774" lon="6.38612">
        <ele>2464</ele>
        <time>2020-07-07T09:05:48.000Z</time>
      </trkpt>
      <trkpt lat="44.40773" lon="6.38612">
        <ele>2464</ele>
        <time>2020-07-07T09:05:49.000Z</time>
      </trkpt>
      <trkpt lat="44.40772" lon="6.38612">
        <ele>2464</ele>
        <time>2020-07-07T09:05:50.000Z</time>
      </trkpt>
      <trkpt lat="44.40771" lon="6.38612">
        <ele>2464</ele>
        <time>2020-07-07T09:05:51.000Z</time>
      </trkpt>
      <trkpt lat="44.40771" lon="6.38611">
        <ele>2464</ele>
        <time>2020-07-07T09:05:52.000Z</time>
      </trkpt>
      <trkpt lat="44.4077" lon="6.3861">
        <ele>2464</ele>
        <time>2020-07-07T09:05:53.000Z</time>
      </trkpt>
      <trkpt lat="44.4077" lon="6.3861">
        <ele>2464</ele>
        <time>2020-07-07T09:05:54.000Z</time>
      </trkpt>
      <trkpt lat="44.40769" lon="6.38609">
        <ele>2464</ele>
        <time>2020-07-07T09:05:55.000Z</time>
      </trkpt>
      <trkpt lat="44.40768" lon="6.38609">
        <ele>2464</ele>
        <time>2020-07-07T09:05:56.000Z</time>
      </trkpt>
      <trkpt lat="44.40767" lon="6.38609">
        <ele>2464</ele>
        <time>2020-07-07T09:05:57.000Z</time>
      </trkpt>
      <trkpt lat="44.40766" lon="6.38608">
        <ele>2463</ele>
        <time>2020-07-07T09:05:58.000Z</time>
      </trkpt>
      <trkpt lat="44.40765" lon="6.38608">
        <ele>2463</ele>
        <time>2020-07-07T09:05:59.000Z</time>
      </trkpt>
      <trkpt lat="44.40765" lon="6.38608">
        <ele>2463</ele>
        <time>2020-07-07T09:06:00.000Z</time>
      </trkpt>
      <trkpt lat="44.40764" lon="6.38608">
        <ele>2463</ele>
        <time>2020-07-07T09:06:01.000Z</time>
      </trkpt>
      <trkpt lat="44.40763" lon="6.38608">
        <ele>2463</ele>
        <time>2020-07-07T09:06:02.000Z</time>
      </trkpt>
      <trkpt lat="44.40762" lon="6.38609">
        <ele>2462</ele>
        <time>2020-07-07T09:06:03.000Z</time>
      </trkpt>
      <trkpt lat="44.4076" lon="6.3861">
        <ele>2462</ele>
        <time>2020-07-07T09:06:04.000Z</time>
      </trkpt>
      <trkpt lat="44.40758" lon="6.3861">
        <ele>2462</ele>
        <time>2020-07-07T09:06:05.000Z</time>
      </trkpt>
      <trkpt lat="44.40757" lon="6.38611">
        <ele>2462</ele>
        <time>2020-07-07T09:06:06.000Z</time>
      </trkpt>
      <trkpt lat="44.40756" lon="6.38611">
        <ele>2462</ele>
        <time>2020-07-07T09:06:07.000Z</time>
      </trkpt>
      <trkpt lat="44.40754" lon="6.38611">
        <ele>2462</ele>
        <time>2020-07-07T09:06:08.000Z</time>
      </trkpt>
      <trkpt lat="44.40753" lon="6.38611">
        <ele>2461</ele>
        <time>2020-07-07T09:06:09.000Z</time>
      </trkpt>
      <trkpt lat="44.40752" lon="6.38611">
        <ele>2461</ele>
        <time>2020-07-07T09:06:10.000Z</time>
      </trkpt>
      <trkpt lat="44.40751" lon="6.38611">
        <ele>2461</ele>
        <time>2020-07-07T09:06:11.000Z</time>
      </trkpt>
      <trkpt lat="44.4075" lon="6.38611">
        <ele>2461</ele>
        <time>2020-07-07T09:06:12.000Z</time>
      </trkpt>
      <trkpt lat="44.4075" lon="6.38611">
        <ele>2461</ele>
        <time>2020-07-07T09:06:13.000Z</time>
      </trkpt>
      <trkpt lat="44.40749" lon="6.38611">
        <ele>2461</ele>
        <time>2020-07-07T09:06:14.000Z</time>
      </trkpt>
      <trkpt lat="44.40747" lon="6.38611">
        <ele>2461</ele>
        <time>2020-07-07T09:06:15.000Z</time>
      </trkpt>
      <trkpt lat="44.40746" lon="6.38611">
        <ele>2461</ele>
        <time>2020-07-07T09:06:16.000Z</time>
      </trkpt>
      <trkpt lat="44.40745" lon="6.38611">
        <ele>2461</ele>
        <time>2020-07-07T09:06:17.000Z</time>
      </trkpt>
      <trkpt lat="44.40745" lon="6.38611">
        <ele>2460</ele>
        <time>2020-07-07T09:06:18.000Z</time>
      </trkpt>
      <trkpt lat="44.40744" lon="6.38611">
        <ele>2460</ele>
        <time>2020-07-07T09:06:19.000Z</time>
      </trkpt>
      <trkpt lat="44.40743" lon="6.38611">
        <ele>2460</ele>
        <time>2020-07-07T09:06:20.000Z</time>
      </trkpt>
      <trkpt lat="44.40742" lon="6.38611">
        <ele>2460</ele>
        <time>2020-07-07T09:06:21.000Z</time>
      </trkpt>
      <trkpt lat="44.40741" lon="6.38611">
        <ele>2460</ele>
        <time>2020-07-07T09:06:22.000Z</time>
      </trkpt>
      <trkpt lat="44.40741" lon="6.3861">
        <ele>2460</ele>
        <time>2020-07-07T09:06:23.000Z</time>
      </trkpt>
      <trkpt lat="44.4074" lon="6.38611">
        <ele>2460</ele>
        <time>2020-07-07T09:06:24.000Z</time>
      </trkpt>
      <trkpt lat="44.40738" lon="6.38611">
        <ele>2460</ele>
        <time>2020-07-07T09:06:25.000Z</time>
      </trkpt>
      <trkpt lat="44.40737" lon="6.38611">
        <ele>2460</ele>
        <time>2020-07-07T09:06:26.000Z</time>
      </trkpt>
      <trkpt lat="44.40736" lon="6.38611">
        <ele>2460</ele>
        <time>2020-07-07T09:06:27.000Z</time>
      </trkpt>
      <trkpt lat="44.40736" lon="6.38611">
        <ele>2460</ele>
        <time>2020-07-07T09:06:28.000Z</time>
      </trkpt>
      <trkpt lat="44.40735" lon="6.3861">
        <ele>2460</ele>
        <time>2020-07-07T09:06:29.000Z</time>
      </trkpt>
      <trkpt lat="44.40734" lon="6.3861">
        <ele>2460</ele>
        <time>2020-07-07T09:06:30.000Z</time>
      </trkpt>
      <trkpt lat="44.40733" lon="6.3861">
        <ele>2460</ele>
        <time>2020-07-07T09:06:31.000Z</time>
      </trkpt>
      <trkpt lat="44.40732" lon="6.3861">
        <ele>2459</ele>
        <time>2020-07-07T09:06:32.000Z</time>
      </trkpt>
      <trkpt lat="44.40731" lon="6.38611">
        <ele>2459</ele>
        <time>2020-07-07T09:06:33.000Z</time>
      </trkpt>
      <trkpt lat="44.4073" lon="6.38612">
        <ele>2459</ele>
        <time>2020-07-07T09:06:34.000Z</time>
      </trkpt>
      <trkpt lat="44.40729" lon="6.38612">
        <ele>2459</ele>
        <time>2020-07-07T09:06:35.000Z</time>
      </trkpt>
      <trkpt lat="44.40728" lon="6.38612">
        <ele>2459</ele>
        <time>2020-07-07T09:06:36.000Z</time>
      </trkpt>
      <trkpt lat="44.40727" lon="6.38611">
        <ele>2459</ele>
        <time>2020-07-07T09:06:37.000Z</time>
      </trkpt>
      <trkpt lat="44.40726" lon="6.38611">
        <ele>2459</ele>
        <time>2020-07-07T09:06:38.000Z</time>
      </trkpt>
      <trkpt lat="44.40725" lon="6.38611">
        <ele>2459</ele>
        <time>2020-07-07T09:06:39.000Z</time>
      </trkpt>
      <trkpt lat="44.40724" lon="6.38612">
        <ele>2459</ele>
        <time>2020-07-07T09:06:40.000Z</time>
      </trkpt>
      <trkpt lat="44.40723" lon="6.38612">
        <ele>2458</ele>
        <time>2020-07-07T09:06:41.000Z</time>
      </trkpt>
      <trkpt lat="44.40722" lon="6.38611">
        <ele>2458</ele>
        <time>2020-07-07T09:06:42.000Z</time>
      </trkpt>
      <trkpt lat="44.40721" lon="6.38611">
        <ele>2458</ele>
        <time>2020-07-07T09:06:43.000Z</time>
      </trkpt>
      <trkpt lat="44.4072" lon="6.38611">
        <ele>2458</ele>
        <time>2020-07-07T09:06:44.000Z</time>
      </trkpt>
      <trkpt lat="44.40719" lon="6.38611">
        <ele>2457</ele>
        <time>2020-07-07T09:06:45.000Z</time>
      </trkpt>
      <trkpt lat="44.40718" lon="6.38612">
        <ele>2457</ele>
        <time>2020-07-07T09:06:46.000Z</time>
      </trkpt>
      <trkpt lat="44.40717" lon="6.38612">
        <ele>2457</ele>
        <time>2020-07-07T09:06:47.000Z</time>
      </trkpt>
      <trkpt lat="44.40716" lon="6.38612">
        <ele>2456</ele>
        <time>2020-07-07T09:06:48.000Z</time>
      </trkpt>
      <trkpt lat="44.40715" lon="6.38612">
        <ele>2456</ele>
        <time>2020-07-07T09:06:49.000Z</time>
      </trkpt>
      <trkpt lat="44.40713" lon="6.38612">
        <ele>2456</ele>
        <time>2020-07-07T09:06:50.000Z</time>
      </trkpt>
      <trkpt lat="44.40712" lon="6.38612">
        <ele>2455</ele>
        <time>2020-07-07T09:06:51.000Z</time>
      </trkpt>
      <trkpt lat="44.40711" lon="6.38612">
        <ele>2455</ele>
        <time>2020-07-07T09:06:52.000Z</time>
      </trkpt>
      <trkpt lat="44.4071" lon="6.38612">
        <ele>2455</ele>
        <time>2020-07-07T09:06:53.000Z</time>
      </trkpt>
      <trkpt lat="44.40709" lon="6.38612">
        <ele>2454</ele>
        <time>2020-07-07T09:06:54.000Z</time>
      </trkpt>
      <trkpt lat="44.40708" lon="6.38612">
        <ele>2454</ele>
        <time>2020-07-07T09:06:55.000Z</time>
      </trkpt>
      <trkpt lat="44.40707" lon="6.38613">
        <ele>2454</ele>
        <time>2020-07-07T09:06:56.000Z</time>
      </trkpt>
      <trkpt lat="44.40706" lon="6.38612">
        <ele>2454</ele>
        <time>2020-07-07T09:06:57.000Z</time>
      </trkpt>
      <trkpt lat="44.40706" lon="6.38612">
        <ele>2453</ele>
        <time>2020-07-07T09:06:58.000Z</time>
      </trkpt>
      <trkpt lat="44.40705" lon="6.38612">
        <ele>2453</ele>
        <time>2020-07-07T09:06:59.000Z</time>
      </trkpt>
      <trkpt lat="44.40704" lon="6.38613">
        <ele>2453</ele>
        <time>2020-07-07T09:07:00.000Z</time>
      </trkpt>
      <trkpt lat="44.40703" lon="6.38613">
        <ele>2453</ele>
        <time>2020-07-07T09:07:01.000Z</time>
      </trkpt>
      <trkpt lat="44.40702" lon="6.38614">
        <ele>2452</ele>
        <time>2020-07-07T09:07:02.000Z</time>
      </trkpt>
      <trkpt lat="44.40701" lon="6.38614">
        <ele>2452</ele>
        <time>2020-07-07T09:07:03.000Z</time>
      </trkpt>
      <trkpt lat="44.407" lon="6.38614">
        <ele>2452</ele>
        <time>2020-07-07T09:07:04.000Z</time>
      </trkpt>
      <trkpt lat="44.40699" lon="6.38614">
        <ele>2452</ele>
        <time>2020-07-07T09:07:05.000Z</time>
      </trkpt>
      <trkpt lat="44.40698" lon="6.38614">
        <ele>2451</ele>
        <time>2020-07-07T09:07:06.000Z</time>
      </trkpt>
      <trkpt lat="44.40698" lon="6.38615">
        <ele>2451</ele>
        <time>2020-07-07T09:07:07.000Z</time>
      </trkpt>
      <trkpt lat="44.40697" lon="6.38615">
        <ele>2451</ele>
        <time>2020-07-07T09:07:08.000Z</time>
      </trkpt>
      <trkpt lat="44.40696" lon="6.38616">
        <ele>2451</ele>
        <time>2020-07-07T09:07:09.000Z</time>
      </trkpt>
      <trkpt lat="44.40695" lon="6.38616">
        <ele>2450</ele>
        <time>2020-07-07T09:07:10.000Z</time>
      </trkpt>
      <trkpt lat="44.40694" lon="6.38617">
        <ele>2450</ele>
        <time>2020-07-07T09:07:11.000Z</time>
      </trkpt>
      <trkpt lat="44.40693" lon="6.38617">
        <ele>2450</ele>
        <time>2020-07-07T09:07:12.000Z</time>
      </trkpt>
      <trkpt lat="44.40692" lon="6.38618">
        <ele>2449</ele>
        <time>2020-07-07T09:07:13.000Z</time>
      </trkpt>
      <trkpt lat="44.40692" lon="6.38619">
        <ele>2449</ele>
        <time>2020-07-07T09:07:14.000Z</time>
      </trkpt>
      <trkpt lat="44.40691" lon="6.3862">
        <ele>2449</ele>
        <time>2020-07-07T09:07:15.000Z</time>
      </trkpt>
      <trkpt lat="44.4069" lon="6.38621">
        <ele>2449</ele>
        <time>2020-07-07T09:07:16.000Z</time>
      </trkpt>
      <trkpt lat="44.40689" lon="6.38621">
        <ele>2448</ele>
        <time>2020-07-07T09:07:17.000Z</time>
      </trkpt>
      <trkpt lat="44.40688" lon="6.38621">
        <ele>2448</ele>
        <time>2020-07-07T09:07:18.000Z</time>
      </trkpt>
      <trkpt lat="44.40687" lon="6.38621">
        <ele>2448</ele>
        <time>2020-07-07T09:07:19.000Z</time>
      </trkpt>
      <trkpt lat="44.40686" lon="6.38621">
        <ele>2448</ele>
        <time>2020-07-07T09:07:20.000Z</time>
      </trkpt>
      <trkpt lat="44.40685" lon="6.38621">
        <ele>2447</ele>
        <time>2020-07-07T09:07:21.000Z</time>
      </trkpt>
      <trkpt lat="44.40684" lon="6.38622">
        <ele>2447</ele>
        <time>2020-07-07T09:07:22.000Z</time>
      </trkpt>
      <trkpt lat="44.40683" lon="6.38622">
        <ele>2447</ele>
        <time>2020-07-07T09:07:23.000Z</time>
      </trkpt>
      <trkpt lat="44.40683" lon="6.38623">
        <ele>2446</ele>
        <time>2020-07-07T09:07:24.000Z</time>
      </trkpt>
      <trkpt lat="44.40682" lon="6.38623">
        <ele>2446</ele>
        <time>2020-07-07T09:07:25.000Z</time>
      </trkpt>
      <trkpt lat="44.40682" lon="6.38623">
        <ele>2446</ele>
        <time>2020-07-07T09:07:26.000Z</time>
      </trkpt>
      <trkpt lat="44.40681" lon="6.38623">
        <ele>2446</ele>
        <time>2020-07-07T09:07:27.000Z</time>
      </trkpt>
      <trkpt lat="44.4068" lon="6.38624">
        <ele>2446</ele>
        <time>2020-07-07T09:07:28.000Z</time>
      </trkpt>
      <trkpt lat="44.40679" lon="6.38624">
        <ele>2445</ele>
        <time>2020-07-07T09:07:29.000Z</time>
      </trkpt>
      <trkpt lat="44.40679" lon="6.38625">
        <ele>2445</ele>
        <time>2020-07-07T09:07:30.000Z</time>
      </trkpt>
      <trkpt lat="44.40678" lon="6.38625">
        <ele>2445</ele>
        <time>2020-07-07T09:07:31.000Z</time>
      </trkpt>
      <trkpt lat="44.40676" lon="6.38626">
        <ele>2445</ele>
        <time>2020-07-07T09:07:32.000Z</time>
      </trkpt>
      <trkpt lat="44.40676" lon="6.38626">
        <ele>2445</ele>
        <time>2020-07-07T09:07:33.000Z</time>
      </trkpt>
      <trkpt lat="44.40675" lon="6.38626">
        <ele>2445</ele>
        <time>2020-07-07T09:07:34.000Z</time>
      </trkpt>
      <trkpt lat="44.40674" lon="6.38627">
        <ele>2445</ele>
        <time>2020-07-07T09:07:35.000Z</time>
      </trkpt>
      <trkpt lat="44.40674" lon="6.38626">
        <ele>2445</ele>
        <time>2020-07-07T09:07:36.000Z</time>
      </trkpt>
      <trkpt lat="44.40672" lon="6.38627">
        <ele>2445</ele>
        <time>2020-07-07T09:07:37.000Z</time>
      </trkpt>
      <trkpt lat="44.40671" lon="6.38627">
        <ele>2445</ele>
        <time>2020-07-07T09:07:38.000Z</time>
      </trkpt>
      <trkpt lat="44.40671" lon="6.38627">
        <ele>2444</ele>
        <time>2020-07-07T09:07:39.000Z</time>
      </trkpt>
      <trkpt lat="44.4067" lon="6.38628">
        <ele>2444</ele>
        <time>2020-07-07T09:07:40.000Z</time>
      </trkpt>
      <trkpt lat="44.40669" lon="6.38629">
        <ele>2444</ele>
        <time>2020-07-07T09:07:41.000Z</time>
      </trkpt>
      <trkpt lat="44.40668" lon="6.38629">
        <ele>2444</ele>
        <time>2020-07-07T09:07:42.000Z</time>
      </trkpt>
      <trkpt lat="44.40667" lon="6.3863">
        <ele>2444</ele>
        <time>2020-07-07T09:07:43.000Z</time>
      </trkpt>
      <trkpt lat="44.40666" lon="6.3863">
        <ele>2443</ele>
        <time>2020-07-07T09:07:44.000Z</time>
      </trkpt>
      <trkpt lat="44.40665" lon="6.3863">
        <ele>2443</ele>
        <time>2020-07-07T09:07:45.000Z</time>
      </trkpt>
      <trkpt lat="44.40664" lon="6.38631">
        <ele>2443</ele>
        <time>2020-07-07T09:07:46.000Z</time>
      </trkpt>
      <trkpt lat="44.40663" lon="6.38632">
        <ele>2443</ele>
        <time>2020-07-07T09:07:47.000Z</time>
      </trkpt>
      <trkpt lat="44.40662" lon="6.38633">
        <ele>2442</ele>
        <time>2020-07-07T09:07:48.000Z</time>
      </trkpt>
      <trkpt lat="44.40661" lon="6.38633">
        <ele>2442</ele>
        <time>2020-07-07T09:07:49.000Z</time>
      </trkpt>
      <trkpt lat="44.4066" lon="6.38632">
        <ele>2442</ele>
        <time>2020-07-07T09:07:50.000Z</time>
      </trkpt>
      <trkpt lat="44.40659" lon="6.38633">
        <ele>2442</ele>
        <time>2020-07-07T09:07:51.000Z</time>
      </trkpt>
      <trkpt lat="44.40659" lon="6.38634">
        <ele>2442</ele>
        <time>2020-07-07T09:07:52.000Z</time>
      </trkpt>
      <trkpt lat="44.40658" lon="6.38635">
        <ele>2441</ele>
        <time>2020-07-07T09:07:53.000Z</time>
      </trkpt>
      <trkpt lat="44.40657" lon="6.38636">
        <ele>2441</ele>
        <time>2020-07-07T09:07:54.000Z</time>
      </trkpt>
      <trkpt lat="44.40656" lon="6.38637">
        <ele>2441</ele>
        <time>2020-07-07T09:07:55.000Z</time>
      </trkpt>
      <trkpt lat="44.40656" lon="6.38637">
        <ele>2441</ele>
        <time>2020-07-07T09:07:56.000Z</time>
      </trkpt>
      <trkpt lat="44.40655" lon="6.38638">
        <ele>2440</ele>
        <time>2020-07-07T09:07:57.000Z</time>
      </trkpt>
      <trkpt lat="44.40654" lon="6.38638">
        <ele>2440</ele>
        <time>2020-07-07T09:07:58.000Z</time>
      </trkpt>
      <trkpt lat="44.40654" lon="6.38638">
        <ele>2440</ele>
        <time>2020-07-07T09:07:59.000Z</time>
      </trkpt>
      <trkpt lat="44.40653" lon="6.38639">
        <ele>2440</ele>
        <time>2020-07-07T09:08:00.000Z</time>
      </trkpt>
      <trkpt lat="44.40652" lon="6.3864">
        <ele>2440</ele>
        <time>2020-07-07T09:08:01.000Z</time>
      </trkpt>
      <trkpt lat="44.40651" lon="6.38641">
        <ele>2440</ele>
        <time>2020-07-07T09:08:02.000Z</time>
      </trkpt>
      <trkpt lat="44.4065" lon="6.38642">
        <ele>2439</ele>
        <time>2020-07-07T09:08:03.000Z</time>
      </trkpt>
      <trkpt lat="44.40649" lon="6.38642">
        <ele>2439</ele>
        <time>2020-07-07T09:08:04.000Z</time>
      </trkpt>
      <trkpt lat="44.40648" lon="6.38643">
        <ele>2439</ele>
        <time>2020-07-07T09:08:05.000Z</time>
      </trkpt>
      <trkpt lat="44.40646" lon="6.38644">
        <ele>2439</ele>
        <time>2020-07-07T09:08:06.000Z</time>
      </trkpt>
      <trkpt lat="44.40644" lon="6.38645">
        <ele>2439</ele>
        <time>2020-07-07T09:08:07.000Z</time>
      </trkpt>
      <trkpt lat="44.40643" lon="6.38646">
        <ele>2439</ele>
        <time>2020-07-07T09:08:08.000Z</time>
      </trkpt>
      <trkpt lat="44.40642" lon="6.38646">
        <ele>2439</ele>
        <time>2020-07-07T09:08:09.000Z</time>
      </trkpt>
      <trkpt lat="44.40641" lon="6.38646">
        <ele>2438</ele>
        <time>2020-07-07T09:08:10.000Z</time>
      </trkpt>
      <trkpt lat="44.40641" lon="6.38646">
        <ele>2438</ele>
        <time>2020-07-07T09:08:11.000Z</time>
      </trkpt>
      <trkpt lat="44.4064" lon="6.38647">
        <ele>2438</ele>
        <time>2020-07-07T09:08:12.000Z</time>
      </trkpt>
      <trkpt lat="44.40639" lon="6.38648">
        <ele>2438</ele>
        <time>2020-07-07T09:08:13.000Z</time>
      </trkpt>
      <trkpt lat="44.40638" lon="6.38649">
        <ele>2438</ele>
        <time>2020-07-07T09:08:14.000Z</time>
      </trkpt>
      <trkpt lat="44.40637" lon="6.3865">
        <ele>2438</ele>
        <time>2020-07-07T09:08:15.000Z</time>
      </trkpt>
      <trkpt lat="44.40637" lon="6.3865">
        <ele>2437</ele>
        <time>2020-07-07T09:08:16.000Z</time>
      </trkpt>
      <trkpt lat="44.40636" lon="6.38651">
        <ele>2437</ele>
        <time>2020-07-07T09:08:17.000Z</time>
      </trkpt>
      <trkpt lat="44.40635" lon="6.38651">
        <ele>2438</ele>
        <time>2020-07-07T09:08:18.000Z</time>
      </trkpt>
      <trkpt lat="44.40635" lon="6.38651">
        <ele>2437</ele>
        <time>2020-07-07T09:08:19.000Z</time>
      </trkpt>
      <trkpt lat="44.40634" lon="6.38652">
        <ele>2437</ele>
        <time>2020-07-07T09:08:20.000Z</time>
      </trkpt>
      <trkpt lat="44.40634" lon="6.38653">
        <ele>2437</ele>
        <time>2020-07-07T09:08:21.000Z</time>
      </trkpt>
      <trkpt lat="44.40633" lon="6.38654">
        <ele>2436</ele>
        <time>2020-07-07T09:08:22.000Z</time>
      </trkpt>
      <trkpt lat="44.40632" lon="6.38654">
        <ele>2436</ele>
        <time>2020-07-07T09:08:23.000Z</time>
      </trkpt>
      <trkpt lat="44.40631" lon="6.38653">
        <ele>2436</ele>
        <time>2020-07-07T09:08:24.000Z</time>
      </trkpt>
      <trkpt lat="44.4063" lon="6.38653">
        <ele>2436</ele>
        <time>2020-07-07T09:08:25.000Z</time>
      </trkpt>
      <trkpt lat="44.4063" lon="6.38653">
        <ele>2436</ele>
        <time>2020-07-07T09:08:26.000Z</time>
      </trkpt>
      <trkpt lat="44.40629" lon="6.38654">
        <ele>2436</ele>
        <time>2020-07-07T09:08:27.000Z</time>
      </trkpt>
      <trkpt lat="44.40628" lon="6.38654">
        <ele>2435</ele>
        <time>2020-07-07T09:08:28.000Z</time>
      </trkpt>
      <trkpt lat="44.40628" lon="6.38655">
        <ele>2435</ele>
        <time>2020-07-07T09:08:29.000Z</time>
      </trkpt>
      <trkpt lat="44.40627" lon="6.38655">
        <ele>2435</ele>
        <time>2020-07-07T09:08:30.000Z</time>
      </trkpt>
      <trkpt lat="44.40626" lon="6.38655">
        <ele>2435</ele>
        <time>2020-07-07T09:08:31.000Z</time>
      </trkpt>
      <trkpt lat="44.40625" lon="6.38657">
        <ele>2434</ele>
        <time>2020-07-07T09:08:32.000Z</time>
      </trkpt>
      <trkpt lat="44.40624" lon="6.38657">
        <ele>2434</ele>
        <time>2020-07-07T09:08:33.000Z</time>
      </trkpt>
      <trkpt lat="44.40623" lon="6.38657">
        <ele>2434</ele>
        <time>2020-07-07T09:08:34.000Z</time>
      </trkpt>
      <trkpt lat="44.40622" lon="6.38657">
        <ele>2434</ele>
        <time>2020-07-07T09:08:35.000Z</time>
      </trkpt>
      <trkpt lat="44.40622" lon="6.38657">
        <ele>2434</ele>
        <time>2020-07-07T09:08:36.000Z</time>
      </trkpt>
      <trkpt lat="44.40621" lon="6.38657">
        <ele>2434</ele>
        <time>2020-07-07T09:08:37.000Z</time>
      </trkpt>
      <trkpt lat="44.4062" lon="6.38658">
        <ele>2434</ele>
        <time>2020-07-07T09:08:38.000Z</time>
      </trkpt>
      <trkpt lat="44.40619" lon="6.38658">
        <ele>2433</ele>
        <time>2020-07-07T09:08:39.000Z</time>
      </trkpt>
      <trkpt lat="44.40618" lon="6.38659">
        <ele>2433</ele>
        <time>2020-07-07T09:08:40.000Z</time>
      </trkpt>
      <trkpt lat="44.40617" lon="6.38659">
        <ele>2433</ele>
        <time>2020-07-07T09:08:41.000Z</time>
      </trkpt>
      <trkpt lat="44.40617" lon="6.3866">
        <ele>2433</ele>
        <time>2020-07-07T09:08:42.000Z</time>
      </trkpt>
      <trkpt lat="44.40616" lon="6.38661">
        <ele>2432</ele>
        <time>2020-07-07T09:08:43.000Z</time>
      </trkpt>
      <trkpt lat="44.40615" lon="6.38661">
        <ele>2432</ele>
        <time>2020-07-07T09:08:44.000Z</time>
      </trkpt>
      <trkpt lat="44.40614" lon="6.38662">
        <ele>2432</ele>
        <time>2020-07-07T09:08:45.000Z</time>
      </trkpt>
      <trkpt lat="44.40613" lon="6.38663">
        <ele>2431</ele>
        <time>2020-07-07T09:08:46.000Z</time>
      </trkpt>
      <trkpt lat="44.40612" lon="6.38663">
        <ele>2431</ele>
        <time>2020-07-07T09:08:47.000Z</time>
      </trkpt>
      <trkpt lat="44.40611" lon="6.38664">
        <ele>2431</ele>
        <time>2020-07-07T09:08:48.000Z</time>
      </trkpt>
      <trkpt lat="44.4061" lon="6.38664">
        <ele>2431</ele>
        <time>2020-07-07T09:08:49.000Z</time>
      </trkpt>
      <trkpt lat="44.40609" lon="6.38664">
        <ele>2431</ele>
        <time>2020-07-07T09:08:50.000Z</time>
      </trkpt>
      <trkpt lat="44.40608" lon="6.38664">
        <ele>2431</ele>
        <time>2020-07-07T09:08:51.000Z</time>
      </trkpt>
      <trkpt lat="44.40607" lon="6.38665">
        <ele>2431</ele>
        <time>2020-07-07T09:08:52.000Z</time>
      </trkpt>
      <trkpt lat="44.40606" lon="6.38665">
        <ele>2431</ele>
        <time>2020-07-07T09:08:53.000Z</time>
      </trkpt>
      <trkpt lat="44.40605" lon="6.38666">
        <ele>2430</ele>
        <time>2020-07-07T09:08:54.000Z</time>
      </trkpt>
      <trkpt lat="44.40604" lon="6.38667">
        <ele>2430</ele>
        <time>2020-07-07T09:08:55.000Z</time>
      </trkpt>
      <trkpt lat="44.40603" lon="6.38668">
        <ele>2430</ele>
        <time>2020-07-07T09:08:56.000Z</time>
      </trkpt>
      <trkpt lat="44.40602" lon="6.38669">
        <ele>2430</ele>
        <time>2020-07-07T09:08:57.000Z</time>
      </trkpt>
      <trkpt lat="44.40601" lon="6.3867">
        <ele>2430</ele>
        <time>2020-07-07T09:08:58.000Z</time>
      </trkpt>
      <trkpt lat="44.40601" lon="6.38672">
        <ele>2430</ele>
        <time>2020-07-07T09:08:59.000Z</time>
      </trkpt>
      <trkpt lat="44.406" lon="6.38673">
        <ele>2430</ele>
        <time>2020-07-07T09:09:00.000Z</time>
      </trkpt>
      <trkpt lat="44.40599" lon="6.38673">
        <ele>2430</ele>
        <time>2020-07-07T09:09:01.000Z</time>
      </trkpt>
      <trkpt lat="44.40598" lon="6.38674">
        <ele>2429</ele>
        <time>2020-07-07T09:09:02.000Z</time>
      </trkpt>
      <trkpt lat="44.40596" lon="6.38675">
        <ele>2429</ele>
        <time>2020-07-07T09:09:03.000Z</time>
      </trkpt>
      <trkpt lat="44.40595" lon="6.38677">
        <ele>2429</ele>
        <time>2020-07-07T09:09:04.000Z</time>
      </trkpt>
      <trkpt lat="44.40594" lon="6.38678">
        <ele>2429</ele>
        <time>2020-07-07T09:09:05.000Z</time>
      </trkpt>
      <trkpt lat="44.40593" lon="6.38678">
        <ele>2429</ele>
        <time>2020-07-07T09:09:06.000Z</time>
      </trkpt>
      <trkpt lat="44.40592" lon="6.38679">
        <ele>2429</ele>
        <time>2020-07-07T09:09:07.000Z</time>
      </trkpt>
      <trkpt lat="44.40591" lon="6.3868">
        <ele>2429</ele>
        <time>2020-07-07T09:09:08.000Z</time>
      </trkpt>
      <trkpt lat="44.4059" lon="6.38681">
        <ele>2429</ele>
        <time>2020-07-07T09:09:09.000Z</time>
      </trkpt>
      <trkpt lat="44.4059" lon="6.38682">
        <ele>2429</ele>
        <time>2020-07-07T09:09:10.000Z</time>
      </trkpt>
      <trkpt lat="44.40589" lon="6.38682">
        <ele>2428</ele>
        <time>2020-07-07T09:09:11.000Z</time>
      </trkpt>
      <trkpt lat="44.40588" lon="6.38683">
        <ele>2428</ele>
        <time>2020-07-07T09:09:12.000Z</time>
      </trkpt>
      <trkpt lat="44.40588" lon="6.38684">
        <ele>2428</ele>
        <time>2020-07-07T09:09:13.000Z</time>
      </trkpt>
      <trkpt lat="44.40587" lon="6.38685">
        <ele>2428</ele>
        <time>2020-07-07T09:09:14.000Z</time>
      </trkpt>
      <trkpt lat="44.40586" lon="6.38685">
        <ele>2428</ele>
        <time>2020-07-07T09:09:15.000Z</time>
      </trkpt>
      <trkpt lat="44.40585" lon="6.38686">
        <ele>2427</ele>
        <time>2020-07-07T09:09:16.000Z</time>
      </trkpt>
      <trkpt lat="44.40585" lon="6.38686">
        <ele>2427</ele>
        <time>2020-07-07T09:09:17.000Z</time>
      </trkpt>
      <trkpt lat="44.40584" lon="6.38686">
        <ele>2427</ele>
        <time>2020-07-07T09:09:18.000Z</time>
      </trkpt>
      <trkpt lat="44.40584" lon="6.38686">
        <ele>2427</ele>
        <time>2020-07-07T09:09:19.000Z</time>
      </trkpt>
      <trkpt lat="44.40583" lon="6.38686">
        <ele>2427</ele>
        <time>2020-07-07T09:09:20.000Z</time>
      </trkpt>
      <trkpt lat="44.40582" lon="6.38686">
        <ele>2426</ele>
        <time>2020-07-07T09:09:21.000Z</time>
      </trkpt>
      <trkpt lat="44.40581" lon="6.38687">
        <ele>2426</ele>
        <time>2020-07-07T09:09:22.000Z</time>
      </trkpt>
      <trkpt lat="44.40581" lon="6.38687">
        <ele>2426</ele>
        <time>2020-07-07T09:09:23.000Z</time>
      </trkpt>
      <trkpt lat="44.4058" lon="6.38688">
        <ele>2426</ele>
        <time>2020-07-07T09:09:24.000Z</time>
      </trkpt>
      <trkpt lat="44.4058" lon="6.38689">
        <ele>2426</ele>
        <time>2020-07-07T09:09:25.000Z</time>
      </trkpt>
      <trkpt lat="44.4058" lon="6.3869">
        <ele>2425</ele>
        <time>2020-07-07T09:09:26.000Z</time>
      </trkpt>
      <trkpt lat="44.40579" lon="6.38691">
        <ele>2425</ele>
        <time>2020-07-07T09:09:27.000Z</time>
      </trkpt>
      <trkpt lat="44.40578" lon="6.38691">
        <ele>2425</ele>
        <time>2020-07-07T09:09:28.000Z</time>
      </trkpt>
      <trkpt lat="44.40578" lon="6.38692">
        <ele>2425</ele>
        <time>2020-07-07T09:09:29.000Z</time>
      </trkpt>
      <trkpt lat="44.40577" lon="6.38693">
        <ele>2424</ele>
        <time>2020-07-07T09:09:30.000Z</time>
      </trkpt>
      <trkpt lat="44.40576" lon="6.38693">
        <ele>2424</ele>
        <time>2020-07-07T09:09:31.000Z</time>
      </trkpt>
      <trkpt lat="44.40575" lon="6.38694">
        <ele>2424</ele>
        <time>2020-07-07T09:09:32.000Z</time>
      </trkpt>
      <trkpt lat="44.40574" lon="6.38695">
        <ele>2424</ele>
        <time>2020-07-07T09:09:33.000Z</time>
      </trkpt>
      <trkpt lat="44.40574" lon="6.38696">
        <ele>2423</ele>
        <time>2020-07-07T09:09:34.000Z</time>
      </trkpt>
      <trkpt lat="44.40573" lon="6.38697">
        <ele>2423</ele>
        <time>2020-07-07T09:09:35.000Z</time>
      </trkpt>
      <trkpt lat="44.40573" lon="6.38698">
        <ele>2423</ele>
        <time>2020-07-07T09:09:36.000Z</time>
      </trkpt>
      <trkpt lat="44.40572" lon="6.38698">
        <ele>2423</ele>
        <time>2020-07-07T09:09:37.000Z</time>
      </trkpt>
      <trkpt lat="44.40571" lon="6.38698">
        <ele>2423</ele>
        <time>2020-07-07T09:09:38.000Z</time>
      </trkpt>
      <trkpt lat="44.4057" lon="6.38699">
        <ele>2422</ele>
        <time>2020-07-07T09:09:39.000Z</time>
      </trkpt>
      <trkpt lat="44.4057" lon="6.38699">
        <ele>2422</ele>
        <time>2020-07-07T09:09:40.000Z</time>
      </trkpt>
      <trkpt lat="44.4057" lon="6.387">
        <ele>2422</ele>
        <time>2020-07-07T09:09:41.000Z</time>
      </trkpt>
      <trkpt lat="44.40569" lon="6.38701">
        <ele>2422</ele>
        <time>2020-07-07T09:09:42.000Z</time>
      </trkpt>
      <trkpt lat="44.40568" lon="6.38702">
        <ele>2422</ele>
        <time>2020-07-07T09:09:43.000Z</time>
      </trkpt>
      <trkpt lat="44.40567" lon="6.38703">
        <ele>2422</ele>
        <time>2020-07-07T09:09:44.000Z</time>
      </trkpt>
      <trkpt lat="44.40567" lon="6.38704">
        <ele>2421</ele>
        <time>2020-07-07T09:09:45.000Z</time>
      </trkpt>
      <trkpt lat="44.40565" lon="6.38705">
        <ele>2421</ele>
        <time>2020-07-07T09:09:46.000Z</time>
      </trkpt>
      <trkpt lat="44.40565" lon="6.38705">
        <ele>2421</ele>
        <time>2020-07-07T09:09:47.000Z</time>
      </trkpt>
      <trkpt lat="44.40564" lon="6.38706">
        <ele>2421</ele>
        <time>2020-07-07T09:09:48.000Z</time>
      </trkpt>
      <trkpt lat="44.40563" lon="6.38707">
        <ele>2421</ele>
        <time>2020-07-07T09:09:49.000Z</time>
      </trkpt>
      <trkpt lat="44.40562" lon="6.38708">
        <ele>2420</ele>
        <time>2020-07-07T09:09:50.000Z</time>
      </trkpt>
      <trkpt lat="44.40561" lon="6.38709">
        <ele>2420</ele>
        <time>2020-07-07T09:09:51.000Z</time>
      </trkpt>
      <trkpt lat="44.40561" lon="6.3871">
        <ele>2420</ele>
        <time>2020-07-07T09:09:52.000Z</time>
      </trkpt>
      <trkpt lat="44.4056" lon="6.38711">
        <ele>2420</ele>
        <time>2020-07-07T09:09:53.000Z</time>
      </trkpt>
      <trkpt lat="44.40559" lon="6.38711">
        <ele>2420</ele>
        <time>2020-07-07T09:09:54.000Z</time>
      </trkpt>
      <trkpt lat="44.40559" lon="6.38712">
        <ele>2420</ele>
        <time>2020-07-07T09:09:55.000Z</time>
      </trkpt>
      <trkpt lat="44.40559" lon="6.38713">
        <ele>2420</ele>
        <time>2020-07-07T09:09:56.000Z</time>
      </trkpt>
      <trkpt lat="44.40558" lon="6.38714">
        <ele>2419</ele>
        <time>2020-07-07T09:09:57.000Z</time>
      </trkpt>
      <trkpt lat="44.40558" lon="6.38716">
        <ele>2419</ele>
        <time>2020-07-07T09:09:58.000Z</time>
      </trkpt>
      <trkpt lat="44.40558" lon="6.38717">
        <ele>2419</ele>
        <time>2020-07-07T09:09:59.000Z</time>
      </trkpt>
      <trkpt lat="44.40557" lon="6.38717">
        <ele>2419</ele>
        <time>2020-07-07T09:10:00.000Z</time>
      </trkpt>
      <trkpt lat="44.40557" lon="6.38717">
        <ele>2419</ele>
        <time>2020-07-07T09:10:01.000Z</time>
      </trkpt>
      <trkpt lat="44.40556" lon="6.38718">
        <ele>2419</ele>
        <time>2020-07-07T09:10:02.000Z</time>
      </trkpt>
      <trkpt lat="44.40556" lon="6.38719">
        <ele>2418</ele>
        <time>2020-07-07T09:10:03.000Z</time>
      </trkpt>
      <trkpt lat="44.40556" lon="6.3872">
        <ele>2418</ele>
        <time>2020-07-07T09:10:04.000Z</time>
      </trkpt>
      <trkpt lat="44.40556" lon="6.3872">
        <ele>2418</ele>
        <time>2020-07-07T09:10:05.000Z</time>
      </trkpt>
      <trkpt lat="44.40556" lon="6.38721">
        <ele>2418</ele>
        <time>2020-07-07T09:10:06.000Z</time>
      </trkpt>
      <trkpt lat="44.40556" lon="6.38722">
        <ele>2418</ele>
        <time>2020-07-07T09:10:07.000Z</time>
      </trkpt>
      <trkpt lat="44.40555" lon="6.38723">
        <ele>2418</ele>
        <time>2020-07-07T09:10:08.000Z</time>
      </trkpt>
      <trkpt lat="44.40555" lon="6.38723">
        <ele>2418</ele>
        <time>2020-07-07T09:10:09.000Z</time>
      </trkpt>
      <trkpt lat="44.40554" lon="6.38724">
        <ele>2418</ele>
        <time>2020-07-07T09:10:10.000Z</time>
      </trkpt>
      <trkpt lat="44.40554" lon="6.38725">
        <ele>2418</ele>
        <time>2020-07-07T09:10:11.000Z</time>
      </trkpt>
      <trkpt lat="44.40553" lon="6.38726">
        <ele>2418</ele>
        <time>2020-07-07T09:10:12.000Z</time>
      </trkpt>
      <trkpt lat="44.40553" lon="6.38726">
        <ele>2418</ele>
        <time>2020-07-07T09:10:13.000Z</time>
      </trkpt>
      <trkpt lat="44.40552" lon="6.38727">
        <ele>2418</ele>
        <time>2020-07-07T09:10:14.000Z</time>
      </trkpt>
      <trkpt lat="44.40551" lon="6.38728">
        <ele>2418</ele>
        <time>2020-07-07T09:10:15.000Z</time>
      </trkpt>
      <trkpt lat="44.4055" lon="6.38728">
        <ele>2417</ele>
        <time>2020-07-07T09:10:16.000Z</time>
      </trkpt>
      <trkpt lat="44.4055" lon="6.38729">
        <ele>2417</ele>
        <time>2020-07-07T09:10:17.000Z</time>
      </trkpt>
      <trkpt lat="44.40549" lon="6.38729">
        <ele>2417</ele>
        <time>2020-07-07T09:10:18.000Z</time>
      </trkpt>
      <trkpt lat="44.40548" lon="6.3873">
        <ele>2417</ele>
        <time>2020-07-07T09:10:19.000Z</time>
      </trkpt>
      <trkpt lat="44.40547" lon="6.38731">
        <ele>2417</ele>
        <time>2020-07-07T09:10:20.000Z</time>
      </trkpt>
      <trkpt lat="44.40546" lon="6.38732">
        <ele>2416</ele>
        <time>2020-07-07T09:10:21.000Z</time>
      </trkpt>
      <trkpt lat="44.40545" lon="6.38733">
        <ele>2416</ele>
        <time>2020-07-07T09:10:22.000Z</time>
      </trkpt>
      <trkpt lat="44.40544" lon="6.38734">
        <ele>2415</ele>
        <time>2020-07-07T09:10:23.000Z</time>
      </trkpt>
      <trkpt lat="44.40544" lon="6.38735">
        <ele>2415</ele>
        <time>2020-07-07T09:10:24.000Z</time>
      </trkpt>
      <trkpt lat="44.40542" lon="6.38736">
        <ele>2415</ele>
        <time>2020-07-07T09:10:25.000Z</time>
      </trkpt>
      <trkpt lat="44.40541" lon="6.38737">
        <ele>2415</ele>
        <time>2020-07-07T09:10:26.000Z</time>
      </trkpt>
      <trkpt lat="44.40541" lon="6.38737">
        <ele>2414</ele>
        <time>2020-07-07T09:10:27.000Z</time>
      </trkpt>
      <trkpt lat="44.4054" lon="6.38738">
        <ele>2414</ele>
        <time>2020-07-07T09:10:28.000Z</time>
      </trkpt>
      <trkpt lat="44.40539" lon="6.38739">
        <ele>2414</ele>
        <time>2020-07-07T09:10:29.000Z</time>
      </trkpt>
      <trkpt lat="44.40538" lon="6.38741">
        <ele>2414</ele>
        <time>2020-07-07T09:10:30.000Z</time>
      </trkpt>
      <trkpt lat="44.40538" lon="6.38742">
        <ele>2413</ele>
        <time>2020-07-07T09:10:31.000Z</time>
      </trkpt>
      <trkpt lat="44.40537" lon="6.38742">
        <ele>2413</ele>
        <time>2020-07-07T09:10:32.000Z</time>
      </trkpt>
      <trkpt lat="44.40537" lon="6.38743">
        <ele>2412</ele>
        <time>2020-07-07T09:10:33.000Z</time>
      </trkpt>
      <trkpt lat="44.40536" lon="6.38744">
        <ele>2412</ele>
        <time>2020-07-07T09:10:34.000Z</time>
      </trkpt>
      <trkpt lat="44.40536" lon="6.38745">
        <ele>2412</ele>
        <time>2020-07-07T09:10:35.000Z</time>
      </trkpt>
      <trkpt lat="44.40535" lon="6.38746">
        <ele>2412</ele>
        <time>2020-07-07T09:10:36.000Z</time>
      </trkpt>
      <trkpt lat="44.40535" lon="6.38746">
        <ele>2412</ele>
        <time>2020-07-07T09:10:37.000Z</time>
      </trkpt>
      <trkpt lat="44.40534" lon="6.38747">
        <ele>2411</ele>
        <time>2020-07-07T09:10:38.000Z</time>
      </trkpt>
      <trkpt lat="44.40534" lon="6.38748">
        <ele>2411</ele>
        <time>2020-07-07T09:10:39.000Z</time>
      </trkpt>
      <trkpt lat="44.40534" lon="6.38749">
        <ele>2411</ele>
        <time>2020-07-07T09:10:40.000Z</time>
      </trkpt>
      <trkpt lat="44.40533" lon="6.3875">
        <ele>2411</ele>
        <time>2020-07-07T09:10:41.000Z</time>
      </trkpt>
      <trkpt lat="44.40533" lon="6.3875">
        <ele>2411</ele>
        <time>2020-07-07T09:10:42.000Z</time>
      </trkpt>
      <trkpt lat="44.40532" lon="6.38751">
        <ele>2411</ele>
        <time>2020-07-07T09:10:43.000Z</time>
      </trkpt>
      <trkpt lat="44.40533" lon="6.38752">
        <ele>2410</ele>
        <time>2020-07-07T09:10:44.000Z</time>
      </trkpt>
      <trkpt lat="44.40532" lon="6.38753">
        <ele>2410</ele>
        <time>2020-07-07T09:10:45.000Z</time>
      </trkpt>
      <trkpt lat="44.40531" lon="6.38754">
        <ele>2410</ele>
        <time>2020-07-07T09:10:46.000Z</time>
      </trkpt>
      <trkpt lat="44.4053" lon="6.38754">
        <ele>2410</ele>
        <time>2020-07-07T09:10:47.000Z</time>
      </trkpt>
      <trkpt lat="44.40529" lon="6.38754">
        <ele>2409</ele>
        <time>2020-07-07T09:10:48.000Z</time>
      </trkpt>
      <trkpt lat="44.40529" lon="6.38754">
        <ele>2409</ele>
        <time>2020-07-07T09:10:49.000Z</time>
      </trkpt>
      <trkpt lat="44.40529" lon="6.38755">
        <ele>2409</ele>
        <time>2020-07-07T09:10:50.000Z</time>
      </trkpt>
      <trkpt lat="44.40529" lon="6.38755">
        <ele>2409</ele>
        <time>2020-07-07T09:10:51.000Z</time>
      </trkpt>
      <trkpt lat="44.40529" lon="6.38755">
        <ele>2409</ele>
        <time>2020-07-07T09:10:52.000Z</time>
      </trkpt>
      <trkpt lat="44.40529" lon="6.38756">
        <ele>2409</ele>
        <time>2020-07-07T09:10:53.000Z</time>
      </trkpt>
      <trkpt lat="44.40528" lon="6.38756">
        <ele>2409</ele>
        <time>2020-07-07T09:10:54.000Z</time>
      </trkpt>
      <trkpt lat="44.40528" lon="6.38756">
        <ele>2409</ele>
        <time>2020-07-07T09:10:55.000Z</time>
      </trkpt>
      <trkpt lat="44.40528" lon="6.38757">
        <ele>2409</ele>
        <time>2020-07-07T09:10:56.000Z</time>
      </trkpt>
      <trkpt lat="44.40527" lon="6.38758">
        <ele>2408</ele>
        <time>2020-07-07T09:10:57.000Z</time>
      </trkpt>
      <trkpt lat="44.40526" lon="6.38758">
        <ele>2408</ele>
        <time>2020-07-07T09:10:58.000Z</time>
      </trkpt>
      <trkpt lat="44.40526" lon="6.38758">
        <ele>2408</ele>
        <time>2020-07-07T09:10:59.000Z</time>
      </trkpt>
      <trkpt lat="44.40526" lon="6.38757">
        <ele>2408</ele>
        <time>2020-07-07T09:11:00.000Z</time>
      </trkpt>
      <trkpt lat="44.40526" lon="6.38757">
        <ele>2408</ele>
        <time>2020-07-07T09:11:01.000Z</time>
      </trkpt>
      <trkpt lat="44.40526" lon="6.38757">
        <ele>2408</ele>
        <time>2020-07-07T09:11:02.000Z</time>
      </trkpt>
      <trkpt lat="44.40526" lon="6.38757">
        <ele>2408</ele>
        <time>2020-07-07T09:11:03.000Z</time>
      </trkpt>
      <trkpt lat="44.40526" lon="6.38757">
        <ele>2408</ele>
        <time>2020-07-07T09:11:04.000Z</time>
      </trkpt>
      <trkpt lat="44.40526" lon="6.38757">
        <ele>2408</ele>
        <time>2020-07-07T09:11:05.000Z</time>
      </trkpt>
      <trkpt lat="44.40526" lon="6.38757">
        <ele>2408</ele>
        <time>2020-07-07T09:11:06.000Z</time>
      </trkpt>
      <trkpt lat="44.40526" lon="6.38757">
        <ele>2408</ele>
        <time>2020-07-07T09:11:07.000Z</time>
      </trkpt>
      <trkpt lat="44.40526" lon="6.38757">
        <ele>2408</ele>
        <time>2020-07-07T09:11:08.000Z</time>
      </trkpt>
      <trkpt lat="44.40526" lon="6.38757">
        <ele>2407</ele>
        <time>2020-07-07T09:11:09.000Z</time>
      </trkpt>
      <trkpt lat="44.40526" lon="6.38757">
        <ele>2407</ele>
        <time>2020-07-07T09:11:10.000Z</time>
      </trkpt>
      <trkpt lat="44.40526" lon="6.38758">
        <ele>2407</ele>
        <time>2020-07-07T09:11:11.000Z</time>
      </trkpt>
      <trkpt lat="44.40526" lon="6.38758">
        <ele>2407</ele>
        <time>2020-07-07T09:11:12.000Z</time>
      </trkpt>
      <trkpt lat="44.40526" lon="6.38758">
        <ele>2407</ele>
        <time>2020-07-07T09:11:13.000Z</time>
      </trkpt>
      <trkpt lat="44.40526" lon="6.38758">
        <ele>2407</ele>
        <time>2020-07-07T09:11:14.000Z</time>
      </trkpt>
      <trkpt lat="44.40526" lon="6.38758">
        <ele>2407</ele>
        <time>2020-07-07T09:11:15.000Z</time>
      </trkpt>
      <trkpt lat="44.40526" lon="6.38758">
        <ele>2407</ele>
        <time>2020-07-07T09:11:16.000Z</time>
      </trkpt>
      <trkpt lat="44.40526" lon="6.38758">
        <ele>2407</ele>
        <time>2020-07-07T09:11:17.000Z</time>
      </trkpt>
      <trkpt lat="44.40526" lon="6.38758">
        <ele>2407</ele>
        <time>2020-07-07T09:11:18.000Z</time>
      </trkpt>
      <trkpt lat="44.40526" lon="6.38758">
        <ele>2407</ele>
        <time>2020-07-07T09:11:19.000Z</time>
      </trkpt>
      <trkpt lat="44.40526" lon="6.38758">
        <ele>2407</ele>
        <time>2020-07-07T09:11:20.000Z</time>
      </trkpt>
      <trkpt lat="44.40526" lon="6.38759">
        <ele>2407</ele>
        <time>2020-07-07T09:11:21.000Z</time>
      </trkpt>
      <trkpt lat="44.40526" lon="6.38758">
        <ele>2407</ele>
        <time>2020-07-07T09:11:22.000Z</time>
      </trkpt>
      <trkpt lat="44.40527" lon="6.38758">
        <ele>2406</ele>
        <time>2020-07-07T09:11:23.000Z</time>
      </trkpt>
      <trkpt lat="44.40527" lon="6.38758">
        <ele>2406</ele>
        <time>2020-07-07T09:11:24.000Z</time>
      </trkpt>
      <trkpt lat="44.40527" lon="6.38759">
        <ele>2406</ele>
        <time>2020-07-07T09:11:25.000Z</time>
      </trkpt>
      <trkpt lat="44.40527" lon="6.38759">
        <ele>2406</ele>
        <time>2020-07-07T09:11:26.000Z</time>
      </trkpt>
      <trkpt lat="44.40527" lon="6.38759">
        <ele>2406</ele>
        <time>2020-07-07T09:11:27.000Z</time>
      </trkpt>
      <trkpt lat="44.40527" lon="6.38759">
        <ele>2406</ele>
        <time>2020-07-07T09:11:28.000Z</time>
      </trkpt>
      <trkpt lat="44.40527" lon="6.38759">
        <ele>2406</ele>
        <time>2020-07-07T09:11:29.000Z</time>
      </trkpt>
      <trkpt lat="44.40527" lon="6.38759">
        <ele>2406</ele>
        <time>2020-07-07T09:11:30.000Z</time>
      </trkpt>
      <trkpt lat="44.40527" lon="6.38759">
        <ele>2406</ele>
        <time>2020-07-07T09:11:31.000Z</time>
      </trkpt>
      <trkpt lat="44.40527" lon="6.38759">
        <ele>2406</ele>
        <time>2020-07-07T09:11:32.000Z</time>
      </trkpt>
      <trkpt lat="44.40527" lon="6.38759">
        <ele>2406</ele>
        <time>2020-07-07T09:11:33.000Z</time>
      </trkpt>
      <trkpt lat="44.40527" lon="6.38759">
        <ele>2406</ele>
        <time>2020-07-07T09:11:34.000Z</time>
      </trkpt>
      <trkpt lat="44.40527" lon="6.38759">
        <ele>2406</ele>
        <time>2020-07-07T09:11:35.000Z</time>
      </trkpt>
      <trkpt lat="44.40527" lon="6.38759">
        <ele>2406</ele>
        <time>2020-07-07T09:11:36.000Z</time>
      </trkpt>
      <trkpt lat="44.40527" lon="6.38759">
        <ele>2406</ele>
        <time>2020-07-07T09:11:37.000Z</time>
      </trkpt>
      <trkpt lat="44.40527" lon="6.38759">
        <ele>2406</ele>
        <time>2020-07-07T09:11:38.000Z</time>
      </trkpt>
      <trkpt lat="44.40528" lon="6.3876">
        <ele>2406</ele>
        <time>2020-07-07T09:11:39.000Z</time>
      </trkpt>
      <trkpt lat="44.40529" lon="6.38761">
        <ele>2405</ele>
        <time>2020-07-07T09:11:40.000Z</time>
      </trkpt>
      <trkpt lat="44.40529" lon="6.38761">
        <ele>2405</ele>
        <time>2020-07-07T09:11:41.000Z</time>
      </trkpt>
      <trkpt lat="44.4053" lon="6.38761">
        <ele>2405</ele>
        <time>2020-07-07T09:11:42.000Z</time>
      </trkpt>
      <trkpt lat="44.40531" lon="6.38761">
        <ele>2405</ele>
        <time>2020-07-07T09:11:43.000Z</time>
      </trkpt>
      <trkpt lat="44.40532" lon="6.38761">
        <ele>2405</ele>
        <time>2020-07-07T09:11:44.000Z</time>
      </trkpt>
      <trkpt lat="44.40533" lon="6.38761">
        <ele>2405</ele>
        <time>2020-07-07T09:11:45.000Z</time>
      </trkpt>
      <trkpt lat="44.40534" lon="6.38762">
        <ele>2405</ele>
        <time>2020-07-07T09:11:46.000Z</time>
      </trkpt>
      <trkpt lat="44.40535" lon="6.38762">
        <ele>2405</ele>
        <time>2020-07-07T09:11:47.000Z</time>
      </trkpt>
      <trkpt lat="44.40536" lon="6.38763">
        <ele>2405</ele>
        <time>2020-07-07T09:11:48.000Z</time>
      </trkpt>
      <trkpt lat="44.40536" lon="6.38762">
        <ele>2405</ele>
        <time>2020-07-07T09:11:49.000Z</time>
      </trkpt>
      <trkpt lat="44.40536" lon="6.38762">
        <ele>2405</ele>
        <time>2020-07-07T09:11:50.000Z</time>
      </trkpt>
      <trkpt lat="44.40536" lon="6.38762">
        <ele>2405</ele>
        <time>2020-07-07T09:11:51.000Z</time>
      </trkpt>
      <trkpt lat="44.40536" lon="6.38762">
        <ele>2405</ele>
        <time>2020-07-07T09:11:52.000Z</time>
      </trkpt>
      <trkpt lat="44.40536" lon="6.38762">
        <ele>2404</ele>
        <time>2020-07-07T09:11:53.000Z</time>
      </trkpt>
      <trkpt lat="44.40536" lon="6.38762">
        <ele>2404</ele>
        <time>2020-07-07T09:11:54.000Z</time>
      </trkpt>
      <trkpt lat="44.40536" lon="6.38762">
        <ele>2404</ele>
        <time>2020-07-07T09:11:55.000Z</time>
      </trkpt>
      <trkpt lat="44.40536" lon="6.38762">
        <ele>2404</ele>
        <time>2020-07-07T09:11:56.000Z</time>
      </trkpt>
      <trkpt lat="44.40536" lon="6.38762">
        <ele>2404</ele>
        <time>2020-07-07T09:11:57.000Z</time>
      </trkpt>
      <trkpt lat="44.40536" lon="6.38762">
        <ele>2404</ele>
        <time>2020-07-07T09:11:58.000Z</time>
      </trkpt>
      <trkpt lat="44.40536" lon="6.38762">
        <ele>2404</ele>
        <time>2020-07-07T09:11:59.000Z</time>
      </trkpt>
      <trkpt lat="44.40536" lon="6.38762">
        <ele>2404</ele>
        <time>2020-07-07T09:12:00.000Z</time>
      </trkpt>
      <trkpt lat="44.40536" lon="6.38762">
        <ele>2404</ele>
        <time>2020-07-07T09:12:01.000Z</time>
      </trkpt>
      <trkpt lat="44.40536" lon="6.38762">
        <ele>2404</ele>
        <time>2020-07-07T09:12:02.000Z</time>
      </trkpt>
      <trkpt lat="44.40537" lon="6.38762">
        <ele>2404</ele>
        <time>2020-07-07T09:12:03.000Z</time>
      </trkpt>
      <trkpt lat="44.40537" lon="6.38763">
        <ele>2404</ele>
        <time>2020-07-07T09:12:04.000Z</time>
      </trkpt>
      <trkpt lat="44.40538" lon="6.38763">
        <ele>2404</ele>
        <time>2020-07-07T09:12:05.000Z</time>
      </trkpt>
      <trkpt lat="44.40539" lon="6.38764">
        <ele>2404</ele>
        <time>2020-07-07T09:12:06.000Z</time>
      </trkpt>
      <trkpt lat="44.40539" lon="6.38765">
        <ele>2404</ele>
        <time>2020-07-07T09:12:07.000Z</time>
      </trkpt>
      <trkpt lat="44.4054" lon="6.38766">
        <ele>2403</ele>
        <time>2020-07-07T09:12:08.000Z</time>
      </trkpt>
      <trkpt lat="44.4054" lon="6.38766">
        <ele>2403</ele>
        <time>2020-07-07T09:12:09.000Z</time>
      </trkpt>
      <trkpt lat="44.40541" lon="6.38766">
        <ele>2403</ele>
        <time>2020-07-07T09:12:10.000Z</time>
      </trkpt>
      <trkpt lat="44.40541" lon="6.38767">
        <ele>2403</ele>
        <time>2020-07-07T09:12:11.000Z</time>
      </trkpt>
      <trkpt lat="44.40542" lon="6.38767">
        <ele>2403</ele>
        <time>2020-07-07T09:12:12.000Z</time>
      </trkpt>
      <trkpt lat="44.40542" lon="6.38767">
        <ele>2403</ele>
        <time>2020-07-07T09:12:13.000Z</time>
      </trkpt>
      <trkpt lat="44.40542" lon="6.38767">
        <ele>2403</ele>
        <time>2020-07-07T09:12:14.000Z</time>
      </trkpt>
      <trkpt lat="44.40542" lon="6.38767">
        <ele>2403</ele>
        <time>2020-07-07T09:12:15.000Z</time>
      </trkpt>
      <trkpt lat="44.40542" lon="6.38767">
        <ele>2403</ele>
        <time>2020-07-07T09:12:16.000Z</time>
      </trkpt>
      <trkpt lat="44.40542" lon="6.38767">
        <ele>2403</ele>
        <time>2020-07-07T09:12:17.000Z</time>
      </trkpt>
      <trkpt lat="44.40542" lon="6.38767">
        <ele>2403</ele>
        <time>2020-07-07T09:12:18.000Z</time>
      </trkpt>
      <trkpt lat="44.40542" lon="6.38767">
        <ele>2403</ele>
        <time>2020-07-07T09:12:19.000Z</time>
      </trkpt>
      <trkpt lat="44.40542" lon="6.38767">
        <ele>2403</ele>
        <time>2020-07-07T09:12:20.000Z</time>
      </trkpt>
      <trkpt lat="44.40542" lon="6.38767">
        <ele>2403</ele>
        <time>2020-07-07T09:12:21.000Z</time>
      </trkpt>
      <trkpt lat="44.40542" lon="6.38766">
        <ele>2402</ele>
        <time>2020-07-07T09:12:22.000Z</time>
      </trkpt>
      <trkpt lat="44.40542" lon="6.38766">
        <ele>2402</ele>
        <time>2020-07-07T09:12:23.000Z</time>
      </trkpt>
      <trkpt lat="44.40543" lon="6.38766">
        <ele>2402</ele>
        <time>2020-07-07T09:12:24.000Z</time>
      </trkpt>
      <trkpt lat="44.40543" lon="6.38767">
        <ele>2402</ele>
        <time>2020-07-07T09:12:25.000Z</time>
      </trkpt>
      <trkpt lat="44.40544" lon="6.38766">
        <ele>2402</ele>
        <time>2020-07-07T09:12:26.000Z</time>
      </trkpt>
      <trkpt lat="44.40545" lon="6.38766">
        <ele>2402</ele>
        <time>2020-07-07T09:12:27.000Z</time>
      </trkpt>
      <trkpt lat="44.40546" lon="6.38766">
        <ele>2402</ele>
        <time>2020-07-07T09:12:28.000Z</time>
      </trkpt>
      <trkpt lat="44.40547" lon="6.38767">
        <ele>2402</ele>
        <time>2020-07-07T09:12:29.000Z</time>
      </trkpt>
      <trkpt lat="44.40548" lon="6.38767">
        <ele>2402</ele>
        <time>2020-07-07T09:12:30.000Z</time>
      </trkpt>
      <trkpt lat="44.40548" lon="6.38768">
        <ele>2402</ele>
        <time>2020-07-07T09:12:31.000Z</time>
      </trkpt>
      <trkpt lat="44.40549" lon="6.38768">
        <ele>2402</ele>
        <time>2020-07-07T09:12:32.000Z</time>
      </trkpt>
      <trkpt lat="44.40549" lon="6.38768">
        <ele>2402</ele>
        <time>2020-07-07T09:12:33.000Z</time>
      </trkpt>
      <trkpt lat="44.4055" lon="6.38768">
        <ele>2402</ele>
        <time>2020-07-07T09:12:34.000Z</time>
      </trkpt>
      <trkpt lat="44.40551" lon="6.38768">
        <ele>2402</ele>
        <time>2020-07-07T09:12:35.000Z</time>
      </trkpt>
      <trkpt lat="44.40551" lon="6.38768">
        <ele>2402</ele>
        <time>2020-07-07T09:12:36.000Z</time>
      </trkpt>
      <trkpt lat="44.40551" lon="6.38769">
        <ele>2401</ele>
        <time>2020-07-07T09:12:37.000Z</time>
      </trkpt>
      <trkpt lat="44.40551" lon="6.38769">
        <ele>2401</ele>
        <time>2020-07-07T09:12:38.000Z</time>
      </trkpt>
      <trkpt lat="44.40552" lon="6.38769">
        <ele>2401</ele>
        <time>2020-07-07T09:12:39.000Z</time>
      </trkpt>
      <trkpt lat="44.40552" lon="6.38769">
        <ele>2401</ele>
        <time>2020-07-07T09:12:40.000Z</time>
      </trkpt>
      <trkpt lat="44.40552" lon="6.38769">
        <ele>2401</ele>
        <time>2020-07-07T09:12:41.000Z</time>
      </trkpt>
      <trkpt lat="44.40552" lon="6.38769">
        <ele>2401</ele>
        <time>2020-07-07T09:12:42.000Z</time>
      </trkpt>
      <trkpt lat="44.40552" lon="6.38769">
        <ele>2401</ele>
        <time>2020-07-07T09:12:43.000Z</time>
      </trkpt>
      <trkpt lat="44.40552" lon="6.38769">
        <ele>2401</ele>
        <time>2020-07-07T09:12:44.000Z</time>
      </trkpt>
      <trkpt lat="44.40552" lon="6.38769">
        <ele>2401</ele>
        <time>2020-07-07T09:12:45.000Z</time>
      </trkpt>
      <trkpt lat="44.40552" lon="6.38769">
        <ele>2401</ele>
        <time>2020-07-07T09:12:46.000Z</time>
      </trkpt>
      <trkpt lat="44.40553" lon="6.38769">
        <ele>2400</ele>
        <time>2020-07-07T09:12:47.000Z</time>
      </trkpt>
      <trkpt lat="44.40554" lon="6.38769">
        <ele>2400</ele>
        <time>2020-07-07T09:12:48.000Z</time>
      </trkpt>
      <trkpt lat="44.40554" lon="6.38769">
        <ele>2400</ele>
        <time>2020-07-07T09:12:49.000Z</time>
      </trkpt>
      <trkpt lat="44.40555" lon="6.38769">
        <ele>2400</ele>
        <time>2020-07-07T09:12:50.000Z</time>
      </trkpt>
      <trkpt lat="44.40555" lon="6.38769">
        <ele>2400</ele>
        <time>2020-07-07T09:12:51.000Z</time>
      </trkpt>
      <trkpt lat="44.40556" lon="6.3877">
        <ele>2400</ele>
        <time>2020-07-07T09:12:52.000Z</time>
      </trkpt>
      <trkpt lat="44.40557" lon="6.3877">
        <ele>2400</ele>
        <time>2020-07-07T09:12:53.000Z</time>
      </trkpt>
      <trkpt lat="44.40558" lon="6.3877">
        <ele>2400</ele>
        <time>2020-07-07T09:12:54.000Z</time>
      </trkpt>
      <trkpt lat="44.40558" lon="6.38771">
        <ele>2400</ele>
        <time>2020-07-07T09:12:55.000Z</time>
      </trkpt>
      <trkpt lat="44.40559" lon="6.38771">
        <ele>2399</ele>
        <time>2020-07-07T09:12:56.000Z</time>
      </trkpt>
      <trkpt lat="44.4056" lon="6.38771">
        <ele>2399</ele>
        <time>2020-07-07T09:12:57.000Z</time>
      </trkpt>
      <trkpt lat="44.4056" lon="6.3877">
        <ele>2399</ele>
        <time>2020-07-07T09:12:58.000Z</time>
      </trkpt>
      <trkpt lat="44.40562" lon="6.38771">
        <ele>2399</ele>
        <time>2020-07-07T09:12:59.000Z</time>
      </trkpt>
      <trkpt lat="44.40563" lon="6.38771">
        <ele>2399</ele>
        <time>2020-07-07T09:13:00.000Z</time>
      </trkpt>
      <trkpt lat="44.40564" lon="6.38771">
        <ele>2398</ele>
        <time>2020-07-07T09:13:01.000Z</time>
      </trkpt>
      <trkpt lat="44.40565" lon="6.38771">
        <ele>2398</ele>
        <time>2020-07-07T09:13:02.000Z</time>
      </trkpt>
      <trkpt lat="44.40565" lon="6.38772">
        <ele>2398</ele>
        <time>2020-07-07T09:13:03.000Z</time>
      </trkpt>
      <trkpt lat="44.40566" lon="6.38773">
        <ele>2398</ele>
        <time>2020-07-07T09:13:04.000Z</time>
      </trkpt>
      <trkpt lat="44.40567" lon="6.38773">
        <ele>2398</ele>
        <time>2020-07-07T09:13:05.000Z</time>
      </trkpt>
      <trkpt lat="44.40568" lon="6.38773">
        <ele>2398</ele>
        <time>2020-07-07T09:13:06.000Z</time>
      </trkpt>
      <trkpt lat="44.40568" lon="6.38773">
        <ele>2398</ele>
        <time>2020-07-07T09:13:07.000Z</time>
      </trkpt>
      <trkpt lat="44.40569" lon="6.38773">
        <ele>2397</ele>
        <time>2020-07-07T09:13:08.000Z</time>
      </trkpt>
      <trkpt lat="44.4057" lon="6.38774">
        <ele>2397</ele>
        <time>2020-07-07T09:13:09.000Z</time>
      </trkpt>
      <trkpt lat="44.40571" lon="6.38775">
        <ele>2397</ele>
        <time>2020-07-07T09:13:10.000Z</time>
      </trkpt>
      <trkpt lat="44.40572" lon="6.38775">
        <ele>2397</ele>
        <time>2020-07-07T09:13:11.000Z</time>
      </trkpt>
      <trkpt lat="44.40573" lon="6.38776">
        <ele>2397</ele>
        <time>2020-07-07T09:13:12.000Z</time>
      </trkpt>
      <trkpt lat="44.40574" lon="6.38776">
        <ele>2396</ele>
        <time>2020-07-07T09:13:13.000Z</time>
      </trkpt>
      <trkpt lat="44.40574" lon="6.38776">
        <ele>2396</ele>
        <time>2020-07-07T09:13:14.000Z</time>
      </trkpt>
      <trkpt lat="44.40575" lon="6.38777">
        <ele>2396</ele>
        <time>2020-07-07T09:13:15.000Z</time>
      </trkpt>
      <trkpt lat="44.40576" lon="6.38777">
        <ele>2396</ele>
        <time>2020-07-07T09:13:16.000Z</time>
      </trkpt>
      <trkpt lat="44.40577" lon="6.38777">
        <ele>2395</ele>
        <time>2020-07-07T09:13:17.000Z</time>
      </trkpt>
      <trkpt lat="44.40578" lon="6.38777">
        <ele>2395</ele>
        <time>2020-07-07T09:13:18.000Z</time>
      </trkpt>
      <trkpt lat="44.40579" lon="6.38778">
        <ele>2395</ele>
        <time>2020-07-07T09:13:19.000Z</time>
      </trkpt>
      <trkpt lat="44.4058" lon="6.38778">
        <ele>2395</ele>
        <time>2020-07-07T09:13:20.000Z</time>
      </trkpt>
      <trkpt lat="44.40581" lon="6.38778">
        <ele>2394</ele>
        <time>2020-07-07T09:13:21.000Z</time>
      </trkpt>
      <trkpt lat="44.40582" lon="6.38779">
        <ele>2394</ele>
        <time>2020-07-07T09:13:22.000Z</time>
      </trkpt>
      <trkpt lat="44.40583" lon="6.38779">
        <ele>2394</ele>
        <time>2020-07-07T09:13:23.000Z</time>
      </trkpt>
      <trkpt lat="44.40584" lon="6.3878">
        <ele>2394</ele>
        <time>2020-07-07T09:13:24.000Z</time>
      </trkpt>
      <trkpt lat="44.40585" lon="6.38781">
        <ele>2394</ele>
        <time>2020-07-07T09:13:25.000Z</time>
      </trkpt>
      <trkpt lat="44.40586" lon="6.38781">
        <ele>2394</ele>
        <time>2020-07-07T09:13:26.000Z</time>
      </trkpt>
      <trkpt lat="44.40587" lon="6.38782">
        <ele>2394</ele>
        <time>2020-07-07T09:13:27.000Z</time>
      </trkpt>
      <trkpt lat="44.40587" lon="6.38782">
        <ele>2393</ele>
        <time>2020-07-07T09:13:28.000Z</time>
      </trkpt>
      <trkpt lat="44.40588" lon="6.38782">
        <ele>2393</ele>
        <time>2020-07-07T09:13:29.000Z</time>
      </trkpt>
      <trkpt lat="44.40589" lon="6.38783">
        <ele>2393</ele>
        <time>2020-07-07T09:13:30.000Z</time>
      </trkpt>
      <trkpt lat="44.4059" lon="6.38783">
        <ele>2393</ele>
        <time>2020-07-07T09:13:31.000Z</time>
      </trkpt>
      <trkpt lat="44.4059" lon="6.38784">
        <ele>2393</ele>
        <time>2020-07-07T09:13:32.000Z</time>
      </trkpt>
      <trkpt lat="44.40591" lon="6.38784">
        <ele>2392</ele>
        <time>2020-07-07T09:13:33.000Z</time>
      </trkpt>
      <trkpt lat="44.40592" lon="6.38785">
        <ele>2392</ele>
        <time>2020-07-07T09:13:34.000Z</time>
      </trkpt>
      <trkpt lat="44.40592" lon="6.38785">
        <ele>2392</ele>
        <time>2020-07-07T09:13:35.000Z</time>
      </trkpt>
      <trkpt lat="44.40593" lon="6.38785">
        <ele>2392</ele>
        <time>2020-07-07T09:13:36.000Z</time>
      </trkpt>
      <trkpt lat="44.40594" lon="6.38785">
        <ele>2392</ele>
        <time>2020-07-07T09:13:37.000Z</time>
      </trkpt>
      <trkpt lat="44.40595" lon="6.38785">
        <ele>2392</ele>
        <time>2020-07-07T09:13:38.000Z</time>
      </trkpt>
      <trkpt lat="44.40596" lon="6.38785">
        <ele>2392</ele>
        <time>2020-07-07T09:13:39.000Z</time>
      </trkpt>
      <trkpt lat="44.40596" lon="6.38785">
        <ele>2391</ele>
        <time>2020-07-07T09:13:40.000Z</time>
      </trkpt>
      <trkpt lat="44.40597" lon="6.38785">
        <ele>2391</ele>
        <time>2020-07-07T09:13:41.000Z</time>
      </trkpt>
      <trkpt lat="44.40598" lon="6.38787">
        <ele>2391</ele>
        <time>2020-07-07T09:13:42.000Z</time>
      </trkpt>
      <trkpt lat="44.40599" lon="6.38787">
        <ele>2391</ele>
        <time>2020-07-07T09:13:43.000Z</time>
      </trkpt>
      <trkpt lat="44.406" lon="6.38787">
        <ele>2391</ele>
        <time>2020-07-07T09:13:44.000Z</time>
      </trkpt>
      <trkpt lat="44.406" lon="6.38787">
        <ele>2391</ele>
        <time>2020-07-07T09:13:45.000Z</time>
      </trkpt>
      <trkpt lat="44.40601" lon="6.38787">
        <ele>2390</ele>
        <time>2020-07-07T09:13:46.000Z</time>
      </trkpt>
      <trkpt lat="44.40602" lon="6.38787">
        <ele>2390</ele>
        <time>2020-07-07T09:13:47.000Z</time>
      </trkpt>
      <trkpt lat="44.40603" lon="6.38788">
        <ele>2390</ele>
        <time>2020-07-07T09:13:48.000Z</time>
      </trkpt>
      <trkpt lat="44.40604" lon="6.38788">
        <ele>2390</ele>
        <time>2020-07-07T09:13:49.000Z</time>
      </trkpt>
      <trkpt lat="44.40605" lon="6.38789">
        <ele>2390</ele>
        <time>2020-07-07T09:13:50.000Z</time>
      </trkpt>
      <trkpt lat="44.40606" lon="6.38789">
        <ele>2390</ele>
        <time>2020-07-07T09:13:51.000Z</time>
      </trkpt>
      <trkpt lat="44.40607" lon="6.38789">
        <ele>2390</ele>
        <time>2020-07-07T09:13:52.000Z</time>
      </trkpt>
      <trkpt lat="44.40608" lon="6.38789">
        <ele>2389</ele>
        <time>2020-07-07T09:13:53.000Z</time>
      </trkpt>
      <trkpt lat="44.40608" lon="6.38789">
        <ele>2389</ele>
        <time>2020-07-07T09:13:54.000Z</time>
      </trkpt>
      <trkpt lat="44.40609" lon="6.38789">
        <ele>2389</ele>
        <time>2020-07-07T09:13:55.000Z</time>
      </trkpt>
      <trkpt lat="44.4061" lon="6.38789">
        <ele>2389</ele>
        <time>2020-07-07T09:13:56.000Z</time>
      </trkpt>
      <trkpt lat="44.40611" lon="6.3879">
        <ele>2389</ele>
        <time>2020-07-07T09:13:57.000Z</time>
      </trkpt>
      <trkpt lat="44.40611" lon="6.3879">
        <ele>2388</ele>
        <time>2020-07-07T09:13:58.000Z</time>
      </trkpt>
      <trkpt lat="44.40612" lon="6.3879">
        <ele>2388</ele>
        <time>2020-07-07T09:13:59.000Z</time>
      </trkpt>
      <trkpt lat="44.40613" lon="6.38789">
        <ele>2388</ele>
        <time>2020-07-07T09:14:00.000Z</time>
      </trkpt>
      <trkpt lat="44.40614" lon="6.38789">
        <ele>2388</ele>
        <time>2020-07-07T09:14:01.000Z</time>
      </trkpt>
      <trkpt lat="44.40615" lon="6.3879">
        <ele>2388</ele>
        <time>2020-07-07T09:14:02.000Z</time>
      </trkpt>
      <trkpt lat="44.40616" lon="6.3879">
        <ele>2387</ele>
        <time>2020-07-07T09:14:03.000Z</time>
      </trkpt>
      <trkpt lat="44.40616" lon="6.38789">
        <ele>2387</ele>
        <time>2020-07-07T09:14:04.000Z</time>
      </trkpt>
      <trkpt lat="44.40617" lon="6.38788">
        <ele>2387</ele>
        <time>2020-07-07T09:14:05.000Z</time>
      </trkpt>
      <trkpt lat="44.40618" lon="6.38788">
        <ele>2387</ele>
        <time>2020-07-07T09:14:06.000Z</time>
      </trkpt>
      <trkpt lat="44.40619" lon="6.38788">
        <ele>2387</ele>
        <time>2020-07-07T09:14:07.000Z</time>
      </trkpt>
      <trkpt lat="44.40619" lon="6.38787">
        <ele>2386</ele>
        <time>2020-07-07T09:14:08.000Z</time>
      </trkpt>
      <trkpt lat="44.4062" lon="6.38787">
        <ele>2386</ele>
        <time>2020-07-07T09:14:09.000Z</time>
      </trkpt>
      <trkpt lat="44.4062" lon="6.38787">
        <ele>2386</ele>
        <time>2020-07-07T09:14:10.000Z</time>
      </trkpt>
      <trkpt lat="44.40621" lon="6.38787">
        <ele>2386</ele>
        <time>2020-07-07T09:14:11.000Z</time>
      </trkpt>
      <trkpt lat="44.40622" lon="6.38787">
        <ele>2386</ele>
        <time>2020-07-07T09:14:12.000Z</time>
      </trkpt>
      <trkpt lat="44.40622" lon="6.38787">
        <ele>2386</ele>
        <time>2020-07-07T09:14:13.000Z</time>
      </trkpt>
      <trkpt lat="44.40623" lon="6.38786">
        <ele>2386</ele>
        <time>2020-07-07T09:14:14.000Z</time>
      </trkpt>
      <trkpt lat="44.40623" lon="6.38785">
        <ele>2385</ele>
        <time>2020-07-07T09:14:15.000Z</time>
      </trkpt>
      <trkpt lat="44.40623" lon="6.38784">
        <ele>2385</ele>
        <time>2020-07-07T09:14:16.000Z</time>
      </trkpt>
      <trkpt lat="44.40624" lon="6.38784">
        <ele>2385</ele>
        <time>2020-07-07T09:14:17.000Z</time>
      </trkpt>
      <trkpt lat="44.40625" lon="6.38784">
        <ele>2385</ele>
        <time>2020-07-07T09:14:18.000Z</time>
      </trkpt>
      <trkpt lat="44.40624" lon="6.38782">
        <ele>2385</ele>
        <time>2020-07-07T09:14:19.000Z</time>
      </trkpt>
      <trkpt lat="44.40624" lon="6.38781">
        <ele>2385</ele>
        <time>2020-07-07T09:14:20.000Z</time>
      </trkpt>
      <trkpt lat="44.40625" lon="6.38781">
        <ele>2384</ele>
        <time>2020-07-07T09:14:21.000Z</time>
      </trkpt>
      <trkpt lat="44.40626" lon="6.38781">
        <ele>2384</ele>
        <time>2020-07-07T09:14:22.000Z</time>
      </trkpt>
      <trkpt lat="44.40626" lon="6.38781">
        <ele>2384</ele>
        <time>2020-07-07T09:14:23.000Z</time>
      </trkpt>
      <trkpt lat="44.40627" lon="6.3878">
        <ele>2384</ele>
        <time>2020-07-07T09:14:24.000Z</time>
      </trkpt>
      <trkpt lat="44.40628" lon="6.3878">
        <ele>2384</ele>
        <time>2020-07-07T09:14:25.000Z</time>
      </trkpt>
      <trkpt lat="44.40629" lon="6.38779">
        <ele>2383</ele>
        <time>2020-07-07T09:14:26.000Z</time>
      </trkpt>
      <trkpt lat="44.4063" lon="6.38779">
        <ele>2383</ele>
        <time>2020-07-07T09:14:27.000Z</time>
      </trkpt>
      <trkpt lat="44.40632" lon="6.38778">
        <ele>2383</ele>
        <time>2020-07-07T09:14:28.000Z</time>
      </trkpt>
      <trkpt lat="44.40633" lon="6.38778">
        <ele>2382</ele>
        <time>2020-07-07T09:14:29.000Z</time>
      </trkpt>
      <trkpt lat="44.40634" lon="6.38778">
        <ele>2382</ele>
        <time>2020-07-07T09:14:30.000Z</time>
      </trkpt>
      <trkpt lat="44.40634" lon="6.38778">
        <ele>2382</ele>
        <time>2020-07-07T09:14:31.000Z</time>
      </trkpt>
      <trkpt lat="44.40635" lon="6.38778">
        <ele>2382</ele>
        <time>2020-07-07T09:14:32.000Z</time>
      </trkpt>
      <trkpt lat="44.40636" lon="6.38778">
        <ele>2381</ele>
        <time>2020-07-07T09:14:33.000Z</time>
      </trkpt>
      <trkpt lat="44.40637" lon="6.38778">
        <ele>2381</ele>
        <time>2020-07-07T09:14:34.000Z</time>
      </trkpt>
      <trkpt lat="44.40638" lon="6.38778">
        <ele>2381</ele>
        <time>2020-07-07T09:14:35.000Z</time>
      </trkpt>
      <trkpt lat="44.40638" lon="6.38778">
        <ele>2380</ele>
        <time>2020-07-07T09:14:36.000Z</time>
      </trkpt>
      <trkpt lat="44.40639" lon="6.38779">
        <ele>2380</ele>
        <time>2020-07-07T09:14:37.000Z</time>
      </trkpt>
      <trkpt lat="44.4064" lon="6.38779">
        <ele>2380</ele>
        <time>2020-07-07T09:14:38.000Z</time>
      </trkpt>
      <trkpt lat="44.40641" lon="6.38779">
        <ele>2380</ele>
        <time>2020-07-07T09:14:39.000Z</time>
      </trkpt>
      <trkpt lat="44.40641" lon="6.38779">
        <ele>2380</ele>
        <time>2020-07-07T09:14:40.000Z</time>
      </trkpt>
      <trkpt lat="44.40642" lon="6.38779">
        <ele>2379</ele>
        <time>2020-07-07T09:14:41.000Z</time>
      </trkpt>
      <trkpt lat="44.40643" lon="6.38779">
        <ele>2379</ele>
        <time>2020-07-07T09:14:42.000Z</time>
      </trkpt>
      <trkpt lat="44.40644" lon="6.38778">
        <ele>2379</ele>
        <time>2020-07-07T09:14:43.000Z</time>
      </trkpt>
      <trkpt lat="44.40645" lon="6.38778">
        <ele>2379</ele>
        <time>2020-07-07T09:14:44.000Z</time>
      </trkpt>
      <trkpt lat="44.40646" lon="6.38779">
        <ele>2378</ele>
        <time>2020-07-07T09:14:45.000Z</time>
      </trkpt>
      <trkpt lat="44.40647" lon="6.38779">
        <ele>2378</ele>
        <time>2020-07-07T09:14:46.000Z</time>
      </trkpt>
      <trkpt lat="44.40647" lon="6.3878">
        <ele>2378</ele>
        <time>2020-07-07T09:14:47.000Z</time>
      </trkpt>
      <trkpt lat="44.40648" lon="6.3878">
        <ele>2378</ele>
        <time>2020-07-07T09:14:48.000Z</time>
      </trkpt>
      <trkpt lat="44.40649" lon="6.3878">
        <ele>2378</ele>
        <time>2020-07-07T09:14:49.000Z</time>
      </trkpt>
      <trkpt lat="44.4065" lon="6.3878">
        <ele>2378</ele>
        <time>2020-07-07T09:14:50.000Z</time>
      </trkpt>
      <trkpt lat="44.4065" lon="6.3878">
        <ele>2377</ele>
        <time>2020-07-07T09:14:51.000Z</time>
      </trkpt>
      <trkpt lat="44.40651" lon="6.3878">
        <ele>2377</ele>
        <time>2020-07-07T09:14:52.000Z</time>
      </trkpt>
      <trkpt lat="44.40652" lon="6.3878">
        <ele>2377</ele>
        <time>2020-07-07T09:14:53.000Z</time>
      </trkpt>
      <trkpt lat="44.40653" lon="6.3878">
        <ele>2377</ele>
        <time>2020-07-07T09:14:54.000Z</time>
      </trkpt>
      <trkpt lat="44.40654" lon="6.38781">
        <ele>2377</ele>
        <time>2020-07-07T09:14:55.000Z</time>
      </trkpt>
      <trkpt lat="44.40655" lon="6.38781">
        <ele>2377</ele>
        <time>2020-07-07T09:14:56.000Z</time>
      </trkpt>
      <trkpt lat="44.40656" lon="6.3878">
        <ele>2377</ele>
        <time>2020-07-07T09:14:57.000Z</time>
      </trkpt>
      <trkpt lat="44.40656" lon="6.3878">
        <ele>2377</ele>
        <time>2020-07-07T09:14:58.000Z</time>
      </trkpt>
      <trkpt lat="44.40657" lon="6.3878">
        <ele>2376</ele>
        <time>2020-07-07T09:14:59.000Z</time>
      </trkpt>
      <trkpt lat="44.40658" lon="6.3878">
        <ele>2376</ele>
        <time>2020-07-07T09:15:00.000Z</time>
      </trkpt>
      <trkpt lat="44.40659" lon="6.3878">
        <ele>2376</ele>
        <time>2020-07-07T09:15:01.000Z</time>
      </trkpt>
      <trkpt lat="44.4066" lon="6.3878">
        <ele>2376</ele>
        <time>2020-07-07T09:15:02.000Z</time>
      </trkpt>
      <trkpt lat="44.40661" lon="6.3878">
        <ele>2375</ele>
        <time>2020-07-07T09:15:03.000Z</time>
      </trkpt>
      <trkpt lat="44.40662" lon="6.3878">
        <ele>2375</ele>
        <time>2020-07-07T09:15:04.000Z</time>
      </trkpt>
      <trkpt lat="44.40663" lon="6.38781">
        <ele>2375</ele>
        <time>2020-07-07T09:15:05.000Z</time>
      </trkpt>
      <trkpt lat="44.40664" lon="6.38781">
        <ele>2375</ele>
        <time>2020-07-07T09:15:06.000Z</time>
      </trkpt>
      <trkpt lat="44.40665" lon="6.38781">
        <ele>2375</ele>
        <time>2020-07-07T09:15:07.000Z</time>
      </trkpt>
      <trkpt lat="44.40667" lon="6.3878">
        <ele>2374</ele>
        <time>2020-07-07T09:15:08.000Z</time>
      </trkpt>
      <trkpt lat="44.40668" lon="6.3878">
        <ele>2374</ele>
        <time>2020-07-07T09:15:09.000Z</time>
      </trkpt>
      <trkpt lat="44.40668" lon="6.3878">
        <ele>2374</ele>
        <time>2020-07-07T09:15:10.000Z</time>
      </trkpt>
      <trkpt lat="44.40669" lon="6.3878">
        <ele>2374</ele>
        <time>2020-07-07T09:15:11.000Z</time>
      </trkpt>
      <trkpt lat="44.4067" lon="6.38782">
        <ele>2374</ele>
        <time>2020-07-07T09:15:12.000Z</time>
      </trkpt>
      <trkpt lat="44.4067" lon="6.38783">
        <ele>2374</ele>
        <time>2020-07-07T09:15:13.000Z</time>
      </trkpt>
      <trkpt lat="44.40671" lon="6.38784">
        <ele>2373</ele>
        <time>2020-07-07T09:15:14.000Z</time>
      </trkpt>
      <trkpt lat="44.40671" lon="6.38785">
        <ele>2373</ele>
        <time>2020-07-07T09:15:15.000Z</time>
      </trkpt>
      <trkpt lat="44.4067" lon="6.38786">
        <ele>2373</ele>
        <time>2020-07-07T09:15:16.000Z</time>
      </trkpt>
      <trkpt lat="44.4067" lon="6.38787">
        <ele>2373</ele>
        <time>2020-07-07T09:15:17.000Z</time>
      </trkpt>
      <trkpt lat="44.4067" lon="6.38788">
        <ele>2373</ele>
        <time>2020-07-07T09:15:18.000Z</time>
      </trkpt>
      <trkpt lat="44.40669" lon="6.38789">
        <ele>2373</ele>
        <time>2020-07-07T09:15:19.000Z</time>
      </trkpt>
      <trkpt lat="44.40669" lon="6.3879">
        <ele>2372</ele>
        <time>2020-07-07T09:15:20.000Z</time>
      </trkpt>
      <trkpt lat="44.40668" lon="6.38791">
        <ele>2372</ele>
        <time>2020-07-07T09:15:21.000Z</time>
      </trkpt>
      <trkpt lat="44.40668" lon="6.38792">
        <ele>2372</ele>
        <time>2020-07-07T09:15:22.000Z</time>
      </trkpt>
      <trkpt lat="44.40667" lon="6.38792">
        <ele>2372</ele>
        <time>2020-07-07T09:15:23.000Z</time>
      </trkpt>
      <trkpt lat="44.40667" lon="6.38793">
        <ele>2371</ele>
        <time>2020-07-07T09:15:24.000Z</time>
      </trkpt>
      <trkpt lat="44.40666" lon="6.38794">
        <ele>2371</ele>
        <time>2020-07-07T09:15:25.000Z</time>
      </trkpt>
      <trkpt lat="44.40665" lon="6.38795">
        <ele>2371</ele>
        <time>2020-07-07T09:15:26.000Z</time>
      </trkpt>
      <trkpt lat="44.40664" lon="6.38795">
        <ele>2371</ele>
        <time>2020-07-07T09:15:27.000Z</time>
      </trkpt>
      <trkpt lat="44.40664" lon="6.38796">
        <ele>2371</ele>
        <time>2020-07-07T09:15:28.000Z</time>
      </trkpt>
      <trkpt lat="44.40663" lon="6.38797">
        <ele>2371</ele>
        <time>2020-07-07T09:15:29.000Z</time>
      </trkpt>
      <trkpt lat="44.40662" lon="6.38797">
        <ele>2370</ele>
        <time>2020-07-07T09:15:30.000Z</time>
      </trkpt>
      <trkpt lat="44.40662" lon="6.38799">
        <ele>2370</ele>
        <time>2020-07-07T09:15:31.000Z</time>
      </trkpt>
      <trkpt lat="44.40661" lon="6.388">
        <ele>2370</ele>
        <time>2020-07-07T09:15:32.000Z</time>
      </trkpt>
      <trkpt lat="44.40661" lon="6.38801">
        <ele>2370</ele>
        <time>2020-07-07T09:15:33.000Z</time>
      </trkpt>
      <trkpt lat="44.4066" lon="6.38802">
        <ele>2370</ele>
        <time>2020-07-07T09:15:34.000Z</time>
      </trkpt>
      <trkpt lat="44.40659" lon="6.38803">
        <ele>2369</ele>
        <time>2020-07-07T09:15:35.000Z</time>
      </trkpt>
      <trkpt lat="44.40659" lon="6.38805">
        <ele>2369</ele>
        <time>2020-07-07T09:15:36.000Z</time>
      </trkpt>
      <trkpt lat="44.40658" lon="6.38807">
        <ele>2369</ele>
        <time>2020-07-07T09:15:37.000Z</time>
      </trkpt>
      <trkpt lat="44.40658" lon="6.38808">
        <ele>2369</ele>
        <time>2020-07-07T09:15:38.000Z</time>
      </trkpt>
      <trkpt lat="44.40657" lon="6.38809">
        <ele>2369</ele>
        <time>2020-07-07T09:15:39.000Z</time>
      </trkpt>
      <trkpt lat="44.40657" lon="6.3881">
        <ele>2369</ele>
        <time>2020-07-07T09:15:40.000Z</time>
      </trkpt>
      <trkpt lat="44.40656" lon="6.38811">
        <ele>2368</ele>
        <time>2020-07-07T09:15:41.000Z</time>
      </trkpt>
      <trkpt lat="44.40656" lon="6.38812">
        <ele>2368</ele>
        <time>2020-07-07T09:15:42.000Z</time>
      </trkpt>
      <trkpt lat="44.40655" lon="6.38813">
        <ele>2368</ele>
        <time>2020-07-07T09:15:43.000Z</time>
      </trkpt>
      <trkpt lat="44.40654" lon="6.38815">
        <ele>2368</ele>
        <time>2020-07-07T09:15:44.000Z</time>
      </trkpt>
      <trkpt lat="44.40653" lon="6.38817">
        <ele>2368</ele>
        <time>2020-07-07T09:15:45.000Z</time>
      </trkpt>
      <trkpt lat="44.40653" lon="6.38819">
        <ele>2368</ele>
        <time>2020-07-07T09:15:46.000Z</time>
      </trkpt>
      <trkpt lat="44.40652" lon="6.3882">
        <ele>2368</ele>
        <time>2020-07-07T09:15:47.000Z</time>
      </trkpt>
      <trkpt lat="44.40652" lon="6.38821">
        <ele>2368</ele>
        <time>2020-07-07T09:15:48.000Z</time>
      </trkpt>
      <trkpt lat="44.40651" lon="6.38822">
        <ele>2368</ele>
        <time>2020-07-07T09:15:49.000Z</time>
      </trkpt>
      <trkpt lat="44.40651" lon="6.38823">
        <ele>2368</ele>
        <time>2020-07-07T09:15:50.000Z</time>
      </trkpt>
      <trkpt lat="44.40651" lon="6.38824">
        <ele>2368</ele>
        <time>2020-07-07T09:15:51.000Z</time>
      </trkpt>
      <trkpt lat="44.4065" lon="6.38825">
        <ele>2368</ele>
        <time>2020-07-07T09:15:52.000Z</time>
      </trkpt>
      <trkpt lat="44.40649" lon="6.38826">
        <ele>2368</ele>
        <time>2020-07-07T09:15:53.000Z</time>
      </trkpt>
      <trkpt lat="44.40648" lon="6.38827">
        <ele>2368</ele>
        <time>2020-07-07T09:15:54.000Z</time>
      </trkpt>
      <trkpt lat="44.40648" lon="6.38828">
        <ele>2367</ele>
        <time>2020-07-07T09:15:55.000Z</time>
      </trkpt>
      <trkpt lat="44.40647" lon="6.38829">
        <ele>2367</ele>
        <time>2020-07-07T09:15:56.000Z</time>
      </trkpt>
      <trkpt lat="44.40647" lon="6.3883">
        <ele>2367</ele>
        <time>2020-07-07T09:15:57.000Z</time>
      </trkpt>
      <trkpt lat="44.40646" lon="6.38831">
        <ele>2367</ele>
        <time>2020-07-07T09:15:58.000Z</time>
      </trkpt>
      <trkpt lat="44.40645" lon="6.38831">
        <ele>2367</ele>
        <time>2020-07-07T09:15:59.000Z</time>
      </trkpt>
      <trkpt lat="44.40644" lon="6.38832">
        <ele>2367</ele>
        <time>2020-07-07T09:16:00.000Z</time>
      </trkpt>
      <trkpt lat="44.40644" lon="6.38833">
        <ele>2366</ele>
        <time>2020-07-07T09:16:01.000Z</time>
      </trkpt>
      <trkpt lat="44.40643" lon="6.38834">
        <ele>2366</ele>
        <time>2020-07-07T09:16:02.000Z</time>
      </trkpt>
      <trkpt lat="44.40642" lon="6.38835">
        <ele>2366</ele>
        <time>2020-07-07T09:16:03.000Z</time>
      </trkpt>
      <trkpt lat="44.40642" lon="6.38836">
        <ele>2366</ele>
        <time>2020-07-07T09:16:04.000Z</time>
      </trkpt>
      <trkpt lat="44.40641" lon="6.38837">
        <ele>2366</ele>
        <time>2020-07-07T09:16:05.000Z</time>
      </trkpt>
      <trkpt lat="44.40641" lon="6.38838">
        <ele>2365</ele>
        <time>2020-07-07T09:16:06.000Z</time>
      </trkpt>
      <trkpt lat="44.4064" lon="6.38839">
        <ele>2365</ele>
        <time>2020-07-07T09:16:07.000Z</time>
      </trkpt>
      <trkpt lat="44.40639" lon="6.38839">
        <ele>2365</ele>
        <time>2020-07-07T09:16:08.000Z</time>
      </trkpt>
      <trkpt lat="44.40638" lon="6.38841">
        <ele>2365</ele>
        <time>2020-07-07T09:16:09.000Z</time>
      </trkpt>
      <trkpt lat="44.40638" lon="6.38842">
        <ele>2364</ele>
        <time>2020-07-07T09:16:10.000Z</time>
      </trkpt>
      <trkpt lat="44.40636" lon="6.38845">
        <ele>2364</ele>
        <time>2020-07-07T09:16:11.000Z</time>
      </trkpt>
      <trkpt lat="44.40635" lon="6.38847">
        <ele>2363</ele>
        <time>2020-07-07T09:16:12.000Z</time>
      </trkpt>
      <trkpt lat="44.40633" lon="6.38849">
        <ele>2363</ele>
        <time>2020-07-07T09:16:13.000Z</time>
      </trkpt>
      <trkpt lat="44.40632" lon="6.38851">
        <ele>2362</ele>
        <time>2020-07-07T09:16:14.000Z</time>
      </trkpt>
      <trkpt lat="44.40631" lon="6.38852">
        <ele>2362</ele>
        <time>2020-07-07T09:16:15.000Z</time>
      </trkpt>
      <trkpt lat="44.40631" lon="6.38853">
        <ele>2362</ele>
        <time>2020-07-07T09:16:16.000Z</time>
      </trkpt>
      <trkpt lat="44.4063" lon="6.38854">
        <ele>2362</ele>
        <time>2020-07-07T09:16:17.000Z</time>
      </trkpt>
      <trkpt lat="44.4063" lon="6.38855">
        <ele>2361</ele>
        <time>2020-07-07T09:16:18.000Z</time>
      </trkpt>
      <trkpt lat="44.40629" lon="6.38856">
        <ele>2361</ele>
        <time>2020-07-07T09:16:19.000Z</time>
      </trkpt>
      <trkpt lat="44.40628" lon="6.38857">
        <ele>2361</ele>
        <time>2020-07-07T09:16:20.000Z</time>
      </trkpt>
      <trkpt lat="44.40628" lon="6.38859">
        <ele>2361</ele>
        <time>2020-07-07T09:16:21.000Z</time>
      </trkpt>
      <trkpt lat="44.40627" lon="6.38861">
        <ele>2361</ele>
        <time>2020-07-07T09:16:22.000Z</time>
      </trkpt>
      <trkpt lat="44.40626" lon="6.38864">
        <ele>2360</ele>
        <time>2020-07-07T09:16:23.000Z</time>
      </trkpt>
      <trkpt lat="44.40625" lon="6.38865">
        <ele>2360</ele>
        <time>2020-07-07T09:16:24.000Z</time>
      </trkpt>
      <trkpt lat="44.40624" lon="6.38867">
        <ele>2360</ele>
        <time>2020-07-07T09:16:25.000Z</time>
      </trkpt>
      <trkpt lat="44.40624" lon="6.38869">
        <ele>2360</ele>
        <time>2020-07-07T09:16:26.000Z</time>
      </trkpt>
      <trkpt lat="44.40623" lon="6.38871">
        <ele>2360</ele>
        <time>2020-07-07T09:16:27.000Z</time>
      </trkpt>
      <trkpt lat="44.40623" lon="6.38872">
        <ele>2360</ele>
        <time>2020-07-07T09:16:28.000Z</time>
      </trkpt>
      <trkpt lat="44.40622" lon="6.38873">
        <ele>2360</ele>
        <time>2020-07-07T09:16:29.000Z</time>
      </trkpt>
      <trkpt lat="44.40621" lon="6.38874">
        <ele>2359</ele>
        <time>2020-07-07T09:16:30.000Z</time>
      </trkpt>
      <trkpt lat="44.40621" lon="6.38874">
        <ele>2359</ele>
        <time>2020-07-07T09:16:31.000Z</time>
      </trkpt>
      <trkpt lat="44.4062" lon="6.38875">
        <ele>2359</ele>
        <time>2020-07-07T09:16:32.000Z</time>
      </trkpt>
      <trkpt lat="44.40619" lon="6.38877">
        <ele>2359</ele>
        <time>2020-07-07T09:16:33.000Z</time>
      </trkpt>
      <trkpt lat="44.40619" lon="6.38879">
        <ele>2359</ele>
        <time>2020-07-07T09:16:34.000Z</time>
      </trkpt>
      <trkpt lat="44.40618" lon="6.38881">
        <ele>2359</ele>
        <time>2020-07-07T09:16:35.000Z</time>
      </trkpt>
      <trkpt lat="44.40618" lon="6.38882">
        <ele>2359</ele>
        <time>2020-07-07T09:16:36.000Z</time>
      </trkpt>
      <trkpt lat="44.40618" lon="6.38883">
        <ele>2359</ele>
        <time>2020-07-07T09:16:37.000Z</time>
      </trkpt>
      <trkpt lat="44.40618" lon="6.38884">
        <ele>2359</ele>
        <time>2020-07-07T09:16:38.000Z</time>
      </trkpt>
      <trkpt lat="44.40618" lon="6.38885">
        <ele>2358</ele>
        <time>2020-07-07T09:16:39.000Z</time>
      </trkpt>
      <trkpt lat="44.40617" lon="6.38885">
        <ele>2358</ele>
        <time>2020-07-07T09:16:40.000Z</time>
      </trkpt>
      <trkpt lat="44.40616" lon="6.38886">
        <ele>2358</ele>
        <time>2020-07-07T09:16:41.000Z</time>
      </trkpt>
      <trkpt lat="44.40615" lon="6.38886">
        <ele>2358</ele>
        <time>2020-07-07T09:16:42.000Z</time>
      </trkpt>
      <trkpt lat="44.40614" lon="6.38887">
        <ele>2358</ele>
        <time>2020-07-07T09:16:43.000Z</time>
      </trkpt>
      <trkpt lat="44.40613" lon="6.38887">
        <ele>2358</ele>
        <time>2020-07-07T09:16:44.000Z</time>
      </trkpt>
      <trkpt lat="44.40611" lon="6.38888">
        <ele>2358</ele>
        <time>2020-07-07T09:16:45.000Z</time>
      </trkpt>
      <trkpt lat="44.4061" lon="6.38888">
        <ele>2357</ele>
        <time>2020-07-07T09:16:46.000Z</time>
      </trkpt>
      <trkpt lat="44.40609" lon="6.38888">
        <ele>2357</ele>
        <time>2020-07-07T09:16:47.000Z</time>
      </trkpt>
      <trkpt lat="44.40608" lon="6.38888">
        <ele>2357</ele>
        <time>2020-07-07T09:16:48.000Z</time>
      </trkpt>
      <trkpt lat="44.40607" lon="6.38887">
        <ele>2357</ele>
        <time>2020-07-07T09:16:49.000Z</time>
      </trkpt>
      <trkpt lat="44.40606" lon="6.38887">
        <ele>2357</ele>
        <time>2020-07-07T09:16:50.000Z</time>
      </trkpt>
      <trkpt lat="44.40605" lon="6.38887">
        <ele>2357</ele>
        <time>2020-07-07T09:16:51.000Z</time>
      </trkpt>
      <trkpt lat="44.40604" lon="6.38887">
        <ele>2356</ele>
        <time>2020-07-07T09:16:52.000Z</time>
      </trkpt>
      <trkpt lat="44.40603" lon="6.38887">
        <ele>2356</ele>
        <time>2020-07-07T09:16:53.000Z</time>
      </trkpt>
      <trkpt lat="44.40603" lon="6.38888">
        <ele>2356</ele>
        <time>2020-07-07T09:16:54.000Z</time>
      </trkpt>
      <trkpt lat="44.40602" lon="6.38889">
        <ele>2356</ele>
        <time>2020-07-07T09:16:55.000Z</time>
      </trkpt>
      <trkpt lat="44.40601" lon="6.3889">
        <ele>2356</ele>
        <time>2020-07-07T09:16:56.000Z</time>
      </trkpt>
      <trkpt lat="44.40601" lon="6.3889">
        <ele>2356</ele>
        <time>2020-07-07T09:16:57.000Z</time>
      </trkpt>
      <trkpt lat="44.40601" lon="6.38891">
        <ele>2355</ele>
        <time>2020-07-07T09:16:58.000Z</time>
      </trkpt>
      <trkpt lat="44.406" lon="6.38892">
        <ele>2355</ele>
        <time>2020-07-07T09:16:59.000Z</time>
      </trkpt>
      <trkpt lat="44.406" lon="6.38893">
        <ele>2355</ele>
        <time>2020-07-07T09:17:00.000Z</time>
      </trkpt>
      <trkpt lat="44.40599" lon="6.38894">
        <ele>2354</ele>
        <time>2020-07-07T09:17:01.000Z</time>
      </trkpt>
      <trkpt lat="44.40599" lon="6.38895">
        <ele>2354</ele>
        <time>2020-07-07T09:17:02.000Z</time>
      </trkpt>
      <trkpt lat="44.406" lon="6.38897">
        <ele>2354</ele>
        <time>2020-07-07T09:17:03.000Z</time>
      </trkpt>
      <trkpt lat="44.406" lon="6.38898">
        <ele>2354</ele>
        <time>2020-07-07T09:17:04.000Z</time>
      </trkpt>
      <trkpt lat="44.406" lon="6.38899">
        <ele>2353</ele>
        <time>2020-07-07T09:17:05.000Z</time>
      </trkpt>
      <trkpt lat="44.406" lon="6.389">
        <ele>2353</ele>
        <time>2020-07-07T09:17:06.000Z</time>
      </trkpt>
      <trkpt lat="44.40601" lon="6.38901">
        <ele>2353</ele>
        <time>2020-07-07T09:17:07.000Z</time>
      </trkpt>
      <trkpt lat="44.40601" lon="6.38902">
        <ele>2353</ele>
        <time>2020-07-07T09:17:08.000Z</time>
      </trkpt>
      <trkpt lat="44.40602" lon="6.38902">
        <ele>2352</ele>
        <time>2020-07-07T09:17:09.000Z</time>
      </trkpt>
      <trkpt lat="44.40602" lon="6.38903">
        <ele>2352</ele>
        <time>2020-07-07T09:17:10.000Z</time>
      </trkpt>
      <trkpt lat="44.40602" lon="6.38904">
        <ele>2352</ele>
        <time>2020-07-07T09:17:11.000Z</time>
      </trkpt>
      <trkpt lat="44.40603" lon="6.38904">
        <ele>2352</ele>
        <time>2020-07-07T09:17:12.000Z</time>
      </trkpt>
      <trkpt lat="44.40603" lon="6.38905">
        <ele>2352</ele>
        <time>2020-07-07T09:17:13.000Z</time>
      </trkpt>
      <trkpt lat="44.40604" lon="6.38906">
        <ele>2352</ele>
        <time>2020-07-07T09:17:14.000Z</time>
      </trkpt>
      <trkpt lat="44.40604" lon="6.38907">
        <ele>2351</ele>
        <time>2020-07-07T09:17:15.000Z</time>
      </trkpt>
      <trkpt lat="44.40605" lon="6.38909">
        <ele>2351</ele>
        <time>2020-07-07T09:17:16.000Z</time>
      </trkpt>
      <trkpt lat="44.40606" lon="6.3891">
        <ele>2351</ele>
        <time>2020-07-07T09:17:17.000Z</time>
      </trkpt>
      <trkpt lat="44.40607" lon="6.38911">
        <ele>2351</ele>
        <time>2020-07-07T09:17:18.000Z</time>
      </trkpt>
      <trkpt lat="44.40607" lon="6.38912">
        <ele>2350</ele>
        <time>2020-07-07T09:17:19.000Z</time>
      </trkpt>
      <trkpt lat="44.40608" lon="6.38912">
        <ele>2350</ele>
        <time>2020-07-07T09:17:20.000Z</time>
      </trkpt>
      <trkpt lat="44.40609" lon="6.38913">
        <ele>2350</ele>
        <time>2020-07-07T09:17:21.000Z</time>
      </trkpt>
      <trkpt lat="44.40609" lon="6.38913">
        <ele>2350</ele>
        <time>2020-07-07T09:17:22.000Z</time>
      </trkpt>
      <trkpt lat="44.4061" lon="6.38914">
        <ele>2350</ele>
        <time>2020-07-07T09:17:23.000Z</time>
      </trkpt>
      <trkpt lat="44.4061" lon="6.38914">
        <ele>2350</ele>
        <time>2020-07-07T09:17:24.000Z</time>
      </trkpt>
      <trkpt lat="44.4061" lon="6.38914">
        <ele>2349</ele>
        <time>2020-07-07T09:17:25.000Z</time>
      </trkpt>
      <trkpt lat="44.40611" lon="6.38914">
        <ele>2349</ele>
        <time>2020-07-07T09:17:26.000Z</time>
      </trkpt>
      <trkpt lat="44.40612" lon="6.38914">
        <ele>2349</ele>
        <time>2020-07-07T09:17:27.000Z</time>
      </trkpt>
      <trkpt lat="44.40613" lon="6.38915">
        <ele>2349</ele>
        <time>2020-07-07T09:17:28.000Z</time>
      </trkpt>
      <trkpt lat="44.40614" lon="6.38916">
        <ele>2349</ele>
        <time>2020-07-07T09:17:29.000Z</time>
      </trkpt>
      <trkpt lat="44.40615" lon="6.38916">
        <ele>2349</ele>
        <time>2020-07-07T09:17:30.000Z</time>
      </trkpt>
      <trkpt lat="44.40616" lon="6.38917">
        <ele>2349</ele>
        <time>2020-07-07T09:17:31.000Z</time>
      </trkpt>
      <trkpt lat="44.40618" lon="6.38917">
        <ele>2348</ele>
        <time>2020-07-07T09:17:32.000Z</time>
      </trkpt>
      <trkpt lat="44.40619" lon="6.38916">
        <ele>2348</ele>
        <time>2020-07-07T09:17:33.000Z</time>
      </trkpt>
      <trkpt lat="44.4062" lon="6.38917">
        <ele>2348</ele>
        <time>2020-07-07T09:17:34.000Z</time>
      </trkpt>
      <trkpt lat="44.40622" lon="6.38917">
        <ele>2348</ele>
        <time>2020-07-07T09:17:35.000Z</time>
      </trkpt>
      <trkpt lat="44.40623" lon="6.38918">
        <ele>2348</ele>
        <time>2020-07-07T09:17:36.000Z</time>
      </trkpt>
      <trkpt lat="44.40625" lon="6.38918">
        <ele>2348</ele>
        <time>2020-07-07T09:17:37.000Z</time>
      </trkpt>
      <trkpt lat="44.40626" lon="6.38919">
        <ele>2347</ele>
        <time>2020-07-07T09:17:38.000Z</time>
      </trkpt>
      <trkpt lat="44.40627" lon="6.38919">
        <ele>2347</ele>
        <time>2020-07-07T09:17:39.000Z</time>
      </trkpt>
      <trkpt lat="44.40628" lon="6.38919">
        <ele>2347</ele>
        <time>2020-07-07T09:17:40.000Z</time>
      </trkpt>
      <trkpt lat="44.40628" lon="6.3892">
        <ele>2347</ele>
        <time>2020-07-07T09:17:41.000Z</time>
      </trkpt>
      <trkpt lat="44.40629" lon="6.38921">
        <ele>2347</ele>
        <time>2020-07-07T09:17:42.000Z</time>
      </trkpt>
      <trkpt lat="44.4063" lon="6.38921">
        <ele>2347</ele>
        <time>2020-07-07T09:17:43.000Z</time>
      </trkpt>
      <trkpt lat="44.40631" lon="6.38921">
        <ele>2347</ele>
        <time>2020-07-07T09:17:44.000Z</time>
      </trkpt>
      <trkpt lat="44.40632" lon="6.3892">
        <ele>2347</ele>
        <time>2020-07-07T09:17:45.000Z</time>
      </trkpt>
      <trkpt lat="44.40633" lon="6.38921">
        <ele>2347</ele>
        <time>2020-07-07T09:17:46.000Z</time>
      </trkpt>
      <trkpt lat="44.40635" lon="6.3892">
        <ele>2347</ele>
        <time>2020-07-07T09:17:47.000Z</time>
      </trkpt>
      <trkpt lat="44.40637" lon="6.3892">
        <ele>2347</ele>
        <time>2020-07-07T09:17:48.000Z</time>
      </trkpt>
      <trkpt lat="44.40638" lon="6.3892">
        <ele>2346</ele>
        <time>2020-07-07T09:17:49.000Z</time>
      </trkpt>
      <trkpt lat="44.40639" lon="6.3892">
        <ele>2346</ele>
        <time>2020-07-07T09:17:50.000Z</time>
      </trkpt>
      <trkpt lat="44.4064" lon="6.3892">
        <ele>2346</ele>
        <time>2020-07-07T09:17:51.000Z</time>
      </trkpt>
      <trkpt lat="44.40641" lon="6.3892">
        <ele>2346</ele>
        <time>2020-07-07T09:17:52.000Z</time>
      </trkpt>
      <trkpt lat="44.40642" lon="6.3892">
        <ele>2346</ele>
        <time>2020-07-07T09:17:53.000Z</time>
      </trkpt>
      <trkpt lat="44.40644" lon="6.38921">
        <ele>2346</ele>
        <time>2020-07-07T09:17:54.000Z</time>
      </trkpt>
      <trkpt lat="44.40645" lon="6.38921">
        <ele>2346</ele>
        <time>2020-07-07T09:17:55.000Z</time>
      </trkpt>
      <trkpt lat="44.40646" lon="6.38921">
        <ele>2346</ele>
        <time>2020-07-07T09:17:56.000Z</time>
      </trkpt>
      <trkpt lat="44.40647" lon="6.38921">
        <ele>2345</ele>
        <time>2020-07-07T09:17:57.000Z</time>
      </trkpt>
      <trkpt lat="44.40648" lon="6.38922">
        <ele>2345</ele>
        <time>2020-07-07T09:17:58.000Z</time>
      </trkpt>
      <trkpt lat="44.40648" lon="6.38923">
        <ele>2345</ele>
        <time>2020-07-07T09:17:59.000Z</time>
      </trkpt>
      <trkpt lat="44.40649" lon="6.38923">
        <ele>2345</ele>
        <time>2020-07-07T09:18:00.000Z</time>
      </trkpt>
      <trkpt lat="44.4065" lon="6.38923">
        <ele>2345</ele>
        <time>2020-07-07T09:18:01.000Z</time>
      </trkpt>
      <trkpt lat="44.40651" lon="6.38924">
        <ele>2344</ele>
        <time>2020-07-07T09:18:02.000Z</time>
      </trkpt>
      <trkpt lat="44.40652" lon="6.38925">
        <ele>2344</ele>
        <time>2020-07-07T09:18:03.000Z</time>
      </trkpt>
      <trkpt lat="44.40653" lon="6.38925">
        <ele>2344</ele>
        <time>2020-07-07T09:18:04.000Z</time>
      </trkpt>
      <trkpt lat="44.40654" lon="6.38926">
        <ele>2344</ele>
        <time>2020-07-07T09:18:05.000Z</time>
      </trkpt>
      <trkpt lat="44.40655" lon="6.38928">
        <ele>2344</ele>
        <time>2020-07-07T09:18:06.000Z</time>
      </trkpt>
      <trkpt lat="44.40657" lon="6.3893">
        <ele>2343</ele>
        <time>2020-07-07T09:18:07.000Z</time>
      </trkpt>
      <trkpt lat="44.40658" lon="6.38932">
        <ele>2343</ele>
        <time>2020-07-07T09:18:08.000Z</time>
      </trkpt>
      <trkpt lat="44.40658" lon="6.38934">
        <ele>2343</ele>
        <time>2020-07-07T09:18:09.000Z</time>
      </trkpt>
      <trkpt lat="44.40659" lon="6.38936">
        <ele>2342</ele>
        <time>2020-07-07T09:18:10.000Z</time>
      </trkpt>
      <trkpt lat="44.40658" lon="6.38937">
        <ele>2342</ele>
        <time>2020-07-07T09:18:11.000Z</time>
      </trkpt>
      <trkpt lat="44.40658" lon="6.38939">
        <ele>2342</ele>
        <time>2020-07-07T09:18:12.000Z</time>
      </trkpt>
      <trkpt lat="44.40658" lon="6.38941">
        <ele>2342</ele>
        <time>2020-07-07T09:18:13.000Z</time>
      </trkpt>
      <trkpt lat="44.40658" lon="6.38942">
        <ele>2342</ele>
        <time>2020-07-07T09:18:14.000Z</time>
      </trkpt>
      <trkpt lat="44.40658" lon="6.38943">
        <ele>2341</ele>
        <time>2020-07-07T09:18:15.000Z</time>
      </trkpt>
      <trkpt lat="44.40658" lon="6.38944">
        <ele>2341</ele>
        <time>2020-07-07T09:18:16.000Z</time>
      </trkpt>
      <trkpt lat="44.40657" lon="6.38946">
        <ele>2341</ele>
        <time>2020-07-07T09:18:17.000Z</time>
      </trkpt>
      <trkpt lat="44.40657" lon="6.38948">
        <ele>2341</ele>
        <time>2020-07-07T09:18:18.000Z</time>
      </trkpt>
      <trkpt lat="44.40657" lon="6.38949">
        <ele>2341</ele>
        <time>2020-07-07T09:18:19.000Z</time>
      </trkpt>
      <trkpt lat="44.40656" lon="6.3895">
        <ele>2341</ele>
        <time>2020-07-07T09:18:20.000Z</time>
      </trkpt>
      <trkpt lat="44.40656" lon="6.38951">
        <ele>2340</ele>
        <time>2020-07-07T09:18:21.000Z</time>
      </trkpt>
      <trkpt lat="44.40655" lon="6.38952">
        <ele>2340</ele>
        <time>2020-07-07T09:18:22.000Z</time>
      </trkpt>
      <trkpt lat="44.40654" lon="6.38953">
        <ele>2340</ele>
        <time>2020-07-07T09:18:23.000Z</time>
      </trkpt>
      <trkpt lat="44.40653" lon="6.38954">
        <ele>2340</ele>
        <time>2020-07-07T09:18:24.000Z</time>
      </trkpt>
      <trkpt lat="44.40652" lon="6.38956">
        <ele>2340</ele>
        <time>2020-07-07T09:18:25.000Z</time>
      </trkpt>
      <trkpt lat="44.40651" lon="6.38957">
        <ele>2339</ele>
        <time>2020-07-07T09:18:26.000Z</time>
      </trkpt>
      <trkpt lat="44.4065" lon="6.38959">
        <ele>2339</ele>
        <time>2020-07-07T09:18:27.000Z</time>
      </trkpt>
      <trkpt lat="44.40649" lon="6.3896">
        <ele>2339</ele>
        <time>2020-07-07T09:18:28.000Z</time>
      </trkpt>
      <trkpt lat="44.40648" lon="6.38961">
        <ele>2339</ele>
        <time>2020-07-07T09:18:29.000Z</time>
      </trkpt>
      <trkpt lat="44.40647" lon="6.38962">
        <ele>2339</ele>
        <time>2020-07-07T09:18:30.000Z</time>
      </trkpt>
      <trkpt lat="44.40646" lon="6.38963">
        <ele>2339</ele>
        <time>2020-07-07T09:18:31.000Z</time>
      </trkpt>
      <trkpt lat="44.40645" lon="6.38965">
        <ele>2339</ele>
        <time>2020-07-07T09:18:32.000Z</time>
      </trkpt>
      <trkpt lat="44.40645" lon="6.38965">
        <ele>2339</ele>
        <time>2020-07-07T09:18:33.000Z</time>
      </trkpt>
      <trkpt lat="44.40643" lon="6.38966">
        <ele>2339</ele>
        <time>2020-07-07T09:18:34.000Z</time>
      </trkpt>
      <trkpt lat="44.40642" lon="6.38968">
        <ele>2339</ele>
        <time>2020-07-07T09:18:35.000Z</time>
      </trkpt>
      <trkpt lat="44.40641" lon="6.3897">
        <ele>2338</ele>
        <time>2020-07-07T09:18:36.000Z</time>
      </trkpt>
      <trkpt lat="44.4064" lon="6.38972">
        <ele>2338</ele>
        <time>2020-07-07T09:18:37.000Z</time>
      </trkpt>
      <trkpt lat="44.40639" lon="6.38974">
        <ele>2338</ele>
        <time>2020-07-07T09:18:38.000Z</time>
      </trkpt>
      <trkpt lat="44.40638" lon="6.38975">
        <ele>2338</ele>
        <time>2020-07-07T09:18:39.000Z</time>
      </trkpt>
      <trkpt lat="44.40638" lon="6.38976">
        <ele>2338</ele>
        <time>2020-07-07T09:18:40.000Z</time>
      </trkpt>
      <trkpt lat="44.40637" lon="6.38977">
        <ele>2338</ele>
        <time>2020-07-07T09:18:41.000Z</time>
      </trkpt>
      <trkpt lat="44.40636" lon="6.38977">
        <ele>2337</ele>
        <time>2020-07-07T09:18:42.000Z</time>
      </trkpt>
      <trkpt lat="44.40634" lon="6.38978">
        <ele>2337</ele>
        <time>2020-07-07T09:18:43.000Z</time>
      </trkpt>
      <trkpt lat="44.40633" lon="6.38978">
        <ele>2337</ele>
        <time>2020-07-07T09:18:44.000Z</time>
      </trkpt>
      <trkpt lat="44.40632" lon="6.3898">
        <ele>2337</ele>
        <time>2020-07-07T09:18:45.000Z</time>
      </trkpt>
      <trkpt lat="44.40632" lon="6.38981">
        <ele>2336</ele>
        <time>2020-07-07T09:18:46.000Z</time>
      </trkpt>
      <trkpt lat="44.40631" lon="6.38983">
        <ele>2336</ele>
        <time>2020-07-07T09:18:47.000Z</time>
      </trkpt>
      <trkpt lat="44.4063" lon="6.38984">
        <ele>2336</ele>
        <time>2020-07-07T09:18:48.000Z</time>
      </trkpt>
      <trkpt lat="44.4063" lon="6.38986">
        <ele>2336</ele>
        <time>2020-07-07T09:18:49.000Z</time>
      </trkpt>
      <trkpt lat="44.40629" lon="6.38987">
        <ele>2336</ele>
        <time>2020-07-07T09:18:50.000Z</time>
      </trkpt>
      <trkpt lat="44.40629" lon="6.38988">
        <ele>2336</ele>
        <time>2020-07-07T09:18:51.000Z</time>
      </trkpt>
      <trkpt lat="44.40627" lon="6.38989">
        <ele>2335</ele>
        <time>2020-07-07T09:18:52.000Z</time>
      </trkpt>
      <trkpt lat="44.40627" lon="6.38989">
        <ele>2335</ele>
        <time>2020-07-07T09:18:53.000Z</time>
      </trkpt>
      <trkpt lat="44.40626" lon="6.3899">
        <ele>2335</ele>
        <time>2020-07-07T09:18:54.000Z</time>
      </trkpt>
      <trkpt lat="44.40625" lon="6.38991">
        <ele>2335</ele>
        <time>2020-07-07T09:18:55.000Z</time>
      </trkpt>
      <trkpt lat="44.40624" lon="6.38992">
        <ele>2335</ele>
        <time>2020-07-07T09:18:56.000Z</time>
      </trkpt>
      <trkpt lat="44.40623" lon="6.38992">
        <ele>2335</ele>
        <time>2020-07-07T09:18:57.000Z</time>
      </trkpt>
      <trkpt lat="44.40622" lon="6.38993">
        <ele>2334</ele>
        <time>2020-07-07T09:18:58.000Z</time>
      </trkpt>
      <trkpt lat="44.40621" lon="6.38993">
        <ele>2334</ele>
        <time>2020-07-07T09:18:59.000Z</time>
      </trkpt>
      <trkpt lat="44.40621" lon="6.38994">
        <ele>2334</ele>
        <time>2020-07-07T09:19:00.000Z</time>
      </trkpt>
      <trkpt lat="44.4062" lon="6.38995">
        <ele>2334</ele>
        <time>2020-07-07T09:19:01.000Z</time>
      </trkpt>
      <trkpt lat="44.40619" lon="6.38995">
        <ele>2333</ele>
        <time>2020-07-07T09:19:02.000Z</time>
      </trkpt>
      <trkpt lat="44.40618" lon="6.38996">
        <ele>2333</ele>
        <time>2020-07-07T09:19:03.000Z</time>
      </trkpt>
      <trkpt lat="44.40617" lon="6.38997">
        <ele>2333</ele>
        <time>2020-07-07T09:19:04.000Z</time>
      </trkpt>
      <trkpt lat="44.40617" lon="6.38998">
        <ele>2333</ele>
        <time>2020-07-07T09:19:05.000Z</time>
      </trkpt>
      <trkpt lat="44.40616" lon="6.38998">
        <ele>2333</ele>
        <time>2020-07-07T09:19:06.000Z</time>
      </trkpt>
      <trkpt lat="44.40615" lon="6.39">
        <ele>2332</ele>
        <time>2020-07-07T09:19:07.000Z</time>
      </trkpt>
      <trkpt lat="44.40614" lon="6.39001">
        <ele>2332</ele>
        <time>2020-07-07T09:19:08.000Z</time>
      </trkpt>
      <trkpt lat="44.40613" lon="6.39001">
        <ele>2331</ele>
        <time>2020-07-07T09:19:09.000Z</time>
      </trkpt>
      <trkpt lat="44.40612" lon="6.39002">
        <ele>2330</ele>
        <time>2020-07-07T09:19:10.000Z</time>
      </trkpt>
      <trkpt lat="44.40611" lon="6.39003">
        <ele>2330</ele>
        <time>2020-07-07T09:19:11.000Z</time>
      </trkpt>
      <trkpt lat="44.4061" lon="6.39003">
        <ele>2330</ele>
        <time>2020-07-07T09:19:12.000Z</time>
      </trkpt>
      <trkpt lat="44.4061" lon="6.39004">
        <ele>2329</ele>
        <time>2020-07-07T09:19:13.000Z</time>
      </trkpt>
      <trkpt lat="44.4061" lon="6.39005">
        <ele>2329</ele>
        <time>2020-07-07T09:19:14.000Z</time>
      </trkpt>
      <trkpt lat="44.40609" lon="6.39006">
        <ele>2329</ele>
        <time>2020-07-07T09:19:15.000Z</time>
      </trkpt>
      <trkpt lat="44.40609" lon="6.39007">
        <ele>2329</ele>
        <time>2020-07-07T09:19:16.000Z</time>
      </trkpt>
      <trkpt lat="44.40609" lon="6.39007">
        <ele>2328</ele>
        <time>2020-07-07T09:19:17.000Z</time>
      </trkpt>
      <trkpt lat="44.40608" lon="6.39008">
        <ele>2328</ele>
        <time>2020-07-07T09:19:18.000Z</time>
      </trkpt>
      <trkpt lat="44.40607" lon="6.39009">
        <ele>2328</ele>
        <time>2020-07-07T09:19:19.000Z</time>
      </trkpt>
      <trkpt lat="44.40606" lon="6.3901">
        <ele>2328</ele>
        <time>2020-07-07T09:19:20.000Z</time>
      </trkpt>
      <trkpt lat="44.40606" lon="6.3901">
        <ele>2328</ele>
        <time>2020-07-07T09:19:21.000Z</time>
      </trkpt>
      <trkpt lat="44.40606" lon="6.39011">
        <ele>2327</ele>
        <time>2020-07-07T09:19:22.000Z</time>
      </trkpt>
      <trkpt lat="44.40606" lon="6.39012">
        <ele>2327</ele>
        <time>2020-07-07T09:19:23.000Z</time>
      </trkpt>
      <trkpt lat="44.40606" lon="6.39014">
        <ele>2327</ele>
        <time>2020-07-07T09:19:24.000Z</time>
      </trkpt>
      <trkpt lat="44.40606" lon="6.39015">
        <ele>2327</ele>
        <time>2020-07-07T09:19:25.000Z</time>
      </trkpt>
      <trkpt lat="44.40606" lon="6.39016">
        <ele>2326</ele>
        <time>2020-07-07T09:19:26.000Z</time>
      </trkpt>
      <trkpt lat="44.40606" lon="6.39017">
        <ele>2326</ele>
        <time>2020-07-07T09:19:27.000Z</time>
      </trkpt>
      <trkpt lat="44.40605" lon="6.39017">
        <ele>2326</ele>
        <time>2020-07-07T09:19:28.000Z</time>
      </trkpt>
      <trkpt lat="44.40605" lon="6.39018">
        <ele>2326</ele>
        <time>2020-07-07T09:19:29.000Z</time>
      </trkpt>
      <trkpt lat="44.40604" lon="6.39018">
        <ele>2326</ele>
        <time>2020-07-07T09:19:30.000Z</time>
      </trkpt>
      <trkpt lat="44.40604" lon="6.39019">
        <ele>2325</ele>
        <time>2020-07-07T09:19:31.000Z</time>
      </trkpt>
      <trkpt lat="44.40603" lon="6.3902">
        <ele>2325</ele>
        <time>2020-07-07T09:19:32.000Z</time>
      </trkpt>
      <trkpt lat="44.40603" lon="6.39021">
        <ele>2325</ele>
        <time>2020-07-07T09:19:33.000Z</time>
      </trkpt>
      <trkpt lat="44.40602" lon="6.39022">
        <ele>2325</ele>
        <time>2020-07-07T09:19:34.000Z</time>
      </trkpt>
      <trkpt lat="44.40602" lon="6.39022">
        <ele>2325</ele>
        <time>2020-07-07T09:19:35.000Z</time>
      </trkpt>
      <trkpt lat="44.40601" lon="6.39022">
        <ele>2324</ele>
        <time>2020-07-07T09:19:36.000Z</time>
      </trkpt>
      <trkpt lat="44.40601" lon="6.39022">
        <ele>2324</ele>
        <time>2020-07-07T09:19:37.000Z</time>
      </trkpt>
      <trkpt lat="44.406" lon="6.39023">
        <ele>2324</ele>
        <time>2020-07-07T09:19:38.000Z</time>
      </trkpt>
      <trkpt lat="44.406" lon="6.39024">
        <ele>2324</ele>
        <time>2020-07-07T09:19:39.000Z</time>
      </trkpt>
      <trkpt lat="44.406" lon="6.39024">
        <ele>2323</ele>
        <time>2020-07-07T09:19:40.000Z</time>
      </trkpt>
      <trkpt lat="44.40599" lon="6.39025">
        <ele>2323</ele>
        <time>2020-07-07T09:19:41.000Z</time>
      </trkpt>
      <trkpt lat="44.40599" lon="6.39026">
        <ele>2323</ele>
        <time>2020-07-07T09:19:42.000Z</time>
      </trkpt>
      <trkpt lat="44.40599" lon="6.39027">
        <ele>2323</ele>
        <time>2020-07-07T09:19:43.000Z</time>
      </trkpt>
      <trkpt lat="44.40598" lon="6.39028">
        <ele>2323</ele>
        <time>2020-07-07T09:19:44.000Z</time>
      </trkpt>
      <trkpt lat="44.40598" lon="6.39029">
        <ele>2322</ele>
        <time>2020-07-07T09:19:45.000Z</time>
      </trkpt>
      <trkpt lat="44.40598" lon="6.39029">
        <ele>2322</ele>
        <time>2020-07-07T09:19:46.000Z</time>
      </trkpt>
      <trkpt lat="44.40598" lon="6.39029">
        <ele>2322</ele>
        <time>2020-07-07T09:19:47.000Z</time>
      </trkpt>
      <trkpt lat="44.40598" lon="6.3903">
        <ele>2322</ele>
        <time>2020-07-07T09:19:48.000Z</time>
      </trkpt>
      <trkpt lat="44.40597" lon="6.39032">
        <ele>2322</ele>
        <time>2020-07-07T09:19:49.000Z</time>
      </trkpt>
      <trkpt lat="44.40597" lon="6.39032">
        <ele>2322</ele>
        <time>2020-07-07T09:19:50.000Z</time>
      </trkpt>
      <trkpt lat="44.40597" lon="6.39033">
        <ele>2322</ele>
        <time>2020-07-07T09:19:51.000Z</time>
      </trkpt>
      <trkpt lat="44.40596" lon="6.39034">
        <ele>2322</ele>
        <time>2020-07-07T09:19:52.000Z</time>
      </trkpt>
      <trkpt lat="44.40596" lon="6.39035">
        <ele>2322</ele>
        <time>2020-07-07T09:19:53.000Z</time>
      </trkpt>
      <trkpt lat="44.40595" lon="6.39036">
        <ele>2322</ele>
        <time>2020-07-07T09:19:54.000Z</time>
      </trkpt>
      <trkpt lat="44.40595" lon="6.39036">
        <ele>2322</ele>
        <time>2020-07-07T09:19:55.000Z</time>
      </trkpt>
      <trkpt lat="44.40594" lon="6.39037">
        <ele>2321</ele>
        <time>2020-07-07T09:19:56.000Z</time>
      </trkpt>
      <trkpt lat="44.40594" lon="6.39038">
        <ele>2321</ele>
        <time>2020-07-07T09:19:57.000Z</time>
      </trkpt>
      <trkpt lat="44.40594" lon="6.39038">
        <ele>2321</ele>
        <time>2020-07-07T09:19:58.000Z</time>
      </trkpt>
      <trkpt lat="44.40593" lon="6.39038">
        <ele>2321</ele>
        <time>2020-07-07T09:19:59.000Z</time>
      </trkpt>
      <trkpt lat="44.40593" lon="6.39039">
        <ele>2321</ele>
        <time>2020-07-07T09:20:00.000Z</time>
      </trkpt>
      <trkpt lat="44.40592" lon="6.39041">
        <ele>2320</ele>
        <time>2020-07-07T09:20:01.000Z</time>
      </trkpt>
      <trkpt lat="44.40591" lon="6.39042">
        <ele>2320</ele>
        <time>2020-07-07T09:20:02.000Z</time>
      </trkpt>
      <trkpt lat="44.4059" lon="6.39044">
        <ele>2320</ele>
        <time>2020-07-07T09:20:03.000Z</time>
      </trkpt>
      <trkpt lat="44.4059" lon="6.39045">
        <ele>2320</ele>
        <time>2020-07-07T09:20:04.000Z</time>
      </trkpt>
      <trkpt lat="44.4059" lon="6.39046">
        <ele>2320</ele>
        <time>2020-07-07T09:20:05.000Z</time>
      </trkpt>
      <trkpt lat="44.40589" lon="6.39046">
        <ele>2319</ele>
        <time>2020-07-07T09:20:06.000Z</time>
      </trkpt>
      <trkpt lat="44.40589" lon="6.39047">
        <ele>2319</ele>
        <time>2020-07-07T09:20:07.000Z</time>
      </trkpt>
      <trkpt lat="44.40589" lon="6.39048">
        <ele>2319</ele>
        <time>2020-07-07T09:20:08.000Z</time>
      </trkpt>
      <trkpt lat="44.40589" lon="6.39047">
        <ele>2319</ele>
        <time>2020-07-07T09:20:09.000Z</time>
      </trkpt>
      <trkpt lat="44.40589" lon="6.39047">
        <ele>2318</ele>
        <time>2020-07-07T09:20:10.000Z</time>
      </trkpt>
      <trkpt lat="44.40588" lon="6.39047">
        <ele>2318</ele>
        <time>2020-07-07T09:20:11.000Z</time>
      </trkpt>
      <trkpt lat="44.40588" lon="6.39048">
        <ele>2318</ele>
        <time>2020-07-07T09:20:12.000Z</time>
      </trkpt>
      <trkpt lat="44.40588" lon="6.39048">
        <ele>2318</ele>
        <time>2020-07-07T09:20:13.000Z</time>
      </trkpt>
      <trkpt lat="44.40587" lon="6.39049">
        <ele>2318</ele>
        <time>2020-07-07T09:20:14.000Z</time>
      </trkpt>
      <trkpt lat="44.40587" lon="6.3905">
        <ele>2318</ele>
        <time>2020-07-07T09:20:15.000Z</time>
      </trkpt>
      <trkpt lat="44.40587" lon="6.3905">
        <ele>2318</ele>
        <time>2020-07-07T09:20:16.000Z</time>
      </trkpt>
      <trkpt lat="44.40587" lon="6.39051">
        <ele>2317</ele>
        <time>2020-07-07T09:20:17.000Z</time>
      </trkpt>
      <trkpt lat="44.40587" lon="6.39051">
        <ele>2317</ele>
        <time>2020-07-07T09:20:18.000Z</time>
      </trkpt>
      <trkpt lat="44.40587" lon="6.3905">
        <ele>2317</ele>
        <time>2020-07-07T09:20:19.000Z</time>
      </trkpt>
      <trkpt lat="44.40586" lon="6.39051">
        <ele>2317</ele>
        <time>2020-07-07T09:20:20.000Z</time>
      </trkpt>
      <trkpt lat="44.40585" lon="6.39051">
        <ele>2317</ele>
        <time>2020-07-07T09:20:21.000Z</time>
      </trkpt>
      <trkpt lat="44.40584" lon="6.39051">
        <ele>2317</ele>
        <time>2020-07-07T09:20:22.000Z</time>
      </trkpt>
      <trkpt lat="44.40583" lon="6.3905">
        <ele>2317</ele>
        <time>2020-07-07T09:20:23.000Z</time>
      </trkpt>
      <trkpt lat="44.40583" lon="6.39051">
        <ele>2316</ele>
        <time>2020-07-07T09:20:24.000Z</time>
      </trkpt>
      <trkpt lat="44.40582" lon="6.39052">
        <ele>2316</ele>
        <time>2020-07-07T09:20:25.000Z</time>
      </trkpt>
      <trkpt lat="44.40581" lon="6.39052">
        <ele>2316</ele>
        <time>2020-07-07T09:20:26.000Z</time>
      </trkpt>
      <trkpt lat="44.4058" lon="6.39052">
        <ele>2316</ele>
        <time>2020-07-07T09:20:27.000Z</time>
      </trkpt>
      <trkpt lat="44.40579" lon="6.39052">
        <ele>2315</ele>
        <time>2020-07-07T09:20:28.000Z</time>
      </trkpt>
      <trkpt lat="44.40578" lon="6.39052">
        <ele>2315</ele>
        <time>2020-07-07T09:20:29.000Z</time>
      </trkpt>
      <trkpt lat="44.40577" lon="6.39052">
        <ele>2315</ele>
        <time>2020-07-07T09:20:30.000Z</time>
      </trkpt>
      <trkpt lat="44.40577" lon="6.39053">
        <ele>2315</ele>
        <time>2020-07-07T09:20:31.000Z</time>
      </trkpt>
      <trkpt lat="44.40576" lon="6.39054">
        <ele>2315</ele>
        <time>2020-07-07T09:20:32.000Z</time>
      </trkpt>
      <trkpt lat="44.40576" lon="6.39055">
        <ele>2315</ele>
        <time>2020-07-07T09:20:33.000Z</time>
      </trkpt>
      <trkpt lat="44.40575" lon="6.39056">
        <ele>2315</ele>
        <time>2020-07-07T09:20:34.000Z</time>
      </trkpt>
      <trkpt lat="44.40574" lon="6.39056">
        <ele>2314</ele>
        <time>2020-07-07T09:20:35.000Z</time>
      </trkpt>
      <trkpt lat="44.40574" lon="6.39057">
        <ele>2314</ele>
        <time>2020-07-07T09:20:36.000Z</time>
      </trkpt>
      <trkpt lat="44.40573" lon="6.39058">
        <ele>2314</ele>
        <time>2020-07-07T09:20:37.000Z</time>
      </trkpt>
      <trkpt lat="44.40572" lon="6.39058">
        <ele>2314</ele>
        <time>2020-07-07T09:20:38.000Z</time>
      </trkpt>
      <trkpt lat="44.40571" lon="6.39059">
        <ele>2314</ele>
        <time>2020-07-07T09:20:39.000Z</time>
      </trkpt>
      <trkpt lat="44.4057" lon="6.3906">
        <ele>2313</ele>
        <time>2020-07-07T09:20:40.000Z</time>
      </trkpt>
      <trkpt lat="44.40569" lon="6.39061">
        <ele>2313</ele>
        <time>2020-07-07T09:20:41.000Z</time>
      </trkpt>
      <trkpt lat="44.40569" lon="6.39062">
        <ele>2313</ele>
        <time>2020-07-07T09:20:42.000Z</time>
      </trkpt>
      <trkpt lat="44.40567" lon="6.39063">
        <ele>2313</ele>
        <time>2020-07-07T09:20:43.000Z</time>
      </trkpt>
      <trkpt lat="44.40567" lon="6.39063">
        <ele>2313</ele>
        <time>2020-07-07T09:20:44.000Z</time>
      </trkpt>
      <trkpt lat="44.40566" lon="6.39064">
        <ele>2313</ele>
        <time>2020-07-07T09:20:45.000Z</time>
      </trkpt>
      <trkpt lat="44.40565" lon="6.39065">
        <ele>2312</ele>
        <time>2020-07-07T09:20:46.000Z</time>
      </trkpt>
      <trkpt lat="44.40564" lon="6.39066">
        <ele>2312</ele>
        <time>2020-07-07T09:20:47.000Z</time>
      </trkpt>
      <trkpt lat="44.40563" lon="6.39067">
        <ele>2312</ele>
        <time>2020-07-07T09:20:48.000Z</time>
      </trkpt>
      <trkpt lat="44.40563" lon="6.39068">
        <ele>2311</ele>
        <time>2020-07-07T09:20:49.000Z</time>
      </trkpt>
      <trkpt lat="44.40562" lon="6.39069">
        <ele>2311</ele>
        <time>2020-07-07T09:20:50.000Z</time>
      </trkpt>
      <trkpt lat="44.40562" lon="6.39069">
        <ele>2311</ele>
        <time>2020-07-07T09:20:51.000Z</time>
      </trkpt>
      <trkpt lat="44.40561" lon="6.3907">
        <ele>2311</ele>
        <time>2020-07-07T09:20:52.000Z</time>
      </trkpt>
      <trkpt lat="44.4056" lon="6.39072">
        <ele>2310</ele>
        <time>2020-07-07T09:20:53.000Z</time>
      </trkpt>
      <trkpt lat="44.40559" lon="6.39073">
        <ele>2310</ele>
        <time>2020-07-07T09:20:54.000Z</time>
      </trkpt>
      <trkpt lat="44.40559" lon="6.39074">
        <ele>2310</ele>
        <time>2020-07-07T09:20:55.000Z</time>
      </trkpt>
      <trkpt lat="44.40558" lon="6.39076">
        <ele>2310</ele>
        <time>2020-07-07T09:20:56.000Z</time>
      </trkpt>
      <trkpt lat="44.40558" lon="6.39077">
        <ele>2309</ele>
        <time>2020-07-07T09:20:57.000Z</time>
      </trkpt>
      <trkpt lat="44.40557" lon="6.39079">
        <ele>2309</ele>
        <time>2020-07-07T09:20:58.000Z</time>
      </trkpt>
      <trkpt lat="44.40556" lon="6.3908">
        <ele>2309</ele>
        <time>2020-07-07T09:20:59.000Z</time>
      </trkpt>
      <trkpt lat="44.40554" lon="6.39082">
        <ele>2309</ele>
        <time>2020-07-07T09:21:00.000Z</time>
      </trkpt>
      <trkpt lat="44.40553" lon="6.39085">
        <ele>2309</ele>
        <time>2020-07-07T09:21:01.000Z</time>
      </trkpt>
      <trkpt lat="44.40552" lon="6.39086">
        <ele>2309</ele>
        <time>2020-07-07T09:21:02.000Z</time>
      </trkpt>
      <trkpt lat="44.40551" lon="6.39087">
        <ele>2309</ele>
        <time>2020-07-07T09:21:03.000Z</time>
      </trkpt>
      <trkpt lat="44.40551" lon="6.39088">
        <ele>2309</ele>
        <time>2020-07-07T09:21:04.000Z</time>
      </trkpt>
      <trkpt lat="44.4055" lon="6.39088">
        <ele>2309</ele>
        <time>2020-07-07T09:21:05.000Z</time>
      </trkpt>
      <trkpt lat="44.4055" lon="6.39089">
        <ele>2309</ele>
        <time>2020-07-07T09:21:06.000Z</time>
      </trkpt>
      <trkpt lat="44.40549" lon="6.3909">
        <ele>2309</ele>
        <time>2020-07-07T09:21:07.000Z</time>
      </trkpt>
      <trkpt lat="44.40548" lon="6.39091">
        <ele>2309</ele>
        <time>2020-07-07T09:21:08.000Z</time>
      </trkpt>
      <trkpt lat="44.40548" lon="6.39092">
        <ele>2309</ele>
        <time>2020-07-07T09:21:09.000Z</time>
      </trkpt>
      <trkpt lat="44.40548" lon="6.39093">
        <ele>2309</ele>
        <time>2020-07-07T09:21:10.000Z</time>
      </trkpt>
      <trkpt lat="44.40547" lon="6.39094">
        <ele>2308</ele>
        <time>2020-07-07T09:21:11.000Z</time>
      </trkpt>
      <trkpt lat="44.40547" lon="6.39094">
        <ele>2308</ele>
        <time>2020-07-07T09:21:12.000Z</time>
      </trkpt>
      <trkpt lat="44.40546" lon="6.39094">
        <ele>2308</ele>
        <time>2020-07-07T09:21:13.000Z</time>
      </trkpt>
      <trkpt lat="44.40544" lon="6.39094">
        <ele>2308</ele>
        <time>2020-07-07T09:21:14.000Z</time>
      </trkpt>
      <trkpt lat="44.40543" lon="6.39094">
        <ele>2308</ele>
        <time>2020-07-07T09:21:15.000Z</time>
      </trkpt>
      <trkpt lat="44.40542" lon="6.39093">
        <ele>2308</ele>
        <time>2020-07-07T09:21:16.000Z</time>
      </trkpt>
      <trkpt lat="44.40542" lon="6.39094">
        <ele>2307</ele>
        <time>2020-07-07T09:21:17.000Z</time>
      </trkpt>
      <trkpt lat="44.40541" lon="6.39094">
        <ele>2307</ele>
        <time>2020-07-07T09:21:18.000Z</time>
      </trkpt>
      <trkpt lat="44.4054" lon="6.39095">
        <ele>2307</ele>
        <time>2020-07-07T09:21:19.000Z</time>
      </trkpt>
      <trkpt lat="44.4054" lon="6.39096">
        <ele>2307</ele>
        <time>2020-07-07T09:21:20.000Z</time>
      </trkpt>
      <trkpt lat="44.4054" lon="6.39096">
        <ele>2307</ele>
        <time>2020-07-07T09:21:21.000Z</time>
      </trkpt>
      <trkpt lat="44.40539" lon="6.39097">
        <ele>2306</ele>
        <time>2020-07-07T09:21:22.000Z</time>
      </trkpt>
      <trkpt lat="44.40538" lon="6.39098">
        <ele>2306</ele>
        <time>2020-07-07T09:21:23.000Z</time>
      </trkpt>
      <trkpt lat="44.40538" lon="6.39099">
        <ele>2306</ele>
        <time>2020-07-07T09:21:24.000Z</time>
      </trkpt>
      <trkpt lat="44.40537" lon="6.391">
        <ele>2306</ele>
        <time>2020-07-07T09:21:25.000Z</time>
      </trkpt>
      <trkpt lat="44.40537" lon="6.39101">
        <ele>2306</ele>
        <time>2020-07-07T09:21:26.000Z</time>
      </trkpt>
      <trkpt lat="44.40536" lon="6.39102">
        <ele>2305</ele>
        <time>2020-07-07T09:21:27.000Z</time>
      </trkpt>
      <trkpt lat="44.40536" lon="6.39103">
        <ele>2305</ele>
        <time>2020-07-07T09:21:28.000Z</time>
      </trkpt>
      <trkpt lat="44.40536" lon="6.39103">
        <ele>2305</ele>
        <time>2020-07-07T09:21:29.000Z</time>
      </trkpt>
      <trkpt lat="44.40534" lon="6.39104">
        <ele>2305</ele>
        <time>2020-07-07T09:21:30.000Z</time>
      </trkpt>
      <trkpt lat="44.40533" lon="6.39105">
        <ele>2305</ele>
        <time>2020-07-07T09:21:31.000Z</time>
      </trkpt>
      <trkpt lat="44.40533" lon="6.39106">
        <ele>2305</ele>
        <time>2020-07-07T09:21:32.000Z</time>
      </trkpt>
      <trkpt lat="44.40532" lon="6.39107">
        <ele>2305</ele>
        <time>2020-07-07T09:21:33.000Z</time>
      </trkpt>
      <trkpt lat="44.40531" lon="6.39107">
        <ele>2304</ele>
        <time>2020-07-07T09:21:34.000Z</time>
      </trkpt>
      <trkpt lat="44.40531" lon="6.39108">
        <ele>2304</ele>
        <time>2020-07-07T09:21:35.000Z</time>
      </trkpt>
      <trkpt lat="44.4053" lon="6.39109">
        <ele>2304</ele>
        <time>2020-07-07T09:21:36.000Z</time>
      </trkpt>
      <trkpt lat="44.4053" lon="6.3911">
        <ele>2304</ele>
        <time>2020-07-07T09:21:37.000Z</time>
      </trkpt>
      <trkpt lat="44.4053" lon="6.3911">
        <ele>2303</ele>
        <time>2020-07-07T09:21:38.000Z</time>
      </trkpt>
      <trkpt lat="44.40529" lon="6.39111">
        <ele>2303</ele>
        <time>2020-07-07T09:21:39.000Z</time>
      </trkpt>
      <trkpt lat="44.40528" lon="6.39112">
        <ele>2303</ele>
        <time>2020-07-07T09:21:40.000Z</time>
      </trkpt>
      <trkpt lat="44.40528" lon="6.39113">
        <ele>2302</ele>
        <time>2020-07-07T09:21:41.000Z</time>
      </trkpt>
      <trkpt lat="44.40527" lon="6.39113">
        <ele>2302</ele>
        <time>2020-07-07T09:21:42.000Z</time>
      </trkpt>
      <trkpt lat="44.40526" lon="6.39114">
        <ele>2302</ele>
        <time>2020-07-07T09:21:43.000Z</time>
      </trkpt>
      <trkpt lat="44.40526" lon="6.39115">
        <ele>2302</ele>
        <time>2020-07-07T09:21:44.000Z</time>
      </trkpt>
      <trkpt lat="44.40526" lon="6.39116">
        <ele>2302</ele>
        <time>2020-07-07T09:21:45.000Z</time>
      </trkpt>
      <trkpt lat="44.40525" lon="6.39118">
        <ele>2301</ele>
        <time>2020-07-07T09:21:46.000Z</time>
      </trkpt>
      <trkpt lat="44.40524" lon="6.39119">
        <ele>2301</ele>
        <time>2020-07-07T09:21:47.000Z</time>
      </trkpt>
      <trkpt lat="44.40524" lon="6.3912">
        <ele>2301</ele>
        <time>2020-07-07T09:21:48.000Z</time>
      </trkpt>
      <trkpt lat="44.40524" lon="6.3912">
        <ele>2300</ele>
        <time>2020-07-07T09:21:49.000Z</time>
      </trkpt>
      <trkpt lat="44.40524" lon="6.39121">
        <ele>2300</ele>
        <time>2020-07-07T09:21:50.000Z</time>
      </trkpt>
      <trkpt lat="44.40523" lon="6.39122">
        <ele>2300</ele>
        <time>2020-07-07T09:21:51.000Z</time>
      </trkpt>
      <trkpt lat="44.40523" lon="6.39123">
        <ele>2299</ele>
        <time>2020-07-07T09:21:52.000Z</time>
      </trkpt>
      <trkpt lat="44.40523" lon="6.39124">
        <ele>2299</ele>
        <time>2020-07-07T09:21:53.000Z</time>
      </trkpt>
      <trkpt lat="44.40523" lon="6.39125">
        <ele>2299</ele>
        <time>2020-07-07T09:21:54.000Z</time>
      </trkpt>
      <trkpt lat="44.40522" lon="6.39125">
        <ele>2299</ele>
        <time>2020-07-07T09:21:55.000Z</time>
      </trkpt>
      <trkpt lat="44.40522" lon="6.39126">
        <ele>2298</ele>
        <time>2020-07-07T09:21:56.000Z</time>
      </trkpt>
      <trkpt lat="44.40522" lon="6.39126">
        <ele>2298</ele>
        <time>2020-07-07T09:21:57.000Z</time>
      </trkpt>
      <trkpt lat="44.40522" lon="6.39127">
        <ele>2298</ele>
        <time>2020-07-07T09:21:58.000Z</time>
      </trkpt>
      <trkpt lat="44.40521" lon="6.39128">
        <ele>2298</ele>
        <time>2020-07-07T09:21:59.000Z</time>
      </trkpt>
      <trkpt lat="44.40521" lon="6.39128">
        <ele>2297</ele>
        <time>2020-07-07T09:22:00.000Z</time>
      </trkpt>
      <trkpt lat="44.40521" lon="6.39129">
        <ele>2297</ele>
        <time>2020-07-07T09:22:01.000Z</time>
      </trkpt>
      <trkpt lat="44.40521" lon="6.3913">
        <ele>2297</ele>
        <time>2020-07-07T09:22:02.000Z</time>
      </trkpt>
      <trkpt lat="44.40521" lon="6.39131">
        <ele>2297</ele>
        <time>2020-07-07T09:22:03.000Z</time>
      </trkpt>
      <trkpt lat="44.40521" lon="6.39132">
        <ele>2296</ele>
        <time>2020-07-07T09:22:04.000Z</time>
      </trkpt>
      <trkpt lat="44.40522" lon="6.39133">
        <ele>2296</ele>
        <time>2020-07-07T09:22:05.000Z</time>
      </trkpt>
      <trkpt lat="44.40523" lon="6.39135">
        <ele>2296</ele>
        <time>2020-07-07T09:22:06.000Z</time>
      </trkpt>
      <trkpt lat="44.40523" lon="6.39135">
        <ele>2296</ele>
        <time>2020-07-07T09:22:07.000Z</time>
      </trkpt>
      <trkpt lat="44.40524" lon="6.39136">
        <ele>2296</ele>
        <time>2020-07-07T09:22:08.000Z</time>
      </trkpt>
      <trkpt lat="44.40525" lon="6.39137">
        <ele>2296</ele>
        <time>2020-07-07T09:22:09.000Z</time>
      </trkpt>
      <trkpt lat="44.40525" lon="6.39139">
        <ele>2296</ele>
        <time>2020-07-07T09:22:10.000Z</time>
      </trkpt>
      <trkpt lat="44.40525" lon="6.39141">
        <ele>2296</ele>
        <time>2020-07-07T09:22:11.000Z</time>
      </trkpt>
      <trkpt lat="44.40526" lon="6.39143">
        <ele>2295</ele>
        <time>2020-07-07T09:22:12.000Z</time>
      </trkpt>
      <trkpt lat="44.40526" lon="6.39144">
        <ele>2295</ele>
        <time>2020-07-07T09:22:13.000Z</time>
      </trkpt>
      <trkpt lat="44.40526" lon="6.39146">
        <ele>2295</ele>
        <time>2020-07-07T09:22:14.000Z</time>
      </trkpt>
      <trkpt lat="44.40526" lon="6.39147">
        <ele>2295</ele>
        <time>2020-07-07T09:22:15.000Z</time>
      </trkpt>
      <trkpt lat="44.40526" lon="6.39148">
        <ele>2294</ele>
        <time>2020-07-07T09:22:16.000Z</time>
      </trkpt>
      <trkpt lat="44.40526" lon="6.3915">
        <ele>2294</ele>
        <time>2020-07-07T09:22:17.000Z</time>
      </trkpt>
      <trkpt lat="44.40527" lon="6.39151">
        <ele>2294</ele>
        <time>2020-07-07T09:22:18.000Z</time>
      </trkpt>
      <trkpt lat="44.40527" lon="6.39153">
        <ele>2294</ele>
        <time>2020-07-07T09:22:19.000Z</time>
      </trkpt>
      <trkpt lat="44.40528" lon="6.39154">
        <ele>2294</ele>
        <time>2020-07-07T09:22:20.000Z</time>
      </trkpt>
      <trkpt lat="44.40528" lon="6.39155">
        <ele>2293</ele>
        <time>2020-07-07T09:22:21.000Z</time>
      </trkpt>
      <trkpt lat="44.40529" lon="6.39157">
        <ele>2293</ele>
        <time>2020-07-07T09:22:22.000Z</time>
      </trkpt>
      <trkpt lat="44.40529" lon="6.39158">
        <ele>2293</ele>
        <time>2020-07-07T09:22:23.000Z</time>
      </trkpt>
      <trkpt lat="44.4053" lon="6.39159">
        <ele>2293</ele>
        <time>2020-07-07T09:22:24.000Z</time>
      </trkpt>
      <trkpt lat="44.40531" lon="6.39161">
        <ele>2293</ele>
        <time>2020-07-07T09:22:25.000Z</time>
      </trkpt>
      <trkpt lat="44.40532" lon="6.39162">
        <ele>2293</ele>
        <time>2020-07-07T09:22:26.000Z</time>
      </trkpt>
      <trkpt lat="44.40533" lon="6.39164">
        <ele>2292</ele>
        <time>2020-07-07T09:22:27.000Z</time>
      </trkpt>
      <trkpt lat="44.40534" lon="6.39165">
        <ele>2292</ele>
        <time>2020-07-07T09:22:28.000Z</time>
      </trkpt>
      <trkpt lat="44.40535" lon="6.39165">
        <ele>2292</ele>
        <time>2020-07-07T09:22:29.000Z</time>
      </trkpt>
      <trkpt lat="44.40535" lon="6.39166">
        <ele>2291</ele>
        <time>2020-07-07T09:22:30.000Z</time>
      </trkpt>
      <trkpt lat="44.40536" lon="6.39166">
        <ele>2291</ele>
        <time>2020-07-07T09:22:31.000Z</time>
      </trkpt>
      <trkpt lat="44.40537" lon="6.39167">
        <ele>2291</ele>
        <time>2020-07-07T09:22:32.000Z</time>
      </trkpt>
      <trkpt lat="44.40538" lon="6.39167">
        <ele>2291</ele>
        <time>2020-07-07T09:22:33.000Z</time>
      </trkpt>
      <trkpt lat="44.40538" lon="6.39168">
        <ele>2291</ele>
        <time>2020-07-07T09:22:34.000Z</time>
      </trkpt>
      <trkpt lat="44.40539" lon="6.39168">
        <ele>2290</ele>
        <time>2020-07-07T09:22:35.000Z</time>
      </trkpt>
      <trkpt lat="44.4054" lon="6.39169">
        <ele>2290</ele>
        <time>2020-07-07T09:22:36.000Z</time>
      </trkpt>
      <trkpt lat="44.4054" lon="6.39168">
        <ele>2290</ele>
        <time>2020-07-07T09:22:37.000Z</time>
      </trkpt>
      <trkpt lat="44.4054" lon="6.39169">
        <ele>2290</ele>
        <time>2020-07-07T09:22:38.000Z</time>
      </trkpt>
      <trkpt lat="44.40541" lon="6.39169">
        <ele>2290</ele>
        <time>2020-07-07T09:22:39.000Z</time>
      </trkpt>
      <trkpt lat="44.40541" lon="6.3917">
        <ele>2290</ele>
        <time>2020-07-07T09:22:40.000Z</time>
      </trkpt>
      <trkpt lat="44.40542" lon="6.3917">
        <ele>2290</ele>
        <time>2020-07-07T09:22:41.000Z</time>
      </trkpt>
      <trkpt lat="44.40542" lon="6.3917">
        <ele>2290</ele>
        <time>2020-07-07T09:22:42.000Z</time>
      </trkpt>
      <trkpt lat="44.40543" lon="6.39171">
        <ele>2290</ele>
        <time>2020-07-07T09:22:43.000Z</time>
      </trkpt>
      <trkpt lat="44.40543" lon="6.39171">
        <ele>2289</ele>
        <time>2020-07-07T09:22:44.000Z</time>
      </trkpt>
      <trkpt lat="44.40544" lon="6.39172">
        <ele>2289</ele>
        <time>2020-07-07T09:22:45.000Z</time>
      </trkpt>
      <trkpt lat="44.40544" lon="6.39172">
        <ele>2289</ele>
        <time>2020-07-07T09:22:46.000Z</time>
      </trkpt>
      <trkpt lat="44.40545" lon="6.39172">
        <ele>2289</ele>
        <time>2020-07-07T09:22:47.000Z</time>
      </trkpt>
      <trkpt lat="44.40545" lon="6.39172">
        <ele>2289</ele>
        <time>2020-07-07T09:22:48.000Z</time>
      </trkpt>
      <trkpt lat="44.40546" lon="6.39173">
        <ele>2289</ele>
        <time>2020-07-07T09:22:49.000Z</time>
      </trkpt>
      <trkpt lat="44.40547" lon="6.39174">
        <ele>2289</ele>
        <time>2020-07-07T09:22:50.000Z</time>
      </trkpt>
      <trkpt lat="44.40547" lon="6.39174">
        <ele>2289</ele>
        <time>2020-07-07T09:22:51.000Z</time>
      </trkpt>
      <trkpt lat="44.40547" lon="6.39174">
        <ele>2289</ele>
        <time>2020-07-07T09:22:52.000Z</time>
      </trkpt>
      <trkpt lat="44.40547" lon="6.39174">
        <ele>2289</ele>
        <time>2020-07-07T09:22:53.000Z</time>
      </trkpt>
      <trkpt lat="44.40547" lon="6.39174">
        <ele>2289</ele>
        <time>2020-07-07T09:22:54.000Z</time>
      </trkpt>
      <trkpt lat="44.40547" lon="6.39174">
        <ele>2289</ele>
        <time>2020-07-07T09:22:55.000Z</time>
      </trkpt>
      <trkpt lat="44.40547" lon="6.39174">
        <ele>2289</ele>
        <time>2020-07-07T09:22:56.000Z</time>
      </trkpt>
      <trkpt lat="44.40547" lon="6.39174">
        <ele>2289</ele>
        <time>2020-07-07T09:22:57.000Z</time>
      </trkpt>
      <trkpt lat="44.40547" lon="6.39173">
        <ele>2289</ele>
        <time>2020-07-07T09:22:58.000Z</time>
      </trkpt>
      <trkpt lat="44.40547" lon="6.39173">
        <ele>2289</ele>
        <time>2020-07-07T09:22:59.000Z</time>
      </trkpt>
      <trkpt lat="44.40547" lon="6.39173">
        <ele>2288</ele>
        <time>2020-07-07T09:23:00.000Z</time>
      </trkpt>
      <trkpt lat="44.40547" lon="6.39173">
        <ele>2288</ele>
        <time>2020-07-07T09:23:01.000Z</time>
      </trkpt>
      <trkpt lat="44.40547" lon="6.39173">
        <ele>2288</ele>
        <time>2020-07-07T09:23:02.000Z</time>
      </trkpt>
      <trkpt lat="44.40547" lon="6.39173">
        <ele>2288</ele>
        <time>2020-07-07T09:23:03.000Z</time>
      </trkpt>
      <trkpt lat="44.40547" lon="6.39173">
        <ele>2288</ele>
        <time>2020-07-07T09:23:04.000Z</time>
      </trkpt>
      <trkpt lat="44.40547" lon="6.39173">
        <ele>2288</ele>
        <time>2020-07-07T09:23:05.000Z</time>
      </trkpt>
      <trkpt lat="44.40547" lon="6.39173">
        <ele>2288</ele>
        <time>2020-07-07T09:23:06.000Z</time>
      </trkpt>
      <trkpt lat="44.40547" lon="6.39173">
        <ele>2288</ele>
        <time>2020-07-07T09:23:07.000Z</time>
      </trkpt>
      <trkpt lat="44.40547" lon="6.39173">
        <ele>2288</ele>
        <time>2020-07-07T09:23:08.000Z</time>
      </trkpt>
      <trkpt lat="44.40547" lon="6.39173">
        <ele>2288</ele>
        <time>2020-07-07T09:23:09.000Z</time>
      </trkpt>
      <trkpt lat="44.40547" lon="6.39173">
        <ele>2288</ele>
        <time>2020-07-07T09:23:10.000Z</time>
      </trkpt>
      <trkpt lat="44.40547" lon="6.39173">
        <ele>2288</ele>
        <time>2020-07-07T09:23:11.000Z</time>
      </trkpt>
      <trkpt lat="44.40547" lon="6.39173">
        <ele>2288</ele>
        <time>2020-07-07T09:23:12.000Z</time>
      </trkpt>
      <trkpt lat="44.40547" lon="6.39174">
        <ele>2288</ele>
        <time>2020-07-07T09:23:13.000Z</time>
      </trkpt>
      <trkpt lat="44.40547" lon="6.39174">
        <ele>2288</ele>
        <time>2020-07-07T09:23:14.000Z</time>
      </trkpt>
      <trkpt lat="44.40547" lon="6.39174">
        <ele>2288</ele>
        <time>2020-07-07T09:23:15.000Z</time>
      </trkpt>
      <trkpt lat="44.40547" lon="6.39174">
        <ele>2289</ele>
        <time>2020-07-07T09:23:16.000Z</time>
      </trkpt>
      <trkpt lat="44.40548" lon="6.39175">
        <ele>2289</ele>
        <time>2020-07-07T09:23:17.000Z</time>
      </trkpt>
      <trkpt lat="44.40548" lon="6.39175">
        <ele>2289</ele>
        <time>2020-07-07T09:23:18.000Z</time>
      </trkpt>
      <trkpt lat="44.40549" lon="6.39176">
        <ele>2289</ele>
        <time>2020-07-07T09:23:19.000Z</time>
      </trkpt>
      <trkpt lat="44.40549" lon="6.39177">
        <ele>2289</ele>
        <time>2020-07-07T09:23:20.000Z</time>
      </trkpt>
      <trkpt lat="44.4055" lon="6.39178">
        <ele>2289</ele>
        <time>2020-07-07T09:23:21.000Z</time>
      </trkpt>
      <trkpt lat="44.4055" lon="6.39179">
        <ele>2288</ele>
        <time>2020-07-07T09:23:22.000Z</time>
      </trkpt>
      <trkpt lat="44.4055" lon="6.39179">
        <ele>2288</ele>
        <time>2020-07-07T09:23:23.000Z</time>
      </trkpt>
      <trkpt lat="44.40551" lon="6.3918">
        <ele>2288</ele>
        <time>2020-07-07T09:23:24.000Z</time>
      </trkpt>
      <trkpt lat="44.40552" lon="6.39181">
        <ele>2288</ele>
        <time>2020-07-07T09:23:25.000Z</time>
      </trkpt>
      <trkpt lat="44.40553" lon="6.39182">
        <ele>2288</ele>
        <time>2020-07-07T09:23:26.000Z</time>
      </trkpt>
      <trkpt lat="44.40553" lon="6.39183">
        <ele>2287</ele>
        <time>2020-07-07T09:23:27.000Z</time>
      </trkpt>
      <trkpt lat="44.40553" lon="6.39184">
        <ele>2287</ele>
        <time>2020-07-07T09:23:28.000Z</time>
      </trkpt>
      <trkpt lat="44.40553" lon="6.39184">
        <ele>2287</ele>
        <time>2020-07-07T09:23:29.000Z</time>
      </trkpt>
      <trkpt lat="44.40553" lon="6.39184">
        <ele>2287</ele>
        <time>2020-07-07T09:23:30.000Z</time>
      </trkpt>
      <trkpt lat="44.40553" lon="6.39185">
        <ele>2287</ele>
        <time>2020-07-07T09:23:31.000Z</time>
      </trkpt>
      <trkpt lat="44.40553" lon="6.39185">
        <ele>2287</ele>
        <time>2020-07-07T09:23:32.000Z</time>
      </trkpt>
      <trkpt lat="44.40553" lon="6.39185">
        <ele>2287</ele>
        <time>2020-07-07T09:23:33.000Z</time>
      </trkpt>
      <trkpt lat="44.40553" lon="6.39185">
        <ele>2287</ele>
        <time>2020-07-07T09:23:34.000Z</time>
      </trkpt>
      <trkpt lat="44.40554" lon="6.39185">
        <ele>2287</ele>
        <time>2020-07-07T09:23:35.000Z</time>
      </trkpt>
      <trkpt lat="44.40554" lon="6.39185">
        <ele>2287</ele>
        <time>2020-07-07T09:23:36.000Z</time>
      </trkpt>
      <trkpt lat="44.40554" lon="6.39185">
        <ele>2287</ele>
        <time>2020-07-07T09:23:37.000Z</time>
      </trkpt>
      <trkpt lat="44.40554" lon="6.39185">
        <ele>2287</ele>
        <time>2020-07-07T09:23:38.000Z</time>
      </trkpt>
      <trkpt lat="44.40554" lon="6.39185">
        <ele>2287</ele>
        <time>2020-07-07T09:23:39.000Z</time>
      </trkpt>
      <trkpt lat="44.40554" lon="6.39185">
        <ele>2287</ele>
        <time>2020-07-07T09:23:40.000Z</time>
      </trkpt>
      <trkpt lat="44.40554" lon="6.39186">
        <ele>2287</ele>
        <time>2020-07-07T09:23:41.000Z</time>
      </trkpt>
      <trkpt lat="44.40554" lon="6.39188">
        <ele>2287</ele>
        <time>2020-07-07T09:23:42.000Z</time>
      </trkpt>
      <trkpt lat="44.40554" lon="6.39189">
        <ele>2287</ele>
        <time>2020-07-07T09:23:43.000Z</time>
      </trkpt>
      <trkpt lat="44.40554" lon="6.39191">
        <ele>2287</ele>
        <time>2020-07-07T09:23:44.000Z</time>
      </trkpt>
      <trkpt lat="44.40555" lon="6.39192">
        <ele>2287</ele>
        <time>2020-07-07T09:23:45.000Z</time>
      </trkpt>
      <trkpt lat="44.40555" lon="6.39194">
        <ele>2287</ele>
        <time>2020-07-07T09:23:46.000Z</time>
      </trkpt>
      <trkpt lat="44.40556" lon="6.39195">
        <ele>2287</ele>
        <time>2020-07-07T09:23:47.000Z</time>
      </trkpt>
      <trkpt lat="44.40556" lon="6.39197">
        <ele>2287</ele>
        <time>2020-07-07T09:23:48.000Z</time>
      </trkpt>
      <trkpt lat="44.40557" lon="6.392">
        <ele>2287</ele>
        <time>2020-07-07T09:23:49.000Z</time>
      </trkpt>
      <trkpt lat="44.40557" lon="6.39202">
        <ele>2287</ele>
        <time>2020-07-07T09:23:50.000Z</time>
      </trkpt>
      <trkpt lat="44.40558" lon="6.39205">
        <ele>2287</ele>
        <time>2020-07-07T09:23:51.000Z</time>
      </trkpt>
      <trkpt lat="44.40558" lon="6.39206">
        <ele>2287</ele>
        <time>2020-07-07T09:23:52.000Z</time>
      </trkpt>
      <trkpt lat="44.40559" lon="6.39208">
        <ele>2287</ele>
        <time>2020-07-07T09:23:53.000Z</time>
      </trkpt>
      <trkpt lat="44.40559" lon="6.39209">
        <ele>2287</ele>
        <time>2020-07-07T09:23:54.000Z</time>
      </trkpt>
      <trkpt lat="44.4056" lon="6.39212">
        <ele>2287</ele>
        <time>2020-07-07T09:23:55.000Z</time>
      </trkpt>
      <trkpt lat="44.40561" lon="6.39215">
        <ele>2287</ele>
        <time>2020-07-07T09:23:56.000Z</time>
      </trkpt>
      <trkpt lat="44.40562" lon="6.39217">
        <ele>2287</ele>
        <time>2020-07-07T09:23:57.000Z</time>
      </trkpt>
      <trkpt lat="44.40562" lon="6.39218">
        <ele>2287</ele>
        <time>2020-07-07T09:23:58.000Z</time>
      </trkpt>
      <trkpt lat="44.40562" lon="6.39219">
        <ele>2287</ele>
        <time>2020-07-07T09:23:59.000Z</time>
      </trkpt>
      <trkpt lat="44.40562" lon="6.3922">
        <ele>2287</ele>
        <time>2020-07-07T09:24:00.000Z</time>
      </trkpt>
      <trkpt lat="44.40562" lon="6.39221">
        <ele>2287</ele>
        <time>2020-07-07T09:24:01.000Z</time>
      </trkpt>
      <trkpt lat="44.40562" lon="6.39224">
        <ele>2287</ele>
        <time>2020-07-07T09:24:02.000Z</time>
      </trkpt>
      <trkpt lat="44.40562" lon="6.39226">
        <ele>2287</ele>
        <time>2020-07-07T09:24:03.000Z</time>
      </trkpt>
      <trkpt lat="44.40561" lon="6.39228">
        <ele>2287</ele>
        <time>2020-07-07T09:24:04.000Z</time>
      </trkpt>
      <trkpt lat="44.40561" lon="6.3923">
        <ele>2287</ele>
        <time>2020-07-07T09:24:05.000Z</time>
      </trkpt>
      <trkpt lat="44.40561" lon="6.39231">
        <ele>2287</ele>
        <time>2020-07-07T09:24:06.000Z</time>
      </trkpt>
      <trkpt lat="44.40561" lon="6.39232">
        <ele>2287</ele>
        <time>2020-07-07T09:24:07.000Z</time>
      </trkpt>
      <trkpt lat="44.40561" lon="6.39233">
        <ele>2288</ele>
        <time>2020-07-07T09:24:08.000Z</time>
      </trkpt>
      <trkpt lat="44.40561" lon="6.39233">
        <ele>2288</ele>
        <time>2020-07-07T09:24:09.000Z</time>
      </trkpt>
      <trkpt lat="44.40561" lon="6.39233">
        <ele>2288</ele>
        <time>2020-07-07T09:24:10.000Z</time>
      </trkpt>
      <trkpt lat="44.40561" lon="6.39233">
        <ele>2287</ele>
        <time>2020-07-07T09:24:11.000Z</time>
      </trkpt>
      <trkpt lat="44.40561" lon="6.39233">
        <ele>2287</ele>
        <time>2020-07-07T09:24:12.000Z</time>
      </trkpt>
      <trkpt lat="44.40561" lon="6.39233">
        <ele>2287</ele>
        <time>2020-07-07T09:24:13.000Z</time>
      </trkpt>
      <trkpt lat="44.40561" lon="6.39235">
        <ele>2287</ele>
        <time>2020-07-07T09:24:14.000Z</time>
      </trkpt>
      <trkpt lat="44.40561" lon="6.39236">
        <ele>2287</ele>
        <time>2020-07-07T09:24:15.000Z</time>
      </trkpt>
      <trkpt lat="44.40561" lon="6.39237">
        <ele>2287</ele>
        <time>2020-07-07T09:24:16.000Z</time>
      </trkpt>
      <trkpt lat="44.4056" lon="6.39239">
        <ele>2287</ele>
        <time>2020-07-07T09:24:17.000Z</time>
      </trkpt>
      <trkpt lat="44.4056" lon="6.3924">
        <ele>2287</ele>
        <time>2020-07-07T09:24:18.000Z</time>
      </trkpt>
      <trkpt lat="44.4056" lon="6.39241">
        <ele>2287</ele>
        <time>2020-07-07T09:24:19.000Z</time>
      </trkpt>
      <trkpt lat="44.4056" lon="6.39242">
        <ele>2287</ele>
        <time>2020-07-07T09:24:20.000Z</time>
      </trkpt>
      <trkpt lat="44.40559" lon="6.39243">
        <ele>2286</ele>
        <time>2020-07-07T09:24:21.000Z</time>
      </trkpt>
      <trkpt lat="44.40559" lon="6.39244">
        <ele>2286</ele>
        <time>2020-07-07T09:24:22.000Z</time>
      </trkpt>
      <trkpt lat="44.40559" lon="6.39245">
        <ele>2286</ele>
        <time>2020-07-07T09:24:23.000Z</time>
      </trkpt>
      <trkpt lat="44.40559" lon="6.39246">
        <ele>2286</ele>
        <time>2020-07-07T09:24:24.000Z</time>
      </trkpt>
      <trkpt lat="44.40559" lon="6.39247">
        <ele>2286</ele>
        <time>2020-07-07T09:24:25.000Z</time>
      </trkpt>
      <trkpt lat="44.40559" lon="6.39248">
        <ele>2286</ele>
        <time>2020-07-07T09:24:26.000Z</time>
      </trkpt>
      <trkpt lat="44.40558" lon="6.3925">
        <ele>2286</ele>
        <time>2020-07-07T09:24:27.000Z</time>
      </trkpt>
      <trkpt lat="44.40558" lon="6.39251">
        <ele>2285</ele>
        <time>2020-07-07T09:24:28.000Z</time>
      </trkpt>
      <trkpt lat="44.40557" lon="6.39252">
        <ele>2285</ele>
        <time>2020-07-07T09:24:29.000Z</time>
      </trkpt>
      <trkpt lat="44.40557" lon="6.39253">
        <ele>2285</ele>
        <time>2020-07-07T09:24:30.000Z</time>
      </trkpt>
      <trkpt lat="44.40557" lon="6.39254">
        <ele>2285</ele>
        <time>2020-07-07T09:24:31.000Z</time>
      </trkpt>
      <trkpt lat="44.40556" lon="6.39255">
        <ele>2285</ele>
        <time>2020-07-07T09:24:32.000Z</time>
      </trkpt>
      <trkpt lat="44.40555" lon="6.39256">
        <ele>2285</ele>
        <time>2020-07-07T09:24:33.000Z</time>
      </trkpt>
      <trkpt lat="44.40554" lon="6.39257">
        <ele>2284</ele>
        <time>2020-07-07T09:24:34.000Z</time>
      </trkpt>
      <trkpt lat="44.40554" lon="6.39258">
        <ele>2284</ele>
        <time>2020-07-07T09:24:35.000Z</time>
      </trkpt>
      <trkpt lat="44.40553" lon="6.39259">
        <ele>2284</ele>
        <time>2020-07-07T09:24:36.000Z</time>
      </trkpt>
      <trkpt lat="44.40553" lon="6.3926">
        <ele>2284</ele>
        <time>2020-07-07T09:24:37.000Z</time>
      </trkpt>
      <trkpt lat="44.40553" lon="6.39261">
        <ele>2283</ele>
        <time>2020-07-07T09:24:38.000Z</time>
      </trkpt>
      <trkpt lat="44.40553" lon="6.39262">
        <ele>2283</ele>
        <time>2020-07-07T09:24:39.000Z</time>
      </trkpt>
      <trkpt lat="44.40552" lon="6.39263">
        <ele>2283</ele>
        <time>2020-07-07T09:24:40.000Z</time>
      </trkpt>
      <trkpt lat="44.40552" lon="6.39265">
        <ele>2283</ele>
        <time>2020-07-07T09:24:41.000Z</time>
      </trkpt>
      <trkpt lat="44.40551" lon="6.39265">
        <ele>2283</ele>
        <time>2020-07-07T09:24:42.000Z</time>
      </trkpt>
      <trkpt lat="44.40551" lon="6.39266">
        <ele>2283</ele>
        <time>2020-07-07T09:24:43.000Z</time>
      </trkpt>
      <trkpt lat="44.40551" lon="6.39267">
        <ele>2282</ele>
        <time>2020-07-07T09:24:44.000Z</time>
      </trkpt>
      <trkpt lat="44.40551" lon="6.39268">
        <ele>2282</ele>
        <time>2020-07-07T09:24:45.000Z</time>
      </trkpt>
      <trkpt lat="44.4055" lon="6.39269">
        <ele>2282</ele>
        <time>2020-07-07T09:24:46.000Z</time>
      </trkpt>
      <trkpt lat="44.40549" lon="6.39269">
        <ele>2281</ele>
        <time>2020-07-07T09:24:47.000Z</time>
      </trkpt>
      <trkpt lat="44.40549" lon="6.3927">
        <ele>2281</ele>
        <time>2020-07-07T09:24:48.000Z</time>
      </trkpt>
      <trkpt lat="44.40549" lon="6.39271">
        <ele>2281</ele>
        <time>2020-07-07T09:24:49.000Z</time>
      </trkpt>
      <trkpt lat="44.40548" lon="6.39272">
        <ele>2281</ele>
        <time>2020-07-07T09:24:50.000Z</time>
      </trkpt>
      <trkpt lat="44.40548" lon="6.39274">
        <ele>2280</ele>
        <time>2020-07-07T09:24:51.000Z</time>
      </trkpt>
      <trkpt lat="44.40548" lon="6.39275">
        <ele>2280</ele>
        <time>2020-07-07T09:24:52.000Z</time>
      </trkpt>
      <trkpt lat="44.40548" lon="6.39276">
        <ele>2280</ele>
        <time>2020-07-07T09:24:53.000Z</time>
      </trkpt>
      <trkpt lat="44.40547" lon="6.39278">
        <ele>2280</ele>
        <time>2020-07-07T09:24:54.000Z</time>
      </trkpt>
      <trkpt lat="44.40547" lon="6.39279">
        <ele>2280</ele>
        <time>2020-07-07T09:24:55.000Z</time>
      </trkpt>
      <trkpt lat="44.40547" lon="6.3928">
        <ele>2280</ele>
        <time>2020-07-07T09:24:56.000Z</time>
      </trkpt>
      <trkpt lat="44.40547" lon="6.39281">
        <ele>2279</ele>
        <time>2020-07-07T09:24:57.000Z</time>
      </trkpt>
      <trkpt lat="44.40546" lon="6.39282">
        <ele>2279</ele>
        <time>2020-07-07T09:24:58.000Z</time>
      </trkpt>
      <trkpt lat="44.40546" lon="6.39283">
        <ele>2279</ele>
        <time>2020-07-07T09:24:59.000Z</time>
      </trkpt>
      <trkpt lat="44.40545" lon="6.39284">
        <ele>2279</ele>
        <time>2020-07-07T09:25:00.000Z</time>
      </trkpt>
      <trkpt lat="44.40544" lon="6.39285">
        <ele>2279</ele>
        <time>2020-07-07T09:25:01.000Z</time>
      </trkpt>
      <trkpt lat="44.40544" lon="6.39286">
        <ele>2278</ele>
        <time>2020-07-07T09:25:02.000Z</time>
      </trkpt>
      <trkpt lat="44.40543" lon="6.39287">
        <ele>2278</ele>
        <time>2020-07-07T09:25:03.000Z</time>
      </trkpt>
      <trkpt lat="44.40543" lon="6.39287">
        <ele>2278</ele>
        <time>2020-07-07T09:25:04.000Z</time>
      </trkpt>
      <trkpt lat="44.40543" lon="6.39288">
        <ele>2278</ele>
        <time>2020-07-07T09:25:05.000Z</time>
      </trkpt>
      <trkpt lat="44.40542" lon="6.39289">
        <ele>2278</ele>
        <time>2020-07-07T09:25:06.000Z</time>
      </trkpt>
      <trkpt lat="44.40542" lon="6.3929">
        <ele>2277</ele>
        <time>2020-07-07T09:25:07.000Z</time>
      </trkpt>
      <trkpt lat="44.40542" lon="6.39292">
        <ele>2277</ele>
        <time>2020-07-07T09:25:08.000Z</time>
      </trkpt>
      <trkpt lat="44.40542" lon="6.39293">
        <ele>2277</ele>
        <time>2020-07-07T09:25:09.000Z</time>
      </trkpt>
      <trkpt lat="44.40542" lon="6.39295">
        <ele>2277</ele>
        <time>2020-07-07T09:25:10.000Z</time>
      </trkpt>
      <trkpt lat="44.40542" lon="6.39296">
        <ele>2276</ele>
        <time>2020-07-07T09:25:11.000Z</time>
      </trkpt>
      <trkpt lat="44.40541" lon="6.39297">
        <ele>2276</ele>
        <time>2020-07-07T09:25:12.000Z</time>
      </trkpt>
      <trkpt lat="44.40541" lon="6.39299">
        <ele>2276</ele>
        <time>2020-07-07T09:25:13.000Z</time>
      </trkpt>
      <trkpt lat="44.4054" lon="6.39301">
        <ele>2276</ele>
        <time>2020-07-07T09:25:14.000Z</time>
      </trkpt>
      <trkpt lat="44.4054" lon="6.39304">
        <ele>2276</ele>
        <time>2020-07-07T09:25:15.000Z</time>
      </trkpt>
      <trkpt lat="44.4054" lon="6.39306">
        <ele>2275</ele>
        <time>2020-07-07T09:25:16.000Z</time>
      </trkpt>
      <trkpt lat="44.4054" lon="6.39306">
        <ele>2275</ele>
        <time>2020-07-07T09:25:17.000Z</time>
      </trkpt>
      <trkpt lat="44.4054" lon="6.39308">
        <ele>2275</ele>
        <time>2020-07-07T09:25:18.000Z</time>
      </trkpt>
      <trkpt lat="44.40539" lon="6.39309">
        <ele>2275</ele>
        <time>2020-07-07T09:25:19.000Z</time>
      </trkpt>
      <trkpt lat="44.40539" lon="6.3931">
        <ele>2275</ele>
        <time>2020-07-07T09:25:20.000Z</time>
      </trkpt>
      <trkpt lat="44.40538" lon="6.39311">
        <ele>2274</ele>
        <time>2020-07-07T09:25:21.000Z</time>
      </trkpt>
      <trkpt lat="44.40538" lon="6.39313">
        <ele>2274</ele>
        <time>2020-07-07T09:25:22.000Z</time>
      </trkpt>
      <trkpt lat="44.40537" lon="6.39314">
        <ele>2274</ele>
        <time>2020-07-07T09:25:23.000Z</time>
      </trkpt>
      <trkpt lat="44.40537" lon="6.39314">
        <ele>2274</ele>
        <time>2020-07-07T09:25:24.000Z</time>
      </trkpt>
      <trkpt lat="44.40537" lon="6.39315">
        <ele>2274</ele>
        <time>2020-07-07T09:25:25.000Z</time>
      </trkpt>
      <trkpt lat="44.40536" lon="6.39316">
        <ele>2274</ele>
        <time>2020-07-07T09:25:26.000Z</time>
      </trkpt>
      <trkpt lat="44.40535" lon="6.39317">
        <ele>2274</ele>
        <time>2020-07-07T09:25:27.000Z</time>
      </trkpt>
      <trkpt lat="44.40535" lon="6.39318">
        <ele>2274</ele>
        <time>2020-07-07T09:25:28.000Z</time>
      </trkpt>
      <trkpt lat="44.40535" lon="6.39319">
        <ele>2273</ele>
        <time>2020-07-07T09:25:29.000Z</time>
      </trkpt>
      <trkpt lat="44.40534" lon="6.3932">
        <ele>2273</ele>
        <time>2020-07-07T09:25:30.000Z</time>
      </trkpt>
      <trkpt lat="44.40533" lon="6.39321">
        <ele>2273</ele>
        <time>2020-07-07T09:25:31.000Z</time>
      </trkpt>
      <trkpt lat="44.40533" lon="6.39323">
        <ele>2272</ele>
        <time>2020-07-07T09:25:32.000Z</time>
      </trkpt>
      <trkpt lat="44.40533" lon="6.39325">
        <ele>2272</ele>
        <time>2020-07-07T09:25:33.000Z</time>
      </trkpt>
      <trkpt lat="44.40534" lon="6.39326">
        <ele>2272</ele>
        <time>2020-07-07T09:25:34.000Z</time>
      </trkpt>
      <trkpt lat="44.40534" lon="6.39328">
        <ele>2272</ele>
        <time>2020-07-07T09:25:35.000Z</time>
      </trkpt>
      <trkpt lat="44.40535" lon="6.39329">
        <ele>2272</ele>
        <time>2020-07-07T09:25:36.000Z</time>
      </trkpt>
      <trkpt lat="44.40534" lon="6.3933">
        <ele>2272</ele>
        <time>2020-07-07T09:25:37.000Z</time>
      </trkpt>
      <trkpt lat="44.40534" lon="6.39331">
        <ele>2271</ele>
        <time>2020-07-07T09:25:38.000Z</time>
      </trkpt>
      <trkpt lat="44.40534" lon="6.39333">
        <ele>2271</ele>
        <time>2020-07-07T09:25:39.000Z</time>
      </trkpt>
      <trkpt lat="44.40534" lon="6.39335">
        <ele>2271</ele>
        <time>2020-07-07T09:25:40.000Z</time>
      </trkpt>
      <trkpt lat="44.40534" lon="6.39338">
        <ele>2271</ele>
        <time>2020-07-07T09:25:41.000Z</time>
      </trkpt>
      <trkpt lat="44.40534" lon="6.39339">
        <ele>2271</ele>
        <time>2020-07-07T09:25:42.000Z</time>
      </trkpt>
      <trkpt lat="44.40534" lon="6.3934">
        <ele>2271</ele>
        <time>2020-07-07T09:25:43.000Z</time>
      </trkpt>
      <trkpt lat="44.40534" lon="6.39341">
        <ele>2271</ele>
        <time>2020-07-07T09:25:44.000Z</time>
      </trkpt>
      <trkpt lat="44.40533" lon="6.39341">
        <ele>2271</ele>
        <time>2020-07-07T09:25:45.000Z</time>
      </trkpt>
      <trkpt lat="44.40534" lon="6.39343">
        <ele>2270</ele>
        <time>2020-07-07T09:25:46.000Z</time>
      </trkpt>
      <trkpt lat="44.40534" lon="6.39343">
        <ele>2270</ele>
        <time>2020-07-07T09:25:47.000Z</time>
      </trkpt>
      <trkpt lat="44.40534" lon="6.39344">
        <ele>2270</ele>
        <time>2020-07-07T09:25:48.000Z</time>
      </trkpt>
      <trkpt lat="44.40534" lon="6.39345">
        <ele>2270</ele>
        <time>2020-07-07T09:25:49.000Z</time>
      </trkpt>
      <trkpt lat="44.40535" lon="6.39346">
        <ele>2270</ele>
        <time>2020-07-07T09:25:50.000Z</time>
      </trkpt>
      <trkpt lat="44.40536" lon="6.39347">
        <ele>2270</ele>
        <time>2020-07-07T09:25:51.000Z</time>
      </trkpt>
      <trkpt lat="44.40537" lon="6.39348">
        <ele>2270</ele>
        <time>2020-07-07T09:25:52.000Z</time>
      </trkpt>
      <trkpt lat="44.40537" lon="6.39349">
        <ele>2270</ele>
        <time>2020-07-07T09:25:53.000Z</time>
      </trkpt>
      <trkpt lat="44.40538" lon="6.3935">
        <ele>2270</ele>
        <time>2020-07-07T09:25:54.000Z</time>
      </trkpt>
      <trkpt lat="44.40539" lon="6.3935">
        <ele>2270</ele>
        <time>2020-07-07T09:25:55.000Z</time>
      </trkpt>
      <trkpt lat="44.4054" lon="6.39351">
        <ele>2270</ele>
        <time>2020-07-07T09:25:56.000Z</time>
      </trkpt>
      <trkpt lat="44.40541" lon="6.39351">
        <ele>2270</ele>
        <time>2020-07-07T09:25:57.000Z</time>
      </trkpt>
      <trkpt lat="44.40541" lon="6.39352">
        <ele>2270</ele>
        <time>2020-07-07T09:25:58.000Z</time>
      </trkpt>
      <trkpt lat="44.40542" lon="6.39351">
        <ele>2270</ele>
        <time>2020-07-07T09:25:59.000Z</time>
      </trkpt>
      <trkpt lat="44.40543" lon="6.39352">
        <ele>2270</ele>
        <time>2020-07-07T09:26:00.000Z</time>
      </trkpt>
      <trkpt lat="44.40544" lon="6.39353">
        <ele>2270</ele>
        <time>2020-07-07T09:26:01.000Z</time>
      </trkpt>
      <trkpt lat="44.40544" lon="6.39353">
        <ele>2269</ele>
        <time>2020-07-07T09:26:02.000Z</time>
      </trkpt>
      <trkpt lat="44.40545" lon="6.39354">
        <ele>2269</ele>
        <time>2020-07-07T09:26:03.000Z</time>
      </trkpt>
      <trkpt lat="44.40545" lon="6.39355">
        <ele>2269</ele>
        <time>2020-07-07T09:26:04.000Z</time>
      </trkpt>
      <trkpt lat="44.40546" lon="6.39355">
        <ele>2269</ele>
        <time>2020-07-07T09:26:05.000Z</time>
      </trkpt>
      <trkpt lat="44.40547" lon="6.39356">
        <ele>2269</ele>
        <time>2020-07-07T09:26:06.000Z</time>
      </trkpt>
      <trkpt lat="44.40548" lon="6.39356">
        <ele>2269</ele>
        <time>2020-07-07T09:26:07.000Z</time>
      </trkpt>
      <trkpt lat="44.40549" lon="6.39356">
        <ele>2269</ele>
        <time>2020-07-07T09:26:08.000Z</time>
      </trkpt>
      <trkpt lat="44.4055" lon="6.39356">
        <ele>2269</ele>
        <time>2020-07-07T09:26:09.000Z</time>
      </trkpt>
      <trkpt lat="44.4055" lon="6.39357">
        <ele>2269</ele>
        <time>2020-07-07T09:26:10.000Z</time>
      </trkpt>
      <trkpt lat="44.40551" lon="6.39357">
        <ele>2269</ele>
        <time>2020-07-07T09:26:11.000Z</time>
      </trkpt>
      <trkpt lat="44.40551" lon="6.39357">
        <ele>2269</ele>
        <time>2020-07-07T09:26:12.000Z</time>
      </trkpt>
      <trkpt lat="44.40552" lon="6.39358">
        <ele>2269</ele>
        <time>2020-07-07T09:26:13.000Z</time>
      </trkpt>
      <trkpt lat="44.40552" lon="6.39358">
        <ele>2269</ele>
        <time>2020-07-07T09:26:14.000Z</time>
      </trkpt>
      <trkpt lat="44.40552" lon="6.39358">
        <ele>2269</ele>
        <time>2020-07-07T09:26:15.000Z</time>
      </trkpt>
      <trkpt lat="44.40552" lon="6.39358">
        <ele>2269</ele>
        <time>2020-07-07T09:26:16.000Z</time>
      </trkpt>
      <trkpt lat="44.40552" lon="6.39358">
        <ele>2269</ele>
        <time>2020-07-07T09:26:17.000Z</time>
      </trkpt>
      <trkpt lat="44.40552" lon="6.39358">
        <ele>2269</ele>
        <time>2020-07-07T09:26:18.000Z</time>
      </trkpt>
      <trkpt lat="44.40551" lon="6.39358">
        <ele>2269</ele>
        <time>2020-07-07T09:26:19.000Z</time>
      </trkpt>
      <trkpt lat="44.40551" lon="6.39358">
        <ele>2269</ele>
        <time>2020-07-07T09:26:20.000Z</time>
      </trkpt>
      <trkpt lat="44.40551" lon="6.39359">
        <ele>2269</ele>
        <time>2020-07-07T09:26:21.000Z</time>
      </trkpt>
      <trkpt lat="44.40551" lon="6.39359">
        <ele>2268</ele>
        <time>2020-07-07T09:26:22.000Z</time>
      </trkpt>
      <trkpt lat="44.40551" lon="6.39359">
        <ele>2268</ele>
        <time>2020-07-07T09:26:23.000Z</time>
      </trkpt>
      <trkpt lat="44.40551" lon="6.39359">
        <ele>2268</ele>
        <time>2020-07-07T09:26:24.000Z</time>
      </trkpt>
      <trkpt lat="44.40551" lon="6.39359">
        <ele>2268</ele>
        <time>2020-07-07T09:26:25.000Z</time>
      </trkpt>
      <trkpt lat="44.40552" lon="6.39359">
        <ele>2268</ele>
        <time>2020-07-07T09:26:26.000Z</time>
      </trkpt>
      <trkpt lat="44.40552" lon="6.39359">
        <ele>2268</ele>
        <time>2020-07-07T09:26:27.000Z</time>
      </trkpt>
      <trkpt lat="44.40552" lon="6.3936">
        <ele>2268</ele>
        <time>2020-07-07T09:26:28.000Z</time>
      </trkpt>
      <trkpt lat="44.40552" lon="6.3936">
        <ele>2268</ele>
        <time>2020-07-07T09:26:29.000Z</time>
      </trkpt>
      <trkpt lat="44.40553" lon="6.3936">
        <ele>2268</ele>
        <time>2020-07-07T09:26:30.000Z</time>
      </trkpt>
      <trkpt lat="44.40553" lon="6.3936">
        <ele>2268</ele>
        <time>2020-07-07T09:26:31.000Z</time>
      </trkpt>
      <trkpt lat="44.40554" lon="6.39361">
        <ele>2268</ele>
        <time>2020-07-07T09:26:32.000Z</time>
      </trkpt>
      <trkpt lat="44.40555" lon="6.39361">
        <ele>2268</ele>
        <time>2020-07-07T09:26:33.000Z</time>
      </trkpt>
      <trkpt lat="44.40556" lon="6.3936">
        <ele>2268</ele>
        <time>2020-07-07T09:26:34.000Z</time>
      </trkpt>
      <trkpt lat="44.40557" lon="6.3936">
        <ele>2267</ele>
        <time>2020-07-07T09:26:35.000Z</time>
      </trkpt>
      <trkpt lat="44.40557" lon="6.3936">
        <ele>2267</ele>
        <time>2020-07-07T09:26:36.000Z</time>
      </trkpt>
      <trkpt lat="44.40558" lon="6.3936">
        <ele>2267</ele>
        <time>2020-07-07T09:26:37.000Z</time>
      </trkpt>
      <trkpt lat="44.40559" lon="6.3936">
        <ele>2267</ele>
        <time>2020-07-07T09:26:38.000Z</time>
      </trkpt>
      <trkpt lat="44.4056" lon="6.39361">
        <ele>2267</ele>
        <time>2020-07-07T09:26:39.000Z</time>
      </trkpt>
      <trkpt lat="44.4056" lon="6.39362">
        <ele>2267</ele>
        <time>2020-07-07T09:26:40.000Z</time>
      </trkpt>
      <trkpt lat="44.40561" lon="6.39362">
        <ele>2267</ele>
        <time>2020-07-07T09:26:41.000Z</time>
      </trkpt>
      <trkpt lat="44.40563" lon="6.39363">
        <ele>2267</ele>
        <time>2020-07-07T09:26:42.000Z</time>
      </trkpt>
      <trkpt lat="44.40564" lon="6.39364">
        <ele>2267</ele>
        <time>2020-07-07T09:26:43.000Z</time>
      </trkpt>
      <trkpt lat="44.40565" lon="6.39365">
        <ele>2267</ele>
        <time>2020-07-07T09:26:44.000Z</time>
      </trkpt>
      <trkpt lat="44.40565" lon="6.39366">
        <ele>2267</ele>
        <time>2020-07-07T09:26:45.000Z</time>
      </trkpt>
      <trkpt lat="44.40566" lon="6.39368">
        <ele>2267</ele>
        <time>2020-07-07T09:26:46.000Z</time>
      </trkpt>
      <trkpt lat="44.40566" lon="6.39369">
        <ele>2267</ele>
        <time>2020-07-07T09:26:47.000Z</time>
      </trkpt>
      <trkpt lat="44.40566" lon="6.3937">
        <ele>2266</ele>
        <time>2020-07-07T09:26:48.000Z</time>
      </trkpt>
      <trkpt lat="44.40565" lon="6.39371">
        <ele>2266</ele>
        <time>2020-07-07T09:26:49.000Z</time>
      </trkpt>
      <trkpt lat="44.40565" lon="6.39372">
        <ele>2266</ele>
        <time>2020-07-07T09:26:50.000Z</time>
      </trkpt>
      <trkpt lat="44.40565" lon="6.39373">
        <ele>2266</ele>
        <time>2020-07-07T09:26:51.000Z</time>
      </trkpt>
      <trkpt lat="44.40564" lon="6.39374">
        <ele>2265</ele>
        <time>2020-07-07T09:26:52.000Z</time>
      </trkpt>
      <trkpt lat="44.40563" lon="6.39375">
        <ele>2265</ele>
        <time>2020-07-07T09:26:53.000Z</time>
      </trkpt>
      <trkpt lat="44.40562" lon="6.39375">
        <ele>2265</ele>
        <time>2020-07-07T09:26:54.000Z</time>
      </trkpt>
      <trkpt lat="44.40562" lon="6.39376">
        <ele>2265</ele>
        <time>2020-07-07T09:26:55.000Z</time>
      </trkpt>
      <trkpt lat="44.40562" lon="6.39376">
        <ele>2264</ele>
        <time>2020-07-07T09:26:56.000Z</time>
      </trkpt>
      <trkpt lat="44.40561" lon="6.39377">
        <ele>2264</ele>
        <time>2020-07-07T09:26:57.000Z</time>
      </trkpt>
      <trkpt lat="44.4056" lon="6.39377">
        <ele>2264</ele>
        <time>2020-07-07T09:26:58.000Z</time>
      </trkpt>
      <trkpt lat="44.4056" lon="6.39377">
        <ele>2264</ele>
        <time>2020-07-07T09:26:59.000Z</time>
      </trkpt>
      <trkpt lat="44.40559" lon="6.39378">
        <ele>2263</ele>
        <time>2020-07-07T09:27:00.000Z</time>
      </trkpt>
      <trkpt lat="44.40558" lon="6.39378">
        <ele>2263</ele>
        <time>2020-07-07T09:27:01.000Z</time>
      </trkpt>
      <trkpt lat="44.40558" lon="6.39379">
        <ele>2263</ele>
        <time>2020-07-07T09:27:02.000Z</time>
      </trkpt>
      <trkpt lat="44.40558" lon="6.39379">
        <ele>2263</ele>
        <time>2020-07-07T09:27:03.000Z</time>
      </trkpt>
      <trkpt lat="44.40557" lon="6.39381">
        <ele>2262</ele>
        <time>2020-07-07T09:27:04.000Z</time>
      </trkpt>
      <trkpt lat="44.40557" lon="6.39383">
        <ele>2262</ele>
        <time>2020-07-07T09:27:05.000Z</time>
      </trkpt>
      <trkpt lat="44.40556" lon="6.39384">
        <ele>2262</ele>
        <time>2020-07-07T09:27:06.000Z</time>
      </trkpt>
      <trkpt lat="44.40555" lon="6.39385">
        <ele>2262</ele>
        <time>2020-07-07T09:27:07.000Z</time>
      </trkpt>
      <trkpt lat="44.40555" lon="6.39386">
        <ele>2261</ele>
        <time>2020-07-07T09:27:08.000Z</time>
      </trkpt>
      <trkpt lat="44.40555" lon="6.39387">
        <ele>2261</ele>
        <time>2020-07-07T09:27:09.000Z</time>
      </trkpt>
      <trkpt lat="44.40555" lon="6.39389">
        <ele>2261</ele>
        <time>2020-07-07T09:27:10.000Z</time>
      </trkpt>
      <trkpt lat="44.40554" lon="6.3939">
        <ele>2261</ele>
        <time>2020-07-07T09:27:11.000Z</time>
      </trkpt>
      <trkpt lat="44.40554" lon="6.39391">
        <ele>2260</ele>
        <time>2020-07-07T09:27:12.000Z</time>
      </trkpt>
      <trkpt lat="44.40553" lon="6.39392">
        <ele>2260</ele>
        <time>2020-07-07T09:27:13.000Z</time>
      </trkpt>
      <trkpt lat="44.40553" lon="6.39392">
        <ele>2260</ele>
        <time>2020-07-07T09:27:14.000Z</time>
      </trkpt>
      <trkpt lat="44.40553" lon="6.39393">
        <ele>2260</ele>
        <time>2020-07-07T09:27:15.000Z</time>
      </trkpt>
      <trkpt lat="44.40552" lon="6.39394">
        <ele>2259</ele>
        <time>2020-07-07T09:27:16.000Z</time>
      </trkpt>
      <trkpt lat="44.40551" lon="6.39395">
        <ele>2259</ele>
        <time>2020-07-07T09:27:17.000Z</time>
      </trkpt>
      <trkpt lat="44.40552" lon="6.39396">
        <ele>2259</ele>
        <time>2020-07-07T09:27:18.000Z</time>
      </trkpt>
      <trkpt lat="44.40552" lon="6.39397">
        <ele>2259</ele>
        <time>2020-07-07T09:27:19.000Z</time>
      </trkpt>
      <trkpt lat="44.40551" lon="6.39398">
        <ele>2259</ele>
        <time>2020-07-07T09:27:20.000Z</time>
      </trkpt>
      <trkpt lat="44.4055" lon="6.39399">
        <ele>2259</ele>
        <time>2020-07-07T09:27:21.000Z</time>
      </trkpt>
      <trkpt lat="44.4055" lon="6.39399">
        <ele>2259</ele>
        <time>2020-07-07T09:27:22.000Z</time>
      </trkpt>
      <trkpt lat="44.40549" lon="6.39401">
        <ele>2259</ele>
        <time>2020-07-07T09:27:23.000Z</time>
      </trkpt>
      <trkpt lat="44.40548" lon="6.39401">
        <ele>2258</ele>
        <time>2020-07-07T09:27:24.000Z</time>
      </trkpt>
      <trkpt lat="44.40548" lon="6.39402">
        <ele>2258</ele>
        <time>2020-07-07T09:27:25.000Z</time>
      </trkpt>
      <trkpt lat="44.40548" lon="6.39403">
        <ele>2258</ele>
        <time>2020-07-07T09:27:26.000Z</time>
      </trkpt>
      <trkpt lat="44.40547" lon="6.39404">
        <ele>2258</ele>
        <time>2020-07-07T09:27:27.000Z</time>
      </trkpt>
      <trkpt lat="44.40546" lon="6.39405">
        <ele>2257</ele>
        <time>2020-07-07T09:27:28.000Z</time>
      </trkpt>
      <trkpt lat="44.40545" lon="6.39405">
        <ele>2257</ele>
        <time>2020-07-07T09:27:29.000Z</time>
      </trkpt>
      <trkpt lat="44.40544" lon="6.39406">
        <ele>2257</ele>
        <time>2020-07-07T09:27:30.000Z</time>
      </trkpt>
      <trkpt lat="44.40543" lon="6.39406">
        <ele>2257</ele>
        <time>2020-07-07T09:27:31.000Z</time>
      </trkpt>
      <trkpt lat="44.40542" lon="6.39406">
        <ele>2257</ele>
        <time>2020-07-07T09:27:32.000Z</time>
      </trkpt>
      <trkpt lat="44.40541" lon="6.39407">
        <ele>2256</ele>
        <time>2020-07-07T09:27:33.000Z</time>
      </trkpt>
      <trkpt lat="44.40541" lon="6.39407">
        <ele>2256</ele>
        <time>2020-07-07T09:27:34.000Z</time>
      </trkpt>
      <trkpt lat="44.4054" lon="6.39407">
        <ele>2256</ele>
        <time>2020-07-07T09:27:35.000Z</time>
      </trkpt>
      <trkpt lat="44.40539" lon="6.39408">
        <ele>2256</ele>
        <time>2020-07-07T09:27:36.000Z</time>
      </trkpt>
      <trkpt lat="44.40539" lon="6.39408">
        <ele>2256</ele>
        <time>2020-07-07T09:27:37.000Z</time>
      </trkpt>
      <trkpt lat="44.40539" lon="6.39409">
        <ele>2256</ele>
        <time>2020-07-07T09:27:38.000Z</time>
      </trkpt>
      <trkpt lat="44.40538" lon="6.39409">
        <ele>2255</ele>
        <time>2020-07-07T09:27:39.000Z</time>
      </trkpt>
      <trkpt lat="44.40537" lon="6.39409">
        <ele>2255</ele>
        <time>2020-07-07T09:27:40.000Z</time>
      </trkpt>
      <trkpt lat="44.40535" lon="6.3941">
        <ele>2255</ele>
        <time>2020-07-07T09:27:41.000Z</time>
      </trkpt>
      <trkpt lat="44.40534" lon="6.3941">
        <ele>2255</ele>
        <time>2020-07-07T09:27:42.000Z</time>
      </trkpt>
      <trkpt lat="44.40533" lon="6.39411">
        <ele>2255</ele>
        <time>2020-07-07T09:27:43.000Z</time>
      </trkpt>
      <trkpt lat="44.40533" lon="6.39411">
        <ele>2254</ele>
        <time>2020-07-07T09:27:44.000Z</time>
      </trkpt>
      <trkpt lat="44.40532" lon="6.39412">
        <ele>2254</ele>
        <time>2020-07-07T09:27:45.000Z</time>
      </trkpt>
      <trkpt lat="44.40531" lon="6.39412">
        <ele>2254</ele>
        <time>2020-07-07T09:27:46.000Z</time>
      </trkpt>
      <trkpt lat="44.4053" lon="6.39413">
        <ele>2254</ele>
        <time>2020-07-07T09:27:47.000Z</time>
      </trkpt>
      <trkpt lat="44.4053" lon="6.39413">
        <ele>2253</ele>
        <time>2020-07-07T09:27:48.000Z</time>
      </trkpt>
      <trkpt lat="44.40528" lon="6.39414">
        <ele>2253</ele>
        <time>2020-07-07T09:27:49.000Z</time>
      </trkpt>
      <trkpt lat="44.40527" lon="6.39414">
        <ele>2253</ele>
        <time>2020-07-07T09:27:50.000Z</time>
      </trkpt>
      <trkpt lat="44.40527" lon="6.39415">
        <ele>2253</ele>
        <time>2020-07-07T09:27:51.000Z</time>
      </trkpt>
      <trkpt lat="44.40526" lon="6.39415">
        <ele>2253</ele>
        <time>2020-07-07T09:27:52.000Z</time>
      </trkpt>
      <trkpt lat="44.40526" lon="6.39415">
        <ele>2252</ele>
        <time>2020-07-07T09:27:53.000Z</time>
      </trkpt>
      <trkpt lat="44.40525" lon="6.39416">
        <ele>2252</ele>
        <time>2020-07-07T09:27:54.000Z</time>
      </trkpt>
      <trkpt lat="44.40525" lon="6.39416">
        <ele>2252</ele>
        <time>2020-07-07T09:27:55.000Z</time>
      </trkpt>
      <trkpt lat="44.40524" lon="6.39417">
        <ele>2252</ele>
        <time>2020-07-07T09:27:56.000Z</time>
      </trkpt>
      <trkpt lat="44.40524" lon="6.39418">
        <ele>2252</ele>
        <time>2020-07-07T09:27:57.000Z</time>
      </trkpt>
      <trkpt lat="44.40523" lon="6.39419">
        <ele>2252</ele>
        <time>2020-07-07T09:27:58.000Z</time>
      </trkpt>
      <trkpt lat="44.40523" lon="6.39419">
        <ele>2252</ele>
        <time>2020-07-07T09:27:59.000Z</time>
      </trkpt>
      <trkpt lat="44.40524" lon="6.39419">
        <ele>2251</ele>
        <time>2020-07-07T09:28:00.000Z</time>
      </trkpt>
      <trkpt lat="44.40524" lon="6.3942">
        <ele>2251</ele>
        <time>2020-07-07T09:28:01.000Z</time>
      </trkpt>
      <trkpt lat="44.40524" lon="6.3942">
        <ele>2251</ele>
        <time>2020-07-07T09:28:02.000Z</time>
      </trkpt>
      <trkpt lat="44.40524" lon="6.3942">
        <ele>2251</ele>
        <time>2020-07-07T09:28:03.000Z</time>
      </trkpt>
      <trkpt lat="44.40523" lon="6.39421">
        <ele>2251</ele>
        <time>2020-07-07T09:28:04.000Z</time>
      </trkpt>
      <trkpt lat="44.40522" lon="6.39422">
        <ele>2251</ele>
        <time>2020-07-07T09:28:05.000Z</time>
      </trkpt>
      <trkpt lat="44.40521" lon="6.39423">
        <ele>2250</ele>
        <time>2020-07-07T09:28:06.000Z</time>
      </trkpt>
      <trkpt lat="44.4052" lon="6.39424">
        <ele>2250</ele>
        <time>2020-07-07T09:28:07.000Z</time>
      </trkpt>
      <trkpt lat="44.4052" lon="6.39426">
        <ele>2250</ele>
        <time>2020-07-07T09:28:08.000Z</time>
      </trkpt>
      <trkpt lat="44.40519" lon="6.39427">
        <ele>2250</ele>
        <time>2020-07-07T09:28:09.000Z</time>
      </trkpt>
      <trkpt lat="44.40519" lon="6.39427">
        <ele>2250</ele>
        <time>2020-07-07T09:28:10.000Z</time>
      </trkpt>
      <trkpt lat="44.40519" lon="6.39428">
        <ele>2250</ele>
        <time>2020-07-07T09:28:11.000Z</time>
      </trkpt>
      <trkpt lat="44.40519" lon="6.39428">
        <ele>2250</ele>
        <time>2020-07-07T09:28:12.000Z</time>
      </trkpt>
      <trkpt lat="44.40519" lon="6.39428">
        <ele>2250</ele>
        <time>2020-07-07T09:28:13.000Z</time>
      </trkpt>
      <trkpt lat="44.40519" lon="6.39429">
        <ele>2249</ele>
        <time>2020-07-07T09:28:14.000Z</time>
      </trkpt>
      <trkpt lat="44.40519" lon="6.3943">
        <ele>2249</ele>
        <time>2020-07-07T09:28:15.000Z</time>
      </trkpt>
      <trkpt lat="44.40518" lon="6.39431">
        <ele>2249</ele>
        <time>2020-07-07T09:28:16.000Z</time>
      </trkpt>
      <trkpt lat="44.40518" lon="6.39432">
        <ele>2248</ele>
        <time>2020-07-07T09:28:17.000Z</time>
      </trkpt>
      <trkpt lat="44.40519" lon="6.39433">
        <ele>2248</ele>
        <time>2020-07-07T09:28:18.000Z</time>
      </trkpt>
      <trkpt lat="44.40518" lon="6.39434">
        <ele>2248</ele>
        <time>2020-07-07T09:28:19.000Z</time>
      </trkpt>
      <trkpt lat="44.40518" lon="6.39434">
        <ele>2247</ele>
        <time>2020-07-07T09:28:20.000Z</time>
      </trkpt>
      <trkpt lat="44.40518" lon="6.39435">
        <ele>2247</ele>
        <time>2020-07-07T09:28:21.000Z</time>
      </trkpt>
      <trkpt lat="44.40518" lon="6.39436">
        <ele>2247</ele>
        <time>2020-07-07T09:28:22.000Z</time>
      </trkpt>
      <trkpt lat="44.40517" lon="6.39437">
        <ele>2246</ele>
        <time>2020-07-07T09:28:23.000Z</time>
      </trkpt>
      <trkpt lat="44.40517" lon="6.39438">
        <ele>2246</ele>
        <time>2020-07-07T09:28:24.000Z</time>
      </trkpt>
      <trkpt lat="44.40516" lon="6.3944">
        <ele>2245</ele>
        <time>2020-07-07T09:28:25.000Z</time>
      </trkpt>
      <trkpt lat="44.40516" lon="6.3944">
        <ele>2245</ele>
        <time>2020-07-07T09:28:26.000Z</time>
      </trkpt>
      <trkpt lat="44.40516" lon="6.39441">
        <ele>2245</ele>
        <time>2020-07-07T09:28:27.000Z</time>
      </trkpt>
      <trkpt lat="44.40516" lon="6.39442">
        <ele>2245</ele>
        <time>2020-07-07T09:28:28.000Z</time>
      </trkpt>
      <trkpt lat="44.40515" lon="6.39443">
        <ele>2244</ele>
        <time>2020-07-07T09:28:29.000Z</time>
      </trkpt>
      <trkpt lat="44.40515" lon="6.39443">
        <ele>2244</ele>
        <time>2020-07-07T09:28:30.000Z</time>
      </trkpt>
      <trkpt lat="44.40514" lon="6.39445">
        <ele>2244</ele>
        <time>2020-07-07T09:28:31.000Z</time>
      </trkpt>
      <trkpt lat="44.40514" lon="6.39445">
        <ele>2244</ele>
        <time>2020-07-07T09:28:32.000Z</time>
      </trkpt>
      <trkpt lat="44.40513" lon="6.39445">
        <ele>2243</ele>
        <time>2020-07-07T09:28:33.000Z</time>
      </trkpt>
      <trkpt lat="44.40513" lon="6.39446">
        <ele>2243</ele>
        <time>2020-07-07T09:28:34.000Z</time>
      </trkpt>
      <trkpt lat="44.40512" lon="6.39446">
        <ele>2242</ele>
        <time>2020-07-07T09:28:35.000Z</time>
      </trkpt>
      <trkpt lat="44.40512" lon="6.39447">
        <ele>2242</ele>
        <time>2020-07-07T09:28:36.000Z</time>
      </trkpt>
      <trkpt lat="44.40511" lon="6.39448">
        <ele>2242</ele>
        <time>2020-07-07T09:28:37.000Z</time>
      </trkpt>
      <trkpt lat="44.4051" lon="6.39448">
        <ele>2242</ele>
        <time>2020-07-07T09:28:38.000Z</time>
      </trkpt>
      <trkpt lat="44.40509" lon="6.39448">
        <ele>2242</ele>
        <time>2020-07-07T09:28:39.000Z</time>
      </trkpt>
      <trkpt lat="44.40509" lon="6.39449">
        <ele>2241</ele>
        <time>2020-07-07T09:28:40.000Z</time>
      </trkpt>
      <trkpt lat="44.40508" lon="6.39449">
        <ele>2241</ele>
        <time>2020-07-07T09:28:41.000Z</time>
      </trkpt>
      <trkpt lat="44.40507" lon="6.3945">
        <ele>2241</ele>
        <time>2020-07-07T09:28:42.000Z</time>
      </trkpt>
      <trkpt lat="44.40507" lon="6.3945">
        <ele>2241</ele>
        <time>2020-07-07T09:28:43.000Z</time>
      </trkpt>
      <trkpt lat="44.40505" lon="6.39451">
        <ele>2241</ele>
        <time>2020-07-07T09:28:44.000Z</time>
      </trkpt>
      <trkpt lat="44.40504" lon="6.39452">
        <ele>2241</ele>
        <time>2020-07-07T09:28:45.000Z</time>
      </trkpt>
      <trkpt lat="44.40504" lon="6.39452">
        <ele>2240</ele>
        <time>2020-07-07T09:28:46.000Z</time>
      </trkpt>
      <trkpt lat="44.40504" lon="6.39453">
        <ele>2240</ele>
        <time>2020-07-07T09:28:47.000Z</time>
      </trkpt>
      <trkpt lat="44.40503" lon="6.39454">
        <ele>2240</ele>
        <time>2020-07-07T09:28:48.000Z</time>
      </trkpt>
      <trkpt lat="44.40502" lon="6.39454">
        <ele>2240</ele>
        <time>2020-07-07T09:28:49.000Z</time>
      </trkpt>
      <trkpt lat="44.40501" lon="6.39455">
        <ele>2240</ele>
        <time>2020-07-07T09:28:50.000Z</time>
      </trkpt>
      <trkpt lat="44.405" lon="6.39455">
        <ele>2240</ele>
        <time>2020-07-07T09:28:51.000Z</time>
      </trkpt>
      <trkpt lat="44.40499" lon="6.39456">
        <ele>2240</ele>
        <time>2020-07-07T09:28:52.000Z</time>
      </trkpt>
      <trkpt lat="44.40499" lon="6.39456">
        <ele>2240</ele>
        <time>2020-07-07T09:28:53.000Z</time>
      </trkpt>
      <trkpt lat="44.40498" lon="6.39456">
        <ele>2240</ele>
        <time>2020-07-07T09:28:54.000Z</time>
      </trkpt>
      <trkpt lat="44.40498" lon="6.39457">
        <ele>2239</ele>
        <time>2020-07-07T09:28:55.000Z</time>
      </trkpt>
      <trkpt lat="44.40497" lon="6.39457">
        <ele>2239</ele>
        <time>2020-07-07T09:28:56.000Z</time>
      </trkpt>
      <trkpt lat="44.40497" lon="6.39457">
        <ele>2239</ele>
        <time>2020-07-07T09:28:57.000Z</time>
      </trkpt>
      <trkpt lat="44.40497" lon="6.39457">
        <ele>2239</ele>
        <time>2020-07-07T09:28:58.000Z</time>
      </trkpt>
      <trkpt lat="44.40496" lon="6.39458">
        <ele>2238</ele>
        <time>2020-07-07T09:28:59.000Z</time>
      </trkpt>
      <trkpt lat="44.40496" lon="6.39458">
        <ele>2238</ele>
        <time>2020-07-07T09:29:00.000Z</time>
      </trkpt>
      <trkpt lat="44.40495" lon="6.39458">
        <ele>2238</ele>
        <time>2020-07-07T09:29:01.000Z</time>
      </trkpt>
      <trkpt lat="44.40494" lon="6.39459">
        <ele>2238</ele>
        <time>2020-07-07T09:29:02.000Z</time>
      </trkpt>
      <trkpt lat="44.40492" lon="6.39459">
        <ele>2238</ele>
        <time>2020-07-07T09:29:03.000Z</time>
      </trkpt>
      <trkpt lat="44.40492" lon="6.39459">
        <ele>2238</ele>
        <time>2020-07-07T09:29:04.000Z</time>
      </trkpt>
      <trkpt lat="44.40492" lon="6.39459">
        <ele>2238</ele>
        <time>2020-07-07T09:29:05.000Z</time>
      </trkpt>
      <trkpt lat="44.40492" lon="6.39459">
        <ele>2238</ele>
        <time>2020-07-07T09:29:06.000Z</time>
      </trkpt>
      <trkpt lat="44.40491" lon="6.39458">
        <ele>2238</ele>
        <time>2020-07-07T09:29:07.000Z</time>
      </trkpt>
      <trkpt lat="44.4049" lon="6.39457">
        <ele>2238</ele>
        <time>2020-07-07T09:29:08.000Z</time>
      </trkpt>
      <trkpt lat="44.40489" lon="6.39457">
        <ele>2238</ele>
        <time>2020-07-07T09:29:09.000Z</time>
      </trkpt>
      <trkpt lat="44.40488" lon="6.39456">
        <ele>2238</ele>
        <time>2020-07-07T09:29:10.000Z</time>
      </trkpt>
      <trkpt lat="44.40487" lon="6.39456">
        <ele>2238</ele>
        <time>2020-07-07T09:29:11.000Z</time>
      </trkpt>
      <trkpt lat="44.40486" lon="6.39457">
        <ele>2237</ele>
        <time>2020-07-07T09:29:12.000Z</time>
      </trkpt>
      <trkpt lat="44.40485" lon="6.39457">
        <ele>2237</ele>
        <time>2020-07-07T09:29:13.000Z</time>
      </trkpt>
      <trkpt lat="44.40484" lon="6.39457">
        <ele>2237</ele>
        <time>2020-07-07T09:29:14.000Z</time>
      </trkpt>
      <trkpt lat="44.40483" lon="6.39458">
        <ele>2237</ele>
        <time>2020-07-07T09:29:15.000Z</time>
      </trkpt>
      <trkpt lat="44.40482" lon="6.39458">
        <ele>2237</ele>
        <time>2020-07-07T09:29:16.000Z</time>
      </trkpt>
      <trkpt lat="44.40481" lon="6.39459">
        <ele>2237</ele>
        <time>2020-07-07T09:29:17.000Z</time>
      </trkpt>
      <trkpt lat="44.40481" lon="6.3946">
        <ele>2237</ele>
        <time>2020-07-07T09:29:18.000Z</time>
      </trkpt>
      <trkpt lat="44.40481" lon="6.39461">
        <ele>2237</ele>
        <time>2020-07-07T09:29:19.000Z</time>
      </trkpt>
      <trkpt lat="44.4048" lon="6.39462">
        <ele>2237</ele>
        <time>2020-07-07T09:29:20.000Z</time>
      </trkpt>
      <trkpt lat="44.4048" lon="6.39464">
        <ele>2237</ele>
        <time>2020-07-07T09:29:21.000Z</time>
      </trkpt>
      <trkpt lat="44.40479" lon="6.39465">
        <ele>2237</ele>
        <time>2020-07-07T09:29:22.000Z</time>
      </trkpt>
      <trkpt lat="44.40479" lon="6.39466">
        <ele>2236</ele>
        <time>2020-07-07T09:29:23.000Z</time>
      </trkpt>
      <trkpt lat="44.40479" lon="6.39467">
        <ele>2236</ele>
        <time>2020-07-07T09:29:24.000Z</time>
      </trkpt>
      <trkpt lat="44.40479" lon="6.39468">
        <ele>2236</ele>
        <time>2020-07-07T09:29:25.000Z</time>
      </trkpt>
      <trkpt lat="44.40478" lon="6.39469">
        <ele>2236</ele>
        <time>2020-07-07T09:29:26.000Z</time>
      </trkpt>
      <trkpt lat="44.40478" lon="6.3947">
        <ele>2236</ele>
        <time>2020-07-07T09:29:27.000Z</time>
      </trkpt>
      <trkpt lat="44.40478" lon="6.3947">
        <ele>2236</ele>
        <time>2020-07-07T09:29:28.000Z</time>
      </trkpt>
      <trkpt lat="44.40478" lon="6.3947">
        <ele>2236</ele>
        <time>2020-07-07T09:29:29.000Z</time>
      </trkpt>
      <trkpt lat="44.40478" lon="6.3947">
        <ele>2236</ele>
        <time>2020-07-07T09:29:30.000Z</time>
      </trkpt>
      <trkpt lat="44.40478" lon="6.3947">
        <ele>2236</ele>
        <time>2020-07-07T09:29:31.000Z</time>
      </trkpt>
      <trkpt lat="44.40478" lon="6.39471">
        <ele>2236</ele>
        <time>2020-07-07T09:29:32.000Z</time>
      </trkpt>
      <trkpt lat="44.40478" lon="6.39472">
        <ele>2236</ele>
        <time>2020-07-07T09:29:33.000Z</time>
      </trkpt>
      <trkpt lat="44.40478" lon="6.39473">
        <ele>2235</ele>
        <time>2020-07-07T09:29:34.000Z</time>
      </trkpt>
      <trkpt lat="44.40478" lon="6.39474">
        <ele>2235</ele>
        <time>2020-07-07T09:29:35.000Z</time>
      </trkpt>
      <trkpt lat="44.40478" lon="6.39475">
        <ele>2235</ele>
        <time>2020-07-07T09:29:36.000Z</time>
      </trkpt>
      <trkpt lat="44.40478" lon="6.39476">
        <ele>2235</ele>
        <time>2020-07-07T09:29:37.000Z</time>
      </trkpt>
      <trkpt lat="44.40478" lon="6.39477">
        <ele>2235</ele>
        <time>2020-07-07T09:29:38.000Z</time>
      </trkpt>
      <trkpt lat="44.40479" lon="6.39478">
        <ele>2234</ele>
        <time>2020-07-07T09:29:39.000Z</time>
      </trkpt>
      <trkpt lat="44.40479" lon="6.39479">
        <ele>2234</ele>
        <time>2020-07-07T09:29:40.000Z</time>
      </trkpt>
      <trkpt lat="44.40479" lon="6.3948">
        <ele>2234</ele>
        <time>2020-07-07T09:29:41.000Z</time>
      </trkpt>
      <trkpt lat="44.40479" lon="6.39481">
        <ele>2234</ele>
        <time>2020-07-07T09:29:42.000Z</time>
      </trkpt>
      <trkpt lat="44.40479" lon="6.39482">
        <ele>2234</ele>
        <time>2020-07-07T09:29:43.000Z</time>
      </trkpt>
      <trkpt lat="44.4048" lon="6.39483">
        <ele>2233</ele>
        <time>2020-07-07T09:29:44.000Z</time>
      </trkpt>
      <trkpt lat="44.4048" lon="6.39484">
        <ele>2233</ele>
        <time>2020-07-07T09:29:45.000Z</time>
      </trkpt>
      <trkpt lat="44.4048" lon="6.39485">
        <ele>2233</ele>
        <time>2020-07-07T09:29:46.000Z</time>
      </trkpt>
      <trkpt lat="44.4048" lon="6.39486">
        <ele>2233</ele>
        <time>2020-07-07T09:29:47.000Z</time>
      </trkpt>
      <trkpt lat="44.4048" lon="6.39487">
        <ele>2232</ele>
        <time>2020-07-07T09:29:48.000Z</time>
      </trkpt>
      <trkpt lat="44.4048" lon="6.39488">
        <ele>2232</ele>
        <time>2020-07-07T09:29:49.000Z</time>
      </trkpt>
      <trkpt lat="44.4048" lon="6.39489">
        <ele>2232</ele>
        <time>2020-07-07T09:29:50.000Z</time>
      </trkpt>
      <trkpt lat="44.4048" lon="6.39489">
        <ele>2232</ele>
        <time>2020-07-07T09:29:51.000Z</time>
      </trkpt>
      <trkpt lat="44.4048" lon="6.3949">
        <ele>2232</ele>
        <time>2020-07-07T09:29:52.000Z</time>
      </trkpt>
      <trkpt lat="44.40481" lon="6.39492">
        <ele>2231</ele>
        <time>2020-07-07T09:29:53.000Z</time>
      </trkpt>
      <trkpt lat="44.40481" lon="6.39493">
        <ele>2231</ele>
        <time>2020-07-07T09:29:54.000Z</time>
      </trkpt>
      <trkpt lat="44.40481" lon="6.39493">
        <ele>2231</ele>
        <time>2020-07-07T09:29:55.000Z</time>
      </trkpt>
      <trkpt lat="44.40481" lon="6.39494">
        <ele>2231</ele>
        <time>2020-07-07T09:29:56.000Z</time>
      </trkpt>
      <trkpt lat="44.40481" lon="6.39495">
        <ele>2231</ele>
        <time>2020-07-07T09:29:57.000Z</time>
      </trkpt>
      <trkpt lat="44.40481" lon="6.39496">
        <ele>2231</ele>
        <time>2020-07-07T09:29:58.000Z</time>
      </trkpt>
      <trkpt lat="44.40481" lon="6.39497">
        <ele>2231</ele>
        <time>2020-07-07T09:29:59.000Z</time>
      </trkpt>
      <trkpt lat="44.40481" lon="6.39498">
        <ele>2231</ele>
        <time>2020-07-07T09:30:00.000Z</time>
      </trkpt>
      <trkpt lat="44.40481" lon="6.39498">
        <ele>2230</ele>
        <time>2020-07-07T09:30:01.000Z</time>
      </trkpt>
      <trkpt lat="44.40481" lon="6.39499">
        <ele>2230</ele>
        <time>2020-07-07T09:30:02.000Z</time>
      </trkpt>
      <trkpt lat="44.40481" lon="6.39501">
        <ele>2230</ele>
        <time>2020-07-07T09:30:03.000Z</time>
      </trkpt>
      <trkpt lat="44.4048" lon="6.39502">
        <ele>2230</ele>
        <time>2020-07-07T09:30:04.000Z</time>
      </trkpt>
      <trkpt lat="44.4048" lon="6.39502">
        <ele>2229</ele>
        <time>2020-07-07T09:30:05.000Z</time>
      </trkpt>
      <trkpt lat="44.4048" lon="6.39503">
        <ele>2229</ele>
        <time>2020-07-07T09:30:06.000Z</time>
      </trkpt>
      <trkpt lat="44.4048" lon="6.39504">
        <ele>2229</ele>
        <time>2020-07-07T09:30:07.000Z</time>
      </trkpt>
      <trkpt lat="44.40479" lon="6.39505">
        <ele>2229</ele>
        <time>2020-07-07T09:30:08.000Z</time>
      </trkpt>
      <trkpt lat="44.40479" lon="6.39506">
        <ele>2229</ele>
        <time>2020-07-07T09:30:09.000Z</time>
      </trkpt>
      <trkpt lat="44.40479" lon="6.39508">
        <ele>2228</ele>
        <time>2020-07-07T09:30:10.000Z</time>
      </trkpt>
      <trkpt lat="44.40479" lon="6.39509">
        <ele>2228</ele>
        <time>2020-07-07T09:30:11.000Z</time>
      </trkpt>
      <trkpt lat="44.40478" lon="6.39509">
        <ele>2228</ele>
        <time>2020-07-07T09:30:12.000Z</time>
      </trkpt>
      <trkpt lat="44.40477" lon="6.3951">
        <ele>2227</ele>
        <time>2020-07-07T09:30:13.000Z</time>
      </trkpt>
      <trkpt lat="44.40476" lon="6.39511">
        <ele>2227</ele>
        <time>2020-07-07T09:30:14.000Z</time>
      </trkpt>
      <trkpt lat="44.40476" lon="6.39512">
        <ele>2227</ele>
        <time>2020-07-07T09:30:15.000Z</time>
      </trkpt>
      <trkpt lat="44.40475" lon="6.39514">
        <ele>2227</ele>
        <time>2020-07-07T09:30:16.000Z</time>
      </trkpt>
      <trkpt lat="44.40475" lon="6.39515">
        <ele>2226</ele>
        <time>2020-07-07T09:30:17.000Z</time>
      </trkpt>
      <trkpt lat="44.40475" lon="6.39516">
        <ele>2226</ele>
        <time>2020-07-07T09:30:18.000Z</time>
      </trkpt>
      <trkpt lat="44.40475" lon="6.39518">
        <ele>2226</ele>
        <time>2020-07-07T09:30:19.000Z</time>
      </trkpt>
      <trkpt lat="44.40475" lon="6.39519">
        <ele>2226</ele>
        <time>2020-07-07T09:30:20.000Z</time>
      </trkpt>
      <trkpt lat="44.40475" lon="6.3952">
        <ele>2226</ele>
        <time>2020-07-07T09:30:21.000Z</time>
      </trkpt>
      <trkpt lat="44.40475" lon="6.39521">
        <ele>2226</ele>
        <time>2020-07-07T09:30:22.000Z</time>
      </trkpt>
      <trkpt lat="44.40474" lon="6.39522">
        <ele>2226</ele>
        <time>2020-07-07T09:30:23.000Z</time>
      </trkpt>
      <trkpt lat="44.40474" lon="6.39523">
        <ele>2226</ele>
        <time>2020-07-07T09:30:24.000Z</time>
      </trkpt>
      <trkpt lat="44.40474" lon="6.39524">
        <ele>2226</ele>
        <time>2020-07-07T09:30:25.000Z</time>
      </trkpt>
      <trkpt lat="44.40474" lon="6.39524">
        <ele>2226</ele>
        <time>2020-07-07T09:30:26.000Z</time>
      </trkpt>
      <trkpt lat="44.40473" lon="6.39525">
        <ele>2226</ele>
        <time>2020-07-07T09:30:27.000Z</time>
      </trkpt>
      <trkpt lat="44.40473" lon="6.39526">
        <ele>2225</ele>
        <time>2020-07-07T09:30:28.000Z</time>
      </trkpt>
      <trkpt lat="44.40473" lon="6.39527">
        <ele>2225</ele>
        <time>2020-07-07T09:30:29.000Z</time>
      </trkpt>
      <trkpt lat="44.40473" lon="6.39528">
        <ele>2225</ele>
        <time>2020-07-07T09:30:30.000Z</time>
      </trkpt>
      <trkpt lat="44.40472" lon="6.39528">
        <ele>2225</ele>
        <time>2020-07-07T09:30:31.000Z</time>
      </trkpt>
      <trkpt lat="44.40472" lon="6.39529">
        <ele>2225</ele>
        <time>2020-07-07T09:30:32.000Z</time>
      </trkpt>
      <trkpt lat="44.40472" lon="6.3953">
        <ele>2225</ele>
        <time>2020-07-07T09:30:33.000Z</time>
      </trkpt>
      <trkpt lat="44.40471" lon="6.39531">
        <ele>2225</ele>
        <time>2020-07-07T09:30:34.000Z</time>
      </trkpt>
      <trkpt lat="44.4047" lon="6.39531">
        <ele>2225</ele>
        <time>2020-07-07T09:30:35.000Z</time>
      </trkpt>
      <trkpt lat="44.4047" lon="6.39532">
        <ele>2224</ele>
        <time>2020-07-07T09:30:36.000Z</time>
      </trkpt>
      <trkpt lat="44.40469" lon="6.39532">
        <ele>2224</ele>
        <time>2020-07-07T09:30:37.000Z</time>
      </trkpt>
      <trkpt lat="44.40469" lon="6.39534">
        <ele>2224</ele>
        <time>2020-07-07T09:30:38.000Z</time>
      </trkpt>
      <trkpt lat="44.40468" lon="6.39535">
        <ele>2223</ele>
        <time>2020-07-07T09:30:39.000Z</time>
      </trkpt>
      <trkpt lat="44.40468" lon="6.39536">
        <ele>2223</ele>
        <time>2020-07-07T09:30:40.000Z</time>
      </trkpt>
      <trkpt lat="44.40467" lon="6.39536">
        <ele>2223</ele>
        <time>2020-07-07T09:30:41.000Z</time>
      </trkpt>
      <trkpt lat="44.40466" lon="6.39536">
        <ele>2223</ele>
        <time>2020-07-07T09:30:42.000Z</time>
      </trkpt>
      <trkpt lat="44.40465" lon="6.39537">
        <ele>2223</ele>
        <time>2020-07-07T09:30:43.000Z</time>
      </trkpt>
      <trkpt lat="44.40465" lon="6.39537">
        <ele>2223</ele>
        <time>2020-07-07T09:30:44.000Z</time>
      </trkpt>
      <trkpt lat="44.40464" lon="6.39537">
        <ele>2223</ele>
        <time>2020-07-07T09:30:45.000Z</time>
      </trkpt>
      <trkpt lat="44.40464" lon="6.39537">
        <ele>2222</ele>
        <time>2020-07-07T09:30:46.000Z</time>
      </trkpt>
      <trkpt lat="44.40463" lon="6.39536">
        <ele>2222</ele>
        <time>2020-07-07T09:30:47.000Z</time>
      </trkpt>
      <trkpt lat="44.40462" lon="6.39536">
        <ele>2222</ele>
        <time>2020-07-07T09:30:48.000Z</time>
      </trkpt>
      <trkpt lat="44.40461" lon="6.39535">
        <ele>2222</ele>
        <time>2020-07-07T09:30:49.000Z</time>
      </trkpt>
      <trkpt lat="44.4046" lon="6.39534">
        <ele>2222</ele>
        <time>2020-07-07T09:30:50.000Z</time>
      </trkpt>
      <trkpt lat="44.4046" lon="6.39534">
        <ele>2222</ele>
        <time>2020-07-07T09:30:51.000Z</time>
      </trkpt>
      <trkpt lat="44.40459" lon="6.39534">
        <ele>2222</ele>
        <time>2020-07-07T09:30:52.000Z</time>
      </trkpt>
      <trkpt lat="44.40458" lon="6.39534">
        <ele>2222</ele>
        <time>2020-07-07T09:30:53.000Z</time>
      </trkpt>
      <trkpt lat="44.40458" lon="6.39533">
        <ele>2222</ele>
        <time>2020-07-07T09:30:54.000Z</time>
      </trkpt>
      <trkpt lat="44.40457" lon="6.39532">
        <ele>2222</ele>
        <time>2020-07-07T09:30:55.000Z</time>
      </trkpt>
      <trkpt lat="44.40456" lon="6.39532">
        <ele>2222</ele>
        <time>2020-07-07T09:30:56.000Z</time>
      </trkpt>
      <trkpt lat="44.40455" lon="6.39531">
        <ele>2222</ele>
        <time>2020-07-07T09:30:57.000Z</time>
      </trkpt>
      <trkpt lat="44.40454" lon="6.3953">
        <ele>2222</ele>
        <time>2020-07-07T09:30:58.000Z</time>
      </trkpt>
      <trkpt lat="44.40453" lon="6.39529">
        <ele>2221</ele>
        <time>2020-07-07T09:30:59.000Z</time>
      </trkpt>
      <trkpt lat="44.40453" lon="6.39529">
        <ele>2221</ele>
        <time>2020-07-07T09:31:00.000Z</time>
      </trkpt>
      <trkpt lat="44.40452" lon="6.39528">
        <ele>2221</ele>
        <time>2020-07-07T09:31:01.000Z</time>
      </trkpt>
      <trkpt lat="44.40451" lon="6.39528">
        <ele>2221</ele>
        <time>2020-07-07T09:31:02.000Z</time>
      </trkpt>
      <trkpt lat="44.4045" lon="6.39527">
        <ele>2221</ele>
        <time>2020-07-07T09:31:03.000Z</time>
      </trkpt>
      <trkpt lat="44.4045" lon="6.39527">
        <ele>2220</ele>
        <time>2020-07-07T09:31:04.000Z</time>
      </trkpt>
      <trkpt lat="44.40448" lon="6.39526">
        <ele>2220</ele>
        <time>2020-07-07T09:31:05.000Z</time>
      </trkpt>
      <trkpt lat="44.40447" lon="6.39525">
        <ele>2220</ele>
        <time>2020-07-07T09:31:06.000Z</time>
      </trkpt>
      <trkpt lat="44.40446" lon="6.39525">
        <ele>2220</ele>
        <time>2020-07-07T09:31:07.000Z</time>
      </trkpt>
      <trkpt lat="44.40445" lon="6.39524">
        <ele>2220</ele>
        <time>2020-07-07T09:31:08.000Z</time>
      </trkpt>
      <trkpt lat="44.40444" lon="6.39523">
        <ele>2220</ele>
        <time>2020-07-07T09:31:09.000Z</time>
      </trkpt>
      <trkpt lat="44.40443" lon="6.39522">
        <ele>2220</ele>
        <time>2020-07-07T09:31:10.000Z</time>
      </trkpt>
      <trkpt lat="44.40443" lon="6.39522">
        <ele>2220</ele>
        <time>2020-07-07T09:31:11.000Z</time>
      </trkpt>
      <trkpt lat="44.40442" lon="6.39521">
        <ele>2219</ele>
        <time>2020-07-07T09:31:12.000Z</time>
      </trkpt>
      <trkpt lat="44.40441" lon="6.39519">
        <ele>2219</ele>
        <time>2020-07-07T09:31:13.000Z</time>
      </trkpt>
      <trkpt lat="44.40439" lon="6.39518">
        <ele>2219</ele>
        <time>2020-07-07T09:31:14.000Z</time>
      </trkpt>
      <trkpt lat="44.40438" lon="6.39518">
        <ele>2219</ele>
        <time>2020-07-07T09:31:15.000Z</time>
      </trkpt>
      <trkpt lat="44.40438" lon="6.39516">
        <ele>2219</ele>
        <time>2020-07-07T09:31:16.000Z</time>
      </trkpt>
      <trkpt lat="44.40438" lon="6.39514">
        <ele>2218</ele>
        <time>2020-07-07T09:31:17.000Z</time>
      </trkpt>
      <trkpt lat="44.40438" lon="6.39513">
        <ele>2218</ele>
        <time>2020-07-07T09:31:18.000Z</time>
      </trkpt>
      <trkpt lat="44.40438" lon="6.3951">
        <ele>2218</ele>
        <time>2020-07-07T09:31:19.000Z</time>
      </trkpt>
      <trkpt lat="44.40438" lon="6.39508">
        <ele>2218</ele>
        <time>2020-07-07T09:31:20.000Z</time>
      </trkpt>
      <trkpt lat="44.40438" lon="6.39506">
        <ele>2217</ele>
        <time>2020-07-07T09:31:21.000Z</time>
      </trkpt>
      <trkpt lat="44.40438" lon="6.39505">
        <ele>2217</ele>
        <time>2020-07-07T09:31:22.000Z</time>
      </trkpt>
      <trkpt lat="44.40438" lon="6.39503">
        <ele>2217</ele>
        <time>2020-07-07T09:31:23.000Z</time>
      </trkpt>
      <trkpt lat="44.40438" lon="6.39501">
        <ele>2217</ele>
        <time>2020-07-07T09:31:24.000Z</time>
      </trkpt>
      <trkpt lat="44.40437" lon="6.395">
        <ele>2216</ele>
        <time>2020-07-07T09:31:25.000Z</time>
      </trkpt>
      <trkpt lat="44.40437" lon="6.39499">
        <ele>2216</ele>
        <time>2020-07-07T09:31:26.000Z</time>
      </trkpt>
      <trkpt lat="44.40437" lon="6.39498">
        <ele>2216</ele>
        <time>2020-07-07T09:31:27.000Z</time>
      </trkpt>
      <trkpt lat="44.40438" lon="6.39496">
        <ele>2215</ele>
        <time>2020-07-07T09:31:28.000Z</time>
      </trkpt>
      <trkpt lat="44.40438" lon="6.39492">
        <ele>2215</ele>
        <time>2020-07-07T09:31:29.000Z</time>
      </trkpt>
      <trkpt lat="44.40438" lon="6.39489">
        <ele>2215</ele>
        <time>2020-07-07T09:31:30.000Z</time>
      </trkpt>
      <trkpt lat="44.40438" lon="6.39487">
        <ele>2215</ele>
        <time>2020-07-07T09:31:31.000Z</time>
      </trkpt>
      <trkpt lat="44.40438" lon="6.39485">
        <ele>2215</ele>
        <time>2020-07-07T09:31:32.000Z</time>
      </trkpt>
      <trkpt lat="44.40437" lon="6.39483">
        <ele>2215</ele>
        <time>2020-07-07T09:31:33.000Z</time>
      </trkpt>
      <trkpt lat="44.40437" lon="6.39482">
        <ele>2214</ele>
        <time>2020-07-07T09:31:34.000Z</time>
      </trkpt>
      <trkpt lat="44.40437" lon="6.39481">
        <ele>2214</ele>
        <time>2020-07-07T09:31:35.000Z</time>
      </trkpt>
      <trkpt lat="44.40437" lon="6.39479">
        <ele>2214</ele>
        <time>2020-07-07T09:31:36.000Z</time>
      </trkpt>
      <trkpt lat="44.40436" lon="6.39477">
        <ele>2214</ele>
        <time>2020-07-07T09:31:37.000Z</time>
      </trkpt>
      <trkpt lat="44.40436" lon="6.39474">
        <ele>2214</ele>
        <time>2020-07-07T09:31:38.000Z</time>
      </trkpt>
      <trkpt lat="44.40435" lon="6.39472">
        <ele>2214</ele>
        <time>2020-07-07T09:31:39.000Z</time>
      </trkpt>
      <trkpt lat="44.40434" lon="6.39471">
        <ele>2214</ele>
        <time>2020-07-07T09:31:40.000Z</time>
      </trkpt>
      <trkpt lat="44.40434" lon="6.39469">
        <ele>2214</ele>
        <time>2020-07-07T09:31:41.000Z</time>
      </trkpt>
      <trkpt lat="44.40434" lon="6.39468">
        <ele>2214</ele>
        <time>2020-07-07T09:31:42.000Z</time>
      </trkpt>
      <trkpt lat="44.40433" lon="6.39466">
        <ele>2214</ele>
        <time>2020-07-07T09:31:43.000Z</time>
      </trkpt>
      <trkpt lat="44.40433" lon="6.39465">
        <ele>2214</ele>
        <time>2020-07-07T09:31:44.000Z</time>
      </trkpt>
      <trkpt lat="44.40432" lon="6.39463">
        <ele>2214</ele>
        <time>2020-07-07T09:31:45.000Z</time>
      </trkpt>
      <trkpt lat="44.40431" lon="6.39462">
        <ele>2213</ele>
        <time>2020-07-07T09:31:46.000Z</time>
      </trkpt>
      <trkpt lat="44.4043" lon="6.3946">
        <ele>2213</ele>
        <time>2020-07-07T09:31:47.000Z</time>
      </trkpt>
      <trkpt lat="44.4043" lon="6.39459">
        <ele>2213</ele>
        <time>2020-07-07T09:31:48.000Z</time>
      </trkpt>
      <trkpt lat="44.40429" lon="6.39458">
        <ele>2213</ele>
        <time>2020-07-07T09:31:49.000Z</time>
      </trkpt>
      <trkpt lat="44.40428" lon="6.39457">
        <ele>2213</ele>
        <time>2020-07-07T09:31:50.000Z</time>
      </trkpt>
      <trkpt lat="44.40427" lon="6.39456">
        <ele>2213</ele>
        <time>2020-07-07T09:31:51.000Z</time>
      </trkpt>
      <trkpt lat="44.40427" lon="6.39454">
        <ele>2213</ele>
        <time>2020-07-07T09:31:52.000Z</time>
      </trkpt>
      <trkpt lat="44.40426" lon="6.39453">
        <ele>2213</ele>
        <time>2020-07-07T09:31:53.000Z</time>
      </trkpt>
      <trkpt lat="44.40425" lon="6.39452">
        <ele>2212</ele>
        <time>2020-07-07T09:31:54.000Z</time>
      </trkpt>
      <trkpt lat="44.40424" lon="6.3945">
        <ele>2212</ele>
        <time>2020-07-07T09:31:55.000Z</time>
      </trkpt>
      <trkpt lat="44.40423" lon="6.39449">
        <ele>2212</ele>
        <time>2020-07-07T09:31:56.000Z</time>
      </trkpt>
      <trkpt lat="44.40422" lon="6.39448">
        <ele>2212</ele>
        <time>2020-07-07T09:31:57.000Z</time>
      </trkpt>
      <trkpt lat="44.40421" lon="6.39446">
        <ele>2212</ele>
        <time>2020-07-07T09:31:58.000Z</time>
      </trkpt>
      <trkpt lat="44.4042" lon="6.39445">
        <ele>2212</ele>
        <time>2020-07-07T09:31:59.000Z</time>
      </trkpt>
      <trkpt lat="44.40419" lon="6.39444">
        <ele>2212</ele>
        <time>2020-07-07T09:32:00.000Z</time>
      </trkpt>
      <trkpt lat="44.40418" lon="6.39442">
        <ele>2212</ele>
        <time>2020-07-07T09:32:01.000Z</time>
      </trkpt>
      <trkpt lat="44.40418" lon="6.39441">
        <ele>2212</ele>
        <time>2020-07-07T09:32:02.000Z</time>
      </trkpt>
      <trkpt lat="44.40416" lon="6.3944">
        <ele>2212</ele>
        <time>2020-07-07T09:32:03.000Z</time>
      </trkpt>
      <trkpt lat="44.40415" lon="6.39439">
        <ele>2211</ele>
        <time>2020-07-07T09:32:04.000Z</time>
      </trkpt>
      <trkpt lat="44.40414" lon="6.39439">
        <ele>2211</ele>
        <time>2020-07-07T09:32:05.000Z</time>
      </trkpt>
      <trkpt lat="44.40413" lon="6.39438">
        <ele>2211</ele>
        <time>2020-07-07T09:32:06.000Z</time>
      </trkpt>
      <trkpt lat="44.40412" lon="6.39438">
        <ele>2211</ele>
        <time>2020-07-07T09:32:07.000Z</time>
      </trkpt>
      <trkpt lat="44.40411" lon="6.39437">
        <ele>2211</ele>
        <time>2020-07-07T09:32:08.000Z</time>
      </trkpt>
      <trkpt lat="44.4041" lon="6.39437">
        <ele>2210</ele>
        <time>2020-07-07T09:32:09.000Z</time>
      </trkpt>
      <trkpt lat="44.40409" lon="6.39436">
        <ele>2210</ele>
        <time>2020-07-07T09:32:10.000Z</time>
      </trkpt>
      <trkpt lat="44.40408" lon="6.39435">
        <ele>2210</ele>
        <time>2020-07-07T09:32:11.000Z</time>
      </trkpt>
      <trkpt lat="44.40407" lon="6.39434">
        <ele>2210</ele>
        <time>2020-07-07T09:32:12.000Z</time>
      </trkpt>
      <trkpt lat="44.40407" lon="6.39433">
        <ele>2210</ele>
        <time>2020-07-07T09:32:13.000Z</time>
      </trkpt>
      <trkpt lat="44.40407" lon="6.39433">
        <ele>2209</ele>
        <time>2020-07-07T09:32:14.000Z</time>
      </trkpt>
      <trkpt lat="44.40406" lon="6.39433">
        <ele>2209</ele>
        <time>2020-07-07T09:32:15.000Z</time>
      </trkpt>
      <trkpt lat="44.40405" lon="6.39432">
        <ele>2209</ele>
        <time>2020-07-07T09:32:16.000Z</time>
      </trkpt>
      <trkpt lat="44.40405" lon="6.39431">
        <ele>2209</ele>
        <time>2020-07-07T09:32:17.000Z</time>
      </trkpt>
      <trkpt lat="44.40404" lon="6.39429">
        <ele>2209</ele>
        <time>2020-07-07T09:32:18.000Z</time>
      </trkpt>
      <trkpt lat="44.40404" lon="6.39428">
        <ele>2209</ele>
        <time>2020-07-07T09:32:19.000Z</time>
      </trkpt>
      <trkpt lat="44.40403" lon="6.39426">
        <ele>2208</ele>
        <time>2020-07-07T09:32:20.000Z</time>
      </trkpt>
      <trkpt lat="44.40402" lon="6.39425">
        <ele>2208</ele>
        <time>2020-07-07T09:32:21.000Z</time>
      </trkpt>
      <trkpt lat="44.40402" lon="6.39424">
        <ele>2208</ele>
        <time>2020-07-07T09:32:22.000Z</time>
      </trkpt>
      <trkpt lat="44.40402" lon="6.39423">
        <ele>2208</ele>
        <time>2020-07-07T09:32:23.000Z</time>
      </trkpt>
      <trkpt lat="44.40402" lon="6.39421">
        <ele>2208</ele>
        <time>2020-07-07T09:32:24.000Z</time>
      </trkpt>
      <trkpt lat="44.40401" lon="6.3942">
        <ele>2208</ele>
        <time>2020-07-07T09:32:25.000Z</time>
      </trkpt>
      <trkpt lat="44.40401" lon="6.39418">
        <ele>2208</ele>
        <time>2020-07-07T09:32:26.000Z</time>
      </trkpt>
      <trkpt lat="44.40401" lon="6.39416">
        <ele>2208</ele>
        <time>2020-07-07T09:32:27.000Z</time>
      </trkpt>
      <trkpt lat="44.404" lon="6.39414">
        <ele>2207</ele>
        <time>2020-07-07T09:32:28.000Z</time>
      </trkpt>
      <trkpt lat="44.404" lon="6.39413">
        <ele>2207</ele>
        <time>2020-07-07T09:32:29.000Z</time>
      </trkpt>
      <trkpt lat="44.404" lon="6.39411">
        <ele>2207</ele>
        <time>2020-07-07T09:32:30.000Z</time>
      </trkpt>
      <trkpt lat="44.404" lon="6.39409">
        <ele>2207</ele>
        <time>2020-07-07T09:32:31.000Z</time>
      </trkpt>
      <trkpt lat="44.404" lon="6.39408">
        <ele>2206</ele>
        <time>2020-07-07T09:32:32.000Z</time>
      </trkpt>
      <trkpt lat="44.404" lon="6.39406">
        <ele>2206</ele>
        <time>2020-07-07T09:32:33.000Z</time>
      </trkpt>
      <trkpt lat="44.40399" lon="6.39404">
        <ele>2206</ele>
        <time>2020-07-07T09:32:34.000Z</time>
      </trkpt>
      <trkpt lat="44.40399" lon="6.39403">
        <ele>2206</ele>
        <time>2020-07-07T09:32:35.000Z</time>
      </trkpt>
      <trkpt lat="44.40399" lon="6.39401">
        <ele>2205</ele>
        <time>2020-07-07T09:32:36.000Z</time>
      </trkpt>
      <trkpt lat="44.40399" lon="6.394">
        <ele>2205</ele>
        <time>2020-07-07T09:32:37.000Z</time>
      </trkpt>
      <trkpt lat="44.40398" lon="6.39399">
        <ele>2205</ele>
        <time>2020-07-07T09:32:38.000Z</time>
      </trkpt>
      <trkpt lat="44.40398" lon="6.39397">
        <ele>2204</ele>
        <time>2020-07-07T09:32:39.000Z</time>
      </trkpt>
      <trkpt lat="44.40398" lon="6.39395">
        <ele>2204</ele>
        <time>2020-07-07T09:32:40.000Z</time>
      </trkpt>
      <trkpt lat="44.40397" lon="6.39394">
        <ele>2204</ele>
        <time>2020-07-07T09:32:41.000Z</time>
      </trkpt>
      <trkpt lat="44.40397" lon="6.39393">
        <ele>2203</ele>
        <time>2020-07-07T09:32:42.000Z</time>
      </trkpt>
      <trkpt lat="44.40397" lon="6.39391">
        <ele>2203</ele>
        <time>2020-07-07T09:32:43.000Z</time>
      </trkpt>
      <trkpt lat="44.40396" lon="6.39389">
        <ele>2203</ele>
        <time>2020-07-07T09:32:44.000Z</time>
      </trkpt>
      <trkpt lat="44.40396" lon="6.39388">
        <ele>2202</ele>
        <time>2020-07-07T09:32:45.000Z</time>
      </trkpt>
      <trkpt lat="44.40396" lon="6.39387">
        <ele>2202</ele>
        <time>2020-07-07T09:32:46.000Z</time>
      </trkpt>
      <trkpt lat="44.40395" lon="6.39385">
        <ele>2202</ele>
        <time>2020-07-07T09:32:47.000Z</time>
      </trkpt>
      <trkpt lat="44.40394" lon="6.39384">
        <ele>2201</ele>
        <time>2020-07-07T09:32:48.000Z</time>
      </trkpt>
      <trkpt lat="44.40394" lon="6.39383">
        <ele>2201</ele>
        <time>2020-07-07T09:32:49.000Z</time>
      </trkpt>
      <trkpt lat="44.40394" lon="6.39382">
        <ele>2201</ele>
        <time>2020-07-07T09:32:50.000Z</time>
      </trkpt>
      <trkpt lat="44.40393" lon="6.39381">
        <ele>2201</ele>
        <time>2020-07-07T09:32:51.000Z</time>
      </trkpt>
      <trkpt lat="44.40393" lon="6.3938">
        <ele>2200</ele>
        <time>2020-07-07T09:32:52.000Z</time>
      </trkpt>
      <trkpt lat="44.40392" lon="6.39379">
        <ele>2200</ele>
        <time>2020-07-07T09:32:53.000Z</time>
      </trkpt>
      <trkpt lat="44.40391" lon="6.39378">
        <ele>2200</ele>
        <time>2020-07-07T09:32:54.000Z</time>
      </trkpt>
      <trkpt lat="44.40391" lon="6.39377">
        <ele>2200</ele>
        <time>2020-07-07T09:32:55.000Z</time>
      </trkpt>
      <trkpt lat="44.4039" lon="6.39376">
        <ele>2199</ele>
        <time>2020-07-07T09:32:56.000Z</time>
      </trkpt>
      <trkpt lat="44.40389" lon="6.39374">
        <ele>2199</ele>
        <time>2020-07-07T09:32:57.000Z</time>
      </trkpt>
      <trkpt lat="44.40388" lon="6.39373">
        <ele>2199</ele>
        <time>2020-07-07T09:32:58.000Z</time>
      </trkpt>
      <trkpt lat="44.40387" lon="6.39372">
        <ele>2199</ele>
        <time>2020-07-07T09:32:59.000Z</time>
      </trkpt>
      <trkpt lat="44.40386" lon="6.39371">
        <ele>2199</ele>
        <time>2020-07-07T09:33:00.000Z</time>
      </trkpt>
      <trkpt lat="44.40385" lon="6.3937">
        <ele>2199</ele>
        <time>2020-07-07T09:33:01.000Z</time>
      </trkpt>
      <trkpt lat="44.40384" lon="6.39369">
        <ele>2198</ele>
        <time>2020-07-07T09:33:02.000Z</time>
      </trkpt>
      <trkpt lat="44.40383" lon="6.39368">
        <ele>2198</ele>
        <time>2020-07-07T09:33:03.000Z</time>
      </trkpt>
      <trkpt lat="44.40382" lon="6.39368">
        <ele>2198</ele>
        <time>2020-07-07T09:33:04.000Z</time>
      </trkpt>
      <trkpt lat="44.40381" lon="6.39368">
        <ele>2198</ele>
        <time>2020-07-07T09:33:05.000Z</time>
      </trkpt>
      <trkpt lat="44.40381" lon="6.39368">
        <ele>2198</ele>
        <time>2020-07-07T09:33:06.000Z</time>
      </trkpt>
      <trkpt lat="44.4038" lon="6.39367">
        <ele>2198</ele>
        <time>2020-07-07T09:33:07.000Z</time>
      </trkpt>
      <trkpt lat="44.40379" lon="6.39367">
        <ele>2197</ele>
        <time>2020-07-07T09:33:08.000Z</time>
      </trkpt>
      <trkpt lat="44.40378" lon="6.39367">
        <ele>2197</ele>
        <time>2020-07-07T09:33:09.000Z</time>
      </trkpt>
      <trkpt lat="44.40378" lon="6.39366">
        <ele>2197</ele>
        <time>2020-07-07T09:33:10.000Z</time>
      </trkpt>
      <trkpt lat="44.40377" lon="6.39366">
        <ele>2197</ele>
        <time>2020-07-07T09:33:11.000Z</time>
      </trkpt>
      <trkpt lat="44.40377" lon="6.39365">
        <ele>2197</ele>
        <time>2020-07-07T09:33:12.000Z</time>
      </trkpt>
      <trkpt lat="44.40376" lon="6.39365">
        <ele>2197</ele>
        <time>2020-07-07T09:33:13.000Z</time>
      </trkpt>
      <trkpt lat="44.40376" lon="6.39364">
        <ele>2197</ele>
        <time>2020-07-07T09:33:14.000Z</time>
      </trkpt>
      <trkpt lat="44.40375" lon="6.39364">
        <ele>2196</ele>
        <time>2020-07-07T09:33:15.000Z</time>
      </trkpt>
      <trkpt lat="44.40375" lon="6.39363">
        <ele>2196</ele>
        <time>2020-07-07T09:33:16.000Z</time>
      </trkpt>
      <trkpt lat="44.40374" lon="6.39363">
        <ele>2196</ele>
        <time>2020-07-07T09:33:17.000Z</time>
      </trkpt>
      <trkpt lat="44.40373" lon="6.39363">
        <ele>2196</ele>
        <time>2020-07-07T09:33:18.000Z</time>
      </trkpt>
      <trkpt lat="44.40373" lon="6.39362">
        <ele>2196</ele>
        <time>2020-07-07T09:33:19.000Z</time>
      </trkpt>
      <trkpt lat="44.40372" lon="6.39362">
        <ele>2195</ele>
        <time>2020-07-07T09:33:20.000Z</time>
      </trkpt>
      <trkpt lat="44.40371" lon="6.39362">
        <ele>2195</ele>
        <time>2020-07-07T09:33:21.000Z</time>
      </trkpt>
      <trkpt lat="44.40371" lon="6.39361">
        <ele>2195</ele>
        <time>2020-07-07T09:33:22.000Z</time>
      </trkpt>
      <trkpt lat="44.4037" lon="6.39361">
        <ele>2195</ele>
        <time>2020-07-07T09:33:23.000Z</time>
      </trkpt>
      <trkpt lat="44.40369" lon="6.39361">
        <ele>2195</ele>
        <time>2020-07-07T09:33:24.000Z</time>
      </trkpt>
      <trkpt lat="44.40369" lon="6.39361">
        <ele>2194</ele>
        <time>2020-07-07T09:33:25.000Z</time>
      </trkpt>
      <trkpt lat="44.40368" lon="6.39361">
        <ele>2194</ele>
        <time>2020-07-07T09:33:26.000Z</time>
      </trkpt>
      <trkpt lat="44.40367" lon="6.3936">
        <ele>2194</ele>
        <time>2020-07-07T09:33:27.000Z</time>
      </trkpt>
      <trkpt lat="44.40367" lon="6.3936">
        <ele>2194</ele>
        <time>2020-07-07T09:33:28.000Z</time>
      </trkpt>
      <trkpt lat="44.40367" lon="6.3936">
        <ele>2193</ele>
        <time>2020-07-07T09:33:29.000Z</time>
      </trkpt>
      <trkpt lat="44.40367" lon="6.39359">
        <ele>2193</ele>
        <time>2020-07-07T09:33:30.000Z</time>
      </trkpt>
      <trkpt lat="44.40367" lon="6.3936">
        <ele>2193</ele>
        <time>2020-07-07T09:33:31.000Z</time>
      </trkpt>
      <trkpt lat="44.40367" lon="6.39359">
        <ele>2193</ele>
        <time>2020-07-07T09:33:32.000Z</time>
      </trkpt>
      <trkpt lat="44.40366" lon="6.39359">
        <ele>2193</ele>
        <time>2020-07-07T09:33:33.000Z</time>
      </trkpt>
      <trkpt lat="44.40365" lon="6.39359">
        <ele>2193</ele>
        <time>2020-07-07T09:33:34.000Z</time>
      </trkpt>
      <trkpt lat="44.40365" lon="6.39359">
        <ele>2193</ele>
        <time>2020-07-07T09:33:35.000Z</time>
      </trkpt>
      <trkpt lat="44.40364" lon="6.39358">
        <ele>2193</ele>
        <time>2020-07-07T09:33:36.000Z</time>
      </trkpt>
      <trkpt lat="44.40363" lon="6.39358">
        <ele>2192</ele>
        <time>2020-07-07T09:33:37.000Z</time>
      </trkpt>
      <trkpt lat="44.40362" lon="6.39357">
        <ele>2192</ele>
        <time>2020-07-07T09:33:38.000Z</time>
      </trkpt>
      <trkpt lat="44.40362" lon="6.39357">
        <ele>2192</ele>
        <time>2020-07-07T09:33:39.000Z</time>
      </trkpt>
      <trkpt lat="44.40361" lon="6.39357">
        <ele>2192</ele>
        <time>2020-07-07T09:33:40.000Z</time>
      </trkpt>
      <trkpt lat="44.4036" lon="6.39358">
        <ele>2192</ele>
        <time>2020-07-07T09:33:41.000Z</time>
      </trkpt>
      <trkpt lat="44.40359" lon="6.39358">
        <ele>2191</ele>
        <time>2020-07-07T09:33:42.000Z</time>
      </trkpt>
      <trkpt lat="44.40357" lon="6.39359">
        <ele>2191</ele>
        <time>2020-07-07T09:33:43.000Z</time>
      </trkpt>
      <trkpt lat="44.40356" lon="6.39359">
        <ele>2191</ele>
        <time>2020-07-07T09:33:44.000Z</time>
      </trkpt>
      <trkpt lat="44.40356" lon="6.39359">
        <ele>2191</ele>
        <time>2020-07-07T09:33:45.000Z</time>
      </trkpt>
      <trkpt lat="44.40356" lon="6.3936">
        <ele>2191</ele>
        <time>2020-07-07T09:33:46.000Z</time>
      </trkpt>
      <trkpt lat="44.40355" lon="6.3936">
        <ele>2190</ele>
        <time>2020-07-07T09:33:47.000Z</time>
      </trkpt>
      <trkpt lat="44.40355" lon="6.39361">
        <ele>2190</ele>
        <time>2020-07-07T09:33:48.000Z</time>
      </trkpt>
      <trkpt lat="44.40355" lon="6.39362">
        <ele>2190</ele>
        <time>2020-07-07T09:33:49.000Z</time>
      </trkpt>
      <trkpt lat="44.40354" lon="6.39363">
        <ele>2190</ele>
        <time>2020-07-07T09:33:50.000Z</time>
      </trkpt>
      <trkpt lat="44.40354" lon="6.39363">
        <ele>2189</ele>
        <time>2020-07-07T09:33:51.000Z</time>
      </trkpt>
      <trkpt lat="44.40354" lon="6.39364">
        <ele>2189</ele>
        <time>2020-07-07T09:33:52.000Z</time>
      </trkpt>
      <trkpt lat="44.40354" lon="6.39365">
        <ele>2189</ele>
        <time>2020-07-07T09:33:53.000Z</time>
      </trkpt>
      <trkpt lat="44.40354" lon="6.39367">
        <ele>2189</ele>
        <time>2020-07-07T09:33:54.000Z</time>
      </trkpt>
      <trkpt lat="44.40354" lon="6.39368">
        <ele>2189</ele>
        <time>2020-07-07T09:33:55.000Z</time>
      </trkpt>
      <trkpt lat="44.40354" lon="6.39369">
        <ele>2188</ele>
        <time>2020-07-07T09:33:56.000Z</time>
      </trkpt>
      <trkpt lat="44.40354" lon="6.3937">
        <ele>2188</ele>
        <time>2020-07-07T09:33:57.000Z</time>
      </trkpt>
      <trkpt lat="44.40353" lon="6.3937">
        <ele>2188</ele>
        <time>2020-07-07T09:33:58.000Z</time>
      </trkpt>
      <trkpt lat="44.40353" lon="6.39371">
        <ele>2188</ele>
        <time>2020-07-07T09:33:59.000Z</time>
      </trkpt>
      <trkpt lat="44.40353" lon="6.39372">
        <ele>2188</ele>
        <time>2020-07-07T09:34:00.000Z</time>
      </trkpt>
      <trkpt lat="44.40352" lon="6.39373">
        <ele>2188</ele>
        <time>2020-07-07T09:34:01.000Z</time>
      </trkpt>
      <trkpt lat="44.40351" lon="6.39373">
        <ele>2188</ele>
        <time>2020-07-07T09:34:02.000Z</time>
      </trkpt>
      <trkpt lat="44.4035" lon="6.39373">
        <ele>2187</ele>
        <time>2020-07-07T09:34:03.000Z</time>
      </trkpt>
      <trkpt lat="44.40349" lon="6.39372">
        <ele>2187</ele>
        <time>2020-07-07T09:34:04.000Z</time>
      </trkpt>
      <trkpt lat="44.40349" lon="6.39372">
        <ele>2187</ele>
        <time>2020-07-07T09:34:05.000Z</time>
      </trkpt>
      <trkpt lat="44.40348" lon="6.39372">
        <ele>2187</ele>
        <time>2020-07-07T09:34:06.000Z</time>
      </trkpt>
      <trkpt lat="44.40347" lon="6.39371">
        <ele>2187</ele>
        <time>2020-07-07T09:34:07.000Z</time>
      </trkpt>
      <trkpt lat="44.40347" lon="6.39372">
        <ele>2187</ele>
        <time>2020-07-07T09:34:08.000Z</time>
      </trkpt>
      <trkpt lat="44.40346" lon="6.39372">
        <ele>2186</ele>
        <time>2020-07-07T09:34:09.000Z</time>
      </trkpt>
      <trkpt lat="44.40345" lon="6.39373">
        <ele>2186</ele>
        <time>2020-07-07T09:34:10.000Z</time>
      </trkpt>
      <trkpt lat="44.40344" lon="6.39373">
        <ele>2186</ele>
        <time>2020-07-07T09:34:11.000Z</time>
      </trkpt>
      <trkpt lat="44.40343" lon="6.39373">
        <ele>2186</ele>
        <time>2020-07-07T09:34:12.000Z</time>
      </trkpt>
      <trkpt lat="44.40343" lon="6.39373">
        <ele>2186</ele>
        <time>2020-07-07T09:34:13.000Z</time>
      </trkpt>
      <trkpt lat="44.40342" lon="6.39373">
        <ele>2186</ele>
        <time>2020-07-07T09:34:14.000Z</time>
      </trkpt>
      <trkpt lat="44.40341" lon="6.39372">
        <ele>2186</ele>
        <time>2020-07-07T09:34:15.000Z</time>
      </trkpt>
      <trkpt lat="44.4034" lon="6.39371">
        <ele>2185</ele>
        <time>2020-07-07T09:34:16.000Z</time>
      </trkpt>
      <trkpt lat="44.40339" lon="6.39371">
        <ele>2185</ele>
        <time>2020-07-07T09:34:17.000Z</time>
      </trkpt>
      <trkpt lat="44.40339" lon="6.39371">
        <ele>2185</ele>
        <time>2020-07-07T09:34:18.000Z</time>
      </trkpt>
      <trkpt lat="44.40338" lon="6.3937">
        <ele>2185</ele>
        <time>2020-07-07T09:34:19.000Z</time>
      </trkpt>
      <trkpt lat="44.40337" lon="6.3937">
        <ele>2185</ele>
        <time>2020-07-07T09:34:20.000Z</time>
      </trkpt>
      <trkpt lat="44.40337" lon="6.3937">
        <ele>2184</ele>
        <time>2020-07-07T09:34:21.000Z</time>
      </trkpt>
      <trkpt lat="44.40336" lon="6.3937">
        <ele>2184</ele>
        <time>2020-07-07T09:34:22.000Z</time>
      </trkpt>
      <trkpt lat="44.40336" lon="6.3937">
        <ele>2184</ele>
        <time>2020-07-07T09:34:23.000Z</time>
      </trkpt>
      <trkpt lat="44.40334" lon="6.3937">
        <ele>2184</ele>
        <time>2020-07-07T09:34:24.000Z</time>
      </trkpt>
      <trkpt lat="44.40334" lon="6.39369">
        <ele>2184</ele>
        <time>2020-07-07T09:34:25.000Z</time>
      </trkpt>
      <trkpt lat="44.40333" lon="6.39369">
        <ele>2183</ele>
        <time>2020-07-07T09:34:26.000Z</time>
      </trkpt>
      <trkpt lat="44.40332" lon="6.39368">
        <ele>2183</ele>
        <time>2020-07-07T09:34:27.000Z</time>
      </trkpt>
      <trkpt lat="44.40331" lon="6.39368">
        <ele>2183</ele>
        <time>2020-07-07T09:34:28.000Z</time>
      </trkpt>
      <trkpt lat="44.40331" lon="6.39367">
        <ele>2183</ele>
        <time>2020-07-07T09:34:29.000Z</time>
      </trkpt>
      <trkpt lat="44.4033" lon="6.39366">
        <ele>2182</ele>
        <time>2020-07-07T09:34:30.000Z</time>
      </trkpt>
      <trkpt lat="44.4033" lon="6.39366">
        <ele>2182</ele>
        <time>2020-07-07T09:34:31.000Z</time>
      </trkpt>
      <trkpt lat="44.40329" lon="6.39367">
        <ele>2182</ele>
        <time>2020-07-07T09:34:32.000Z</time>
      </trkpt>
      <trkpt lat="44.40329" lon="6.39367">
        <ele>2182</ele>
        <time>2020-07-07T09:34:33.000Z</time>
      </trkpt>
      <trkpt lat="44.40328" lon="6.39367">
        <ele>2182</ele>
        <time>2020-07-07T09:34:34.000Z</time>
      </trkpt>
      <trkpt lat="44.40327" lon="6.39367">
        <ele>2181</ele>
        <time>2020-07-07T09:34:35.000Z</time>
      </trkpt>
      <trkpt lat="44.40327" lon="6.39368">
        <ele>2181</ele>
        <time>2020-07-07T09:34:36.000Z</time>
      </trkpt>
      <trkpt lat="44.40326" lon="6.39368">
        <ele>2181</ele>
        <time>2020-07-07T09:34:37.000Z</time>
      </trkpt>
      <trkpt lat="44.40324" lon="6.39368">
        <ele>2181</ele>
        <time>2020-07-07T09:34:38.000Z</time>
      </trkpt>
      <trkpt lat="44.40323" lon="6.39368">
        <ele>2181</ele>
        <time>2020-07-07T09:34:39.000Z</time>
      </trkpt>
      <trkpt lat="44.40322" lon="6.39367">
        <ele>2180</ele>
        <time>2020-07-07T09:34:40.000Z</time>
      </trkpt>
      <trkpt lat="44.40321" lon="6.39366">
        <ele>2180</ele>
        <time>2020-07-07T09:34:41.000Z</time>
      </trkpt>
      <trkpt lat="44.4032" lon="6.39365">
        <ele>2180</ele>
        <time>2020-07-07T09:34:42.000Z</time>
      </trkpt>
      <trkpt lat="44.40319" lon="6.39363">
        <ele>2180</ele>
        <time>2020-07-07T09:34:43.000Z</time>
      </trkpt>
      <trkpt lat="44.40319" lon="6.39363">
        <ele>2180</ele>
        <time>2020-07-07T09:34:44.000Z</time>
      </trkpt>
      <trkpt lat="44.40318" lon="6.39362">
        <ele>2180</ele>
        <time>2020-07-07T09:34:45.000Z</time>
      </trkpt>
      <trkpt lat="44.40318" lon="6.39361">
        <ele>2180</ele>
        <time>2020-07-07T09:34:46.000Z</time>
      </trkpt>
      <trkpt lat="44.40317" lon="6.3936">
        <ele>2180</ele>
        <time>2020-07-07T09:34:47.000Z</time>
      </trkpt>
      <trkpt lat="44.40316" lon="6.3936">
        <ele>2180</ele>
        <time>2020-07-07T09:34:48.000Z</time>
      </trkpt>
      <trkpt lat="44.40316" lon="6.39359">
        <ele>2179</ele>
        <time>2020-07-07T09:34:49.000Z</time>
      </trkpt>
      <trkpt lat="44.40315" lon="6.39358">
        <ele>2179</ele>
        <time>2020-07-07T09:34:50.000Z</time>
      </trkpt>
      <trkpt lat="44.40314" lon="6.39358">
        <ele>2179</ele>
        <time>2020-07-07T09:34:51.000Z</time>
      </trkpt>
      <trkpt lat="44.40314" lon="6.39357">
        <ele>2179</ele>
        <time>2020-07-07T09:34:52.000Z</time>
      </trkpt>
      <trkpt lat="44.40313" lon="6.39357">
        <ele>2179</ele>
        <time>2020-07-07T09:34:53.000Z</time>
      </trkpt>
      <trkpt lat="44.40312" lon="6.39356">
        <ele>2179</ele>
        <time>2020-07-07T09:34:54.000Z</time>
      </trkpt>
      <trkpt lat="44.40311" lon="6.39357">
        <ele>2179</ele>
        <time>2020-07-07T09:34:55.000Z</time>
      </trkpt>
      <trkpt lat="44.4031" lon="6.39356">
        <ele>2179</ele>
        <time>2020-07-07T09:34:56.000Z</time>
      </trkpt>
      <trkpt lat="44.4031" lon="6.39356">
        <ele>2179</ele>
        <time>2020-07-07T09:34:57.000Z</time>
      </trkpt>
      <trkpt lat="44.40309" lon="6.39357">
        <ele>2179</ele>
        <time>2020-07-07T09:34:58.000Z</time>
      </trkpt>
      <trkpt lat="44.40308" lon="6.39358">
        <ele>2178</ele>
        <time>2020-07-07T09:34:59.000Z</time>
      </trkpt>
      <trkpt lat="44.40308" lon="6.39358">
        <ele>2178</ele>
        <time>2020-07-07T09:35:00.000Z</time>
      </trkpt>
      <trkpt lat="44.40307" lon="6.39358">
        <ele>2178</ele>
        <time>2020-07-07T09:35:01.000Z</time>
      </trkpt>
      <trkpt lat="44.40306" lon="6.39359">
        <ele>2178</ele>
        <time>2020-07-07T09:35:02.000Z</time>
      </trkpt>
      <trkpt lat="44.40305" lon="6.39359">
        <ele>2178</ele>
        <time>2020-07-07T09:35:03.000Z</time>
      </trkpt>
      <trkpt lat="44.40304" lon="6.39361">
        <ele>2178</ele>
        <time>2020-07-07T09:35:04.000Z</time>
      </trkpt>
      <trkpt lat="44.40303" lon="6.39362">
        <ele>2177</ele>
        <time>2020-07-07T09:35:05.000Z</time>
      </trkpt>
      <trkpt lat="44.40302" lon="6.39362">
        <ele>2177</ele>
        <time>2020-07-07T09:35:06.000Z</time>
      </trkpt>
      <trkpt lat="44.40301" lon="6.39363">
        <ele>2177</ele>
        <time>2020-07-07T09:35:07.000Z</time>
      </trkpt>
      <trkpt lat="44.40299" lon="6.39364">
        <ele>2177</ele>
        <time>2020-07-07T09:35:08.000Z</time>
      </trkpt>
      <trkpt lat="44.40298" lon="6.39364">
        <ele>2177</ele>
        <time>2020-07-07T09:35:09.000Z</time>
      </trkpt>
      <trkpt lat="44.40297" lon="6.39364">
        <ele>2177</ele>
        <time>2020-07-07T09:35:10.000Z</time>
      </trkpt>
      <trkpt lat="44.40297" lon="6.39364">
        <ele>2177</ele>
        <time>2020-07-07T09:35:11.000Z</time>
      </trkpt>
      <trkpt lat="44.40296" lon="6.39364">
        <ele>2177</ele>
        <time>2020-07-07T09:35:12.000Z</time>
      </trkpt>
      <trkpt lat="44.40295" lon="6.39364">
        <ele>2177</ele>
        <time>2020-07-07T09:35:13.000Z</time>
      </trkpt>
      <trkpt lat="44.40294" lon="6.39364">
        <ele>2177</ele>
        <time>2020-07-07T09:35:14.000Z</time>
      </trkpt>
      <trkpt lat="44.40293" lon="6.39364">
        <ele>2177</ele>
        <time>2020-07-07T09:35:15.000Z</time>
      </trkpt>
      <trkpt lat="44.40292" lon="6.39364">
        <ele>2177</ele>
        <time>2020-07-07T09:35:16.000Z</time>
      </trkpt>
      <trkpt lat="44.40291" lon="6.39364">
        <ele>2177</ele>
        <time>2020-07-07T09:35:17.000Z</time>
      </trkpt>
      <trkpt lat="44.4029" lon="6.39364">
        <ele>2177</ele>
        <time>2020-07-07T09:35:18.000Z</time>
      </trkpt>
      <trkpt lat="44.40289" lon="6.39365">
        <ele>2177</ele>
        <time>2020-07-07T09:35:19.000Z</time>
      </trkpt>
      <trkpt lat="44.40288" lon="6.39366">
        <ele>2177</ele>
        <time>2020-07-07T09:35:20.000Z</time>
      </trkpt>
      <trkpt lat="44.40287" lon="6.39367">
        <ele>2177</ele>
        <time>2020-07-07T09:35:21.000Z</time>
      </trkpt>
      <trkpt lat="44.40286" lon="6.39368">
        <ele>2176</ele>
        <time>2020-07-07T09:35:22.000Z</time>
      </trkpt>
      <trkpt lat="44.40285" lon="6.39368">
        <ele>2176</ele>
        <time>2020-07-07T09:35:23.000Z</time>
      </trkpt>
      <trkpt lat="44.40285" lon="6.39368">
        <ele>2176</ele>
        <time>2020-07-07T09:35:24.000Z</time>
      </trkpt>
      <trkpt lat="44.40284" lon="6.39369">
        <ele>2176</ele>
        <time>2020-07-07T09:35:25.000Z</time>
      </trkpt>
      <trkpt lat="44.40284" lon="6.39369">
        <ele>2176</ele>
        <time>2020-07-07T09:35:26.000Z</time>
      </trkpt>
      <trkpt lat="44.40282" lon="6.3937">
        <ele>2176</ele>
        <time>2020-07-07T09:35:27.000Z</time>
      </trkpt>
      <trkpt lat="44.40282" lon="6.39371">
        <ele>2176</ele>
        <time>2020-07-07T09:35:28.000Z</time>
      </trkpt>
      <trkpt lat="44.40281" lon="6.39372">
        <ele>2176</ele>
        <time>2020-07-07T09:35:29.000Z</time>
      </trkpt>
      <trkpt lat="44.4028" lon="6.39372">
        <ele>2176</ele>
        <time>2020-07-07T09:35:30.000Z</time>
      </trkpt>
      <trkpt lat="44.40279" lon="6.39373">
        <ele>2176</ele>
        <time>2020-07-07T09:35:31.000Z</time>
      </trkpt>
      <trkpt lat="44.40279" lon="6.39374">
        <ele>2176</ele>
        <time>2020-07-07T09:35:32.000Z</time>
      </trkpt>
      <trkpt lat="44.40278" lon="6.39375">
        <ele>2176</ele>
        <time>2020-07-07T09:35:33.000Z</time>
      </trkpt>
      <trkpt lat="44.40278" lon="6.39376">
        <ele>2176</ele>
        <time>2020-07-07T09:35:34.000Z</time>
      </trkpt>
      <trkpt lat="44.40278" lon="6.39377">
        <ele>2176</ele>
        <time>2020-07-07T09:35:35.000Z</time>
      </trkpt>
      <trkpt lat="44.40278" lon="6.39378">
        <ele>2176</ele>
        <time>2020-07-07T09:35:36.000Z</time>
      </trkpt>
      <trkpt lat="44.40277" lon="6.39379">
        <ele>2175</ele>
        <time>2020-07-07T09:35:37.000Z</time>
      </trkpt>
      <trkpt lat="44.40277" lon="6.3938">
        <ele>2175</ele>
        <time>2020-07-07T09:35:38.000Z</time>
      </trkpt>
      <trkpt lat="44.40277" lon="6.39381">
        <ele>2175</ele>
        <time>2020-07-07T09:35:39.000Z</time>
      </trkpt>
      <trkpt lat="44.40276" lon="6.39381">
        <ele>2175</ele>
        <time>2020-07-07T09:35:40.000Z</time>
      </trkpt>
      <trkpt lat="44.40275" lon="6.39382">
        <ele>2175</ele>
        <time>2020-07-07T09:35:41.000Z</time>
      </trkpt>
      <trkpt lat="44.40274" lon="6.39382">
        <ele>2175</ele>
        <time>2020-07-07T09:35:42.000Z</time>
      </trkpt>
      <trkpt lat="44.40272" lon="6.39383">
        <ele>2175</ele>
        <time>2020-07-07T09:35:43.000Z</time>
      </trkpt>
      <trkpt lat="44.40272" lon="6.39383">
        <ele>2175</ele>
        <time>2020-07-07T09:35:44.000Z</time>
      </trkpt>
      <trkpt lat="44.40271" lon="6.39383">
        <ele>2175</ele>
        <time>2020-07-07T09:35:45.000Z</time>
      </trkpt>
      <trkpt lat="44.4027" lon="6.39384">
        <ele>2175</ele>
        <time>2020-07-07T09:35:46.000Z</time>
      </trkpt>
      <trkpt lat="44.4027" lon="6.39384">
        <ele>2175</ele>
        <time>2020-07-07T09:35:47.000Z</time>
      </trkpt>
      <trkpt lat="44.40269" lon="6.39386">
        <ele>2175</ele>
        <time>2020-07-07T09:35:48.000Z</time>
      </trkpt>
      <trkpt lat="44.40268" lon="6.39387">
        <ele>2175</ele>
        <time>2020-07-07T09:35:49.000Z</time>
      </trkpt>
      <trkpt lat="44.40267" lon="6.39388">
        <ele>2175</ele>
        <time>2020-07-07T09:35:50.000Z</time>
      </trkpt>
      <trkpt lat="44.40266" lon="6.39389">
        <ele>2175</ele>
        <time>2020-07-07T09:35:51.000Z</time>
      </trkpt>
      <trkpt lat="44.40265" lon="6.39389">
        <ele>2175</ele>
        <time>2020-07-07T09:35:52.000Z</time>
      </trkpt>
      <trkpt lat="44.40264" lon="6.3939">
        <ele>2175</ele>
        <time>2020-07-07T09:35:53.000Z</time>
      </trkpt>
      <trkpt lat="44.40263" lon="6.3939">
        <ele>2174</ele>
        <time>2020-07-07T09:35:54.000Z</time>
      </trkpt>
      <trkpt lat="44.40262" lon="6.3939">
        <ele>2174</ele>
        <time>2020-07-07T09:35:55.000Z</time>
      </trkpt>
      <trkpt lat="44.40261" lon="6.3939">
        <ele>2174</ele>
        <time>2020-07-07T09:35:56.000Z</time>
      </trkpt>
      <trkpt lat="44.4026" lon="6.39389">
        <ele>2174</ele>
        <time>2020-07-07T09:35:57.000Z</time>
      </trkpt>
      <trkpt lat="44.40259" lon="6.39389">
        <ele>2174</ele>
        <time>2020-07-07T09:35:58.000Z</time>
      </trkpt>
      <trkpt lat="44.40258" lon="6.39389">
        <ele>2174</ele>
        <time>2020-07-07T09:35:59.000Z</time>
      </trkpt>
      <trkpt lat="44.40257" lon="6.39389">
        <ele>2174</ele>
        <time>2020-07-07T09:36:00.000Z</time>
      </trkpt>
      <trkpt lat="44.40257" lon="6.39389">
        <ele>2174</ele>
        <time>2020-07-07T09:36:01.000Z</time>
      </trkpt>
      <trkpt lat="44.40256" lon="6.39389">
        <ele>2174</ele>
        <time>2020-07-07T09:36:02.000Z</time>
      </trkpt>
      <trkpt lat="44.40255" lon="6.39388">
        <ele>2174</ele>
        <time>2020-07-07T09:36:03.000Z</time>
      </trkpt>
      <trkpt lat="44.40254" lon="6.39389">
        <ele>2174</ele>
        <time>2020-07-07T09:36:04.000Z</time>
      </trkpt>
      <trkpt lat="44.40253" lon="6.39389">
        <ele>2174</ele>
        <time>2020-07-07T09:36:05.000Z</time>
      </trkpt>
      <trkpt lat="44.40252" lon="6.39388">
        <ele>2174</ele>
        <time>2020-07-07T09:36:06.000Z</time>
      </trkpt>
      <trkpt lat="44.40251" lon="6.39388">
        <ele>2174</ele>
        <time>2020-07-07T09:36:07.000Z</time>
      </trkpt>
      <trkpt lat="44.4025" lon="6.39387">
        <ele>2174</ele>
        <time>2020-07-07T09:36:08.000Z</time>
      </trkpt>
      <trkpt lat="44.40249" lon="6.39388">
        <ele>2174</ele>
        <time>2020-07-07T09:36:09.000Z</time>
      </trkpt>
      <trkpt lat="44.40247" lon="6.39388">
        <ele>2174</ele>
        <time>2020-07-07T09:36:10.000Z</time>
      </trkpt>
      <trkpt lat="44.40246" lon="6.39389">
        <ele>2174</ele>
        <time>2020-07-07T09:36:11.000Z</time>
      </trkpt>
      <trkpt lat="44.40245" lon="6.39389">
        <ele>2174</ele>
        <time>2020-07-07T09:36:12.000Z</time>
      </trkpt>
      <trkpt lat="44.40244" lon="6.39389">
        <ele>2174</ele>
        <time>2020-07-07T09:36:13.000Z</time>
      </trkpt>
      <trkpt lat="44.40243" lon="6.39389">
        <ele>2174</ele>
        <time>2020-07-07T09:36:14.000Z</time>
      </trkpt>
      <trkpt lat="44.40242" lon="6.3939">
        <ele>2174</ele>
        <time>2020-07-07T09:36:15.000Z</time>
      </trkpt>
      <trkpt lat="44.40241" lon="6.39391">
        <ele>2174</ele>
        <time>2020-07-07T09:36:16.000Z</time>
      </trkpt>
      <trkpt lat="44.4024" lon="6.39392">
        <ele>2174</ele>
        <time>2020-07-07T09:36:17.000Z</time>
      </trkpt>
      <trkpt lat="44.40239" lon="6.39392">
        <ele>2174</ele>
        <time>2020-07-07T09:36:18.000Z</time>
      </trkpt>
      <trkpt lat="44.40238" lon="6.39392">
        <ele>2174</ele>
        <time>2020-07-07T09:36:19.000Z</time>
      </trkpt>
      <trkpt lat="44.40237" lon="6.39393">
        <ele>2174</ele>
        <time>2020-07-07T09:36:20.000Z</time>
      </trkpt>
      <trkpt lat="44.40237" lon="6.39393">
        <ele>2174</ele>
        <time>2020-07-07T09:36:21.000Z</time>
      </trkpt>
      <trkpt lat="44.40236" lon="6.39394">
        <ele>2174</ele>
        <time>2020-07-07T09:36:22.000Z</time>
      </trkpt>
      <trkpt lat="44.40235" lon="6.39395">
        <ele>2174</ele>
        <time>2020-07-07T09:36:23.000Z</time>
      </trkpt>
      <trkpt lat="44.40234" lon="6.39396">
        <ele>2173</ele>
        <time>2020-07-07T09:36:24.000Z</time>
      </trkpt>
      <trkpt lat="44.40233" lon="6.39397">
        <ele>2173</ele>
        <time>2020-07-07T09:36:25.000Z</time>
      </trkpt>
      <trkpt lat="44.40232" lon="6.39398">
        <ele>2173</ele>
        <time>2020-07-07T09:36:26.000Z</time>
      </trkpt>
      <trkpt lat="44.40232" lon="6.39399">
        <ele>2173</ele>
        <time>2020-07-07T09:36:27.000Z</time>
      </trkpt>
      <trkpt lat="44.40231" lon="6.394">
        <ele>2173</ele>
        <time>2020-07-07T09:36:28.000Z</time>
      </trkpt>
      <trkpt lat="44.4023" lon="6.394">
        <ele>2173</ele>
        <time>2020-07-07T09:36:29.000Z</time>
      </trkpt>
      <trkpt lat="44.4023" lon="6.394">
        <ele>2173</ele>
        <time>2020-07-07T09:36:30.000Z</time>
      </trkpt>
      <trkpt lat="44.40229" lon="6.39401">
        <ele>2173</ele>
        <time>2020-07-07T09:36:31.000Z</time>
      </trkpt>
      <trkpt lat="44.40228" lon="6.39402">
        <ele>2173</ele>
        <time>2020-07-07T09:36:32.000Z</time>
      </trkpt>
      <trkpt lat="44.40227" lon="6.39402">
        <ele>2172</ele>
        <time>2020-07-07T09:36:33.000Z</time>
      </trkpt>
      <trkpt lat="44.40227" lon="6.39403">
        <ele>2172</ele>
        <time>2020-07-07T09:36:34.000Z</time>
      </trkpt>
      <trkpt lat="44.40226" lon="6.39404">
        <ele>2172</ele>
        <time>2020-07-07T09:36:35.000Z</time>
      </trkpt>
      <trkpt lat="44.40225" lon="6.39404">
        <ele>2172</ele>
        <time>2020-07-07T09:36:36.000Z</time>
      </trkpt>
      <trkpt lat="44.40225" lon="6.39405">
        <ele>2172</ele>
        <time>2020-07-07T09:36:37.000Z</time>
      </trkpt>
      <trkpt lat="44.40225" lon="6.39405">
        <ele>2172</ele>
        <time>2020-07-07T09:36:38.000Z</time>
      </trkpt>
      <trkpt lat="44.40225" lon="6.39406">
        <ele>2172</ele>
        <time>2020-07-07T09:36:39.000Z</time>
      </trkpt>
      <trkpt lat="44.40224" lon="6.39407">
        <ele>2172</ele>
        <time>2020-07-07T09:36:40.000Z</time>
      </trkpt>
      <trkpt lat="44.40224" lon="6.39407">
        <ele>2172</ele>
        <time>2020-07-07T09:36:41.000Z</time>
      </trkpt>
      <trkpt lat="44.40223" lon="6.39408">
        <ele>2172</ele>
        <time>2020-07-07T09:36:42.000Z</time>
      </trkpt>
      <trkpt lat="44.40223" lon="6.39409">
        <ele>2172</ele>
        <time>2020-07-07T09:36:43.000Z</time>
      </trkpt>
      <trkpt lat="44.40222" lon="6.39409">
        <ele>2172</ele>
        <time>2020-07-07T09:36:44.000Z</time>
      </trkpt>
      <trkpt lat="44.40222" lon="6.39409">
        <ele>2171</ele>
        <time>2020-07-07T09:36:45.000Z</time>
      </trkpt>
      <trkpt lat="44.40221" lon="6.39409">
        <ele>2171</ele>
        <time>2020-07-07T09:36:46.000Z</time>
      </trkpt>
      <trkpt lat="44.40221" lon="6.39408">
        <ele>2171</ele>
        <time>2020-07-07T09:36:47.000Z</time>
      </trkpt>
      <trkpt lat="44.4022" lon="6.39408">
        <ele>2171</ele>
        <time>2020-07-07T09:36:48.000Z</time>
      </trkpt>
      <trkpt lat="44.40219" lon="6.39408">
        <ele>2171</ele>
        <time>2020-07-07T09:36:49.000Z</time>
      </trkpt>
      <trkpt lat="44.40219" lon="6.39407">
        <ele>2171</ele>
        <time>2020-07-07T09:36:50.000Z</time>
      </trkpt>
      <trkpt lat="44.40218" lon="6.39407">
        <ele>2170</ele>
        <time>2020-07-07T09:36:51.000Z</time>
      </trkpt>
      <trkpt lat="44.40218" lon="6.39406">
        <ele>2170</ele>
        <time>2020-07-07T09:36:52.000Z</time>
      </trkpt>
      <trkpt lat="44.40217" lon="6.39406">
        <ele>2170</ele>
        <time>2020-07-07T09:36:53.000Z</time>
      </trkpt>
      <trkpt lat="44.40217" lon="6.39406">
        <ele>2170</ele>
        <time>2020-07-07T09:36:54.000Z</time>
      </trkpt>
      <trkpt lat="44.40216" lon="6.39406">
        <ele>2170</ele>
        <time>2020-07-07T09:36:55.000Z</time>
      </trkpt>
      <trkpt lat="44.40216" lon="6.39405">
        <ele>2170</ele>
        <time>2020-07-07T09:36:56.000Z</time>
      </trkpt>
      <trkpt lat="44.40215" lon="6.39406">
        <ele>2169</ele>
        <time>2020-07-07T09:36:57.000Z</time>
      </trkpt>
      <trkpt lat="44.40215" lon="6.39406">
        <ele>2169</ele>
        <time>2020-07-07T09:36:58.000Z</time>
      </trkpt>
      <trkpt lat="44.40214" lon="6.39406">
        <ele>2169</ele>
        <time>2020-07-07T09:36:59.000Z</time>
      </trkpt>
      <trkpt lat="44.40214" lon="6.39406">
        <ele>2169</ele>
        <time>2020-07-07T09:37:00.000Z</time>
      </trkpt>
      <trkpt lat="44.40213" lon="6.39407">
        <ele>2169</ele>
        <time>2020-07-07T09:37:01.000Z</time>
      </trkpt>
      <trkpt lat="44.40213" lon="6.39407">
        <ele>2168</ele>
        <time>2020-07-07T09:37:02.000Z</time>
      </trkpt>
      <trkpt lat="44.40212" lon="6.39407">
        <ele>2168</ele>
        <time>2020-07-07T09:37:03.000Z</time>
      </trkpt>
      <trkpt lat="44.40212" lon="6.39407">
        <ele>2168</ele>
        <time>2020-07-07T09:37:04.000Z</time>
      </trkpt>
      <trkpt lat="44.40211" lon="6.39407">
        <ele>2168</ele>
        <time>2020-07-07T09:37:05.000Z</time>
      </trkpt>
      <trkpt lat="44.40211" lon="6.39408">
        <ele>2168</ele>
        <time>2020-07-07T09:37:06.000Z</time>
      </trkpt>
      <trkpt lat="44.40211" lon="6.39408">
        <ele>2168</ele>
        <time>2020-07-07T09:37:07.000Z</time>
      </trkpt>
      <trkpt lat="44.4021" lon="6.39408">
        <ele>2168</ele>
        <time>2020-07-07T09:37:08.000Z</time>
      </trkpt>
      <trkpt lat="44.4021" lon="6.39409">
        <ele>2168</ele>
        <time>2020-07-07T09:37:09.000Z</time>
      </trkpt>
      <trkpt lat="44.40209" lon="6.3941">
        <ele>2167</ele>
        <time>2020-07-07T09:37:10.000Z</time>
      </trkpt>
      <trkpt lat="44.40208" lon="6.39411">
        <ele>2167</ele>
        <time>2020-07-07T09:37:11.000Z</time>
      </trkpt>
      <trkpt lat="44.40208" lon="6.39411">
        <ele>2167</ele>
        <time>2020-07-07T09:37:12.000Z</time>
      </trkpt>
      <trkpt lat="44.40207" lon="6.39411">
        <ele>2167</ele>
        <time>2020-07-07T09:37:13.000Z</time>
      </trkpt>
      <trkpt lat="44.40207" lon="6.39412">
        <ele>2167</ele>
        <time>2020-07-07T09:37:14.000Z</time>
      </trkpt>
      <trkpt lat="44.40207" lon="6.39412">
        <ele>2167</ele>
        <time>2020-07-07T09:37:15.000Z</time>
      </trkpt>
      <trkpt lat="44.40206" lon="6.39414">
        <ele>2167</ele>
        <time>2020-07-07T09:37:16.000Z</time>
      </trkpt>
      <trkpt lat="44.40206" lon="6.39415">
        <ele>2167</ele>
        <time>2020-07-07T09:37:17.000Z</time>
      </trkpt>
      <trkpt lat="44.40206" lon="6.39416">
        <ele>2167</ele>
        <time>2020-07-07T09:37:18.000Z</time>
      </trkpt>
      <trkpt lat="44.40205" lon="6.39417">
        <ele>2167</ele>
        <time>2020-07-07T09:37:19.000Z</time>
      </trkpt>
      <trkpt lat="44.40205" lon="6.39417">
        <ele>2167</ele>
        <time>2020-07-07T09:37:20.000Z</time>
      </trkpt>
      <trkpt lat="44.40204" lon="6.39417">
        <ele>2167</ele>
        <time>2020-07-07T09:37:21.000Z</time>
      </trkpt>
      <trkpt lat="44.40204" lon="6.39418">
        <ele>2167</ele>
        <time>2020-07-07T09:37:22.000Z</time>
      </trkpt>
      <trkpt lat="44.40203" lon="6.39418">
        <ele>2166</ele>
        <time>2020-07-07T09:37:23.000Z</time>
      </trkpt>
      <trkpt lat="44.40203" lon="6.39418">
        <ele>2166</ele>
        <time>2020-07-07T09:37:24.000Z</time>
      </trkpt>
      <trkpt lat="44.40202" lon="6.39418">
        <ele>2166</ele>
        <time>2020-07-07T09:37:25.000Z</time>
      </trkpt>
      <trkpt lat="44.40201" lon="6.39419">
        <ele>2166</ele>
        <time>2020-07-07T09:37:26.000Z</time>
      </trkpt>
      <trkpt lat="44.40201" lon="6.39419">
        <ele>2166</ele>
        <time>2020-07-07T09:37:27.000Z</time>
      </trkpt>
      <trkpt lat="44.402" lon="6.3942">
        <ele>2166</ele>
        <time>2020-07-07T09:37:28.000Z</time>
      </trkpt>
      <trkpt lat="44.402" lon="6.3942">
        <ele>2166</ele>
        <time>2020-07-07T09:37:29.000Z</time>
      </trkpt>
      <trkpt lat="44.402" lon="6.39421">
        <ele>2166</ele>
        <time>2020-07-07T09:37:30.000Z</time>
      </trkpt>
      <trkpt lat="44.40199" lon="6.39422">
        <ele>2166</ele>
        <time>2020-07-07T09:37:31.000Z</time>
      </trkpt>
      <trkpt lat="44.40199" lon="6.39423">
        <ele>2166</ele>
        <time>2020-07-07T09:37:32.000Z</time>
      </trkpt>
      <trkpt lat="44.40198" lon="6.39424">
        <ele>2166</ele>
        <time>2020-07-07T09:37:33.000Z</time>
      </trkpt>
      <trkpt lat="44.40198" lon="6.39424">
        <ele>2166</ele>
        <time>2020-07-07T09:37:34.000Z</time>
      </trkpt>
      <trkpt lat="44.40197" lon="6.39424">
        <ele>2165</ele>
        <time>2020-07-07T09:37:35.000Z</time>
      </trkpt>
      <trkpt lat="44.40196" lon="6.39425">
        <ele>2165</ele>
        <time>2020-07-07T09:37:36.000Z</time>
      </trkpt>
      <trkpt lat="44.40196" lon="6.39425">
        <ele>2165</ele>
        <time>2020-07-07T09:37:37.000Z</time>
      </trkpt>
      <trkpt lat="44.40195" lon="6.39426">
        <ele>2165</ele>
        <time>2020-07-07T09:37:38.000Z</time>
      </trkpt>
      <trkpt lat="44.40195" lon="6.39426">
        <ele>2165</ele>
        <time>2020-07-07T09:37:39.000Z</time>
      </trkpt>
      <trkpt lat="44.40195" lon="6.39427">
        <ele>2165</ele>
        <time>2020-07-07T09:37:40.000Z</time>
      </trkpt>
      <trkpt lat="44.40194" lon="6.39428">
        <ele>2165</ele>
        <time>2020-07-07T09:37:41.000Z</time>
      </trkpt>
      <trkpt lat="44.40193" lon="6.39428">
        <ele>2164</ele>
        <time>2020-07-07T09:37:42.000Z</time>
      </trkpt>
      <trkpt lat="44.40193" lon="6.39429">
        <ele>2164</ele>
        <time>2020-07-07T09:37:43.000Z</time>
      </trkpt>
      <trkpt lat="44.40192" lon="6.3943">
        <ele>2164</ele>
        <time>2020-07-07T09:37:44.000Z</time>
      </trkpt>
      <trkpt lat="44.40192" lon="6.3943">
        <ele>2164</ele>
        <time>2020-07-07T09:37:45.000Z</time>
      </trkpt>
      <trkpt lat="44.40191" lon="6.3943">
        <ele>2164</ele>
        <time>2020-07-07T09:37:46.000Z</time>
      </trkpt>
      <trkpt lat="44.40191" lon="6.39431">
        <ele>2164</ele>
        <time>2020-07-07T09:37:47.000Z</time>
      </trkpt>
      <trkpt lat="44.4019" lon="6.39431">
        <ele>2163</ele>
        <time>2020-07-07T09:37:48.000Z</time>
      </trkpt>
      <trkpt lat="44.4019" lon="6.39431">
        <ele>2163</ele>
        <time>2020-07-07T09:37:49.000Z</time>
      </trkpt>
      <trkpt lat="44.4019" lon="6.39432">
        <ele>2163</ele>
        <time>2020-07-07T09:37:50.000Z</time>
      </trkpt>
      <trkpt lat="44.4019" lon="6.39433">
        <ele>2162</ele>
        <time>2020-07-07T09:37:51.000Z</time>
      </trkpt>
      <trkpt lat="44.40189" lon="6.39434">
        <ele>2162</ele>
        <time>2020-07-07T09:37:52.000Z</time>
      </trkpt>
      <trkpt lat="44.40189" lon="6.39435">
        <ele>2162</ele>
        <time>2020-07-07T09:37:53.000Z</time>
      </trkpt>
      <trkpt lat="44.40189" lon="6.39435">
        <ele>2161</ele>
        <time>2020-07-07T09:37:54.000Z</time>
      </trkpt>
      <trkpt lat="44.40189" lon="6.39436">
        <ele>2161</ele>
        <time>2020-07-07T09:37:55.000Z</time>
      </trkpt>
      <trkpt lat="44.40189" lon="6.39436">
        <ele>2161</ele>
        <time>2020-07-07T09:37:56.000Z</time>
      </trkpt>
      <trkpt lat="44.40188" lon="6.39437">
        <ele>2161</ele>
        <time>2020-07-07T09:37:57.000Z</time>
      </trkpt>
      <trkpt lat="44.40188" lon="6.39437">
        <ele>2160</ele>
        <time>2020-07-07T09:37:58.000Z</time>
      </trkpt>
      <trkpt lat="44.40187" lon="6.39438">
        <ele>2160</ele>
        <time>2020-07-07T09:37:59.000Z</time>
      </trkpt>
      <trkpt lat="44.40187" lon="6.3944">
        <ele>2160</ele>
        <time>2020-07-07T09:38:00.000Z</time>
      </trkpt>
      <trkpt lat="44.40186" lon="6.3944">
        <ele>2159</ele>
        <time>2020-07-07T09:38:01.000Z</time>
      </trkpt>
      <trkpt lat="44.40186" lon="6.3944">
        <ele>2159</ele>
        <time>2020-07-07T09:38:02.000Z</time>
      </trkpt>
      <trkpt lat="44.40185" lon="6.39441">
        <ele>2159</ele>
        <time>2020-07-07T09:38:03.000Z</time>
      </trkpt>
      <trkpt lat="44.40185" lon="6.39441">
        <ele>2159</ele>
        <time>2020-07-07T09:38:04.000Z</time>
      </trkpt>
      <trkpt lat="44.40184" lon="6.39441">
        <ele>2159</ele>
        <time>2020-07-07T09:38:05.000Z</time>
      </trkpt>
      <trkpt lat="44.40183" lon="6.39442">
        <ele>2158</ele>
        <time>2020-07-07T09:38:06.000Z</time>
      </trkpt>
      <trkpt lat="44.40183" lon="6.39442">
        <ele>2158</ele>
        <time>2020-07-07T09:38:07.000Z</time>
      </trkpt>
      <trkpt lat="44.40182" lon="6.39442">
        <ele>2158</ele>
        <time>2020-07-07T09:38:08.000Z</time>
      </trkpt>
      <trkpt lat="44.40181" lon="6.39443">
        <ele>2157</ele>
        <time>2020-07-07T09:38:09.000Z</time>
      </trkpt>
      <trkpt lat="44.4018" lon="6.39443">
        <ele>2157</ele>
        <time>2020-07-07T09:38:10.000Z</time>
      </trkpt>
      <trkpt lat="44.4018" lon="6.39444">
        <ele>2157</ele>
        <time>2020-07-07T09:38:11.000Z</time>
      </trkpt>
      <trkpt lat="44.40179" lon="6.39445">
        <ele>2156</ele>
        <time>2020-07-07T09:38:12.000Z</time>
      </trkpt>
      <trkpt lat="44.40179" lon="6.39446">
        <ele>2156</ele>
        <time>2020-07-07T09:38:13.000Z</time>
      </trkpt>
      <trkpt lat="44.40179" lon="6.39447">
        <ele>2155</ele>
        <time>2020-07-07T09:38:14.000Z</time>
      </trkpt>
      <trkpt lat="44.40178" lon="6.39448">
        <ele>2155</ele>
        <time>2020-07-07T09:38:15.000Z</time>
      </trkpt>
      <trkpt lat="44.40177" lon="6.39449">
        <ele>2154</ele>
        <time>2020-07-07T09:38:16.000Z</time>
      </trkpt>
      <trkpt lat="44.40177" lon="6.39449">
        <ele>2154</ele>
        <time>2020-07-07T09:38:17.000Z</time>
      </trkpt>
      <trkpt lat="44.40176" lon="6.3945">
        <ele>2154</ele>
        <time>2020-07-07T09:38:18.000Z</time>
      </trkpt>
      <trkpt lat="44.40176" lon="6.3945">
        <ele>2153</ele>
        <time>2020-07-07T09:38:19.000Z</time>
      </trkpt>
      <trkpt lat="44.40175" lon="6.39451">
        <ele>2153</ele>
        <time>2020-07-07T09:38:20.000Z</time>
      </trkpt>
      <trkpt lat="44.40174" lon="6.39451">
        <ele>2153</ele>
        <time>2020-07-07T09:38:21.000Z</time>
      </trkpt>
      <trkpt lat="44.40173" lon="6.39451">
        <ele>2152</ele>
        <time>2020-07-07T09:38:22.000Z</time>
      </trkpt>
      <trkpt lat="44.40172" lon="6.39452">
        <ele>2152</ele>
        <time>2020-07-07T09:38:23.000Z</time>
      </trkpt>
      <trkpt lat="44.40171" lon="6.39453">
        <ele>2152</ele>
        <time>2020-07-07T09:38:24.000Z</time>
      </trkpt>
      <trkpt lat="44.40171" lon="6.39454">
        <ele>2151</ele>
        <time>2020-07-07T09:38:25.000Z</time>
      </trkpt>
      <trkpt lat="44.4017" lon="6.39454">
        <ele>2151</ele>
        <time>2020-07-07T09:38:26.000Z</time>
      </trkpt>
      <trkpt lat="44.40169" lon="6.39455">
        <ele>2151</ele>
        <time>2020-07-07T09:38:27.000Z</time>
      </trkpt>
      <trkpt lat="44.40168" lon="6.39456">
        <ele>2150</ele>
        <time>2020-07-07T09:38:28.000Z</time>
      </trkpt>
      <trkpt lat="44.40168" lon="6.39456">
        <ele>2150</ele>
        <time>2020-07-07T09:38:29.000Z</time>
      </trkpt>
      <trkpt lat="44.40167" lon="6.39456">
        <ele>2150</ele>
        <time>2020-07-07T09:38:30.000Z</time>
      </trkpt>
      <trkpt lat="44.40166" lon="6.39457">
        <ele>2149</ele>
        <time>2020-07-07T09:38:31.000Z</time>
      </trkpt>
      <trkpt lat="44.40166" lon="6.39457">
        <ele>2149</ele>
        <time>2020-07-07T09:38:32.000Z</time>
      </trkpt>
      <trkpt lat="44.40165" lon="6.39456">
        <ele>2149</ele>
        <time>2020-07-07T09:38:33.000Z</time>
      </trkpt>
      <trkpt lat="44.40164" lon="6.39456">
        <ele>2148</ele>
        <time>2020-07-07T09:38:34.000Z</time>
      </trkpt>
      <trkpt lat="44.40163" lon="6.39455">
        <ele>2148</ele>
        <time>2020-07-07T09:38:35.000Z</time>
      </trkpt>
      <trkpt lat="44.40163" lon="6.39456">
        <ele>2148</ele>
        <time>2020-07-07T09:38:36.000Z</time>
      </trkpt>
      <trkpt lat="44.40162" lon="6.39456">
        <ele>2147</ele>
        <time>2020-07-07T09:38:37.000Z</time>
      </trkpt>
      <trkpt lat="44.40161" lon="6.39456">
        <ele>2147</ele>
        <time>2020-07-07T09:38:38.000Z</time>
      </trkpt>
      <trkpt lat="44.4016" lon="6.39456">
        <ele>2147</ele>
        <time>2020-07-07T09:38:39.000Z</time>
      </trkpt>
      <trkpt lat="44.40159" lon="6.39457">
        <ele>2147</ele>
        <time>2020-07-07T09:38:40.000Z</time>
      </trkpt>
      <trkpt lat="44.40159" lon="6.39457">
        <ele>2146</ele>
        <time>2020-07-07T09:38:41.000Z</time>
      </trkpt>
      <trkpt lat="44.40158" lon="6.39458">
        <ele>2146</ele>
        <time>2020-07-07T09:38:42.000Z</time>
      </trkpt>
      <trkpt lat="44.40157" lon="6.39459">
        <ele>2146</ele>
        <time>2020-07-07T09:38:43.000Z</time>
      </trkpt>
      <trkpt lat="44.40157" lon="6.39459">
        <ele>2146</ele>
        <time>2020-07-07T09:38:44.000Z</time>
      </trkpt>
      <trkpt lat="44.40156" lon="6.39459">
        <ele>2146</ele>
        <time>2020-07-07T09:38:45.000Z</time>
      </trkpt>
      <trkpt lat="44.40156" lon="6.3946">
        <ele>2145</ele>
        <time>2020-07-07T09:38:46.000Z</time>
      </trkpt>
      <trkpt lat="44.40155" lon="6.3946">
        <ele>2145</ele>
        <time>2020-07-07T09:38:47.000Z</time>
      </trkpt>
      <trkpt lat="44.40155" lon="6.3946">
        <ele>2145</ele>
        <time>2020-07-07T09:38:48.000Z</time>
      </trkpt>
      <trkpt lat="44.40154" lon="6.3946">
        <ele>2145</ele>
        <time>2020-07-07T09:38:49.000Z</time>
      </trkpt>
      <trkpt lat="44.40153" lon="6.3946">
        <ele>2145</ele>
        <time>2020-07-07T09:38:50.000Z</time>
      </trkpt>
      <trkpt lat="44.40152" lon="6.39461">
        <ele>2145</ele>
        <time>2020-07-07T09:38:51.000Z</time>
      </trkpt>
      <trkpt lat="44.40152" lon="6.3946">
        <ele>2144</ele>
        <time>2020-07-07T09:38:52.000Z</time>
      </trkpt>
      <trkpt lat="44.40151" lon="6.39461">
        <ele>2144</ele>
        <time>2020-07-07T09:38:53.000Z</time>
      </trkpt>
      <trkpt lat="44.40151" lon="6.39461">
        <ele>2144</ele>
        <time>2020-07-07T09:38:54.000Z</time>
      </trkpt>
      <trkpt lat="44.4015" lon="6.39461">
        <ele>2144</ele>
        <time>2020-07-07T09:38:55.000Z</time>
      </trkpt>
      <trkpt lat="44.40149" lon="6.39461">
        <ele>2144</ele>
        <time>2020-07-07T09:38:56.000Z</time>
      </trkpt>
      <trkpt lat="44.40148" lon="6.3946">
        <ele>2144</ele>
        <time>2020-07-07T09:38:57.000Z</time>
      </trkpt>
      <trkpt lat="44.40147" lon="6.3946">
        <ele>2144</ele>
        <time>2020-07-07T09:38:58.000Z</time>
      </trkpt>
      <trkpt lat="44.40146" lon="6.3946">
        <ele>2143</ele>
        <time>2020-07-07T09:38:59.000Z</time>
      </trkpt>
      <trkpt lat="44.40146" lon="6.3946">
        <ele>2143</ele>
        <time>2020-07-07T09:39:00.000Z</time>
      </trkpt>
      <trkpt lat="44.40145" lon="6.39461">
        <ele>2143</ele>
        <time>2020-07-07T09:39:01.000Z</time>
      </trkpt>
      <trkpt lat="44.40144" lon="6.3946">
        <ele>2143</ele>
        <time>2020-07-07T09:39:02.000Z</time>
      </trkpt>
      <trkpt lat="44.40144" lon="6.3946">
        <ele>2143</ele>
        <time>2020-07-07T09:39:03.000Z</time>
      </trkpt>
      <trkpt lat="44.40143" lon="6.3946">
        <ele>2143</ele>
        <time>2020-07-07T09:39:04.000Z</time>
      </trkpt>
      <trkpt lat="44.40143" lon="6.39459">
        <ele>2142</ele>
        <time>2020-07-07T09:39:05.000Z</time>
      </trkpt>
      <trkpt lat="44.40143" lon="6.39459">
        <ele>2142</ele>
        <time>2020-07-07T09:39:06.000Z</time>
      </trkpt>
      <trkpt lat="44.40143" lon="6.39459">
        <ele>2142</ele>
        <time>2020-07-07T09:39:07.000Z</time>
      </trkpt>
      <trkpt lat="44.40142" lon="6.39459">
        <ele>2142</ele>
        <time>2020-07-07T09:39:08.000Z</time>
      </trkpt>
      <trkpt lat="44.40141" lon="6.39458">
        <ele>2142</ele>
        <time>2020-07-07T09:39:09.000Z</time>
      </trkpt>
      <trkpt lat="44.40141" lon="6.39458">
        <ele>2142</ele>
        <time>2020-07-07T09:39:10.000Z</time>
      </trkpt>
      <trkpt lat="44.4014" lon="6.39459">
        <ele>2142</ele>
        <time>2020-07-07T09:39:11.000Z</time>
      </trkpt>
      <trkpt lat="44.40139" lon="6.39459">
        <ele>2141</ele>
        <time>2020-07-07T09:39:12.000Z</time>
      </trkpt>
      <trkpt lat="44.40139" lon="6.3946">
        <ele>2141</ele>
        <time>2020-07-07T09:39:13.000Z</time>
      </trkpt>
      <trkpt lat="44.40138" lon="6.3946">
        <ele>2141</ele>
        <time>2020-07-07T09:39:14.000Z</time>
      </trkpt>
      <trkpt lat="44.40137" lon="6.3946">
        <ele>2141</ele>
        <time>2020-07-07T09:39:15.000Z</time>
      </trkpt>
      <trkpt lat="44.40136" lon="6.3946">
        <ele>2141</ele>
        <time>2020-07-07T09:39:16.000Z</time>
      </trkpt>
      <trkpt lat="44.40136" lon="6.3946">
        <ele>2141</ele>
        <time>2020-07-07T09:39:17.000Z</time>
      </trkpt>
      <trkpt lat="44.40135" lon="6.39459">
        <ele>2141</ele>
        <time>2020-07-07T09:39:18.000Z</time>
      </trkpt>
      <trkpt lat="44.40134" lon="6.39459">
        <ele>2141</ele>
        <time>2020-07-07T09:39:19.000Z</time>
      </trkpt>
      <trkpt lat="44.40132" lon="6.39458">
        <ele>2141</ele>
        <time>2020-07-07T09:39:20.000Z</time>
      </trkpt>
      <trkpt lat="44.40131" lon="6.39458">
        <ele>2140</ele>
        <time>2020-07-07T09:39:21.000Z</time>
      </trkpt>
      <trkpt lat="44.40129" lon="6.39456">
        <ele>2140</ele>
        <time>2020-07-07T09:39:22.000Z</time>
      </trkpt>
      <trkpt lat="44.40128" lon="6.39455">
        <ele>2140</ele>
        <time>2020-07-07T09:39:23.000Z</time>
      </trkpt>
      <trkpt lat="44.40128" lon="6.39455">
        <ele>2140</ele>
        <time>2020-07-07T09:39:24.000Z</time>
      </trkpt>
      <trkpt lat="44.40128" lon="6.39454">
        <ele>2140</ele>
        <time>2020-07-07T09:39:25.000Z</time>
      </trkpt>
      <trkpt lat="44.40127" lon="6.39453">
        <ele>2140</ele>
        <time>2020-07-07T09:39:26.000Z</time>
      </trkpt>
      <trkpt lat="44.40126" lon="6.39452">
        <ele>2140</ele>
        <time>2020-07-07T09:39:27.000Z</time>
      </trkpt>
      <trkpt lat="44.40126" lon="6.39451">
        <ele>2140</ele>
        <time>2020-07-07T09:39:28.000Z</time>
      </trkpt>
      <trkpt lat="44.40124" lon="6.39451">
        <ele>2140</ele>
        <time>2020-07-07T09:39:29.000Z</time>
      </trkpt>
      <trkpt lat="44.40124" lon="6.3945">
        <ele>2139</ele>
        <time>2020-07-07T09:39:30.000Z</time>
      </trkpt>
      <trkpt lat="44.40124" lon="6.3945">
        <ele>2139</ele>
        <time>2020-07-07T09:39:31.000Z</time>
      </trkpt>
      <trkpt lat="44.40124" lon="6.3945">
        <ele>2139</ele>
        <time>2020-07-07T09:39:32.000Z</time>
      </trkpt>
      <trkpt lat="44.40124" lon="6.3945">
        <ele>2139</ele>
        <time>2020-07-07T09:39:33.000Z</time>
      </trkpt>
      <trkpt lat="44.40124" lon="6.3945">
        <ele>2139</ele>
        <time>2020-07-07T09:39:34.000Z</time>
      </trkpt>
      <trkpt lat="44.40124" lon="6.3945">
        <ele>2139</ele>
        <time>2020-07-07T09:39:35.000Z</time>
      </trkpt>
      <trkpt lat="44.40124" lon="6.3945">
        <ele>2139</ele>
        <time>2020-07-07T09:39:36.000Z</time>
      </trkpt>
      <trkpt lat="44.40124" lon="6.3945">
        <ele>2139</ele>
        <time>2020-07-07T09:39:37.000Z</time>
      </trkpt>
      <trkpt lat="44.40124" lon="6.3945">
        <ele>2139</ele>
        <time>2020-07-07T09:39:38.000Z</time>
      </trkpt>
      <trkpt lat="44.40124" lon="6.3945">
        <ele>2139</ele>
        <time>2020-07-07T09:39:39.000Z</time>
      </trkpt>
      <trkpt lat="44.40123" lon="6.3945">
        <ele>2139</ele>
        <time>2020-07-07T09:39:40.000Z</time>
      </trkpt>
      <trkpt lat="44.40123" lon="6.3945">
        <ele>2138</ele>
        <time>2020-07-07T09:39:41.000Z</time>
      </trkpt>
      <trkpt lat="44.40123" lon="6.3945">
        <ele>2138</ele>
        <time>2020-07-07T09:39:42.000Z</time>
      </trkpt>
      <trkpt lat="44.40123" lon="6.39449">
        <ele>2138</ele>
        <time>2020-07-07T09:39:43.000Z</time>
      </trkpt>
      <trkpt lat="44.40123" lon="6.39449">
        <ele>2138</ele>
        <time>2020-07-07T09:39:44.000Z</time>
      </trkpt>
      <trkpt lat="44.40122" lon="6.39449">
        <ele>2138</ele>
        <time>2020-07-07T09:39:45.000Z</time>
      </trkpt>
      <trkpt lat="44.40121" lon="6.39449">
        <ele>2138</ele>
        <time>2020-07-07T09:39:46.000Z</time>
      </trkpt>
      <trkpt lat="44.40121" lon="6.39449">
        <ele>2138</ele>
        <time>2020-07-07T09:39:47.000Z</time>
      </trkpt>
      <trkpt lat="44.40122" lon="6.39449">
        <ele>2138</ele>
        <time>2020-07-07T09:39:48.000Z</time>
      </trkpt>
      <trkpt lat="44.40121" lon="6.39448">
        <ele>2138</ele>
        <time>2020-07-07T09:39:49.000Z</time>
      </trkpt>
      <trkpt lat="44.40121" lon="6.39448">
        <ele>2138</ele>
        <time>2020-07-07T09:39:50.000Z</time>
      </trkpt>
      <trkpt lat="44.4012" lon="6.39448">
        <ele>2138</ele>
        <time>2020-07-07T09:39:51.000Z</time>
      </trkpt>
      <trkpt lat="44.40118" lon="6.39447">
        <ele>2138</ele>
        <time>2020-07-07T09:39:52.000Z</time>
      </trkpt>
      <trkpt lat="44.40118" lon="6.39447">
        <ele>2138</ele>
        <time>2020-07-07T09:39:53.000Z</time>
      </trkpt>
      <trkpt lat="44.40116" lon="6.39446">
        <ele>2138</ele>
        <time>2020-07-07T09:39:54.000Z</time>
      </trkpt>
      <trkpt lat="44.40115" lon="6.39446">
        <ele>2138</ele>
        <time>2020-07-07T09:39:55.000Z</time>
      </trkpt>
      <trkpt lat="44.40115" lon="6.39445">
        <ele>2138</ele>
        <time>2020-07-07T09:39:56.000Z</time>
      </trkpt>
      <trkpt lat="44.40114" lon="6.39444">
        <ele>2138</ele>
        <time>2020-07-07T09:39:57.000Z</time>
      </trkpt>
      <trkpt lat="44.40114" lon="6.39444">
        <ele>2138</ele>
        <time>2020-07-07T09:39:58.000Z</time>
      </trkpt>
      <trkpt lat="44.40113" lon="6.39443">
        <ele>2138</ele>
        <time>2020-07-07T09:39:59.000Z</time>
      </trkpt>
      <trkpt lat="44.40112" lon="6.39443">
        <ele>2138</ele>
        <time>2020-07-07T09:40:00.000Z</time>
      </trkpt>
      <trkpt lat="44.40111" lon="6.39442">
        <ele>2138</ele>
        <time>2020-07-07T09:40:01.000Z</time>
      </trkpt>
      <trkpt lat="44.4011" lon="6.39442">
        <ele>2138</ele>
        <time>2020-07-07T09:40:02.000Z</time>
      </trkpt>
      <trkpt lat="44.40109" lon="6.39442">
        <ele>2138</ele>
        <time>2020-07-07T09:40:03.000Z</time>
      </trkpt>
      <trkpt lat="44.40108" lon="6.39442">
        <ele>2138</ele>
        <time>2020-07-07T09:40:04.000Z</time>
      </trkpt>
      <trkpt lat="44.40107" lon="6.39441">
        <ele>2138</ele>
        <time>2020-07-07T09:40:05.000Z</time>
      </trkpt>
      <trkpt lat="44.40106" lon="6.39441">
        <ele>2138</ele>
        <time>2020-07-07T09:40:06.000Z</time>
      </trkpt>
      <trkpt lat="44.40104" lon="6.3944">
        <ele>2138</ele>
        <time>2020-07-07T09:40:07.000Z</time>
      </trkpt>
      <trkpt lat="44.40103" lon="6.3944">
        <ele>2138</ele>
        <time>2020-07-07T09:40:08.000Z</time>
      </trkpt>
      <trkpt lat="44.40103" lon="6.39439">
        <ele>2138</ele>
        <time>2020-07-07T09:40:09.000Z</time>
      </trkpt>
      <trkpt lat="44.40102" lon="6.39439">
        <ele>2138</ele>
        <time>2020-07-07T09:40:10.000Z</time>
      </trkpt>
      <trkpt lat="44.40101" lon="6.39438">
        <ele>2138</ele>
        <time>2020-07-07T09:40:11.000Z</time>
      </trkpt>
      <trkpt lat="44.40101" lon="6.39437">
        <ele>2138</ele>
        <time>2020-07-07T09:40:12.000Z</time>
      </trkpt>
      <trkpt lat="44.401" lon="6.39436">
        <ele>2138</ele>
        <time>2020-07-07T09:40:13.000Z</time>
      </trkpt>
      <trkpt lat="44.401" lon="6.39435">
        <ele>2139</ele>
        <time>2020-07-07T09:40:14.000Z</time>
      </trkpt>
      <trkpt lat="44.401" lon="6.39434">
        <ele>2139</ele>
        <time>2020-07-07T09:40:15.000Z</time>
      </trkpt>
      <trkpt lat="44.401" lon="6.39434">
        <ele>2139</ele>
        <time>2020-07-07T09:40:16.000Z</time>
      </trkpt>
      <trkpt lat="44.40098" lon="6.39433">
        <ele>2139</ele>
        <time>2020-07-07T09:40:17.000Z</time>
      </trkpt>
      <trkpt lat="44.40098" lon="6.39432">
        <ele>2139</ele>
        <time>2020-07-07T09:40:18.000Z</time>
      </trkpt>
      <trkpt lat="44.40097" lon="6.39431">
        <ele>2139</ele>
        <time>2020-07-07T09:40:19.000Z</time>
      </trkpt>
      <trkpt lat="44.40097" lon="6.3943">
        <ele>2139</ele>
        <time>2020-07-07T09:40:20.000Z</time>
      </trkpt>
      <trkpt lat="44.40096" lon="6.3943">
        <ele>2139</ele>
        <time>2020-07-07T09:40:21.000Z</time>
      </trkpt>
      <trkpt lat="44.40096" lon="6.39429">
        <ele>2139</ele>
        <time>2020-07-07T09:40:22.000Z</time>
      </trkpt>
      <trkpt lat="44.40095" lon="6.39428">
        <ele>2139</ele>
        <time>2020-07-07T09:40:23.000Z</time>
      </trkpt>
      <trkpt lat="44.40094" lon="6.39427">
        <ele>2139</ele>
        <time>2020-07-07T09:40:24.000Z</time>
      </trkpt>
      <trkpt lat="44.40094" lon="6.39427">
        <ele>2139</ele>
        <time>2020-07-07T09:40:25.000Z</time>
      </trkpt>
      <trkpt lat="44.40094" lon="6.39426">
        <ele>2139</ele>
        <time>2020-07-07T09:40:26.000Z</time>
      </trkpt>
      <trkpt lat="44.40093" lon="6.39425">
        <ele>2140</ele>
        <time>2020-07-07T09:40:27.000Z</time>
      </trkpt>
      <trkpt lat="44.40093" lon="6.39424">
        <ele>2140</ele>
        <time>2020-07-07T09:40:28.000Z</time>
      </trkpt>
      <trkpt lat="44.40092" lon="6.39423">
        <ele>2140</ele>
        <time>2020-07-07T09:40:29.000Z</time>
      </trkpt>
      <trkpt lat="44.40092" lon="6.39423">
        <ele>2140</ele>
        <time>2020-07-07T09:40:30.000Z</time>
      </trkpt>
      <trkpt lat="44.40092" lon="6.39422">
        <ele>2140</ele>
        <time>2020-07-07T09:40:31.000Z</time>
      </trkpt>
      <trkpt lat="44.40091" lon="6.39421">
        <ele>2140</ele>
        <time>2020-07-07T09:40:32.000Z</time>
      </trkpt>
      <trkpt lat="44.40091" lon="6.3942">
        <ele>2140</ele>
        <time>2020-07-07T09:40:33.000Z</time>
      </trkpt>
      <trkpt lat="44.40092" lon="6.39419">
        <ele>2140</ele>
        <time>2020-07-07T09:40:34.000Z</time>
      </trkpt>
      <trkpt lat="44.40092" lon="6.39419">
        <ele>2140</ele>
        <time>2020-07-07T09:40:35.000Z</time>
      </trkpt>
      <trkpt lat="44.40092" lon="6.39418">
        <ele>2140</ele>
        <time>2020-07-07T09:40:36.000Z</time>
      </trkpt>
      <trkpt lat="44.40092" lon="6.39417">
        <ele>2140</ele>
        <time>2020-07-07T09:40:37.000Z</time>
      </trkpt>
      <trkpt lat="44.40092" lon="6.39417">
        <ele>2140</ele>
        <time>2020-07-07T09:40:38.000Z</time>
      </trkpt>
      <trkpt lat="44.40091" lon="6.39416">
        <ele>2140</ele>
        <time>2020-07-07T09:40:39.000Z</time>
      </trkpt>
      <trkpt lat="44.40091" lon="6.39415">
        <ele>2140</ele>
        <time>2020-07-07T09:40:40.000Z</time>
      </trkpt>
      <trkpt lat="44.4009" lon="6.39414">
        <ele>2140</ele>
        <time>2020-07-07T09:40:41.000Z</time>
      </trkpt>
      <trkpt lat="44.4009" lon="6.39414">
        <ele>2140</ele>
        <time>2020-07-07T09:40:42.000Z</time>
      </trkpt>
      <trkpt lat="44.40089" lon="6.39413">
        <ele>2140</ele>
        <time>2020-07-07T09:40:43.000Z</time>
      </trkpt>
      <trkpt lat="44.40089" lon="6.39413">
        <ele>2140</ele>
        <time>2020-07-07T09:40:44.000Z</time>
      </trkpt>
      <trkpt lat="44.40089" lon="6.39412">
        <ele>2140</ele>
        <time>2020-07-07T09:40:45.000Z</time>
      </trkpt>
      <trkpt lat="44.40088" lon="6.39411">
        <ele>2141</ele>
        <time>2020-07-07T09:40:46.000Z</time>
      </trkpt>
      <trkpt lat="44.40087" lon="6.39411">
        <ele>2141</ele>
        <time>2020-07-07T09:40:47.000Z</time>
      </trkpt>
      <trkpt lat="44.40086" lon="6.3941">
        <ele>2141</ele>
        <time>2020-07-07T09:40:48.000Z</time>
      </trkpt>
      <trkpt lat="44.40086" lon="6.3941">
        <ele>2141</ele>
        <time>2020-07-07T09:40:49.000Z</time>
      </trkpt>
      <trkpt lat="44.40084" lon="6.39409">
        <ele>2141</ele>
        <time>2020-07-07T09:40:50.000Z</time>
      </trkpt>
      <trkpt lat="44.40083" lon="6.39408">
        <ele>2141</ele>
        <time>2020-07-07T09:40:51.000Z</time>
      </trkpt>
      <trkpt lat="44.40083" lon="6.39407">
        <ele>2141</ele>
        <time>2020-07-07T09:40:52.000Z</time>
      </trkpt>
      <trkpt lat="44.40082" lon="6.39407">
        <ele>2141</ele>
        <time>2020-07-07T09:40:53.000Z</time>
      </trkpt>
      <trkpt lat="44.40081" lon="6.39406">
        <ele>2141</ele>
        <time>2020-07-07T09:40:54.000Z</time>
      </trkpt>
      <trkpt lat="44.40081" lon="6.39406">
        <ele>2141</ele>
        <time>2020-07-07T09:40:55.000Z</time>
      </trkpt>
      <trkpt lat="44.40081" lon="6.39405">
        <ele>2142</ele>
        <time>2020-07-07T09:40:56.000Z</time>
      </trkpt>
      <trkpt lat="44.40081" lon="6.39405">
        <ele>2142</ele>
        <time>2020-07-07T09:40:57.000Z</time>
      </trkpt>
      <trkpt lat="44.40081" lon="6.39404">
        <ele>2142</ele>
        <time>2020-07-07T09:40:58.000Z</time>
      </trkpt>
      <trkpt lat="44.40081" lon="6.39404">
        <ele>2142</ele>
        <time>2020-07-07T09:40:59.000Z</time>
      </trkpt>
      <trkpt lat="44.40081" lon="6.39404">
        <ele>2142</ele>
        <time>2020-07-07T09:41:00.000Z</time>
      </trkpt>
      <trkpt lat="44.4008" lon="6.39403">
        <ele>2142</ele>
        <time>2020-07-07T09:41:01.000Z</time>
      </trkpt>
      <trkpt lat="44.4008" lon="6.39403">
        <ele>2143</ele>
        <time>2020-07-07T09:41:02.000Z</time>
      </trkpt>
      <trkpt lat="44.4008" lon="6.39403">
        <ele>2143</ele>
        <time>2020-07-07T09:41:03.000Z</time>
      </trkpt>
      <trkpt lat="44.40079" lon="6.39403">
        <ele>2143</ele>
        <time>2020-07-07T09:41:04.000Z</time>
      </trkpt>
      <trkpt lat="44.40079" lon="6.39402">
        <ele>2143</ele>
        <time>2020-07-07T09:41:05.000Z</time>
      </trkpt>
      <trkpt lat="44.40078" lon="6.39402">
        <ele>2143</ele>
        <time>2020-07-07T09:41:06.000Z</time>
      </trkpt>
      <trkpt lat="44.40077" lon="6.39401">
        <ele>2144</ele>
        <time>2020-07-07T09:41:07.000Z</time>
      </trkpt>
      <trkpt lat="44.40077" lon="6.394">
        <ele>2144</ele>
        <time>2020-07-07T09:41:08.000Z</time>
      </trkpt>
      <trkpt lat="44.40076" lon="6.39399">
        <ele>2144</ele>
        <time>2020-07-07T09:41:09.000Z</time>
      </trkpt>
      <trkpt lat="44.40076" lon="6.39398">
        <ele>2144</ele>
        <time>2020-07-07T09:41:10.000Z</time>
      </trkpt>
      <trkpt lat="44.40075" lon="6.39398">
        <ele>2144</ele>
        <time>2020-07-07T09:41:11.000Z</time>
      </trkpt>
      <trkpt lat="44.40074" lon="6.39397">
        <ele>2144</ele>
        <time>2020-07-07T09:41:12.000Z</time>
      </trkpt>
      <trkpt lat="44.40074" lon="6.39397">
        <ele>2145</ele>
        <time>2020-07-07T09:41:13.000Z</time>
      </trkpt>
      <trkpt lat="44.40074" lon="6.39397">
        <ele>2145</ele>
        <time>2020-07-07T09:41:14.000Z</time>
      </trkpt>
      <trkpt lat="44.40074" lon="6.39397">
        <ele>2145</ele>
        <time>2020-07-07T09:41:15.000Z</time>
      </trkpt>
      <trkpt lat="44.40074" lon="6.39397">
        <ele>2145</ele>
        <time>2020-07-07T09:41:16.000Z</time>
      </trkpt>
      <trkpt lat="44.40074" lon="6.39397">
        <ele>2145</ele>
        <time>2020-07-07T09:41:17.000Z</time>
      </trkpt>
      <trkpt lat="44.40073" lon="6.39396">
        <ele>2145</ele>
        <time>2020-07-07T09:41:18.000Z</time>
      </trkpt>
      <trkpt lat="44.40073" lon="6.39396">
        <ele>2145</ele>
        <time>2020-07-07T09:41:19.000Z</time>
      </trkpt>
      <trkpt lat="44.40074" lon="6.39396">
        <ele>2145</ele>
        <time>2020-07-07T09:41:20.000Z</time>
      </trkpt>
      <trkpt lat="44.40074" lon="6.39395">
        <ele>2145</ele>
        <time>2020-07-07T09:41:21.000Z</time>
      </trkpt>
      <trkpt lat="44.40074" lon="6.39395">
        <ele>2145</ele>
        <time>2020-07-07T09:41:22.000Z</time>
      </trkpt>
      <trkpt lat="44.40074" lon="6.39395">
        <ele>2145</ele>
        <time>2020-07-07T09:41:23.000Z</time>
      </trkpt>
      <trkpt lat="44.40074" lon="6.39395">
        <ele>2145</ele>
        <time>2020-07-07T09:41:24.000Z</time>
      </trkpt>
      <trkpt lat="44.40074" lon="6.39395">
        <ele>2145</ele>
        <time>2020-07-07T09:41:25.000Z</time>
      </trkpt>
      <trkpt lat="44.40073" lon="6.39395">
        <ele>2145</ele>
        <time>2020-07-07T09:41:26.000Z</time>
      </trkpt>
      <trkpt lat="44.40073" lon="6.39395">
        <ele>2145</ele>
        <time>2020-07-07T09:41:27.000Z</time>
      </trkpt>
      <trkpt lat="44.40073" lon="6.39395">
        <ele>2145</ele>
        <time>2020-07-07T09:41:28.000Z</time>
      </trkpt>
      <trkpt lat="44.40073" lon="6.39395">
        <ele>2145</ele>
        <time>2020-07-07T09:41:29.000Z</time>
      </trkpt>
      <trkpt lat="44.40073" lon="6.39395">
        <ele>2145</ele>
        <time>2020-07-07T09:41:30.000Z</time>
      </trkpt>
      <trkpt lat="44.40072" lon="6.39395">
        <ele>2145</ele>
        <time>2020-07-07T09:41:31.000Z</time>
      </trkpt>
      <trkpt lat="44.40072" lon="6.39395">
        <ele>2145</ele>
        <time>2020-07-07T09:41:32.000Z</time>
      </trkpt>
      <trkpt lat="44.40072" lon="6.39395">
        <ele>2145</ele>
        <time>2020-07-07T09:41:33.000Z</time>
      </trkpt>
      <trkpt lat="44.40072" lon="6.39395">
        <ele>2144</ele>
        <time>2020-07-07T09:41:34.000Z</time>
      </trkpt>
      <trkpt lat="44.40072" lon="6.39396">
        <ele>2144</ele>
        <time>2020-07-07T09:41:35.000Z</time>
      </trkpt>
      <trkpt lat="44.40072" lon="6.39396">
        <ele>2144</ele>
        <time>2020-07-07T09:41:36.000Z</time>
      </trkpt>
      <trkpt lat="44.40072" lon="6.39395">
        <ele>2144</ele>
        <time>2020-07-07T09:41:37.000Z</time>
      </trkpt>
      <trkpt lat="44.40072" lon="6.39395">
        <ele>2144</ele>
        <time>2020-07-07T09:41:38.000Z</time>
      </trkpt>
      <trkpt lat="44.40072" lon="6.39395">
        <ele>2144</ele>
        <time>2020-07-07T09:41:39.000Z</time>
      </trkpt>
      <trkpt lat="44.40072" lon="6.39396">
        <ele>2144</ele>
        <time>2020-07-07T09:41:40.000Z</time>
      </trkpt>
      <trkpt lat="44.40072" lon="6.39396">
        <ele>2144</ele>
        <time>2020-07-07T09:41:41.000Z</time>
      </trkpt>
      <trkpt lat="44.40072" lon="6.39396">
        <ele>2144</ele>
        <time>2020-07-07T09:41:42.000Z</time>
      </trkpt>
      <trkpt lat="44.40072" lon="6.39396">
        <ele>2144</ele>
        <time>2020-07-07T09:41:43.000Z</time>
      </trkpt>
      <trkpt lat="44.40072" lon="6.39396">
        <ele>2144</ele>
        <time>2020-07-07T09:41:44.000Z</time>
      </trkpt>
      <trkpt lat="44.40072" lon="6.39396">
        <ele>2144</ele>
        <time>2020-07-07T09:41:45.000Z</time>
      </trkpt>
      <trkpt lat="44.40072" lon="6.39396">
        <ele>2144</ele>
        <time>2020-07-07T09:41:46.000Z</time>
      </trkpt>
      <trkpt lat="44.40072" lon="6.39396">
        <ele>2144</ele>
        <time>2020-07-07T09:41:47.000Z</time>
      </trkpt>
      <trkpt lat="44.40072" lon="6.39396">
        <ele>2144</ele>
        <time>2020-07-07T09:41:48.000Z</time>
      </trkpt>
      <trkpt lat="44.40072" lon="6.39396">
        <ele>2144</ele>
        <time>2020-07-07T09:41:49.000Z</time>
      </trkpt>
      <trkpt lat="44.40072" lon="6.39396">
        <ele>2144</ele>
        <time>2020-07-07T09:41:50.000Z</time>
      </trkpt>
      <trkpt lat="44.40071" lon="6.39395">
        <ele>2144</ele>
        <time>2020-07-07T09:41:51.000Z</time>
      </trkpt>
      <trkpt lat="44.40071" lon="6.39395">
        <ele>2144</ele>
        <time>2020-07-07T09:41:52.000Z</time>
      </trkpt>
      <trkpt lat="44.40071" lon="6.39394">
        <ele>2144</ele>
        <time>2020-07-07T09:41:53.000Z</time>
      </trkpt>
      <trkpt lat="44.4007" lon="6.39393">
        <ele>2144</ele>
        <time>2020-07-07T09:41:54.000Z</time>
      </trkpt>
      <trkpt lat="44.4007" lon="6.39391">
        <ele>2143</ele>
        <time>2020-07-07T09:41:55.000Z</time>
      </trkpt>
      <trkpt lat="44.4007" lon="6.39391">
        <ele>2143</ele>
        <time>2020-07-07T09:41:56.000Z</time>
      </trkpt>
      <trkpt lat="44.4007" lon="6.3939">
        <ele>2143</ele>
        <time>2020-07-07T09:41:57.000Z</time>
      </trkpt>
      <trkpt lat="44.40069" lon="6.39389">
        <ele>2143</ele>
        <time>2020-07-07T09:41:58.000Z</time>
      </trkpt>
      <trkpt lat="44.40069" lon="6.39388">
        <ele>2143</ele>
        <time>2020-07-07T09:41:59.000Z</time>
      </trkpt>
      <trkpt lat="44.40069" lon="6.39388">
        <ele>2143</ele>
        <time>2020-07-07T09:42:00.000Z</time>
      </trkpt>
      <trkpt lat="44.40068" lon="6.39387">
        <ele>2143</ele>
        <time>2020-07-07T09:42:01.000Z</time>
      </trkpt>
      <trkpt lat="44.40068" lon="6.39386">
        <ele>2143</ele>
        <time>2020-07-07T09:42:02.000Z</time>
      </trkpt>
      <trkpt lat="44.40068" lon="6.39386">
        <ele>2143</ele>
        <time>2020-07-07T09:42:03.000Z</time>
      </trkpt>
      <trkpt lat="44.40067" lon="6.39385">
        <ele>2142</ele>
        <time>2020-07-07T09:42:04.000Z</time>
      </trkpt>
      <trkpt lat="44.40067" lon="6.39384">
        <ele>2142</ele>
        <time>2020-07-07T09:42:05.000Z</time>
      </trkpt>
      <trkpt lat="44.40066" lon="6.39384">
        <ele>2142</ele>
        <time>2020-07-07T09:42:06.000Z</time>
      </trkpt>
      <trkpt lat="44.40066" lon="6.39383">
        <ele>2142</ele>
        <time>2020-07-07T09:42:07.000Z</time>
      </trkpt>
      <trkpt lat="44.40066" lon="6.39383">
        <ele>2142</ele>
        <time>2020-07-07T09:42:08.000Z</time>
      </trkpt>
      <trkpt lat="44.40066" lon="6.39383">
        <ele>2142</ele>
        <time>2020-07-07T09:42:09.000Z</time>
      </trkpt>
      <trkpt lat="44.40066" lon="6.39382">
        <ele>2142</ele>
        <time>2020-07-07T09:42:10.000Z</time>
      </trkpt>
      <trkpt lat="44.40065" lon="6.39381">
        <ele>2142</ele>
        <time>2020-07-07T09:42:11.000Z</time>
      </trkpt>
      <trkpt lat="44.40065" lon="6.39381">
        <ele>2142</ele>
        <time>2020-07-07T09:42:12.000Z</time>
      </trkpt>
      <trkpt lat="44.40065" lon="6.3938">
        <ele>2142</ele>
        <time>2020-07-07T09:42:13.000Z</time>
      </trkpt>
      <trkpt lat="44.40064" lon="6.39379">
        <ele>2142</ele>
        <time>2020-07-07T09:42:14.000Z</time>
      </trkpt>
      <trkpt lat="44.40064" lon="6.39378">
        <ele>2142</ele>
        <time>2020-07-07T09:42:15.000Z</time>
      </trkpt>
      <trkpt lat="44.40064" lon="6.39377">
        <ele>2142</ele>
        <time>2020-07-07T09:42:16.000Z</time>
      </trkpt>
      <trkpt lat="44.40063" lon="6.39376">
        <ele>2142</ele>
        <time>2020-07-07T09:42:17.000Z</time>
      </trkpt>
      <trkpt lat="44.40063" lon="6.39375">
        <ele>2142</ele>
        <time>2020-07-07T09:42:18.000Z</time>
      </trkpt>
      <trkpt lat="44.40062" lon="6.39374">
        <ele>2142</ele>
        <time>2020-07-07T09:42:19.000Z</time>
      </trkpt>
      <trkpt lat="44.40062" lon="6.39374">
        <ele>2142</ele>
        <time>2020-07-07T09:42:20.000Z</time>
      </trkpt>
      <trkpt lat="44.40062" lon="6.39373">
        <ele>2142</ele>
        <time>2020-07-07T09:42:21.000Z</time>
      </trkpt>
      <trkpt lat="44.40061" lon="6.39372">
        <ele>2142</ele>
        <time>2020-07-07T09:42:22.000Z</time>
      </trkpt>
      <trkpt lat="44.40061" lon="6.39371">
        <ele>2142</ele>
        <time>2020-07-07T09:42:23.000Z</time>
      </trkpt>
      <trkpt lat="44.4006" lon="6.39371">
        <ele>2141</ele>
        <time>2020-07-07T09:42:24.000Z</time>
      </trkpt>
      <trkpt lat="44.4006" lon="6.3937">
        <ele>2141</ele>
        <time>2020-07-07T09:42:25.000Z</time>
      </trkpt>
      <trkpt lat="44.4006" lon="6.39369">
        <ele>2141</ele>
        <time>2020-07-07T09:42:26.000Z</time>
      </trkpt>
      <trkpt lat="44.40059" lon="6.39369">
        <ele>2141</ele>
        <time>2020-07-07T09:42:27.000Z</time>
      </trkpt>
      <trkpt lat="44.40059" lon="6.39368">
        <ele>2141</ele>
        <time>2020-07-07T09:42:28.000Z</time>
      </trkpt>
      <trkpt lat="44.40058" lon="6.39367">
        <ele>2141</ele>
        <time>2020-07-07T09:42:29.000Z</time>
      </trkpt>
      <trkpt lat="44.40057" lon="6.39366">
        <ele>2141</ele>
        <time>2020-07-07T09:42:30.000Z</time>
      </trkpt>
      <trkpt lat="44.40057" lon="6.39365">
        <ele>2141</ele>
        <time>2020-07-07T09:42:31.000Z</time>
      </trkpt>
      <trkpt lat="44.40056" lon="6.39364">
        <ele>2141</ele>
        <time>2020-07-07T09:42:32.000Z</time>
      </trkpt>
      <trkpt lat="44.40056" lon="6.39363">
        <ele>2141</ele>
        <time>2020-07-07T09:42:33.000Z</time>
      </trkpt>
      <trkpt lat="44.40055" lon="6.39362">
        <ele>2141</ele>
        <time>2020-07-07T09:42:34.000Z</time>
      </trkpt>
      <trkpt lat="44.40054" lon="6.3936">
        <ele>2141</ele>
        <time>2020-07-07T09:42:35.000Z</time>
      </trkpt>
      <trkpt lat="44.40054" lon="6.39359">
        <ele>2141</ele>
        <time>2020-07-07T09:42:36.000Z</time>
      </trkpt>
      <trkpt lat="44.40054" lon="6.39358">
        <ele>2141</ele>
        <time>2020-07-07T09:42:37.000Z</time>
      </trkpt>
      <trkpt lat="44.40054" lon="6.39357">
        <ele>2141</ele>
        <time>2020-07-07T09:42:38.000Z</time>
      </trkpt>
      <trkpt lat="44.40054" lon="6.39356">
        <ele>2141</ele>
        <time>2020-07-07T09:42:39.000Z</time>
      </trkpt>
      <trkpt lat="44.40053" lon="6.39355">
        <ele>2141</ele>
        <time>2020-07-07T09:42:40.000Z</time>
      </trkpt>
      <trkpt lat="44.40052" lon="6.39354">
        <ele>2141</ele>
        <time>2020-07-07T09:42:41.000Z</time>
      </trkpt>
      <trkpt lat="44.40051" lon="6.39352">
        <ele>2141</ele>
        <time>2020-07-07T09:42:42.000Z</time>
      </trkpt>
      <trkpt lat="44.40051" lon="6.39352">
        <ele>2141</ele>
        <time>2020-07-07T09:42:43.000Z</time>
      </trkpt>
      <trkpt lat="44.4005" lon="6.39351">
        <ele>2141</ele>
        <time>2020-07-07T09:42:44.000Z</time>
      </trkpt>
      <trkpt lat="44.4005" lon="6.3935">
        <ele>2141</ele>
        <time>2020-07-07T09:42:45.000Z</time>
      </trkpt>
      <trkpt lat="44.40049" lon="6.3935">
        <ele>2140</ele>
        <time>2020-07-07T09:42:46.000Z</time>
      </trkpt>
      <trkpt lat="44.40048" lon="6.39349">
        <ele>2140</ele>
        <time>2020-07-07T09:42:47.000Z</time>
      </trkpt>
      <trkpt lat="44.40046" lon="6.39348">
        <ele>2140</ele>
        <time>2020-07-07T09:42:48.000Z</time>
      </trkpt>
      <trkpt lat="44.40045" lon="6.39348">
        <ele>2140</ele>
        <time>2020-07-07T09:42:49.000Z</time>
      </trkpt>
      <trkpt lat="44.40044" lon="6.39347">
        <ele>2140</ele>
        <time>2020-07-07T09:42:50.000Z</time>
      </trkpt>
      <trkpt lat="44.40043" lon="6.39347">
        <ele>2140</ele>
        <time>2020-07-07T09:42:51.000Z</time>
      </trkpt>
      <trkpt lat="44.40043" lon="6.39346">
        <ele>2140</ele>
        <time>2020-07-07T09:42:52.000Z</time>
      </trkpt>
      <trkpt lat="44.40042" lon="6.39346">
        <ele>2140</ele>
        <time>2020-07-07T09:42:53.000Z</time>
      </trkpt>
      <trkpt lat="44.40041" lon="6.39344">
        <ele>2140</ele>
        <time>2020-07-07T09:42:54.000Z</time>
      </trkpt>
      <trkpt lat="44.40039" lon="6.39344">
        <ele>2140</ele>
        <time>2020-07-07T09:42:55.000Z</time>
      </trkpt>
      <trkpt lat="44.40038" lon="6.39343">
        <ele>2140</ele>
        <time>2020-07-07T09:42:56.000Z</time>
      </trkpt>
      <trkpt lat="44.40037" lon="6.39342">
        <ele>2141</ele>
        <time>2020-07-07T09:42:57.000Z</time>
      </trkpt>
      <trkpt lat="44.40036" lon="6.39342">
        <ele>2141</ele>
        <time>2020-07-07T09:42:58.000Z</time>
      </trkpt>
      <trkpt lat="44.40035" lon="6.39342">
        <ele>2140</ele>
        <time>2020-07-07T09:42:59.000Z</time>
      </trkpt>
      <trkpt lat="44.40033" lon="6.39342">
        <ele>2140</ele>
        <time>2020-07-07T09:43:00.000Z</time>
      </trkpt>
      <trkpt lat="44.40032" lon="6.39341">
        <ele>2140</ele>
        <time>2020-07-07T09:43:01.000Z</time>
      </trkpt>
      <trkpt lat="44.40031" lon="6.39341">
        <ele>2140</ele>
        <time>2020-07-07T09:43:02.000Z</time>
      </trkpt>
      <trkpt lat="44.40031" lon="6.3934">
        <ele>2140</ele>
        <time>2020-07-07T09:43:03.000Z</time>
      </trkpt>
      <trkpt lat="44.4003" lon="6.3934">
        <ele>2140</ele>
        <time>2020-07-07T09:43:04.000Z</time>
      </trkpt>
      <trkpt lat="44.40029" lon="6.39339">
        <ele>2140</ele>
        <time>2020-07-07T09:43:05.000Z</time>
      </trkpt>
      <trkpt lat="44.40027" lon="6.39338">
        <ele>2140</ele>
        <time>2020-07-07T09:43:06.000Z</time>
      </trkpt>
      <trkpt lat="44.40025" lon="6.39337">
        <ele>2139</ele>
        <time>2020-07-07T09:43:07.000Z</time>
      </trkpt>
      <trkpt lat="44.40024" lon="6.39337">
        <ele>2139</ele>
        <time>2020-07-07T09:43:08.000Z</time>
      </trkpt>
      <trkpt lat="44.40024" lon="6.39336">
        <ele>2139</ele>
        <time>2020-07-07T09:43:09.000Z</time>
      </trkpt>
      <trkpt lat="44.40023" lon="6.39335">
        <ele>2139</ele>
        <time>2020-07-07T09:43:10.000Z</time>
      </trkpt>
      <trkpt lat="44.40022" lon="6.39334">
        <ele>2139</ele>
        <time>2020-07-07T09:43:11.000Z</time>
      </trkpt>
      <trkpt lat="44.40021" lon="6.39333">
        <ele>2139</ele>
        <time>2020-07-07T09:43:12.000Z</time>
      </trkpt>
      <trkpt lat="44.4002" lon="6.39332">
        <ele>2139</ele>
        <time>2020-07-07T09:43:13.000Z</time>
      </trkpt>
      <trkpt lat="44.4002" lon="6.39331">
        <ele>2139</ele>
        <time>2020-07-07T09:43:14.000Z</time>
      </trkpt>
      <trkpt lat="44.40019" lon="6.39331">
        <ele>2139</ele>
        <time>2020-07-07T09:43:15.000Z</time>
      </trkpt>
      <trkpt lat="44.40018" lon="6.3933">
        <ele>2139</ele>
        <time>2020-07-07T09:43:16.000Z</time>
      </trkpt>
      <trkpt lat="44.40017" lon="6.39329">
        <ele>2139</ele>
        <time>2020-07-07T09:43:17.000Z</time>
      </trkpt>
      <trkpt lat="44.40016" lon="6.39328">
        <ele>2139</ele>
        <time>2020-07-07T09:43:18.000Z</time>
      </trkpt>
      <trkpt lat="44.40015" lon="6.39327">
        <ele>2139</ele>
        <time>2020-07-07T09:43:19.000Z</time>
      </trkpt>
      <trkpt lat="44.40014" lon="6.39326">
        <ele>2139</ele>
        <time>2020-07-07T09:43:20.000Z</time>
      </trkpt>
      <trkpt lat="44.40013" lon="6.39326">
        <ele>2138</ele>
        <time>2020-07-07T09:43:21.000Z</time>
      </trkpt>
      <trkpt lat="44.40012" lon="6.39325">
        <ele>2138</ele>
        <time>2020-07-07T09:43:22.000Z</time>
      </trkpt>
      <trkpt lat="44.40011" lon="6.39324">
        <ele>2138</ele>
        <time>2020-07-07T09:43:23.000Z</time>
      </trkpt>
      <trkpt lat="44.40009" lon="6.39323">
        <ele>2138</ele>
        <time>2020-07-07T09:43:24.000Z</time>
      </trkpt>
      <trkpt lat="44.40008" lon="6.39323">
        <ele>2138</ele>
        <time>2020-07-07T09:43:25.000Z</time>
      </trkpt>
      <trkpt lat="44.40008" lon="6.39323">
        <ele>2138</ele>
        <time>2020-07-07T09:43:26.000Z</time>
      </trkpt>
      <trkpt lat="44.40008" lon="6.39323">
        <ele>2138</ele>
        <time>2020-07-07T09:43:27.000Z</time>
      </trkpt>
      <trkpt lat="44.40007" lon="6.39323">
        <ele>2138</ele>
        <time>2020-07-07T09:43:28.000Z</time>
      </trkpt>
      <trkpt lat="44.40006" lon="6.39322">
        <ele>2138</ele>
        <time>2020-07-07T09:43:29.000Z</time>
      </trkpt>
      <trkpt lat="44.40003" lon="6.39321">
        <ele>2138</ele>
        <time>2020-07-07T09:43:30.000Z</time>
      </trkpt>
      <trkpt lat="44.40001" lon="6.39321">
        <ele>2138</ele>
        <time>2020-07-07T09:43:31.000Z</time>
      </trkpt>
      <trkpt lat="44.4" lon="6.3932">
        <ele>2138</ele>
        <time>2020-07-07T09:43:32.000Z</time>
      </trkpt>
      <trkpt lat="44.39999" lon="6.3932">
        <ele>2138</ele>
        <time>2020-07-07T09:43:33.000Z</time>
      </trkpt>
      <trkpt lat="44.39998" lon="6.39319">
        <ele>2138</ele>
        <time>2020-07-07T09:43:34.000Z</time>
      </trkpt>
      <trkpt lat="44.39997" lon="6.39318">
        <ele>2138</ele>
        <time>2020-07-07T09:43:35.000Z</time>
      </trkpt>
      <trkpt lat="44.39996" lon="6.39318">
        <ele>2138</ele>
        <time>2020-07-07T09:43:36.000Z</time>
      </trkpt>
      <trkpt lat="44.39996" lon="6.39317">
        <ele>2138</ele>
        <time>2020-07-07T09:43:37.000Z</time>
      </trkpt>
      <trkpt lat="44.39995" lon="6.39317">
        <ele>2138</ele>
        <time>2020-07-07T09:43:38.000Z</time>
      </trkpt>
      <trkpt lat="44.39994" lon="6.39316">
        <ele>2138</ele>
        <time>2020-07-07T09:43:39.000Z</time>
      </trkpt>
      <trkpt lat="44.39993" lon="6.39316">
        <ele>2138</ele>
        <time>2020-07-07T09:43:40.000Z</time>
      </trkpt>
      <trkpt lat="44.39992" lon="6.39315">
        <ele>2138</ele>
        <time>2020-07-07T09:43:41.000Z</time>
      </trkpt>
      <trkpt lat="44.39991" lon="6.39314">
        <ele>2138</ele>
        <time>2020-07-07T09:43:42.000Z</time>
      </trkpt>
      <trkpt lat="44.3999" lon="6.39314">
        <ele>2138</ele>
        <time>2020-07-07T09:43:43.000Z</time>
      </trkpt>
      <trkpt lat="44.3999" lon="6.39313">
        <ele>2138</ele>
        <time>2020-07-07T09:43:44.000Z</time>
      </trkpt>
      <trkpt lat="44.3999" lon="6.39313">
        <ele>2138</ele>
        <time>2020-07-07T09:43:45.000Z</time>
      </trkpt>
      <trkpt lat="44.3999" lon="6.39313">
        <ele>2138</ele>
        <time>2020-07-07T09:43:46.000Z</time>
      </trkpt>
      <trkpt lat="44.3999" lon="6.39313">
        <ele>2138</ele>
        <time>2020-07-07T09:43:47.000Z</time>
      </trkpt>
      <trkpt lat="44.3999" lon="6.39313">
        <ele>2138</ele>
        <time>2020-07-07T09:43:48.000Z</time>
      </trkpt>
      <trkpt lat="44.3999" lon="6.39313">
        <ele>2138</ele>
        <time>2020-07-07T09:43:49.000Z</time>
      </trkpt>
      <trkpt lat="44.3999" lon="6.39313">
        <ele>2138</ele>
        <time>2020-07-07T09:43:50.000Z</time>
      </trkpt>
      <trkpt lat="44.3999" lon="6.39313">
        <ele>2138</ele>
        <time>2020-07-07T09:43:51.000Z</time>
      </trkpt>
      <trkpt lat="44.3999" lon="6.39313">
        <ele>2138</ele>
        <time>2020-07-07T09:43:52.000Z</time>
      </trkpt>
      <trkpt lat="44.3999" lon="6.39312">
        <ele>2138</ele>
        <time>2020-07-07T09:43:53.000Z</time>
      </trkpt>
      <trkpt lat="44.3999" lon="6.39312">
        <ele>2138</ele>
        <time>2020-07-07T09:43:54.000Z</time>
      </trkpt>
      <trkpt lat="44.3999" lon="6.39312">
        <ele>2138</ele>
        <time>2020-07-07T09:43:55.000Z</time>
      </trkpt>
      <trkpt lat="44.3999" lon="6.39312">
        <ele>2138</ele>
        <time>2020-07-07T09:43:56.000Z</time>
      </trkpt>
      <trkpt lat="44.3999" lon="6.39312">
        <ele>2138</ele>
        <time>2020-07-07T09:43:57.000Z</time>
      </trkpt>
      <trkpt lat="44.3999" lon="6.39312">
        <ele>2138</ele>
        <time>2020-07-07T09:43:58.000Z</time>
      </trkpt>
      <trkpt lat="44.39989" lon="6.39312">
        <ele>2138</ele>
        <time>2020-07-07T09:43:59.000Z</time>
      </trkpt>
      <trkpt lat="44.39989" lon="6.39311">
        <ele>2138</ele>
        <time>2020-07-07T09:44:00.000Z</time>
      </trkpt>
      <trkpt lat="44.39988" lon="6.39311">
        <ele>2138</ele>
        <time>2020-07-07T09:44:01.000Z</time>
      </trkpt>
      <trkpt lat="44.39988" lon="6.39311">
        <ele>2138</ele>
        <time>2020-07-07T09:44:02.000Z</time>
      </trkpt>
      <trkpt lat="44.39986" lon="6.39312">
        <ele>2138</ele>
        <time>2020-07-07T09:44:03.000Z</time>
      </trkpt>
      <trkpt lat="44.39985" lon="6.39312">
        <ele>2138</ele>
        <time>2020-07-07T09:44:04.000Z</time>
      </trkpt>
      <trkpt lat="44.39984" lon="6.39312">
        <ele>2138</ele>
        <time>2020-07-07T09:44:05.000Z</time>
      </trkpt>
      <trkpt lat="44.39983" lon="6.39312">
        <ele>2138</ele>
        <time>2020-07-07T09:44:06.000Z</time>
      </trkpt>
      <trkpt lat="44.39982" lon="6.39313">
        <ele>2138</ele>
        <time>2020-07-07T09:44:07.000Z</time>
      </trkpt>
      <trkpt lat="44.39981" lon="6.39313">
        <ele>2138</ele>
        <time>2020-07-07T09:44:08.000Z</time>
      </trkpt>
      <trkpt lat="44.39981" lon="6.39313">
        <ele>2138</ele>
        <time>2020-07-07T09:44:09.000Z</time>
      </trkpt>
      <trkpt lat="44.3998" lon="6.39313">
        <ele>2138</ele>
        <time>2020-07-07T09:44:10.000Z</time>
      </trkpt>
      <trkpt lat="44.39979" lon="6.39313">
        <ele>2138</ele>
        <time>2020-07-07T09:44:11.000Z</time>
      </trkpt>
      <trkpt lat="44.39978" lon="6.39313">
        <ele>2138</ele>
        <time>2020-07-07T09:44:12.000Z</time>
      </trkpt>
      <trkpt lat="44.39977" lon="6.39313">
        <ele>2138</ele>
        <time>2020-07-07T09:44:13.000Z</time>
      </trkpt>
      <trkpt lat="44.39976" lon="6.39313">
        <ele>2138</ele>
        <time>2020-07-07T09:44:14.000Z</time>
      </trkpt>
      <trkpt lat="44.39975" lon="6.39313">
        <ele>2138</ele>
        <time>2020-07-07T09:44:15.000Z</time>
      </trkpt>
      <trkpt lat="44.39974" lon="6.39314">
        <ele>2138</ele>
        <time>2020-07-07T09:44:16.000Z</time>
      </trkpt>
      <trkpt lat="44.39974" lon="6.39315">
        <ele>2138</ele>
        <time>2020-07-07T09:44:17.000Z</time>
      </trkpt>
      <trkpt lat="44.39973" lon="6.39315">
        <ele>2138</ele>
        <time>2020-07-07T09:44:18.000Z</time>
      </trkpt>
      <trkpt lat="44.39972" lon="6.39316">
        <ele>2138</ele>
        <time>2020-07-07T09:44:19.000Z</time>
      </trkpt>
      <trkpt lat="44.3997" lon="6.39316">
        <ele>2138</ele>
        <time>2020-07-07T09:44:20.000Z</time>
      </trkpt>
      <trkpt lat="44.39969" lon="6.39316">
        <ele>2138</ele>
        <time>2020-07-07T09:44:21.000Z</time>
      </trkpt>
      <trkpt lat="44.39968" lon="6.39316">
        <ele>2138</ele>
        <time>2020-07-07T09:44:22.000Z</time>
      </trkpt>
      <trkpt lat="44.39967" lon="6.39316">
        <ele>2138</ele>
        <time>2020-07-07T09:44:23.000Z</time>
      </trkpt>
      <trkpt lat="44.39966" lon="6.39316">
        <ele>2138</ele>
        <time>2020-07-07T09:44:24.000Z</time>
      </trkpt>
      <trkpt lat="44.39965" lon="6.39317">
        <ele>2138</ele>
        <time>2020-07-07T09:44:25.000Z</time>
      </trkpt>
      <trkpt lat="44.39964" lon="6.39317">
        <ele>2138</ele>
        <time>2020-07-07T09:44:26.000Z</time>
      </trkpt>
      <trkpt lat="44.39963" lon="6.39318">
        <ele>2138</ele>
        <time>2020-07-07T09:44:27.000Z</time>
      </trkpt>
      <trkpt lat="44.39962" lon="6.39318">
        <ele>2137</ele>
        <time>2020-07-07T09:44:28.000Z</time>
      </trkpt>
      <trkpt lat="44.3996" lon="6.39318">
        <ele>2137</ele>
        <time>2020-07-07T09:44:29.000Z</time>
      </trkpt>
      <trkpt lat="44.3996" lon="6.39318">
        <ele>2137</ele>
        <time>2020-07-07T09:44:30.000Z</time>
      </trkpt>
      <trkpt lat="44.39959" lon="6.39318">
        <ele>2137</ele>
        <time>2020-07-07T09:44:31.000Z</time>
      </trkpt>
      <trkpt lat="44.39957" lon="6.39318">
        <ele>2137</ele>
        <time>2020-07-07T09:44:32.000Z</time>
      </trkpt>
      <trkpt lat="44.39956" lon="6.39318">
        <ele>2137</ele>
        <time>2020-07-07T09:44:33.000Z</time>
      </trkpt>
      <trkpt lat="44.39955" lon="6.39319">
        <ele>2137</ele>
        <time>2020-07-07T09:44:34.000Z</time>
      </trkpt>
      <trkpt lat="44.39954" lon="6.39319">
        <ele>2137</ele>
        <time>2020-07-07T09:44:35.000Z</time>
      </trkpt>
      <trkpt lat="44.39953" lon="6.39319">
        <ele>2137</ele>
        <time>2020-07-07T09:44:36.000Z</time>
      </trkpt>
      <trkpt lat="44.39952" lon="6.3932">
        <ele>2137</ele>
        <time>2020-07-07T09:44:37.000Z</time>
      </trkpt>
      <trkpt lat="44.3995" lon="6.3932">
        <ele>2137</ele>
        <time>2020-07-07T09:44:38.000Z</time>
      </trkpt>
      <trkpt lat="44.39949" lon="6.3932">
        <ele>2137</ele>
        <time>2020-07-07T09:44:39.000Z</time>
      </trkpt>
      <trkpt lat="44.39948" lon="6.3932">
        <ele>2137</ele>
        <time>2020-07-07T09:44:40.000Z</time>
      </trkpt>
      <trkpt lat="44.39947" lon="6.3932">
        <ele>2137</ele>
        <time>2020-07-07T09:44:41.000Z</time>
      </trkpt>
      <trkpt lat="44.39946" lon="6.3932">
        <ele>2137</ele>
        <time>2020-07-07T09:44:42.000Z</time>
      </trkpt>
      <trkpt lat="44.39945" lon="6.39319">
        <ele>2137</ele>
        <time>2020-07-07T09:44:43.000Z</time>
      </trkpt>
      <trkpt lat="44.39944" lon="6.39318">
        <ele>2137</ele>
        <time>2020-07-07T09:44:44.000Z</time>
      </trkpt>
      <trkpt lat="44.39943" lon="6.39318">
        <ele>2137</ele>
        <time>2020-07-07T09:44:45.000Z</time>
      </trkpt>
      <trkpt lat="44.39943" lon="6.39317">
        <ele>2137</ele>
        <time>2020-07-07T09:44:46.000Z</time>
      </trkpt>
      <trkpt lat="44.39942" lon="6.39317">
        <ele>2137</ele>
        <time>2020-07-07T09:44:47.000Z</time>
      </trkpt>
      <trkpt lat="44.39941" lon="6.39317">
        <ele>2137</ele>
        <time>2020-07-07T09:44:48.000Z</time>
      </trkpt>
      <trkpt lat="44.39939" lon="6.39316">
        <ele>2137</ele>
        <time>2020-07-07T09:44:49.000Z</time>
      </trkpt>
      <trkpt lat="44.39938" lon="6.39316">
        <ele>2137</ele>
        <time>2020-07-07T09:44:50.000Z</time>
      </trkpt>
      <trkpt lat="44.39938" lon="6.39316">
        <ele>2137</ele>
        <time>2020-07-07T09:44:51.000Z</time>
      </trkpt>
      <trkpt lat="44.39937" lon="6.39317">
        <ele>2137</ele>
        <time>2020-07-07T09:44:52.000Z</time>
      </trkpt>
      <trkpt lat="44.39936" lon="6.39317">
        <ele>2137</ele>
        <time>2020-07-07T09:44:53.000Z</time>
      </trkpt>
      <trkpt lat="44.39935" lon="6.39317">
        <ele>2137</ele>
        <time>2020-07-07T09:44:54.000Z</time>
      </trkpt>
      <trkpt lat="44.39934" lon="6.39318">
        <ele>2137</ele>
        <time>2020-07-07T09:44:55.000Z</time>
      </trkpt>
      <trkpt lat="44.39934" lon="6.39318">
        <ele>2137</ele>
        <time>2020-07-07T09:44:56.000Z</time>
      </trkpt>
      <trkpt lat="44.39933" lon="6.39319">
        <ele>2137</ele>
        <time>2020-07-07T09:44:57.000Z</time>
      </trkpt>
      <trkpt lat="44.39932" lon="6.39319">
        <ele>2137</ele>
        <time>2020-07-07T09:44:58.000Z</time>
      </trkpt>
      <trkpt lat="44.39931" lon="6.39319">
        <ele>2137</ele>
        <time>2020-07-07T09:44:59.000Z</time>
      </trkpt>
      <trkpt lat="44.3993" lon="6.3932">
        <ele>2137</ele>
        <time>2020-07-07T09:45:00.000Z</time>
      </trkpt>
      <trkpt lat="44.39929" lon="6.39321">
        <ele>2137</ele>
        <time>2020-07-07T09:45:01.000Z</time>
      </trkpt>
      <trkpt lat="44.39927" lon="6.39321">
        <ele>2137</ele>
        <time>2020-07-07T09:45:02.000Z</time>
      </trkpt>
      <trkpt lat="44.39927" lon="6.39322">
        <ele>2137</ele>
        <time>2020-07-07T09:45:03.000Z</time>
      </trkpt>
      <trkpt lat="44.39926" lon="6.39323">
        <ele>2137</ele>
        <time>2020-07-07T09:45:04.000Z</time>
      </trkpt>
      <trkpt lat="44.39925" lon="6.39323">
        <ele>2137</ele>
        <time>2020-07-07T09:45:05.000Z</time>
      </trkpt>
      <trkpt lat="44.39925" lon="6.39324">
        <ele>2137</ele>
        <time>2020-07-07T09:45:06.000Z</time>
      </trkpt>
      <trkpt lat="44.39924" lon="6.39325">
        <ele>2137</ele>
        <time>2020-07-07T09:45:07.000Z</time>
      </trkpt>
      <trkpt lat="44.39924" lon="6.39325">
        <ele>2137</ele>
        <time>2020-07-07T09:45:08.000Z</time>
      </trkpt>
      <trkpt lat="44.39924" lon="6.39325">
        <ele>2137</ele>
        <time>2020-07-07T09:45:09.000Z</time>
      </trkpt>
      <trkpt lat="44.39924" lon="6.39325">
        <ele>2137</ele>
        <time>2020-07-07T09:45:10.000Z</time>
      </trkpt>
      <trkpt lat="44.39923" lon="6.39325">
        <ele>2137</ele>
        <time>2020-07-07T09:45:11.000Z</time>
      </trkpt>
      <trkpt lat="44.39922" lon="6.39325">
        <ele>2137</ele>
        <time>2020-07-07T09:45:12.000Z</time>
      </trkpt>
      <trkpt lat="44.39921" lon="6.39325">
        <ele>2138</ele>
        <time>2020-07-07T09:45:13.000Z</time>
      </trkpt>
      <trkpt lat="44.39921" lon="6.39325">
        <ele>2138</ele>
        <time>2020-07-07T09:45:14.000Z</time>
      </trkpt>
      <trkpt lat="44.3992" lon="6.39326">
        <ele>2137</ele>
        <time>2020-07-07T09:45:15.000Z</time>
      </trkpt>
      <trkpt lat="44.39919" lon="6.39326">
        <ele>2137</ele>
        <time>2020-07-07T09:45:16.000Z</time>
      </trkpt>
      <trkpt lat="44.39918" lon="6.39327">
        <ele>2137</ele>
        <time>2020-07-07T09:45:17.000Z</time>
      </trkpt>
      <trkpt lat="44.39918" lon="6.39328">
        <ele>2137</ele>
        <time>2020-07-07T09:45:18.000Z</time>
      </trkpt>
      <trkpt lat="44.39917" lon="6.39328">
        <ele>2137</ele>
        <time>2020-07-07T09:45:19.000Z</time>
      </trkpt>
      <trkpt lat="44.39916" lon="6.39329">
        <ele>2137</ele>
        <time>2020-07-07T09:45:20.000Z</time>
      </trkpt>
      <trkpt lat="44.39915" lon="6.3933">
        <ele>2137</ele>
        <time>2020-07-07T09:45:21.000Z</time>
      </trkpt>
      <trkpt lat="44.39914" lon="6.3933">
        <ele>2137</ele>
        <time>2020-07-07T09:45:22.000Z</time>
      </trkpt>
      <trkpt lat="44.39914" lon="6.3933">
        <ele>2137</ele>
        <time>2020-07-07T09:45:23.000Z</time>
      </trkpt>
      <trkpt lat="44.39913" lon="6.39331">
        <ele>2137</ele>
        <time>2020-07-07T09:45:24.000Z</time>
      </trkpt>
      <trkpt lat="44.39912" lon="6.39331">
        <ele>2137</ele>
        <time>2020-07-07T09:45:25.000Z</time>
      </trkpt>
      <trkpt lat="44.3991" lon="6.39331">
        <ele>2137</ele>
        <time>2020-07-07T09:45:26.000Z</time>
      </trkpt>
      <trkpt lat="44.39909" lon="6.3933">
        <ele>2137</ele>
        <time>2020-07-07T09:45:27.000Z</time>
      </trkpt>
      <trkpt lat="44.39909" lon="6.39331">
        <ele>2137</ele>
        <time>2020-07-07T09:45:28.000Z</time>
      </trkpt>
      <trkpt lat="44.39908" lon="6.39331">
        <ele>2137</ele>
        <time>2020-07-07T09:45:29.000Z</time>
      </trkpt>
      <trkpt lat="44.39907" lon="6.39332">
        <ele>2137</ele>
        <time>2020-07-07T09:45:30.000Z</time>
      </trkpt>
      <trkpt lat="44.39907" lon="6.39332">
        <ele>2137</ele>
        <time>2020-07-07T09:45:31.000Z</time>
      </trkpt>
      <trkpt lat="44.39906" lon="6.39333">
        <ele>2137</ele>
        <time>2020-07-07T09:45:32.000Z</time>
      </trkpt>
      <trkpt lat="44.39906" lon="6.39334">
        <ele>2137</ele>
        <time>2020-07-07T09:45:33.000Z</time>
      </trkpt>
      <trkpt lat="44.39906" lon="6.39334">
        <ele>2137</ele>
        <time>2020-07-07T09:45:34.000Z</time>
      </trkpt>
      <trkpt lat="44.39905" lon="6.39333">
        <ele>2137</ele>
        <time>2020-07-07T09:45:35.000Z</time>
      </trkpt>
      <trkpt lat="44.39905" lon="6.39333">
        <ele>2137</ele>
        <time>2020-07-07T09:45:36.000Z</time>
      </trkpt>
      <trkpt lat="44.39905" lon="6.39333">
        <ele>2137</ele>
        <time>2020-07-07T09:45:37.000Z</time>
      </trkpt>
      <trkpt lat="44.39905" lon="6.39333">
        <ele>2137</ele>
        <time>2020-07-07T09:45:38.000Z</time>
      </trkpt>
      <trkpt lat="44.39905" lon="6.39333">
        <ele>2137</ele>
        <time>2020-07-07T09:45:39.000Z</time>
      </trkpt>
      <trkpt lat="44.39905" lon="6.39333">
        <ele>2137</ele>
        <time>2020-07-07T09:45:40.000Z</time>
      </trkpt>
      <trkpt lat="44.39905" lon="6.39333">
        <ele>2137</ele>
        <time>2020-07-07T09:45:41.000Z</time>
      </trkpt>
      <trkpt lat="44.39905" lon="6.39334">
        <ele>2137</ele>
        <time>2020-07-07T09:45:42.000Z</time>
      </trkpt>
      <trkpt lat="44.39905" lon="6.39334">
        <ele>2137</ele>
        <time>2020-07-07T09:45:43.000Z</time>
      </trkpt>
      <trkpt lat="44.39904" lon="6.39335">
        <ele>2137</ele>
        <time>2020-07-07T09:45:44.000Z</time>
      </trkpt>
      <trkpt lat="44.39903" lon="6.39336">
        <ele>2137</ele>
        <time>2020-07-07T09:45:45.000Z</time>
      </trkpt>
      <trkpt lat="44.39903" lon="6.39336">
        <ele>2137</ele>
        <time>2020-07-07T09:45:46.000Z</time>
      </trkpt>
      <trkpt lat="44.39901" lon="6.39337">
        <ele>2137</ele>
        <time>2020-07-07T09:45:47.000Z</time>
      </trkpt>
      <trkpt lat="44.399" lon="6.39337">
        <ele>2137</ele>
        <time>2020-07-07T09:45:48.000Z</time>
      </trkpt>
      <trkpt lat="44.399" lon="6.39337">
        <ele>2137</ele>
        <time>2020-07-07T09:45:49.000Z</time>
      </trkpt>
      <trkpt lat="44.39899" lon="6.39338">
        <ele>2138</ele>
        <time>2020-07-07T09:45:50.000Z</time>
      </trkpt>
      <trkpt lat="44.39898" lon="6.39338">
        <ele>2138</ele>
        <time>2020-07-07T09:45:51.000Z</time>
      </trkpt>
      <trkpt lat="44.39897" lon="6.39338">
        <ele>2138</ele>
        <time>2020-07-07T09:45:52.000Z</time>
      </trkpt>
      <trkpt lat="44.39897" lon="6.39339">
        <ele>2138</ele>
        <time>2020-07-07T09:45:53.000Z</time>
      </trkpt>
      <trkpt lat="44.39896" lon="6.3934">
        <ele>2138</ele>
        <time>2020-07-07T09:45:54.000Z</time>
      </trkpt>
      <trkpt lat="44.39895" lon="6.3934">
        <ele>2138</ele>
        <time>2020-07-07T09:45:55.000Z</time>
      </trkpt>
      <trkpt lat="44.39894" lon="6.3934">
        <ele>2138</ele>
        <time>2020-07-07T09:45:56.000Z</time>
      </trkpt>
      <trkpt lat="44.39893" lon="6.39341">
        <ele>2138</ele>
        <time>2020-07-07T09:45:57.000Z</time>
      </trkpt>
      <trkpt lat="44.39893" lon="6.39341">
        <ele>2139</ele>
        <time>2020-07-07T09:45:58.000Z</time>
      </trkpt>
      <trkpt lat="44.39892" lon="6.39341">
        <ele>2139</ele>
        <time>2020-07-07T09:45:59.000Z</time>
      </trkpt>
      <trkpt lat="44.39891" lon="6.39341">
        <ele>2139</ele>
        <time>2020-07-07T09:46:00.000Z</time>
      </trkpt>
      <trkpt lat="44.3989" lon="6.39342">
        <ele>2139</ele>
        <time>2020-07-07T09:46:01.000Z</time>
      </trkpt>
      <trkpt lat="44.39889" lon="6.39343">
        <ele>2139</ele>
        <time>2020-07-07T09:46:02.000Z</time>
      </trkpt>
      <trkpt lat="44.39889" lon="6.39343">
        <ele>2139</ele>
        <time>2020-07-07T09:46:03.000Z</time>
      </trkpt>
      <trkpt lat="44.39888" lon="6.39344">
        <ele>2139</ele>
        <time>2020-07-07T09:46:04.000Z</time>
      </trkpt>
      <trkpt lat="44.39887" lon="6.39345">
        <ele>2139</ele>
        <time>2020-07-07T09:46:05.000Z</time>
      </trkpt>
      <trkpt lat="44.39887" lon="6.39346">
        <ele>2139</ele>
        <time>2020-07-07T09:46:06.000Z</time>
      </trkpt>
      <trkpt lat="44.39886" lon="6.39347">
        <ele>2139</ele>
        <time>2020-07-07T09:46:07.000Z</time>
      </trkpt>
      <trkpt lat="44.39886" lon="6.39348">
        <ele>2139</ele>
        <time>2020-07-07T09:46:08.000Z</time>
      </trkpt>
      <trkpt lat="44.39885" lon="6.39349">
        <ele>2139</ele>
        <time>2020-07-07T09:46:09.000Z</time>
      </trkpt>
      <trkpt lat="44.39885" lon="6.3935">
        <ele>2139</ele>
        <time>2020-07-07T09:46:10.000Z</time>
      </trkpt>
      <trkpt lat="44.39885" lon="6.39352">
        <ele>2139</ele>
        <time>2020-07-07T09:46:11.000Z</time>
      </trkpt>
      <trkpt lat="44.39885" lon="6.39353">
        <ele>2139</ele>
        <time>2020-07-07T09:46:12.000Z</time>
      </trkpt>
      <trkpt lat="44.39885" lon="6.39354">
        <ele>2139</ele>
        <time>2020-07-07T09:46:13.000Z</time>
      </trkpt>
      <trkpt lat="44.39884" lon="6.39354">
        <ele>2139</ele>
        <time>2020-07-07T09:46:14.000Z</time>
      </trkpt>
      <trkpt lat="44.39884" lon="6.39354">
        <ele>2139</ele>
        <time>2020-07-07T09:46:15.000Z</time>
      </trkpt>
      <trkpt lat="44.39884" lon="6.39354">
        <ele>2139</ele>
        <time>2020-07-07T09:46:16.000Z</time>
      </trkpt>
      <trkpt lat="44.39884" lon="6.39354">
        <ele>2139</ele>
        <time>2020-07-07T09:46:17.000Z</time>
      </trkpt>
      <trkpt lat="44.39884" lon="6.39354">
        <ele>2138</ele>
        <time>2020-07-07T09:46:18.000Z</time>
      </trkpt>
      <trkpt lat="44.39884" lon="6.39354">
        <ele>2138</ele>
        <time>2020-07-07T09:46:19.000Z</time>
      </trkpt>
      <trkpt lat="44.39884" lon="6.39354">
        <ele>2138</ele>
        <time>2020-07-07T09:46:20.000Z</time>
      </trkpt>
      <trkpt lat="44.39884" lon="6.39354">
        <ele>2138</ele>
        <time>2020-07-07T09:46:21.000Z</time>
      </trkpt>
      <trkpt lat="44.39884" lon="6.39354">
        <ele>2138</ele>
        <time>2020-07-07T09:46:22.000Z</time>
      </trkpt>
      <trkpt lat="44.39884" lon="6.39354">
        <ele>2138</ele>
        <time>2020-07-07T09:46:23.000Z</time>
      </trkpt>
      <trkpt lat="44.39884" lon="6.39354">
        <ele>2138</ele>
        <time>2020-07-07T09:46:24.000Z</time>
      </trkpt>
      <trkpt lat="44.39884" lon="6.39354">
        <ele>2138</ele>
        <time>2020-07-07T09:46:25.000Z</time>
      </trkpt>
      <trkpt lat="44.39884" lon="6.39354">
        <ele>2138</ele>
        <time>2020-07-07T09:46:26.000Z</time>
      </trkpt>
      <trkpt lat="44.39884" lon="6.39354">
        <ele>2138</ele>
        <time>2020-07-07T09:46:27.000Z</time>
      </trkpt>
      <trkpt lat="44.39884" lon="6.39354">
        <ele>2138</ele>
        <time>2020-07-07T09:46:28.000Z</time>
      </trkpt>
      <trkpt lat="44.39884" lon="6.39355">
        <ele>2137</ele>
        <time>2020-07-07T09:46:29.000Z</time>
      </trkpt>
      <trkpt lat="44.39884" lon="6.39355">
        <ele>2137</ele>
        <time>2020-07-07T09:46:30.000Z</time>
      </trkpt>
      <trkpt lat="44.39884" lon="6.39356">
        <ele>2137</ele>
        <time>2020-07-07T09:46:31.000Z</time>
      </trkpt>
      <trkpt lat="44.39885" lon="6.39356">
        <ele>2137</ele>
        <time>2020-07-07T09:46:32.000Z</time>
      </trkpt>
      <trkpt lat="44.39885" lon="6.39357">
        <ele>2137</ele>
        <time>2020-07-07T09:46:33.000Z</time>
      </trkpt>
      <trkpt lat="44.39885" lon="6.39359">
        <ele>2137</ele>
        <time>2020-07-07T09:46:34.000Z</time>
      </trkpt>
      <trkpt lat="44.39885" lon="6.3936">
        <ele>2137</ele>
        <time>2020-07-07T09:46:35.000Z</time>
      </trkpt>
      <trkpt lat="44.39885" lon="6.39362">
        <ele>2137</ele>
        <time>2020-07-07T09:46:36.000Z</time>
      </trkpt>
      <trkpt lat="44.39885" lon="6.39363">
        <ele>2137</ele>
        <time>2020-07-07T09:46:37.000Z</time>
      </trkpt>
      <trkpt lat="44.39885" lon="6.39365">
        <ele>2137</ele>
        <time>2020-07-07T09:46:38.000Z</time>
      </trkpt>
      <trkpt lat="44.39885" lon="6.39366">
        <ele>2137</ele>
        <time>2020-07-07T09:46:39.000Z</time>
      </trkpt>
      <trkpt lat="44.39885" lon="6.39368">
        <ele>2137</ele>
        <time>2020-07-07T09:46:40.000Z</time>
      </trkpt>
      <trkpt lat="44.39885" lon="6.39369">
        <ele>2137</ele>
        <time>2020-07-07T09:46:41.000Z</time>
      </trkpt>
      <trkpt lat="44.39885" lon="6.3937">
        <ele>2137</ele>
        <time>2020-07-07T09:46:42.000Z</time>
      </trkpt>
      <trkpt lat="44.39885" lon="6.39371">
        <ele>2137</ele>
        <time>2020-07-07T09:46:43.000Z</time>
      </trkpt>
      <trkpt lat="44.39885" lon="6.39373">
        <ele>2137</ele>
        <time>2020-07-07T09:46:44.000Z</time>
      </trkpt>
      <trkpt lat="44.39885" lon="6.39375">
        <ele>2137</ele>
        <time>2020-07-07T09:46:45.000Z</time>
      </trkpt>
      <trkpt lat="44.39885" lon="6.39376">
        <ele>2137</ele>
        <time>2020-07-07T09:46:46.000Z</time>
      </trkpt>
      <trkpt lat="44.39885" lon="6.39377">
        <ele>2137</ele>
        <time>2020-07-07T09:46:47.000Z</time>
      </trkpt>
      <trkpt lat="44.39885" lon="6.39378">
        <ele>2137</ele>
        <time>2020-07-07T09:46:48.000Z</time>
      </trkpt>
      <trkpt lat="44.39885" lon="6.39379">
        <ele>2137</ele>
        <time>2020-07-07T09:46:49.000Z</time>
      </trkpt>
      <trkpt lat="44.39885" lon="6.39381">
        <ele>2137</ele>
        <time>2020-07-07T09:46:50.000Z</time>
      </trkpt>
      <trkpt lat="44.39886" lon="6.39382">
        <ele>2137</ele>
        <time>2020-07-07T09:46:51.000Z</time>
      </trkpt>
      <trkpt lat="44.39886" lon="6.39383">
        <ele>2137</ele>
        <time>2020-07-07T09:46:52.000Z</time>
      </trkpt>
      <trkpt lat="44.39886" lon="6.39384">
        <ele>2136</ele>
        <time>2020-07-07T09:46:53.000Z</time>
      </trkpt>
      <trkpt lat="44.39885" lon="6.39384">
        <ele>2136</ele>
        <time>2020-07-07T09:46:54.000Z</time>
      </trkpt>
      <trkpt lat="44.39886" lon="6.39386">
        <ele>2136</ele>
        <time>2020-07-07T09:46:55.000Z</time>
      </trkpt>
      <trkpt lat="44.39886" lon="6.39387">
        <ele>2136</ele>
        <time>2020-07-07T09:46:56.000Z</time>
      </trkpt>
      <trkpt lat="44.39886" lon="6.39388">
        <ele>2136</ele>
        <time>2020-07-07T09:46:57.000Z</time>
      </trkpt>
      <trkpt lat="44.39886" lon="6.39389">
        <ele>2136</ele>
        <time>2020-07-07T09:46:58.000Z</time>
      </trkpt>
      <trkpt lat="44.39886" lon="6.3939">
        <ele>2136</ele>
        <time>2020-07-07T09:46:59.000Z</time>
      </trkpt>
      <trkpt lat="44.39886" lon="6.39392">
        <ele>2136</ele>
        <time>2020-07-07T09:47:00.000Z</time>
      </trkpt>
      <trkpt lat="44.39886" lon="6.39392">
        <ele>2136</ele>
        <time>2020-07-07T09:47:01.000Z</time>
      </trkpt>
      <trkpt lat="44.39886" lon="6.39393">
        <ele>2136</ele>
        <time>2020-07-07T09:47:02.000Z</time>
      </trkpt>
      <trkpt lat="44.39885" lon="6.39394">
        <ele>2136</ele>
        <time>2020-07-07T09:47:03.000Z</time>
      </trkpt>
      <trkpt lat="44.39885" lon="6.39395">
        <ele>2136</ele>
        <time>2020-07-07T09:47:04.000Z</time>
      </trkpt>
      <trkpt lat="44.39885" lon="6.39396">
        <ele>2136</ele>
        <time>2020-07-07T09:47:05.000Z</time>
      </trkpt>
      <trkpt lat="44.39885" lon="6.39397">
        <ele>2136</ele>
        <time>2020-07-07T09:47:06.000Z</time>
      </trkpt>
      <trkpt lat="44.39886" lon="6.39398">
        <ele>2136</ele>
        <time>2020-07-07T09:47:07.000Z</time>
      </trkpt>
      <trkpt lat="44.39887" lon="6.39398">
        <ele>2136</ele>
        <time>2020-07-07T09:47:08.000Z</time>
      </trkpt>
      <trkpt lat="44.39887" lon="6.39398">
        <ele>2136</ele>
        <time>2020-07-07T09:47:09.000Z</time>
      </trkpt>
      <trkpt lat="44.39888" lon="6.394">
        <ele>2136</ele>
        <time>2020-07-07T09:47:10.000Z</time>
      </trkpt>
      <trkpt lat="44.39888" lon="6.39401">
        <ele>2136</ele>
        <time>2020-07-07T09:47:11.000Z</time>
      </trkpt>
      <trkpt lat="44.39888" lon="6.39403">
        <ele>2136</ele>
        <time>2020-07-07T09:47:12.000Z</time>
      </trkpt>
      <trkpt lat="44.39888" lon="6.39403">
        <ele>2136</ele>
        <time>2020-07-07T09:47:13.000Z</time>
      </trkpt>
      <trkpt lat="44.39888" lon="6.39404">
        <ele>2136</ele>
        <time>2020-07-07T09:47:14.000Z</time>
      </trkpt>
      <trkpt lat="44.39889" lon="6.39404">
        <ele>2136</ele>
        <time>2020-07-07T09:47:15.000Z</time>
      </trkpt>
      <trkpt lat="44.39889" lon="6.39405">
        <ele>2136</ele>
        <time>2020-07-07T09:47:16.000Z</time>
      </trkpt>
      <trkpt lat="44.3989" lon="6.39406">
        <ele>2136</ele>
        <time>2020-07-07T09:47:17.000Z</time>
      </trkpt>
      <trkpt lat="44.3989" lon="6.39407">
        <ele>2136</ele>
        <time>2020-07-07T09:47:18.000Z</time>
      </trkpt>
      <trkpt lat="44.39891" lon="6.39407">
        <ele>2136</ele>
        <time>2020-07-07T09:47:19.000Z</time>
      </trkpt>
      <trkpt lat="44.39891" lon="6.39407">
        <ele>2136</ele>
        <time>2020-07-07T09:47:20.000Z</time>
      </trkpt>
      <trkpt lat="44.39891" lon="6.39407">
        <ele>2136</ele>
        <time>2020-07-07T09:47:21.000Z</time>
      </trkpt>
      <trkpt lat="44.39891" lon="6.39407">
        <ele>2136</ele>
        <time>2020-07-07T09:47:22.000Z</time>
      </trkpt>
      <trkpt lat="44.39891" lon="6.39407">
        <ele>2136</ele>
        <time>2020-07-07T09:47:23.000Z</time>
      </trkpt>
      <trkpt lat="44.39891" lon="6.39407">
        <ele>2136</ele>
        <time>2020-07-07T09:47:24.000Z</time>
      </trkpt>
      <trkpt lat="44.39891" lon="6.39407">
        <ele>2136</ele>
        <time>2020-07-07T09:47:25.000Z</time>
      </trkpt>
      <trkpt lat="44.39891" lon="6.39407">
        <ele>2136</ele>
        <time>2020-07-07T09:47:26.000Z</time>
      </trkpt>
      <trkpt lat="44.39891" lon="6.39407">
        <ele>2136</ele>
        <time>2020-07-07T09:47:27.000Z</time>
      </trkpt>
      <trkpt lat="44.39891" lon="6.39407">
        <ele>2136</ele>
        <time>2020-07-07T09:47:28.000Z</time>
      </trkpt>
      <trkpt lat="44.39891" lon="6.39407">
        <ele>2136</ele>
        <time>2020-07-07T09:47:29.000Z</time>
      </trkpt>
      <trkpt lat="44.39891" lon="6.39407">
        <ele>2136</ele>
        <time>2020-07-07T09:47:30.000Z</time>
      </trkpt>
      <trkpt lat="44.39891" lon="6.39407">
        <ele>2136</ele>
        <time>2020-07-07T09:47:31.000Z</time>
      </trkpt>
      <trkpt lat="44.39891" lon="6.39407">
        <ele>2135</ele>
        <time>2020-07-07T09:47:32.000Z</time>
      </trkpt>
      <trkpt lat="44.39892" lon="6.39408">
        <ele>2135</ele>
        <time>2020-07-07T09:47:33.000Z</time>
      </trkpt>
      <trkpt lat="44.39892" lon="6.39409">
        <ele>2135</ele>
        <time>2020-07-07T09:47:34.000Z</time>
      </trkpt>
      <trkpt lat="44.39892" lon="6.39409">
        <ele>2135</ele>
        <time>2020-07-07T09:47:35.000Z</time>
      </trkpt>
      <trkpt lat="44.39893" lon="6.3941">
        <ele>2135</ele>
        <time>2020-07-07T09:47:36.000Z</time>
      </trkpt>
      <trkpt lat="44.39893" lon="6.3941">
        <ele>2135</ele>
        <time>2020-07-07T09:47:37.000Z</time>
      </trkpt>
      <trkpt lat="44.39894" lon="6.3941">
        <ele>2135</ele>
        <time>2020-07-07T09:47:38.000Z</time>
      </trkpt>
      <trkpt lat="44.39894" lon="6.3941">
        <ele>2135</ele>
        <time>2020-07-07T09:47:39.000Z</time>
      </trkpt>
      <trkpt lat="44.39894" lon="6.39411">
        <ele>2135</ele>
        <time>2020-07-07T09:47:40.000Z</time>
      </trkpt>
      <trkpt lat="44.39895" lon="6.39411">
        <ele>2135</ele>
        <time>2020-07-07T09:47:41.000Z</time>
      </trkpt>
      <trkpt lat="44.39896" lon="6.39411">
        <ele>2135</ele>
        <time>2020-07-07T09:47:42.000Z</time>
      </trkpt>
      <trkpt lat="44.39896" lon="6.39411">
        <ele>2135</ele>
        <time>2020-07-07T09:47:43.000Z</time>
      </trkpt>
      <trkpt lat="44.39896" lon="6.39411">
        <ele>2135</ele>
        <time>2020-07-07T09:47:44.000Z</time>
      </trkpt>
      <trkpt lat="44.39896" lon="6.39411">
        <ele>2135</ele>
        <time>2020-07-07T09:47:45.000Z</time>
      </trkpt>
      <trkpt lat="44.39896" lon="6.39411">
        <ele>2135</ele>
        <time>2020-07-07T09:47:46.000Z</time>
      </trkpt>
      <trkpt lat="44.39896" lon="6.39411">
        <ele>2135</ele>
        <time>2020-07-07T09:47:47.000Z</time>
      </trkpt>
      <trkpt lat="44.39896" lon="6.39411">
        <ele>2135</ele>
        <time>2020-07-07T09:47:48.000Z</time>
      </trkpt>
      <trkpt lat="44.39896" lon="6.39411">
        <ele>2135</ele>
        <time>2020-07-07T09:47:49.000Z</time>
      </trkpt>
      <trkpt lat="44.39896" lon="6.39411">
        <ele>2135</ele>
        <time>2020-07-07T09:47:50.000Z</time>
      </trkpt>
      <trkpt lat="44.39896" lon="6.39411">
        <ele>2135</ele>
        <time>2020-07-07T09:47:51.000Z</time>
      </trkpt>
      <trkpt lat="44.39896" lon="6.39411">
        <ele>2135</ele>
        <time>2020-07-07T09:47:52.000Z</time>
      </trkpt>
      <trkpt lat="44.39897" lon="6.39411">
        <ele>2135</ele>
        <time>2020-07-07T09:47:53.000Z</time>
      </trkpt>
      <trkpt lat="44.39897" lon="6.39411">
        <ele>2135</ele>
        <time>2020-07-07T09:47:54.000Z</time>
      </trkpt>
      <trkpt lat="44.39897" lon="6.39411">
        <ele>2135</ele>
        <time>2020-07-07T09:47:55.000Z</time>
      </trkpt>
      <trkpt lat="44.39897" lon="6.39411">
        <ele>2135</ele>
        <time>2020-07-07T09:47:56.000Z</time>
      </trkpt>
      <trkpt lat="44.39897" lon="6.39411">
        <ele>2135</ele>
        <time>2020-07-07T09:47:57.000Z</time>
      </trkpt>
      <trkpt lat="44.39897" lon="6.39411">
        <ele>2135</ele>
        <time>2020-07-07T09:47:58.000Z</time>
      </trkpt>
      <trkpt lat="44.39897" lon="6.39411">
        <ele>2135</ele>
        <time>2020-07-07T09:47:59.000Z</time>
      </trkpt>
      <trkpt lat="44.39897" lon="6.39411">
        <ele>2135</ele>
        <time>2020-07-07T09:48:00.000Z</time>
      </trkpt>
      <trkpt lat="44.39897" lon="6.39411">
        <ele>2135</ele>
        <time>2020-07-07T09:48:01.000Z</time>
      </trkpt>
      <trkpt lat="44.39897" lon="6.39411">
        <ele>2135</ele>
        <time>2020-07-07T09:48:02.000Z</time>
      </trkpt>
      <trkpt lat="44.39897" lon="6.39411">
        <ele>2135</ele>
        <time>2020-07-07T09:48:03.000Z</time>
      </trkpt>
      <trkpt lat="44.39896" lon="6.39411">
        <ele>2135</ele>
        <time>2020-07-07T09:48:04.000Z</time>
      </trkpt>
      <trkpt lat="44.39896" lon="6.39411">
        <ele>2135</ele>
        <time>2020-07-07T09:48:05.000Z</time>
      </trkpt>
      <trkpt lat="44.39896" lon="6.39411">
        <ele>2135</ele>
        <time>2020-07-07T09:48:06.000Z</time>
      </trkpt>
      <trkpt lat="44.39896" lon="6.39411">
        <ele>2135</ele>
        <time>2020-07-07T09:48:07.000Z</time>
      </trkpt>
      <trkpt lat="44.39896" lon="6.3941">
        <ele>2134</ele>
        <time>2020-07-07T09:48:08.000Z</time>
      </trkpt>
      <trkpt lat="44.39896" lon="6.39411">
        <ele>2134</ele>
        <time>2020-07-07T09:48:09.000Z</time>
      </trkpt>
      <trkpt lat="44.39896" lon="6.39411">
        <ele>2134</ele>
        <time>2020-07-07T09:48:10.000Z</time>
      </trkpt>
      <trkpt lat="44.39897" lon="6.39411">
        <ele>2134</ele>
        <time>2020-07-07T09:48:11.000Z</time>
      </trkpt>
      <trkpt lat="44.39897" lon="6.39412">
        <ele>2134</ele>
        <time>2020-07-07T09:48:12.000Z</time>
      </trkpt>
      <trkpt lat="44.39898" lon="6.39413">
        <ele>2134</ele>
        <time>2020-07-07T09:48:13.000Z</time>
      </trkpt>
      <trkpt lat="44.39898" lon="6.39414">
        <ele>2134</ele>
        <time>2020-07-07T09:48:14.000Z</time>
      </trkpt>
      <trkpt lat="44.39898" lon="6.39415">
        <ele>2134</ele>
        <time>2020-07-07T09:48:15.000Z</time>
      </trkpt>
      <trkpt lat="44.39899" lon="6.39416">
        <ele>2134</ele>
        <time>2020-07-07T09:48:16.000Z</time>
      </trkpt>
      <trkpt lat="44.399" lon="6.39417">
        <ele>2134</ele>
        <time>2020-07-07T09:48:17.000Z</time>
      </trkpt>
      <trkpt lat="44.39901" lon="6.39418">
        <ele>2134</ele>
        <time>2020-07-07T09:48:18.000Z</time>
      </trkpt>
      <trkpt lat="44.39902" lon="6.39419">
        <ele>2134</ele>
        <time>2020-07-07T09:48:19.000Z</time>
      </trkpt>
      <trkpt lat="44.39902" lon="6.3942">
        <ele>2134</ele>
        <time>2020-07-07T09:48:20.000Z</time>
      </trkpt>
      <trkpt lat="44.39903" lon="6.39422">
        <ele>2134</ele>
        <time>2020-07-07T09:48:21.000Z</time>
      </trkpt>
      <trkpt lat="44.39904" lon="6.39423">
        <ele>2134</ele>
        <time>2020-07-07T09:48:22.000Z</time>
      </trkpt>
      <trkpt lat="44.39904" lon="6.39423">
        <ele>2134</ele>
        <time>2020-07-07T09:48:23.000Z</time>
      </trkpt>
      <trkpt lat="44.39905" lon="6.39424">
        <ele>2134</ele>
        <time>2020-07-07T09:48:24.000Z</time>
      </trkpt>
      <trkpt lat="44.39906" lon="6.39424">
        <ele>2134</ele>
        <time>2020-07-07T09:48:25.000Z</time>
      </trkpt>
      <trkpt lat="44.39906" lon="6.39425">
        <ele>2134</ele>
        <time>2020-07-07T09:48:26.000Z</time>
      </trkpt>
      <trkpt lat="44.39907" lon="6.39426">
        <ele>2135</ele>
        <time>2020-07-07T09:48:27.000Z</time>
      </trkpt>
      <trkpt lat="44.39907" lon="6.39426">
        <ele>2135</ele>
        <time>2020-07-07T09:48:28.000Z</time>
      </trkpt>
      <trkpt lat="44.39908" lon="6.39426">
        <ele>2135</ele>
        <time>2020-07-07T09:48:29.000Z</time>
      </trkpt>
      <trkpt lat="44.39909" lon="6.39426">
        <ele>2135</ele>
        <time>2020-07-07T09:48:30.000Z</time>
      </trkpt>
      <trkpt lat="44.39909" lon="6.39427">
        <ele>2135</ele>
        <time>2020-07-07T09:48:31.000Z</time>
      </trkpt>
      <trkpt lat="44.3991" lon="6.39428">
        <ele>2135</ele>
        <time>2020-07-07T09:48:32.000Z</time>
      </trkpt>
      <trkpt lat="44.3991" lon="6.39428">
        <ele>2135</ele>
        <time>2020-07-07T09:48:33.000Z</time>
      </trkpt>
      <trkpt lat="44.3991" lon="6.39429">
        <ele>2135</ele>
        <time>2020-07-07T09:48:34.000Z</time>
      </trkpt>
      <trkpt lat="44.3991" lon="6.3943">
        <ele>2135</ele>
        <time>2020-07-07T09:48:35.000Z</time>
      </trkpt>
      <trkpt lat="44.39911" lon="6.3943">
        <ele>2135</ele>
        <time>2020-07-07T09:48:36.000Z</time>
      </trkpt>
      <trkpt lat="44.39911" lon="6.39431">
        <ele>2135</ele>
        <time>2020-07-07T09:48:37.000Z</time>
      </trkpt>
      <trkpt lat="44.39912" lon="6.39431">
        <ele>2136</ele>
        <time>2020-07-07T09:48:38.000Z</time>
      </trkpt>
      <trkpt lat="44.39912" lon="6.39432">
        <ele>2136</ele>
        <time>2020-07-07T09:48:39.000Z</time>
      </trkpt>
      <trkpt lat="44.39912" lon="6.39432">
        <ele>2136</ele>
        <time>2020-07-07T09:48:40.000Z</time>
      </trkpt>
      <trkpt lat="44.39913" lon="6.39432">
        <ele>2136</ele>
        <time>2020-07-07T09:48:41.000Z</time>
      </trkpt>
      <trkpt lat="44.39914" lon="6.39432">
        <ele>2136</ele>
        <time>2020-07-07T09:48:42.000Z</time>
      </trkpt>
      <trkpt lat="44.39914" lon="6.39432">
        <ele>2136</ele>
        <time>2020-07-07T09:48:43.000Z</time>
      </trkpt>
      <trkpt lat="44.39915" lon="6.39433">
        <ele>2136</ele>
        <time>2020-07-07T09:48:44.000Z</time>
      </trkpt>
      <trkpt lat="44.39916" lon="6.39434">
        <ele>2136</ele>
        <time>2020-07-07T09:48:45.000Z</time>
      </trkpt>
      <trkpt lat="44.39916" lon="6.39434">
        <ele>2136</ele>
        <time>2020-07-07T09:48:46.000Z</time>
      </trkpt>
      <trkpt lat="44.39917" lon="6.39435">
        <ele>2136</ele>
        <time>2020-07-07T09:48:47.000Z</time>
      </trkpt>
      <trkpt lat="44.39917" lon="6.39436">
        <ele>2136</ele>
        <time>2020-07-07T09:48:48.000Z</time>
      </trkpt>
      <trkpt lat="44.39918" lon="6.39437">
        <ele>2136</ele>
        <time>2020-07-07T09:48:49.000Z</time>
      </trkpt>
      <trkpt lat="44.39918" lon="6.39438">
        <ele>2136</ele>
        <time>2020-07-07T09:48:50.000Z</time>
      </trkpt>
      <trkpt lat="44.39919" lon="6.39438">
        <ele>2137</ele>
        <time>2020-07-07T09:48:51.000Z</time>
      </trkpt>
      <trkpt lat="44.39919" lon="6.39438">
        <ele>2137</ele>
        <time>2020-07-07T09:48:52.000Z</time>
      </trkpt>
      <trkpt lat="44.39919" lon="6.39439">
        <ele>2137</ele>
        <time>2020-07-07T09:48:53.000Z</time>
      </trkpt>
      <trkpt lat="44.39919" lon="6.39439">
        <ele>2137</ele>
        <time>2020-07-07T09:48:54.000Z</time>
      </trkpt>
      <trkpt lat="44.39919" lon="6.39438">
        <ele>2137</ele>
        <time>2020-07-07T09:48:55.000Z</time>
      </trkpt>
      <trkpt lat="44.39919" lon="6.39438">
        <ele>2137</ele>
        <time>2020-07-07T09:48:56.000Z</time>
      </trkpt>
      <trkpt lat="44.39919" lon="6.39438">
        <ele>2137</ele>
        <time>2020-07-07T09:48:57.000Z</time>
      </trkpt>
      <trkpt lat="44.39919" lon="6.39438">
        <ele>2137</ele>
        <time>2020-07-07T09:48:58.000Z</time>
      </trkpt>
      <trkpt lat="44.39919" lon="6.39438">
        <ele>2137</ele>
        <time>2020-07-07T09:48:59.000Z</time>
      </trkpt>
      <trkpt lat="44.39919" lon="6.39438">
        <ele>2137</ele>
        <time>2020-07-07T09:49:00.000Z</time>
      </trkpt>
      <trkpt lat="44.39919" lon="6.39438">
        <ele>2137</ele>
        <time>2020-07-07T09:49:01.000Z</time>
      </trkpt>
      <trkpt lat="44.3992" lon="6.39438">
        <ele>2137</ele>
        <time>2020-07-07T09:49:02.000Z</time>
      </trkpt>
      <trkpt lat="44.3992" lon="6.39438">
        <ele>2137</ele>
        <time>2020-07-07T09:49:03.000Z</time>
      </trkpt>
      <trkpt lat="44.39921" lon="6.39439">
        <ele>2137</ele>
        <time>2020-07-07T09:49:04.000Z</time>
      </trkpt>
      <trkpt lat="44.39921" lon="6.39439">
        <ele>2137</ele>
        <time>2020-07-07T09:49:05.000Z</time>
      </trkpt>
      <trkpt lat="44.39922" lon="6.39439">
        <ele>2137</ele>
        <time>2020-07-07T09:49:06.000Z</time>
      </trkpt>
      <trkpt lat="44.39923" lon="6.39439">
        <ele>2137</ele>
        <time>2020-07-07T09:49:07.000Z</time>
      </trkpt>
      <trkpt lat="44.39924" lon="6.3944">
        <ele>2137</ele>
        <time>2020-07-07T09:49:08.000Z</time>
      </trkpt>
      <trkpt lat="44.39925" lon="6.39441">
        <ele>2137</ele>
        <time>2020-07-07T09:49:09.000Z</time>
      </trkpt>
      <trkpt lat="44.39926" lon="6.39441">
        <ele>2137</ele>
        <time>2020-07-07T09:49:10.000Z</time>
      </trkpt>
      <trkpt lat="44.39927" lon="6.39442">
        <ele>2137</ele>
        <time>2020-07-07T09:49:11.000Z</time>
      </trkpt>
      <trkpt lat="44.39928" lon="6.39443">
        <ele>2137</ele>
        <time>2020-07-07T09:49:12.000Z</time>
      </trkpt>
      <trkpt lat="44.39928" lon="6.39445">
        <ele>2137</ele>
        <time>2020-07-07T09:49:13.000Z</time>
      </trkpt>
      <trkpt lat="44.39929" lon="6.39446">
        <ele>2137</ele>
        <time>2020-07-07T09:49:14.000Z</time>
      </trkpt>
      <trkpt lat="44.3993" lon="6.39447">
        <ele>2137</ele>
        <time>2020-07-07T09:49:15.000Z</time>
      </trkpt>
      <trkpt lat="44.3993" lon="6.39448">
        <ele>2136</ele>
        <time>2020-07-07T09:49:16.000Z</time>
      </trkpt>
      <trkpt lat="44.39931" lon="6.39449">
        <ele>2136</ele>
        <time>2020-07-07T09:49:17.000Z</time>
      </trkpt>
      <trkpt lat="44.39932" lon="6.3945">
        <ele>2136</ele>
        <time>2020-07-07T09:49:18.000Z</time>
      </trkpt>
      <trkpt lat="44.39933" lon="6.39451">
        <ele>2136</ele>
        <time>2020-07-07T09:49:19.000Z</time>
      </trkpt>
      <trkpt lat="44.39934" lon="6.39452">
        <ele>2136</ele>
        <time>2020-07-07T09:49:20.000Z</time>
      </trkpt>
      <trkpt lat="44.39935" lon="6.39454">
        <ele>2136</ele>
        <time>2020-07-07T09:49:21.000Z</time>
      </trkpt>
      <trkpt lat="44.39935" lon="6.39454">
        <ele>2136</ele>
        <time>2020-07-07T09:49:22.000Z</time>
      </trkpt>
      <trkpt lat="44.39936" lon="6.39455">
        <ele>2136</ele>
        <time>2020-07-07T09:49:23.000Z</time>
      </trkpt>
      <trkpt lat="44.39937" lon="6.39456">
        <ele>2136</ele>
        <time>2020-07-07T09:49:24.000Z</time>
      </trkpt>
      <trkpt lat="44.39937" lon="6.39457">
        <ele>2136</ele>
        <time>2020-07-07T09:49:25.000Z</time>
      </trkpt>
      <trkpt lat="44.39938" lon="6.39458">
        <ele>2136</ele>
        <time>2020-07-07T09:49:26.000Z</time>
      </trkpt>
      <trkpt lat="44.39938" lon="6.39459">
        <ele>2136</ele>
        <time>2020-07-07T09:49:27.000Z</time>
      </trkpt>
      <trkpt lat="44.39939" lon="6.3946">
        <ele>2136</ele>
        <time>2020-07-07T09:49:28.000Z</time>
      </trkpt>
      <trkpt lat="44.39939" lon="6.3946">
        <ele>2136</ele>
        <time>2020-07-07T09:49:29.000Z</time>
      </trkpt>
      <trkpt lat="44.39939" lon="6.3946">
        <ele>2136</ele>
        <time>2020-07-07T09:49:30.000Z</time>
      </trkpt>
      <trkpt lat="44.39939" lon="6.39461">
        <ele>2136</ele>
        <time>2020-07-07T09:49:31.000Z</time>
      </trkpt>
      <trkpt lat="44.39939" lon="6.39461">
        <ele>2135</ele>
        <time>2020-07-07T09:49:32.000Z</time>
      </trkpt>
      <trkpt lat="44.39939" lon="6.3946">
        <ele>2135</ele>
        <time>2020-07-07T09:49:33.000Z</time>
      </trkpt>
      <trkpt lat="44.39939" lon="6.3946">
        <ele>2135</ele>
        <time>2020-07-07T09:49:34.000Z</time>
      </trkpt>
      <trkpt lat="44.39939" lon="6.3946">
        <ele>2135</ele>
        <time>2020-07-07T09:49:35.000Z</time>
      </trkpt>
      <trkpt lat="44.39939" lon="6.3946">
        <ele>2135</ele>
        <time>2020-07-07T09:49:36.000Z</time>
      </trkpt>
      <trkpt lat="44.39939" lon="6.39461">
        <ele>2135</ele>
        <time>2020-07-07T09:49:37.000Z</time>
      </trkpt>
      <trkpt lat="44.39939" lon="6.39461">
        <ele>2135</ele>
        <time>2020-07-07T09:49:38.000Z</time>
      </trkpt>
      <trkpt lat="44.39939" lon="6.3946">
        <ele>2135</ele>
        <time>2020-07-07T09:49:39.000Z</time>
      </trkpt>
      <trkpt lat="44.39939" lon="6.3946">
        <ele>2135</ele>
        <time>2020-07-07T09:49:40.000Z</time>
      </trkpt>
      <trkpt lat="44.39939" lon="6.3946">
        <ele>2135</ele>
        <time>2020-07-07T09:49:41.000Z</time>
      </trkpt>
      <trkpt lat="44.3994" lon="6.3946">
        <ele>2135</ele>
        <time>2020-07-07T09:49:42.000Z</time>
      </trkpt>
      <trkpt lat="44.3994" lon="6.39461">
        <ele>2135</ele>
        <time>2020-07-07T09:49:43.000Z</time>
      </trkpt>
      <trkpt lat="44.39941" lon="6.39461">
        <ele>2135</ele>
        <time>2020-07-07T09:49:44.000Z</time>
      </trkpt>
      <trkpt lat="44.39941" lon="6.39462">
        <ele>2135</ele>
        <time>2020-07-07T09:49:45.000Z</time>
      </trkpt>
      <trkpt lat="44.39942" lon="6.39462">
        <ele>2135</ele>
        <time>2020-07-07T09:49:46.000Z</time>
      </trkpt>
      <trkpt lat="44.39943" lon="6.39463">
        <ele>2135</ele>
        <time>2020-07-07T09:49:47.000Z</time>
      </trkpt>
      <trkpt lat="44.39944" lon="6.39463">
        <ele>2135</ele>
        <time>2020-07-07T09:49:48.000Z</time>
      </trkpt>
      <trkpt lat="44.39945" lon="6.39465">
        <ele>2135</ele>
        <time>2020-07-07T09:49:49.000Z</time>
      </trkpt>
      <trkpt lat="44.39945" lon="6.39466">
        <ele>2135</ele>
        <time>2020-07-07T09:49:50.000Z</time>
      </trkpt>
      <trkpt lat="44.39946" lon="6.39467">
        <ele>2135</ele>
        <time>2020-07-07T09:49:51.000Z</time>
      </trkpt>
      <trkpt lat="44.39947" lon="6.39468">
        <ele>2135</ele>
        <time>2020-07-07T09:49:52.000Z</time>
      </trkpt>
      <trkpt lat="44.39948" lon="6.39469">
        <ele>2135</ele>
        <time>2020-07-07T09:49:53.000Z</time>
      </trkpt>
      <trkpt lat="44.39949" lon="6.3947">
        <ele>2135</ele>
        <time>2020-07-07T09:49:54.000Z</time>
      </trkpt>
      <trkpt lat="44.39949" lon="6.39471">
        <ele>2135</ele>
        <time>2020-07-07T09:49:55.000Z</time>
      </trkpt>
      <trkpt lat="44.3995" lon="6.39472">
        <ele>2134</ele>
        <time>2020-07-07T09:49:56.000Z</time>
      </trkpt>
      <trkpt lat="44.39951" lon="6.39473">
        <ele>2134</ele>
        <time>2020-07-07T09:49:57.000Z</time>
      </trkpt>
      <trkpt lat="44.39951" lon="6.39473">
        <ele>2134</ele>
        <time>2020-07-07T09:49:58.000Z</time>
      </trkpt>
      <trkpt lat="44.39952" lon="6.39474">
        <ele>2134</ele>
        <time>2020-07-07T09:49:59.000Z</time>
      </trkpt>
      <trkpt lat="44.39953" lon="6.39475">
        <ele>2134</ele>
        <time>2020-07-07T09:50:00.000Z</time>
      </trkpt>
      <trkpt lat="44.39954" lon="6.39475">
        <ele>2134</ele>
        <time>2020-07-07T09:50:01.000Z</time>
      </trkpt>
      <trkpt lat="44.39954" lon="6.39476">
        <ele>2134</ele>
        <time>2020-07-07T09:50:02.000Z</time>
      </trkpt>
      <trkpt lat="44.39955" lon="6.39476">
        <ele>2134</ele>
        <time>2020-07-07T09:50:03.000Z</time>
      </trkpt>
      <trkpt lat="44.39956" lon="6.39476">
        <ele>2134</ele>
        <time>2020-07-07T09:50:04.000Z</time>
      </trkpt>
      <trkpt lat="44.39956" lon="6.39477">
        <ele>2134</ele>
        <time>2020-07-07T09:50:05.000Z</time>
      </trkpt>
      <trkpt lat="44.39956" lon="6.39477">
        <ele>2134</ele>
        <time>2020-07-07T09:50:06.000Z</time>
      </trkpt>
      <trkpt lat="44.39957" lon="6.39478">
        <ele>2134</ele>
        <time>2020-07-07T09:50:07.000Z</time>
      </trkpt>
      <trkpt lat="44.39957" lon="6.39478">
        <ele>2134</ele>
        <time>2020-07-07T09:50:08.000Z</time>
      </trkpt>
      <trkpt lat="44.39958" lon="6.39479">
        <ele>2134</ele>
        <time>2020-07-07T09:50:09.000Z</time>
      </trkpt>
      <trkpt lat="44.39959" lon="6.3948">
        <ele>2134</ele>
        <time>2020-07-07T09:50:10.000Z</time>
      </trkpt>
      <trkpt lat="44.3996" lon="6.39481">
        <ele>2134</ele>
        <time>2020-07-07T09:50:11.000Z</time>
      </trkpt>
      <trkpt lat="44.3996" lon="6.39481">
        <ele>2134</ele>
        <time>2020-07-07T09:50:12.000Z</time>
      </trkpt>
      <trkpt lat="44.39961" lon="6.39482">
        <ele>2134</ele>
        <time>2020-07-07T09:50:13.000Z</time>
      </trkpt>
      <trkpt lat="44.39961" lon="6.39484">
        <ele>2134</ele>
        <time>2020-07-07T09:50:14.000Z</time>
      </trkpt>
      <trkpt lat="44.39962" lon="6.39485">
        <ele>2134</ele>
        <time>2020-07-07T09:50:15.000Z</time>
      </trkpt>
      <trkpt lat="44.39962" lon="6.39486">
        <ele>2134</ele>
        <time>2020-07-07T09:50:16.000Z</time>
      </trkpt>
      <trkpt lat="44.39963" lon="6.39487">
        <ele>2134</ele>
        <time>2020-07-07T09:50:17.000Z</time>
      </trkpt>
      <trkpt lat="44.39963" lon="6.39488">
        <ele>2134</ele>
        <time>2020-07-07T09:50:18.000Z</time>
      </trkpt>
      <trkpt lat="44.39962" lon="6.39489">
        <ele>2134</ele>
        <time>2020-07-07T09:50:19.000Z</time>
      </trkpt>
      <trkpt lat="44.39962" lon="6.39489">
        <ele>2134</ele>
        <time>2020-07-07T09:50:20.000Z</time>
      </trkpt>
      <trkpt lat="44.39962" lon="6.39489">
        <ele>2134</ele>
        <time>2020-07-07T09:50:21.000Z</time>
      </trkpt>
      <trkpt lat="44.39962" lon="6.39489">
        <ele>2134</ele>
        <time>2020-07-07T09:50:22.000Z</time>
      </trkpt>
      <trkpt lat="44.39962" lon="6.39489">
        <ele>2134</ele>
        <time>2020-07-07T09:50:23.000Z</time>
      </trkpt>
      <trkpt lat="44.39962" lon="6.39489">
        <ele>2135</ele>
        <time>2020-07-07T09:50:24.000Z</time>
      </trkpt>
      <trkpt lat="44.39962" lon="6.3949">
        <ele>2135</ele>
        <time>2020-07-07T09:50:25.000Z</time>
      </trkpt>
      <trkpt lat="44.39963" lon="6.3949">
        <ele>2135</ele>
        <time>2020-07-07T09:50:26.000Z</time>
      </trkpt>
      <trkpt lat="44.39963" lon="6.39489">
        <ele>2135</ele>
        <time>2020-07-07T09:50:27.000Z</time>
      </trkpt>
      <trkpt lat="44.39964" lon="6.39489">
        <ele>2135</ele>
        <time>2020-07-07T09:50:28.000Z</time>
      </trkpt>
      <trkpt lat="44.39964" lon="6.39488">
        <ele>2135</ele>
        <time>2020-07-07T09:50:29.000Z</time>
      </trkpt>
      <trkpt lat="44.39964" lon="6.39487">
        <ele>2135</ele>
        <time>2020-07-07T09:50:30.000Z</time>
      </trkpt>
      <trkpt lat="44.39965" lon="6.39486">
        <ele>2135</ele>
        <time>2020-07-07T09:50:31.000Z</time>
      </trkpt>
      <trkpt lat="44.39966" lon="6.39485">
        <ele>2135</ele>
        <time>2020-07-07T09:50:32.000Z</time>
      </trkpt>
      <trkpt lat="44.39966" lon="6.39484">
        <ele>2135</ele>
        <time>2020-07-07T09:50:33.000Z</time>
      </trkpt>
      <trkpt lat="44.39967" lon="6.39483">
        <ele>2135</ele>
        <time>2020-07-07T09:50:34.000Z</time>
      </trkpt>
      <trkpt lat="44.39968" lon="6.39482">
        <ele>2135</ele>
        <time>2020-07-07T09:50:35.000Z</time>
      </trkpt>
      <trkpt lat="44.39968" lon="6.39481">
        <ele>2136</ele>
        <time>2020-07-07T09:50:36.000Z</time>
      </trkpt>
      <trkpt lat="44.39969" lon="6.39481">
        <ele>2136</ele>
        <time>2020-07-07T09:50:37.000Z</time>
      </trkpt>
      <trkpt lat="44.39969" lon="6.39479">
        <ele>2136</ele>
        <time>2020-07-07T09:50:38.000Z</time>
      </trkpt>
      <trkpt lat="44.39969" lon="6.39478">
        <ele>2136</ele>
        <time>2020-07-07T09:50:39.000Z</time>
      </trkpt>
      <trkpt lat="44.3997" lon="6.39477">
        <ele>2136</ele>
        <time>2020-07-07T09:50:40.000Z</time>
      </trkpt>
      <trkpt lat="44.39971" lon="6.39476">
        <ele>2136</ele>
        <time>2020-07-07T09:50:41.000Z</time>
      </trkpt>
      <trkpt lat="44.39972" lon="6.39475">
        <ele>2136</ele>
        <time>2020-07-07T09:50:42.000Z</time>
      </trkpt>
      <trkpt lat="44.39973" lon="6.39474">
        <ele>2136</ele>
        <time>2020-07-07T09:50:43.000Z</time>
      </trkpt>
      <trkpt lat="44.39973" lon="6.39473">
        <ele>2136</ele>
        <time>2020-07-07T09:50:44.000Z</time>
      </trkpt>
      <trkpt lat="44.39974" lon="6.39472">
        <ele>2136</ele>
        <time>2020-07-07T09:50:45.000Z</time>
      </trkpt>
      <trkpt lat="44.39975" lon="6.39471">
        <ele>2136</ele>
        <time>2020-07-07T09:50:46.000Z</time>
      </trkpt>
      <trkpt lat="44.39976" lon="6.3947">
        <ele>2136</ele>
        <time>2020-07-07T09:50:47.000Z</time>
      </trkpt>
      <trkpt lat="44.39977" lon="6.39469">
        <ele>2136</ele>
        <time>2020-07-07T09:50:48.000Z</time>
      </trkpt>
      <trkpt lat="44.39978" lon="6.39468">
        <ele>2136</ele>
        <time>2020-07-07T09:50:49.000Z</time>
      </trkpt>
      <trkpt lat="44.39979" lon="6.39467">
        <ele>2136</ele>
        <time>2020-07-07T09:50:50.000Z</time>
      </trkpt>
      <trkpt lat="44.3998" lon="6.39466">
        <ele>2136</ele>
        <time>2020-07-07T09:50:51.000Z</time>
      </trkpt>
      <trkpt lat="44.3998" lon="6.39465">
        <ele>2136</ele>
        <time>2020-07-07T09:50:52.000Z</time>
      </trkpt>
      <trkpt lat="44.39981" lon="6.39464">
        <ele>2136</ele>
        <time>2020-07-07T09:50:53.000Z</time>
      </trkpt>
      <trkpt lat="44.39982" lon="6.39463">
        <ele>2136</ele>
        <time>2020-07-07T09:50:54.000Z</time>
      </trkpt>
      <trkpt lat="44.39983" lon="6.39462">
        <ele>2136</ele>
        <time>2020-07-07T09:50:55.000Z</time>
      </trkpt>
      <trkpt lat="44.39984" lon="6.39461">
        <ele>2136</ele>
        <time>2020-07-07T09:50:56.000Z</time>
      </trkpt>
      <trkpt lat="44.39984" lon="6.39459">
        <ele>2135</ele>
        <time>2020-07-07T09:50:57.000Z</time>
      </trkpt>
      <trkpt lat="44.39985" lon="6.39458">
        <ele>2135</ele>
        <time>2020-07-07T09:50:58.000Z</time>
      </trkpt>
      <trkpt lat="44.39986" lon="6.39457">
        <ele>2136</ele>
        <time>2020-07-07T09:50:59.000Z</time>
      </trkpt>
      <trkpt lat="44.39987" lon="6.39456">
        <ele>2136</ele>
        <time>2020-07-07T09:51:00.000Z</time>
      </trkpt>
      <trkpt lat="44.39988" lon="6.39455">
        <ele>2136</ele>
        <time>2020-07-07T09:51:01.000Z</time>
      </trkpt>
      <trkpt lat="44.39989" lon="6.39454">
        <ele>2136</ele>
        <time>2020-07-07T09:51:02.000Z</time>
      </trkpt>
      <trkpt lat="44.39989" lon="6.39453">
        <ele>2136</ele>
        <time>2020-07-07T09:51:03.000Z</time>
      </trkpt>
      <trkpt lat="44.3999" lon="6.39452">
        <ele>2136</ele>
        <time>2020-07-07T09:51:04.000Z</time>
      </trkpt>
      <trkpt lat="44.39991" lon="6.39451">
        <ele>2136</ele>
        <time>2020-07-07T09:51:05.000Z</time>
      </trkpt>
      <trkpt lat="44.39992" lon="6.3945">
        <ele>2136</ele>
        <time>2020-07-07T09:51:06.000Z</time>
      </trkpt>
      <trkpt lat="44.39993" lon="6.39449">
        <ele>2136</ele>
        <time>2020-07-07T09:51:07.000Z</time>
      </trkpt>
      <trkpt lat="44.39994" lon="6.39448">
        <ele>2136</ele>
        <time>2020-07-07T09:51:08.000Z</time>
      </trkpt>
      <trkpt lat="44.39995" lon="6.39447">
        <ele>2136</ele>
        <time>2020-07-07T09:51:09.000Z</time>
      </trkpt>
      <trkpt lat="44.39996" lon="6.39447">
        <ele>2136</ele>
        <time>2020-07-07T09:51:10.000Z</time>
      </trkpt>
      <trkpt lat="44.39997" lon="6.39446">
        <ele>2136</ele>
        <time>2020-07-07T09:51:11.000Z</time>
      </trkpt>
      <trkpt lat="44.39998" lon="6.39445">
        <ele>2136</ele>
        <time>2020-07-07T09:51:12.000Z</time>
      </trkpt>
      <trkpt lat="44.39999" lon="6.39444">
        <ele>2136</ele>
        <time>2020-07-07T09:51:13.000Z</time>
      </trkpt>
      <trkpt lat="44.39999" lon="6.39443">
        <ele>2136</ele>
        <time>2020-07-07T09:51:14.000Z</time>
      </trkpt>
      <trkpt lat="44.40001" lon="6.39442">
        <ele>2136</ele>
        <time>2020-07-07T09:51:15.000Z</time>
      </trkpt>
      <trkpt lat="44.40002" lon="6.39442">
        <ele>2136</ele>
        <time>2020-07-07T09:51:16.000Z</time>
      </trkpt>
      <trkpt lat="44.40003" lon="6.39441">
        <ele>2136</ele>
        <time>2020-07-07T09:51:17.000Z</time>
      </trkpt>
      <trkpt lat="44.40004" lon="6.3944">
        <ele>2136</ele>
        <time>2020-07-07T09:51:18.000Z</time>
      </trkpt>
      <trkpt lat="44.40005" lon="6.3944">
        <ele>2136</ele>
        <time>2020-07-07T09:51:19.000Z</time>
      </trkpt>
      <trkpt lat="44.40006" lon="6.39439">
        <ele>2136</ele>
        <time>2020-07-07T09:51:20.000Z</time>
      </trkpt>
      <trkpt lat="44.40007" lon="6.39439">
        <ele>2136</ele>
        <time>2020-07-07T09:51:21.000Z</time>
      </trkpt>
      <trkpt lat="44.40008" lon="6.39438">
        <ele>2135</ele>
        <time>2020-07-07T09:51:22.000Z</time>
      </trkpt>
      <trkpt lat="44.40009" lon="6.39437">
        <ele>2135</ele>
        <time>2020-07-07T09:51:23.000Z</time>
      </trkpt>
      <trkpt lat="44.4001" lon="6.39437">
        <ele>2135</ele>
        <time>2020-07-07T09:51:24.000Z</time>
      </trkpt>
      <trkpt lat="44.40011" lon="6.39437">
        <ele>2135</ele>
        <time>2020-07-07T09:51:25.000Z</time>
      </trkpt>
      <trkpt lat="44.40012" lon="6.39436">
        <ele>2135</ele>
        <time>2020-07-07T09:51:26.000Z</time>
      </trkpt>
      <trkpt lat="44.40013" lon="6.39436">
        <ele>2135</ele>
        <time>2020-07-07T09:51:27.000Z</time>
      </trkpt>
      <trkpt lat="44.40014" lon="6.39435">
        <ele>2135</ele>
        <time>2020-07-07T09:51:28.000Z</time>
      </trkpt>
      <trkpt lat="44.40015" lon="6.39435">
        <ele>2135</ele>
        <time>2020-07-07T09:51:29.000Z</time>
      </trkpt>
      <trkpt lat="44.40016" lon="6.39434">
        <ele>2135</ele>
        <time>2020-07-07T09:51:30.000Z</time>
      </trkpt>
      <trkpt lat="44.40016" lon="6.39434">
        <ele>2135</ele>
        <time>2020-07-07T09:51:31.000Z</time>
      </trkpt>
      <trkpt lat="44.40017" lon="6.39434">
        <ele>2135</ele>
        <time>2020-07-07T09:51:32.000Z</time>
      </trkpt>
      <trkpt lat="44.40018" lon="6.39434">
        <ele>2135</ele>
        <time>2020-07-07T09:51:33.000Z</time>
      </trkpt>
      <trkpt lat="44.40019" lon="6.39434">
        <ele>2135</ele>
        <time>2020-07-07T09:51:34.000Z</time>
      </trkpt>
      <trkpt lat="44.40019" lon="6.39433">
        <ele>2135</ele>
        <time>2020-07-07T09:51:35.000Z</time>
      </trkpt>
      <trkpt lat="44.4002" lon="6.39433">
        <ele>2136</ele>
        <time>2020-07-07T09:51:36.000Z</time>
      </trkpt>
      <trkpt lat="44.40021" lon="6.39432">
        <ele>2136</ele>
        <time>2020-07-07T09:51:37.000Z</time>
      </trkpt>
      <trkpt lat="44.40022" lon="6.39432">
        <ele>2136</ele>
        <time>2020-07-07T09:51:38.000Z</time>
      </trkpt>
      <trkpt lat="44.40023" lon="6.39432">
        <ele>2136</ele>
        <time>2020-07-07T09:51:39.000Z</time>
      </trkpt>
      <trkpt lat="44.40024" lon="6.39431">
        <ele>2136</ele>
        <time>2020-07-07T09:51:40.000Z</time>
      </trkpt>
      <trkpt lat="44.40025" lon="6.39431">
        <ele>2136</ele>
        <time>2020-07-07T09:51:41.000Z</time>
      </trkpt>
      <trkpt lat="44.40026" lon="6.3943">
        <ele>2136</ele>
        <time>2020-07-07T09:51:42.000Z</time>
      </trkpt>
      <trkpt lat="44.40027" lon="6.3943">
        <ele>2136</ele>
        <time>2020-07-07T09:51:43.000Z</time>
      </trkpt>
      <trkpt lat="44.40028" lon="6.3943">
        <ele>2136</ele>
        <time>2020-07-07T09:51:44.000Z</time>
      </trkpt>
      <trkpt lat="44.40029" lon="6.3943">
        <ele>2136</ele>
        <time>2020-07-07T09:51:45.000Z</time>
      </trkpt>
      <trkpt lat="44.4003" lon="6.39429">
        <ele>2137</ele>
        <time>2020-07-07T09:51:46.000Z</time>
      </trkpt>
      <trkpt lat="44.40031" lon="6.39429">
        <ele>2137</ele>
        <time>2020-07-07T09:51:47.000Z</time>
      </trkpt>
      <trkpt lat="44.40031" lon="6.39429">
        <ele>2137</ele>
        <time>2020-07-07T09:51:48.000Z</time>
      </trkpt>
      <trkpt lat="44.40033" lon="6.39428">
        <ele>2137</ele>
        <time>2020-07-07T09:51:49.000Z</time>
      </trkpt>
      <trkpt lat="44.40033" lon="6.39427">
        <ele>2137</ele>
        <time>2020-07-07T09:51:50.000Z</time>
      </trkpt>
      <trkpt lat="44.40034" lon="6.39427">
        <ele>2137</ele>
        <time>2020-07-07T09:51:51.000Z</time>
      </trkpt>
      <trkpt lat="44.40035" lon="6.39426">
        <ele>2137</ele>
        <time>2020-07-07T09:51:52.000Z</time>
      </trkpt>
      <trkpt lat="44.40036" lon="6.39426">
        <ele>2137</ele>
        <time>2020-07-07T09:51:53.000Z</time>
      </trkpt>
      <trkpt lat="44.40037" lon="6.39425">
        <ele>2138</ele>
        <time>2020-07-07T09:51:54.000Z</time>
      </trkpt>
      <trkpt lat="44.40038" lon="6.39424">
        <ele>2138</ele>
        <time>2020-07-07T09:51:55.000Z</time>
      </trkpt>
      <trkpt lat="44.40039" lon="6.39424">
        <ele>2138</ele>
        <time>2020-07-07T09:51:56.000Z</time>
      </trkpt>
      <trkpt lat="44.40039" lon="6.39423">
        <ele>2138</ele>
        <time>2020-07-07T09:51:57.000Z</time>
      </trkpt>
      <trkpt lat="44.4004" lon="6.39423">
        <ele>2138</ele>
        <time>2020-07-07T09:51:58.000Z</time>
      </trkpt>
      <trkpt lat="44.40041" lon="6.39422">
        <ele>2138</ele>
        <time>2020-07-07T09:51:59.000Z</time>
      </trkpt>
      <trkpt lat="44.40042" lon="6.39422">
        <ele>2138</ele>
        <time>2020-07-07T09:52:00.000Z</time>
      </trkpt>
      <trkpt lat="44.40043" lon="6.39422">
        <ele>2138</ele>
        <time>2020-07-07T09:52:01.000Z</time>
      </trkpt>
      <trkpt lat="44.40044" lon="6.39421">
        <ele>2138</ele>
        <time>2020-07-07T09:52:02.000Z</time>
      </trkpt>
      <trkpt lat="44.40044" lon="6.39421">
        <ele>2139</ele>
        <time>2020-07-07T09:52:03.000Z</time>
      </trkpt>
      <trkpt lat="44.40045" lon="6.39421">
        <ele>2139</ele>
        <time>2020-07-07T09:52:04.000Z</time>
      </trkpt>
      <trkpt lat="44.40045" lon="6.39421">
        <ele>2139</ele>
        <time>2020-07-07T09:52:05.000Z</time>
      </trkpt>
      <trkpt lat="44.40046" lon="6.3942">
        <ele>2139</ele>
        <time>2020-07-07T09:52:06.000Z</time>
      </trkpt>
      <trkpt lat="44.40047" lon="6.3942">
        <ele>2139</ele>
        <time>2020-07-07T09:52:07.000Z</time>
      </trkpt>
      <trkpt lat="44.40047" lon="6.39419">
        <ele>2139</ele>
        <time>2020-07-07T09:52:08.000Z</time>
      </trkpt>
      <trkpt lat="44.40048" lon="6.39419">
        <ele>2140</ele>
        <time>2020-07-07T09:52:09.000Z</time>
      </trkpt>
      <trkpt lat="44.40049" lon="6.39419">
        <ele>2140</ele>
        <time>2020-07-07T09:52:10.000Z</time>
      </trkpt>
      <trkpt lat="44.40049" lon="6.39419">
        <ele>2140</ele>
        <time>2020-07-07T09:52:11.000Z</time>
      </trkpt>
      <trkpt lat="44.4005" lon="6.39418">
        <ele>2140</ele>
        <time>2020-07-07T09:52:12.000Z</time>
      </trkpt>
      <trkpt lat="44.4005" lon="6.39418">
        <ele>2140</ele>
        <time>2020-07-07T09:52:13.000Z</time>
      </trkpt>
      <trkpt lat="44.40051" lon="6.39417">
        <ele>2140</ele>
        <time>2020-07-07T09:52:14.000Z</time>
      </trkpt>
      <trkpt lat="44.40052" lon="6.39417">
        <ele>2140</ele>
        <time>2020-07-07T09:52:15.000Z</time>
      </trkpt>
      <trkpt lat="44.40052" lon="6.39417">
        <ele>2140</ele>
        <time>2020-07-07T09:52:16.000Z</time>
      </trkpt>
      <trkpt lat="44.40053" lon="6.39416">
        <ele>2141</ele>
        <time>2020-07-07T09:52:17.000Z</time>
      </trkpt>
      <trkpt lat="44.40054" lon="6.39416">
        <ele>2141</ele>
        <time>2020-07-07T09:52:18.000Z</time>
      </trkpt>
      <trkpt lat="44.40054" lon="6.39416">
        <ele>2141</ele>
        <time>2020-07-07T09:52:19.000Z</time>
      </trkpt>
      <trkpt lat="44.40055" lon="6.39415">
        <ele>2141</ele>
        <time>2020-07-07T09:52:20.000Z</time>
      </trkpt>
      <trkpt lat="44.40055" lon="6.39415">
        <ele>2141</ele>
        <time>2020-07-07T09:52:21.000Z</time>
      </trkpt>
      <trkpt lat="44.40056" lon="6.39414">
        <ele>2141</ele>
        <time>2020-07-07T09:52:22.000Z</time>
      </trkpt>
      <trkpt lat="44.40057" lon="6.39414">
        <ele>2141</ele>
        <time>2020-07-07T09:52:23.000Z</time>
      </trkpt>
      <trkpt lat="44.40057" lon="6.39413">
        <ele>2142</ele>
        <time>2020-07-07T09:52:24.000Z</time>
      </trkpt>
      <trkpt lat="44.40058" lon="6.39413">
        <ele>2142</ele>
        <time>2020-07-07T09:52:25.000Z</time>
      </trkpt>
      <trkpt lat="44.40059" lon="6.39412">
        <ele>2142</ele>
        <time>2020-07-07T09:52:26.000Z</time>
      </trkpt>
      <trkpt lat="44.40059" lon="6.39412">
        <ele>2142</ele>
        <time>2020-07-07T09:52:27.000Z</time>
      </trkpt>
      <trkpt lat="44.4006" lon="6.39411">
        <ele>2142</ele>
        <time>2020-07-07T09:52:28.000Z</time>
      </trkpt>
      <trkpt lat="44.40061" lon="6.3941">
        <ele>2143</ele>
        <time>2020-07-07T09:52:29.000Z</time>
      </trkpt>
      <trkpt lat="44.40062" lon="6.39409">
        <ele>2143</ele>
        <time>2020-07-07T09:52:30.000Z</time>
      </trkpt>
      <trkpt lat="44.40062" lon="6.39408">
        <ele>2143</ele>
        <time>2020-07-07T09:52:31.000Z</time>
      </trkpt>
      <trkpt lat="44.40063" lon="6.39408">
        <ele>2143</ele>
        <time>2020-07-07T09:52:32.000Z</time>
      </trkpt>
      <trkpt lat="44.40064" lon="6.39407">
        <ele>2143</ele>
        <time>2020-07-07T09:52:33.000Z</time>
      </trkpt>
      <trkpt lat="44.40065" lon="6.39406">
        <ele>2143</ele>
        <time>2020-07-07T09:52:34.000Z</time>
      </trkpt>
      <trkpt lat="44.40065" lon="6.39405">
        <ele>2143</ele>
        <time>2020-07-07T09:52:35.000Z</time>
      </trkpt>
      <trkpt lat="44.40065" lon="6.39405">
        <ele>2144</ele>
        <time>2020-07-07T09:52:36.000Z</time>
      </trkpt>
      <trkpt lat="44.40066" lon="6.39404">
        <ele>2144</ele>
        <time>2020-07-07T09:52:37.000Z</time>
      </trkpt>
      <trkpt lat="44.40066" lon="6.39403">
        <ele>2144</ele>
        <time>2020-07-07T09:52:38.000Z</time>
      </trkpt>
      <trkpt lat="44.40067" lon="6.39402">
        <ele>2144</ele>
        <time>2020-07-07T09:52:39.000Z</time>
      </trkpt>
      <trkpt lat="44.40067" lon="6.39402">
        <ele>2144</ele>
        <time>2020-07-07T09:52:40.000Z</time>
      </trkpt>
      <trkpt lat="44.40068" lon="6.39402">
        <ele>2144</ele>
        <time>2020-07-07T09:52:41.000Z</time>
      </trkpt>
      <trkpt lat="44.40068" lon="6.39401">
        <ele>2145</ele>
        <time>2020-07-07T09:52:42.000Z</time>
      </trkpt>
      <trkpt lat="44.40068" lon="6.394">
        <ele>2145</ele>
        <time>2020-07-07T09:52:43.000Z</time>
      </trkpt>
      <trkpt lat="44.40068" lon="6.39399">
        <ele>2144</ele>
        <time>2020-07-07T09:52:44.000Z</time>
      </trkpt>
      <trkpt lat="44.40068" lon="6.39397">
        <ele>2144</ele>
        <time>2020-07-07T09:52:45.000Z</time>
      </trkpt>
      <trkpt lat="44.40069" lon="6.39397">
        <ele>2144</ele>
        <time>2020-07-07T09:52:46.000Z</time>
      </trkpt>
      <trkpt lat="44.40069" lon="6.39397">
        <ele>2144</ele>
        <time>2020-07-07T09:52:47.000Z</time>
      </trkpt>
      <trkpt lat="44.40069" lon="6.39397">
        <ele>2145</ele>
        <time>2020-07-07T09:52:48.000Z</time>
      </trkpt>
      <trkpt lat="44.40069" lon="6.39397">
        <ele>2145</ele>
        <time>2020-07-07T09:52:49.000Z</time>
      </trkpt>
      <trkpt lat="44.40069" lon="6.39397">
        <ele>2145</ele>
        <time>2020-07-07T09:52:50.000Z</time>
      </trkpt>
      <trkpt lat="44.40069" lon="6.39397">
        <ele>2145</ele>
        <time>2020-07-07T09:52:51.000Z</time>
      </trkpt>
      <trkpt lat="44.40069" lon="6.39397">
        <ele>2145</ele>
        <time>2020-07-07T09:52:52.000Z</time>
      </trkpt>
      <trkpt lat="44.40069" lon="6.39397">
        <ele>2145</ele>
        <time>2020-07-07T09:52:53.000Z</time>
      </trkpt>
      <trkpt lat="44.40069" lon="6.39397">
        <ele>2145</ele>
        <time>2020-07-07T09:52:54.000Z</time>
      </trkpt>
      <trkpt lat="44.40069" lon="6.39397">
        <ele>2145</ele>
        <time>2020-07-07T09:52:55.000Z</time>
      </trkpt>
      <trkpt lat="44.40069" lon="6.39397">
        <ele>2145</ele>
        <time>2020-07-07T09:52:56.000Z</time>
      </trkpt>
      <trkpt lat="44.40069" lon="6.39397">
        <ele>2145</ele>
        <time>2020-07-07T09:52:57.000Z</time>
      </trkpt>
      <trkpt lat="44.40069" lon="6.39397">
        <ele>2145</ele>
        <time>2020-07-07T09:52:58.000Z</time>
      </trkpt>
      <trkpt lat="44.40069" lon="6.39397">
        <ele>2145</ele>
        <time>2020-07-07T09:52:59.000Z</time>
      </trkpt>
      <trkpt lat="44.40069" lon="6.39397">
        <ele>2145</ele>
        <time>2020-07-07T09:53:00.000Z</time>
      </trkpt>
      <trkpt lat="44.40068" lon="6.39397">
        <ele>2145</ele>
        <time>2020-07-07T09:53:01.000Z</time>
      </trkpt>
      <trkpt lat="44.40068" lon="6.39398">
        <ele>2145</ele>
        <time>2020-07-07T09:53:02.000Z</time>
      </trkpt>
      <trkpt lat="44.40068" lon="6.39399">
        <ele>2145</ele>
        <time>2020-07-07T09:53:03.000Z</time>
      </trkpt>
      <trkpt lat="44.40068" lon="6.39399">
        <ele>2145</ele>
        <time>2020-07-07T09:53:04.000Z</time>
      </trkpt>
      <trkpt lat="44.40068" lon="6.39399">
        <ele>2145</ele>
        <time>2020-07-07T09:53:05.000Z</time>
      </trkpt>
      <trkpt lat="44.40068" lon="6.39399">
        <ele>2145</ele>
        <time>2020-07-07T09:53:06.000Z</time>
      </trkpt>
      <trkpt lat="44.40068" lon="6.39399">
        <ele>2145</ele>
        <time>2020-07-07T09:53:07.000Z</time>
      </trkpt>
      <trkpt lat="44.40068" lon="6.39399">
        <ele>2145</ele>
        <time>2020-07-07T09:53:08.000Z</time>
      </trkpt>
      <trkpt lat="44.40068" lon="6.39399">
        <ele>2145</ele>
        <time>2020-07-07T09:53:09.000Z</time>
      </trkpt>
      <trkpt lat="44.40068" lon="6.39399">
        <ele>2145</ele>
        <time>2020-07-07T09:53:10.000Z</time>
      </trkpt>
      <trkpt lat="44.40068" lon="6.39399">
        <ele>2145</ele>
        <time>2020-07-07T09:53:11.000Z</time>
      </trkpt>
      <trkpt lat="44.40068" lon="6.39399">
        <ele>2145</ele>
        <time>2020-07-07T09:53:12.000Z</time>
      </trkpt>
      <trkpt lat="44.40068" lon="6.39399">
        <ele>2145</ele>
        <time>2020-07-07T09:53:13.000Z</time>
      </trkpt>
      <trkpt lat="44.40068" lon="6.39399">
        <ele>2145</ele>
        <time>2020-07-07T09:53:14.000Z</time>
      </trkpt>
      <trkpt lat="44.40068" lon="6.394">
        <ele>2144</ele>
        <time>2020-07-07T09:53:15.000Z</time>
      </trkpt>
      <trkpt lat="44.40068" lon="6.394">
        <ele>2144</ele>
        <time>2020-07-07T09:53:16.000Z</time>
      </trkpt>
      <trkpt lat="44.40068" lon="6.394">
        <ele>2144</ele>
        <time>2020-07-07T09:53:17.000Z</time>
      </trkpt>
      <trkpt lat="44.40068" lon="6.394">
        <ele>2144</ele>
        <time>2020-07-07T09:53:18.000Z</time>
      </trkpt>
      <trkpt lat="44.40068" lon="6.394">
        <ele>2144</ele>
        <time>2020-07-07T09:53:19.000Z</time>
      </trkpt>
      <trkpt lat="44.40068" lon="6.394">
        <ele>2144</ele>
        <time>2020-07-07T09:53:20.000Z</time>
      </trkpt>
      <trkpt lat="44.40068" lon="6.394">
        <ele>2144</ele>
        <time>2020-07-07T09:53:21.000Z</time>
      </trkpt>
      <trkpt lat="44.40068" lon="6.394">
        <ele>2144</ele>
        <time>2020-07-07T09:53:22.000Z</time>
      </trkpt>
      <trkpt lat="44.40068" lon="6.394">
        <ele>2144</ele>
        <time>2020-07-07T09:53:23.000Z</time>
      </trkpt>
      <trkpt lat="44.40068" lon="6.394">
        <ele>2144</ele>
        <time>2020-07-07T09:53:24.000Z</time>
      </trkpt>
      <trkpt lat="44.40068" lon="6.394">
        <ele>2144</ele>
        <time>2020-07-07T09:53:25.000Z</time>
      </trkpt>
      <trkpt lat="44.40068" lon="6.394">
        <ele>2144</ele>
        <time>2020-07-07T09:53:26.000Z</time>
      </trkpt>
      <trkpt lat="44.40068" lon="6.394">
        <ele>2144</ele>
        <time>2020-07-07T09:53:27.000Z</time>
      </trkpt>
      <trkpt lat="44.40068" lon="6.394">
        <ele>2144</ele>
        <time>2020-07-07T09:53:28.000Z</time>
      </trkpt>
      <trkpt lat="44.40068" lon="6.394">
        <ele>2144</ele>
        <time>2020-07-07T09:53:29.000Z</time>
      </trkpt>
      <trkpt lat="44.40068" lon="6.394">
        <ele>2144</ele>
        <time>2020-07-07T09:53:30.000Z</time>
      </trkpt>
      <trkpt lat="44.40068" lon="6.394">
        <ele>2144</ele>
        <time>2020-07-07T09:53:31.000Z</time>
      </trkpt>
      <trkpt lat="44.40068" lon="6.394">
        <ele>2144</ele>
        <time>2020-07-07T09:53:32.000Z</time>
      </trkpt>
      <trkpt lat="44.40068" lon="6.394">
        <ele>2144</ele>
        <time>2020-07-07T09:53:33.000Z</time>
      </trkpt>
      <trkpt lat="44.40068" lon="6.394">
        <ele>2144</ele>
        <time>2020-07-07T09:53:34.000Z</time>
      </trkpt>
      <trkpt lat="44.40068" lon="6.394">
        <ele>2144</ele>
        <time>2020-07-07T09:53:35.000Z</time>
      </trkpt>
      <trkpt lat="44.40068" lon="6.394">
        <ele>2144</ele>
        <time>2020-07-07T09:53:36.000Z</time>
      </trkpt>
      <trkpt lat="44.40068" lon="6.394">
        <ele>2144</ele>
        <time>2020-07-07T09:53:37.000Z</time>
      </trkpt>
      <trkpt lat="44.40068" lon="6.394">
        <ele>2144</ele>
        <time>2020-07-07T09:53:38.000Z</time>
      </trkpt>
      <trkpt lat="44.40068" lon="6.394">
        <ele>2144</ele>
        <time>2020-07-07T09:53:39.000Z</time>
      </trkpt>
      <trkpt lat="44.40068" lon="6.394">
        <ele>2144</ele>
        <time>2020-07-07T09:53:40.000Z</time>
      </trkpt>
      <trkpt lat="44.40067" lon="6.394">
        <ele>2144</ele>
        <time>2020-07-07T09:53:41.000Z</time>
      </trkpt>
      <trkpt lat="44.40068" lon="6.394">
        <ele>2144</ele>
        <time>2020-07-07T09:53:42.000Z</time>
      </trkpt>
      <trkpt lat="44.40068" lon="6.394">
        <ele>2144</ele>
        <time>2020-07-07T09:53:43.000Z</time>
      </trkpt>
      <trkpt lat="44.40068" lon="6.394">
        <ele>2144</ele>
        <time>2020-07-07T09:53:44.000Z</time>
      </trkpt>
      <trkpt lat="44.40068" lon="6.394">
        <ele>2144</ele>
        <time>2020-07-07T09:53:45.000Z</time>
      </trkpt>
      <trkpt lat="44.40068" lon="6.394">
        <ele>2144</ele>
        <time>2020-07-07T09:53:46.000Z</time>
      </trkpt>
      <trkpt lat="44.40068" lon="6.39401">
        <ele>2144</ele>
        <time>2020-07-07T09:53:47.000Z</time>
      </trkpt>
      <trkpt lat="44.40069" lon="6.39401">
        <ele>2144</ele>
        <time>2020-07-07T09:53:48.000Z</time>
      </trkpt>
      <trkpt lat="44.4007" lon="6.39402">
        <ele>2143</ele>
        <time>2020-07-07T09:53:49.000Z</time>
      </trkpt>
      <trkpt lat="44.40071" lon="6.39402">
        <ele>2143</ele>
        <time>2020-07-07T09:53:50.000Z</time>
      </trkpt>
      <trkpt lat="44.40072" lon="6.39402">
        <ele>2143</ele>
        <time>2020-07-07T09:53:51.000Z</time>
      </trkpt>
      <trkpt lat="44.40074" lon="6.39401">
        <ele>2143</ele>
        <time>2020-07-07T09:53:52.000Z</time>
      </trkpt>
      <trkpt lat="44.40074" lon="6.39401">
        <ele>2143</ele>
        <time>2020-07-07T09:53:53.000Z</time>
      </trkpt>
      <trkpt lat="44.40075" lon="6.39402">
        <ele>2144</ele>
        <time>2020-07-07T09:53:54.000Z</time>
      </trkpt>
      <trkpt lat="44.40076" lon="6.39402">
        <ele>2144</ele>
        <time>2020-07-07T09:53:55.000Z</time>
      </trkpt>
      <trkpt lat="44.40077" lon="6.39402">
        <ele>2144</ele>
        <time>2020-07-07T09:53:56.000Z</time>
      </trkpt>
      <trkpt lat="44.40078" lon="6.39403">
        <ele>2144</ele>
        <time>2020-07-07T09:53:57.000Z</time>
      </trkpt>
      <trkpt lat="44.40078" lon="6.39404">
        <ele>2144</ele>
        <time>2020-07-07T09:53:58.000Z</time>
      </trkpt>
      <trkpt lat="44.40079" lon="6.39404">
        <ele>2143</ele>
        <time>2020-07-07T09:53:59.000Z</time>
      </trkpt>
      <trkpt lat="44.4008" lon="6.39405">
        <ele>2143</ele>
        <time>2020-07-07T09:54:00.000Z</time>
      </trkpt>
      <trkpt lat="44.4008" lon="6.39405">
        <ele>2143</ele>
        <time>2020-07-07T09:54:01.000Z</time>
      </trkpt>
      <trkpt lat="44.40081" lon="6.39406">
        <ele>2143</ele>
        <time>2020-07-07T09:54:02.000Z</time>
      </trkpt>
      <trkpt lat="44.40082" lon="6.39408">
        <ele>2143</ele>
        <time>2020-07-07T09:54:03.000Z</time>
      </trkpt>
      <trkpt lat="44.40082" lon="6.39408">
        <ele>2143</ele>
        <time>2020-07-07T09:54:04.000Z</time>
      </trkpt>
      <trkpt lat="44.40083" lon="6.39409">
        <ele>2143</ele>
        <time>2020-07-07T09:54:05.000Z</time>
      </trkpt>
      <trkpt lat="44.40084" lon="6.3941">
        <ele>2143</ele>
        <time>2020-07-07T09:54:06.000Z</time>
      </trkpt>
      <trkpt lat="44.40084" lon="6.39411">
        <ele>2143</ele>
        <time>2020-07-07T09:54:07.000Z</time>
      </trkpt>
      <trkpt lat="44.40085" lon="6.39412">
        <ele>2143</ele>
        <time>2020-07-07T09:54:08.000Z</time>
      </trkpt>
      <trkpt lat="44.40085" lon="6.39413">
        <ele>2143</ele>
        <time>2020-07-07T09:54:09.000Z</time>
      </trkpt>
      <trkpt lat="44.40085" lon="6.39414">
        <ele>2143</ele>
        <time>2020-07-07T09:54:10.000Z</time>
      </trkpt>
      <trkpt lat="44.40086" lon="6.39415">
        <ele>2143</ele>
        <time>2020-07-07T09:54:11.000Z</time>
      </trkpt>
      <trkpt lat="44.40087" lon="6.39416">
        <ele>2143</ele>
        <time>2020-07-07T09:54:12.000Z</time>
      </trkpt>
      <trkpt lat="44.40088" lon="6.39416">
        <ele>2143</ele>
        <time>2020-07-07T09:54:13.000Z</time>
      </trkpt>
      <trkpt lat="44.40088" lon="6.39416">
        <ele>2143</ele>
        <time>2020-07-07T09:54:14.000Z</time>
      </trkpt>
      <trkpt lat="44.40089" lon="6.39417">
        <ele>2143</ele>
        <time>2020-07-07T09:54:15.000Z</time>
      </trkpt>
      <trkpt lat="44.40089" lon="6.39418">
        <ele>2143</ele>
        <time>2020-07-07T09:54:16.000Z</time>
      </trkpt>
      <trkpt lat="44.4009" lon="6.39419">
        <ele>2143</ele>
        <time>2020-07-07T09:54:17.000Z</time>
      </trkpt>
      <trkpt lat="44.4009" lon="6.3942">
        <ele>2143</ele>
        <time>2020-07-07T09:54:18.000Z</time>
      </trkpt>
      <trkpt lat="44.4009" lon="6.39421">
        <ele>2143</ele>
        <time>2020-07-07T09:54:19.000Z</time>
      </trkpt>
      <trkpt lat="44.40091" lon="6.39422">
        <ele>2143</ele>
        <time>2020-07-07T09:54:20.000Z</time>
      </trkpt>
      <trkpt lat="44.40091" lon="6.39423">
        <ele>2143</ele>
        <time>2020-07-07T09:54:21.000Z</time>
      </trkpt>
      <trkpt lat="44.40092" lon="6.39424">
        <ele>2143</ele>
        <time>2020-07-07T09:54:22.000Z</time>
      </trkpt>
      <trkpt lat="44.40092" lon="6.39425">
        <ele>2143</ele>
        <time>2020-07-07T09:54:23.000Z</time>
      </trkpt>
      <trkpt lat="44.40093" lon="6.39427">
        <ele>2143</ele>
        <time>2020-07-07T09:54:24.000Z</time>
      </trkpt>
      <trkpt lat="44.40094" lon="6.39427">
        <ele>2143</ele>
        <time>2020-07-07T09:54:25.000Z</time>
      </trkpt>
      <trkpt lat="44.40094" lon="6.39428">
        <ele>2143</ele>
        <time>2020-07-07T09:54:26.000Z</time>
      </trkpt>
      <trkpt lat="44.40095" lon="6.39428">
        <ele>2143</ele>
        <time>2020-07-07T09:54:27.000Z</time>
      </trkpt>
      <trkpt lat="44.40096" lon="6.39429">
        <ele>2143</ele>
        <time>2020-07-07T09:54:28.000Z</time>
      </trkpt>
      <trkpt lat="44.40096" lon="6.3943">
        <ele>2143</ele>
        <time>2020-07-07T09:54:29.000Z</time>
      </trkpt>
      <trkpt lat="44.40097" lon="6.3943">
        <ele>2143</ele>
        <time>2020-07-07T09:54:30.000Z</time>
      </trkpt>
      <trkpt lat="44.40097" lon="6.39431">
        <ele>2143</ele>
        <time>2020-07-07T09:54:31.000Z</time>
      </trkpt>
      <trkpt lat="44.40097" lon="6.39432">
        <ele>2142</ele>
        <time>2020-07-07T09:54:32.000Z</time>
      </trkpt>
      <trkpt lat="44.40098" lon="6.39432">
        <ele>2142</ele>
        <time>2020-07-07T09:54:33.000Z</time>
      </trkpt>
      <trkpt lat="44.40098" lon="6.39432">
        <ele>2142</ele>
        <time>2020-07-07T09:54:34.000Z</time>
      </trkpt>
      <trkpt lat="44.40098" lon="6.39432">
        <ele>2142</ele>
        <time>2020-07-07T09:54:35.000Z</time>
      </trkpt>
      <trkpt lat="44.40098" lon="6.39432">
        <ele>2142</ele>
        <time>2020-07-07T09:54:36.000Z</time>
      </trkpt>
      <trkpt lat="44.40098" lon="6.39432">
        <ele>2142</ele>
        <time>2020-07-07T09:54:37.000Z</time>
      </trkpt>
      <trkpt lat="44.40098" lon="6.39433">
        <ele>2142</ele>
        <time>2020-07-07T09:54:38.000Z</time>
      </trkpt>
      <trkpt lat="44.40098" lon="6.39434">
        <ele>2142</ele>
        <time>2020-07-07T09:54:39.000Z</time>
      </trkpt>
      <trkpt lat="44.40099" lon="6.39436">
        <ele>2142</ele>
        <time>2020-07-07T09:54:40.000Z</time>
      </trkpt>
      <trkpt lat="44.40099" lon="6.39437">
        <ele>2142</ele>
        <time>2020-07-07T09:54:41.000Z</time>
      </trkpt>
      <trkpt lat="44.40099" lon="6.39438">
        <ele>2142</ele>
        <time>2020-07-07T09:54:42.000Z</time>
      </trkpt>
      <trkpt lat="44.401" lon="6.39439">
        <ele>2142</ele>
        <time>2020-07-07T09:54:43.000Z</time>
      </trkpt>
      <trkpt lat="44.401" lon="6.39441">
        <ele>2142</ele>
        <time>2020-07-07T09:54:44.000Z</time>
      </trkpt>
      <trkpt lat="44.40101" lon="6.39442">
        <ele>2142</ele>
        <time>2020-07-07T09:54:45.000Z</time>
      </trkpt>
      <trkpt lat="44.40102" lon="6.39443">
        <ele>2142</ele>
        <time>2020-07-07T09:54:46.000Z</time>
      </trkpt>
      <trkpt lat="44.40102" lon="6.39444">
        <ele>2141</ele>
        <time>2020-07-07T09:54:47.000Z</time>
      </trkpt>
      <trkpt lat="44.40103" lon="6.39445">
        <ele>2141</ele>
        <time>2020-07-07T09:54:48.000Z</time>
      </trkpt>
      <trkpt lat="44.40103" lon="6.39447">
        <ele>2141</ele>
        <time>2020-07-07T09:54:49.000Z</time>
      </trkpt>
      <trkpt lat="44.40104" lon="6.39448">
        <ele>2141</ele>
        <time>2020-07-07T09:54:50.000Z</time>
      </trkpt>
      <trkpt lat="44.40105" lon="6.39449">
        <ele>2141</ele>
        <time>2020-07-07T09:54:51.000Z</time>
      </trkpt>
      <trkpt lat="44.40105" lon="6.3945">
        <ele>2141</ele>
        <time>2020-07-07T09:54:52.000Z</time>
      </trkpt>
      <trkpt lat="44.40106" lon="6.39452">
        <ele>2141</ele>
        <time>2020-07-07T09:54:53.000Z</time>
      </trkpt>
      <trkpt lat="44.40106" lon="6.39453">
        <ele>2141</ele>
        <time>2020-07-07T09:54:54.000Z</time>
      </trkpt>
      <trkpt lat="44.40106" lon="6.39454">
        <ele>2141</ele>
        <time>2020-07-07T09:54:55.000Z</time>
      </trkpt>
      <trkpt lat="44.40106" lon="6.39455">
        <ele>2140</ele>
        <time>2020-07-07T09:54:56.000Z</time>
      </trkpt>
      <trkpt lat="44.40107" lon="6.39456">
        <ele>2140</ele>
        <time>2020-07-07T09:54:57.000Z</time>
      </trkpt>
      <trkpt lat="44.40107" lon="6.39458">
        <ele>2140</ele>
        <time>2020-07-07T09:54:58.000Z</time>
      </trkpt>
      <trkpt lat="44.40107" lon="6.39459">
        <ele>2140</ele>
        <time>2020-07-07T09:54:59.000Z</time>
      </trkpt>
      <trkpt lat="44.40108" lon="6.3946">
        <ele>2140</ele>
        <time>2020-07-07T09:55:00.000Z</time>
      </trkpt>
      <trkpt lat="44.40108" lon="6.39461">
        <ele>2140</ele>
        <time>2020-07-07T09:55:01.000Z</time>
      </trkpt>
      <trkpt lat="44.40108" lon="6.39462">
        <ele>2140</ele>
        <time>2020-07-07T09:55:02.000Z</time>
      </trkpt>
      <trkpt lat="44.40108" lon="6.39463">
        <ele>2139</ele>
        <time>2020-07-07T09:55:03.000Z</time>
      </trkpt>
      <trkpt lat="44.40108" lon="6.39464">
        <ele>2139</ele>
        <time>2020-07-07T09:55:04.000Z</time>
      </trkpt>
      <trkpt lat="44.40108" lon="6.39466">
        <ele>2139</ele>
        <time>2020-07-07T09:55:05.000Z</time>
      </trkpt>
      <trkpt lat="44.40109" lon="6.39466">
        <ele>2139</ele>
        <time>2020-07-07T09:55:06.000Z</time>
      </trkpt>
      <trkpt lat="44.40109" lon="6.39468">
        <ele>2139</ele>
        <time>2020-07-07T09:55:07.000Z</time>
      </trkpt>
      <trkpt lat="44.40109" lon="6.39469">
        <ele>2139</ele>
        <time>2020-07-07T09:55:08.000Z</time>
      </trkpt>
      <trkpt lat="44.40109" lon="6.3947">
        <ele>2139</ele>
        <time>2020-07-07T09:55:09.000Z</time>
      </trkpt>
      <trkpt lat="44.40109" lon="6.39471">
        <ele>2139</ele>
        <time>2020-07-07T09:55:10.000Z</time>
      </trkpt>
      <trkpt lat="44.40109" lon="6.39472">
        <ele>2139</ele>
        <time>2020-07-07T09:55:11.000Z</time>
      </trkpt>
      <trkpt lat="44.40109" lon="6.39474">
        <ele>2138</ele>
        <time>2020-07-07T09:55:12.000Z</time>
      </trkpt>
      <trkpt lat="44.40109" lon="6.39475">
        <ele>2138</ele>
        <time>2020-07-07T09:55:13.000Z</time>
      </trkpt>
      <trkpt lat="44.40109" lon="6.39476">
        <ele>2138</ele>
        <time>2020-07-07T09:55:14.000Z</time>
      </trkpt>
      <trkpt lat="44.40108" lon="6.39478">
        <ele>2138</ele>
        <time>2020-07-07T09:55:15.000Z</time>
      </trkpt>
      <trkpt lat="44.40109" lon="6.39479">
        <ele>2138</ele>
        <time>2020-07-07T09:55:16.000Z</time>
      </trkpt>
      <trkpt lat="44.40108" lon="6.3948">
        <ele>2137</ele>
        <time>2020-07-07T09:55:17.000Z</time>
      </trkpt>
      <trkpt lat="44.40108" lon="6.39482">
        <ele>2137</ele>
        <time>2020-07-07T09:55:18.000Z</time>
      </trkpt>
      <trkpt lat="44.40108" lon="6.39483">
        <ele>2137</ele>
        <time>2020-07-07T09:55:19.000Z</time>
      </trkpt>
      <trkpt lat="44.40107" lon="6.39484">
        <ele>2137</ele>
        <time>2020-07-07T09:55:20.000Z</time>
      </trkpt>
      <trkpt lat="44.40107" lon="6.39486">
        <ele>2137</ele>
        <time>2020-07-07T09:55:21.000Z</time>
      </trkpt>
      <trkpt lat="44.40107" lon="6.39487">
        <ele>2137</ele>
        <time>2020-07-07T09:55:22.000Z</time>
      </trkpt>
      <trkpt lat="44.40107" lon="6.39488">
        <ele>2137</ele>
        <time>2020-07-07T09:55:23.000Z</time>
      </trkpt>
      <trkpt lat="44.40107" lon="6.39489">
        <ele>2137</ele>
        <time>2020-07-07T09:55:24.000Z</time>
      </trkpt>
      <trkpt lat="44.40107" lon="6.3949">
        <ele>2137</ele>
        <time>2020-07-07T09:55:25.000Z</time>
      </trkpt>
      <trkpt lat="44.40107" lon="6.39492">
        <ele>2136</ele>
        <time>2020-07-07T09:55:26.000Z</time>
      </trkpt>
      <trkpt lat="44.40107" lon="6.39493">
        <ele>2136</ele>
        <time>2020-07-07T09:55:27.000Z</time>
      </trkpt>
      <trkpt lat="44.40107" lon="6.39494">
        <ele>2136</ele>
        <time>2020-07-07T09:55:28.000Z</time>
      </trkpt>
      <trkpt lat="44.40106" lon="6.39495">
        <ele>2136</ele>
        <time>2020-07-07T09:55:29.000Z</time>
      </trkpt>
      <trkpt lat="44.40106" lon="6.39497">
        <ele>2135</ele>
        <time>2020-07-07T09:55:30.000Z</time>
      </trkpt>
      <trkpt lat="44.40106" lon="6.39498">
        <ele>2135</ele>
        <time>2020-07-07T09:55:31.000Z</time>
      </trkpt>
      <trkpt lat="44.40106" lon="6.39499">
        <ele>2135</ele>
        <time>2020-07-07T09:55:32.000Z</time>
      </trkpt>
      <trkpt lat="44.40106" lon="6.395">
        <ele>2135</ele>
        <time>2020-07-07T09:55:33.000Z</time>
      </trkpt>
      <trkpt lat="44.40105" lon="6.39501">
        <ele>2134</ele>
        <time>2020-07-07T09:55:34.000Z</time>
      </trkpt>
      <trkpt lat="44.40105" lon="6.39503">
        <ele>2134</ele>
        <time>2020-07-07T09:55:35.000Z</time>
      </trkpt>
      <trkpt lat="44.40105" lon="6.39504">
        <ele>2134</ele>
        <time>2020-07-07T09:55:36.000Z</time>
      </trkpt>
      <trkpt lat="44.40104" lon="6.39505">
        <ele>2134</ele>
        <time>2020-07-07T09:55:37.000Z</time>
      </trkpt>
      <trkpt lat="44.40103" lon="6.39506">
        <ele>2133</ele>
        <time>2020-07-07T09:55:38.000Z</time>
      </trkpt>
      <trkpt lat="44.40103" lon="6.39507">
        <ele>2133</ele>
        <time>2020-07-07T09:55:39.000Z</time>
      </trkpt>
      <trkpt lat="44.40102" lon="6.39508">
        <ele>2133</ele>
        <time>2020-07-07T09:55:40.000Z</time>
      </trkpt>
      <trkpt lat="44.40102" lon="6.3951">
        <ele>2133</ele>
        <time>2020-07-07T09:55:41.000Z</time>
      </trkpt>
      <trkpt lat="44.40101" lon="6.39511">
        <ele>2132</ele>
        <time>2020-07-07T09:55:42.000Z</time>
      </trkpt>
      <trkpt lat="44.40101" lon="6.39512">
        <ele>2132</ele>
        <time>2020-07-07T09:55:43.000Z</time>
      </trkpt>
      <trkpt lat="44.401" lon="6.39513">
        <ele>2132</ele>
        <time>2020-07-07T09:55:44.000Z</time>
      </trkpt>
      <trkpt lat="44.40099" lon="6.39514">
        <ele>2132</ele>
        <time>2020-07-07T09:55:45.000Z</time>
      </trkpt>
      <trkpt lat="44.40099" lon="6.39516">
        <ele>2132</ele>
        <time>2020-07-07T09:55:46.000Z</time>
      </trkpt>
      <trkpt lat="44.40099" lon="6.39517">
        <ele>2131</ele>
        <time>2020-07-07T09:55:47.000Z</time>
      </trkpt>
      <trkpt lat="44.40099" lon="6.39518">
        <ele>2131</ele>
        <time>2020-07-07T09:55:48.000Z</time>
      </trkpt>
      <trkpt lat="44.40099" lon="6.39519">
        <ele>2131</ele>
        <time>2020-07-07T09:55:49.000Z</time>
      </trkpt>
      <trkpt lat="44.40098" lon="6.3952">
        <ele>2131</ele>
        <time>2020-07-07T09:55:50.000Z</time>
      </trkpt>
      <trkpt lat="44.40098" lon="6.39521">
        <ele>2131</ele>
        <time>2020-07-07T09:55:51.000Z</time>
      </trkpt>
      <trkpt lat="44.40098" lon="6.39523">
        <ele>2131</ele>
        <time>2020-07-07T09:55:52.000Z</time>
      </trkpt>
      <trkpt lat="44.40098" lon="6.39524">
        <ele>2130</ele>
        <time>2020-07-07T09:55:53.000Z</time>
      </trkpt>
      <trkpt lat="44.40098" lon="6.39525">
        <ele>2130</ele>
        <time>2020-07-07T09:55:54.000Z</time>
      </trkpt>
      <trkpt lat="44.40098" lon="6.39526">
        <ele>2130</ele>
        <time>2020-07-07T09:55:55.000Z</time>
      </trkpt>
      <trkpt lat="44.40098" lon="6.39526">
        <ele>2129</ele>
        <time>2020-07-07T09:55:56.000Z</time>
      </trkpt>
      <trkpt lat="44.40098" lon="6.39527">
        <ele>2129</ele>
        <time>2020-07-07T09:55:57.000Z</time>
      </trkpt>
      <trkpt lat="44.40099" lon="6.39528">
        <ele>2129</ele>
        <time>2020-07-07T09:55:58.000Z</time>
      </trkpt>
      <trkpt lat="44.40099" lon="6.39529">
        <ele>2129</ele>
        <time>2020-07-07T09:55:59.000Z</time>
      </trkpt>
      <trkpt lat="44.401" lon="6.39531">
        <ele>2128</ele>
        <time>2020-07-07T09:56:00.000Z</time>
      </trkpt>
      <trkpt lat="44.40101" lon="6.39532">
        <ele>2128</ele>
        <time>2020-07-07T09:56:01.000Z</time>
      </trkpt>
      <trkpt lat="44.40101" lon="6.39533">
        <ele>2128</ele>
        <time>2020-07-07T09:56:02.000Z</time>
      </trkpt>
      <trkpt lat="44.40101" lon="6.39534">
        <ele>2128</ele>
        <time>2020-07-07T09:56:03.000Z</time>
      </trkpt>
      <trkpt lat="44.40102" lon="6.39536">
        <ele>2127</ele>
        <time>2020-07-07T09:56:04.000Z</time>
      </trkpt>
      <trkpt lat="44.40102" lon="6.39537">
        <ele>2127</ele>
        <time>2020-07-07T09:56:05.000Z</time>
      </trkpt>
      <trkpt lat="44.40102" lon="6.39538">
        <ele>2127</ele>
        <time>2020-07-07T09:56:06.000Z</time>
      </trkpt>
      <trkpt lat="44.40102" lon="6.39539">
        <ele>2127</ele>
        <time>2020-07-07T09:56:07.000Z</time>
      </trkpt>
      <trkpt lat="44.40102" lon="6.3954">
        <ele>2127</ele>
        <time>2020-07-07T09:56:08.000Z</time>
      </trkpt>
      <trkpt lat="44.40103" lon="6.39541">
        <ele>2127</ele>
        <time>2020-07-07T09:56:09.000Z</time>
      </trkpt>
      <trkpt lat="44.40103" lon="6.39542">
        <ele>2127</ele>
        <time>2020-07-07T09:56:10.000Z</time>
      </trkpt>
      <trkpt lat="44.40103" lon="6.39544">
        <ele>2127</ele>
        <time>2020-07-07T09:56:11.000Z</time>
      </trkpt>
      <trkpt lat="44.40103" lon="6.39545">
        <ele>2126</ele>
        <time>2020-07-07T09:56:12.000Z</time>
      </trkpt>
      <trkpt lat="44.40103" lon="6.39546">
        <ele>2126</ele>
        <time>2020-07-07T09:56:13.000Z</time>
      </trkpt>
      <trkpt lat="44.40103" lon="6.39548">
        <ele>2126</ele>
        <time>2020-07-07T09:56:14.000Z</time>
      </trkpt>
      <trkpt lat="44.40103" lon="6.39549">
        <ele>2125</ele>
        <time>2020-07-07T09:56:15.000Z</time>
      </trkpt>
      <trkpt lat="44.40103" lon="6.3955">
        <ele>2125</ele>
        <time>2020-07-07T09:56:16.000Z</time>
      </trkpt>
      <trkpt lat="44.40103" lon="6.39552">
        <ele>2125</ele>
        <time>2020-07-07T09:56:17.000Z</time>
      </trkpt>
      <trkpt lat="44.40103" lon="6.39553">
        <ele>2124</ele>
        <time>2020-07-07T09:56:18.000Z</time>
      </trkpt>
      <trkpt lat="44.40103" lon="6.39554">
        <ele>2124</ele>
        <time>2020-07-07T09:56:19.000Z</time>
      </trkpt>
      <trkpt lat="44.40103" lon="6.39555">
        <ele>2124</ele>
        <time>2020-07-07T09:56:20.000Z</time>
      </trkpt>
      <trkpt lat="44.40104" lon="6.39557">
        <ele>2124</ele>
        <time>2020-07-07T09:56:21.000Z</time>
      </trkpt>
      <trkpt lat="44.40104" lon="6.39558">
        <ele>2124</ele>
        <time>2020-07-07T09:56:22.000Z</time>
      </trkpt>
      <trkpt lat="44.40104" lon="6.39559">
        <ele>2123</ele>
        <time>2020-07-07T09:56:23.000Z</time>
      </trkpt>
      <trkpt lat="44.40104" lon="6.3956">
        <ele>2123</ele>
        <time>2020-07-07T09:56:24.000Z</time>
      </trkpt>
      <trkpt lat="44.40104" lon="6.39561">
        <ele>2123</ele>
        <time>2020-07-07T09:56:25.000Z</time>
      </trkpt>
      <trkpt lat="44.40104" lon="6.39562">
        <ele>2123</ele>
        <time>2020-07-07T09:56:26.000Z</time>
      </trkpt>
      <trkpt lat="44.40104" lon="6.39564">
        <ele>2123</ele>
        <time>2020-07-07T09:56:27.000Z</time>
      </trkpt>
      <trkpt lat="44.40104" lon="6.39565">
        <ele>2123</ele>
        <time>2020-07-07T09:56:28.000Z</time>
      </trkpt>
      <trkpt lat="44.40104" lon="6.39566">
        <ele>2122</ele>
        <time>2020-07-07T09:56:29.000Z</time>
      </trkpt>
      <trkpt lat="44.40104" lon="6.39567">
        <ele>2122</ele>
        <time>2020-07-07T09:56:30.000Z</time>
      </trkpt>
      <trkpt lat="44.40105" lon="6.39568">
        <ele>2122</ele>
        <time>2020-07-07T09:56:31.000Z</time>
      </trkpt>
      <trkpt lat="44.40105" lon="6.39569">
        <ele>2122</ele>
        <time>2020-07-07T09:56:32.000Z</time>
      </trkpt>
      <trkpt lat="44.40105" lon="6.3957">
        <ele>2122</ele>
        <time>2020-07-07T09:56:33.000Z</time>
      </trkpt>
      <trkpt lat="44.40104" lon="6.39571">
        <ele>2121</ele>
        <time>2020-07-07T09:56:34.000Z</time>
      </trkpt>
      <trkpt lat="44.40104" lon="6.39573">
        <ele>2121</ele>
        <time>2020-07-07T09:56:35.000Z</time>
      </trkpt>
      <trkpt lat="44.40104" lon="6.39574">
        <ele>2121</ele>
        <time>2020-07-07T09:56:36.000Z</time>
      </trkpt>
      <trkpt lat="44.40104" lon="6.39575">
        <ele>2121</ele>
        <time>2020-07-07T09:56:37.000Z</time>
      </trkpt>
      <trkpt lat="44.40103" lon="6.39577">
        <ele>2121</ele>
        <time>2020-07-07T09:56:38.000Z</time>
      </trkpt>
      <trkpt lat="44.40103" lon="6.39578">
        <ele>2121</ele>
        <time>2020-07-07T09:56:39.000Z</time>
      </trkpt>
      <trkpt lat="44.40103" lon="6.39579">
        <ele>2120</ele>
        <time>2020-07-07T09:56:40.000Z</time>
      </trkpt>
      <trkpt lat="44.40103" lon="6.39581">
        <ele>2120</ele>
        <time>2020-07-07T09:56:41.000Z</time>
      </trkpt>
      <trkpt lat="44.40102" lon="6.39582">
        <ele>2120</ele>
        <time>2020-07-07T09:56:42.000Z</time>
      </trkpt>
      <trkpt lat="44.40102" lon="6.39583">
        <ele>2120</ele>
        <time>2020-07-07T09:56:43.000Z</time>
      </trkpt>
      <trkpt lat="44.40102" lon="6.39584">
        <ele>2120</ele>
        <time>2020-07-07T09:56:44.000Z</time>
      </trkpt>
      <trkpt lat="44.40102" lon="6.39586">
        <ele>2120</ele>
        <time>2020-07-07T09:56:45.000Z</time>
      </trkpt>
      <trkpt lat="44.40102" lon="6.39587">
        <ele>2119</ele>
        <time>2020-07-07T09:56:46.000Z</time>
      </trkpt>
      <trkpt lat="44.40102" lon="6.39588">
        <ele>2119</ele>
        <time>2020-07-07T09:56:47.000Z</time>
      </trkpt>
      <trkpt lat="44.40102" lon="6.3959">
        <ele>2119</ele>
        <time>2020-07-07T09:56:48.000Z</time>
      </trkpt>
      <trkpt lat="44.40102" lon="6.39591">
        <ele>2119</ele>
        <time>2020-07-07T09:56:49.000Z</time>
      </trkpt>
      <trkpt lat="44.40101" lon="6.39592">
        <ele>2119</ele>
        <time>2020-07-07T09:56:50.000Z</time>
      </trkpt>
      <trkpt lat="44.40101" lon="6.39594">
        <ele>2119</ele>
        <time>2020-07-07T09:56:51.000Z</time>
      </trkpt>
      <trkpt lat="44.40101" lon="6.39595">
        <ele>2118</ele>
        <time>2020-07-07T09:56:52.000Z</time>
      </trkpt>
      <trkpt lat="44.40101" lon="6.39596">
        <ele>2118</ele>
        <time>2020-07-07T09:56:53.000Z</time>
      </trkpt>
      <trkpt lat="44.40101" lon="6.39598">
        <ele>2118</ele>
        <time>2020-07-07T09:56:54.000Z</time>
      </trkpt>
      <trkpt lat="44.40101" lon="6.39599">
        <ele>2118</ele>
        <time>2020-07-07T09:56:55.000Z</time>
      </trkpt>
      <trkpt lat="44.40101" lon="6.39601">
        <ele>2117</ele>
        <time>2020-07-07T09:56:56.000Z</time>
      </trkpt>
      <trkpt lat="44.401" lon="6.39602">
        <ele>2117</ele>
        <time>2020-07-07T09:56:57.000Z</time>
      </trkpt>
      <trkpt lat="44.401" lon="6.39603">
        <ele>2117</ele>
        <time>2020-07-07T09:56:58.000Z</time>
      </trkpt>
      <trkpt lat="44.401" lon="6.39605">
        <ele>2117</ele>
        <time>2020-07-07T09:56:59.000Z</time>
      </trkpt>
      <trkpt lat="44.401" lon="6.39607">
        <ele>2117</ele>
        <time>2020-07-07T09:57:00.000Z</time>
      </trkpt>
      <trkpt lat="44.401" lon="6.39608">
        <ele>2117</ele>
        <time>2020-07-07T09:57:01.000Z</time>
      </trkpt>
      <trkpt lat="44.401" lon="6.3961">
        <ele>2117</ele>
        <time>2020-07-07T09:57:02.000Z</time>
      </trkpt>
      <trkpt lat="44.40099" lon="6.39611">
        <ele>2117</ele>
        <time>2020-07-07T09:57:03.000Z</time>
      </trkpt>
      <trkpt lat="44.40099" lon="6.39612">
        <ele>2117</ele>
        <time>2020-07-07T09:57:04.000Z</time>
      </trkpt>
      <trkpt lat="44.40099" lon="6.39614">
        <ele>2117</ele>
        <time>2020-07-07T09:57:05.000Z</time>
      </trkpt>
      <trkpt lat="44.40098" lon="6.39615">
        <ele>2117</ele>
        <time>2020-07-07T09:57:06.000Z</time>
      </trkpt>
      <trkpt lat="44.40098" lon="6.39617">
        <ele>2117</ele>
        <time>2020-07-07T09:57:07.000Z</time>
      </trkpt>
      <trkpt lat="44.40098" lon="6.39618">
        <ele>2117</ele>
        <time>2020-07-07T09:57:08.000Z</time>
      </trkpt>
      <trkpt lat="44.40098" lon="6.39619">
        <ele>2117</ele>
        <time>2020-07-07T09:57:09.000Z</time>
      </trkpt>
      <trkpt lat="44.40098" lon="6.39621">
        <ele>2117</ele>
        <time>2020-07-07T09:57:10.000Z</time>
      </trkpt>
      <trkpt lat="44.40098" lon="6.39622">
        <ele>2116</ele>
        <time>2020-07-07T09:57:11.000Z</time>
      </trkpt>
      <trkpt lat="44.40097" lon="6.39623">
        <ele>2116</ele>
        <time>2020-07-07T09:57:12.000Z</time>
      </trkpt>
      <trkpt lat="44.40097" lon="6.39625">
        <ele>2116</ele>
        <time>2020-07-07T09:57:13.000Z</time>
      </trkpt>
      <trkpt lat="44.40096" lon="6.39626">
        <ele>2116</ele>
        <time>2020-07-07T09:57:14.000Z</time>
      </trkpt>
      <trkpt lat="44.40096" lon="6.39628">
        <ele>2116</ele>
        <time>2020-07-07T09:57:15.000Z</time>
      </trkpt>
      <trkpt lat="44.40096" lon="6.39629">
        <ele>2115</ele>
        <time>2020-07-07T09:57:16.000Z</time>
      </trkpt>
      <trkpt lat="44.40095" lon="6.3963">
        <ele>2115</ele>
        <time>2020-07-07T09:57:17.000Z</time>
      </trkpt>
      <trkpt lat="44.40095" lon="6.39631">
        <ele>2115</ele>
        <time>2020-07-07T09:57:18.000Z</time>
      </trkpt>
      <trkpt lat="44.40095" lon="6.39632">
        <ele>2115</ele>
        <time>2020-07-07T09:57:19.000Z</time>
      </trkpt>
      <trkpt lat="44.40095" lon="6.39633">
        <ele>2115</ele>
        <time>2020-07-07T09:57:20.000Z</time>
      </trkpt>
      <trkpt lat="44.40095" lon="6.39634">
        <ele>2115</ele>
        <time>2020-07-07T09:57:21.000Z</time>
      </trkpt>
      <trkpt lat="44.40095" lon="6.39636">
        <ele>2114</ele>
        <time>2020-07-07T09:57:22.000Z</time>
      </trkpt>
      <trkpt lat="44.40095" lon="6.39637">
        <ele>2114</ele>
        <time>2020-07-07T09:57:23.000Z</time>
      </trkpt>
      <trkpt lat="44.40095" lon="6.39638">
        <ele>2114</ele>
        <time>2020-07-07T09:57:24.000Z</time>
      </trkpt>
      <trkpt lat="44.40095" lon="6.39639">
        <ele>2114</ele>
        <time>2020-07-07T09:57:25.000Z</time>
      </trkpt>
      <trkpt lat="44.40095" lon="6.39639">
        <ele>2114</ele>
        <time>2020-07-07T09:57:26.000Z</time>
      </trkpt>
      <trkpt lat="44.40095" lon="6.39639">
        <ele>2114</ele>
        <time>2020-07-07T09:57:27.000Z</time>
      </trkpt>
      <trkpt lat="44.40095" lon="6.39639">
        <ele>2114</ele>
        <time>2020-07-07T09:57:28.000Z</time>
      </trkpt>
      <trkpt lat="44.40095" lon="6.39639">
        <ele>2114</ele>
        <time>2020-07-07T09:57:29.000Z</time>
      </trkpt>
      <trkpt lat="44.40095" lon="6.3964">
        <ele>2114</ele>
        <time>2020-07-07T09:57:30.000Z</time>
      </trkpt>
      <trkpt lat="44.40095" lon="6.3964">
        <ele>2114</ele>
        <time>2020-07-07T09:57:31.000Z</time>
      </trkpt>
      <trkpt lat="44.40095" lon="6.3964">
        <ele>2114</ele>
        <time>2020-07-07T09:57:32.000Z</time>
      </trkpt>
      <trkpt lat="44.40095" lon="6.39641">
        <ele>2114</ele>
        <time>2020-07-07T09:57:33.000Z</time>
      </trkpt>
      <trkpt lat="44.40095" lon="6.39641">
        <ele>2114</ele>
        <time>2020-07-07T09:57:34.000Z</time>
      </trkpt>
      <trkpt lat="44.40095" lon="6.39641">
        <ele>2114</ele>
        <time>2020-07-07T09:57:35.000Z</time>
      </trkpt>
      <trkpt lat="44.40095" lon="6.39641">
        <ele>2114</ele>
        <time>2020-07-07T09:57:36.000Z</time>
      </trkpt>
      <trkpt lat="44.40095" lon="6.39642">
        <ele>2114</ele>
        <time>2020-07-07T09:57:37.000Z</time>
      </trkpt>
      <trkpt lat="44.40095" lon="6.39643">
        <ele>2113</ele>
        <time>2020-07-07T09:57:38.000Z</time>
      </trkpt>
      <trkpt lat="44.40095" lon="6.39644">
        <ele>2113</ele>
        <time>2020-07-07T09:57:39.000Z</time>
      </trkpt>
      <trkpt lat="44.40095" lon="6.39645">
        <ele>2113</ele>
        <time>2020-07-07T09:57:40.000Z</time>
      </trkpt>
      <trkpt lat="44.40095" lon="6.39647">
        <ele>2113</ele>
        <time>2020-07-07T09:57:41.000Z</time>
      </trkpt>
      <trkpt lat="44.40095" lon="6.39648">
        <ele>2113</ele>
        <time>2020-07-07T09:57:42.000Z</time>
      </trkpt>
      <trkpt lat="44.40095" lon="6.39649">
        <ele>2113</ele>
        <time>2020-07-07T09:57:43.000Z</time>
      </trkpt>
      <trkpt lat="44.40095" lon="6.39651">
        <ele>2113</ele>
        <time>2020-07-07T09:57:44.000Z</time>
      </trkpt>
      <trkpt lat="44.40095" lon="6.39652">
        <ele>2112</ele>
        <time>2020-07-07T09:57:45.000Z</time>
      </trkpt>
      <trkpt lat="44.40095" lon="6.39653">
        <ele>2112</ele>
        <time>2020-07-07T09:57:46.000Z</time>
      </trkpt>
      <trkpt lat="44.40094" lon="6.39654">
        <ele>2112</ele>
        <time>2020-07-07T09:57:47.000Z</time>
      </trkpt>
      <trkpt lat="44.40094" lon="6.39655">
        <ele>2112</ele>
        <time>2020-07-07T09:57:48.000Z</time>
      </trkpt>
      <trkpt lat="44.40093" lon="6.39657">
        <ele>2112</ele>
        <time>2020-07-07T09:57:49.000Z</time>
      </trkpt>
      <trkpt lat="44.40093" lon="6.39657">
        <ele>2112</ele>
        <time>2020-07-07T09:57:50.000Z</time>
      </trkpt>
      <trkpt lat="44.40093" lon="6.39657">
        <ele>2112</ele>
        <time>2020-07-07T09:57:51.000Z</time>
      </trkpt>
      <trkpt lat="44.40093" lon="6.39657">
        <ele>2112</ele>
        <time>2020-07-07T09:57:52.000Z</time>
      </trkpt>
      <trkpt lat="44.40093" lon="6.39657">
        <ele>2112</ele>
        <time>2020-07-07T09:57:53.000Z</time>
      </trkpt>
      <trkpt lat="44.40093" lon="6.39657">
        <ele>2112</ele>
        <time>2020-07-07T09:57:54.000Z</time>
      </trkpt>
      <trkpt lat="44.40093" lon="6.39657">
        <ele>2112</ele>
        <time>2020-07-07T09:57:55.000Z</time>
      </trkpt>
      <trkpt lat="44.40093" lon="6.39657">
        <ele>2112</ele>
        <time>2020-07-07T09:57:56.000Z</time>
      </trkpt>
      <trkpt lat="44.40092" lon="6.39658">
        <ele>2112</ele>
        <time>2020-07-07T09:57:57.000Z</time>
      </trkpt>
      <trkpt lat="44.40091" lon="6.39658">
        <ele>2111</ele>
        <time>2020-07-07T09:57:58.000Z</time>
      </trkpt>
      <trkpt lat="44.40091" lon="6.39659">
        <ele>2111</ele>
        <time>2020-07-07T09:57:59.000Z</time>
      </trkpt>
      <trkpt lat="44.4009" lon="6.39659">
        <ele>2111</ele>
        <time>2020-07-07T09:58:00.000Z</time>
      </trkpt>
      <trkpt lat="44.4009" lon="6.3966">
        <ele>2111</ele>
        <time>2020-07-07T09:58:01.000Z</time>
      </trkpt>
      <trkpt lat="44.4009" lon="6.39661">
        <ele>2111</ele>
        <time>2020-07-07T09:58:02.000Z</time>
      </trkpt>
      <trkpt lat="44.4009" lon="6.39661">
        <ele>2110</ele>
        <time>2020-07-07T09:58:03.000Z</time>
      </trkpt>
      <trkpt lat="44.40089" lon="6.39662">
        <ele>2110</ele>
        <time>2020-07-07T09:58:04.000Z</time>
      </trkpt>
      <trkpt lat="44.40089" lon="6.39663">
        <ele>2110</ele>
        <time>2020-07-07T09:58:05.000Z</time>
      </trkpt>
      <trkpt lat="44.40088" lon="6.39663">
        <ele>2110</ele>
        <time>2020-07-07T09:58:06.000Z</time>
      </trkpt>
      <trkpt lat="44.40088" lon="6.39663">
        <ele>2110</ele>
        <time>2020-07-07T09:58:07.000Z</time>
      </trkpt>
      <trkpt lat="44.40088" lon="6.39663">
        <ele>2110</ele>
        <time>2020-07-07T09:58:08.000Z</time>
      </trkpt>
      <trkpt lat="44.40088" lon="6.39663">
        <ele>2110</ele>
        <time>2020-07-07T09:58:09.000Z</time>
      </trkpt>
      <trkpt lat="44.40088" lon="6.39663">
        <ele>2110</ele>
        <time>2020-07-07T09:58:10.000Z</time>
      </trkpt>
      <trkpt lat="44.40088" lon="6.39663">
        <ele>2110</ele>
        <time>2020-07-07T09:58:11.000Z</time>
      </trkpt>
      <trkpt lat="44.40088" lon="6.39663">
        <ele>2110</ele>
        <time>2020-07-07T09:58:12.000Z</time>
      </trkpt>
      <trkpt lat="44.40088" lon="6.39663">
        <ele>2109</ele>
        <time>2020-07-07T09:58:13.000Z</time>
      </trkpt>
      <trkpt lat="44.40088" lon="6.39663">
        <ele>2109</ele>
        <time>2020-07-07T09:58:14.000Z</time>
      </trkpt>
      <trkpt lat="44.40088" lon="6.39663">
        <ele>2109</ele>
        <time>2020-07-07T09:58:15.000Z</time>
      </trkpt>
      <trkpt lat="44.40088" lon="6.39663">
        <ele>2109</ele>
        <time>2020-07-07T09:58:16.000Z</time>
      </trkpt>
      <trkpt lat="44.40087" lon="6.39664">
        <ele>2109</ele>
        <time>2020-07-07T09:58:17.000Z</time>
      </trkpt>
      <trkpt lat="44.40087" lon="6.39664">
        <ele>2109</ele>
        <time>2020-07-07T09:58:18.000Z</time>
      </trkpt>
      <trkpt lat="44.40086" lon="6.39664">
        <ele>2109</ele>
        <time>2020-07-07T09:58:19.000Z</time>
      </trkpt>
      <trkpt lat="44.40085" lon="6.39664">
        <ele>2109</ele>
        <time>2020-07-07T09:58:20.000Z</time>
      </trkpt>
      <trkpt lat="44.40085" lon="6.39665">
        <ele>2108</ele>
        <time>2020-07-07T09:58:21.000Z</time>
      </trkpt>
      <trkpt lat="44.40084" lon="6.39665">
        <ele>2108</ele>
        <time>2020-07-07T09:58:22.000Z</time>
      </trkpt>
      <trkpt lat="44.40084" lon="6.39665">
        <ele>2108</ele>
        <time>2020-07-07T09:58:23.000Z</time>
      </trkpt>
      <trkpt lat="44.40084" lon="6.39665">
        <ele>2108</ele>
        <time>2020-07-07T09:58:24.000Z</time>
      </trkpt>
      <trkpt lat="44.40084" lon="6.39665">
        <ele>2108</ele>
        <time>2020-07-07T09:58:25.000Z</time>
      </trkpt>
      <trkpt lat="44.40084" lon="6.39665">
        <ele>2108</ele>
        <time>2020-07-07T09:58:26.000Z</time>
      </trkpt>
      <trkpt lat="44.40084" lon="6.39665">
        <ele>2108</ele>
        <time>2020-07-07T09:58:27.000Z</time>
      </trkpt>
      <trkpt lat="44.40084" lon="6.39665">
        <ele>2108</ele>
        <time>2020-07-07T09:58:28.000Z</time>
      </trkpt>
      <trkpt lat="44.40084" lon="6.39665">
        <ele>2108</ele>
        <time>2020-07-07T09:58:29.000Z</time>
      </trkpt>
      <trkpt lat="44.40084" lon="6.39665">
        <ele>2108</ele>
        <time>2020-07-07T09:58:30.000Z</time>
      </trkpt>
      <trkpt lat="44.40084" lon="6.39664">
        <ele>2108</ele>
        <time>2020-07-07T09:58:31.000Z</time>
      </trkpt>
      <trkpt lat="44.40084" lon="6.39664">
        <ele>2108</ele>
        <time>2020-07-07T09:58:32.000Z</time>
      </trkpt>
      <trkpt lat="44.40084" lon="6.39664">
        <ele>2108</ele>
        <time>2020-07-07T09:58:33.000Z</time>
      </trkpt>
      <trkpt lat="44.40084" lon="6.39664">
        <ele>2108</ele>
        <time>2020-07-07T09:58:34.000Z</time>
      </trkpt>
      <trkpt lat="44.40084" lon="6.39664">
        <ele>2107</ele>
        <time>2020-07-07T09:58:35.000Z</time>
      </trkpt>
      <trkpt lat="44.40084" lon="6.39664">
        <ele>2107</ele>
        <time>2020-07-07T09:58:36.000Z</time>
      </trkpt>
      <trkpt lat="44.40084" lon="6.39664">
        <ele>2107</ele>
        <time>2020-07-07T09:58:37.000Z</time>
      </trkpt>
      <trkpt lat="44.40084" lon="6.39664">
        <ele>2107</ele>
        <time>2020-07-07T09:58:38.000Z</time>
      </trkpt>
      <trkpt lat="44.40084" lon="6.39664">
        <ele>2107</ele>
        <time>2020-07-07T09:58:39.000Z</time>
      </trkpt>
      <trkpt lat="44.40084" lon="6.39664">
        <ele>2107</ele>
        <time>2020-07-07T09:58:40.000Z</time>
      </trkpt>
      <trkpt lat="44.40084" lon="6.39664">
        <ele>2107</ele>
        <time>2020-07-07T09:58:41.000Z</time>
      </trkpt>
      <trkpt lat="44.40084" lon="6.39664">
        <ele>2107</ele>
        <time>2020-07-07T09:58:42.000Z</time>
      </trkpt>
      <trkpt lat="44.40084" lon="6.39664">
        <ele>2107</ele>
        <time>2020-07-07T09:58:43.000Z</time>
      </trkpt>
      <trkpt lat="44.40084" lon="6.39664">
        <ele>2107</ele>
        <time>2020-07-07T09:58:44.000Z</time>
      </trkpt>
      <trkpt lat="44.40084" lon="6.39664">
        <ele>2107</ele>
        <time>2020-07-07T09:58:45.000Z</time>
      </trkpt>
      <trkpt lat="44.40084" lon="6.39664">
        <ele>2107</ele>
        <time>2020-07-07T09:58:46.000Z</time>
      </trkpt>
      <trkpt lat="44.40084" lon="6.39664">
        <ele>2107</ele>
        <time>2020-07-07T09:58:47.000Z</time>
      </trkpt>
      <trkpt lat="44.40084" lon="6.39664">
        <ele>2107</ele>
        <time>2020-07-07T09:58:48.000Z</time>
      </trkpt>
      <trkpt lat="44.40084" lon="6.39664">
        <ele>2107</ele>
        <time>2020-07-07T09:58:49.000Z</time>
      </trkpt>
      <trkpt lat="44.40084" lon="6.39664">
        <ele>2107</ele>
        <time>2020-07-07T09:58:50.000Z</time>
      </trkpt>
      <trkpt lat="44.40084" lon="6.39664">
        <ele>2107</ele>
        <time>2020-07-07T09:58:51.000Z</time>
      </trkpt>
      <trkpt lat="44.40084" lon="6.39664">
        <ele>2107</ele>
        <time>2020-07-07T09:58:52.000Z</time>
      </trkpt>
      <trkpt lat="44.40084" lon="6.39664">
        <ele>2107</ele>
        <time>2020-07-07T09:58:53.000Z</time>
      </trkpt>
      <trkpt lat="44.40084" lon="6.39664">
        <ele>2107</ele>
        <time>2020-07-07T09:58:54.000Z</time>
      </trkpt>
      <trkpt lat="44.40084" lon="6.39664">
        <ele>2107</ele>
        <time>2020-07-07T09:58:55.000Z</time>
      </trkpt>
      <trkpt lat="44.40084" lon="6.39664">
        <ele>2107</ele>
        <time>2020-07-07T09:58:56.000Z</time>
      </trkpt>
      <trkpt lat="44.40084" lon="6.39664">
        <ele>2107</ele>
        <time>2020-07-07T09:58:57.000Z</time>
      </trkpt>
      <trkpt lat="44.40084" lon="6.39664">
        <ele>2107</ele>
        <time>2020-07-07T09:58:58.000Z</time>
      </trkpt>
      <trkpt lat="44.40084" lon="6.39664">
        <ele>2107</ele>
        <time>2020-07-07T09:58:59.000Z</time>
      </trkpt>
      <trkpt lat="44.40084" lon="6.39664">
        <ele>2107</ele>
        <time>2020-07-07T09:59:00.000Z</time>
      </trkpt>
      <trkpt lat="44.40084" lon="6.39664">
        <ele>2107</ele>
        <time>2020-07-07T09:59:01.000Z</time>
      </trkpt>
      <trkpt lat="44.40084" lon="6.39664">
        <ele>2107</ele>
        <time>2020-07-07T09:59:02.000Z</time>
      </trkpt>
      <trkpt lat="44.40084" lon="6.39664">
        <ele>2107</ele>
        <time>2020-07-07T09:59:03.000Z</time>
      </trkpt>
      <trkpt lat="44.40084" lon="6.39664">
        <ele>2107</ele>
        <time>2020-07-07T09:59:04.000Z</time>
      </trkpt>
      <trkpt lat="44.40084" lon="6.39664">
        <ele>2107</ele>
        <time>2020-07-07T09:59:05.000Z</time>
      </trkpt>
      <trkpt lat="44.40084" lon="6.39664">
        <ele>2107</ele>
        <time>2020-07-07T09:59:06.000Z</time>
      </trkpt>
      <trkpt lat="44.40084" lon="6.39664">
        <ele>2107</ele>
        <time>2020-07-07T09:59:07.000Z</time>
      </trkpt>
      <trkpt lat="44.40084" lon="6.39664">
        <ele>2107</ele>
        <time>2020-07-07T09:59:08.000Z</time>
      </trkpt>
      <trkpt lat="44.40084" lon="6.39664">
        <ele>2107</ele>
        <time>2020-07-07T09:59:09.000Z</time>
      </trkpt>
      <trkpt lat="44.40084" lon="6.39663">
        <ele>2107</ele>
        <time>2020-07-07T09:59:10.000Z</time>
      </trkpt>
      <trkpt lat="44.40084" lon="6.39663">
        <ele>2107</ele>
        <time>2020-07-07T09:59:11.000Z</time>
      </trkpt>
      <trkpt lat="44.40084" lon="6.39663">
        <ele>2107</ele>
        <time>2020-07-07T09:59:12.000Z</time>
      </trkpt>
      <trkpt lat="44.40084" lon="6.39663">
        <ele>2107</ele>
        <time>2020-07-07T09:59:13.000Z</time>
      </trkpt>
      <trkpt lat="44.40084" lon="6.39664">
        <ele>2107</ele>
        <time>2020-07-07T09:59:14.000Z</time>
      </trkpt>
      <trkpt lat="44.40084" lon="6.39663">
        <ele>2107</ele>
        <time>2020-07-07T09:59:15.000Z</time>
      </trkpt>
      <trkpt lat="44.40084" lon="6.39663">
        <ele>2107</ele>
        <time>2020-07-07T09:59:16.000Z</time>
      </trkpt>
      <trkpt lat="44.40084" lon="6.39663">
        <ele>2107</ele>
        <time>2020-07-07T09:59:17.000Z</time>
      </trkpt>
      <trkpt lat="44.40084" lon="6.39663">
        <ele>2107</ele>
        <time>2020-07-07T09:59:18.000Z</time>
      </trkpt>
      <trkpt lat="44.40084" lon="6.39663">
        <ele>2107</ele>
        <time>2020-07-07T09:59:19.000Z</time>
      </trkpt>
      <trkpt lat="44.40084" lon="6.39663">
        <ele>2107</ele>
        <time>2020-07-07T09:59:20.000Z</time>
      </trkpt>
      <trkpt lat="44.40084" lon="6.39664">
        <ele>2107</ele>
        <time>2020-07-07T09:59:21.000Z</time>
      </trkpt>
      <trkpt lat="44.40084" lon="6.39664">
        <ele>2107</ele>
        <time>2020-07-07T09:59:22.000Z</time>
      </trkpt>
      <trkpt lat="44.40084" lon="6.39664">
        <ele>2107</ele>
        <time>2020-07-07T09:59:23.000Z</time>
      </trkpt>
      <trkpt lat="44.40084" lon="6.39664">
        <ele>2107</ele>
        <time>2020-07-07T09:59:24.000Z</time>
      </trkpt>
      <trkpt lat="44.40084" lon="6.39664">
        <ele>2107</ele>
        <time>2020-07-07T09:59:25.000Z</time>
      </trkpt>
      <trkpt lat="44.40084" lon="6.39664">
        <ele>2107</ele>
        <time>2020-07-07T09:59:26.000Z</time>
      </trkpt>
      <trkpt lat="44.40084" lon="6.39664">
        <ele>2107</ele>
        <time>2020-07-07T09:59:27.000Z</time>
      </trkpt>
      <trkpt lat="44.40084" lon="6.39664">
        <ele>2107</ele>
        <time>2020-07-07T09:59:28.000Z</time>
      </trkpt>
      <trkpt lat="44.40084" lon="6.39664">
        <ele>2107</ele>
        <time>2020-07-07T09:59:29.000Z</time>
      </trkpt>
      <trkpt lat="44.40084" lon="6.39664">
        <ele>2107</ele>
        <time>2020-07-07T09:59:30.000Z</time>
      </trkpt>
      <trkpt lat="44.40084" lon="6.39664">
        <ele>2107</ele>
        <time>2020-07-07T09:59:31.000Z</time>
      </trkpt>
      <trkpt lat="44.40084" lon="6.39664">
        <ele>2107</ele>
        <time>2020-07-07T09:59:32.000Z</time>
      </trkpt>
      <trkpt lat="44.40084" lon="6.39664">
        <ele>2107</ele>
        <time>2020-07-07T09:59:33.000Z</time>
      </trkpt>
      <trkpt lat="44.40084" lon="6.39664">
        <ele>2107</ele>
        <time>2020-07-07T09:59:34.000Z</time>
      </trkpt>
      <trkpt lat="44.40084" lon="6.39664">
        <ele>2107</ele>
        <time>2020-07-07T09:59:35.000Z</time>
      </trkpt>
      <trkpt lat="44.40084" lon="6.39663">
        <ele>2107</ele>
        <time>2020-07-07T09:59:36.000Z</time>
      </trkpt>
      <trkpt lat="44.40084" lon="6.39663">
        <ele>2107</ele>
        <time>2020-07-07T09:59:37.000Z</time>
      </trkpt>
      <trkpt lat="44.40084" lon="6.39663">
        <ele>2107</ele>
        <time>2020-07-07T09:59:38.000Z</time>
      </trkpt>
      <trkpt lat="44.40084" lon="6.39663">
        <ele>2107</ele>
        <time>2020-07-07T09:59:39.000Z</time>
      </trkpt>
      <trkpt lat="44.40084" lon="6.39663">
        <ele>2107</ele>
        <time>2020-07-07T09:59:40.000Z</time>
      </trkpt>
      <trkpt lat="44.40084" lon="6.39663">
        <ele>2107</ele>
        <time>2020-07-07T09:59:41.000Z</time>
      </trkpt>
      <trkpt lat="44.40084" lon="6.39663">
        <ele>2107</ele>
        <time>2020-07-07T09:59:42.000Z</time>
      </trkpt>
      <trkpt lat="44.40084" lon="6.39663">
        <ele>2107</ele>
        <time>2020-07-07T09:59:43.000Z</time>
      </trkpt>
      <trkpt lat="44.40084" lon="6.39664">
        <ele>2106</ele>
        <time>2020-07-07T09:59:44.000Z</time>
      </trkpt>
      <trkpt lat="44.40084" lon="6.39664">
        <ele>2106</ele>
        <time>2020-07-07T09:59:45.000Z</time>
      </trkpt>
      <trkpt lat="44.40084" lon="6.39663">
        <ele>2107</ele>
        <time>2020-07-07T09:59:46.000Z</time>
      </trkpt>
      <trkpt lat="44.40084" lon="6.39663">
        <ele>2107</ele>
        <time>2020-07-07T09:59:47.000Z</time>
      </trkpt>
      <trkpt lat="44.40085" lon="6.39663">
        <ele>2107</ele>
        <time>2020-07-07T09:59:48.000Z</time>
      </trkpt>
      <trkpt lat="44.40086" lon="6.39663">
        <ele>2107</ele>
        <time>2020-07-07T09:59:49.000Z</time>
      </trkpt>
      <trkpt lat="44.40086" lon="6.39663">
        <ele>2107</ele>
        <time>2020-07-07T09:59:50.000Z</time>
      </trkpt>
      <trkpt lat="44.40085" lon="6.39664">
        <ele>2107</ele>
        <time>2020-07-07T09:59:51.000Z</time>
      </trkpt>
      <trkpt lat="44.40086" lon="6.39664">
        <ele>2107</ele>
        <time>2020-07-07T09:59:52.000Z</time>
      </trkpt>
      <trkpt lat="44.40086" lon="6.39664">
        <ele>2106</ele>
        <time>2020-07-07T09:59:53.000Z</time>
      </trkpt>
      <trkpt lat="44.40086" lon="6.39664">
        <ele>2106</ele>
        <time>2020-07-07T09:59:54.000Z</time>
      </trkpt>
      <trkpt lat="44.40086" lon="6.39664">
        <ele>2106</ele>
        <time>2020-07-07T09:59:55.000Z</time>
      </trkpt>
      <trkpt lat="44.40086" lon="6.39664">
        <ele>2106</ele>
        <time>2020-07-07T09:59:56.000Z</time>
      </trkpt>
      <trkpt lat="44.40086" lon="6.39664">
        <ele>2106</ele>
        <time>2020-07-07T09:59:57.000Z</time>
      </trkpt>
      <trkpt lat="44.40086" lon="6.39664">
        <ele>2106</ele>
        <time>2020-07-07T09:59:58.000Z</time>
      </trkpt>
      <trkpt lat="44.40086" lon="6.39664">
        <ele>2106</ele>
        <time>2020-07-07T09:59:59.000Z</time>
      </trkpt>
      <trkpt lat="44.40086" lon="6.39664">
        <ele>2106</ele>
        <time>2020-07-07T10:00:00.000Z</time>
      </trkpt>
      <trkpt lat="44.40085" lon="6.39664">
        <ele>2106</ele>
        <time>2020-07-07T10:00:01.000Z</time>
      </trkpt>
      <trkpt lat="44.40085" lon="6.39664">
        <ele>2106</ele>
        <time>2020-07-07T10:00:02.000Z</time>
      </trkpt>
      <trkpt lat="44.40085" lon="6.39664">
        <ele>2106</ele>
        <time>2020-07-07T10:00:03.000Z</time>
      </trkpt>
      <trkpt lat="44.40085" lon="6.39664">
        <ele>2106</ele>
        <time>2020-07-07T10:00:04.000Z</time>
      </trkpt>
      <trkpt lat="44.40085" lon="6.39664">
        <ele>2106</ele>
        <time>2020-07-07T10:00:05.000Z</time>
      </trkpt>
      <trkpt lat="44.40085" lon="6.39664">
        <ele>2106</ele>
        <time>2020-07-07T10:00:06.000Z</time>
      </trkpt>
      <trkpt lat="44.40085" lon="6.39664">
        <ele>2106</ele>
        <time>2020-07-07T10:00:07.000Z</time>
      </trkpt>
      <trkpt lat="44.40085" lon="6.39664">
        <ele>2106</ele>
        <time>2020-07-07T10:00:08.000Z</time>
      </trkpt>
      <trkpt lat="44.40085" lon="6.39664">
        <ele>2106</ele>
        <time>2020-07-07T10:00:09.000Z</time>
      </trkpt>
      <trkpt lat="44.40085" lon="6.39664">
        <ele>2106</ele>
        <time>2020-07-07T10:00:10.000Z</time>
      </trkpt>
      <trkpt lat="44.40085" lon="6.39664">
        <ele>2106</ele>
        <time>2020-07-07T10:00:11.000Z</time>
      </trkpt>
      <trkpt lat="44.40085" lon="6.39664">
        <ele>2106</ele>
        <time>2020-07-07T10:00:12.000Z</time>
      </trkpt>
      <trkpt lat="44.40085" lon="6.39664">
        <ele>2106</ele>
        <time>2020-07-07T10:00:13.000Z</time>
      </trkpt>
      <trkpt lat="44.40085" lon="6.39665">
        <ele>2106</ele>
        <time>2020-07-07T10:00:14.000Z</time>
      </trkpt>
      <trkpt lat="44.40085" lon="6.39664">
        <ele>2106</ele>
        <time>2020-07-07T10:00:15.000Z</time>
      </trkpt>
      <trkpt lat="44.40085" lon="6.39665">
        <ele>2106</ele>
        <time>2020-07-07T10:00:16.000Z</time>
      </trkpt>
      <trkpt lat="44.40084" lon="6.39665">
        <ele>2106</ele>
        <time>2020-07-07T10:00:17.000Z</time>
      </trkpt>
      <trkpt lat="44.40084" lon="6.39665">
        <ele>2106</ele>
        <time>2020-07-07T10:00:18.000Z</time>
      </trkpt>
      <trkpt lat="44.40084" lon="6.39665">
        <ele>2106</ele>
        <time>2020-07-07T10:00:19.000Z</time>
      </trkpt>
      <trkpt lat="44.40084" lon="6.39665">
        <ele>2106</ele>
        <time>2020-07-07T10:00:20.000Z</time>
      </trkpt>
      <trkpt lat="44.40084" lon="6.39665">
        <ele>2106</ele>
        <time>2020-07-07T10:00:21.000Z</time>
      </trkpt>
      <trkpt lat="44.40084" lon="6.39665">
        <ele>2106</ele>
        <time>2020-07-07T10:00:22.000Z</time>
      </trkpt>
      <trkpt lat="44.40084" lon="6.39666">
        <ele>2106</ele>
        <time>2020-07-07T10:00:23.000Z</time>
      </trkpt>
      <trkpt lat="44.40084" lon="6.39666">
        <ele>2106</ele>
        <time>2020-07-07T10:00:24.000Z</time>
      </trkpt>
      <trkpt lat="44.40085" lon="6.39667">
        <ele>2106</ele>
        <time>2020-07-07T10:00:25.000Z</time>
      </trkpt>
      <trkpt lat="44.40085" lon="6.39668">
        <ele>2106</ele>
        <time>2020-07-07T10:00:26.000Z</time>
      </trkpt>
      <trkpt lat="44.40084" lon="6.39669">
        <ele>2106</ele>
        <time>2020-07-07T10:00:27.000Z</time>
      </trkpt>
      <trkpt lat="44.40084" lon="6.3967">
        <ele>2106</ele>
        <time>2020-07-07T10:00:28.000Z</time>
      </trkpt>
      <trkpt lat="44.40084" lon="6.39671">
        <ele>2106</ele>
        <time>2020-07-07T10:00:29.000Z</time>
      </trkpt>
      <trkpt lat="44.40084" lon="6.39672">
        <ele>2106</ele>
        <time>2020-07-07T10:00:30.000Z</time>
      </trkpt>
      <trkpt lat="44.40084" lon="6.39673">
        <ele>2106</ele>
        <time>2020-07-07T10:00:31.000Z</time>
      </trkpt>
      <trkpt lat="44.40084" lon="6.39674">
        <ele>2106</ele>
        <time>2020-07-07T10:00:32.000Z</time>
      </trkpt>
      <trkpt lat="44.40084" lon="6.39676">
        <ele>2106</ele>
        <time>2020-07-07T10:00:33.000Z</time>
      </trkpt>
      <trkpt lat="44.40084" lon="6.39676">
        <ele>2106</ele>
        <time>2020-07-07T10:00:34.000Z</time>
      </trkpt>
      <trkpt lat="44.40085" lon="6.39677">
        <ele>2106</ele>
        <time>2020-07-07T10:00:35.000Z</time>
      </trkpt>
      <trkpt lat="44.40085" lon="6.39678">
        <ele>2106</ele>
        <time>2020-07-07T10:00:36.000Z</time>
      </trkpt>
      <trkpt lat="44.40085" lon="6.39679">
        <ele>2106</ele>
        <time>2020-07-07T10:00:37.000Z</time>
      </trkpt>
      <trkpt lat="44.40085" lon="6.3968">
        <ele>2106</ele>
        <time>2020-07-07T10:00:38.000Z</time>
      </trkpt>
      <trkpt lat="44.40085" lon="6.39682">
        <ele>2106</ele>
        <time>2020-07-07T10:00:39.000Z</time>
      </trkpt>
      <trkpt lat="44.40086" lon="6.39683">
        <ele>2106</ele>
        <time>2020-07-07T10:00:40.000Z</time>
      </trkpt>
      <trkpt lat="44.40086" lon="6.39684">
        <ele>2106</ele>
        <time>2020-07-07T10:00:41.000Z</time>
      </trkpt>
      <trkpt lat="44.40086" lon="6.39685">
        <ele>2106</ele>
        <time>2020-07-07T10:00:42.000Z</time>
      </trkpt>
      <trkpt lat="44.40086" lon="6.39686">
        <ele>2106</ele>
        <time>2020-07-07T10:00:43.000Z</time>
      </trkpt>
      <trkpt lat="44.40086" lon="6.39687">
        <ele>2106</ele>
        <time>2020-07-07T10:00:44.000Z</time>
      </trkpt>
      <trkpt lat="44.40085" lon="6.39687">
        <ele>2106</ele>
        <time>2020-07-07T10:00:45.000Z</time>
      </trkpt>
      <trkpt lat="44.40085" lon="6.39688">
        <ele>2106</ele>
        <time>2020-07-07T10:00:46.000Z</time>
      </trkpt>
      <trkpt lat="44.40086" lon="6.39688">
        <ele>2106</ele>
        <time>2020-07-07T10:00:47.000Z</time>
      </trkpt>
      <trkpt lat="44.40086" lon="6.39689">
        <ele>2106</ele>
        <time>2020-07-07T10:00:48.000Z</time>
      </trkpt>
      <trkpt lat="44.40086" lon="6.3969">
        <ele>2106</ele>
        <time>2020-07-07T10:00:49.000Z</time>
      </trkpt>
      <trkpt lat="44.40085" lon="6.39691">
        <ele>2106</ele>
        <time>2020-07-07T10:00:50.000Z</time>
      </trkpt>
      <trkpt lat="44.40085" lon="6.39693">
        <ele>2106</ele>
        <time>2020-07-07T10:00:51.000Z</time>
      </trkpt>
      <trkpt lat="44.40085" lon="6.39694">
        <ele>2106</ele>
        <time>2020-07-07T10:00:52.000Z</time>
      </trkpt>
      <trkpt lat="44.40085" lon="6.39695">
        <ele>2106</ele>
        <time>2020-07-07T10:00:53.000Z</time>
      </trkpt>
      <trkpt lat="44.40085" lon="6.39696">
        <ele>2105</ele>
        <time>2020-07-07T10:00:54.000Z</time>
      </trkpt>
      <trkpt lat="44.40085" lon="6.39697">
        <ele>2105</ele>
        <time>2020-07-07T10:00:55.000Z</time>
      </trkpt>
      <trkpt lat="44.40084" lon="6.39699">
        <ele>2105</ele>
        <time>2020-07-07T10:00:56.000Z</time>
      </trkpt>
      <trkpt lat="44.40083" lon="6.397">
        <ele>2105</ele>
        <time>2020-07-07T10:00:57.000Z</time>
      </trkpt>
      <trkpt lat="44.40083" lon="6.39701">
        <ele>2105</ele>
        <time>2020-07-07T10:00:58.000Z</time>
      </trkpt>
      <trkpt lat="44.40083" lon="6.39701">
        <ele>2105</ele>
        <time>2020-07-07T10:00:59.000Z</time>
      </trkpt>
      <trkpt lat="44.40083" lon="6.39703">
        <ele>2105</ele>
        <time>2020-07-07T10:01:00.000Z</time>
      </trkpt>
      <trkpt lat="44.40082" lon="6.39704">
        <ele>2105</ele>
        <time>2020-07-07T10:01:01.000Z</time>
      </trkpt>
      <trkpt lat="44.40082" lon="6.39705">
        <ele>2105</ele>
        <time>2020-07-07T10:01:02.000Z</time>
      </trkpt>
      <trkpt lat="44.40082" lon="6.39706">
        <ele>2105</ele>
        <time>2020-07-07T10:01:03.000Z</time>
      </trkpt>
      <trkpt lat="44.40082" lon="6.39707">
        <ele>2105</ele>
        <time>2020-07-07T10:01:04.000Z</time>
      </trkpt>
      <trkpt lat="44.40082" lon="6.39709">
        <ele>2105</ele>
        <time>2020-07-07T10:01:05.000Z</time>
      </trkpt>
      <trkpt lat="44.40081" lon="6.3971">
        <ele>2105</ele>
        <time>2020-07-07T10:01:06.000Z</time>
      </trkpt>
      <trkpt lat="44.4008" lon="6.39711">
        <ele>2105</ele>
        <time>2020-07-07T10:01:07.000Z</time>
      </trkpt>
      <trkpt lat="44.4008" lon="6.39713">
        <ele>2105</ele>
        <time>2020-07-07T10:01:08.000Z</time>
      </trkpt>
      <trkpt lat="44.40079" lon="6.39713">
        <ele>2105</ele>
        <time>2020-07-07T10:01:09.000Z</time>
      </trkpt>
      <trkpt lat="44.4008" lon="6.39714">
        <ele>2105</ele>
        <time>2020-07-07T10:01:10.000Z</time>
      </trkpt>
      <trkpt lat="44.40079" lon="6.39715">
        <ele>2105</ele>
        <time>2020-07-07T10:01:11.000Z</time>
      </trkpt>
      <trkpt lat="44.40078" lon="6.39717">
        <ele>2105</ele>
        <time>2020-07-07T10:01:12.000Z</time>
      </trkpt>
      <trkpt lat="44.40078" lon="6.39718">
        <ele>2105</ele>
        <time>2020-07-07T10:01:13.000Z</time>
      </trkpt>
      <trkpt lat="44.40078" lon="6.39719">
        <ele>2105</ele>
        <time>2020-07-07T10:01:14.000Z</time>
      </trkpt>
      <trkpt lat="44.40078" lon="6.3972">
        <ele>2104</ele>
        <time>2020-07-07T10:01:15.000Z</time>
      </trkpt>
      <trkpt lat="44.40078" lon="6.39721">
        <ele>2104</ele>
        <time>2020-07-07T10:01:16.000Z</time>
      </trkpt>
      <trkpt lat="44.40078" lon="6.39722">
        <ele>2104</ele>
        <time>2020-07-07T10:01:17.000Z</time>
      </trkpt>
      <trkpt lat="44.40078" lon="6.39723">
        <ele>2104</ele>
        <time>2020-07-07T10:01:18.000Z</time>
      </trkpt>
      <trkpt lat="44.40078" lon="6.39725">
        <ele>2104</ele>
        <time>2020-07-07T10:01:19.000Z</time>
      </trkpt>
      <trkpt lat="44.40078" lon="6.39725">
        <ele>2104</ele>
        <time>2020-07-07T10:01:20.000Z</time>
      </trkpt>
      <trkpt lat="44.40077" lon="6.39727">
        <ele>2104</ele>
        <time>2020-07-07T10:01:21.000Z</time>
      </trkpt>
      <trkpt lat="44.40077" lon="6.39729">
        <ele>2104</ele>
        <time>2020-07-07T10:01:22.000Z</time>
      </trkpt>
      <trkpt lat="44.40078" lon="6.3973">
        <ele>2104</ele>
        <time>2020-07-07T10:01:23.000Z</time>
      </trkpt>
      <trkpt lat="44.40078" lon="6.39731">
        <ele>2103</ele>
        <time>2020-07-07T10:01:24.000Z</time>
      </trkpt>
      <trkpt lat="44.40078" lon="6.39733">
        <ele>2103</ele>
        <time>2020-07-07T10:01:25.000Z</time>
      </trkpt>
      <trkpt lat="44.40078" lon="6.39734">
        <ele>2103</ele>
        <time>2020-07-07T10:01:26.000Z</time>
      </trkpt>
      <trkpt lat="44.40078" lon="6.39736">
        <ele>2102</ele>
        <time>2020-07-07T10:01:27.000Z</time>
      </trkpt>
      <trkpt lat="44.40078" lon="6.39736">
        <ele>2102</ele>
        <time>2020-07-07T10:01:28.000Z</time>
      </trkpt>
      <trkpt lat="44.40078" lon="6.39737">
        <ele>2102</ele>
        <time>2020-07-07T10:01:29.000Z</time>
      </trkpt>
      <trkpt lat="44.40078" lon="6.39738">
        <ele>2101</ele>
        <time>2020-07-07T10:01:30.000Z</time>
      </trkpt>
      <trkpt lat="44.40078" lon="6.39739">
        <ele>2101</ele>
        <time>2020-07-07T10:01:31.000Z</time>
      </trkpt>
      <trkpt lat="44.40078" lon="6.39741">
        <ele>2101</ele>
        <time>2020-07-07T10:01:32.000Z</time>
      </trkpt>
      <trkpt lat="44.40078" lon="6.39742">
        <ele>2101</ele>
        <time>2020-07-07T10:01:33.000Z</time>
      </trkpt>
      <trkpt lat="44.40077" lon="6.39744">
        <ele>2101</ele>
        <time>2020-07-07T10:01:34.000Z</time>
      </trkpt>
      <trkpt lat="44.40077" lon="6.39745">
        <ele>2100</ele>
        <time>2020-07-07T10:01:35.000Z</time>
      </trkpt>
      <trkpt lat="44.40077" lon="6.39747">
        <ele>2100</ele>
        <time>2020-07-07T10:01:36.000Z</time>
      </trkpt>
      <trkpt lat="44.40077" lon="6.39748">
        <ele>2100</ele>
        <time>2020-07-07T10:01:37.000Z</time>
      </trkpt>
      <trkpt lat="44.40077" lon="6.3975">
        <ele>2100</ele>
        <time>2020-07-07T10:01:38.000Z</time>
      </trkpt>
      <trkpt lat="44.40077" lon="6.39752">
        <ele>2100</ele>
        <time>2020-07-07T10:01:39.000Z</time>
      </trkpt>
      <trkpt lat="44.40077" lon="6.39755">
        <ele>2100</ele>
        <time>2020-07-07T10:01:40.000Z</time>
      </trkpt>
      <trkpt lat="44.40077" lon="6.39759">
        <ele>2100</ele>
        <time>2020-07-07T10:01:41.000Z</time>
      </trkpt>
      <trkpt lat="44.40077" lon="6.39762">
        <ele>2099</ele>
        <time>2020-07-07T10:01:42.000Z</time>
      </trkpt>
      <trkpt lat="44.40077" lon="6.39764">
        <ele>2099</ele>
        <time>2020-07-07T10:01:43.000Z</time>
      </trkpt>
      <trkpt lat="44.40077" lon="6.39766">
        <ele>2099</ele>
        <time>2020-07-07T10:01:44.000Z</time>
      </trkpt>
      <trkpt lat="44.40077" lon="6.39767">
        <ele>2099</ele>
        <time>2020-07-07T10:01:45.000Z</time>
      </trkpt>
      <trkpt lat="44.40077" lon="6.39769">
        <ele>2099</ele>
        <time>2020-07-07T10:01:46.000Z</time>
      </trkpt>
      <trkpt lat="44.40077" lon="6.3977">
        <ele>2099</ele>
        <time>2020-07-07T10:01:47.000Z</time>
      </trkpt>
      <trkpt lat="44.40077" lon="6.39771">
        <ele>2098</ele>
        <time>2020-07-07T10:01:48.000Z</time>
      </trkpt>
      <trkpt lat="44.40076" lon="6.39773">
        <ele>2098</ele>
        <time>2020-07-07T10:01:49.000Z</time>
      </trkpt>
      <trkpt lat="44.40076" lon="6.39774">
        <ele>2098</ele>
        <time>2020-07-07T10:01:50.000Z</time>
      </trkpt>
      <trkpt lat="44.40076" lon="6.39774">
        <ele>2098</ele>
        <time>2020-07-07T10:01:51.000Z</time>
      </trkpt>
      <trkpt lat="44.40077" lon="6.39774">
        <ele>2098</ele>
        <time>2020-07-07T10:01:52.000Z</time>
      </trkpt>
      <trkpt lat="44.40076" lon="6.39775">
        <ele>2097</ele>
        <time>2020-07-07T10:01:53.000Z</time>
      </trkpt>
      <trkpt lat="44.40076" lon="6.39777">
        <ele>2097</ele>
        <time>2020-07-07T10:01:54.000Z</time>
      </trkpt>
      <trkpt lat="44.40076" lon="6.39778">
        <ele>2097</ele>
        <time>2020-07-07T10:01:55.000Z</time>
      </trkpt>
      <trkpt lat="44.40077" lon="6.39779">
        <ele>2097</ele>
        <time>2020-07-07T10:01:56.000Z</time>
      </trkpt>
      <trkpt lat="44.40077" lon="6.3978">
        <ele>2097</ele>
        <time>2020-07-07T10:01:57.000Z</time>
      </trkpt>
      <trkpt lat="44.40077" lon="6.39781">
        <ele>2097</ele>
        <time>2020-07-07T10:01:58.000Z</time>
      </trkpt>
      <trkpt lat="44.40076" lon="6.39783">
        <ele>2096</ele>
        <time>2020-07-07T10:01:59.000Z</time>
      </trkpt>
      <trkpt lat="44.40076" lon="6.39784">
        <ele>2096</ele>
        <time>2020-07-07T10:02:00.000Z</time>
      </trkpt>
      <trkpt lat="44.40076" lon="6.39786">
        <ele>2096</ele>
        <time>2020-07-07T10:02:01.000Z</time>
      </trkpt>
      <trkpt lat="44.40076" lon="6.39787">
        <ele>2096</ele>
        <time>2020-07-07T10:02:02.000Z</time>
      </trkpt>
      <trkpt lat="44.40076" lon="6.39788">
        <ele>2096</ele>
        <time>2020-07-07T10:02:03.000Z</time>
      </trkpt>
      <trkpt lat="44.40076" lon="6.3979">
        <ele>2096</ele>
        <time>2020-07-07T10:02:04.000Z</time>
      </trkpt>
      <trkpt lat="44.40075" lon="6.39792">
        <ele>2096</ele>
        <time>2020-07-07T10:02:05.000Z</time>
      </trkpt>
      <trkpt lat="44.40075" lon="6.39793">
        <ele>2096</ele>
        <time>2020-07-07T10:02:06.000Z</time>
      </trkpt>
      <trkpt lat="44.40076" lon="6.39794">
        <ele>2096</ele>
        <time>2020-07-07T10:02:07.000Z</time>
      </trkpt>
      <trkpt lat="44.40076" lon="6.39795">
        <ele>2096</ele>
        <time>2020-07-07T10:02:08.000Z</time>
      </trkpt>
      <trkpt lat="44.40076" lon="6.39796">
        <ele>2096</ele>
        <time>2020-07-07T10:02:09.000Z</time>
      </trkpt>
      <trkpt lat="44.40076" lon="6.39797">
        <ele>2096</ele>
        <time>2020-07-07T10:02:10.000Z</time>
      </trkpt>
      <trkpt lat="44.40075" lon="6.39799">
        <ele>2096</ele>
        <time>2020-07-07T10:02:11.000Z</time>
      </trkpt>
      <trkpt lat="44.40075" lon="6.39801">
        <ele>2095</ele>
        <time>2020-07-07T10:02:12.000Z</time>
      </trkpt>
      <trkpt lat="44.40075" lon="6.39802">
        <ele>2095</ele>
        <time>2020-07-07T10:02:13.000Z</time>
      </trkpt>
      <trkpt lat="44.40074" lon="6.39804">
        <ele>2095</ele>
        <time>2020-07-07T10:02:14.000Z</time>
      </trkpt>
      <trkpt lat="44.40073" lon="6.39806">
        <ele>2095</ele>
        <time>2020-07-07T10:02:15.000Z</time>
      </trkpt>
      <trkpt lat="44.40072" lon="6.39809">
        <ele>2095</ele>
        <time>2020-07-07T10:02:16.000Z</time>
      </trkpt>
      <trkpt lat="44.40072" lon="6.39811">
        <ele>2095</ele>
        <time>2020-07-07T10:02:17.000Z</time>
      </trkpt>
      <trkpt lat="44.40071" lon="6.39812">
        <ele>2095</ele>
        <time>2020-07-07T10:02:18.000Z</time>
      </trkpt>
      <trkpt lat="44.40071" lon="6.39813">
        <ele>2094</ele>
        <time>2020-07-07T10:02:19.000Z</time>
      </trkpt>
      <trkpt lat="44.40071" lon="6.39815">
        <ele>2094</ele>
        <time>2020-07-07T10:02:20.000Z</time>
      </trkpt>
      <trkpt lat="44.4007" lon="6.39817">
        <ele>2094</ele>
        <time>2020-07-07T10:02:21.000Z</time>
      </trkpt>
      <trkpt lat="44.4007" lon="6.39818">
        <ele>2094</ele>
        <time>2020-07-07T10:02:22.000Z</time>
      </trkpt>
      <trkpt lat="44.4007" lon="6.39819">
        <ele>2094</ele>
        <time>2020-07-07T10:02:23.000Z</time>
      </trkpt>
      <trkpt lat="44.40069" lon="6.3982">
        <ele>2094</ele>
        <time>2020-07-07T10:02:24.000Z</time>
      </trkpt>
      <trkpt lat="44.40069" lon="6.39821">
        <ele>2094</ele>
        <time>2020-07-07T10:02:25.000Z</time>
      </trkpt>
      <trkpt lat="44.40068" lon="6.39823">
        <ele>2094</ele>
        <time>2020-07-07T10:02:26.000Z</time>
      </trkpt>
      <trkpt lat="44.40067" lon="6.39825">
        <ele>2094</ele>
        <time>2020-07-07T10:02:27.000Z</time>
      </trkpt>
      <trkpt lat="44.40067" lon="6.39826">
        <ele>2094</ele>
        <time>2020-07-07T10:02:28.000Z</time>
      </trkpt>
      <trkpt lat="44.40067" lon="6.39827">
        <ele>2094</ele>
        <time>2020-07-07T10:02:29.000Z</time>
      </trkpt>
      <trkpt lat="44.40067" lon="6.39828">
        <ele>2094</ele>
        <time>2020-07-07T10:02:30.000Z</time>
      </trkpt>
      <trkpt lat="44.40067" lon="6.3983">
        <ele>2094</ele>
        <time>2020-07-07T10:02:31.000Z</time>
      </trkpt>
      <trkpt lat="44.40067" lon="6.39831">
        <ele>2094</ele>
        <time>2020-07-07T10:02:32.000Z</time>
      </trkpt>
      <trkpt lat="44.40067" lon="6.39833">
        <ele>2094</ele>
        <time>2020-07-07T10:02:33.000Z</time>
      </trkpt>
      <trkpt lat="44.40067" lon="6.39834">
        <ele>2094</ele>
        <time>2020-07-07T10:02:34.000Z</time>
      </trkpt>
      <trkpt lat="44.40067" lon="6.39835">
        <ele>2094</ele>
        <time>2020-07-07T10:02:35.000Z</time>
      </trkpt>
      <trkpt lat="44.40067" lon="6.39835">
        <ele>2094</ele>
        <time>2020-07-07T10:02:36.000Z</time>
      </trkpt>
      <trkpt lat="44.40067" lon="6.39836">
        <ele>2094</ele>
        <time>2020-07-07T10:02:37.000Z</time>
      </trkpt>
      <trkpt lat="44.40066" lon="6.39837">
        <ele>2093</ele>
        <time>2020-07-07T10:02:38.000Z</time>
      </trkpt>
      <trkpt lat="44.40066" lon="6.39838">
        <ele>2093</ele>
        <time>2020-07-07T10:02:39.000Z</time>
      </trkpt>
      <trkpt lat="44.40066" lon="6.39839">
        <ele>2093</ele>
        <time>2020-07-07T10:02:40.000Z</time>
      </trkpt>
      <trkpt lat="44.40067" lon="6.39839">
        <ele>2093</ele>
        <time>2020-07-07T10:02:41.000Z</time>
      </trkpt>
      <trkpt lat="44.40067" lon="6.3984">
        <ele>2093</ele>
        <time>2020-07-07T10:02:42.000Z</time>
      </trkpt>
      <trkpt lat="44.40067" lon="6.3984">
        <ele>2093</ele>
        <time>2020-07-07T10:02:43.000Z</time>
      </trkpt>
      <trkpt lat="44.40067" lon="6.39841">
        <ele>2092</ele>
        <time>2020-07-07T10:02:44.000Z</time>
      </trkpt>
      <trkpt lat="44.40068" lon="6.39841">
        <ele>2092</ele>
        <time>2020-07-07T10:02:45.000Z</time>
      </trkpt>
      <trkpt lat="44.40068" lon="6.39841">
        <ele>2092</ele>
        <time>2020-07-07T10:02:46.000Z</time>
      </trkpt>
      <trkpt lat="44.40068" lon="6.39841">
        <ele>2092</ele>
        <time>2020-07-07T10:02:47.000Z</time>
      </trkpt>
      <trkpt lat="44.40067" lon="6.39841">
        <ele>2092</ele>
        <time>2020-07-07T10:02:48.000Z</time>
      </trkpt>
      <trkpt lat="44.40066" lon="6.39843">
        <ele>2091</ele>
        <time>2020-07-07T10:02:49.000Z</time>
      </trkpt>
      <trkpt lat="44.40066" lon="6.39844">
        <ele>2091</ele>
        <time>2020-07-07T10:02:50.000Z</time>
      </trkpt>
      <trkpt lat="44.40066" lon="6.39845">
        <ele>2091</ele>
        <time>2020-07-07T10:02:51.000Z</time>
      </trkpt>
      <trkpt lat="44.40066" lon="6.39845">
        <ele>2091</ele>
        <time>2020-07-07T10:02:52.000Z</time>
      </trkpt>
      <trkpt lat="44.40067" lon="6.39846">
        <ele>2090</ele>
        <time>2020-07-07T10:02:53.000Z</time>
      </trkpt>
      <trkpt lat="44.40066" lon="6.39847">
        <ele>2090</ele>
        <time>2020-07-07T10:02:54.000Z</time>
      </trkpt>
      <trkpt lat="44.40067" lon="6.39848">
        <ele>2090</ele>
        <time>2020-07-07T10:02:55.000Z</time>
      </trkpt>
      <trkpt lat="44.40067" lon="6.39849">
        <ele>2090</ele>
        <time>2020-07-07T10:02:56.000Z</time>
      </trkpt>
      <trkpt lat="44.40066" lon="6.3985">
        <ele>2090</ele>
        <time>2020-07-07T10:02:57.000Z</time>
      </trkpt>
      <trkpt lat="44.40066" lon="6.39852">
        <ele>2089</ele>
        <time>2020-07-07T10:02:58.000Z</time>
      </trkpt>
      <trkpt lat="44.40066" lon="6.39853">
        <ele>2089</ele>
        <time>2020-07-07T10:02:59.000Z</time>
      </trkpt>
      <trkpt lat="44.40066" lon="6.39854">
        <ele>2089</ele>
        <time>2020-07-07T10:03:00.000Z</time>
      </trkpt>
      <trkpt lat="44.40066" lon="6.39856">
        <ele>2089</ele>
        <time>2020-07-07T10:03:01.000Z</time>
      </trkpt>
      <trkpt lat="44.40066" lon="6.39857">
        <ele>2089</ele>
        <time>2020-07-07T10:03:02.000Z</time>
      </trkpt>
      <trkpt lat="44.40066" lon="6.39858">
        <ele>2088</ele>
        <time>2020-07-07T10:03:03.000Z</time>
      </trkpt>
      <trkpt lat="44.40066" lon="6.3986">
        <ele>2088</ele>
        <time>2020-07-07T10:03:04.000Z</time>
      </trkpt>
      <trkpt lat="44.40066" lon="6.3986">
        <ele>2088</ele>
        <time>2020-07-07T10:03:05.000Z</time>
      </trkpt>
      <trkpt lat="44.40066" lon="6.3986">
        <ele>2088</ele>
        <time>2020-07-07T10:03:06.000Z</time>
      </trkpt>
      <trkpt lat="44.40066" lon="6.3986">
        <ele>2088</ele>
        <time>2020-07-07T10:03:07.000Z</time>
      </trkpt>
      <trkpt lat="44.40066" lon="6.3986">
        <ele>2088</ele>
        <time>2020-07-07T10:03:08.000Z</time>
      </trkpt>
      <trkpt lat="44.40066" lon="6.39861">
        <ele>2088</ele>
        <time>2020-07-07T10:03:09.000Z</time>
      </trkpt>
      <trkpt lat="44.40066" lon="6.39861">
        <ele>2087</ele>
        <time>2020-07-07T10:03:10.000Z</time>
      </trkpt>
      <trkpt lat="44.40066" lon="6.39861">
        <ele>2087</ele>
        <time>2020-07-07T10:03:11.000Z</time>
      </trkpt>
      <trkpt lat="44.40066" lon="6.39861">
        <ele>2087</ele>
        <time>2020-07-07T10:03:12.000Z</time>
      </trkpt>
      <trkpt lat="44.40066" lon="6.39862">
        <ele>2087</ele>
        <time>2020-07-07T10:03:13.000Z</time>
      </trkpt>
      <trkpt lat="44.40067" lon="6.39864">
        <ele>2087</ele>
        <time>2020-07-07T10:03:14.000Z</time>
      </trkpt>
      <trkpt lat="44.40067" lon="6.39865">
        <ele>2087</ele>
        <time>2020-07-07T10:03:15.000Z</time>
      </trkpt>
      <trkpt lat="44.40067" lon="6.39866">
        <ele>2087</ele>
        <time>2020-07-07T10:03:16.000Z</time>
      </trkpt>
      <trkpt lat="44.40067" lon="6.39868">
        <ele>2087</ele>
        <time>2020-07-07T10:03:17.000Z</time>
      </trkpt>
      <trkpt lat="44.40066" lon="6.39868">
        <ele>2087</ele>
        <time>2020-07-07T10:03:18.000Z</time>
      </trkpt>
      <trkpt lat="44.40067" lon="6.39869">
        <ele>2087</ele>
        <time>2020-07-07T10:03:19.000Z</time>
      </trkpt>
      <trkpt lat="44.40068" lon="6.3987">
        <ele>2087</ele>
        <time>2020-07-07T10:03:20.000Z</time>
      </trkpt>
      <trkpt lat="44.40068" lon="6.39871">
        <ele>2087</ele>
        <time>2020-07-07T10:03:21.000Z</time>
      </trkpt>
      <trkpt lat="44.40068" lon="6.39873">
        <ele>2087</ele>
        <time>2020-07-07T10:03:22.000Z</time>
      </trkpt>
      <trkpt lat="44.40068" lon="6.39874">
        <ele>2087</ele>
        <time>2020-07-07T10:03:23.000Z</time>
      </trkpt>
      <trkpt lat="44.40068" lon="6.39875">
        <ele>2086</ele>
        <time>2020-07-07T10:03:24.000Z</time>
      </trkpt>
      <trkpt lat="44.40068" lon="6.39876">
        <ele>2086</ele>
        <time>2020-07-07T10:03:25.000Z</time>
      </trkpt>
      <trkpt lat="44.40069" lon="6.39877">
        <ele>2086</ele>
        <time>2020-07-07T10:03:26.000Z</time>
      </trkpt>
      <trkpt lat="44.40069" lon="6.39878">
        <ele>2086</ele>
        <time>2020-07-07T10:03:27.000Z</time>
      </trkpt>
      <trkpt lat="44.40069" lon="6.39879">
        <ele>2086</ele>
        <time>2020-07-07T10:03:28.000Z</time>
      </trkpt>
      <trkpt lat="44.40069" lon="6.3988">
        <ele>2086</ele>
        <time>2020-07-07T10:03:29.000Z</time>
      </trkpt>
      <trkpt lat="44.40069" lon="6.39882">
        <ele>2086</ele>
        <time>2020-07-07T10:03:30.000Z</time>
      </trkpt>
      <trkpt lat="44.40069" lon="6.39883">
        <ele>2086</ele>
        <time>2020-07-07T10:03:31.000Z</time>
      </trkpt>
      <trkpt lat="44.40069" lon="6.39884">
        <ele>2086</ele>
        <time>2020-07-07T10:03:32.000Z</time>
      </trkpt>
      <trkpt lat="44.40069" lon="6.39885">
        <ele>2086</ele>
        <time>2020-07-07T10:03:33.000Z</time>
      </trkpt>
      <trkpt lat="44.40068" lon="6.39887">
        <ele>2086</ele>
        <time>2020-07-07T10:03:34.000Z</time>
      </trkpt>
      <trkpt lat="44.40068" lon="6.39889">
        <ele>2085</ele>
        <time>2020-07-07T10:03:35.000Z</time>
      </trkpt>
      <trkpt lat="44.40068" lon="6.3989">
        <ele>2085</ele>
        <time>2020-07-07T10:03:36.000Z</time>
      </trkpt>
      <trkpt lat="44.40068" lon="6.39891">
        <ele>2085</ele>
        <time>2020-07-07T10:03:37.000Z</time>
      </trkpt>
      <trkpt lat="44.40068" lon="6.39893">
        <ele>2085</ele>
        <time>2020-07-07T10:03:38.000Z</time>
      </trkpt>
      <trkpt lat="44.40068" lon="6.39894">
        <ele>2084</ele>
        <time>2020-07-07T10:03:39.000Z</time>
      </trkpt>
      <trkpt lat="44.40068" lon="6.39895">
        <ele>2084</ele>
        <time>2020-07-07T10:03:40.000Z</time>
      </trkpt>
      <trkpt lat="44.40068" lon="6.39897">
        <ele>2084</ele>
        <time>2020-07-07T10:03:41.000Z</time>
      </trkpt>
      <trkpt lat="44.40068" lon="6.39898">
        <ele>2084</ele>
        <time>2020-07-07T10:03:42.000Z</time>
      </trkpt>
      <trkpt lat="44.40067" lon="6.39899">
        <ele>2084</ele>
        <time>2020-07-07T10:03:43.000Z</time>
      </trkpt>
      <trkpt lat="44.40067" lon="6.399">
        <ele>2084</ele>
        <time>2020-07-07T10:03:44.000Z</time>
      </trkpt>
      <trkpt lat="44.40067" lon="6.39901">
        <ele>2084</ele>
        <time>2020-07-07T10:03:45.000Z</time>
      </trkpt>
      <trkpt lat="44.40066" lon="6.39903">
        <ele>2084</ele>
        <time>2020-07-07T10:03:46.000Z</time>
      </trkpt>
      <trkpt lat="44.40066" lon="6.39905">
        <ele>2084</ele>
        <time>2020-07-07T10:03:47.000Z</time>
      </trkpt>
      <trkpt lat="44.40065" lon="6.39906">
        <ele>2084</ele>
        <time>2020-07-07T10:03:48.000Z</time>
      </trkpt>
      <trkpt lat="44.40065" lon="6.39906">
        <ele>2084</ele>
        <time>2020-07-07T10:03:49.000Z</time>
      </trkpt>
      <trkpt lat="44.40065" lon="6.39907">
        <ele>2084</ele>
        <time>2020-07-07T10:03:50.000Z</time>
      </trkpt>
      <trkpt lat="44.40066" lon="6.39907">
        <ele>2084</ele>
        <time>2020-07-07T10:03:51.000Z</time>
      </trkpt>
      <trkpt lat="44.40067" lon="6.39908">
        <ele>2084</ele>
        <time>2020-07-07T10:03:52.000Z</time>
      </trkpt>
      <trkpt lat="44.40068" lon="6.39908">
        <ele>2084</ele>
        <time>2020-07-07T10:03:53.000Z</time>
      </trkpt>
      <trkpt lat="44.40069" lon="6.39908">
        <ele>2084</ele>
        <time>2020-07-07T10:03:54.000Z</time>
      </trkpt>
      <trkpt lat="44.4007" lon="6.39907">
        <ele>2083</ele>
        <time>2020-07-07T10:03:55.000Z</time>
      </trkpt>
      <trkpt lat="44.40071" lon="6.39906">
        <ele>2083</ele>
        <time>2020-07-07T10:03:56.000Z</time>
      </trkpt>
      <trkpt lat="44.40072" lon="6.39904">
        <ele>2083</ele>
        <time>2020-07-07T10:03:57.000Z</time>
      </trkpt>
      <trkpt lat="44.40073" lon="6.39903">
        <ele>2083</ele>
        <time>2020-07-07T10:03:58.000Z</time>
      </trkpt>
      <trkpt lat="44.40074" lon="6.39902">
        <ele>2083</ele>
        <time>2020-07-07T10:03:59.000Z</time>
      </trkpt>
      <trkpt lat="44.40074" lon="6.39901">
        <ele>2082</ele>
        <time>2020-07-07T10:04:00.000Z</time>
      </trkpt>
      <trkpt lat="44.40075" lon="6.39899">
        <ele>2082</ele>
        <time>2020-07-07T10:04:01.000Z</time>
      </trkpt>
      <trkpt lat="44.40076" lon="6.39899">
        <ele>2082</ele>
        <time>2020-07-07T10:04:02.000Z</time>
      </trkpt>
      <trkpt lat="44.40077" lon="6.39898">
        <ele>2082</ele>
        <time>2020-07-07T10:04:03.000Z</time>
      </trkpt>
      <trkpt lat="44.40078" lon="6.39898">
        <ele>2082</ele>
        <time>2020-07-07T10:04:04.000Z</time>
      </trkpt>
      <trkpt lat="44.40079" lon="6.39898">
        <ele>2081</ele>
        <time>2020-07-07T10:04:05.000Z</time>
      </trkpt>
      <trkpt lat="44.4008" lon="6.39899">
        <ele>2081</ele>
        <time>2020-07-07T10:04:06.000Z</time>
      </trkpt>
      <trkpt lat="44.4008" lon="6.39898">
        <ele>2081</ele>
        <time>2020-07-07T10:04:07.000Z</time>
      </trkpt>
      <trkpt lat="44.40081" lon="6.39899">
        <ele>2081</ele>
        <time>2020-07-07T10:04:08.000Z</time>
      </trkpt>
      <trkpt lat="44.40082" lon="6.39899">
        <ele>2081</ele>
        <time>2020-07-07T10:04:09.000Z</time>
      </trkpt>
      <trkpt lat="44.40083" lon="6.39899">
        <ele>2081</ele>
        <time>2020-07-07T10:04:10.000Z</time>
      </trkpt>
      <trkpt lat="44.40084" lon="6.39898">
        <ele>2080</ele>
        <time>2020-07-07T10:04:11.000Z</time>
      </trkpt>
      <trkpt lat="44.40085" lon="6.39899">
        <ele>2080</ele>
        <time>2020-07-07T10:04:12.000Z</time>
      </trkpt>
      <trkpt lat="44.40086" lon="6.39899">
        <ele>2080</ele>
        <time>2020-07-07T10:04:13.000Z</time>
      </trkpt>
      <trkpt lat="44.40087" lon="6.39899">
        <ele>2080</ele>
        <time>2020-07-07T10:04:14.000Z</time>
      </trkpt>
      <trkpt lat="44.40087" lon="6.39899">
        <ele>2080</ele>
        <time>2020-07-07T10:04:15.000Z</time>
      </trkpt>
      <trkpt lat="44.40088" lon="6.399">
        <ele>2080</ele>
        <time>2020-07-07T10:04:16.000Z</time>
      </trkpt>
      <trkpt lat="44.40088" lon="6.39902">
        <ele>2079</ele>
        <time>2020-07-07T10:04:17.000Z</time>
      </trkpt>
      <trkpt lat="44.40089" lon="6.39902">
        <ele>2079</ele>
        <time>2020-07-07T10:04:18.000Z</time>
      </trkpt>
      <trkpt lat="44.4009" lon="6.39903">
        <ele>2079</ele>
        <time>2020-07-07T10:04:19.000Z</time>
      </trkpt>
      <trkpt lat="44.4009" lon="6.39904">
        <ele>2079</ele>
        <time>2020-07-07T10:04:20.000Z</time>
      </trkpt>
      <trkpt lat="44.4009" lon="6.39904">
        <ele>2079</ele>
        <time>2020-07-07T10:04:21.000Z</time>
      </trkpt>
      <trkpt lat="44.4009" lon="6.39904">
        <ele>2079</ele>
        <time>2020-07-07T10:04:22.000Z</time>
      </trkpt>
      <trkpt lat="44.40091" lon="6.39904">
        <ele>2078</ele>
        <time>2020-07-07T10:04:23.000Z</time>
      </trkpt>
      <trkpt lat="44.40092" lon="6.39905">
        <ele>2078</ele>
        <time>2020-07-07T10:04:24.000Z</time>
      </trkpt>
      <trkpt lat="44.40093" lon="6.39906">
        <ele>2078</ele>
        <time>2020-07-07T10:04:25.000Z</time>
      </trkpt>
      <trkpt lat="44.40094" lon="6.39907">
        <ele>2078</ele>
        <time>2020-07-07T10:04:26.000Z</time>
      </trkpt>
      <trkpt lat="44.40094" lon="6.39909">
        <ele>2078</ele>
        <time>2020-07-07T10:04:27.000Z</time>
      </trkpt>
      <trkpt lat="44.40095" lon="6.39911">
        <ele>2078</ele>
        <time>2020-07-07T10:04:28.000Z</time>
      </trkpt>
      <trkpt lat="44.40096" lon="6.39913">
        <ele>2078</ele>
        <time>2020-07-07T10:04:29.000Z</time>
      </trkpt>
      <trkpt lat="44.40096" lon="6.39913">
        <ele>2077</ele>
        <time>2020-07-07T10:04:30.000Z</time>
      </trkpt>
      <trkpt lat="44.40097" lon="6.39914">
        <ele>2077</ele>
        <time>2020-07-07T10:04:31.000Z</time>
      </trkpt>
      <trkpt lat="44.40097" lon="6.39915">
        <ele>2077</ele>
        <time>2020-07-07T10:04:32.000Z</time>
      </trkpt>
      <trkpt lat="44.40098" lon="6.39916">
        <ele>2077</ele>
        <time>2020-07-07T10:04:33.000Z</time>
      </trkpt>
      <trkpt lat="44.40098" lon="6.39917">
        <ele>2076</ele>
        <time>2020-07-07T10:04:34.000Z</time>
      </trkpt>
      <trkpt lat="44.40099" lon="6.39918">
        <ele>2076</ele>
        <time>2020-07-07T10:04:35.000Z</time>
      </trkpt>
      <trkpt lat="44.401" lon="6.3992">
        <ele>2076</ele>
        <time>2020-07-07T10:04:36.000Z</time>
      </trkpt>
      <trkpt lat="44.40101" lon="6.39921">
        <ele>2076</ele>
        <time>2020-07-07T10:04:37.000Z</time>
      </trkpt>
      <trkpt lat="44.40102" lon="6.39921">
        <ele>2075</ele>
        <time>2020-07-07T10:04:38.000Z</time>
      </trkpt>
      <trkpt lat="44.40103" lon="6.39921">
        <ele>2075</ele>
        <time>2020-07-07T10:04:39.000Z</time>
      </trkpt>
      <trkpt lat="44.40103" lon="6.39922">
        <ele>2075</ele>
        <time>2020-07-07T10:04:40.000Z</time>
      </trkpt>
      <trkpt lat="44.40104" lon="6.39923">
        <ele>2075</ele>
        <time>2020-07-07T10:04:41.000Z</time>
      </trkpt>
      <trkpt lat="44.40106" lon="6.39925">
        <ele>2075</ele>
        <time>2020-07-07T10:04:42.000Z</time>
      </trkpt>
      <trkpt lat="44.40106" lon="6.39926">
        <ele>2075</ele>
        <time>2020-07-07T10:04:43.000Z</time>
      </trkpt>
      <trkpt lat="44.40107" lon="6.39926">
        <ele>2074</ele>
        <time>2020-07-07T10:04:44.000Z</time>
      </trkpt>
      <trkpt lat="44.40109" lon="6.39927">
        <ele>2074</ele>
        <time>2020-07-07T10:04:45.000Z</time>
      </trkpt>
      <trkpt lat="44.40109" lon="6.39927">
        <ele>2074</ele>
        <time>2020-07-07T10:04:46.000Z</time>
      </trkpt>
      <trkpt lat="44.4011" lon="6.39928">
        <ele>2074</ele>
        <time>2020-07-07T10:04:47.000Z</time>
      </trkpt>
      <trkpt lat="44.40111" lon="6.39928">
        <ele>2074</ele>
        <time>2020-07-07T10:04:48.000Z</time>
      </trkpt>
      <trkpt lat="44.40113" lon="6.39928">
        <ele>2074</ele>
        <time>2020-07-07T10:04:49.000Z</time>
      </trkpt>
      <trkpt lat="44.40115" lon="6.39928">
        <ele>2074</ele>
        <time>2020-07-07T10:04:50.000Z</time>
      </trkpt>
      <trkpt lat="44.40116" lon="6.39928">
        <ele>2074</ele>
        <time>2020-07-07T10:04:51.000Z</time>
      </trkpt>
      <trkpt lat="44.40117" lon="6.39929">
        <ele>2073</ele>
        <time>2020-07-07T10:04:52.000Z</time>
      </trkpt>
      <trkpt lat="44.40118" lon="6.39929">
        <ele>2073</ele>
        <time>2020-07-07T10:04:53.000Z</time>
      </trkpt>
      <trkpt lat="44.40119" lon="6.3993">
        <ele>2073</ele>
        <time>2020-07-07T10:04:54.000Z</time>
      </trkpt>
      <trkpt lat="44.40121" lon="6.39931">
        <ele>2073</ele>
        <time>2020-07-07T10:04:55.000Z</time>
      </trkpt>
      <trkpt lat="44.40122" lon="6.39931">
        <ele>2073</ele>
        <time>2020-07-07T10:04:56.000Z</time>
      </trkpt>
      <trkpt lat="44.40123" lon="6.39932">
        <ele>2073</ele>
        <time>2020-07-07T10:04:57.000Z</time>
      </trkpt>
      <trkpt lat="44.40124" lon="6.39932">
        <ele>2073</ele>
        <time>2020-07-07T10:04:58.000Z</time>
      </trkpt>
      <trkpt lat="44.40125" lon="6.39933">
        <ele>2073</ele>
        <time>2020-07-07T10:04:59.000Z</time>
      </trkpt>
      <trkpt lat="44.40126" lon="6.39935">
        <ele>2073</ele>
        <time>2020-07-07T10:05:00.000Z</time>
      </trkpt>
      <trkpt lat="44.40126" lon="6.39937">
        <ele>2073</ele>
        <time>2020-07-07T10:05:01.000Z</time>
      </trkpt>
      <trkpt lat="44.40127" lon="6.39938">
        <ele>2073</ele>
        <time>2020-07-07T10:05:02.000Z</time>
      </trkpt>
      <trkpt lat="44.40128" lon="6.3994">
        <ele>2073</ele>
        <time>2020-07-07T10:05:03.000Z</time>
      </trkpt>
      <trkpt lat="44.40129" lon="6.39942">
        <ele>2073</ele>
        <time>2020-07-07T10:05:04.000Z</time>
      </trkpt>
      <trkpt lat="44.40131" lon="6.39943">
        <ele>2073</ele>
        <time>2020-07-07T10:05:05.000Z</time>
      </trkpt>
      <trkpt lat="44.40132" lon="6.39945">
        <ele>2073</ele>
        <time>2020-07-07T10:05:06.000Z</time>
      </trkpt>
      <trkpt lat="44.40133" lon="6.39947">
        <ele>2073</ele>
        <time>2020-07-07T10:05:07.000Z</time>
      </trkpt>
      <trkpt lat="44.40134" lon="6.39949">
        <ele>2072</ele>
        <time>2020-07-07T10:05:08.000Z</time>
      </trkpt>
      <trkpt lat="44.40134" lon="6.3995">
        <ele>2072</ele>
        <time>2020-07-07T10:05:09.000Z</time>
      </trkpt>
      <trkpt lat="44.40135" lon="6.39952">
        <ele>2072</ele>
        <time>2020-07-07T10:05:10.000Z</time>
      </trkpt>
      <trkpt lat="44.40136" lon="6.39953">
        <ele>2072</ele>
        <time>2020-07-07T10:05:11.000Z</time>
      </trkpt>
      <trkpt lat="44.40137" lon="6.39955">
        <ele>2072</ele>
        <time>2020-07-07T10:05:12.000Z</time>
      </trkpt>
      <trkpt lat="44.40137" lon="6.39956">
        <ele>2072</ele>
        <time>2020-07-07T10:05:13.000Z</time>
      </trkpt>
      <trkpt lat="44.40138" lon="6.39958">
        <ele>2072</ele>
        <time>2020-07-07T10:05:14.000Z</time>
      </trkpt>
      <trkpt lat="44.40139" lon="6.39959">
        <ele>2072</ele>
        <time>2020-07-07T10:05:15.000Z</time>
      </trkpt>
      <trkpt lat="44.4014" lon="6.3996">
        <ele>2072</ele>
        <time>2020-07-07T10:05:16.000Z</time>
      </trkpt>
      <trkpt lat="44.4014" lon="6.39962">
        <ele>2072</ele>
        <time>2020-07-07T10:05:17.000Z</time>
      </trkpt>
      <trkpt lat="44.40141" lon="6.39964">
        <ele>2072</ele>
        <time>2020-07-07T10:05:18.000Z</time>
      </trkpt>
      <trkpt lat="44.40142" lon="6.39964">
        <ele>2071</ele>
        <time>2020-07-07T10:05:19.000Z</time>
      </trkpt>
      <trkpt lat="44.40143" lon="6.39965">
        <ele>2071</ele>
        <time>2020-07-07T10:05:20.000Z</time>
      </trkpt>
      <trkpt lat="44.40143" lon="6.39966">
        <ele>2071</ele>
        <time>2020-07-07T10:05:21.000Z</time>
      </trkpt>
      <trkpt lat="44.40144" lon="6.39968">
        <ele>2071</ele>
        <time>2020-07-07T10:05:22.000Z</time>
      </trkpt>
      <trkpt lat="44.40145" lon="6.39969">
        <ele>2071</ele>
        <time>2020-07-07T10:05:23.000Z</time>
      </trkpt>
      <trkpt lat="44.40146" lon="6.3997">
        <ele>2071</ele>
        <time>2020-07-07T10:05:24.000Z</time>
      </trkpt>
      <trkpt lat="44.40146" lon="6.39971">
        <ele>2071</ele>
        <time>2020-07-07T10:05:25.000Z</time>
      </trkpt>
      <trkpt lat="44.40147" lon="6.39972">
        <ele>2070</ele>
        <time>2020-07-07T10:05:26.000Z</time>
      </trkpt>
      <trkpt lat="44.40148" lon="6.39973">
        <ele>2070</ele>
        <time>2020-07-07T10:05:27.000Z</time>
      </trkpt>
      <trkpt lat="44.40149" lon="6.39975">
        <ele>2070</ele>
        <time>2020-07-07T10:05:28.000Z</time>
      </trkpt>
      <trkpt lat="44.40149" lon="6.39977">
        <ele>2070</ele>
        <time>2020-07-07T10:05:29.000Z</time>
      </trkpt>
      <trkpt lat="44.4015" lon="6.39977">
        <ele>2070</ele>
        <time>2020-07-07T10:05:30.000Z</time>
      </trkpt>
      <trkpt lat="44.4015" lon="6.39978">
        <ele>2070</ele>
        <time>2020-07-07T10:05:31.000Z</time>
      </trkpt>
      <trkpt lat="44.40151" lon="6.39979">
        <ele>2070</ele>
        <time>2020-07-07T10:05:32.000Z</time>
      </trkpt>
      <trkpt lat="44.40152" lon="6.39982">
        <ele>2069</ele>
        <time>2020-07-07T10:05:33.000Z</time>
      </trkpt>
      <trkpt lat="44.40152" lon="6.39983">
        <ele>2069</ele>
        <time>2020-07-07T10:05:34.000Z</time>
      </trkpt>
      <trkpt lat="44.40153" lon="6.39985">
        <ele>2069</ele>
        <time>2020-07-07T10:05:35.000Z</time>
      </trkpt>
      <trkpt lat="44.40153" lon="6.39986">
        <ele>2069</ele>
        <time>2020-07-07T10:05:36.000Z</time>
      </trkpt>
      <trkpt lat="44.40154" lon="6.39987">
        <ele>2069</ele>
        <time>2020-07-07T10:05:37.000Z</time>
      </trkpt>
      <trkpt lat="44.40154" lon="6.39988">
        <ele>2070</ele>
        <time>2020-07-07T10:05:38.000Z</time>
      </trkpt>
      <trkpt lat="44.40155" lon="6.3999">
        <ele>2069</ele>
        <time>2020-07-07T10:05:39.000Z</time>
      </trkpt>
      <trkpt lat="44.40156" lon="6.39991">
        <ele>2070</ele>
        <time>2020-07-07T10:05:40.000Z</time>
      </trkpt>
      <trkpt lat="44.40156" lon="6.39993">
        <ele>2070</ele>
        <time>2020-07-07T10:05:41.000Z</time>
      </trkpt>
      <trkpt lat="44.40157" lon="6.39994">
        <ele>2070</ele>
        <time>2020-07-07T10:05:42.000Z</time>
      </trkpt>
      <trkpt lat="44.40158" lon="6.39996">
        <ele>2069</ele>
        <time>2020-07-07T10:05:43.000Z</time>
      </trkpt>
      <trkpt lat="44.40158" lon="6.39997">
        <ele>2069</ele>
        <time>2020-07-07T10:05:44.000Z</time>
      </trkpt>
      <trkpt lat="44.40159" lon="6.39998">
        <ele>2069</ele>
        <time>2020-07-07T10:05:45.000Z</time>
      </trkpt>
      <trkpt lat="44.40158" lon="6.39999">
        <ele>2069</ele>
        <time>2020-07-07T10:05:46.000Z</time>
      </trkpt>
      <trkpt lat="44.40158" lon="6.39999">
        <ele>2069</ele>
        <time>2020-07-07T10:05:47.000Z</time>
      </trkpt>
      <trkpt lat="44.40158" lon="6.4">
        <ele>2069</ele>
        <time>2020-07-07T10:05:48.000Z</time>
      </trkpt>
      <trkpt lat="44.40158" lon="6.40001">
        <ele>2069</ele>
        <time>2020-07-07T10:05:49.000Z</time>
      </trkpt>
      <trkpt lat="44.40159" lon="6.40002">
        <ele>2069</ele>
        <time>2020-07-07T10:05:50.000Z</time>
      </trkpt>
      <trkpt lat="44.40159" lon="6.40004">
        <ele>2069</ele>
        <time>2020-07-07T10:05:51.000Z</time>
      </trkpt>
      <trkpt lat="44.40159" lon="6.40006">
        <ele>2069</ele>
        <time>2020-07-07T10:05:52.000Z</time>
      </trkpt>
      <trkpt lat="44.4016" lon="6.40008">
        <ele>2069</ele>
        <time>2020-07-07T10:05:53.000Z</time>
      </trkpt>
      <trkpt lat="44.4016" lon="6.40009">
        <ele>2069</ele>
        <time>2020-07-07T10:05:54.000Z</time>
      </trkpt>
      <trkpt lat="44.4016" lon="6.4001">
        <ele>2069</ele>
        <time>2020-07-07T10:05:55.000Z</time>
      </trkpt>
      <trkpt lat="44.4016" lon="6.40012">
        <ele>2069</ele>
        <time>2020-07-07T10:05:56.000Z</time>
      </trkpt>
      <trkpt lat="44.4016" lon="6.40013">
        <ele>2069</ele>
        <time>2020-07-07T10:05:57.000Z</time>
      </trkpt>
      <trkpt lat="44.4016" lon="6.40014">
        <ele>2069</ele>
        <time>2020-07-07T10:05:58.000Z</time>
      </trkpt>
      <trkpt lat="44.4016" lon="6.40016">
        <ele>2069</ele>
        <time>2020-07-07T10:05:59.000Z</time>
      </trkpt>
      <trkpt lat="44.4016" lon="6.40017">
        <ele>2069</ele>
        <time>2020-07-07T10:06:00.000Z</time>
      </trkpt>
      <trkpt lat="44.4016" lon="6.40019">
        <ele>2069</ele>
        <time>2020-07-07T10:06:01.000Z</time>
      </trkpt>
      <trkpt lat="44.40161" lon="6.40021">
        <ele>2069</ele>
        <time>2020-07-07T10:06:02.000Z</time>
      </trkpt>
      <trkpt lat="44.4016" lon="6.40023">
        <ele>2069</ele>
        <time>2020-07-07T10:06:03.000Z</time>
      </trkpt>
      <trkpt lat="44.4016" lon="6.40025">
        <ele>2069</ele>
        <time>2020-07-07T10:06:04.000Z</time>
      </trkpt>
      <trkpt lat="44.4016" lon="6.40026">
        <ele>2069</ele>
        <time>2020-07-07T10:06:05.000Z</time>
      </trkpt>
      <trkpt lat="44.4016" lon="6.40027">
        <ele>2070</ele>
        <time>2020-07-07T10:06:06.000Z</time>
      </trkpt>
      <trkpt lat="44.4016" lon="6.40029">
        <ele>2070</ele>
        <time>2020-07-07T10:06:07.000Z</time>
      </trkpt>
      <trkpt lat="44.40159" lon="6.4003">
        <ele>2070</ele>
        <time>2020-07-07T10:06:08.000Z</time>
      </trkpt>
      <trkpt lat="44.40158" lon="6.40031">
        <ele>2070</ele>
        <time>2020-07-07T10:06:09.000Z</time>
      </trkpt>
      <trkpt lat="44.40158" lon="6.40033">
        <ele>2070</ele>
        <time>2020-07-07T10:06:10.000Z</time>
      </trkpt>
      <trkpt lat="44.40158" lon="6.40034">
        <ele>2070</ele>
        <time>2020-07-07T10:06:11.000Z</time>
      </trkpt>
      <trkpt lat="44.40157" lon="6.40035">
        <ele>2070</ele>
        <time>2020-07-07T10:06:12.000Z</time>
      </trkpt>
      <trkpt lat="44.40156" lon="6.40036">
        <ele>2070</ele>
        <time>2020-07-07T10:06:13.000Z</time>
      </trkpt>
      <trkpt lat="44.40155" lon="6.40038">
        <ele>2070</ele>
        <time>2020-07-07T10:06:14.000Z</time>
      </trkpt>
      <trkpt lat="44.40154" lon="6.40039">
        <ele>2070</ele>
        <time>2020-07-07T10:06:15.000Z</time>
      </trkpt>
      <trkpt lat="44.40154" lon="6.4004">
        <ele>2070</ele>
        <time>2020-07-07T10:06:16.000Z</time>
      </trkpt>
      <trkpt lat="44.40153" lon="6.40042">
        <ele>2070</ele>
        <time>2020-07-07T10:06:17.000Z</time>
      </trkpt>
      <trkpt lat="44.40152" lon="6.40043">
        <ele>2070</ele>
        <time>2020-07-07T10:06:18.000Z</time>
      </trkpt>
      <trkpt lat="44.40152" lon="6.40045">
        <ele>2070</ele>
        <time>2020-07-07T10:06:19.000Z</time>
      </trkpt>
      <trkpt lat="44.40151" lon="6.40046">
        <ele>2070</ele>
        <time>2020-07-07T10:06:20.000Z</time>
      </trkpt>
      <trkpt lat="44.40151" lon="6.40048">
        <ele>2070</ele>
        <time>2020-07-07T10:06:21.000Z</time>
      </trkpt>
      <trkpt lat="44.4015" lon="6.40049">
        <ele>2070</ele>
        <time>2020-07-07T10:06:22.000Z</time>
      </trkpt>
      <trkpt lat="44.4015" lon="6.4005">
        <ele>2070</ele>
        <time>2020-07-07T10:06:23.000Z</time>
      </trkpt>
      <trkpt lat="44.40149" lon="6.40052">
        <ele>2070</ele>
        <time>2020-07-07T10:06:24.000Z</time>
      </trkpt>
      <trkpt lat="44.40149" lon="6.40053">
        <ele>2070</ele>
        <time>2020-07-07T10:06:25.000Z</time>
      </trkpt>
      <trkpt lat="44.40148" lon="6.40054">
        <ele>2070</ele>
        <time>2020-07-07T10:06:26.000Z</time>
      </trkpt>
      <trkpt lat="44.40149" lon="6.40055">
        <ele>2070</ele>
        <time>2020-07-07T10:06:27.000Z</time>
      </trkpt>
      <trkpt lat="44.40149" lon="6.40056">
        <ele>2070</ele>
        <time>2020-07-07T10:06:28.000Z</time>
      </trkpt>
      <trkpt lat="44.40149" lon="6.40057">
        <ele>2070</ele>
        <time>2020-07-07T10:06:29.000Z</time>
      </trkpt>
      <trkpt lat="44.40149" lon="6.40058">
        <ele>2070</ele>
        <time>2020-07-07T10:06:30.000Z</time>
      </trkpt>
      <trkpt lat="44.40149" lon="6.40059">
        <ele>2070</ele>
        <time>2020-07-07T10:06:31.000Z</time>
      </trkpt>
      <trkpt lat="44.40149" lon="6.4006">
        <ele>2069</ele>
        <time>2020-07-07T10:06:32.000Z</time>
      </trkpt>
      <trkpt lat="44.4015" lon="6.40061">
        <ele>2069</ele>
        <time>2020-07-07T10:06:33.000Z</time>
      </trkpt>
      <trkpt lat="44.4015" lon="6.40062">
        <ele>2069</ele>
        <time>2020-07-07T10:06:34.000Z</time>
      </trkpt>
      <trkpt lat="44.4015" lon="6.40063">
        <ele>2069</ele>
        <time>2020-07-07T10:06:35.000Z</time>
      </trkpt>
      <trkpt lat="44.4015" lon="6.40064">
        <ele>2069</ele>
        <time>2020-07-07T10:06:36.000Z</time>
      </trkpt>
      <trkpt lat="44.40151" lon="6.40065">
        <ele>2069</ele>
        <time>2020-07-07T10:06:37.000Z</time>
      </trkpt>
      <trkpt lat="44.40152" lon="6.40067">
        <ele>2069</ele>
        <time>2020-07-07T10:06:38.000Z</time>
      </trkpt>
      <trkpt lat="44.40152" lon="6.40069">
        <ele>2069</ele>
        <time>2020-07-07T10:06:39.000Z</time>
      </trkpt>
      <trkpt lat="44.40152" lon="6.4007">
        <ele>2069</ele>
        <time>2020-07-07T10:06:40.000Z</time>
      </trkpt>
      <trkpt lat="44.40153" lon="6.40071">
        <ele>2069</ele>
        <time>2020-07-07T10:06:41.000Z</time>
      </trkpt>
      <trkpt lat="44.40153" lon="6.40072">
        <ele>2069</ele>
        <time>2020-07-07T10:06:42.000Z</time>
      </trkpt>
      <trkpt lat="44.40153" lon="6.40073">
        <ele>2069</ele>
        <time>2020-07-07T10:06:43.000Z</time>
      </trkpt>
      <trkpt lat="44.40154" lon="6.40074">
        <ele>2069</ele>
        <time>2020-07-07T10:06:44.000Z</time>
      </trkpt>
      <trkpt lat="44.40154" lon="6.40075">
        <ele>2069</ele>
        <time>2020-07-07T10:06:45.000Z</time>
      </trkpt>
      <trkpt lat="44.40155" lon="6.40076">
        <ele>2069</ele>
        <time>2020-07-07T10:06:46.000Z</time>
      </trkpt>
      <trkpt lat="44.40155" lon="6.40077">
        <ele>2069</ele>
        <time>2020-07-07T10:06:47.000Z</time>
      </trkpt>
      <trkpt lat="44.40156" lon="6.40078">
        <ele>2069</ele>
        <time>2020-07-07T10:06:48.000Z</time>
      </trkpt>
      <trkpt lat="44.40156" lon="6.40079">
        <ele>2069</ele>
        <time>2020-07-07T10:06:49.000Z</time>
      </trkpt>
      <trkpt lat="44.40157" lon="6.4008">
        <ele>2069</ele>
        <time>2020-07-07T10:06:50.000Z</time>
      </trkpt>
      <trkpt lat="44.40157" lon="6.4008">
        <ele>2069</ele>
        <time>2020-07-07T10:06:51.000Z</time>
      </trkpt>
      <trkpt lat="44.40158" lon="6.40081">
        <ele>2069</ele>
        <time>2020-07-07T10:06:52.000Z</time>
      </trkpt>
      <trkpt lat="44.40158" lon="6.40082">
        <ele>2069</ele>
        <time>2020-07-07T10:06:53.000Z</time>
      </trkpt>
      <trkpt lat="44.40159" lon="6.40083">
        <ele>2068</ele>
        <time>2020-07-07T10:06:54.000Z</time>
      </trkpt>
      <trkpt lat="44.40159" lon="6.40084">
        <ele>2068</ele>
        <time>2020-07-07T10:06:55.000Z</time>
      </trkpt>
      <trkpt lat="44.4016" lon="6.40084">
        <ele>2068</ele>
        <time>2020-07-07T10:06:56.000Z</time>
      </trkpt>
      <trkpt lat="44.4016" lon="6.40085">
        <ele>2068</ele>
        <time>2020-07-07T10:06:57.000Z</time>
      </trkpt>
      <trkpt lat="44.40161" lon="6.40086">
        <ele>2068</ele>
        <time>2020-07-07T10:06:58.000Z</time>
      </trkpt>
      <trkpt lat="44.40162" lon="6.40086">
        <ele>2068</ele>
        <time>2020-07-07T10:06:59.000Z</time>
      </trkpt>
      <trkpt lat="44.40162" lon="6.40086">
        <ele>2068</ele>
        <time>2020-07-07T10:07:00.000Z</time>
      </trkpt>
      <trkpt lat="44.40163" lon="6.40087">
        <ele>2068</ele>
        <time>2020-07-07T10:07:01.000Z</time>
      </trkpt>
      <trkpt lat="44.40163" lon="6.40088">
        <ele>2068</ele>
        <time>2020-07-07T10:07:02.000Z</time>
      </trkpt>
      <trkpt lat="44.40164" lon="6.40089">
        <ele>2068</ele>
        <time>2020-07-07T10:07:03.000Z</time>
      </trkpt>
      <trkpt lat="44.40164" lon="6.4009">
        <ele>2068</ele>
        <time>2020-07-07T10:07:04.000Z</time>
      </trkpt>
      <trkpt lat="44.40165" lon="6.40091">
        <ele>2068</ele>
        <time>2020-07-07T10:07:05.000Z</time>
      </trkpt>
      <trkpt lat="44.40166" lon="6.40093">
        <ele>2068</ele>
        <time>2020-07-07T10:07:06.000Z</time>
      </trkpt>
      <trkpt lat="44.40167" lon="6.40094">
        <ele>2068</ele>
        <time>2020-07-07T10:07:07.000Z</time>
      </trkpt>
      <trkpt lat="44.40168" lon="6.40095">
        <ele>2068</ele>
        <time>2020-07-07T10:07:08.000Z</time>
      </trkpt>
      <trkpt lat="44.40168" lon="6.40097">
        <ele>2068</ele>
        <time>2020-07-07T10:07:09.000Z</time>
      </trkpt>
      <trkpt lat="44.40169" lon="6.40098">
        <ele>2068</ele>
        <time>2020-07-07T10:07:10.000Z</time>
      </trkpt>
      <trkpt lat="44.40169" lon="6.40099">
        <ele>2068</ele>
        <time>2020-07-07T10:07:11.000Z</time>
      </trkpt>
      <trkpt lat="44.4017" lon="6.40099">
        <ele>2068</ele>
        <time>2020-07-07T10:07:12.000Z</time>
      </trkpt>
      <trkpt lat="44.4017" lon="6.401">
        <ele>2068</ele>
        <time>2020-07-07T10:07:13.000Z</time>
      </trkpt>
      <trkpt lat="44.4017" lon="6.40101">
        <ele>2068</ele>
        <time>2020-07-07T10:07:14.000Z</time>
      </trkpt>
      <trkpt lat="44.40171" lon="6.40102">
        <ele>2068</ele>
        <time>2020-07-07T10:07:15.000Z</time>
      </trkpt>
      <trkpt lat="44.40172" lon="6.40104">
        <ele>2068</ele>
        <time>2020-07-07T10:07:16.000Z</time>
      </trkpt>
      <trkpt lat="44.40172" lon="6.40105">
        <ele>2068</ele>
        <time>2020-07-07T10:07:17.000Z</time>
      </trkpt>
      <trkpt lat="44.40173" lon="6.40105">
        <ele>2068</ele>
        <time>2020-07-07T10:07:18.000Z</time>
      </trkpt>
      <trkpt lat="44.40174" lon="6.40106">
        <ele>2068</ele>
        <time>2020-07-07T10:07:19.000Z</time>
      </trkpt>
      <trkpt lat="44.40174" lon="6.40107">
        <ele>2068</ele>
        <time>2020-07-07T10:07:20.000Z</time>
      </trkpt>
      <trkpt lat="44.40174" lon="6.40108">
        <ele>2068</ele>
        <time>2020-07-07T10:07:21.000Z</time>
      </trkpt>
      <trkpt lat="44.40175" lon="6.40109">
        <ele>2068</ele>
        <time>2020-07-07T10:07:22.000Z</time>
      </trkpt>
      <trkpt lat="44.40175" lon="6.4011">
        <ele>2068</ele>
        <time>2020-07-07T10:07:23.000Z</time>
      </trkpt>
      <trkpt lat="44.40176" lon="6.4011">
        <ele>2068</ele>
        <time>2020-07-07T10:07:24.000Z</time>
      </trkpt>
      <trkpt lat="44.40176" lon="6.40111">
        <ele>2068</ele>
        <time>2020-07-07T10:07:25.000Z</time>
      </trkpt>
      <trkpt lat="44.40176" lon="6.40111">
        <ele>2068</ele>
        <time>2020-07-07T10:07:26.000Z</time>
      </trkpt>
      <trkpt lat="44.40176" lon="6.40111">
        <ele>2068</ele>
        <time>2020-07-07T10:07:27.000Z</time>
      </trkpt>
      <trkpt lat="44.40176" lon="6.40111">
        <ele>2068</ele>
        <time>2020-07-07T10:07:28.000Z</time>
      </trkpt>
      <trkpt lat="44.40176" lon="6.40111">
        <ele>2068</ele>
        <time>2020-07-07T10:07:29.000Z</time>
      </trkpt>
      <trkpt lat="44.40176" lon="6.40111">
        <ele>2068</ele>
        <time>2020-07-07T10:07:30.000Z</time>
      </trkpt>
      <trkpt lat="44.40176" lon="6.40111">
        <ele>2068</ele>
        <time>2020-07-07T10:07:31.000Z</time>
      </trkpt>
      <trkpt lat="44.40176" lon="6.40112">
        <ele>2068</ele>
        <time>2020-07-07T10:07:32.000Z</time>
      </trkpt>
      <trkpt lat="44.40176" lon="6.40113">
        <ele>2067</ele>
        <time>2020-07-07T10:07:33.000Z</time>
      </trkpt>
      <trkpt lat="44.40176" lon="6.40113">
        <ele>2067</ele>
        <time>2020-07-07T10:07:34.000Z</time>
      </trkpt>
      <trkpt lat="44.40176" lon="6.40114">
        <ele>2067</ele>
        <time>2020-07-07T10:07:35.000Z</time>
      </trkpt>
      <trkpt lat="44.40175" lon="6.40115">
        <ele>2067</ele>
        <time>2020-07-07T10:07:36.000Z</time>
      </trkpt>
      <trkpt lat="44.40175" lon="6.40116">
        <ele>2067</ele>
        <time>2020-07-07T10:07:37.000Z</time>
      </trkpt>
      <trkpt lat="44.40175" lon="6.40117">
        <ele>2067</ele>
        <time>2020-07-07T10:07:38.000Z</time>
      </trkpt>
      <trkpt lat="44.40175" lon="6.40118">
        <ele>2067</ele>
        <time>2020-07-07T10:07:39.000Z</time>
      </trkpt>
      <trkpt lat="44.40175" lon="6.40119">
        <ele>2067</ele>
        <time>2020-07-07T10:07:40.000Z</time>
      </trkpt>
      <trkpt lat="44.40176" lon="6.4012">
        <ele>2067</ele>
        <time>2020-07-07T10:07:41.000Z</time>
      </trkpt>
      <trkpt lat="44.40176" lon="6.4012">
        <ele>2067</ele>
        <time>2020-07-07T10:07:42.000Z</time>
      </trkpt>
      <trkpt lat="44.40177" lon="6.40122">
        <ele>2067</ele>
        <time>2020-07-07T10:07:43.000Z</time>
      </trkpt>
      <trkpt lat="44.40177" lon="6.40123">
        <ele>2066</ele>
        <time>2020-07-07T10:07:44.000Z</time>
      </trkpt>
      <trkpt lat="44.40177" lon="6.40124">
        <ele>2066</ele>
        <time>2020-07-07T10:07:45.000Z</time>
      </trkpt>
      <trkpt lat="44.40177" lon="6.40125">
        <ele>2066</ele>
        <time>2020-07-07T10:07:46.000Z</time>
      </trkpt>
      <trkpt lat="44.40177" lon="6.40125">
        <ele>2066</ele>
        <time>2020-07-07T10:07:47.000Z</time>
      </trkpt>
      <trkpt lat="44.40176" lon="6.40126">
        <ele>2066</ele>
        <time>2020-07-07T10:07:48.000Z</time>
      </trkpt>
      <trkpt lat="44.40176" lon="6.40126">
        <ele>2066</ele>
        <time>2020-07-07T10:07:49.000Z</time>
      </trkpt>
      <trkpt lat="44.40176" lon="6.40127">
        <ele>2066</ele>
        <time>2020-07-07T10:07:50.000Z</time>
      </trkpt>
      <trkpt lat="44.40176" lon="6.40128">
        <ele>2065</ele>
        <time>2020-07-07T10:07:51.000Z</time>
      </trkpt>
      <trkpt lat="44.40175" lon="6.40129">
        <ele>2065</ele>
        <time>2020-07-07T10:07:52.000Z</time>
      </trkpt>
      <trkpt lat="44.40174" lon="6.40129">
        <ele>2065</ele>
        <time>2020-07-07T10:07:53.000Z</time>
      </trkpt>
      <trkpt lat="44.40174" lon="6.40129">
        <ele>2065</ele>
        <time>2020-07-07T10:07:54.000Z</time>
      </trkpt>
      <trkpt lat="44.40173" lon="6.40129">
        <ele>2065</ele>
        <time>2020-07-07T10:07:55.000Z</time>
      </trkpt>
      <trkpt lat="44.40173" lon="6.40129">
        <ele>2065</ele>
        <time>2020-07-07T10:07:56.000Z</time>
      </trkpt>
      <trkpt lat="44.40172" lon="6.40129">
        <ele>2065</ele>
        <time>2020-07-07T10:07:57.000Z</time>
      </trkpt>
      <trkpt lat="44.40172" lon="6.40129">
        <ele>2065</ele>
        <time>2020-07-07T10:07:58.000Z</time>
      </trkpt>
      <trkpt lat="44.40172" lon="6.40129">
        <ele>2064</ele>
        <time>2020-07-07T10:07:59.000Z</time>
      </trkpt>
      <trkpt lat="44.40172" lon="6.40129">
        <ele>2064</ele>
        <time>2020-07-07T10:08:00.000Z</time>
      </trkpt>
      <trkpt lat="44.40172" lon="6.40129">
        <ele>2064</ele>
        <time>2020-07-07T10:08:01.000Z</time>
      </trkpt>
      <trkpt lat="44.40171" lon="6.40129">
        <ele>2064</ele>
        <time>2020-07-07T10:08:02.000Z</time>
      </trkpt>
      <trkpt lat="44.40171" lon="6.4013">
        <ele>2064</ele>
        <time>2020-07-07T10:08:03.000Z</time>
      </trkpt>
      <trkpt lat="44.40171" lon="6.4013">
        <ele>2064</ele>
        <time>2020-07-07T10:08:04.000Z</time>
      </trkpt>
      <trkpt lat="44.40171" lon="6.4013">
        <ele>2064</ele>
        <time>2020-07-07T10:08:05.000Z</time>
      </trkpt>
      <trkpt lat="44.40171" lon="6.4013">
        <ele>2064</ele>
        <time>2020-07-07T10:08:06.000Z</time>
      </trkpt>
      <trkpt lat="44.40171" lon="6.4013">
        <ele>2064</ele>
        <time>2020-07-07T10:08:07.000Z</time>
      </trkpt>
      <trkpt lat="44.40171" lon="6.4013">
        <ele>2064</ele>
        <time>2020-07-07T10:08:08.000Z</time>
      </trkpt>
      <trkpt lat="44.40171" lon="6.4013">
        <ele>2064</ele>
        <time>2020-07-07T10:08:09.000Z</time>
      </trkpt>
      <trkpt lat="44.40171" lon="6.40131">
        <ele>2064</ele>
        <time>2020-07-07T10:08:10.000Z</time>
      </trkpt>
      <trkpt lat="44.40171" lon="6.40131">
        <ele>2064</ele>
        <time>2020-07-07T10:08:11.000Z</time>
      </trkpt>
      <trkpt lat="44.40171" lon="6.40131">
        <ele>2064</ele>
        <time>2020-07-07T10:08:12.000Z</time>
      </trkpt>
      <trkpt lat="44.40171" lon="6.40131">
        <ele>2064</ele>
        <time>2020-07-07T10:08:13.000Z</time>
      </trkpt>
      <trkpt lat="44.40172" lon="6.40134">
        <ele>2071</ele>
        <time>2020-07-07T10:08:14.000Z</time>
      </trkpt>
      <trkpt lat="44.40172" lon="6.40134">
        <ele>2071</ele>
        <time>2020-07-07T10:08:15.000Z</time>
      </trkpt>
      <trkpt lat="44.40172" lon="6.40135">
        <ele>2072</ele>
        <time>2020-07-07T10:08:16.000Z</time>
      </trkpt>
      <trkpt lat="44.40171" lon="6.40134">
        <ele>2072</ele>
        <time>2020-07-07T10:08:17.000Z</time>
      </trkpt>
      <trkpt lat="44.40171" lon="6.40134">
        <ele>2072</ele>
        <time>2020-07-07T10:08:18.000Z</time>
      </trkpt>
      <trkpt lat="44.40171" lon="6.40134">
        <ele>2072</ele>
        <time>2020-07-07T10:08:19.000Z</time>
      </trkpt>
      <trkpt lat="44.40171" lon="6.40134">
        <ele>2072</ele>
        <time>2020-07-07T10:08:20.000Z</time>
      </trkpt>
      <trkpt lat="44.40171" lon="6.40133">
        <ele>2072</ele>
        <time>2020-07-07T10:08:21.000Z</time>
      </trkpt>
      <trkpt lat="44.4017" lon="6.40134">
        <ele>2072</ele>
        <time>2020-07-07T10:08:22.000Z</time>
      </trkpt>
      <trkpt lat="44.4017" lon="6.40134">
        <ele>2072</ele>
        <time>2020-07-07T10:08:23.000Z</time>
      </trkpt>
      <trkpt lat="44.4017" lon="6.40134">
        <ele>2072</ele>
        <time>2020-07-07T10:08:24.000Z</time>
      </trkpt>
      <trkpt lat="44.4017" lon="6.40134">
        <ele>2072</ele>
        <time>2020-07-07T10:08:25.000Z</time>
      </trkpt>
      <trkpt lat="44.4017" lon="6.40134">
        <ele>2072</ele>
        <time>2020-07-07T10:08:26.000Z</time>
      </trkpt>
      <trkpt lat="44.4017" lon="6.40134">
        <ele>2072</ele>
        <time>2020-07-07T10:08:27.000Z</time>
      </trkpt>
      <trkpt lat="44.4017" lon="6.40133">
        <ele>2072</ele>
        <time>2020-07-07T10:08:28.000Z</time>
      </trkpt>
      <trkpt lat="44.4017" lon="6.40133">
        <ele>2072</ele>
        <time>2020-07-07T10:08:29.000Z</time>
      </trkpt>
      <trkpt lat="44.40171" lon="6.40133">
        <ele>2072</ele>
        <time>2020-07-07T10:08:30.000Z</time>
      </trkpt>
      <trkpt lat="44.40171" lon="6.40133">
        <ele>2072</ele>
        <time>2020-07-07T10:08:31.000Z</time>
      </trkpt>
      <trkpt lat="44.40172" lon="6.40132">
        <ele>2072</ele>
        <time>2020-07-07T10:08:32.000Z</time>
      </trkpt>
      <trkpt lat="44.40173" lon="6.40133">
        <ele>2072</ele>
        <time>2020-07-07T10:08:33.000Z</time>
      </trkpt>
      <trkpt lat="44.40173" lon="6.40133">
        <ele>2072</ele>
        <time>2020-07-07T10:08:34.000Z</time>
      </trkpt>
      <trkpt lat="44.40174" lon="6.40133">
        <ele>2072</ele>
        <time>2020-07-07T10:08:35.000Z</time>
      </trkpt>
      <trkpt lat="44.40174" lon="6.40132">
        <ele>2072</ele>
        <time>2020-07-07T10:08:36.000Z</time>
      </trkpt>
      <trkpt lat="44.40175" lon="6.40132">
        <ele>2072</ele>
        <time>2020-07-07T10:08:37.000Z</time>
      </trkpt>
      <trkpt lat="44.40176" lon="6.40131">
        <ele>2072</ele>
        <time>2020-07-07T10:08:38.000Z</time>
      </trkpt>
      <trkpt lat="44.40177" lon="6.40131">
        <ele>2072</ele>
        <time>2020-07-07T10:08:39.000Z</time>
      </trkpt>
      <trkpt lat="44.40177" lon="6.4013">
        <ele>2072</ele>
        <time>2020-07-07T10:08:40.000Z</time>
      </trkpt>
      <trkpt lat="44.40178" lon="6.4013">
        <ele>2071</ele>
        <time>2020-07-07T10:08:41.000Z</time>
      </trkpt>
      <trkpt lat="44.40177" lon="6.40129">
        <ele>2071</ele>
        <time>2020-07-07T10:08:42.000Z</time>
      </trkpt>
      <trkpt lat="44.40177" lon="6.40128">
        <ele>2071</ele>
        <time>2020-07-07T10:08:43.000Z</time>
      </trkpt>
      <trkpt lat="44.40176" lon="6.40127">
        <ele>2071</ele>
        <time>2020-07-07T10:08:44.000Z</time>
      </trkpt>
      <trkpt lat="44.40176" lon="6.40126">
        <ele>2071</ele>
        <time>2020-07-07T10:08:45.000Z</time>
      </trkpt>
      <trkpt lat="44.40176" lon="6.40125">
        <ele>2070</ele>
        <time>2020-07-07T10:08:46.000Z</time>
      </trkpt>
      <trkpt lat="44.40176" lon="6.40124">
        <ele>2070</ele>
        <time>2020-07-07T10:08:47.000Z</time>
      </trkpt>
      <trkpt lat="44.40177" lon="6.40123">
        <ele>2070</ele>
        <time>2020-07-07T10:08:48.000Z</time>
      </trkpt>
      <trkpt lat="44.40177" lon="6.40122">
        <ele>2070</ele>
        <time>2020-07-07T10:08:49.000Z</time>
      </trkpt>
      <trkpt lat="44.40177" lon="6.40121">
        <ele>2069</ele>
        <time>2020-07-07T10:08:50.000Z</time>
      </trkpt>
      <trkpt lat="44.40177" lon="6.4012">
        <ele>2069</ele>
        <time>2020-07-07T10:08:51.000Z</time>
      </trkpt>
      <trkpt lat="44.40178" lon="6.40119">
        <ele>2069</ele>
        <time>2020-07-07T10:08:52.000Z</time>
      </trkpt>
      <trkpt lat="44.40178" lon="6.40119">
        <ele>2069</ele>
        <time>2020-07-07T10:08:53.000Z</time>
      </trkpt>
      <trkpt lat="44.40178" lon="6.40119">
        <ele>2068</ele>
        <time>2020-07-07T10:08:54.000Z</time>
      </trkpt>
      <trkpt lat="44.40178" lon="6.40119">
        <ele>2068</ele>
        <time>2020-07-07T10:08:55.000Z</time>
      </trkpt>
      <trkpt lat="44.40178" lon="6.40119">
        <ele>2068</ele>
        <time>2020-07-07T10:08:56.000Z</time>
      </trkpt>
      <trkpt lat="44.40178" lon="6.40119">
        <ele>2068</ele>
        <time>2020-07-07T10:08:57.000Z</time>
      </trkpt>
      <trkpt lat="44.40178" lon="6.40119">
        <ele>2068</ele>
        <time>2020-07-07T10:08:58.000Z</time>
      </trkpt>
      <trkpt lat="44.40179" lon="6.40119">
        <ele>2067</ele>
        <time>2020-07-07T10:08:59.000Z</time>
      </trkpt>
      <trkpt lat="44.4018" lon="6.4012">
        <ele>2067</ele>
        <time>2020-07-07T10:09:00.000Z</time>
      </trkpt>
      <trkpt lat="44.4018" lon="6.40121">
        <ele>2067</ele>
        <time>2020-07-07T10:09:01.000Z</time>
      </trkpt>
      <trkpt lat="44.40181" lon="6.40121">
        <ele>2067</ele>
        <time>2020-07-07T10:09:02.000Z</time>
      </trkpt>
      <trkpt lat="44.40182" lon="6.40121">
        <ele>2067</ele>
        <time>2020-07-07T10:09:03.000Z</time>
      </trkpt>
      <trkpt lat="44.40183" lon="6.4012">
        <ele>2067</ele>
        <time>2020-07-07T10:09:04.000Z</time>
      </trkpt>
      <trkpt lat="44.40183" lon="6.4012">
        <ele>2067</ele>
        <time>2020-07-07T10:09:05.000Z</time>
      </trkpt>
      <trkpt lat="44.40184" lon="6.4012">
        <ele>2067</ele>
        <time>2020-07-07T10:09:06.000Z</time>
      </trkpt>
      <trkpt lat="44.40185" lon="6.40119">
        <ele>2066</ele>
        <time>2020-07-07T10:09:07.000Z</time>
      </trkpt>
      <trkpt lat="44.40185" lon="6.40119">
        <ele>2066</ele>
        <time>2020-07-07T10:09:08.000Z</time>
      </trkpt>
      <trkpt lat="44.40185" lon="6.40118">
        <ele>2066</ele>
        <time>2020-07-07T10:09:09.000Z</time>
      </trkpt>
      <trkpt lat="44.40185" lon="6.40118">
        <ele>2066</ele>
        <time>2020-07-07T10:09:10.000Z</time>
      </trkpt>
      <trkpt lat="44.40186" lon="6.40117">
        <ele>2066</ele>
        <time>2020-07-07T10:09:11.000Z</time>
      </trkpt>
      <trkpt lat="44.40187" lon="6.40116">
        <ele>2066</ele>
        <time>2020-07-07T10:09:12.000Z</time>
      </trkpt>
      <trkpt lat="44.40187" lon="6.40116">
        <ele>2066</ele>
        <time>2020-07-07T10:09:13.000Z</time>
      </trkpt>
      <trkpt lat="44.40188" lon="6.40115">
        <ele>2066</ele>
        <time>2020-07-07T10:09:14.000Z</time>
      </trkpt>
      <trkpt lat="44.40189" lon="6.40114">
        <ele>2066</ele>
        <time>2020-07-07T10:09:15.000Z</time>
      </trkpt>
      <trkpt lat="44.40189" lon="6.40113">
        <ele>2066</ele>
        <time>2020-07-07T10:09:16.000Z</time>
      </trkpt>
      <trkpt lat="44.4019" lon="6.40112">
        <ele>2066</ele>
        <time>2020-07-07T10:09:17.000Z</time>
      </trkpt>
      <trkpt lat="44.40191" lon="6.40112">
        <ele>2066</ele>
        <time>2020-07-07T10:09:18.000Z</time>
      </trkpt>
      <trkpt lat="44.40192" lon="6.40112">
        <ele>2066</ele>
        <time>2020-07-07T10:09:19.000Z</time>
      </trkpt>
      <trkpt lat="44.40192" lon="6.40111">
        <ele>2066</ele>
        <time>2020-07-07T10:09:20.000Z</time>
      </trkpt>
      <trkpt lat="44.40193" lon="6.40111">
        <ele>2066</ele>
        <time>2020-07-07T10:09:21.000Z</time>
      </trkpt>
      <trkpt lat="44.40194" lon="6.4011">
        <ele>2066</ele>
        <time>2020-07-07T10:09:22.000Z</time>
      </trkpt>
      <trkpt lat="44.40195" lon="6.4011">
        <ele>2066</ele>
        <time>2020-07-07T10:09:23.000Z</time>
      </trkpt>
      <trkpt lat="44.40196" lon="6.4011">
        <ele>2066</ele>
        <time>2020-07-07T10:09:24.000Z</time>
      </trkpt>
      <trkpt lat="44.40197" lon="6.40109">
        <ele>2066</ele>
        <time>2020-07-07T10:09:25.000Z</time>
      </trkpt>
      <trkpt lat="44.40197" lon="6.40109">
        <ele>2066</ele>
        <time>2020-07-07T10:09:26.000Z</time>
      </trkpt>
      <trkpt lat="44.40198" lon="6.40108">
        <ele>2066</ele>
        <time>2020-07-07T10:09:27.000Z</time>
      </trkpt>
      <trkpt lat="44.40198" lon="6.40107">
        <ele>2066</ele>
        <time>2020-07-07T10:09:28.000Z</time>
      </trkpt>
      <trkpt lat="44.40199" lon="6.40107">
        <ele>2066</ele>
        <time>2020-07-07T10:09:29.000Z</time>
      </trkpt>
      <trkpt lat="44.402" lon="6.40107">
        <ele>2066</ele>
        <time>2020-07-07T10:09:30.000Z</time>
      </trkpt>
      <trkpt lat="44.40201" lon="6.40107">
        <ele>2066</ele>
        <time>2020-07-07T10:09:31.000Z</time>
      </trkpt>
      <trkpt lat="44.40202" lon="6.40107">
        <ele>2066</ele>
        <time>2020-07-07T10:09:32.000Z</time>
      </trkpt>
      <trkpt lat="44.40202" lon="6.40108">
        <ele>2066</ele>
        <time>2020-07-07T10:09:33.000Z</time>
      </trkpt>
      <trkpt lat="44.40202" lon="6.40108">
        <ele>2066</ele>
        <time>2020-07-07T10:09:34.000Z</time>
      </trkpt>
      <trkpt lat="44.40202" lon="6.40108">
        <ele>2066</ele>
        <time>2020-07-07T10:09:35.000Z</time>
      </trkpt>
      <trkpt lat="44.40203" lon="6.40108">
        <ele>2066</ele>
        <time>2020-07-07T10:09:36.000Z</time>
      </trkpt>
      <trkpt lat="44.40203" lon="6.40108">
        <ele>2066</ele>
        <time>2020-07-07T10:09:37.000Z</time>
      </trkpt>
      <trkpt lat="44.40203" lon="6.40108">
        <ele>2066</ele>
        <time>2020-07-07T10:09:38.000Z</time>
      </trkpt>
      <trkpt lat="44.40203" lon="6.40108">
        <ele>2066</ele>
        <time>2020-07-07T10:09:39.000Z</time>
      </trkpt>
      <trkpt lat="44.40203" lon="6.40108">
        <ele>2066</ele>
        <time>2020-07-07T10:09:40.000Z</time>
      </trkpt>
      <trkpt lat="44.40203" lon="6.40108">
        <ele>2066</ele>
        <time>2020-07-07T10:09:41.000Z</time>
      </trkpt>
      <trkpt lat="44.40204" lon="6.40108">
        <ele>2066</ele>
        <time>2020-07-07T10:09:42.000Z</time>
      </trkpt>
      <trkpt lat="44.40204" lon="6.40108">
        <ele>2066</ele>
        <time>2020-07-07T10:09:43.000Z</time>
      </trkpt>
      <trkpt lat="44.40204" lon="6.40108">
        <ele>2066</ele>
        <time>2020-07-07T10:09:44.000Z</time>
      </trkpt>
      <trkpt lat="44.40204" lon="6.40108">
        <ele>2066</ele>
        <time>2020-07-07T10:09:45.000Z</time>
      </trkpt>
      <trkpt lat="44.40204" lon="6.40108">
        <ele>2066</ele>
        <time>2020-07-07T10:09:46.000Z</time>
      </trkpt>
      <trkpt lat="44.40204" lon="6.40108">
        <ele>2066</ele>
        <time>2020-07-07T10:09:47.000Z</time>
      </trkpt>
      <trkpt lat="44.40204" lon="6.40108">
        <ele>2066</ele>
        <time>2020-07-07T10:09:48.000Z</time>
      </trkpt>
      <trkpt lat="44.40204" lon="6.40109">
        <ele>2066</ele>
        <time>2020-07-07T10:09:49.000Z</time>
      </trkpt>
      <trkpt lat="44.40204" lon="6.40109">
        <ele>2066</ele>
        <time>2020-07-07T10:09:50.000Z</time>
      </trkpt>
      <trkpt lat="44.40204" lon="6.40109">
        <ele>2066</ele>
        <time>2020-07-07T10:09:51.000Z</time>
      </trkpt>
      <trkpt lat="44.40204" lon="6.40109">
        <ele>2066</ele>
        <time>2020-07-07T10:09:52.000Z</time>
      </trkpt>
      <trkpt lat="44.40204" lon="6.40109">
        <ele>2066</ele>
        <time>2020-07-07T10:09:53.000Z</time>
      </trkpt>
      <trkpt lat="44.40204" lon="6.40109">
        <ele>2065</ele>
        <time>2020-07-07T10:09:54.000Z</time>
      </trkpt>
      <trkpt lat="44.40204" lon="6.40109">
        <ele>2065</ele>
        <time>2020-07-07T10:09:55.000Z</time>
      </trkpt>
      <trkpt lat="44.40205" lon="6.4011">
        <ele>2065</ele>
        <time>2020-07-07T10:09:56.000Z</time>
      </trkpt>
      <trkpt lat="44.40205" lon="6.4011">
        <ele>2065</ele>
        <time>2020-07-07T10:09:57.000Z</time>
      </trkpt>
      <trkpt lat="44.40206" lon="6.40111">
        <ele>2065</ele>
        <time>2020-07-07T10:09:58.000Z</time>
      </trkpt>
      <trkpt lat="44.40206" lon="6.40111">
        <ele>2065</ele>
        <time>2020-07-07T10:09:59.000Z</time>
      </trkpt>
      <trkpt lat="44.40207" lon="6.40112">
        <ele>2065</ele>
        <time>2020-07-07T10:10:00.000Z</time>
      </trkpt>
      <trkpt lat="44.40208" lon="6.40113">
        <ele>2065</ele>
        <time>2020-07-07T10:10:01.000Z</time>
      </trkpt>
      <trkpt lat="44.40208" lon="6.40113">
        <ele>2065</ele>
        <time>2020-07-07T10:10:02.000Z</time>
      </trkpt>
      <trkpt lat="44.40209" lon="6.40113">
        <ele>2065</ele>
        <time>2020-07-07T10:10:03.000Z</time>
      </trkpt>
      <trkpt lat="44.4021" lon="6.40114">
        <ele>2065</ele>
        <time>2020-07-07T10:10:04.000Z</time>
      </trkpt>
      <trkpt lat="44.4021" lon="6.40114">
        <ele>2065</ele>
        <time>2020-07-07T10:10:05.000Z</time>
      </trkpt>
      <trkpt lat="44.40211" lon="6.40114">
        <ele>2065</ele>
        <time>2020-07-07T10:10:06.000Z</time>
      </trkpt>
      <trkpt lat="44.40211" lon="6.40114">
        <ele>2065</ele>
        <time>2020-07-07T10:10:07.000Z</time>
      </trkpt>
      <trkpt lat="44.40211" lon="6.40114">
        <ele>2065</ele>
        <time>2020-07-07T10:10:08.000Z</time>
      </trkpt>
      <trkpt lat="44.40212" lon="6.40114">
        <ele>2065</ele>
        <time>2020-07-07T10:10:09.000Z</time>
      </trkpt>
      <trkpt lat="44.40212" lon="6.40115">
        <ele>2065</ele>
        <time>2020-07-07T10:10:10.000Z</time>
      </trkpt>
      <trkpt lat="44.40213" lon="6.40115">
        <ele>2065</ele>
        <time>2020-07-07T10:10:11.000Z</time>
      </trkpt>
      <trkpt lat="44.40213" lon="6.40116">
        <ele>2065</ele>
        <time>2020-07-07T10:10:12.000Z</time>
      </trkpt>
      <trkpt lat="44.40213" lon="6.40117">
        <ele>2065</ele>
        <time>2020-07-07T10:10:13.000Z</time>
      </trkpt>
      <trkpt lat="44.40214" lon="6.40118">
        <ele>2064</ele>
        <time>2020-07-07T10:10:14.000Z</time>
      </trkpt>
      <trkpt lat="44.40214" lon="6.40119">
        <ele>2064</ele>
        <time>2020-07-07T10:10:15.000Z</time>
      </trkpt>
      <trkpt lat="44.40214" lon="6.40119">
        <ele>2064</ele>
        <time>2020-07-07T10:10:16.000Z</time>
      </trkpt>
      <trkpt lat="44.40214" lon="6.4012">
        <ele>2064</ele>
        <time>2020-07-07T10:10:17.000Z</time>
      </trkpt>
      <trkpt lat="44.40214" lon="6.4012">
        <ele>2064</ele>
        <time>2020-07-07T10:10:18.000Z</time>
      </trkpt>
      <trkpt lat="44.40214" lon="6.4012">
        <ele>2064</ele>
        <time>2020-07-07T10:10:19.000Z</time>
      </trkpt>
      <trkpt lat="44.40214" lon="6.4012">
        <ele>2063</ele>
        <time>2020-07-07T10:10:20.000Z</time>
      </trkpt>
      <trkpt lat="44.40215" lon="6.4012">
        <ele>2063</ele>
        <time>2020-07-07T10:10:21.000Z</time>
      </trkpt>
      <trkpt lat="44.40215" lon="6.4012">
        <ele>2063</ele>
        <time>2020-07-07T10:10:22.000Z</time>
      </trkpt>
      <trkpt lat="44.40215" lon="6.40121">
        <ele>2063</ele>
        <time>2020-07-07T10:10:23.000Z</time>
      </trkpt>
      <trkpt lat="44.40216" lon="6.40121">
        <ele>2063</ele>
        <time>2020-07-07T10:10:24.000Z</time>
      </trkpt>
      <trkpt lat="44.40216" lon="6.40122">
        <ele>2063</ele>
        <time>2020-07-07T10:10:25.000Z</time>
      </trkpt>
      <trkpt lat="44.40216" lon="6.40123">
        <ele>2063</ele>
        <time>2020-07-07T10:10:26.000Z</time>
      </trkpt>
      <trkpt lat="44.40217" lon="6.40123">
        <ele>2062</ele>
        <time>2020-07-07T10:10:27.000Z</time>
      </trkpt>
      <trkpt lat="44.40218" lon="6.40124">
        <ele>2062</ele>
        <time>2020-07-07T10:10:28.000Z</time>
      </trkpt>
      <trkpt lat="44.40218" lon="6.40124">
        <ele>2062</ele>
        <time>2020-07-07T10:10:29.000Z</time>
      </trkpt>
      <trkpt lat="44.40218" lon="6.40125">
        <ele>2062</ele>
        <time>2020-07-07T10:10:30.000Z</time>
      </trkpt>
      <trkpt lat="44.40219" lon="6.40126">
        <ele>2062</ele>
        <time>2020-07-07T10:10:31.000Z</time>
      </trkpt>
      <trkpt lat="44.40219" lon="6.40128">
        <ele>2061</ele>
        <time>2020-07-07T10:10:32.000Z</time>
      </trkpt>
      <trkpt lat="44.40219" lon="6.40129">
        <ele>2061</ele>
        <time>2020-07-07T10:10:33.000Z</time>
      </trkpt>
      <trkpt lat="44.40219" lon="6.40131">
        <ele>2061</ele>
        <time>2020-07-07T10:10:34.000Z</time>
      </trkpt>
      <trkpt lat="44.40219" lon="6.40133">
        <ele>2061</ele>
        <time>2020-07-07T10:10:35.000Z</time>
      </trkpt>
      <trkpt lat="44.4022" lon="6.40134">
        <ele>2061</ele>
        <time>2020-07-07T10:10:36.000Z</time>
      </trkpt>
      <trkpt lat="44.4022" lon="6.40135">
        <ele>2061</ele>
        <time>2020-07-07T10:10:37.000Z</time>
      </trkpt>
      <trkpt lat="44.4022" lon="6.40136">
        <ele>2061</ele>
        <time>2020-07-07T10:10:38.000Z</time>
      </trkpt>
      <trkpt lat="44.40221" lon="6.40137">
        <ele>2061</ele>
        <time>2020-07-07T10:10:39.000Z</time>
      </trkpt>
      <trkpt lat="44.40221" lon="6.40138">
        <ele>2060</ele>
        <time>2020-07-07T10:10:40.000Z</time>
      </trkpt>
      <trkpt lat="44.40221" lon="6.40139">
        <ele>2060</ele>
        <time>2020-07-07T10:10:41.000Z</time>
      </trkpt>
      <trkpt lat="44.40222" lon="6.40141">
        <ele>2060</ele>
        <time>2020-07-07T10:10:42.000Z</time>
      </trkpt>
      <trkpt lat="44.40222" lon="6.40141">
        <ele>2060</ele>
        <time>2020-07-07T10:10:43.000Z</time>
      </trkpt>
      <trkpt lat="44.40223" lon="6.40142">
        <ele>2060</ele>
        <time>2020-07-07T10:10:44.000Z</time>
      </trkpt>
      <trkpt lat="44.40223" lon="6.40143">
        <ele>2059</ele>
        <time>2020-07-07T10:10:45.000Z</time>
      </trkpt>
      <trkpt lat="44.40224" lon="6.40143">
        <ele>2059</ele>
        <time>2020-07-07T10:10:46.000Z</time>
      </trkpt>
      <trkpt lat="44.40224" lon="6.40144">
        <ele>2059</ele>
        <time>2020-07-07T10:10:47.000Z</time>
      </trkpt>
      <trkpt lat="44.40225" lon="6.40145">
        <ele>2059</ele>
        <time>2020-07-07T10:10:48.000Z</time>
      </trkpt>
      <trkpt lat="44.40225" lon="6.40146">
        <ele>2059</ele>
        <time>2020-07-07T10:10:49.000Z</time>
      </trkpt>
      <trkpt lat="44.40225" lon="6.40148">
        <ele>2059</ele>
        <time>2020-07-07T10:10:50.000Z</time>
      </trkpt>
      <trkpt lat="44.40225" lon="6.40149">
        <ele>2059</ele>
        <time>2020-07-07T10:10:51.000Z</time>
      </trkpt>
      <trkpt lat="44.40226" lon="6.40151">
        <ele>2059</ele>
        <time>2020-07-07T10:10:52.000Z</time>
      </trkpt>
      <trkpt lat="44.40226" lon="6.40152">
        <ele>2059</ele>
        <time>2020-07-07T10:10:53.000Z</time>
      </trkpt>
      <trkpt lat="44.40227" lon="6.40153">
        <ele>2059</ele>
        <time>2020-07-07T10:10:54.000Z</time>
      </trkpt>
      <trkpt lat="44.40228" lon="6.40155">
        <ele>2058</ele>
        <time>2020-07-07T10:10:55.000Z</time>
      </trkpt>
      <trkpt lat="44.40229" lon="6.40156">
        <ele>2058</ele>
        <time>2020-07-07T10:10:56.000Z</time>
      </trkpt>
      <trkpt lat="44.4023" lon="6.40157">
        <ele>2058</ele>
        <time>2020-07-07T10:10:57.000Z</time>
      </trkpt>
      <trkpt lat="44.4023" lon="6.40158">
        <ele>2059</ele>
        <time>2020-07-07T10:10:58.000Z</time>
      </trkpt>
      <trkpt lat="44.4023" lon="6.40159">
        <ele>2059</ele>
        <time>2020-07-07T10:10:59.000Z</time>
      </trkpt>
      <trkpt lat="44.40231" lon="6.4016">
        <ele>2059</ele>
        <time>2020-07-07T10:11:00.000Z</time>
      </trkpt>
      <trkpt lat="44.40231" lon="6.4016">
        <ele>2059</ele>
        <time>2020-07-07T10:11:01.000Z</time>
      </trkpt>
      <trkpt lat="44.40232" lon="6.40161">
        <ele>2059</ele>
        <time>2020-07-07T10:11:02.000Z</time>
      </trkpt>
      <trkpt lat="44.40233" lon="6.40161">
        <ele>2059</ele>
        <time>2020-07-07T10:11:03.000Z</time>
      </trkpt>
      <trkpt lat="44.40233" lon="6.40162">
        <ele>2059</ele>
        <time>2020-07-07T10:11:04.000Z</time>
      </trkpt>
      <trkpt lat="44.40233" lon="6.40164">
        <ele>2059</ele>
        <time>2020-07-07T10:11:05.000Z</time>
      </trkpt>
      <trkpt lat="44.40233" lon="6.40165">
        <ele>2059</ele>
        <time>2020-07-07T10:11:06.000Z</time>
      </trkpt>
      <trkpt lat="44.40234" lon="6.40166">
        <ele>2059</ele>
        <time>2020-07-07T10:11:07.000Z</time>
      </trkpt>
      <trkpt lat="44.40234" lon="6.40167">
        <ele>2059</ele>
        <time>2020-07-07T10:11:08.000Z</time>
      </trkpt>
      <trkpt lat="44.40234" lon="6.40169">
        <ele>2059</ele>
        <time>2020-07-07T10:11:09.000Z</time>
      </trkpt>
      <trkpt lat="44.40234" lon="6.4017">
        <ele>2059</ele>
        <time>2020-07-07T10:11:10.000Z</time>
      </trkpt>
      <trkpt lat="44.40234" lon="6.40172">
        <ele>2059</ele>
        <time>2020-07-07T10:11:11.000Z</time>
      </trkpt>
      <trkpt lat="44.40235" lon="6.40173">
        <ele>2059</ele>
        <time>2020-07-07T10:11:12.000Z</time>
      </trkpt>
      <trkpt lat="44.40236" lon="6.40174">
        <ele>2059</ele>
        <time>2020-07-07T10:11:13.000Z</time>
      </trkpt>
      <trkpt lat="44.40236" lon="6.40175">
        <ele>2058</ele>
        <time>2020-07-07T10:11:14.000Z</time>
      </trkpt>
      <trkpt lat="44.40237" lon="6.40176">
        <ele>2058</ele>
        <time>2020-07-07T10:11:15.000Z</time>
      </trkpt>
      <trkpt lat="44.40238" lon="6.40177">
        <ele>2058</ele>
        <time>2020-07-07T10:11:16.000Z</time>
      </trkpt>
      <trkpt lat="44.40239" lon="6.40178">
        <ele>2058</ele>
        <time>2020-07-07T10:11:17.000Z</time>
      </trkpt>
      <trkpt lat="44.40239" lon="6.40179">
        <ele>2058</ele>
        <time>2020-07-07T10:11:18.000Z</time>
      </trkpt>
      <trkpt lat="44.40239" lon="6.4018">
        <ele>2058</ele>
        <time>2020-07-07T10:11:19.000Z</time>
      </trkpt>
      <trkpt lat="44.40239" lon="6.40181">
        <ele>2058</ele>
        <time>2020-07-07T10:11:20.000Z</time>
      </trkpt>
      <trkpt lat="44.40239" lon="6.40182">
        <ele>2058</ele>
        <time>2020-07-07T10:11:21.000Z</time>
      </trkpt>
      <trkpt lat="44.40239" lon="6.40184">
        <ele>2058</ele>
        <time>2020-07-07T10:11:22.000Z</time>
      </trkpt>
      <trkpt lat="44.40239" lon="6.40185">
        <ele>2058</ele>
        <time>2020-07-07T10:11:23.000Z</time>
      </trkpt>
      <trkpt lat="44.4024" lon="6.40186">
        <ele>2058</ele>
        <time>2020-07-07T10:11:24.000Z</time>
      </trkpt>
      <trkpt lat="44.4024" lon="6.40187">
        <ele>2058</ele>
        <time>2020-07-07T10:11:25.000Z</time>
      </trkpt>
      <trkpt lat="44.4024" lon="6.40187">
        <ele>2058</ele>
        <time>2020-07-07T10:11:26.000Z</time>
      </trkpt>
      <trkpt lat="44.40241" lon="6.40188">
        <ele>2058</ele>
        <time>2020-07-07T10:11:27.000Z</time>
      </trkpt>
      <trkpt lat="44.40241" lon="6.40188">
        <ele>2058</ele>
        <time>2020-07-07T10:11:28.000Z</time>
      </trkpt>
      <trkpt lat="44.40241" lon="6.40188">
        <ele>2058</ele>
        <time>2020-07-07T10:11:29.000Z</time>
      </trkpt>
      <trkpt lat="44.40241" lon="6.40188">
        <ele>2058</ele>
        <time>2020-07-07T10:11:30.000Z</time>
      </trkpt>
      <trkpt lat="44.40241" lon="6.40188">
        <ele>2058</ele>
        <time>2020-07-07T10:11:31.000Z</time>
      </trkpt>
      <trkpt lat="44.40241" lon="6.40188">
        <ele>2058</ele>
        <time>2020-07-07T10:11:32.000Z</time>
      </trkpt>
      <trkpt lat="44.40241" lon="6.40188">
        <ele>2058</ele>
        <time>2020-07-07T10:11:33.000Z</time>
      </trkpt>
      <trkpt lat="44.40241" lon="6.40188">
        <ele>2058</ele>
        <time>2020-07-07T10:11:34.000Z</time>
      </trkpt>
      <trkpt lat="44.40241" lon="6.40188">
        <ele>2058</ele>
        <time>2020-07-07T10:11:35.000Z</time>
      </trkpt>
      <trkpt lat="44.40241" lon="6.40188">
        <ele>2058</ele>
        <time>2020-07-07T10:11:36.000Z</time>
      </trkpt>
      <trkpt lat="44.40241" lon="6.40188">
        <ele>2058</ele>
        <time>2020-07-07T10:11:37.000Z</time>
      </trkpt>
      <trkpt lat="44.40241" lon="6.40189">
        <ele>2058</ele>
        <time>2020-07-07T10:11:38.000Z</time>
      </trkpt>
      <trkpt lat="44.40242" lon="6.40189">
        <ele>2058</ele>
        <time>2020-07-07T10:11:39.000Z</time>
      </trkpt>
      <trkpt lat="44.40241" lon="6.40189">
        <ele>2058</ele>
        <time>2020-07-07T10:11:40.000Z</time>
      </trkpt>
      <trkpt lat="44.40242" lon="6.4019">
        <ele>2058</ele>
        <time>2020-07-07T10:11:41.000Z</time>
      </trkpt>
      <trkpt lat="44.40242" lon="6.40191">
        <ele>2059</ele>
        <time>2020-07-07T10:11:42.000Z</time>
      </trkpt>
      <trkpt lat="44.40243" lon="6.40192">
        <ele>2059</ele>
        <time>2020-07-07T10:11:43.000Z</time>
      </trkpt>
      <trkpt lat="44.40243" lon="6.40193">
        <ele>2059</ele>
        <time>2020-07-07T10:11:44.000Z</time>
      </trkpt>
      <trkpt lat="44.40244" lon="6.40194">
        <ele>2059</ele>
        <time>2020-07-07T10:11:45.000Z</time>
      </trkpt>
      <trkpt lat="44.40244" lon="6.40195">
        <ele>2059</ele>
        <time>2020-07-07T10:11:46.000Z</time>
      </trkpt>
      <trkpt lat="44.40245" lon="6.40196">
        <ele>2059</ele>
        <time>2020-07-07T10:11:47.000Z</time>
      </trkpt>
      <trkpt lat="44.40245" lon="6.40198">
        <ele>2060</ele>
        <time>2020-07-07T10:11:48.000Z</time>
      </trkpt>
      <trkpt lat="44.40246" lon="6.40199">
        <ele>2060</ele>
        <time>2020-07-07T10:11:49.000Z</time>
      </trkpt>
      <trkpt lat="44.40246" lon="6.402">
        <ele>2060</ele>
        <time>2020-07-07T10:11:50.000Z</time>
      </trkpt>
      <trkpt lat="44.40247" lon="6.40202">
        <ele>2060</ele>
        <time>2020-07-07T10:11:51.000Z</time>
      </trkpt>
      <trkpt lat="44.40247" lon="6.40203">
        <ele>2060</ele>
        <time>2020-07-07T10:11:52.000Z</time>
      </trkpt>
      <trkpt lat="44.40248" lon="6.40204">
        <ele>2060</ele>
        <time>2020-07-07T10:11:53.000Z</time>
      </trkpt>
      <trkpt lat="44.40249" lon="6.40205">
        <ele>2060</ele>
        <time>2020-07-07T10:11:54.000Z</time>
      </trkpt>
      <trkpt lat="44.40249" lon="6.40206">
        <ele>2060</ele>
        <time>2020-07-07T10:11:55.000Z</time>
      </trkpt>
      <trkpt lat="44.4025" lon="6.40206">
        <ele>2060</ele>
        <time>2020-07-07T10:11:56.000Z</time>
      </trkpt>
      <trkpt lat="44.40251" lon="6.40207">
        <ele>2060</ele>
        <time>2020-07-07T10:11:57.000Z</time>
      </trkpt>
      <trkpt lat="44.40252" lon="6.40208">
        <ele>2060</ele>
        <time>2020-07-07T10:11:58.000Z</time>
      </trkpt>
      <trkpt lat="44.40252" lon="6.40209">
        <ele>2060</ele>
        <time>2020-07-07T10:11:59.000Z</time>
      </trkpt>
      <trkpt lat="44.40253" lon="6.40209">
        <ele>2060</ele>
        <time>2020-07-07T10:12:00.000Z</time>
      </trkpt>
      <trkpt lat="44.40254" lon="6.4021">
        <ele>2060</ele>
        <time>2020-07-07T10:12:01.000Z</time>
      </trkpt>
      <trkpt lat="44.40255" lon="6.4021">
        <ele>2061</ele>
        <time>2020-07-07T10:12:02.000Z</time>
      </trkpt>
      <trkpt lat="44.40255" lon="6.4021">
        <ele>2061</ele>
        <time>2020-07-07T10:12:03.000Z</time>
      </trkpt>
      <trkpt lat="44.40255" lon="6.4021">
        <ele>2061</ele>
        <time>2020-07-07T10:12:04.000Z</time>
      </trkpt>
      <trkpt lat="44.40255" lon="6.4021">
        <ele>2061</ele>
        <time>2020-07-07T10:12:05.000Z</time>
      </trkpt>
      <trkpt lat="44.40256" lon="6.4021">
        <ele>2061</ele>
        <time>2020-07-07T10:12:06.000Z</time>
      </trkpt>
      <trkpt lat="44.40256" lon="6.4021">
        <ele>2060</ele>
        <time>2020-07-07T10:12:07.000Z</time>
      </trkpt>
      <trkpt lat="44.40256" lon="6.4021">
        <ele>2060</ele>
        <time>2020-07-07T10:12:08.000Z</time>
      </trkpt>
      <trkpt lat="44.40255" lon="6.4021">
        <ele>2060</ele>
        <time>2020-07-07T10:12:09.000Z</time>
      </trkpt>
      <trkpt lat="44.40255" lon="6.40209">
        <ele>2060</ele>
        <time>2020-07-07T10:12:10.000Z</time>
      </trkpt>
      <trkpt lat="44.40256" lon="6.4021">
        <ele>2060</ele>
        <time>2020-07-07T10:12:11.000Z</time>
      </trkpt>
      <trkpt lat="44.40256" lon="6.4021">
        <ele>2060</ele>
        <time>2020-07-07T10:12:12.000Z</time>
      </trkpt>
      <trkpt lat="44.40256" lon="6.4021">
        <ele>2060</ele>
        <time>2020-07-07T10:12:13.000Z</time>
      </trkpt>
      <trkpt lat="44.40256" lon="6.4021">
        <ele>2060</ele>
        <time>2020-07-07T10:12:14.000Z</time>
      </trkpt>
      <trkpt lat="44.40256" lon="6.4021">
        <ele>2060</ele>
        <time>2020-07-07T10:12:15.000Z</time>
      </trkpt>
      <trkpt lat="44.40256" lon="6.4021">
        <ele>2060</ele>
        <time>2020-07-07T10:12:16.000Z</time>
      </trkpt>
      <trkpt lat="44.40257" lon="6.4021">
        <ele>2060</ele>
        <time>2020-07-07T10:12:17.000Z</time>
      </trkpt>
      <trkpt lat="44.40257" lon="6.4021">
        <ele>2060</ele>
        <time>2020-07-07T10:12:18.000Z</time>
      </trkpt>
      <trkpt lat="44.40257" lon="6.4021">
        <ele>2060</ele>
        <time>2020-07-07T10:12:19.000Z</time>
      </trkpt>
      <trkpt lat="44.40258" lon="6.40211">
        <ele>2060</ele>
        <time>2020-07-07T10:12:20.000Z</time>
      </trkpt>
      <trkpt lat="44.40259" lon="6.40211">
        <ele>2060</ele>
        <time>2020-07-07T10:12:21.000Z</time>
      </trkpt>
      <trkpt lat="44.40259" lon="6.40211">
        <ele>2060</ele>
        <time>2020-07-07T10:12:22.000Z</time>
      </trkpt>
      <trkpt lat="44.4026" lon="6.40211">
        <ele>2060</ele>
        <time>2020-07-07T10:12:23.000Z</time>
      </trkpt>
      <trkpt lat="44.4026" lon="6.40212">
        <ele>2060</ele>
        <time>2020-07-07T10:12:24.000Z</time>
      </trkpt>
      <trkpt lat="44.40261" lon="6.40212">
        <ele>2060</ele>
        <time>2020-07-07T10:12:25.000Z</time>
      </trkpt>
      <trkpt lat="44.40262" lon="6.40212">
        <ele>2060</ele>
        <time>2020-07-07T10:12:26.000Z</time>
      </trkpt>
      <trkpt lat="44.40263" lon="6.40211">
        <ele>2060</ele>
        <time>2020-07-07T10:12:27.000Z</time>
      </trkpt>
      <trkpt lat="44.40264" lon="6.40211">
        <ele>2060</ele>
        <time>2020-07-07T10:12:28.000Z</time>
      </trkpt>
      <trkpt lat="44.40265" lon="6.40211">
        <ele>2060</ele>
        <time>2020-07-07T10:12:29.000Z</time>
      </trkpt>
      <trkpt lat="44.40266" lon="6.40212">
        <ele>2060</ele>
        <time>2020-07-07T10:12:30.000Z</time>
      </trkpt>
      <trkpt lat="44.40267" lon="6.40212">
        <ele>2060</ele>
        <time>2020-07-07T10:12:31.000Z</time>
      </trkpt>
      <trkpt lat="44.40268" lon="6.40212">
        <ele>2060</ele>
        <time>2020-07-07T10:12:32.000Z</time>
      </trkpt>
      <trkpt lat="44.40269" lon="6.40212">
        <ele>2060</ele>
        <time>2020-07-07T10:12:33.000Z</time>
      </trkpt>
      <trkpt lat="44.4027" lon="6.40212">
        <ele>2060</ele>
        <time>2020-07-07T10:12:34.000Z</time>
      </trkpt>
      <trkpt lat="44.40271" lon="6.40212">
        <ele>2060</ele>
        <time>2020-07-07T10:12:35.000Z</time>
      </trkpt>
      <trkpt lat="44.40272" lon="6.40211">
        <ele>2060</ele>
        <time>2020-07-07T10:12:36.000Z</time>
      </trkpt>
      <trkpt lat="44.40272" lon="6.40211">
        <ele>2060</ele>
        <time>2020-07-07T10:12:37.000Z</time>
      </trkpt>
      <trkpt lat="44.40273" lon="6.40211">
        <ele>2060</ele>
        <time>2020-07-07T10:12:38.000Z</time>
      </trkpt>
      <trkpt lat="44.40274" lon="6.40211">
        <ele>2060</ele>
        <time>2020-07-07T10:12:39.000Z</time>
      </trkpt>
      <trkpt lat="44.40274" lon="6.40211">
        <ele>2059</ele>
        <time>2020-07-07T10:12:40.000Z</time>
      </trkpt>
      <trkpt lat="44.40274" lon="6.40211">
        <ele>2059</ele>
        <time>2020-07-07T10:12:41.000Z</time>
      </trkpt>
      <trkpt lat="44.40274" lon="6.40211">
        <ele>2059</ele>
        <time>2020-07-07T10:12:42.000Z</time>
      </trkpt>
      <trkpt lat="44.40274" lon="6.40211">
        <ele>2059</ele>
        <time>2020-07-07T10:12:43.000Z</time>
      </trkpt>
      <trkpt lat="44.40275" lon="6.40211">
        <ele>2059</ele>
        <time>2020-07-07T10:12:44.000Z</time>
      </trkpt>
      <trkpt lat="44.40275" lon="6.40212">
        <ele>2059</ele>
        <time>2020-07-07T10:12:45.000Z</time>
      </trkpt>
      <trkpt lat="44.40276" lon="6.40212">
        <ele>2059</ele>
        <time>2020-07-07T10:12:46.000Z</time>
      </trkpt>
      <trkpt lat="44.40277" lon="6.40212">
        <ele>2059</ele>
        <time>2020-07-07T10:12:47.000Z</time>
      </trkpt>
      <trkpt lat="44.40278" lon="6.40213">
        <ele>2059</ele>
        <time>2020-07-07T10:12:48.000Z</time>
      </trkpt>
      <trkpt lat="44.40279" lon="6.40213">
        <ele>2060</ele>
        <time>2020-07-07T10:12:49.000Z</time>
      </trkpt>
      <trkpt lat="44.40279" lon="6.40213">
        <ele>2060</ele>
        <time>2020-07-07T10:12:50.000Z</time>
      </trkpt>
      <trkpt lat="44.4028" lon="6.40213">
        <ele>2060</ele>
        <time>2020-07-07T10:12:51.000Z</time>
      </trkpt>
      <trkpt lat="44.40281" lon="6.40214">
        <ele>2060</ele>
        <time>2020-07-07T10:12:52.000Z</time>
      </trkpt>
      <trkpt lat="44.40282" lon="6.40214">
        <ele>2060</ele>
        <time>2020-07-07T10:12:53.000Z</time>
      </trkpt>
      <trkpt lat="44.40283" lon="6.40214">
        <ele>2060</ele>
        <time>2020-07-07T10:12:54.000Z</time>
      </trkpt>
      <trkpt lat="44.40284" lon="6.40215">
        <ele>2060</ele>
        <time>2020-07-07T10:12:55.000Z</time>
      </trkpt>
      <trkpt lat="44.40285" lon="6.40216">
        <ele>2060</ele>
        <time>2020-07-07T10:12:56.000Z</time>
      </trkpt>
      <trkpt lat="44.40286" lon="6.40217">
        <ele>2060</ele>
        <time>2020-07-07T10:12:57.000Z</time>
      </trkpt>
      <trkpt lat="44.40287" lon="6.40217">
        <ele>2060</ele>
        <time>2020-07-07T10:12:58.000Z</time>
      </trkpt>
      <trkpt lat="44.40288" lon="6.40217">
        <ele>2060</ele>
        <time>2020-07-07T10:12:59.000Z</time>
      </trkpt>
      <trkpt lat="44.40289" lon="6.40217">
        <ele>2060</ele>
        <time>2020-07-07T10:13:00.000Z</time>
      </trkpt>
      <trkpt lat="44.4029" lon="6.40217">
        <ele>2060</ele>
        <time>2020-07-07T10:13:01.000Z</time>
      </trkpt>
      <trkpt lat="44.40291" lon="6.40217">
        <ele>2060</ele>
        <time>2020-07-07T10:13:02.000Z</time>
      </trkpt>
      <trkpt lat="44.40293" lon="6.40218">
        <ele>2060</ele>
        <time>2020-07-07T10:13:03.000Z</time>
      </trkpt>
      <trkpt lat="44.40294" lon="6.40218">
        <ele>2060</ele>
        <time>2020-07-07T10:13:04.000Z</time>
      </trkpt>
      <trkpt lat="44.40294" lon="6.40218">
        <ele>2060</ele>
        <time>2020-07-07T10:13:05.000Z</time>
      </trkpt>
      <trkpt lat="44.40295" lon="6.40219">
        <ele>2060</ele>
        <time>2020-07-07T10:13:06.000Z</time>
      </trkpt>
      <trkpt lat="44.40296" lon="6.4022">
        <ele>2060</ele>
        <time>2020-07-07T10:13:07.000Z</time>
      </trkpt>
      <trkpt lat="44.40297" lon="6.40222">
        <ele>2060</ele>
        <time>2020-07-07T10:13:08.000Z</time>
      </trkpt>
      <trkpt lat="44.40298" lon="6.40223">
        <ele>2060</ele>
        <time>2020-07-07T10:13:09.000Z</time>
      </trkpt>
      <trkpt lat="44.40299" lon="6.40224">
        <ele>2060</ele>
        <time>2020-07-07T10:13:10.000Z</time>
      </trkpt>
      <trkpt lat="44.403" lon="6.40224">
        <ele>2060</ele>
        <time>2020-07-07T10:13:11.000Z</time>
      </trkpt>
      <trkpt lat="44.40301" lon="6.40225">
        <ele>2060</ele>
        <time>2020-07-07T10:13:12.000Z</time>
      </trkpt>
      <trkpt lat="44.40302" lon="6.40225">
        <ele>2060</ele>
        <time>2020-07-07T10:13:13.000Z</time>
      </trkpt>
      <trkpt lat="44.40303" lon="6.40226">
        <ele>2060</ele>
        <time>2020-07-07T10:13:14.000Z</time>
      </trkpt>
      <trkpt lat="44.40304" lon="6.40226">
        <ele>2060</ele>
        <time>2020-07-07T10:13:15.000Z</time>
      </trkpt>
      <trkpt lat="44.40305" lon="6.40227">
        <ele>2060</ele>
        <time>2020-07-07T10:13:16.000Z</time>
      </trkpt>
      <trkpt lat="44.40306" lon="6.40228">
        <ele>2060</ele>
        <time>2020-07-07T10:13:17.000Z</time>
      </trkpt>
      <trkpt lat="44.40307" lon="6.4023">
        <ele>2060</ele>
        <time>2020-07-07T10:13:18.000Z</time>
      </trkpt>
      <trkpt lat="44.40308" lon="6.40231">
        <ele>2060</ele>
        <time>2020-07-07T10:13:19.000Z</time>
      </trkpt>
      <trkpt lat="44.40309" lon="6.40232">
        <ele>2060</ele>
        <time>2020-07-07T10:13:20.000Z</time>
      </trkpt>
      <trkpt lat="44.4031" lon="6.40232">
        <ele>2060</ele>
        <time>2020-07-07T10:13:21.000Z</time>
      </trkpt>
      <trkpt lat="44.40311" lon="6.40233">
        <ele>2060</ele>
        <time>2020-07-07T10:13:22.000Z</time>
      </trkpt>
      <trkpt lat="44.40312" lon="6.40233">
        <ele>2060</ele>
        <time>2020-07-07T10:13:23.000Z</time>
      </trkpt>
      <trkpt lat="44.40313" lon="6.40234">
        <ele>2060</ele>
        <time>2020-07-07T10:13:24.000Z</time>
      </trkpt>
      <trkpt lat="44.40313" lon="6.40234">
        <ele>2060</ele>
        <time>2020-07-07T10:13:25.000Z</time>
      </trkpt>
      <trkpt lat="44.40314" lon="6.40235">
        <ele>2060</ele>
        <time>2020-07-07T10:13:26.000Z</time>
      </trkpt>
      <trkpt lat="44.40314" lon="6.40235">
        <ele>2060</ele>
        <time>2020-07-07T10:13:27.000Z</time>
      </trkpt>
      <trkpt lat="44.40314" lon="6.40236">
        <ele>2060</ele>
        <time>2020-07-07T10:13:28.000Z</time>
      </trkpt>
      <trkpt lat="44.40314" lon="6.40236">
        <ele>2060</ele>
        <time>2020-07-07T10:13:29.000Z</time>
      </trkpt>
      <trkpt lat="44.40315" lon="6.40237">
        <ele>2060</ele>
        <time>2020-07-07T10:13:30.000Z</time>
      </trkpt>
      <trkpt lat="44.40316" lon="6.40238">
        <ele>2060</ele>
        <time>2020-07-07T10:13:31.000Z</time>
      </trkpt>
      <trkpt lat="44.40317" lon="6.4024">
        <ele>2060</ele>
        <time>2020-07-07T10:13:32.000Z</time>
      </trkpt>
      <trkpt lat="44.40317" lon="6.40242">
        <ele>2061</ele>
        <time>2020-07-07T10:13:33.000Z</time>
      </trkpt>
      <trkpt lat="44.40318" lon="6.40243">
        <ele>2061</ele>
        <time>2020-07-07T10:13:34.000Z</time>
      </trkpt>
      <trkpt lat="44.40318" lon="6.40244">
        <ele>2061</ele>
        <time>2020-07-07T10:13:35.000Z</time>
      </trkpt>
      <trkpt lat="44.40318" lon="6.40245">
        <ele>2061</ele>
        <time>2020-07-07T10:13:36.000Z</time>
      </trkpt>
      <trkpt lat="44.40319" lon="6.40246">
        <ele>2061</ele>
        <time>2020-07-07T10:13:37.000Z</time>
      </trkpt>
      <trkpt lat="44.40319" lon="6.40247">
        <ele>2061</ele>
        <time>2020-07-07T10:13:38.000Z</time>
      </trkpt>
      <trkpt lat="44.40319" lon="6.40248">
        <ele>2061</ele>
        <time>2020-07-07T10:13:39.000Z</time>
      </trkpt>
      <trkpt lat="44.4032" lon="6.40248">
        <ele>2061</ele>
        <time>2020-07-07T10:13:40.000Z</time>
      </trkpt>
      <trkpt lat="44.40321" lon="6.40249">
        <ele>2061</ele>
        <time>2020-07-07T10:13:41.000Z</time>
      </trkpt>
      <trkpt lat="44.40321" lon="6.4025">
        <ele>2061</ele>
        <time>2020-07-07T10:13:42.000Z</time>
      </trkpt>
      <trkpt lat="44.40321" lon="6.4025">
        <ele>2061</ele>
        <time>2020-07-07T10:13:43.000Z</time>
      </trkpt>
      <trkpt lat="44.40321" lon="6.40251">
        <ele>2061</ele>
        <time>2020-07-07T10:13:44.000Z</time>
      </trkpt>
      <trkpt lat="44.40321" lon="6.40251">
        <ele>2061</ele>
        <time>2020-07-07T10:13:45.000Z</time>
      </trkpt>
      <trkpt lat="44.40321" lon="6.40251">
        <ele>2061</ele>
        <time>2020-07-07T10:13:46.000Z</time>
      </trkpt>
      <trkpt lat="44.40321" lon="6.40251">
        <ele>2061</ele>
        <time>2020-07-07T10:13:47.000Z</time>
      </trkpt>
      <trkpt lat="44.40321" lon="6.40251">
        <ele>2061</ele>
        <time>2020-07-07T10:13:48.000Z</time>
      </trkpt>
      <trkpt lat="44.40321" lon="6.40251">
        <ele>2061</ele>
        <time>2020-07-07T10:13:49.000Z</time>
      </trkpt>
      <trkpt lat="44.40321" lon="6.40251">
        <ele>2061</ele>
        <time>2020-07-07T10:13:50.000Z</time>
      </trkpt>
      <trkpt lat="44.40321" lon="6.40251">
        <ele>2061</ele>
        <time>2020-07-07T10:13:51.000Z</time>
      </trkpt>
      <trkpt lat="44.40321" lon="6.40252">
        <ele>2061</ele>
        <time>2020-07-07T10:13:52.000Z</time>
      </trkpt>
      <trkpt lat="44.40321" lon="6.40252">
        <ele>2061</ele>
        <time>2020-07-07T10:13:53.000Z</time>
      </trkpt>
      <trkpt lat="44.40321" lon="6.40253">
        <ele>2061</ele>
        <time>2020-07-07T10:13:54.000Z</time>
      </trkpt>
      <trkpt lat="44.40322" lon="6.40254">
        <ele>2061</ele>
        <time>2020-07-07T10:13:55.000Z</time>
      </trkpt>
      <trkpt lat="44.40322" lon="6.40254">
        <ele>2061</ele>
        <time>2020-07-07T10:13:56.000Z</time>
      </trkpt>
      <trkpt lat="44.40322" lon="6.40255">
        <ele>2061</ele>
        <time>2020-07-07T10:13:57.000Z</time>
      </trkpt>
      <trkpt lat="44.40322" lon="6.40256">
        <ele>2061</ele>
        <time>2020-07-07T10:13:58.000Z</time>
      </trkpt>
      <trkpt lat="44.40323" lon="6.40257">
        <ele>2061</ele>
        <time>2020-07-07T10:13:59.000Z</time>
      </trkpt>
      <trkpt lat="44.40323" lon="6.40258">
        <ele>2061</ele>
        <time>2020-07-07T10:14:00.000Z</time>
      </trkpt>
      <trkpt lat="44.40323" lon="6.40259">
        <ele>2061</ele>
        <time>2020-07-07T10:14:01.000Z</time>
      </trkpt>
      <trkpt lat="44.40324" lon="6.4026">
        <ele>2061</ele>
        <time>2020-07-07T10:14:02.000Z</time>
      </trkpt>
      <trkpt lat="44.40324" lon="6.40261">
        <ele>2061</ele>
        <time>2020-07-07T10:14:03.000Z</time>
      </trkpt>
      <trkpt lat="44.40325" lon="6.40262">
        <ele>2061</ele>
        <time>2020-07-07T10:14:04.000Z</time>
      </trkpt>
      <trkpt lat="44.40325" lon="6.40264">
        <ele>2061</ele>
        <time>2020-07-07T10:14:05.000Z</time>
      </trkpt>
      <trkpt lat="44.40326" lon="6.40265">
        <ele>2061</ele>
        <time>2020-07-07T10:14:06.000Z</time>
      </trkpt>
      <trkpt lat="44.40326" lon="6.40266">
        <ele>2061</ele>
        <time>2020-07-07T10:14:07.000Z</time>
      </trkpt>
      <trkpt lat="44.40326" lon="6.40267">
        <ele>2061</ele>
        <time>2020-07-07T10:14:08.000Z</time>
      </trkpt>
      <trkpt lat="44.40327" lon="6.40268">
        <ele>2061</ele>
        <time>2020-07-07T10:14:09.000Z</time>
      </trkpt>
      <trkpt lat="44.40327" lon="6.4027">
        <ele>2061</ele>
        <time>2020-07-07T10:14:10.000Z</time>
      </trkpt>
      <trkpt lat="44.40327" lon="6.40271">
        <ele>2061</ele>
        <time>2020-07-07T10:14:11.000Z</time>
      </trkpt>
      <trkpt lat="44.40327" lon="6.40272">
        <ele>2061</ele>
        <time>2020-07-07T10:14:12.000Z</time>
      </trkpt>
      <trkpt lat="44.40327" lon="6.40273">
        <ele>2061</ele>
        <time>2020-07-07T10:14:13.000Z</time>
      </trkpt>
      <trkpt lat="44.40327" lon="6.40274">
        <ele>2060</ele>
        <time>2020-07-07T10:14:14.000Z</time>
      </trkpt>
      <trkpt lat="44.40327" lon="6.40274">
        <ele>2060</ele>
        <time>2020-07-07T10:14:15.000Z</time>
      </trkpt>
      <trkpt lat="44.40327" lon="6.40274">
        <ele>2060</ele>
        <time>2020-07-07T10:14:16.000Z</time>
      </trkpt>
      <trkpt lat="44.40327" lon="6.40274">
        <ele>2060</ele>
        <time>2020-07-07T10:14:17.000Z</time>
      </trkpt>
      <trkpt lat="44.40327" lon="6.40274">
        <ele>2060</ele>
        <time>2020-07-07T10:14:18.000Z</time>
      </trkpt>
      <trkpt lat="44.40327" lon="6.40275">
        <ele>2060</ele>
        <time>2020-07-07T10:14:19.000Z</time>
      </trkpt>
      <trkpt lat="44.40327" lon="6.40275">
        <ele>2060</ele>
        <time>2020-07-07T10:14:20.000Z</time>
      </trkpt>
      <trkpt lat="44.40327" lon="6.40275">
        <ele>2060</ele>
        <time>2020-07-07T10:14:21.000Z</time>
      </trkpt>
      <trkpt lat="44.40327" lon="6.40275">
        <ele>2060</ele>
        <time>2020-07-07T10:14:22.000Z</time>
      </trkpt>
      <trkpt lat="44.40328" lon="6.40275">
        <ele>2060</ele>
        <time>2020-07-07T10:14:23.000Z</time>
      </trkpt>
      <trkpt lat="44.40328" lon="6.40275">
        <ele>2060</ele>
        <time>2020-07-07T10:14:24.000Z</time>
      </trkpt>
      <trkpt lat="44.40328" lon="6.40275">
        <ele>2060</ele>
        <time>2020-07-07T10:14:25.000Z</time>
      </trkpt>
      <trkpt lat="44.40328" lon="6.40275">
        <ele>2060</ele>
        <time>2020-07-07T10:14:26.000Z</time>
      </trkpt>
      <trkpt lat="44.40328" lon="6.40276">
        <ele>2059</ele>
        <time>2020-07-07T10:14:27.000Z</time>
      </trkpt>
      <trkpt lat="44.40328" lon="6.40276">
        <ele>2059</ele>
        <time>2020-07-07T10:14:28.000Z</time>
      </trkpt>
      <trkpt lat="44.40327" lon="6.40278">
        <ele>2059</ele>
        <time>2020-07-07T10:14:29.000Z</time>
      </trkpt>
      <trkpt lat="44.40327" lon="6.40279">
        <ele>2059</ele>
        <time>2020-07-07T10:14:30.000Z</time>
      </trkpt>
      <trkpt lat="44.40327" lon="6.4028">
        <ele>2059</ele>
        <time>2020-07-07T10:14:31.000Z</time>
      </trkpt>
      <trkpt lat="44.40327" lon="6.40281">
        <ele>2059</ele>
        <time>2020-07-07T10:14:32.000Z</time>
      </trkpt>
      <trkpt lat="44.40328" lon="6.40282">
        <ele>2059</ele>
        <time>2020-07-07T10:14:33.000Z</time>
      </trkpt>
      <trkpt lat="44.40328" lon="6.40284">
        <ele>2059</ele>
        <time>2020-07-07T10:14:34.000Z</time>
      </trkpt>
      <trkpt lat="44.40328" lon="6.40285">
        <ele>2059</ele>
        <time>2020-07-07T10:14:35.000Z</time>
      </trkpt>
      <trkpt lat="44.40328" lon="6.40286">
        <ele>2059</ele>
        <time>2020-07-07T10:14:36.000Z</time>
      </trkpt>
      <trkpt lat="44.40328" lon="6.40287">
        <ele>2059</ele>
        <time>2020-07-07T10:14:37.000Z</time>
      </trkpt>
      <trkpt lat="44.40328" lon="6.40288">
        <ele>2059</ele>
        <time>2020-07-07T10:14:38.000Z</time>
      </trkpt>
      <trkpt lat="44.40328" lon="6.4029">
        <ele>2060</ele>
        <time>2020-07-07T10:14:39.000Z</time>
      </trkpt>
      <trkpt lat="44.40328" lon="6.40291">
        <ele>2060</ele>
        <time>2020-07-07T10:14:40.000Z</time>
      </trkpt>
      <trkpt lat="44.40328" lon="6.40293">
        <ele>2060</ele>
        <time>2020-07-07T10:14:41.000Z</time>
      </trkpt>
      <trkpt lat="44.40328" lon="6.40294">
        <ele>2060</ele>
        <time>2020-07-07T10:14:42.000Z</time>
      </trkpt>
      <trkpt lat="44.40328" lon="6.40296">
        <ele>2060</ele>
        <time>2020-07-07T10:14:43.000Z</time>
      </trkpt>
      <trkpt lat="44.40328" lon="6.40297">
        <ele>2060</ele>
        <time>2020-07-07T10:14:44.000Z</time>
      </trkpt>
      <trkpt lat="44.40328" lon="6.40298">
        <ele>2060</ele>
        <time>2020-07-07T10:14:45.000Z</time>
      </trkpt>
      <trkpt lat="44.40328" lon="6.40298">
        <ele>2060</ele>
        <time>2020-07-07T10:14:46.000Z</time>
      </trkpt>
      <trkpt lat="44.40328" lon="6.40298">
        <ele>2060</ele>
        <time>2020-07-07T10:14:47.000Z</time>
      </trkpt>
      <trkpt lat="44.40328" lon="6.40298">
        <ele>2060</ele>
        <time>2020-07-07T10:14:48.000Z</time>
      </trkpt>
      <trkpt lat="44.40328" lon="6.40298">
        <ele>2060</ele>
        <time>2020-07-07T10:14:49.000Z</time>
      </trkpt>
      <trkpt lat="44.40329" lon="6.40298">
        <ele>2060</ele>
        <time>2020-07-07T10:14:50.000Z</time>
      </trkpt>
      <trkpt lat="44.40329" lon="6.40298">
        <ele>2060</ele>
        <time>2020-07-07T10:14:51.000Z</time>
      </trkpt>
      <trkpt lat="44.40329" lon="6.40298">
        <ele>2060</ele>
        <time>2020-07-07T10:14:52.000Z</time>
      </trkpt>
      <trkpt lat="44.40329" lon="6.40298">
        <ele>2060</ele>
        <time>2020-07-07T10:14:53.000Z</time>
      </trkpt>
      <trkpt lat="44.40329" lon="6.40298">
        <ele>2060</ele>
        <time>2020-07-07T10:14:54.000Z</time>
      </trkpt>
      <trkpt lat="44.40329" lon="6.40298">
        <ele>2059</ele>
        <time>2020-07-07T10:14:55.000Z</time>
      </trkpt>
      <trkpt lat="44.40329" lon="6.40297">
        <ele>2059</ele>
        <time>2020-07-07T10:14:56.000Z</time>
      </trkpt>
      <trkpt lat="44.40328" lon="6.40298">
        <ele>2059</ele>
        <time>2020-07-07T10:14:57.000Z</time>
      </trkpt>
      <trkpt lat="44.40328" lon="6.40298">
        <ele>2059</ele>
        <time>2020-07-07T10:14:58.000Z</time>
      </trkpt>
      <trkpt lat="44.40328" lon="6.40298">
        <ele>2059</ele>
        <time>2020-07-07T10:14:59.000Z</time>
      </trkpt>
      <trkpt lat="44.40328" lon="6.40299">
        <ele>2059</ele>
        <time>2020-07-07T10:15:00.000Z</time>
      </trkpt>
      <trkpt lat="44.40329" lon="6.403">
        <ele>2059</ele>
        <time>2020-07-07T10:15:01.000Z</time>
      </trkpt>
      <trkpt lat="44.40329" lon="6.40302">
        <ele>2059</ele>
        <time>2020-07-07T10:15:02.000Z</time>
      </trkpt>
      <trkpt lat="44.4033" lon="6.40304">
        <ele>2059</ele>
        <time>2020-07-07T10:15:03.000Z</time>
      </trkpt>
      <trkpt lat="44.40331" lon="6.40306">
        <ele>2059</ele>
        <time>2020-07-07T10:15:04.000Z</time>
      </trkpt>
      <trkpt lat="44.40332" lon="6.40308">
        <ele>2059</ele>
        <time>2020-07-07T10:15:05.000Z</time>
      </trkpt>
      <trkpt lat="44.40332" lon="6.40309">
        <ele>2059</ele>
        <time>2020-07-07T10:15:06.000Z</time>
      </trkpt>
      <trkpt lat="44.40332" lon="6.40311">
        <ele>2059</ele>
        <time>2020-07-07T10:15:07.000Z</time>
      </trkpt>
      <trkpt lat="44.40332" lon="6.40313">
        <ele>2059</ele>
        <time>2020-07-07T10:15:08.000Z</time>
      </trkpt>
      <trkpt lat="44.40332" lon="6.40314">
        <ele>2059</ele>
        <time>2020-07-07T10:15:09.000Z</time>
      </trkpt>
      <trkpt lat="44.40333" lon="6.40316">
        <ele>2059</ele>
        <time>2020-07-07T10:15:10.000Z</time>
      </trkpt>
      <trkpt lat="44.40333" lon="6.40317">
        <ele>2059</ele>
        <time>2020-07-07T10:15:11.000Z</time>
      </trkpt>
      <trkpt lat="44.40333" lon="6.40318">
        <ele>2059</ele>
        <time>2020-07-07T10:15:12.000Z</time>
      </trkpt>
      <trkpt lat="44.40332" lon="6.40319">
        <ele>2059</ele>
        <time>2020-07-07T10:15:13.000Z</time>
      </trkpt>
      <trkpt lat="44.40332" lon="6.4032">
        <ele>2059</ele>
        <time>2020-07-07T10:15:14.000Z</time>
      </trkpt>
      <trkpt lat="44.40332" lon="6.40321">
        <ele>2059</ele>
        <time>2020-07-07T10:15:15.000Z</time>
      </trkpt>
      <trkpt lat="44.40332" lon="6.40321">
        <ele>2059</ele>
        <time>2020-07-07T10:15:16.000Z</time>
      </trkpt>
      <trkpt lat="44.40332" lon="6.40322">
        <ele>2059</ele>
        <time>2020-07-07T10:15:17.000Z</time>
      </trkpt>
      <trkpt lat="44.40332" lon="6.40322">
        <ele>2059</ele>
        <time>2020-07-07T10:15:18.000Z</time>
      </trkpt>
      <trkpt lat="44.40332" lon="6.40322">
        <ele>2058</ele>
        <time>2020-07-07T10:15:19.000Z</time>
      </trkpt>
      <trkpt lat="44.40332" lon="6.40323">
        <ele>2058</ele>
        <time>2020-07-07T10:15:20.000Z</time>
      </trkpt>
      <trkpt lat="44.40331" lon="6.40324">
        <ele>2059</ele>
        <time>2020-07-07T10:15:21.000Z</time>
      </trkpt>
      <trkpt lat="44.4033" lon="6.40325">
        <ele>2059</ele>
        <time>2020-07-07T10:15:22.000Z</time>
      </trkpt>
      <trkpt lat="44.4033" lon="6.40326">
        <ele>2059</ele>
        <time>2020-07-07T10:15:23.000Z</time>
      </trkpt>
      <trkpt lat="44.4033" lon="6.40327">
        <ele>2058</ele>
        <time>2020-07-07T10:15:24.000Z</time>
      </trkpt>
      <trkpt lat="44.4033" lon="6.40328">
        <ele>2058</ele>
        <time>2020-07-07T10:15:25.000Z</time>
      </trkpt>
      <trkpt lat="44.4033" lon="6.40329">
        <ele>2058</ele>
        <time>2020-07-07T10:15:26.000Z</time>
      </trkpt>
      <trkpt lat="44.4033" lon="6.4033">
        <ele>2059</ele>
        <time>2020-07-07T10:15:27.000Z</time>
      </trkpt>
      <trkpt lat="44.40329" lon="6.40331">
        <ele>2059</ele>
        <time>2020-07-07T10:15:28.000Z</time>
      </trkpt>
      <trkpt lat="44.4033" lon="6.40332">
        <ele>2058</ele>
        <time>2020-07-07T10:15:29.000Z</time>
      </trkpt>
      <trkpt lat="44.4033" lon="6.40333">
        <ele>2058</ele>
        <time>2020-07-07T10:15:30.000Z</time>
      </trkpt>
      <trkpt lat="44.4033" lon="6.40334">
        <ele>2058</ele>
        <time>2020-07-07T10:15:31.000Z</time>
      </trkpt>
      <trkpt lat="44.40331" lon="6.40335">
        <ele>2058</ele>
        <time>2020-07-07T10:15:32.000Z</time>
      </trkpt>
      <trkpt lat="44.40331" lon="6.40337">
        <ele>2058</ele>
        <time>2020-07-07T10:15:33.000Z</time>
      </trkpt>
      <trkpt lat="44.40331" lon="6.40339">
        <ele>2058</ele>
        <time>2020-07-07T10:15:34.000Z</time>
      </trkpt>
      <trkpt lat="44.40331" lon="6.4034">
        <ele>2058</ele>
        <time>2020-07-07T10:15:35.000Z</time>
      </trkpt>
      <trkpt lat="44.40332" lon="6.40342">
        <ele>2058</ele>
        <time>2020-07-07T10:15:36.000Z</time>
      </trkpt>
      <trkpt lat="44.40332" lon="6.40343">
        <ele>2058</ele>
        <time>2020-07-07T10:15:37.000Z</time>
      </trkpt>
      <trkpt lat="44.40332" lon="6.40345">
        <ele>2058</ele>
        <time>2020-07-07T10:15:38.000Z</time>
      </trkpt>
      <trkpt lat="44.40331" lon="6.40346">
        <ele>2058</ele>
        <time>2020-07-07T10:15:39.000Z</time>
      </trkpt>
      <trkpt lat="44.40331" lon="6.40348">
        <ele>2058</ele>
        <time>2020-07-07T10:15:40.000Z</time>
      </trkpt>
      <trkpt lat="44.4033" lon="6.40349">
        <ele>2057</ele>
        <time>2020-07-07T10:15:41.000Z</time>
      </trkpt>
      <trkpt lat="44.40329" lon="6.40351">
        <ele>2057</ele>
        <time>2020-07-07T10:15:42.000Z</time>
      </trkpt>
      <trkpt lat="44.40329" lon="6.40352">
        <ele>2057</ele>
        <time>2020-07-07T10:15:43.000Z</time>
      </trkpt>
      <trkpt lat="44.40329" lon="6.40353">
        <ele>2057</ele>
        <time>2020-07-07T10:15:44.000Z</time>
      </trkpt>
      <trkpt lat="44.40328" lon="6.40354">
        <ele>2057</ele>
        <time>2020-07-07T10:15:45.000Z</time>
      </trkpt>
      <trkpt lat="44.40327" lon="6.40355">
        <ele>2056</ele>
        <time>2020-07-07T10:15:46.000Z</time>
      </trkpt>
      <trkpt lat="44.40327" lon="6.40356">
        <ele>2056</ele>
        <time>2020-07-07T10:15:47.000Z</time>
      </trkpt>
      <trkpt lat="44.40326" lon="6.40357">
        <ele>2056</ele>
        <time>2020-07-07T10:15:48.000Z</time>
      </trkpt>
      <trkpt lat="44.40325" lon="6.40358">
        <ele>2056</ele>
        <time>2020-07-07T10:15:49.000Z</time>
      </trkpt>
      <trkpt lat="44.40324" lon="6.40359">
        <ele>2056</ele>
        <time>2020-07-07T10:15:50.000Z</time>
      </trkpt>
      <trkpt lat="44.40324" lon="6.4036">
        <ele>2056</ele>
        <time>2020-07-07T10:15:51.000Z</time>
      </trkpt>
      <trkpt lat="44.40323" lon="6.40362">
        <ele>2056</ele>
        <time>2020-07-07T10:15:52.000Z</time>
      </trkpt>
      <trkpt lat="44.40322" lon="6.40363">
        <ele>2056</ele>
        <time>2020-07-07T10:15:53.000Z</time>
      </trkpt>
      <trkpt lat="44.40322" lon="6.40364">
        <ele>2056</ele>
        <time>2020-07-07T10:15:54.000Z</time>
      </trkpt>
      <trkpt lat="44.40322" lon="6.40366">
        <ele>2056</ele>
        <time>2020-07-07T10:15:55.000Z</time>
      </trkpt>
      <trkpt lat="44.40322" lon="6.40368">
        <ele>2056</ele>
        <time>2020-07-07T10:15:56.000Z</time>
      </trkpt>
      <trkpt lat="44.40321" lon="6.40369">
        <ele>2055</ele>
        <time>2020-07-07T10:15:57.000Z</time>
      </trkpt>
      <trkpt lat="44.40321" lon="6.40371">
        <ele>2055</ele>
        <time>2020-07-07T10:15:58.000Z</time>
      </trkpt>
      <trkpt lat="44.4032" lon="6.40372">
        <ele>2055</ele>
        <time>2020-07-07T10:15:59.000Z</time>
      </trkpt>
      <trkpt lat="44.4032" lon="6.40373">
        <ele>2055</ele>
        <time>2020-07-07T10:16:00.000Z</time>
      </trkpt>
      <trkpt lat="44.40319" lon="6.40375">
        <ele>2055</ele>
        <time>2020-07-07T10:16:01.000Z</time>
      </trkpt>
      <trkpt lat="44.40318" lon="6.40376">
        <ele>2055</ele>
        <time>2020-07-07T10:16:02.000Z</time>
      </trkpt>
      <trkpt lat="44.40317" lon="6.40376">
        <ele>2055</ele>
        <time>2020-07-07T10:16:03.000Z</time>
      </trkpt>
      <trkpt lat="44.40317" lon="6.40377">
        <ele>2055</ele>
        <time>2020-07-07T10:16:04.000Z</time>
      </trkpt>
      <trkpt lat="44.40317" lon="6.40378">
        <ele>2055</ele>
        <time>2020-07-07T10:16:05.000Z</time>
      </trkpt>
      <trkpt lat="44.40316" lon="6.40379">
        <ele>2055</ele>
        <time>2020-07-07T10:16:06.000Z</time>
      </trkpt>
      <trkpt lat="44.40316" lon="6.4038">
        <ele>2055</ele>
        <time>2020-07-07T10:16:07.000Z</time>
      </trkpt>
      <trkpt lat="44.40316" lon="6.40379">
        <ele>2055</ele>
        <time>2020-07-07T10:16:08.000Z</time>
      </trkpt>
      <trkpt lat="44.40316" lon="6.4038">
        <ele>2055</ele>
        <time>2020-07-07T10:16:09.000Z</time>
      </trkpt>
      <trkpt lat="44.40315" lon="6.4038">
        <ele>2055</ele>
        <time>2020-07-07T10:16:10.000Z</time>
      </trkpt>
      <trkpt lat="44.40315" lon="6.4038">
        <ele>2055</ele>
        <time>2020-07-07T10:16:11.000Z</time>
      </trkpt>
      <trkpt lat="44.40315" lon="6.4038">
        <ele>2055</ele>
        <time>2020-07-07T10:16:12.000Z</time>
      </trkpt>
      <trkpt lat="44.40315" lon="6.40379">
        <ele>2055</ele>
        <time>2020-07-07T10:16:13.000Z</time>
      </trkpt>
      <trkpt lat="44.40315" lon="6.40379">
        <ele>2055</ele>
        <time>2020-07-07T10:16:14.000Z</time>
      </trkpt>
      <trkpt lat="44.40315" lon="6.40379">
        <ele>2055</ele>
        <time>2020-07-07T10:16:15.000Z</time>
      </trkpt>
      <trkpt lat="44.40315" lon="6.40379">
        <ele>2055</ele>
        <time>2020-07-07T10:16:16.000Z</time>
      </trkpt>
      <trkpt lat="44.40315" lon="6.40379">
        <ele>2055</ele>
        <time>2020-07-07T10:16:17.000Z</time>
      </trkpt>
      <trkpt lat="44.40315" lon="6.40379">
        <ele>2055</ele>
        <time>2020-07-07T10:16:18.000Z</time>
      </trkpt>
      <trkpt lat="44.40315" lon="6.40379">
        <ele>2055</ele>
        <time>2020-07-07T10:16:19.000Z</time>
      </trkpt>
      <trkpt lat="44.40315" lon="6.40379">
        <ele>2055</ele>
        <time>2020-07-07T10:16:20.000Z</time>
      </trkpt>
      <trkpt lat="44.40315" lon="6.4038">
        <ele>2055</ele>
        <time>2020-07-07T10:16:21.000Z</time>
      </trkpt>
      <trkpt lat="44.40314" lon="6.40381">
        <ele>2055</ele>
        <time>2020-07-07T10:16:22.000Z</time>
      </trkpt>
      <trkpt lat="44.40314" lon="6.40382">
        <ele>2055</ele>
        <time>2020-07-07T10:16:23.000Z</time>
      </trkpt>
      <trkpt lat="44.40313" lon="6.40383">
        <ele>2055</ele>
        <time>2020-07-07T10:16:24.000Z</time>
      </trkpt>
      <trkpt lat="44.40312" lon="6.40384">
        <ele>2055</ele>
        <time>2020-07-07T10:16:25.000Z</time>
      </trkpt>
      <trkpt lat="44.40312" lon="6.40385">
        <ele>2055</ele>
        <time>2020-07-07T10:16:26.000Z</time>
      </trkpt>
      <trkpt lat="44.40312" lon="6.40387">
        <ele>2055</ele>
        <time>2020-07-07T10:16:27.000Z</time>
      </trkpt>
      <trkpt lat="44.40311" lon="6.40389">
        <ele>2055</ele>
        <time>2020-07-07T10:16:28.000Z</time>
      </trkpt>
      <trkpt lat="44.4031" lon="6.40389">
        <ele>2055</ele>
        <time>2020-07-07T10:16:29.000Z</time>
      </trkpt>
      <trkpt lat="44.40309" lon="6.4039">
        <ele>2055</ele>
        <time>2020-07-07T10:16:30.000Z</time>
      </trkpt>
      <trkpt lat="44.40309" lon="6.40391">
        <ele>2055</ele>
        <time>2020-07-07T10:16:31.000Z</time>
      </trkpt>
      <trkpt lat="44.40308" lon="6.40393">
        <ele>2055</ele>
        <time>2020-07-07T10:16:32.000Z</time>
      </trkpt>
      <trkpt lat="44.40308" lon="6.40394">
        <ele>2055</ele>
        <time>2020-07-07T10:16:33.000Z</time>
      </trkpt>
      <trkpt lat="44.40307" lon="6.40395">
        <ele>2055</ele>
        <time>2020-07-07T10:16:34.000Z</time>
      </trkpt>
      <trkpt lat="44.40306" lon="6.40396">
        <ele>2055</ele>
        <time>2020-07-07T10:16:35.000Z</time>
      </trkpt>
      <trkpt lat="44.40305" lon="6.40397">
        <ele>2055</ele>
        <time>2020-07-07T10:16:36.000Z</time>
      </trkpt>
      <trkpt lat="44.40304" lon="6.40398">
        <ele>2055</ele>
        <time>2020-07-07T10:16:37.000Z</time>
      </trkpt>
      <trkpt lat="44.40303" lon="6.40399">
        <ele>2055</ele>
        <time>2020-07-07T10:16:38.000Z</time>
      </trkpt>
      <trkpt lat="44.40302" lon="6.404">
        <ele>2055</ele>
        <time>2020-07-07T10:16:39.000Z</time>
      </trkpt>
      <trkpt lat="44.40302" lon="6.40401">
        <ele>2055</ele>
        <time>2020-07-07T10:16:40.000Z</time>
      </trkpt>
      <trkpt lat="44.40301" lon="6.40402">
        <ele>2055</ele>
        <time>2020-07-07T10:16:41.000Z</time>
      </trkpt>
      <trkpt lat="44.40301" lon="6.40403">
        <ele>2055</ele>
        <time>2020-07-07T10:16:42.000Z</time>
      </trkpt>
      <trkpt lat="44.403" lon="6.40405">
        <ele>2055</ele>
        <time>2020-07-07T10:16:43.000Z</time>
      </trkpt>
      <trkpt lat="44.403" lon="6.40406">
        <ele>2055</ele>
        <time>2020-07-07T10:16:44.000Z</time>
      </trkpt>
      <trkpt lat="44.40299" lon="6.40407">
        <ele>2055</ele>
        <time>2020-07-07T10:16:45.000Z</time>
      </trkpt>
      <trkpt lat="44.40299" lon="6.40409">
        <ele>2055</ele>
        <time>2020-07-07T10:16:46.000Z</time>
      </trkpt>
      <trkpt lat="44.40299" lon="6.4041">
        <ele>2055</ele>
        <time>2020-07-07T10:16:47.000Z</time>
      </trkpt>
      <trkpt lat="44.40298" lon="6.40412">
        <ele>2055</ele>
        <time>2020-07-07T10:16:48.000Z</time>
      </trkpt>
      <trkpt lat="44.40297" lon="6.40413">
        <ele>2055</ele>
        <time>2020-07-07T10:16:49.000Z</time>
      </trkpt>
      <trkpt lat="44.40296" lon="6.40414">
        <ele>2055</ele>
        <time>2020-07-07T10:16:50.000Z</time>
      </trkpt>
      <trkpt lat="44.40296" lon="6.40415">
        <ele>2055</ele>
        <time>2020-07-07T10:16:51.000Z</time>
      </trkpt>
      <trkpt lat="44.40295" lon="6.40416">
        <ele>2055</ele>
        <time>2020-07-07T10:16:52.000Z</time>
      </trkpt>
      <trkpt lat="44.40294" lon="6.40418">
        <ele>2055</ele>
        <time>2020-07-07T10:16:53.000Z</time>
      </trkpt>
      <trkpt lat="44.40293" lon="6.40418">
        <ele>2055</ele>
        <time>2020-07-07T10:16:54.000Z</time>
      </trkpt>
      <trkpt lat="44.40292" lon="6.40419">
        <ele>2055</ele>
        <time>2020-07-07T10:16:55.000Z</time>
      </trkpt>
      <trkpt lat="44.40292" lon="6.4042">
        <ele>2055</ele>
        <time>2020-07-07T10:16:56.000Z</time>
      </trkpt>
      <trkpt lat="44.40292" lon="6.4042">
        <ele>2055</ele>
        <time>2020-07-07T10:16:57.000Z</time>
      </trkpt>
      <trkpt lat="44.40292" lon="6.4042">
        <ele>2055</ele>
        <time>2020-07-07T10:16:58.000Z</time>
      </trkpt>
      <trkpt lat="44.40292" lon="6.4042">
        <ele>2055</ele>
        <time>2020-07-07T10:16:59.000Z</time>
      </trkpt>
      <trkpt lat="44.40292" lon="6.4042">
        <ele>2055</ele>
        <time>2020-07-07T10:17:00.000Z</time>
      </trkpt>
      <trkpt lat="44.40292" lon="6.4042">
        <ele>2055</ele>
        <time>2020-07-07T10:17:01.000Z</time>
      </trkpt>
      <trkpt lat="44.40292" lon="6.4042">
        <ele>2055</ele>
        <time>2020-07-07T10:17:02.000Z</time>
      </trkpt>
      <trkpt lat="44.40292" lon="6.4042">
        <ele>2055</ele>
        <time>2020-07-07T10:17:03.000Z</time>
      </trkpt>
      <trkpt lat="44.40292" lon="6.4042">
        <ele>2055</ele>
        <time>2020-07-07T10:17:04.000Z</time>
      </trkpt>
      <trkpt lat="44.40292" lon="6.4042">
        <ele>2055</ele>
        <time>2020-07-07T10:17:05.000Z</time>
      </trkpt>
      <trkpt lat="44.40292" lon="6.4042">
        <ele>2055</ele>
        <time>2020-07-07T10:17:06.000Z</time>
      </trkpt>
      <trkpt lat="44.40292" lon="6.40421">
        <ele>2055</ele>
        <time>2020-07-07T10:17:07.000Z</time>
      </trkpt>
      <trkpt lat="44.40292" lon="6.40422">
        <ele>2055</ele>
        <time>2020-07-07T10:17:08.000Z</time>
      </trkpt>
      <trkpt lat="44.40292" lon="6.40423">
        <ele>2055</ele>
        <time>2020-07-07T10:17:09.000Z</time>
      </trkpt>
      <trkpt lat="44.40292" lon="6.40424">
        <ele>2055</ele>
        <time>2020-07-07T10:17:10.000Z</time>
      </trkpt>
      <trkpt lat="44.40291" lon="6.40425">
        <ele>2055</ele>
        <time>2020-07-07T10:17:11.000Z</time>
      </trkpt>
      <trkpt lat="44.40291" lon="6.40426">
        <ele>2055</ele>
        <time>2020-07-07T10:17:12.000Z</time>
      </trkpt>
      <trkpt lat="44.40291" lon="6.40426">
        <ele>2055</ele>
        <time>2020-07-07T10:17:13.000Z</time>
      </trkpt>
      <trkpt lat="44.40291" lon="6.40426">
        <ele>2055</ele>
        <time>2020-07-07T10:17:14.000Z</time>
      </trkpt>
      <trkpt lat="44.40291" lon="6.40427">
        <ele>2055</ele>
        <time>2020-07-07T10:17:15.000Z</time>
      </trkpt>
      <trkpt lat="44.40291" lon="6.40428">
        <ele>2055</ele>
        <time>2020-07-07T10:17:16.000Z</time>
      </trkpt>
      <trkpt lat="44.40291" lon="6.40429">
        <ele>2055</ele>
        <time>2020-07-07T10:17:17.000Z</time>
      </trkpt>
      <trkpt lat="44.4029" lon="6.4043">
        <ele>2055</ele>
        <time>2020-07-07T10:17:18.000Z</time>
      </trkpt>
      <trkpt lat="44.4029" lon="6.40431">
        <ele>2055</ele>
        <time>2020-07-07T10:17:19.000Z</time>
      </trkpt>
      <trkpt lat="44.4029" lon="6.40433">
        <ele>2055</ele>
        <time>2020-07-07T10:17:20.000Z</time>
      </trkpt>
      <trkpt lat="44.4029" lon="6.40434">
        <ele>2055</ele>
        <time>2020-07-07T10:17:21.000Z</time>
      </trkpt>
      <trkpt lat="44.40289" lon="6.40435">
        <ele>2055</ele>
        <time>2020-07-07T10:17:22.000Z</time>
      </trkpt>
      <trkpt lat="44.40289" lon="6.40436">
        <ele>2055</ele>
        <time>2020-07-07T10:17:23.000Z</time>
      </trkpt>
      <trkpt lat="44.40289" lon="6.40437">
        <ele>2055</ele>
        <time>2020-07-07T10:17:24.000Z</time>
      </trkpt>
      <trkpt lat="44.40289" lon="6.40438">
        <ele>2055</ele>
        <time>2020-07-07T10:17:25.000Z</time>
      </trkpt>
      <trkpt lat="44.40289" lon="6.40439">
        <ele>2055</ele>
        <time>2020-07-07T10:17:26.000Z</time>
      </trkpt>
      <trkpt lat="44.40289" lon="6.4044">
        <ele>2055</ele>
        <time>2020-07-07T10:17:27.000Z</time>
      </trkpt>
      <trkpt lat="44.40289" lon="6.4044">
        <ele>2055</ele>
        <time>2020-07-07T10:17:28.000Z</time>
      </trkpt>
      <trkpt lat="44.40289" lon="6.40441">
        <ele>2055</ele>
        <time>2020-07-07T10:17:29.000Z</time>
      </trkpt>
      <trkpt lat="44.40289" lon="6.40441">
        <ele>2055</ele>
        <time>2020-07-07T10:17:30.000Z</time>
      </trkpt>
      <trkpt lat="44.40289" lon="6.40441">
        <ele>2055</ele>
        <time>2020-07-07T10:17:31.000Z</time>
      </trkpt>
      <trkpt lat="44.40288" lon="6.40441">
        <ele>2056</ele>
        <time>2020-07-07T10:17:32.000Z</time>
      </trkpt>
      <trkpt lat="44.40288" lon="6.40441">
        <ele>2056</ele>
        <time>2020-07-07T10:17:33.000Z</time>
      </trkpt>
      <trkpt lat="44.40289" lon="6.40441">
        <ele>2056</ele>
        <time>2020-07-07T10:17:34.000Z</time>
      </trkpt>
      <trkpt lat="44.40289" lon="6.40441">
        <ele>2056</ele>
        <time>2020-07-07T10:17:35.000Z</time>
      </trkpt>
      <trkpt lat="44.40289" lon="6.40441">
        <ele>2056</ele>
        <time>2020-07-07T10:17:36.000Z</time>
      </trkpt>
      <trkpt lat="44.4029" lon="6.40441">
        <ele>2056</ele>
        <time>2020-07-07T10:17:37.000Z</time>
      </trkpt>
      <trkpt lat="44.4029" lon="6.40441">
        <ele>2056</ele>
        <time>2020-07-07T10:17:38.000Z</time>
      </trkpt>
      <trkpt lat="44.40289" lon="6.40441">
        <ele>2056</ele>
        <time>2020-07-07T10:17:39.000Z</time>
      </trkpt>
      <trkpt lat="44.40289" lon="6.40441">
        <ele>2056</ele>
        <time>2020-07-07T10:17:40.000Z</time>
      </trkpt>
      <trkpt lat="44.40289" lon="6.40441">
        <ele>2056</ele>
        <time>2020-07-07T10:17:41.000Z</time>
      </trkpt>
      <trkpt lat="44.40289" lon="6.40441">
        <ele>2056</ele>
        <time>2020-07-07T10:17:42.000Z</time>
      </trkpt>
      <trkpt lat="44.40289" lon="6.40441">
        <ele>2056</ele>
        <time>2020-07-07T10:17:43.000Z</time>
      </trkpt>
      <trkpt lat="44.40289" lon="6.40441">
        <ele>2056</ele>
        <time>2020-07-07T10:17:44.000Z</time>
      </trkpt>
      <trkpt lat="44.40289" lon="6.40441">
        <ele>2056</ele>
        <time>2020-07-07T10:17:45.000Z</time>
      </trkpt>
      <trkpt lat="44.4029" lon="6.40442">
        <ele>2056</ele>
        <time>2020-07-07T10:17:46.000Z</time>
      </trkpt>
      <trkpt lat="44.40291" lon="6.40442">
        <ele>2056</ele>
        <time>2020-07-07T10:17:47.000Z</time>
      </trkpt>
      <trkpt lat="44.40291" lon="6.40443">
        <ele>2056</ele>
        <time>2020-07-07T10:17:48.000Z</time>
      </trkpt>
      <trkpt lat="44.40291" lon="6.40442">
        <ele>2056</ele>
        <time>2020-07-07T10:17:49.000Z</time>
      </trkpt>
      <trkpt lat="44.4029" lon="6.40443">
        <ele>2056</ele>
        <time>2020-07-07T10:17:50.000Z</time>
      </trkpt>
      <trkpt lat="44.4029" lon="6.40443">
        <ele>2056</ele>
        <time>2020-07-07T10:17:51.000Z</time>
      </trkpt>
      <trkpt lat="44.4029" lon="6.40442">
        <ele>2056</ele>
        <time>2020-07-07T10:17:52.000Z</time>
      </trkpt>
      <trkpt lat="44.4029" lon="6.40443">
        <ele>2056</ele>
        <time>2020-07-07T10:17:53.000Z</time>
      </trkpt>
      <trkpt lat="44.4029" lon="6.40443">
        <ele>2056</ele>
        <time>2020-07-07T10:17:54.000Z</time>
      </trkpt>
      <trkpt lat="44.4029" lon="6.40443">
        <ele>2056</ele>
        <time>2020-07-07T10:17:55.000Z</time>
      </trkpt>
      <trkpt lat="44.4029" lon="6.40444">
        <ele>2056</ele>
        <time>2020-07-07T10:17:56.000Z</time>
      </trkpt>
      <trkpt lat="44.4029" lon="6.40444">
        <ele>2056</ele>
        <time>2020-07-07T10:17:57.000Z</time>
      </trkpt>
      <trkpt lat="44.4029" lon="6.40445">
        <ele>2056</ele>
        <time>2020-07-07T10:17:58.000Z</time>
      </trkpt>
      <trkpt lat="44.4029" lon="6.40445">
        <ele>2056</ele>
        <time>2020-07-07T10:17:59.000Z</time>
      </trkpt>
      <trkpt lat="44.4029" lon="6.40444">
        <ele>2056</ele>
        <time>2020-07-07T10:18:00.000Z</time>
      </trkpt>
      <trkpt lat="44.4029" lon="6.40444">
        <ele>2056</ele>
        <time>2020-07-07T10:18:01.000Z</time>
      </trkpt>
      <trkpt lat="44.4029" lon="6.40444">
        <ele>2056</ele>
        <time>2020-07-07T10:18:02.000Z</time>
      </trkpt>
      <trkpt lat="44.40289" lon="6.40444">
        <ele>2056</ele>
        <time>2020-07-07T10:18:03.000Z</time>
      </trkpt>
      <trkpt lat="44.40289" lon="6.40444">
        <ele>2056</ele>
        <time>2020-07-07T10:18:04.000Z</time>
      </trkpt>
      <trkpt lat="44.40289" lon="6.40444">
        <ele>2056</ele>
        <time>2020-07-07T10:18:05.000Z</time>
      </trkpt>
      <trkpt lat="44.40289" lon="6.40443">
        <ele>2056</ele>
        <time>2020-07-07T10:18:06.000Z</time>
      </trkpt>
      <trkpt lat="44.40289" lon="6.40443">
        <ele>2056</ele>
        <time>2020-07-07T10:18:07.000Z</time>
      </trkpt>
      <trkpt lat="44.40289" lon="6.40443">
        <ele>2056</ele>
        <time>2020-07-07T10:18:08.000Z</time>
      </trkpt>
      <trkpt lat="44.40289" lon="6.40443">
        <ele>2056</ele>
        <time>2020-07-07T10:18:09.000Z</time>
      </trkpt>
      <trkpt lat="44.40289" lon="6.40443">
        <ele>2056</ele>
        <time>2020-07-07T10:18:10.000Z</time>
      </trkpt>
      <trkpt lat="44.40289" lon="6.40443">
        <ele>2056</ele>
        <time>2020-07-07T10:18:11.000Z</time>
      </trkpt>
      <trkpt lat="44.40289" lon="6.40443">
        <ele>2056</ele>
        <time>2020-07-07T10:18:12.000Z</time>
      </trkpt>
      <trkpt lat="44.40289" lon="6.40443">
        <ele>2056</ele>
        <time>2020-07-07T10:18:13.000Z</time>
      </trkpt>
      <trkpt lat="44.40289" lon="6.40443">
        <ele>2056</ele>
        <time>2020-07-07T10:18:14.000Z</time>
      </trkpt>
      <trkpt lat="44.40289" lon="6.40444">
        <ele>2057</ele>
        <time>2020-07-07T10:18:15.000Z</time>
      </trkpt>
      <trkpt lat="44.40289" lon="6.40444">
        <ele>2057</ele>
        <time>2020-07-07T10:18:16.000Z</time>
      </trkpt>
      <trkpt lat="44.40289" lon="6.40445">
        <ele>2057</ele>
        <time>2020-07-07T10:18:17.000Z</time>
      </trkpt>
      <trkpt lat="44.40289" lon="6.40445">
        <ele>2057</ele>
        <time>2020-07-07T10:18:18.000Z</time>
      </trkpt>
      <trkpt lat="44.40289" lon="6.40446">
        <ele>2057</ele>
        <time>2020-07-07T10:18:19.000Z</time>
      </trkpt>
      <trkpt lat="44.40289" lon="6.40447">
        <ele>2057</ele>
        <time>2020-07-07T10:18:20.000Z</time>
      </trkpt>
      <trkpt lat="44.40289" lon="6.40448">
        <ele>2057</ele>
        <time>2020-07-07T10:18:21.000Z</time>
      </trkpt>
      <trkpt lat="44.4029" lon="6.40448">
        <ele>2057</ele>
        <time>2020-07-07T10:18:22.000Z</time>
      </trkpt>
      <trkpt lat="44.4029" lon="6.40449">
        <ele>2057</ele>
        <time>2020-07-07T10:18:23.000Z</time>
      </trkpt>
      <trkpt lat="44.4029" lon="6.4045">
        <ele>2057</ele>
        <time>2020-07-07T10:18:24.000Z</time>
      </trkpt>
      <trkpt lat="44.40291" lon="6.40451">
        <ele>2057</ele>
        <time>2020-07-07T10:18:25.000Z</time>
      </trkpt>
      <trkpt lat="44.40291" lon="6.40452">
        <ele>2057</ele>
        <time>2020-07-07T10:18:26.000Z</time>
      </trkpt>
      <trkpt lat="44.40292" lon="6.40453">
        <ele>2057</ele>
        <time>2020-07-07T10:18:27.000Z</time>
      </trkpt>
      <trkpt lat="44.40292" lon="6.40454">
        <ele>2057</ele>
        <time>2020-07-07T10:18:28.000Z</time>
      </trkpt>
      <trkpt lat="44.40293" lon="6.40454">
        <ele>2057</ele>
        <time>2020-07-07T10:18:29.000Z</time>
      </trkpt>
      <trkpt lat="44.40293" lon="6.40455">
        <ele>2057</ele>
        <time>2020-07-07T10:18:30.000Z</time>
      </trkpt>
      <trkpt lat="44.40294" lon="6.40455">
        <ele>2057</ele>
        <time>2020-07-07T10:18:31.000Z</time>
      </trkpt>
      <trkpt lat="44.40294" lon="6.40456">
        <ele>2057</ele>
        <time>2020-07-07T10:18:32.000Z</time>
      </trkpt>
      <trkpt lat="44.40294" lon="6.40456">
        <ele>2057</ele>
        <time>2020-07-07T10:18:33.000Z</time>
      </trkpt>
      <trkpt lat="44.40295" lon="6.40457">
        <ele>2057</ele>
        <time>2020-07-07T10:18:34.000Z</time>
      </trkpt>
      <trkpt lat="44.40295" lon="6.40457">
        <ele>2057</ele>
        <time>2020-07-07T10:18:35.000Z</time>
      </trkpt>
      <trkpt lat="44.40295" lon="6.40458">
        <ele>2057</ele>
        <time>2020-07-07T10:18:36.000Z</time>
      </trkpt>
      <trkpt lat="44.40296" lon="6.40459">
        <ele>2057</ele>
        <time>2020-07-07T10:18:37.000Z</time>
      </trkpt>
      <trkpt lat="44.40296" lon="6.40459">
        <ele>2057</ele>
        <time>2020-07-07T10:18:38.000Z</time>
      </trkpt>
      <trkpt lat="44.40296" lon="6.4046">
        <ele>2057</ele>
        <time>2020-07-07T10:18:39.000Z</time>
      </trkpt>
      <trkpt lat="44.40297" lon="6.4046">
        <ele>2057</ele>
        <time>2020-07-07T10:18:40.000Z</time>
      </trkpt>
      <trkpt lat="44.40297" lon="6.40461">
        <ele>2057</ele>
        <time>2020-07-07T10:18:41.000Z</time>
      </trkpt>
      <trkpt lat="44.40297" lon="6.40461">
        <ele>2056</ele>
        <time>2020-07-07T10:18:42.000Z</time>
      </trkpt>
      <trkpt lat="44.40297" lon="6.40461">
        <ele>2056</ele>
        <time>2020-07-07T10:18:43.000Z</time>
      </trkpt>
      <trkpt lat="44.40297" lon="6.40461">
        <ele>2056</ele>
        <time>2020-07-07T10:18:44.000Z</time>
      </trkpt>
      <trkpt lat="44.40297" lon="6.40462">
        <ele>2056</ele>
        <time>2020-07-07T10:18:45.000Z</time>
      </trkpt>
      <trkpt lat="44.40297" lon="6.40462">
        <ele>2056</ele>
        <time>2020-07-07T10:18:46.000Z</time>
      </trkpt>
      <trkpt lat="44.40298" lon="6.40463">
        <ele>2056</ele>
        <time>2020-07-07T10:18:47.000Z</time>
      </trkpt>
      <trkpt lat="44.40298" lon="6.40463">
        <ele>2056</ele>
        <time>2020-07-07T10:18:48.000Z</time>
      </trkpt>
      <trkpt lat="44.40298" lon="6.40464">
        <ele>2056</ele>
        <time>2020-07-07T10:18:49.000Z</time>
      </trkpt>
      <trkpt lat="44.40298" lon="6.40464">
        <ele>2056</ele>
        <time>2020-07-07T10:18:50.000Z</time>
      </trkpt>
      <trkpt lat="44.40298" lon="6.40464">
        <ele>2056</ele>
        <time>2020-07-07T10:18:51.000Z</time>
      </trkpt>
      <trkpt lat="44.40298" lon="6.40465">
        <ele>2056</ele>
        <time>2020-07-07T10:18:52.000Z</time>
      </trkpt>
      <trkpt lat="44.40297" lon="6.40465">
        <ele>2056</ele>
        <time>2020-07-07T10:18:53.000Z</time>
      </trkpt>
      <trkpt lat="44.40297" lon="6.40466">
        <ele>2056</ele>
        <time>2020-07-07T10:18:54.000Z</time>
      </trkpt>
      <trkpt lat="44.40296" lon="6.40466">
        <ele>2056</ele>
        <time>2020-07-07T10:18:55.000Z</time>
      </trkpt>
      <trkpt lat="44.40296" lon="6.40466">
        <ele>2056</ele>
        <time>2020-07-07T10:18:56.000Z</time>
      </trkpt>
      <trkpt lat="44.40296" lon="6.40466">
        <ele>2056</ele>
        <time>2020-07-07T10:18:57.000Z</time>
      </trkpt>
      <trkpt lat="44.40295" lon="6.40466">
        <ele>2056</ele>
        <time>2020-07-07T10:18:58.000Z</time>
      </trkpt>
      <trkpt lat="44.40295" lon="6.40466">
        <ele>2056</ele>
        <time>2020-07-07T10:18:59.000Z</time>
      </trkpt>
      <trkpt lat="44.40295" lon="6.40466">
        <ele>2055</ele>
        <time>2020-07-07T10:19:00.000Z</time>
      </trkpt>
      <trkpt lat="44.40294" lon="6.40466">
        <ele>2055</ele>
        <time>2020-07-07T10:19:01.000Z</time>
      </trkpt>
      <trkpt lat="44.40293" lon="6.40467">
        <ele>2055</ele>
        <time>2020-07-07T10:19:02.000Z</time>
      </trkpt>
      <trkpt lat="44.40292" lon="6.40468">
        <ele>2055</ele>
        <time>2020-07-07T10:19:03.000Z</time>
      </trkpt>
      <trkpt lat="44.40291" lon="6.40468">
        <ele>2055</ele>
        <time>2020-07-07T10:19:04.000Z</time>
      </trkpt>
      <trkpt lat="44.4029" lon="6.40469">
        <ele>2055</ele>
        <time>2020-07-07T10:19:05.000Z</time>
      </trkpt>
      <trkpt lat="44.40289" lon="6.40469">
        <ele>2055</ele>
        <time>2020-07-07T10:19:06.000Z</time>
      </trkpt>
      <trkpt lat="44.40288" lon="6.4047">
        <ele>2055</ele>
        <time>2020-07-07T10:19:07.000Z</time>
      </trkpt>
      <trkpt lat="44.40287" lon="6.4047">
        <ele>2055</ele>
        <time>2020-07-07T10:19:08.000Z</time>
      </trkpt>
      <trkpt lat="44.40287" lon="6.4047">
        <ele>2055</ele>
        <time>2020-07-07T10:19:09.000Z</time>
      </trkpt>
      <trkpt lat="44.40287" lon="6.40471">
        <ele>2055</ele>
        <time>2020-07-07T10:19:10.000Z</time>
      </trkpt>
      <trkpt lat="44.40286" lon="6.40471">
        <ele>2054</ele>
        <time>2020-07-07T10:19:11.000Z</time>
      </trkpt>
      <trkpt lat="44.40286" lon="6.40471">
        <ele>2054</ele>
        <time>2020-07-07T10:19:12.000Z</time>
      </trkpt>
      <trkpt lat="44.40285" lon="6.40471">
        <ele>2054</ele>
        <time>2020-07-07T10:19:13.000Z</time>
      </trkpt>
      <trkpt lat="44.40285" lon="6.40471">
        <ele>2054</ele>
        <time>2020-07-07T10:19:14.000Z</time>
      </trkpt>
      <trkpt lat="44.40285" lon="6.40472">
        <ele>2054</ele>
        <time>2020-07-07T10:19:15.000Z</time>
      </trkpt>
      <trkpt lat="44.40285" lon="6.40473">
        <ele>2054</ele>
        <time>2020-07-07T10:19:16.000Z</time>
      </trkpt>
      <trkpt lat="44.40284" lon="6.40473">
        <ele>2054</ele>
        <time>2020-07-07T10:19:17.000Z</time>
      </trkpt>
      <trkpt lat="44.40285" lon="6.40474">
        <ele>2054</ele>
        <time>2020-07-07T10:19:18.000Z</time>
      </trkpt>
      <trkpt lat="44.40285" lon="6.40475">
        <ele>2054</ele>
        <time>2020-07-07T10:19:19.000Z</time>
      </trkpt>
      <trkpt lat="44.40286" lon="6.40476">
        <ele>2054</ele>
        <time>2020-07-07T10:19:20.000Z</time>
      </trkpt>
      <trkpt lat="44.40286" lon="6.40476">
        <ele>2054</ele>
        <time>2020-07-07T10:19:21.000Z</time>
      </trkpt>
      <trkpt lat="44.40286" lon="6.40477">
        <ele>2054</ele>
        <time>2020-07-07T10:19:22.000Z</time>
      </trkpt>
      <trkpt lat="44.40286" lon="6.40477">
        <ele>2053</ele>
        <time>2020-07-07T10:19:23.000Z</time>
      </trkpt>
      <trkpt lat="44.40286" lon="6.40478">
        <ele>2053</ele>
        <time>2020-07-07T10:19:24.000Z</time>
      </trkpt>
      <trkpt lat="44.40286" lon="6.40478">
        <ele>2053</ele>
        <time>2020-07-07T10:19:25.000Z</time>
      </trkpt>
      <trkpt lat="44.40287" lon="6.40479">
        <ele>2053</ele>
        <time>2020-07-07T10:19:26.000Z</time>
      </trkpt>
      <trkpt lat="44.40287" lon="6.4048">
        <ele>2053</ele>
        <time>2020-07-07T10:19:27.000Z</time>
      </trkpt>
      <trkpt lat="44.40288" lon="6.4048">
        <ele>2053</ele>
        <time>2020-07-07T10:19:28.000Z</time>
      </trkpt>
      <trkpt lat="44.40289" lon="6.40481">
        <ele>2053</ele>
        <time>2020-07-07T10:19:29.000Z</time>
      </trkpt>
      <trkpt lat="44.40289" lon="6.40481">
        <ele>2053</ele>
        <time>2020-07-07T10:19:30.000Z</time>
      </trkpt>
      <trkpt lat="44.4029" lon="6.40481">
        <ele>2053</ele>
        <time>2020-07-07T10:19:31.000Z</time>
      </trkpt>
      <trkpt lat="44.4029" lon="6.40481">
        <ele>2053</ele>
        <time>2020-07-07T10:19:32.000Z</time>
      </trkpt>
      <trkpt lat="44.4029" lon="6.40482">
        <ele>2053</ele>
        <time>2020-07-07T10:19:33.000Z</time>
      </trkpt>
      <trkpt lat="44.4029" lon="6.40482">
        <ele>2053</ele>
        <time>2020-07-07T10:19:34.000Z</time>
      </trkpt>
      <trkpt lat="44.4029" lon="6.40482">
        <ele>2053</ele>
        <time>2020-07-07T10:19:35.000Z</time>
      </trkpt>
      <trkpt lat="44.40291" lon="6.40482">
        <ele>2053</ele>
        <time>2020-07-07T10:19:36.000Z</time>
      </trkpt>
      <trkpt lat="44.40291" lon="6.40482">
        <ele>2053</ele>
        <time>2020-07-07T10:19:37.000Z</time>
      </trkpt>
      <trkpt lat="44.40291" lon="6.40483">
        <ele>2053</ele>
        <time>2020-07-07T10:19:38.000Z</time>
      </trkpt>
      <trkpt lat="44.40292" lon="6.40484">
        <ele>2053</ele>
        <time>2020-07-07T10:19:39.000Z</time>
      </trkpt>
      <trkpt lat="44.40293" lon="6.40484">
        <ele>2053</ele>
        <time>2020-07-07T10:19:40.000Z</time>
      </trkpt>
      <trkpt lat="44.40293" lon="6.40485">
        <ele>2053</ele>
        <time>2020-07-07T10:19:41.000Z</time>
      </trkpt>
      <trkpt lat="44.40293" lon="6.40486">
        <ele>2053</ele>
        <time>2020-07-07T10:19:42.000Z</time>
      </trkpt>
      <trkpt lat="44.40294" lon="6.40486">
        <ele>2053</ele>
        <time>2020-07-07T10:19:43.000Z</time>
      </trkpt>
      <trkpt lat="44.40295" lon="6.40487">
        <ele>2053</ele>
        <time>2020-07-07T10:19:44.000Z</time>
      </trkpt>
      <trkpt lat="44.40296" lon="6.40488">
        <ele>2053</ele>
        <time>2020-07-07T10:19:45.000Z</time>
      </trkpt>
      <trkpt lat="44.40296" lon="6.40489">
        <ele>2053</ele>
        <time>2020-07-07T10:19:46.000Z</time>
      </trkpt>
      <trkpt lat="44.40296" lon="6.4049">
        <ele>2053</ele>
        <time>2020-07-07T10:19:47.000Z</time>
      </trkpt>
      <trkpt lat="44.40297" lon="6.40491">
        <ele>2052</ele>
        <time>2020-07-07T10:19:48.000Z</time>
      </trkpt>
      <trkpt lat="44.40296" lon="6.40492">
        <ele>2052</ele>
        <time>2020-07-07T10:19:49.000Z</time>
      </trkpt>
      <trkpt lat="44.40296" lon="6.40493">
        <ele>2052</ele>
        <time>2020-07-07T10:19:50.000Z</time>
      </trkpt>
      <trkpt lat="44.40296" lon="6.40493">
        <ele>2052</ele>
        <time>2020-07-07T10:19:51.000Z</time>
      </trkpt>
      <trkpt lat="44.40297" lon="6.40494">
        <ele>2052</ele>
        <time>2020-07-07T10:19:52.000Z</time>
      </trkpt>
      <trkpt lat="44.40298" lon="6.40495">
        <ele>2052</ele>
        <time>2020-07-07T10:19:53.000Z</time>
      </trkpt>
      <trkpt lat="44.40298" lon="6.40496">
        <ele>2051</ele>
        <time>2020-07-07T10:19:54.000Z</time>
      </trkpt>
      <trkpt lat="44.40299" lon="6.40496">
        <ele>2051</ele>
        <time>2020-07-07T10:19:55.000Z</time>
      </trkpt>
      <trkpt lat="44.40299" lon="6.40497">
        <ele>2051</ele>
        <time>2020-07-07T10:19:56.000Z</time>
      </trkpt>
      <trkpt lat="44.403" lon="6.40498">
        <ele>2051</ele>
        <time>2020-07-07T10:19:57.000Z</time>
      </trkpt>
      <trkpt lat="44.403" lon="6.40499">
        <ele>2051</ele>
        <time>2020-07-07T10:19:58.000Z</time>
      </trkpt>
      <trkpt lat="44.40301" lon="6.40499">
        <ele>2050</ele>
        <time>2020-07-07T10:19:59.000Z</time>
      </trkpt>
      <trkpt lat="44.40301" lon="6.405">
        <ele>2050</ele>
        <time>2020-07-07T10:20:00.000Z</time>
      </trkpt>
      <trkpt lat="44.40303" lon="6.40501">
        <ele>2050</ele>
        <time>2020-07-07T10:20:01.000Z</time>
      </trkpt>
      <trkpt lat="44.40304" lon="6.40502">
        <ele>2050</ele>
        <time>2020-07-07T10:20:02.000Z</time>
      </trkpt>
      <trkpt lat="44.40304" lon="6.40503">
        <ele>2050</ele>
        <time>2020-07-07T10:20:03.000Z</time>
      </trkpt>
      <trkpt lat="44.40305" lon="6.40504">
        <ele>2049</ele>
        <time>2020-07-07T10:20:04.000Z</time>
      </trkpt>
      <trkpt lat="44.40305" lon="6.40505">
        <ele>2049</ele>
        <time>2020-07-07T10:20:05.000Z</time>
      </trkpt>
      <trkpt lat="44.40305" lon="6.40505">
        <ele>2049</ele>
        <time>2020-07-07T10:20:06.000Z</time>
      </trkpt>
      <trkpt lat="44.40305" lon="6.40506">
        <ele>2049</ele>
        <time>2020-07-07T10:20:07.000Z</time>
      </trkpt>
      <trkpt lat="44.40306" lon="6.40507">
        <ele>2048</ele>
        <time>2020-07-07T10:20:08.000Z</time>
      </trkpt>
      <trkpt lat="44.40306" lon="6.40508">
        <ele>2048</ele>
        <time>2020-07-07T10:20:09.000Z</time>
      </trkpt>
      <trkpt lat="44.40306" lon="6.40509">
        <ele>2048</ele>
        <time>2020-07-07T10:20:10.000Z</time>
      </trkpt>
      <trkpt lat="44.40306" lon="6.40509">
        <ele>2048</ele>
        <time>2020-07-07T10:20:11.000Z</time>
      </trkpt>
      <trkpt lat="44.40306" lon="6.40509">
        <ele>2047</ele>
        <time>2020-07-07T10:20:12.000Z</time>
      </trkpt>
      <trkpt lat="44.40306" lon="6.4051">
        <ele>2047</ele>
        <time>2020-07-07T10:20:13.000Z</time>
      </trkpt>
      <trkpt lat="44.40307" lon="6.40511">
        <ele>2047</ele>
        <time>2020-07-07T10:20:14.000Z</time>
      </trkpt>
      <trkpt lat="44.40307" lon="6.40512">
        <ele>2047</ele>
        <time>2020-07-07T10:20:15.000Z</time>
      </trkpt>
      <trkpt lat="44.40308" lon="6.40513">
        <ele>2047</ele>
        <time>2020-07-07T10:20:16.000Z</time>
      </trkpt>
      <trkpt lat="44.40309" lon="6.40514">
        <ele>2047</ele>
        <time>2020-07-07T10:20:17.000Z</time>
      </trkpt>
      <trkpt lat="44.40309" lon="6.40515">
        <ele>2046</ele>
        <time>2020-07-07T10:20:18.000Z</time>
      </trkpt>
      <trkpt lat="44.40309" lon="6.40516">
        <ele>2046</ele>
        <time>2020-07-07T10:20:19.000Z</time>
      </trkpt>
      <trkpt lat="44.4031" lon="6.40516">
        <ele>2046</ele>
        <time>2020-07-07T10:20:20.000Z</time>
      </trkpt>
      <trkpt lat="44.4031" lon="6.40517">
        <ele>2046</ele>
        <time>2020-07-07T10:20:21.000Z</time>
      </trkpt>
      <trkpt lat="44.4031" lon="6.40518">
        <ele>2046</ele>
        <time>2020-07-07T10:20:22.000Z</time>
      </trkpt>
      <trkpt lat="44.4031" lon="6.40519">
        <ele>2046</ele>
        <time>2020-07-07T10:20:23.000Z</time>
      </trkpt>
      <trkpt lat="44.4031" lon="6.4052">
        <ele>2046</ele>
        <time>2020-07-07T10:20:24.000Z</time>
      </trkpt>
      <trkpt lat="44.4031" lon="6.40521">
        <ele>2046</ele>
        <time>2020-07-07T10:20:25.000Z</time>
      </trkpt>
      <trkpt lat="44.4031" lon="6.40521">
        <ele>2045</ele>
        <time>2020-07-07T10:20:26.000Z</time>
      </trkpt>
      <trkpt lat="44.4031" lon="6.40522">
        <ele>2045</ele>
        <time>2020-07-07T10:20:27.000Z</time>
      </trkpt>
      <trkpt lat="44.4031" lon="6.40522">
        <ele>2045</ele>
        <time>2020-07-07T10:20:28.000Z</time>
      </trkpt>
      <trkpt lat="44.40309" lon="6.40522">
        <ele>2045</ele>
        <time>2020-07-07T10:20:29.000Z</time>
      </trkpt>
      <trkpt lat="44.40309" lon="6.40522">
        <ele>2045</ele>
        <time>2020-07-07T10:20:30.000Z</time>
      </trkpt>
      <trkpt lat="44.40309" lon="6.40522">
        <ele>2045</ele>
        <time>2020-07-07T10:20:31.000Z</time>
      </trkpt>
      <trkpt lat="44.40309" lon="6.40522">
        <ele>2045</ele>
        <time>2020-07-07T10:20:32.000Z</time>
      </trkpt>
      <trkpt lat="44.40309" lon="6.40522">
        <ele>2045</ele>
        <time>2020-07-07T10:20:33.000Z</time>
      </trkpt>
      <trkpt lat="44.40309" lon="6.40522">
        <ele>2045</ele>
        <time>2020-07-07T10:20:34.000Z</time>
      </trkpt>
      <trkpt lat="44.40309" lon="6.40522">
        <ele>2045</ele>
        <time>2020-07-07T10:20:35.000Z</time>
      </trkpt>
      <trkpt lat="44.40309" lon="6.40522">
        <ele>2045</ele>
        <time>2020-07-07T10:20:36.000Z</time>
      </trkpt>
      <trkpt lat="44.40309" lon="6.40522">
        <ele>2045</ele>
        <time>2020-07-07T10:20:37.000Z</time>
      </trkpt>
      <trkpt lat="44.40309" lon="6.40522">
        <ele>2045</ele>
        <time>2020-07-07T10:20:38.000Z</time>
      </trkpt>
      <trkpt lat="44.40309" lon="6.40523">
        <ele>2045</ele>
        <time>2020-07-07T10:20:39.000Z</time>
      </trkpt>
      <trkpt lat="44.40309" lon="6.40523">
        <ele>2045</ele>
        <time>2020-07-07T10:20:40.000Z</time>
      </trkpt>
      <trkpt lat="44.4031" lon="6.40524">
        <ele>2045</ele>
        <time>2020-07-07T10:20:41.000Z</time>
      </trkpt>
      <trkpt lat="44.4031" lon="6.40525">
        <ele>2045</ele>
        <time>2020-07-07T10:20:42.000Z</time>
      </trkpt>
      <trkpt lat="44.4031" lon="6.40526">
        <ele>2045</ele>
        <time>2020-07-07T10:20:43.000Z</time>
      </trkpt>
      <trkpt lat="44.40311" lon="6.40527">
        <ele>2045</ele>
        <time>2020-07-07T10:20:44.000Z</time>
      </trkpt>
      <trkpt lat="44.40311" lon="6.40528">
        <ele>2044</ele>
        <time>2020-07-07T10:20:45.000Z</time>
      </trkpt>
      <trkpt lat="44.40311" lon="6.40529">
        <ele>2044</ele>
        <time>2020-07-07T10:20:46.000Z</time>
      </trkpt>
      <trkpt lat="44.40311" lon="6.4053">
        <ele>2044</ele>
        <time>2020-07-07T10:20:47.000Z</time>
      </trkpt>
      <trkpt lat="44.40311" lon="6.4053">
        <ele>2044</ele>
        <time>2020-07-07T10:20:48.000Z</time>
      </trkpt>
      <trkpt lat="44.40311" lon="6.40531">
        <ele>2044</ele>
        <time>2020-07-07T10:20:49.000Z</time>
      </trkpt>
      <trkpt lat="44.40311" lon="6.40532">
        <ele>2044</ele>
        <time>2020-07-07T10:20:50.000Z</time>
      </trkpt>
      <trkpt lat="44.40312" lon="6.40533">
        <ele>2044</ele>
        <time>2020-07-07T10:20:51.000Z</time>
      </trkpt>
      <trkpt lat="44.40312" lon="6.40535">
        <ele>2044</ele>
        <time>2020-07-07T10:20:52.000Z</time>
      </trkpt>
      <trkpt lat="44.40312" lon="6.40536">
        <ele>2044</ele>
        <time>2020-07-07T10:20:53.000Z</time>
      </trkpt>
      <trkpt lat="44.40312" lon="6.40537">
        <ele>2044</ele>
        <time>2020-07-07T10:20:54.000Z</time>
      </trkpt>
      <trkpt lat="44.40312" lon="6.40539">
        <ele>2043</ele>
        <time>2020-07-07T10:20:55.000Z</time>
      </trkpt>
      <trkpt lat="44.40312" lon="6.4054">
        <ele>2043</ele>
        <time>2020-07-07T10:20:56.000Z</time>
      </trkpt>
      <trkpt lat="44.40312" lon="6.40541">
        <ele>2043</ele>
        <time>2020-07-07T10:20:57.000Z</time>
      </trkpt>
      <trkpt lat="44.40312" lon="6.40542">
        <ele>2043</ele>
        <time>2020-07-07T10:20:58.000Z</time>
      </trkpt>
      <trkpt lat="44.40312" lon="6.40543">
        <ele>2043</ele>
        <time>2020-07-07T10:20:59.000Z</time>
      </trkpt>
      <trkpt lat="44.40312" lon="6.40544">
        <ele>2043</ele>
        <time>2020-07-07T10:21:00.000Z</time>
      </trkpt>
      <trkpt lat="44.40311" lon="6.40545">
        <ele>2042</ele>
        <time>2020-07-07T10:21:01.000Z</time>
      </trkpt>
      <trkpt lat="44.40311" lon="6.40546">
        <ele>2042</ele>
        <time>2020-07-07T10:21:02.000Z</time>
      </trkpt>
      <trkpt lat="44.40311" lon="6.40546">
        <ele>2042</ele>
        <time>2020-07-07T10:21:03.000Z</time>
      </trkpt>
      <trkpt lat="44.40311" lon="6.40547">
        <ele>2042</ele>
        <time>2020-07-07T10:21:04.000Z</time>
      </trkpt>
      <trkpt lat="44.40312" lon="6.40548">
        <ele>2042</ele>
        <time>2020-07-07T10:21:05.000Z</time>
      </trkpt>
      <trkpt lat="44.40311" lon="6.40549">
        <ele>2041</ele>
        <time>2020-07-07T10:21:06.000Z</time>
      </trkpt>
      <trkpt lat="44.40311" lon="6.40549">
        <ele>2041</ele>
        <time>2020-07-07T10:21:07.000Z</time>
      </trkpt>
      <trkpt lat="44.40311" lon="6.4055">
        <ele>2041</ele>
        <time>2020-07-07T10:21:08.000Z</time>
      </trkpt>
      <trkpt lat="44.4031" lon="6.40552">
        <ele>2041</ele>
        <time>2020-07-07T10:21:09.000Z</time>
      </trkpt>
      <trkpt lat="44.40311" lon="6.40553">
        <ele>2040</ele>
        <time>2020-07-07T10:21:10.000Z</time>
      </trkpt>
      <trkpt lat="44.4031" lon="6.40554">
        <ele>2040</ele>
        <time>2020-07-07T10:21:11.000Z</time>
      </trkpt>
      <trkpt lat="44.4031" lon="6.40556">
        <ele>2040</ele>
        <time>2020-07-07T10:21:12.000Z</time>
      </trkpt>
      <trkpt lat="44.40309" lon="6.40557">
        <ele>2039</ele>
        <time>2020-07-07T10:21:13.000Z</time>
      </trkpt>
      <trkpt lat="44.40308" lon="6.40558">
        <ele>2039</ele>
        <time>2020-07-07T10:21:14.000Z</time>
      </trkpt>
      <trkpt lat="44.40308" lon="6.4056">
        <ele>2039</ele>
        <time>2020-07-07T10:21:15.000Z</time>
      </trkpt>
      <trkpt lat="44.40307" lon="6.40561">
        <ele>2039</ele>
        <time>2020-07-07T10:21:16.000Z</time>
      </trkpt>
      <trkpt lat="44.40307" lon="6.40562">
        <ele>2038</ele>
        <time>2020-07-07T10:21:17.000Z</time>
      </trkpt>
      <trkpt lat="44.40307" lon="6.40563">
        <ele>2038</ele>
        <time>2020-07-07T10:21:18.000Z</time>
      </trkpt>
      <trkpt lat="44.40305" lon="6.40565">
        <ele>2038</ele>
        <time>2020-07-07T10:21:19.000Z</time>
      </trkpt>
      <trkpt lat="44.40305" lon="6.40566">
        <ele>2037</ele>
        <time>2020-07-07T10:21:20.000Z</time>
      </trkpt>
      <trkpt lat="44.40304" lon="6.40567">
        <ele>2037</ele>
        <time>2020-07-07T10:21:21.000Z</time>
      </trkpt>
      <trkpt lat="44.40304" lon="6.40568">
        <ele>2037</ele>
        <time>2020-07-07T10:21:22.000Z</time>
      </trkpt>
      <trkpt lat="44.40303" lon="6.40568">
        <ele>2036</ele>
        <time>2020-07-07T10:21:23.000Z</time>
      </trkpt>
      <trkpt lat="44.40303" lon="6.40569">
        <ele>2036</ele>
        <time>2020-07-07T10:21:24.000Z</time>
      </trkpt>
      <trkpt lat="44.40302" lon="6.4057">
        <ele>2036</ele>
        <time>2020-07-07T10:21:25.000Z</time>
      </trkpt>
      <trkpt lat="44.40302" lon="6.40571">
        <ele>2036</ele>
        <time>2020-07-07T10:21:26.000Z</time>
      </trkpt>
      <trkpt lat="44.40301" lon="6.40572">
        <ele>2036</ele>
        <time>2020-07-07T10:21:27.000Z</time>
      </trkpt>
      <trkpt lat="44.40301" lon="6.40573">
        <ele>2035</ele>
        <time>2020-07-07T10:21:28.000Z</time>
      </trkpt>
      <trkpt lat="44.403" lon="6.40574">
        <ele>2035</ele>
        <time>2020-07-07T10:21:29.000Z</time>
      </trkpt>
      <trkpt lat="44.403" lon="6.40575">
        <ele>2035</ele>
        <time>2020-07-07T10:21:30.000Z</time>
      </trkpt>
      <trkpt lat="44.40299" lon="6.40576">
        <ele>2035</ele>
        <time>2020-07-07T10:21:31.000Z</time>
      </trkpt>
      <trkpt lat="44.40299" lon="6.40577">
        <ele>2035</ele>
        <time>2020-07-07T10:21:32.000Z</time>
      </trkpt>
      <trkpt lat="44.40299" lon="6.40578">
        <ele>2035</ele>
        <time>2020-07-07T10:21:33.000Z</time>
      </trkpt>
      <trkpt lat="44.40298" lon="6.40579">
        <ele>2035</ele>
        <time>2020-07-07T10:21:34.000Z</time>
      </trkpt>
      <trkpt lat="44.40298" lon="6.4058">
        <ele>2034</ele>
        <time>2020-07-07T10:21:35.000Z</time>
      </trkpt>
      <trkpt lat="44.40298" lon="6.40582">
        <ele>2034</ele>
        <time>2020-07-07T10:21:36.000Z</time>
      </trkpt>
      <trkpt lat="44.40298" lon="6.40583">
        <ele>2034</ele>
        <time>2020-07-07T10:21:37.000Z</time>
      </trkpt>
      <trkpt lat="44.40297" lon="6.40584">
        <ele>2034</ele>
        <time>2020-07-07T10:21:38.000Z</time>
      </trkpt>
      <trkpt lat="44.40297" lon="6.40585">
        <ele>2034</ele>
        <time>2020-07-07T10:21:39.000Z</time>
      </trkpt>
      <trkpt lat="44.40297" lon="6.40586">
        <ele>2034</ele>
        <time>2020-07-07T10:21:40.000Z</time>
      </trkpt>
      <trkpt lat="44.40297" lon="6.40587">
        <ele>2034</ele>
        <time>2020-07-07T10:21:41.000Z</time>
      </trkpt>
      <trkpt lat="44.40296" lon="6.40589">
        <ele>2033</ele>
        <time>2020-07-07T10:21:42.000Z</time>
      </trkpt>
      <trkpt lat="44.40296" lon="6.4059">
        <ele>2033</ele>
        <time>2020-07-07T10:21:43.000Z</time>
      </trkpt>
      <trkpt lat="44.40295" lon="6.40591">
        <ele>2033</ele>
        <time>2020-07-07T10:21:44.000Z</time>
      </trkpt>
      <trkpt lat="44.40295" lon="6.40592">
        <ele>2033</ele>
        <time>2020-07-07T10:21:45.000Z</time>
      </trkpt>
      <trkpt lat="44.40294" lon="6.40591">
        <ele>2033</ele>
        <time>2020-07-07T10:21:46.000Z</time>
      </trkpt>
      <trkpt lat="44.40293" lon="6.4059">
        <ele>2033</ele>
        <time>2020-07-07T10:21:47.000Z</time>
      </trkpt>
      <trkpt lat="44.40292" lon="6.40589">
        <ele>2032</ele>
        <time>2020-07-07T10:21:48.000Z</time>
      </trkpt>
      <trkpt lat="44.40292" lon="6.40589">
        <ele>2032</ele>
        <time>2020-07-07T10:21:49.000Z</time>
      </trkpt>
      <trkpt lat="44.40291" lon="6.40588">
        <ele>2032</ele>
        <time>2020-07-07T10:21:50.000Z</time>
      </trkpt>
      <trkpt lat="44.4029" lon="6.40587">
        <ele>2032</ele>
        <time>2020-07-07T10:21:51.000Z</time>
      </trkpt>
      <trkpt lat="44.4029" lon="6.40586">
        <ele>2031</ele>
        <time>2020-07-07T10:21:52.000Z</time>
      </trkpt>
      <trkpt lat="44.40289" lon="6.40585">
        <ele>2031</ele>
        <time>2020-07-07T10:21:53.000Z</time>
      </trkpt>
      <trkpt lat="44.40288" lon="6.40584">
        <ele>2031</ele>
        <time>2020-07-07T10:21:54.000Z</time>
      </trkpt>
      <trkpt lat="44.40287" lon="6.40584">
        <ele>2031</ele>
        <time>2020-07-07T10:21:55.000Z</time>
      </trkpt>
      <trkpt lat="44.40287" lon="6.40583">
        <ele>2031</ele>
        <time>2020-07-07T10:21:56.000Z</time>
      </trkpt>
      <trkpt lat="44.40286" lon="6.40582">
        <ele>2030</ele>
        <time>2020-07-07T10:21:57.000Z</time>
      </trkpt>
      <trkpt lat="44.40285" lon="6.40581">
        <ele>2030</ele>
        <time>2020-07-07T10:21:58.000Z</time>
      </trkpt>
      <trkpt lat="44.40284" lon="6.40579">
        <ele>2030</ele>
        <time>2020-07-07T10:21:59.000Z</time>
      </trkpt>
      <trkpt lat="44.40284" lon="6.40578">
        <ele>2030</ele>
        <time>2020-07-07T10:22:00.000Z</time>
      </trkpt>
      <trkpt lat="44.40283" lon="6.40577">
        <ele>2029</ele>
        <time>2020-07-07T10:22:01.000Z</time>
      </trkpt>
      <trkpt lat="44.40282" lon="6.40576">
        <ele>2029</ele>
        <time>2020-07-07T10:22:02.000Z</time>
      </trkpt>
      <trkpt lat="44.40281" lon="6.40575">
        <ele>2029</ele>
        <time>2020-07-07T10:22:03.000Z</time>
      </trkpt>
      <trkpt lat="44.40281" lon="6.40574">
        <ele>2029</ele>
        <time>2020-07-07T10:22:04.000Z</time>
      </trkpt>
      <trkpt lat="44.4028" lon="6.40573">
        <ele>2029</ele>
        <time>2020-07-07T10:22:05.000Z</time>
      </trkpt>
      <trkpt lat="44.40279" lon="6.40572">
        <ele>2028</ele>
        <time>2020-07-07T10:22:06.000Z</time>
      </trkpt>
      <trkpt lat="44.40278" lon="6.40572">
        <ele>2028</ele>
        <time>2020-07-07T10:22:07.000Z</time>
      </trkpt>
      <trkpt lat="44.40278" lon="6.40571">
        <ele>2028</ele>
        <time>2020-07-07T10:22:08.000Z</time>
      </trkpt>
      <trkpt lat="44.40277" lon="6.40571">
        <ele>2028</ele>
        <time>2020-07-07T10:22:09.000Z</time>
      </trkpt>
      <trkpt lat="44.40276" lon="6.4057">
        <ele>2028</ele>
        <time>2020-07-07T10:22:10.000Z</time>
      </trkpt>
      <trkpt lat="44.40276" lon="6.4057">
        <ele>2028</ele>
        <time>2020-07-07T10:22:11.000Z</time>
      </trkpt>
      <trkpt lat="44.40275" lon="6.40571">
        <ele>2027</ele>
        <time>2020-07-07T10:22:12.000Z</time>
      </trkpt>
      <trkpt lat="44.40274" lon="6.40571">
        <ele>2027</ele>
        <time>2020-07-07T10:22:13.000Z</time>
      </trkpt>
      <trkpt lat="44.40274" lon="6.4057">
        <ele>2027</ele>
        <time>2020-07-07T10:22:14.000Z</time>
      </trkpt>
      <trkpt lat="44.40274" lon="6.4057">
        <ele>2027</ele>
        <time>2020-07-07T10:22:15.000Z</time>
      </trkpt>
      <trkpt lat="44.40273" lon="6.4057">
        <ele>2027</ele>
        <time>2020-07-07T10:22:16.000Z</time>
      </trkpt>
      <trkpt lat="44.40273" lon="6.4057">
        <ele>2026</ele>
        <time>2020-07-07T10:22:17.000Z</time>
      </trkpt>
      <trkpt lat="44.40272" lon="6.40571">
        <ele>2026</ele>
        <time>2020-07-07T10:22:18.000Z</time>
      </trkpt>
      <trkpt lat="44.40271" lon="6.40572">
        <ele>2026</ele>
        <time>2020-07-07T10:22:19.000Z</time>
      </trkpt>
      <trkpt lat="44.40271" lon="6.40573">
        <ele>2026</ele>
        <time>2020-07-07T10:22:20.000Z</time>
      </trkpt>
      <trkpt lat="44.4027" lon="6.40574">
        <ele>2025</ele>
        <time>2020-07-07T10:22:21.000Z</time>
      </trkpt>
      <trkpt lat="44.4027" lon="6.40575">
        <ele>2025</ele>
        <time>2020-07-07T10:22:22.000Z</time>
      </trkpt>
      <trkpt lat="44.40269" lon="6.40576">
        <ele>2025</ele>
        <time>2020-07-07T10:22:23.000Z</time>
      </trkpt>
      <trkpt lat="44.40269" lon="6.40577">
        <ele>2025</ele>
        <time>2020-07-07T10:22:24.000Z</time>
      </trkpt>
      <trkpt lat="44.40269" lon="6.40577">
        <ele>2024</ele>
        <time>2020-07-07T10:22:25.000Z</time>
      </trkpt>
      <trkpt lat="44.40269" lon="6.40578">
        <ele>2024</ele>
        <time>2020-07-07T10:22:26.000Z</time>
      </trkpt>
      <trkpt lat="44.40269" lon="6.40578">
        <ele>2024</ele>
        <time>2020-07-07T10:22:27.000Z</time>
      </trkpt>
      <trkpt lat="44.40269" lon="6.40579">
        <ele>2023</ele>
        <time>2020-07-07T10:22:28.000Z</time>
      </trkpt>
      <trkpt lat="44.40269" lon="6.4058">
        <ele>2023</ele>
        <time>2020-07-07T10:22:29.000Z</time>
      </trkpt>
      <trkpt lat="44.40269" lon="6.40581">
        <ele>2023</ele>
        <time>2020-07-07T10:22:30.000Z</time>
      </trkpt>
      <trkpt lat="44.40269" lon="6.40581">
        <ele>2022</ele>
        <time>2020-07-07T10:22:31.000Z</time>
      </trkpt>
      <trkpt lat="44.40269" lon="6.40582">
        <ele>2022</ele>
        <time>2020-07-07T10:22:32.000Z</time>
      </trkpt>
      <trkpt lat="44.40269" lon="6.40583">
        <ele>2022</ele>
        <time>2020-07-07T10:22:33.000Z</time>
      </trkpt>
      <trkpt lat="44.40269" lon="6.40584">
        <ele>2021</ele>
        <time>2020-07-07T10:22:34.000Z</time>
      </trkpt>
      <trkpt lat="44.40269" lon="6.40585">
        <ele>2021</ele>
        <time>2020-07-07T10:22:35.000Z</time>
      </trkpt>
      <trkpt lat="44.40269" lon="6.40586">
        <ele>2021</ele>
        <time>2020-07-07T10:22:36.000Z</time>
      </trkpt>
      <trkpt lat="44.40268" lon="6.40587">
        <ele>2021</ele>
        <time>2020-07-07T10:22:37.000Z</time>
      </trkpt>
      <trkpt lat="44.40268" lon="6.40588">
        <ele>2021</ele>
        <time>2020-07-07T10:22:38.000Z</time>
      </trkpt>
      <trkpt lat="44.40268" lon="6.40588">
        <ele>2021</ele>
        <time>2020-07-07T10:22:39.000Z</time>
      </trkpt>
      <trkpt lat="44.40267" lon="6.40589">
        <ele>2020</ele>
        <time>2020-07-07T10:22:40.000Z</time>
      </trkpt>
      <trkpt lat="44.40267" lon="6.40589">
        <ele>2020</ele>
        <time>2020-07-07T10:22:41.000Z</time>
      </trkpt>
      <trkpt lat="44.40267" lon="6.4059">
        <ele>2020</ele>
        <time>2020-07-07T10:22:42.000Z</time>
      </trkpt>
      <trkpt lat="44.40267" lon="6.4059">
        <ele>2019</ele>
        <time>2020-07-07T10:22:43.000Z</time>
      </trkpt>
      <trkpt lat="44.40267" lon="6.4059">
        <ele>2019</ele>
        <time>2020-07-07T10:22:44.000Z</time>
      </trkpt>
      <trkpt lat="44.40266" lon="6.40591">
        <ele>2019</ele>
        <time>2020-07-07T10:22:45.000Z</time>
      </trkpt>
      <trkpt lat="44.40266" lon="6.40591">
        <ele>2019</ele>
        <time>2020-07-07T10:22:46.000Z</time>
      </trkpt>
      <trkpt lat="44.40266" lon="6.40592">
        <ele>2018</ele>
        <time>2020-07-07T10:22:47.000Z</time>
      </trkpt>
      <trkpt lat="44.40266" lon="6.40593">
        <ele>2018</ele>
        <time>2020-07-07T10:22:48.000Z</time>
      </trkpt>
      <trkpt lat="44.40265" lon="6.40593">
        <ele>2018</ele>
        <time>2020-07-07T10:22:49.000Z</time>
      </trkpt>
      <trkpt lat="44.40265" lon="6.40594">
        <ele>2018</ele>
        <time>2020-07-07T10:22:50.000Z</time>
      </trkpt>
      <trkpt lat="44.40265" lon="6.40594">
        <ele>2018</ele>
        <time>2020-07-07T10:22:51.000Z</time>
      </trkpt>
      <trkpt lat="44.40264" lon="6.40594">
        <ele>2017</ele>
        <time>2020-07-07T10:22:52.000Z</time>
      </trkpt>
      <trkpt lat="44.40264" lon="6.40594">
        <ele>2017</ele>
        <time>2020-07-07T10:22:53.000Z</time>
      </trkpt>
      <trkpt lat="44.40264" lon="6.40595">
        <ele>2017</ele>
        <time>2020-07-07T10:22:54.000Z</time>
      </trkpt>
      <trkpt lat="44.40264" lon="6.40595">
        <ele>2016</ele>
        <time>2020-07-07T10:22:55.000Z</time>
      </trkpt>
      <trkpt lat="44.40264" lon="6.40596">
        <ele>2016</ele>
        <time>2020-07-07T10:22:56.000Z</time>
      </trkpt>
      <trkpt lat="44.40264" lon="6.40597">
        <ele>2016</ele>
        <time>2020-07-07T10:22:57.000Z</time>
      </trkpt>
      <trkpt lat="44.40264" lon="6.40598">
        <ele>2015</ele>
        <time>2020-07-07T10:22:58.000Z</time>
      </trkpt>
      <trkpt lat="44.40264" lon="6.40599">
        <ele>2015</ele>
        <time>2020-07-07T10:22:59.000Z</time>
      </trkpt>
      <trkpt lat="44.40263" lon="6.406">
        <ele>2015</ele>
        <time>2020-07-07T10:23:00.000Z</time>
      </trkpt>
      <trkpt lat="44.40263" lon="6.406">
        <ele>2015</ele>
        <time>2020-07-07T10:23:01.000Z</time>
      </trkpt>
      <trkpt lat="44.40263" lon="6.40601">
        <ele>2014</ele>
        <time>2020-07-07T10:23:02.000Z</time>
      </trkpt>
      <trkpt lat="44.40263" lon="6.40602">
        <ele>2014</ele>
        <time>2020-07-07T10:23:03.000Z</time>
      </trkpt>
      <trkpt lat="44.40263" lon="6.40603">
        <ele>2014</ele>
        <time>2020-07-07T10:23:04.000Z</time>
      </trkpt>
      <trkpt lat="44.40264" lon="6.40604">
        <ele>2014</ele>
        <time>2020-07-07T10:23:05.000Z</time>
      </trkpt>
      <trkpt lat="44.40264" lon="6.40605">
        <ele>2014</ele>
        <time>2020-07-07T10:23:06.000Z</time>
      </trkpt>
      <trkpt lat="44.40263" lon="6.40606">
        <ele>2014</ele>
        <time>2020-07-07T10:23:07.000Z</time>
      </trkpt>
      <trkpt lat="44.40263" lon="6.40607">
        <ele>2014</ele>
        <time>2020-07-07T10:23:08.000Z</time>
      </trkpt>
      <trkpt lat="44.40263" lon="6.40608">
        <ele>2013</ele>
        <time>2020-07-07T10:23:09.000Z</time>
      </trkpt>
      <trkpt lat="44.40263" lon="6.40609">
        <ele>2013</ele>
        <time>2020-07-07T10:23:10.000Z</time>
      </trkpt>
      <trkpt lat="44.40263" lon="6.4061">
        <ele>2013</ele>
        <time>2020-07-07T10:23:11.000Z</time>
      </trkpt>
      <trkpt lat="44.40262" lon="6.40612">
        <ele>2013</ele>
        <time>2020-07-07T10:23:12.000Z</time>
      </trkpt>
      <trkpt lat="44.40262" lon="6.40613">
        <ele>2012</ele>
        <time>2020-07-07T10:23:13.000Z</time>
      </trkpt>
      <trkpt lat="44.40262" lon="6.40613">
        <ele>2012</ele>
        <time>2020-07-07T10:23:14.000Z</time>
      </trkpt>
      <trkpt lat="44.40261" lon="6.40614">
        <ele>2012</ele>
        <time>2020-07-07T10:23:15.000Z</time>
      </trkpt>
      <trkpt lat="44.40261" lon="6.40615">
        <ele>2012</ele>
        <time>2020-07-07T10:23:16.000Z</time>
      </trkpt>
      <trkpt lat="44.40261" lon="6.40615">
        <ele>2012</ele>
        <time>2020-07-07T10:23:17.000Z</time>
      </trkpt>
      <trkpt lat="44.40262" lon="6.40616">
        <ele>2011</ele>
        <time>2020-07-07T10:23:18.000Z</time>
      </trkpt>
      <trkpt lat="44.40262" lon="6.40617">
        <ele>2011</ele>
        <time>2020-07-07T10:23:19.000Z</time>
      </trkpt>
      <trkpt lat="44.40263" lon="6.40618">
        <ele>2011</ele>
        <time>2020-07-07T10:23:20.000Z</time>
      </trkpt>
      <trkpt lat="44.40262" lon="6.40619">
        <ele>2011</ele>
        <time>2020-07-07T10:23:21.000Z</time>
      </trkpt>
      <trkpt lat="44.40262" lon="6.4062">
        <ele>2010</ele>
        <time>2020-07-07T10:23:22.000Z</time>
      </trkpt>
      <trkpt lat="44.40262" lon="6.40621">
        <ele>2010</ele>
        <time>2020-07-07T10:23:23.000Z</time>
      </trkpt>
      <trkpt lat="44.40261" lon="6.40622">
        <ele>2010</ele>
        <time>2020-07-07T10:23:24.000Z</time>
      </trkpt>
      <trkpt lat="44.40261" lon="6.40623">
        <ele>2010</ele>
        <time>2020-07-07T10:23:25.000Z</time>
      </trkpt>
      <trkpt lat="44.40261" lon="6.40623">
        <ele>2009</ele>
        <time>2020-07-07T10:23:26.000Z</time>
      </trkpt>
      <trkpt lat="44.4026" lon="6.40623">
        <ele>2009</ele>
        <time>2020-07-07T10:23:27.000Z</time>
      </trkpt>
      <trkpt lat="44.4026" lon="6.40624">
        <ele>2009</ele>
        <time>2020-07-07T10:23:28.000Z</time>
      </trkpt>
      <trkpt lat="44.4026" lon="6.40624">
        <ele>2009</ele>
        <time>2020-07-07T10:23:29.000Z</time>
      </trkpt>
      <trkpt lat="44.4026" lon="6.40625">
        <ele>2009</ele>
        <time>2020-07-07T10:23:30.000Z</time>
      </trkpt>
      <trkpt lat="44.4026" lon="6.40626">
        <ele>2009</ele>
        <time>2020-07-07T10:23:31.000Z</time>
      </trkpt>
      <trkpt lat="44.4026" lon="6.40627">
        <ele>2008</ele>
        <time>2020-07-07T10:23:32.000Z</time>
      </trkpt>
      <trkpt lat="44.4026" lon="6.40628">
        <ele>2008</ele>
        <time>2020-07-07T10:23:33.000Z</time>
      </trkpt>
      <trkpt lat="44.40259" lon="6.40629">
        <ele>2008</ele>
        <time>2020-07-07T10:23:34.000Z</time>
      </trkpt>
      <trkpt lat="44.40259" lon="6.40629">
        <ele>2008</ele>
        <time>2020-07-07T10:23:35.000Z</time>
      </trkpt>
      <trkpt lat="44.40259" lon="6.4063">
        <ele>2008</ele>
        <time>2020-07-07T10:23:36.000Z</time>
      </trkpt>
      <trkpt lat="44.40259" lon="6.40631">
        <ele>2007</ele>
        <time>2020-07-07T10:23:37.000Z</time>
      </trkpt>
      <trkpt lat="44.40258" lon="6.40632">
        <ele>2007</ele>
        <time>2020-07-07T10:23:38.000Z</time>
      </trkpt>
      <trkpt lat="44.40258" lon="6.40633">
        <ele>2007</ele>
        <time>2020-07-07T10:23:39.000Z</time>
      </trkpt>
      <trkpt lat="44.40258" lon="6.40633">
        <ele>2007</ele>
        <time>2020-07-07T10:23:40.000Z</time>
      </trkpt>
      <trkpt lat="44.40257" lon="6.40634">
        <ele>2006</ele>
        <time>2020-07-07T10:23:41.000Z</time>
      </trkpt>
      <trkpt lat="44.40257" lon="6.40635">
        <ele>2006</ele>
        <time>2020-07-07T10:23:42.000Z</time>
      </trkpt>
      <trkpt lat="44.40256" lon="6.40636">
        <ele>2006</ele>
        <time>2020-07-07T10:23:43.000Z</time>
      </trkpt>
      <trkpt lat="44.40256" lon="6.40636">
        <ele>2006</ele>
        <time>2020-07-07T10:23:44.000Z</time>
      </trkpt>
      <trkpt lat="44.40256" lon="6.40637">
        <ele>2006</ele>
        <time>2020-07-07T10:23:45.000Z</time>
      </trkpt>
      <trkpt lat="44.40255" lon="6.40638">
        <ele>2006</ele>
        <time>2020-07-07T10:23:46.000Z</time>
      </trkpt>
      <trkpt lat="44.40255" lon="6.40639">
        <ele>2005</ele>
        <time>2020-07-07T10:23:47.000Z</time>
      </trkpt>
      <trkpt lat="44.40255" lon="6.4064">
        <ele>2005</ele>
        <time>2020-07-07T10:23:48.000Z</time>
      </trkpt>
      <trkpt lat="44.40255" lon="6.4064">
        <ele>2005</ele>
        <time>2020-07-07T10:23:49.000Z</time>
      </trkpt>
      <trkpt lat="44.40254" lon="6.40641">
        <ele>2005</ele>
        <time>2020-07-07T10:23:50.000Z</time>
      </trkpt>
      <trkpt lat="44.40254" lon="6.40642">
        <ele>2005</ele>
        <time>2020-07-07T10:23:51.000Z</time>
      </trkpt>
      <trkpt lat="44.40254" lon="6.40643">
        <ele>2005</ele>
        <time>2020-07-07T10:23:52.000Z</time>
      </trkpt>
      <trkpt lat="44.40253" lon="6.40644">
        <ele>2004</ele>
        <time>2020-07-07T10:23:53.000Z</time>
      </trkpt>
      <trkpt lat="44.40253" lon="6.40645">
        <ele>2004</ele>
        <time>2020-07-07T10:23:54.000Z</time>
      </trkpt>
      <trkpt lat="44.40252" lon="6.40646">
        <ele>2004</ele>
        <time>2020-07-07T10:23:55.000Z</time>
      </trkpt>
      <trkpt lat="44.40252" lon="6.40647">
        <ele>2004</ele>
        <time>2020-07-07T10:23:56.000Z</time>
      </trkpt>
      <trkpt lat="44.40251" lon="6.40648">
        <ele>2004</ele>
        <time>2020-07-07T10:23:57.000Z</time>
      </trkpt>
      <trkpt lat="44.40251" lon="6.40649">
        <ele>2003</ele>
        <time>2020-07-07T10:23:58.000Z</time>
      </trkpt>
      <trkpt lat="44.4025" lon="6.40649">
        <ele>2003</ele>
        <time>2020-07-07T10:23:59.000Z</time>
      </trkpt>
      <trkpt lat="44.4025" lon="6.4065">
        <ele>2003</ele>
        <time>2020-07-07T10:24:00.000Z</time>
      </trkpt>
      <trkpt lat="44.4025" lon="6.40651">
        <ele>2003</ele>
        <time>2020-07-07T10:24:01.000Z</time>
      </trkpt>
      <trkpt lat="44.4025" lon="6.40652">
        <ele>2003</ele>
        <time>2020-07-07T10:24:02.000Z</time>
      </trkpt>
      <trkpt lat="44.4025" lon="6.40653">
        <ele>2002</ele>
        <time>2020-07-07T10:24:03.000Z</time>
      </trkpt>
      <trkpt lat="44.40249" lon="6.40655">
        <ele>2002</ele>
        <time>2020-07-07T10:24:04.000Z</time>
      </trkpt>
      <trkpt lat="44.40249" lon="6.40656">
        <ele>2002</ele>
        <time>2020-07-07T10:24:05.000Z</time>
      </trkpt>
      <trkpt lat="44.40248" lon="6.40656">
        <ele>2002</ele>
        <time>2020-07-07T10:24:06.000Z</time>
      </trkpt>
      <trkpt lat="44.40248" lon="6.40658">
        <ele>2002</ele>
        <time>2020-07-07T10:24:07.000Z</time>
      </trkpt>
      <trkpt lat="44.40248" lon="6.40659">
        <ele>2002</ele>
        <time>2020-07-07T10:24:08.000Z</time>
      </trkpt>
      <trkpt lat="44.40247" lon="6.4066">
        <ele>2002</ele>
        <time>2020-07-07T10:24:09.000Z</time>
      </trkpt>
      <trkpt lat="44.40246" lon="6.40662">
        <ele>2001</ele>
        <time>2020-07-07T10:24:10.000Z</time>
      </trkpt>
      <trkpt lat="44.40246" lon="6.40663">
        <ele>2001</ele>
        <time>2020-07-07T10:24:11.000Z</time>
      </trkpt>
      <trkpt lat="44.40245" lon="6.40665">
        <ele>2001</ele>
        <time>2020-07-07T10:24:12.000Z</time>
      </trkpt>
      <trkpt lat="44.40245" lon="6.40666">
        <ele>2001</ele>
        <time>2020-07-07T10:24:13.000Z</time>
      </trkpt>
      <trkpt lat="44.40244" lon="6.40668">
        <ele>2001</ele>
        <time>2020-07-07T10:24:14.000Z</time>
      </trkpt>
      <trkpt lat="44.40244" lon="6.40669">
        <ele>2000</ele>
        <time>2020-07-07T10:24:15.000Z</time>
      </trkpt>
      <trkpt lat="44.40244" lon="6.4067">
        <ele>2000</ele>
        <time>2020-07-07T10:24:16.000Z</time>
      </trkpt>
      <trkpt lat="44.40243" lon="6.40671">
        <ele>2000</ele>
        <time>2020-07-07T10:24:17.000Z</time>
      </trkpt>
      <trkpt lat="44.40243" lon="6.40673">
        <ele>2000</ele>
        <time>2020-07-07T10:24:18.000Z</time>
      </trkpt>
      <trkpt lat="44.40242" lon="6.40674">
        <ele>2000</ele>
        <time>2020-07-07T10:24:19.000Z</time>
      </trkpt>
      <trkpt lat="44.40242" lon="6.40676">
        <ele>1999</ele>
        <time>2020-07-07T10:24:20.000Z</time>
      </trkpt>
      <trkpt lat="44.40242" lon="6.40677">
        <ele>1999</ele>
        <time>2020-07-07T10:24:21.000Z</time>
      </trkpt>
      <trkpt lat="44.40242" lon="6.40678">
        <ele>1999</ele>
        <time>2020-07-07T10:24:22.000Z</time>
      </trkpt>
      <trkpt lat="44.40241" lon="6.40679">
        <ele>1999</ele>
        <time>2020-07-07T10:24:23.000Z</time>
      </trkpt>
      <trkpt lat="44.40241" lon="6.4068">
        <ele>1999</ele>
        <time>2020-07-07T10:24:24.000Z</time>
      </trkpt>
      <trkpt lat="44.4024" lon="6.40682">
        <ele>1999</ele>
        <time>2020-07-07T10:24:25.000Z</time>
      </trkpt>
      <trkpt lat="44.4024" lon="6.40683">
        <ele>1999</ele>
        <time>2020-07-07T10:24:26.000Z</time>
      </trkpt>
      <trkpt lat="44.40239" lon="6.40685">
        <ele>1998</ele>
        <time>2020-07-07T10:24:27.000Z</time>
      </trkpt>
      <trkpt lat="44.40239" lon="6.40686">
        <ele>1998</ele>
        <time>2020-07-07T10:24:28.000Z</time>
      </trkpt>
      <trkpt lat="44.40239" lon="6.40687">
        <ele>1998</ele>
        <time>2020-07-07T10:24:29.000Z</time>
      </trkpt>
      <trkpt lat="44.40239" lon="6.40689">
        <ele>1998</ele>
        <time>2020-07-07T10:24:30.000Z</time>
      </trkpt>
      <trkpt lat="44.40238" lon="6.4069">
        <ele>1998</ele>
        <time>2020-07-07T10:24:31.000Z</time>
      </trkpt>
      <trkpt lat="44.40238" lon="6.40691">
        <ele>1997</ele>
        <time>2020-07-07T10:24:32.000Z</time>
      </trkpt>
      <trkpt lat="44.40237" lon="6.40692">
        <ele>1997</ele>
        <time>2020-07-07T10:24:33.000Z</time>
      </trkpt>
      <trkpt lat="44.40236" lon="6.40693">
        <ele>1997</ele>
        <time>2020-07-07T10:24:34.000Z</time>
      </trkpt>
      <trkpt lat="44.40236" lon="6.40694">
        <ele>1997</ele>
        <time>2020-07-07T10:24:35.000Z</time>
      </trkpt>
      <trkpt lat="44.40235" lon="6.40695">
        <ele>1997</ele>
        <time>2020-07-07T10:24:36.000Z</time>
      </trkpt>
      <trkpt lat="44.40234" lon="6.40696">
        <ele>1997</ele>
        <time>2020-07-07T10:24:37.000Z</time>
      </trkpt>
      <trkpt lat="44.40233" lon="6.40697">
        <ele>1996</ele>
        <time>2020-07-07T10:24:38.000Z</time>
      </trkpt>
      <trkpt lat="44.40232" lon="6.40698">
        <ele>1996</ele>
        <time>2020-07-07T10:24:39.000Z</time>
      </trkpt>
      <trkpt lat="44.40232" lon="6.40698">
        <ele>1996</ele>
        <time>2020-07-07T10:24:40.000Z</time>
      </trkpt>
      <trkpt lat="44.40231" lon="6.40699">
        <ele>1996</ele>
        <time>2020-07-07T10:24:41.000Z</time>
      </trkpt>
      <trkpt lat="44.40231" lon="6.407">
        <ele>1996</ele>
        <time>2020-07-07T10:24:42.000Z</time>
      </trkpt>
      <trkpt lat="44.4023" lon="6.40701">
        <ele>1995</ele>
        <time>2020-07-07T10:24:43.000Z</time>
      </trkpt>
      <trkpt lat="44.4023" lon="6.40701">
        <ele>1995</ele>
        <time>2020-07-07T10:24:44.000Z</time>
      </trkpt>
      <trkpt lat="44.40229" lon="6.40702">
        <ele>1995</ele>
        <time>2020-07-07T10:24:45.000Z</time>
      </trkpt>
      <trkpt lat="44.40228" lon="6.40702">
        <ele>1995</ele>
        <time>2020-07-07T10:24:46.000Z</time>
      </trkpt>
      <trkpt lat="44.40228" lon="6.40703">
        <ele>1995</ele>
        <time>2020-07-07T10:24:47.000Z</time>
      </trkpt>
      <trkpt lat="44.40227" lon="6.40704">
        <ele>1994</ele>
        <time>2020-07-07T10:24:48.000Z</time>
      </trkpt>
      <trkpt lat="44.40227" lon="6.40705">
        <ele>1994</ele>
        <time>2020-07-07T10:24:49.000Z</time>
      </trkpt>
      <trkpt lat="44.40226" lon="6.40706">
        <ele>1994</ele>
        <time>2020-07-07T10:24:50.000Z</time>
      </trkpt>
      <trkpt lat="44.40226" lon="6.40706">
        <ele>1994</ele>
        <time>2020-07-07T10:24:51.000Z</time>
      </trkpt>
      <trkpt lat="44.40225" lon="6.40707">
        <ele>1993</ele>
        <time>2020-07-07T10:24:52.000Z</time>
      </trkpt>
      <trkpt lat="44.40225" lon="6.40709">
        <ele>1993</ele>
        <time>2020-07-07T10:24:53.000Z</time>
      </trkpt>
      <trkpt lat="44.40225" lon="6.4071">
        <ele>1993</ele>
        <time>2020-07-07T10:24:54.000Z</time>
      </trkpt>
      <trkpt lat="44.40224" lon="6.40711">
        <ele>1993</ele>
        <time>2020-07-07T10:24:55.000Z</time>
      </trkpt>
      <trkpt lat="44.40223" lon="6.40712">
        <ele>1992</ele>
        <time>2020-07-07T10:24:56.000Z</time>
      </trkpt>
      <trkpt lat="44.40223" lon="6.40713">
        <ele>1992</ele>
        <time>2020-07-07T10:24:57.000Z</time>
      </trkpt>
      <trkpt lat="44.40222" lon="6.40713">
        <ele>1992</ele>
        <time>2020-07-07T10:24:58.000Z</time>
      </trkpt>
      <trkpt lat="44.40222" lon="6.40714">
        <ele>1992</ele>
        <time>2020-07-07T10:24:59.000Z</time>
      </trkpt>
      <trkpt lat="44.40222" lon="6.40715">
        <ele>1991</ele>
        <time>2020-07-07T10:25:00.000Z</time>
      </trkpt>
      <trkpt lat="44.40221" lon="6.40716">
        <ele>1991</ele>
        <time>2020-07-07T10:25:01.000Z</time>
      </trkpt>
      <trkpt lat="44.40221" lon="6.40717">
        <ele>1991</ele>
        <time>2020-07-07T10:25:02.000Z</time>
      </trkpt>
      <trkpt lat="44.40221" lon="6.40718">
        <ele>1991</ele>
        <time>2020-07-07T10:25:03.000Z</time>
      </trkpt>
      <trkpt lat="44.40221" lon="6.40719">
        <ele>1991</ele>
        <time>2020-07-07T10:25:04.000Z</time>
      </trkpt>
      <trkpt lat="44.4022" lon="6.40721">
        <ele>1991</ele>
        <time>2020-07-07T10:25:05.000Z</time>
      </trkpt>
      <trkpt lat="44.4022" lon="6.40722">
        <ele>1991</ele>
        <time>2020-07-07T10:25:06.000Z</time>
      </trkpt>
      <trkpt lat="44.40219" lon="6.40723">
        <ele>1990</ele>
        <time>2020-07-07T10:25:07.000Z</time>
      </trkpt>
      <trkpt lat="44.40219" lon="6.40724">
        <ele>1990</ele>
        <time>2020-07-07T10:25:08.000Z</time>
      </trkpt>
      <trkpt lat="44.40218" lon="6.40725">
        <ele>1990</ele>
        <time>2020-07-07T10:25:09.000Z</time>
      </trkpt>
      <trkpt lat="44.40218" lon="6.40726">
        <ele>1990</ele>
        <time>2020-07-07T10:25:10.000Z</time>
      </trkpt>
      <trkpt lat="44.40218" lon="6.40727">
        <ele>1990</ele>
        <time>2020-07-07T10:25:11.000Z</time>
      </trkpt>
      <trkpt lat="44.40218" lon="6.40727">
        <ele>1990</ele>
        <time>2020-07-07T10:25:12.000Z</time>
      </trkpt>
      <trkpt lat="44.40218" lon="6.40728">
        <ele>1990</ele>
        <time>2020-07-07T10:25:13.000Z</time>
      </trkpt>
      <trkpt lat="44.40217" lon="6.40729">
        <ele>1989</ele>
        <time>2020-07-07T10:25:14.000Z</time>
      </trkpt>
      <trkpt lat="44.40217" lon="6.4073">
        <ele>1989</ele>
        <time>2020-07-07T10:25:15.000Z</time>
      </trkpt>
      <trkpt lat="44.40217" lon="6.40732">
        <ele>1989</ele>
        <time>2020-07-07T10:25:16.000Z</time>
      </trkpt>
      <trkpt lat="44.40217" lon="6.40732">
        <ele>1989</ele>
        <time>2020-07-07T10:25:17.000Z</time>
      </trkpt>
      <trkpt lat="44.40217" lon="6.40734">
        <ele>1989</ele>
        <time>2020-07-07T10:25:18.000Z</time>
      </trkpt>
      <trkpt lat="44.40217" lon="6.40735">
        <ele>1989</ele>
        <time>2020-07-07T10:25:19.000Z</time>
      </trkpt>
      <trkpt lat="44.40216" lon="6.40736">
        <ele>1988</ele>
        <time>2020-07-07T10:25:20.000Z</time>
      </trkpt>
      <trkpt lat="44.40216" lon="6.40736">
        <ele>1988</ele>
        <time>2020-07-07T10:25:21.000Z</time>
      </trkpt>
      <trkpt lat="44.40216" lon="6.40738">
        <ele>1988</ele>
        <time>2020-07-07T10:25:22.000Z</time>
      </trkpt>
      <trkpt lat="44.40215" lon="6.40739">
        <ele>1988</ele>
        <time>2020-07-07T10:25:23.000Z</time>
      </trkpt>
      <trkpt lat="44.40215" lon="6.4074">
        <ele>1988</ele>
        <time>2020-07-07T10:25:24.000Z</time>
      </trkpt>
      <trkpt lat="44.40215" lon="6.40741">
        <ele>1988</ele>
        <time>2020-07-07T10:25:25.000Z</time>
      </trkpt>
      <trkpt lat="44.40214" lon="6.40742">
        <ele>1987</ele>
        <time>2020-07-07T10:25:26.000Z</time>
      </trkpt>
      <trkpt lat="44.40214" lon="6.40743">
        <ele>1987</ele>
        <time>2020-07-07T10:25:27.000Z</time>
      </trkpt>
      <trkpt lat="44.40213" lon="6.40743">
        <ele>1987</ele>
        <time>2020-07-07T10:25:28.000Z</time>
      </trkpt>
      <trkpt lat="44.40213" lon="6.40745">
        <ele>1987</ele>
        <time>2020-07-07T10:25:29.000Z</time>
      </trkpt>
      <trkpt lat="44.40212" lon="6.40746">
        <ele>1987</ele>
        <time>2020-07-07T10:25:30.000Z</time>
      </trkpt>
      <trkpt lat="44.40211" lon="6.40747">
        <ele>1987</ele>
        <time>2020-07-07T10:25:31.000Z</time>
      </trkpt>
      <trkpt lat="44.40211" lon="6.40748">
        <ele>1986</ele>
        <time>2020-07-07T10:25:32.000Z</time>
      </trkpt>
      <trkpt lat="44.4021" lon="6.40749">
        <ele>1986</ele>
        <time>2020-07-07T10:25:33.000Z</time>
      </trkpt>
      <trkpt lat="44.4021" lon="6.4075">
        <ele>1986</ele>
        <time>2020-07-07T10:25:34.000Z</time>
      </trkpt>
      <trkpt lat="44.4021" lon="6.40751">
        <ele>1986</ele>
        <time>2020-07-07T10:25:35.000Z</time>
      </trkpt>
      <trkpt lat="44.4021" lon="6.40753">
        <ele>1986</ele>
        <time>2020-07-07T10:25:36.000Z</time>
      </trkpt>
      <trkpt lat="44.40209" lon="6.40754">
        <ele>1986</ele>
        <time>2020-07-07T10:25:37.000Z</time>
      </trkpt>
      <trkpt lat="44.40209" lon="6.40755">
        <ele>1985</ele>
        <time>2020-07-07T10:25:38.000Z</time>
      </trkpt>
      <trkpt lat="44.40209" lon="6.40756">
        <ele>1985</ele>
        <time>2020-07-07T10:25:39.000Z</time>
      </trkpt>
      <trkpt lat="44.40209" lon="6.40757">
        <ele>1985</ele>
        <time>2020-07-07T10:25:40.000Z</time>
      </trkpt>
      <trkpt lat="44.40208" lon="6.40758">
        <ele>1985</ele>
        <time>2020-07-07T10:25:41.000Z</time>
      </trkpt>
      <trkpt lat="44.40208" lon="6.40759">
        <ele>1985</ele>
        <time>2020-07-07T10:25:42.000Z</time>
      </trkpt>
      <trkpt lat="44.40207" lon="6.40761">
        <ele>1984</ele>
        <time>2020-07-07T10:25:43.000Z</time>
      </trkpt>
      <trkpt lat="44.40207" lon="6.40762">
        <ele>1984</ele>
        <time>2020-07-07T10:25:44.000Z</time>
      </trkpt>
      <trkpt lat="44.40206" lon="6.40763">
        <ele>1984</ele>
        <time>2020-07-07T10:25:45.000Z</time>
      </trkpt>
      <trkpt lat="44.40205" lon="6.40765">
        <ele>1984</ele>
        <time>2020-07-07T10:25:46.000Z</time>
      </trkpt>
      <trkpt lat="44.40205" lon="6.40766">
        <ele>1983</ele>
        <time>2020-07-07T10:25:47.000Z</time>
      </trkpt>
      <trkpt lat="44.40204" lon="6.40767">
        <ele>1983</ele>
        <time>2020-07-07T10:25:48.000Z</time>
      </trkpt>
      <trkpt lat="44.40204" lon="6.40768">
        <ele>1983</ele>
        <time>2020-07-07T10:25:49.000Z</time>
      </trkpt>
      <trkpt lat="44.40203" lon="6.40769">
        <ele>1983</ele>
        <time>2020-07-07T10:25:50.000Z</time>
      </trkpt>
      <trkpt lat="44.40203" lon="6.4077">
        <ele>1982</ele>
        <time>2020-07-07T10:25:51.000Z</time>
      </trkpt>
      <trkpt lat="44.40202" lon="6.40771">
        <ele>1982</ele>
        <time>2020-07-07T10:25:52.000Z</time>
      </trkpt>
      <trkpt lat="44.40201" lon="6.40772">
        <ele>1982</ele>
        <time>2020-07-07T10:25:53.000Z</time>
      </trkpt>
      <trkpt lat="44.40201" lon="6.40773">
        <ele>1982</ele>
        <time>2020-07-07T10:25:54.000Z</time>
      </trkpt>
      <trkpt lat="44.402" lon="6.40774">
        <ele>1981</ele>
        <time>2020-07-07T10:25:55.000Z</time>
      </trkpt>
      <trkpt lat="44.40199" lon="6.40774">
        <ele>1981</ele>
        <time>2020-07-07T10:25:56.000Z</time>
      </trkpt>
      <trkpt lat="44.40199" lon="6.40775">
        <ele>1981</ele>
        <time>2020-07-07T10:25:57.000Z</time>
      </trkpt>
      <trkpt lat="44.40199" lon="6.40776">
        <ele>1981</ele>
        <time>2020-07-07T10:25:58.000Z</time>
      </trkpt>
      <trkpt lat="44.40198" lon="6.40776">
        <ele>1980</ele>
        <time>2020-07-07T10:25:59.000Z</time>
      </trkpt>
      <trkpt lat="44.40197" lon="6.40777">
        <ele>1980</ele>
        <time>2020-07-07T10:26:00.000Z</time>
      </trkpt>
      <trkpt lat="44.40197" lon="6.40778">
        <ele>1980</ele>
        <time>2020-07-07T10:26:01.000Z</time>
      </trkpt>
      <trkpt lat="44.40196" lon="6.40778">
        <ele>1980</ele>
        <time>2020-07-07T10:26:02.000Z</time>
      </trkpt>
      <trkpt lat="44.40196" lon="6.40779">
        <ele>1979</ele>
        <time>2020-07-07T10:26:03.000Z</time>
      </trkpt>
      <trkpt lat="44.40195" lon="6.4078">
        <ele>1979</ele>
        <time>2020-07-07T10:26:04.000Z</time>
      </trkpt>
      <trkpt lat="44.40194" lon="6.40781">
        <ele>1979</ele>
        <time>2020-07-07T10:26:05.000Z</time>
      </trkpt>
      <trkpt lat="44.40193" lon="6.40781">
        <ele>1979</ele>
        <time>2020-07-07T10:26:06.000Z</time>
      </trkpt>
      <trkpt lat="44.40193" lon="6.40782">
        <ele>1978</ele>
        <time>2020-07-07T10:26:07.000Z</time>
      </trkpt>
      <trkpt lat="44.40192" lon="6.40783">
        <ele>1978</ele>
        <time>2020-07-07T10:26:08.000Z</time>
      </trkpt>
      <trkpt lat="44.40192" lon="6.40783">
        <ele>1978</ele>
        <time>2020-07-07T10:26:09.000Z</time>
      </trkpt>
      <trkpt lat="44.40192" lon="6.40784">
        <ele>1978</ele>
        <time>2020-07-07T10:26:10.000Z</time>
      </trkpt>
      <trkpt lat="44.40191" lon="6.40785">
        <ele>1978</ele>
        <time>2020-07-07T10:26:11.000Z</time>
      </trkpt>
      <trkpt lat="44.40191" lon="6.40785">
        <ele>1978</ele>
        <time>2020-07-07T10:26:12.000Z</time>
      </trkpt>
      <trkpt lat="44.4019" lon="6.40786">
        <ele>1977</ele>
        <time>2020-07-07T10:26:13.000Z</time>
      </trkpt>
      <trkpt lat="44.40189" lon="6.40787">
        <ele>1977</ele>
        <time>2020-07-07T10:26:14.000Z</time>
      </trkpt>
      <trkpt lat="44.40188" lon="6.40788">
        <ele>1977</ele>
        <time>2020-07-07T10:26:15.000Z</time>
      </trkpt>
      <trkpt lat="44.40187" lon="6.40789">
        <ele>1977</ele>
        <time>2020-07-07T10:26:16.000Z</time>
      </trkpt>
      <trkpt lat="44.40187" lon="6.4079">
        <ele>1977</ele>
        <time>2020-07-07T10:26:17.000Z</time>
      </trkpt>
      <trkpt lat="44.40186" lon="6.40791">
        <ele>1976</ele>
        <time>2020-07-07T10:26:18.000Z</time>
      </trkpt>
      <trkpt lat="44.40185" lon="6.40792">
        <ele>1976</ele>
        <time>2020-07-07T10:26:19.000Z</time>
      </trkpt>
      <trkpt lat="44.40185" lon="6.40793">
        <ele>1976</ele>
        <time>2020-07-07T10:26:20.000Z</time>
      </trkpt>
      <trkpt lat="44.40184" lon="6.40794">
        <ele>1976</ele>
        <time>2020-07-07T10:26:21.000Z</time>
      </trkpt>
      <trkpt lat="44.40183" lon="6.40795">
        <ele>1976</ele>
        <time>2020-07-07T10:26:22.000Z</time>
      </trkpt>
      <trkpt lat="44.40183" lon="6.40796">
        <ele>1976</ele>
        <time>2020-07-07T10:26:23.000Z</time>
      </trkpt>
      <trkpt lat="44.40182" lon="6.40797">
        <ele>1976</ele>
        <time>2020-07-07T10:26:24.000Z</time>
      </trkpt>
      <trkpt lat="44.40182" lon="6.40798">
        <ele>1976</ele>
        <time>2020-07-07T10:26:25.000Z</time>
      </trkpt>
      <trkpt lat="44.40181" lon="6.40799">
        <ele>1976</ele>
        <time>2020-07-07T10:26:26.000Z</time>
      </trkpt>
      <trkpt lat="44.4018" lon="6.408">
        <ele>1975</ele>
        <time>2020-07-07T10:26:27.000Z</time>
      </trkpt>
      <trkpt lat="44.40179" lon="6.40801">
        <ele>1975</ele>
        <time>2020-07-07T10:26:28.000Z</time>
      </trkpt>
      <trkpt lat="44.40178" lon="6.40801">
        <ele>1975</ele>
        <time>2020-07-07T10:26:29.000Z</time>
      </trkpt>
      <trkpt lat="44.40178" lon="6.40802">
        <ele>1975</ele>
        <time>2020-07-07T10:26:30.000Z</time>
      </trkpt>
      <trkpt lat="44.40177" lon="6.40803">
        <ele>1975</ele>
        <time>2020-07-07T10:26:31.000Z</time>
      </trkpt>
      <trkpt lat="44.40176" lon="6.40804">
        <ele>1975</ele>
        <time>2020-07-07T10:26:32.000Z</time>
      </trkpt>
      <trkpt lat="44.40176" lon="6.40805">
        <ele>1974</ele>
        <time>2020-07-07T10:26:33.000Z</time>
      </trkpt>
      <trkpt lat="44.40175" lon="6.40805">
        <ele>1974</ele>
        <time>2020-07-07T10:26:34.000Z</time>
      </trkpt>
      <trkpt lat="44.40174" lon="6.40806">
        <ele>1974</ele>
        <time>2020-07-07T10:26:35.000Z</time>
      </trkpt>
      <trkpt lat="44.40173" lon="6.40807">
        <ele>1974</ele>
        <time>2020-07-07T10:26:36.000Z</time>
      </trkpt>
      <trkpt lat="44.40173" lon="6.40808">
        <ele>1974</ele>
        <time>2020-07-07T10:26:37.000Z</time>
      </trkpt>
      <trkpt lat="44.40173" lon="6.40809">
        <ele>1974</ele>
        <time>2020-07-07T10:26:38.000Z</time>
      </trkpt>
      <trkpt lat="44.40173" lon="6.4081">
        <ele>1974</ele>
        <time>2020-07-07T10:26:39.000Z</time>
      </trkpt>
      <trkpt lat="44.40173" lon="6.40812">
        <ele>1974</ele>
        <time>2020-07-07T10:26:40.000Z</time>
      </trkpt>
      <trkpt lat="44.40173" lon="6.40813">
        <ele>1974</ele>
        <time>2020-07-07T10:26:41.000Z</time>
      </trkpt>
      <trkpt lat="44.40172" lon="6.40815">
        <ele>1973</ele>
        <time>2020-07-07T10:26:42.000Z</time>
      </trkpt>
      <trkpt lat="44.40172" lon="6.40816">
        <ele>1973</ele>
        <time>2020-07-07T10:26:43.000Z</time>
      </trkpt>
      <trkpt lat="44.40171" lon="6.40817">
        <ele>1973</ele>
        <time>2020-07-07T10:26:44.000Z</time>
      </trkpt>
      <trkpt lat="44.40171" lon="6.40818">
        <ele>1973</ele>
        <time>2020-07-07T10:26:45.000Z</time>
      </trkpt>
      <trkpt lat="44.4017" lon="6.40819">
        <ele>1973</ele>
        <time>2020-07-07T10:26:46.000Z</time>
      </trkpt>
      <trkpt lat="44.4017" lon="6.4082">
        <ele>1973</ele>
        <time>2020-07-07T10:26:47.000Z</time>
      </trkpt>
      <trkpt lat="44.40169" lon="6.40821">
        <ele>1973</ele>
        <time>2020-07-07T10:26:48.000Z</time>
      </trkpt>
      <trkpt lat="44.40169" lon="6.40822">
        <ele>1972</ele>
        <time>2020-07-07T10:26:49.000Z</time>
      </trkpt>
      <trkpt lat="44.40168" lon="6.40823">
        <ele>1972</ele>
        <time>2020-07-07T10:26:50.000Z</time>
      </trkpt>
      <trkpt lat="44.40168" lon="6.40824">
        <ele>1972</ele>
        <time>2020-07-07T10:26:51.000Z</time>
      </trkpt>
      <trkpt lat="44.40167" lon="6.40825">
        <ele>1972</ele>
        <time>2020-07-07T10:26:52.000Z</time>
      </trkpt>
      <trkpt lat="44.40167" lon="6.40825">
        <ele>1972</ele>
        <time>2020-07-07T10:26:53.000Z</time>
      </trkpt>
      <trkpt lat="44.40167" lon="6.40825">
        <ele>1972</ele>
        <time>2020-07-07T10:26:54.000Z</time>
      </trkpt>
      <trkpt lat="44.40167" lon="6.40825">
        <ele>1972</ele>
        <time>2020-07-07T10:26:55.000Z</time>
      </trkpt>
      <trkpt lat="44.40167" lon="6.40825">
        <ele>1972</ele>
        <time>2020-07-07T10:26:56.000Z</time>
      </trkpt>
      <trkpt lat="44.40167" lon="6.40825">
        <ele>1972</ele>
        <time>2020-07-07T10:26:57.000Z</time>
      </trkpt>
      <trkpt lat="44.40167" lon="6.40825">
        <ele>1972</ele>
        <time>2020-07-07T10:26:58.000Z</time>
      </trkpt>
      <trkpt lat="44.40167" lon="6.40825">
        <ele>1971</ele>
        <time>2020-07-07T10:26:59.000Z</time>
      </trkpt>
      <trkpt lat="44.40167" lon="6.40825">
        <ele>1971</ele>
        <time>2020-07-07T10:27:00.000Z</time>
      </trkpt>
      <trkpt lat="44.40167" lon="6.40825">
        <ele>1971</ele>
        <time>2020-07-07T10:27:01.000Z</time>
      </trkpt>
      <trkpt lat="44.40167" lon="6.40825">
        <ele>1971</ele>
        <time>2020-07-07T10:27:02.000Z</time>
      </trkpt>
      <trkpt lat="44.40167" lon="6.40825">
        <ele>1971</ele>
        <time>2020-07-07T10:27:03.000Z</time>
      </trkpt>
      <trkpt lat="44.40167" lon="6.40825">
        <ele>1971</ele>
        <time>2020-07-07T10:27:04.000Z</time>
      </trkpt>
      <trkpt lat="44.40166" lon="6.40826">
        <ele>1971</ele>
        <time>2020-07-07T10:27:05.000Z</time>
      </trkpt>
      <trkpt lat="44.40165" lon="6.40827">
        <ele>1971</ele>
        <time>2020-07-07T10:27:06.000Z</time>
      </trkpt>
      <trkpt lat="44.40165" lon="6.40828">
        <ele>1971</ele>
        <time>2020-07-07T10:27:07.000Z</time>
      </trkpt>
      <trkpt lat="44.40164" lon="6.40829">
        <ele>1971</ele>
        <time>2020-07-07T10:27:08.000Z</time>
      </trkpt>
      <trkpt lat="44.40164" lon="6.4083">
        <ele>1971</ele>
        <time>2020-07-07T10:27:09.000Z</time>
      </trkpt>
      <trkpt lat="44.40163" lon="6.40831">
        <ele>1971</ele>
        <time>2020-07-07T10:27:10.000Z</time>
      </trkpt>
      <trkpt lat="44.40162" lon="6.40833">
        <ele>1971</ele>
        <time>2020-07-07T10:27:11.000Z</time>
      </trkpt>
      <trkpt lat="44.40161" lon="6.40834">
        <ele>1971</ele>
        <time>2020-07-07T10:27:12.000Z</time>
      </trkpt>
      <trkpt lat="44.40161" lon="6.40835">
        <ele>1970</ele>
        <time>2020-07-07T10:27:13.000Z</time>
      </trkpt>
      <trkpt lat="44.4016" lon="6.40836">
        <ele>1970</ele>
        <time>2020-07-07T10:27:14.000Z</time>
      </trkpt>
      <trkpt lat="44.40159" lon="6.40838">
        <ele>1970</ele>
        <time>2020-07-07T10:27:15.000Z</time>
      </trkpt>
      <trkpt lat="44.40158" lon="6.40839">
        <ele>1970</ele>
        <time>2020-07-07T10:27:16.000Z</time>
      </trkpt>
      <trkpt lat="44.40157" lon="6.4084">
        <ele>1970</ele>
        <time>2020-07-07T10:27:17.000Z</time>
      </trkpt>
      <trkpt lat="44.40157" lon="6.40841">
        <ele>1970</ele>
        <time>2020-07-07T10:27:18.000Z</time>
      </trkpt>
      <trkpt lat="44.40156" lon="6.40842">
        <ele>1970</ele>
        <time>2020-07-07T10:27:19.000Z</time>
      </trkpt>
      <trkpt lat="44.40155" lon="6.40843">
        <ele>1970</ele>
        <time>2020-07-07T10:27:20.000Z</time>
      </trkpt>
      <trkpt lat="44.40155" lon="6.40845">
        <ele>1970</ele>
        <time>2020-07-07T10:27:21.000Z</time>
      </trkpt>
      <trkpt lat="44.40154" lon="6.40846">
        <ele>1970</ele>
        <time>2020-07-07T10:27:22.000Z</time>
      </trkpt>
      <trkpt lat="44.40154" lon="6.40847">
        <ele>1970</ele>
        <time>2020-07-07T10:27:23.000Z</time>
      </trkpt>
      <trkpt lat="44.40153" lon="6.40849">
        <ele>1970</ele>
        <time>2020-07-07T10:27:24.000Z</time>
      </trkpt>
      <trkpt lat="44.40152" lon="6.4085">
        <ele>1970</ele>
        <time>2020-07-07T10:27:25.000Z</time>
      </trkpt>
      <trkpt lat="44.40152" lon="6.40851">
        <ele>1970</ele>
        <time>2020-07-07T10:27:26.000Z</time>
      </trkpt>
      <trkpt lat="44.40152" lon="6.40853">
        <ele>1970</ele>
        <time>2020-07-07T10:27:27.000Z</time>
      </trkpt>
      <trkpt lat="44.40151" lon="6.40855">
        <ele>1970</ele>
        <time>2020-07-07T10:27:28.000Z</time>
      </trkpt>
      <trkpt lat="44.40151" lon="6.40856">
        <ele>1970</ele>
        <time>2020-07-07T10:27:29.000Z</time>
      </trkpt>
      <trkpt lat="44.40151" lon="6.40858">
        <ele>1970</ele>
        <time>2020-07-07T10:27:30.000Z</time>
      </trkpt>
      <trkpt lat="44.4015" lon="6.40859">
        <ele>1970</ele>
        <time>2020-07-07T10:27:31.000Z</time>
      </trkpt>
      <trkpt lat="44.4015" lon="6.40861">
        <ele>1970</ele>
        <time>2020-07-07T10:27:32.000Z</time>
      </trkpt>
      <trkpt lat="44.40149" lon="6.40862">
        <ele>1970</ele>
        <time>2020-07-07T10:27:33.000Z</time>
      </trkpt>
      <trkpt lat="44.40149" lon="6.40864">
        <ele>1970</ele>
        <time>2020-07-07T10:27:34.000Z</time>
      </trkpt>
      <trkpt lat="44.40149" lon="6.40865">
        <ele>1970</ele>
        <time>2020-07-07T10:27:35.000Z</time>
      </trkpt>
      <trkpt lat="44.40148" lon="6.40867">
        <ele>1970</ele>
        <time>2020-07-07T10:27:36.000Z</time>
      </trkpt>
      <trkpt lat="44.40148" lon="6.40868">
        <ele>1970</ele>
        <time>2020-07-07T10:27:37.000Z</time>
      </trkpt>
      <trkpt lat="44.40148" lon="6.4087">
        <ele>1970</ele>
        <time>2020-07-07T10:27:38.000Z</time>
      </trkpt>
      <trkpt lat="44.40148" lon="6.40872">
        <ele>1970</ele>
        <time>2020-07-07T10:27:39.000Z</time>
      </trkpt>
      <trkpt lat="44.40147" lon="6.40873">
        <ele>1970</ele>
        <time>2020-07-07T10:27:40.000Z</time>
      </trkpt>
      <trkpt lat="44.40147" lon="6.40874">
        <ele>1970</ele>
        <time>2020-07-07T10:27:41.000Z</time>
      </trkpt>
      <trkpt lat="44.40147" lon="6.40876">
        <ele>1970</ele>
        <time>2020-07-07T10:27:42.000Z</time>
      </trkpt>
      <trkpt lat="44.40147" lon="6.40877">
        <ele>1970</ele>
        <time>2020-07-07T10:27:43.000Z</time>
      </trkpt>
      <trkpt lat="44.40146" lon="6.40878">
        <ele>1970</ele>
        <time>2020-07-07T10:27:44.000Z</time>
      </trkpt>
      <trkpt lat="44.40146" lon="6.40879">
        <ele>1970</ele>
        <time>2020-07-07T10:27:45.000Z</time>
      </trkpt>
      <trkpt lat="44.40146" lon="6.4088">
        <ele>1970</ele>
        <time>2020-07-07T10:27:46.000Z</time>
      </trkpt>
      <trkpt lat="44.40146" lon="6.40881">
        <ele>1970</ele>
        <time>2020-07-07T10:27:47.000Z</time>
      </trkpt>
      <trkpt lat="44.40146" lon="6.40882">
        <ele>1970</ele>
        <time>2020-07-07T10:27:48.000Z</time>
      </trkpt>
      <trkpt lat="44.40146" lon="6.40882">
        <ele>1970</ele>
        <time>2020-07-07T10:27:49.000Z</time>
      </trkpt>
      <trkpt lat="44.40146" lon="6.40882">
        <ele>1970</ele>
        <time>2020-07-07T10:27:50.000Z</time>
      </trkpt>
      <trkpt lat="44.40146" lon="6.40882">
        <ele>1970</ele>
        <time>2020-07-07T10:27:51.000Z</time>
      </trkpt>
      <trkpt lat="44.40146" lon="6.40882">
        <ele>1970</ele>
        <time>2020-07-07T10:27:52.000Z</time>
      </trkpt>
      <trkpt lat="44.40146" lon="6.40882">
        <ele>1969</ele>
        <time>2020-07-07T10:27:53.000Z</time>
      </trkpt>
      <trkpt lat="44.40146" lon="6.40882">
        <ele>1969</ele>
        <time>2020-07-07T10:27:54.000Z</time>
      </trkpt>
      <trkpt lat="44.40146" lon="6.40882">
        <ele>1969</ele>
        <time>2020-07-07T10:27:55.000Z</time>
      </trkpt>
      <trkpt lat="44.40146" lon="6.40882">
        <ele>1969</ele>
        <time>2020-07-07T10:27:56.000Z</time>
      </trkpt>
      <trkpt lat="44.40146" lon="6.40882">
        <ele>1969</ele>
        <time>2020-07-07T10:27:57.000Z</time>
      </trkpt>
      <trkpt lat="44.40145" lon="6.40882">
        <ele>1969</ele>
        <time>2020-07-07T10:27:58.000Z</time>
      </trkpt>
      <trkpt lat="44.40145" lon="6.40882">
        <ele>1969</ele>
        <time>2020-07-07T10:27:59.000Z</time>
      </trkpt>
      <trkpt lat="44.40145" lon="6.40882">
        <ele>1969</ele>
        <time>2020-07-07T10:28:00.000Z</time>
      </trkpt>
      <trkpt lat="44.40145" lon="6.40882">
        <ele>1969</ele>
        <time>2020-07-07T10:28:01.000Z</time>
      </trkpt>
      <trkpt lat="44.40145" lon="6.40882">
        <ele>1969</ele>
        <time>2020-07-07T10:28:02.000Z</time>
      </trkpt>
      <trkpt lat="44.40145" lon="6.40881">
        <ele>1969</ele>
        <time>2020-07-07T10:28:03.000Z</time>
      </trkpt>
      <trkpt lat="44.40145" lon="6.40881">
        <ele>1969</ele>
        <time>2020-07-07T10:28:04.000Z</time>
      </trkpt>
      <trkpt lat="44.40145" lon="6.40881">
        <ele>1969</ele>
        <time>2020-07-07T10:28:05.000Z</time>
      </trkpt>
      <trkpt lat="44.40145" lon="6.40881">
        <ele>1969</ele>
        <time>2020-07-07T10:28:06.000Z</time>
      </trkpt>
      <trkpt lat="44.40145" lon="6.40881">
        <ele>1969</ele>
        <time>2020-07-07T10:28:07.000Z</time>
      </trkpt>
      <trkpt lat="44.40145" lon="6.40881">
        <ele>1969</ele>
        <time>2020-07-07T10:28:08.000Z</time>
      </trkpt>
      <trkpt lat="44.40145" lon="6.40881">
        <ele>1969</ele>
        <time>2020-07-07T10:28:09.000Z</time>
      </trkpt>
      <trkpt lat="44.40145" lon="6.40881">
        <ele>1969</ele>
        <time>2020-07-07T10:28:10.000Z</time>
      </trkpt>
      <trkpt lat="44.40146" lon="6.40882">
        <ele>1969</ele>
        <time>2020-07-07T10:28:11.000Z</time>
      </trkpt>
      <trkpt lat="44.40146" lon="6.40883">
        <ele>1969</ele>
        <time>2020-07-07T10:28:12.000Z</time>
      </trkpt>
      <trkpt lat="44.40146" lon="6.40884">
        <ele>1969</ele>
        <time>2020-07-07T10:28:13.000Z</time>
      </trkpt>
      <trkpt lat="44.40147" lon="6.40885">
        <ele>1969</ele>
        <time>2020-07-07T10:28:14.000Z</time>
      </trkpt>
      <trkpt lat="44.40147" lon="6.40887">
        <ele>1969</ele>
        <time>2020-07-07T10:28:15.000Z</time>
      </trkpt>
      <trkpt lat="44.40147" lon="6.40888">
        <ele>1969</ele>
        <time>2020-07-07T10:28:16.000Z</time>
      </trkpt>
      <trkpt lat="44.40146" lon="6.4089">
        <ele>1969</ele>
        <time>2020-07-07T10:28:17.000Z</time>
      </trkpt>
      <trkpt lat="44.40146" lon="6.40891">
        <ele>1969</ele>
        <time>2020-07-07T10:28:18.000Z</time>
      </trkpt>
      <trkpt lat="44.40146" lon="6.40893">
        <ele>1969</ele>
        <time>2020-07-07T10:28:19.000Z</time>
      </trkpt>
      <trkpt lat="44.40146" lon="6.40894">
        <ele>1968</ele>
        <time>2020-07-07T10:28:20.000Z</time>
      </trkpt>
      <trkpt lat="44.40147" lon="6.40896">
        <ele>1968</ele>
        <time>2020-07-07T10:28:21.000Z</time>
      </trkpt>
      <trkpt lat="44.40147" lon="6.40897">
        <ele>1968</ele>
        <time>2020-07-07T10:28:22.000Z</time>
      </trkpt>
      <trkpt lat="44.40147" lon="6.40899">
        <ele>1968</ele>
        <time>2020-07-07T10:28:23.000Z</time>
      </trkpt>
      <trkpt lat="44.40148" lon="6.409">
        <ele>1968</ele>
        <time>2020-07-07T10:28:24.000Z</time>
      </trkpt>
      <trkpt lat="44.40148" lon="6.40902">
        <ele>1968</ele>
        <time>2020-07-07T10:28:25.000Z</time>
      </trkpt>
      <trkpt lat="44.40148" lon="6.40904">
        <ele>1968</ele>
        <time>2020-07-07T10:28:26.000Z</time>
      </trkpt>
      <trkpt lat="44.40148" lon="6.40905">
        <ele>1968</ele>
        <time>2020-07-07T10:28:27.000Z</time>
      </trkpt>
      <trkpt lat="44.40149" lon="6.40906">
        <ele>1968</ele>
        <time>2020-07-07T10:28:28.000Z</time>
      </trkpt>
      <trkpt lat="44.40149" lon="6.40907">
        <ele>1968</ele>
        <time>2020-07-07T10:28:29.000Z</time>
      </trkpt>
      <trkpt lat="44.40149" lon="6.40908">
        <ele>1968</ele>
        <time>2020-07-07T10:28:30.000Z</time>
      </trkpt>
      <trkpt lat="44.4015" lon="6.4091">
        <ele>1968</ele>
        <time>2020-07-07T10:28:31.000Z</time>
      </trkpt>
      <trkpt lat="44.4015" lon="6.40912">
        <ele>1968</ele>
        <time>2020-07-07T10:28:32.000Z</time>
      </trkpt>
      <trkpt lat="44.4015" lon="6.40914">
        <ele>1967</ele>
        <time>2020-07-07T10:28:33.000Z</time>
      </trkpt>
      <trkpt lat="44.40151" lon="6.40915">
        <ele>1967</ele>
        <time>2020-07-07T10:28:34.000Z</time>
      </trkpt>
      <trkpt lat="44.40151" lon="6.40917">
        <ele>1967</ele>
        <time>2020-07-07T10:28:35.000Z</time>
      </trkpt>
      <trkpt lat="44.40151" lon="6.40918">
        <ele>1967</ele>
        <time>2020-07-07T10:28:36.000Z</time>
      </trkpt>
      <trkpt lat="44.40151" lon="6.4092">
        <ele>1967</ele>
        <time>2020-07-07T10:28:37.000Z</time>
      </trkpt>
      <trkpt lat="44.40151" lon="6.40922">
        <ele>1967</ele>
        <time>2020-07-07T10:28:38.000Z</time>
      </trkpt>
      <trkpt lat="44.40151" lon="6.40924">
        <ele>1967</ele>
        <time>2020-07-07T10:28:39.000Z</time>
      </trkpt>
      <trkpt lat="44.40151" lon="6.40925">
        <ele>1967</ele>
        <time>2020-07-07T10:28:40.000Z</time>
      </trkpt>
      <trkpt lat="44.40152" lon="6.40927">
        <ele>1967</ele>
        <time>2020-07-07T10:28:41.000Z</time>
      </trkpt>
      <trkpt lat="44.40152" lon="6.40929">
        <ele>1967</ele>
        <time>2020-07-07T10:28:42.000Z</time>
      </trkpt>
      <trkpt lat="44.40152" lon="6.4093">
        <ele>1967</ele>
        <time>2020-07-07T10:28:43.000Z</time>
      </trkpt>
      <trkpt lat="44.40152" lon="6.40932">
        <ele>1967</ele>
        <time>2020-07-07T10:28:44.000Z</time>
      </trkpt>
      <trkpt lat="44.40152" lon="6.40934">
        <ele>1967</ele>
        <time>2020-07-07T10:28:45.000Z</time>
      </trkpt>
      <trkpt lat="44.40152" lon="6.40935">
        <ele>1967</ele>
        <time>2020-07-07T10:28:46.000Z</time>
      </trkpt>
      <trkpt lat="44.40153" lon="6.40937">
        <ele>1967</ele>
        <time>2020-07-07T10:28:47.000Z</time>
      </trkpt>
      <trkpt lat="44.40153" lon="6.40938">
        <ele>1967</ele>
        <time>2020-07-07T10:28:48.000Z</time>
      </trkpt>
      <trkpt lat="44.40153" lon="6.40939">
        <ele>1967</ele>
        <time>2020-07-07T10:28:49.000Z</time>
      </trkpt>
      <trkpt lat="44.40153" lon="6.40941">
        <ele>1966</ele>
        <time>2020-07-07T10:28:50.000Z</time>
      </trkpt>
      <trkpt lat="44.40153" lon="6.40942">
        <ele>1966</ele>
        <time>2020-07-07T10:28:51.000Z</time>
      </trkpt>
      <trkpt lat="44.40153" lon="6.40943">
        <ele>1966</ele>
        <time>2020-07-07T10:28:52.000Z</time>
      </trkpt>
      <trkpt lat="44.40153" lon="6.40944">
        <ele>1966</ele>
        <time>2020-07-07T10:28:53.000Z</time>
      </trkpt>
      <trkpt lat="44.40152" lon="6.40946">
        <ele>1966</ele>
        <time>2020-07-07T10:28:54.000Z</time>
      </trkpt>
      <trkpt lat="44.40152" lon="6.40947">
        <ele>1966</ele>
        <time>2020-07-07T10:28:55.000Z</time>
      </trkpt>
      <trkpt lat="44.40152" lon="6.40949">
        <ele>1966</ele>
        <time>2020-07-07T10:28:56.000Z</time>
      </trkpt>
      <trkpt lat="44.40152" lon="6.4095">
        <ele>1966</ele>
        <time>2020-07-07T10:28:57.000Z</time>
      </trkpt>
      <trkpt lat="44.40151" lon="6.40951">
        <ele>1966</ele>
        <time>2020-07-07T10:28:58.000Z</time>
      </trkpt>
      <trkpt lat="44.40151" lon="6.40952">
        <ele>1966</ele>
        <time>2020-07-07T10:28:59.000Z</time>
      </trkpt>
      <trkpt lat="44.40151" lon="6.40953">
        <ele>1965</ele>
        <time>2020-07-07T10:29:00.000Z</time>
      </trkpt>
      <trkpt lat="44.4015" lon="6.40954">
        <ele>1965</ele>
        <time>2020-07-07T10:29:01.000Z</time>
      </trkpt>
      <trkpt lat="44.4015" lon="6.40955">
        <ele>1965</ele>
        <time>2020-07-07T10:29:02.000Z</time>
      </trkpt>
      <trkpt lat="44.4015" lon="6.40956">
        <ele>1965</ele>
        <time>2020-07-07T10:29:03.000Z</time>
      </trkpt>
      <trkpt lat="44.4015" lon="6.40957">
        <ele>1965</ele>
        <time>2020-07-07T10:29:04.000Z</time>
      </trkpt>
      <trkpt lat="44.4015" lon="6.40958">
        <ele>1965</ele>
        <time>2020-07-07T10:29:05.000Z</time>
      </trkpt>
      <trkpt lat="44.4015" lon="6.40959">
        <ele>1965</ele>
        <time>2020-07-07T10:29:06.000Z</time>
      </trkpt>
      <trkpt lat="44.4015" lon="6.40961">
        <ele>1964</ele>
        <time>2020-07-07T10:29:07.000Z</time>
      </trkpt>
      <trkpt lat="44.40149" lon="6.40962">
        <ele>1964</ele>
        <time>2020-07-07T10:29:08.000Z</time>
      </trkpt>
      <trkpt lat="44.40149" lon="6.40964">
        <ele>1964</ele>
        <time>2020-07-07T10:29:09.000Z</time>
      </trkpt>
      <trkpt lat="44.40149" lon="6.40965">
        <ele>1964</ele>
        <time>2020-07-07T10:29:10.000Z</time>
      </trkpt>
      <trkpt lat="44.40149" lon="6.40966">
        <ele>1964</ele>
        <time>2020-07-07T10:29:11.000Z</time>
      </trkpt>
      <trkpt lat="44.4015" lon="6.40968">
        <ele>1964</ele>
        <time>2020-07-07T10:29:12.000Z</time>
      </trkpt>
      <trkpt lat="44.4015" lon="6.40969">
        <ele>1964</ele>
        <time>2020-07-07T10:29:13.000Z</time>
      </trkpt>
      <trkpt lat="44.4015" lon="6.40971">
        <ele>1964</ele>
        <time>2020-07-07T10:29:14.000Z</time>
      </trkpt>
      <trkpt lat="44.4015" lon="6.40972">
        <ele>1964</ele>
        <time>2020-07-07T10:29:15.000Z</time>
      </trkpt>
      <trkpt lat="44.4015" lon="6.40973">
        <ele>1964</ele>
        <time>2020-07-07T10:29:16.000Z</time>
      </trkpt>
      <trkpt lat="44.4015" lon="6.40974">
        <ele>1964</ele>
        <time>2020-07-07T10:29:17.000Z</time>
      </trkpt>
      <trkpt lat="44.4015" lon="6.40975">
        <ele>1964</ele>
        <time>2020-07-07T10:29:18.000Z</time>
      </trkpt>
      <trkpt lat="44.4015" lon="6.40975">
        <ele>1963</ele>
        <time>2020-07-07T10:29:19.000Z</time>
      </trkpt>
      <trkpt lat="44.4015" lon="6.40975">
        <ele>1963</ele>
        <time>2020-07-07T10:29:20.000Z</time>
      </trkpt>
      <trkpt lat="44.4015" lon="6.40975">
        <ele>1963</ele>
        <time>2020-07-07T10:29:21.000Z</time>
      </trkpt>
      <trkpt lat="44.4015" lon="6.40975">
        <ele>1963</ele>
        <time>2020-07-07T10:29:22.000Z</time>
      </trkpt>
      <trkpt lat="44.4015" lon="6.40975">
        <ele>1963</ele>
        <time>2020-07-07T10:29:23.000Z</time>
      </trkpt>
      <trkpt lat="44.4015" lon="6.40975">
        <ele>1963</ele>
        <time>2020-07-07T10:29:24.000Z</time>
      </trkpt>
      <trkpt lat="44.4015" lon="6.40976">
        <ele>1963</ele>
        <time>2020-07-07T10:29:25.000Z</time>
      </trkpt>
      <trkpt lat="44.4015" lon="6.40977">
        <ele>1963</ele>
        <time>2020-07-07T10:29:26.000Z</time>
      </trkpt>
      <trkpt lat="44.4015" lon="6.40979">
        <ele>1963</ele>
        <time>2020-07-07T10:29:27.000Z</time>
      </trkpt>
      <trkpt lat="44.4015" lon="6.4098">
        <ele>1963</ele>
        <time>2020-07-07T10:29:28.000Z</time>
      </trkpt>
      <trkpt lat="44.40151" lon="6.40982">
        <ele>1963</ele>
        <time>2020-07-07T10:29:29.000Z</time>
      </trkpt>
      <trkpt lat="44.40151" lon="6.40983">
        <ele>1963</ele>
        <time>2020-07-07T10:29:30.000Z</time>
      </trkpt>
      <trkpt lat="44.40151" lon="6.40984">
        <ele>1963</ele>
        <time>2020-07-07T10:29:31.000Z</time>
      </trkpt>
      <trkpt lat="44.40151" lon="6.40986">
        <ele>1963</ele>
        <time>2020-07-07T10:29:32.000Z</time>
      </trkpt>
      <trkpt lat="44.40151" lon="6.40987">
        <ele>1963</ele>
        <time>2020-07-07T10:29:33.000Z</time>
      </trkpt>
      <trkpt lat="44.40152" lon="6.40989">
        <ele>1963</ele>
        <time>2020-07-07T10:29:34.000Z</time>
      </trkpt>
      <trkpt lat="44.40152" lon="6.4099">
        <ele>1963</ele>
        <time>2020-07-07T10:29:35.000Z</time>
      </trkpt>
      <trkpt lat="44.40152" lon="6.40992">
        <ele>1963</ele>
        <time>2020-07-07T10:29:36.000Z</time>
      </trkpt>
      <trkpt lat="44.40152" lon="6.40993">
        <ele>1963</ele>
        <time>2020-07-07T10:29:37.000Z</time>
      </trkpt>
      <trkpt lat="44.40152" lon="6.40995">
        <ele>1963</ele>
        <time>2020-07-07T10:29:38.000Z</time>
      </trkpt>
      <trkpt lat="44.40152" lon="6.40996">
        <ele>1963</ele>
        <time>2020-07-07T10:29:39.000Z</time>
      </trkpt>
      <trkpt lat="44.40153" lon="6.40998">
        <ele>1963</ele>
        <time>2020-07-07T10:29:40.000Z</time>
      </trkpt>
      <trkpt lat="44.40153" lon="6.41">
        <ele>1963</ele>
        <time>2020-07-07T10:29:41.000Z</time>
      </trkpt>
      <trkpt lat="44.40153" lon="6.41001">
        <ele>1963</ele>
        <time>2020-07-07T10:29:42.000Z</time>
      </trkpt>
      <trkpt lat="44.40153" lon="6.41003">
        <ele>1963</ele>
        <time>2020-07-07T10:29:43.000Z</time>
      </trkpt>
      <trkpt lat="44.40153" lon="6.41004">
        <ele>1963</ele>
        <time>2020-07-07T10:29:44.000Z</time>
      </trkpt>
      <trkpt lat="44.40153" lon="6.41005">
        <ele>1963</ele>
        <time>2020-07-07T10:29:45.000Z</time>
      </trkpt>
      <trkpt lat="44.40154" lon="6.41007">
        <ele>1963</ele>
        <time>2020-07-07T10:29:46.000Z</time>
      </trkpt>
      <trkpt lat="44.40154" lon="6.41009">
        <ele>1963</ele>
        <time>2020-07-07T10:29:47.000Z</time>
      </trkpt>
      <trkpt lat="44.40153" lon="6.4101">
        <ele>1963</ele>
        <time>2020-07-07T10:29:48.000Z</time>
      </trkpt>
      <trkpt lat="44.40153" lon="6.41011">
        <ele>1963</ele>
        <time>2020-07-07T10:29:49.000Z</time>
      </trkpt>
      <trkpt lat="44.40154" lon="6.41013">
        <ele>1963</ele>
        <time>2020-07-07T10:29:50.000Z</time>
      </trkpt>
      <trkpt lat="44.40153" lon="6.41014">
        <ele>1963</ele>
        <time>2020-07-07T10:29:51.000Z</time>
      </trkpt>
      <trkpt lat="44.40153" lon="6.41016">
        <ele>1963</ele>
        <time>2020-07-07T10:29:52.000Z</time>
      </trkpt>
      <trkpt lat="44.40153" lon="6.41017">
        <ele>1963</ele>
        <time>2020-07-07T10:29:53.000Z</time>
      </trkpt>
      <trkpt lat="44.40153" lon="6.41018">
        <ele>1963</ele>
        <time>2020-07-07T10:29:54.000Z</time>
      </trkpt>
      <trkpt lat="44.40153" lon="6.41018">
        <ele>1963</ele>
        <time>2020-07-07T10:29:55.000Z</time>
      </trkpt>
      <trkpt lat="44.40153" lon="6.41018">
        <ele>1963</ele>
        <time>2020-07-07T10:29:56.000Z</time>
      </trkpt>
      <trkpt lat="44.40153" lon="6.41018">
        <ele>1963</ele>
        <time>2020-07-07T10:29:57.000Z</time>
      </trkpt>
      <trkpt lat="44.40153" lon="6.41018">
        <ele>1963</ele>
        <time>2020-07-07T10:29:58.000Z</time>
      </trkpt>
      <trkpt lat="44.40153" lon="6.41018">
        <ele>1963</ele>
        <time>2020-07-07T10:29:59.000Z</time>
      </trkpt>
      <trkpt lat="44.40153" lon="6.41018">
        <ele>1963</ele>
        <time>2020-07-07T10:30:00.000Z</time>
      </trkpt>
      <trkpt lat="44.40153" lon="6.41018">
        <ele>1963</ele>
        <time>2020-07-07T10:30:01.000Z</time>
      </trkpt>
      <trkpt lat="44.40153" lon="6.41018">
        <ele>1963</ele>
        <time>2020-07-07T10:30:02.000Z</time>
      </trkpt>
      <trkpt lat="44.40153" lon="6.41018">
        <ele>1963</ele>
        <time>2020-07-07T10:30:03.000Z</time>
      </trkpt>
      <trkpt lat="44.40153" lon="6.41018">
        <ele>1963</ele>
        <time>2020-07-07T10:30:04.000Z</time>
      </trkpt>
      <trkpt lat="44.40153" lon="6.41019">
        <ele>1963</ele>
        <time>2020-07-07T10:30:05.000Z</time>
      </trkpt>
      <trkpt lat="44.40153" lon="6.4102">
        <ele>1963</ele>
        <time>2020-07-07T10:30:06.000Z</time>
      </trkpt>
      <trkpt lat="44.40153" lon="6.41021">
        <ele>1963</ele>
        <time>2020-07-07T10:30:07.000Z</time>
      </trkpt>
      <trkpt lat="44.40153" lon="6.41022">
        <ele>1963</ele>
        <time>2020-07-07T10:30:08.000Z</time>
      </trkpt>
      <trkpt lat="44.40153" lon="6.41023">
        <ele>1963</ele>
        <time>2020-07-07T10:30:09.000Z</time>
      </trkpt>
      <trkpt lat="44.40153" lon="6.41025">
        <ele>1963</ele>
        <time>2020-07-07T10:30:10.000Z</time>
      </trkpt>
      <trkpt lat="44.40153" lon="6.41025">
        <ele>1963</ele>
        <time>2020-07-07T10:30:11.000Z</time>
      </trkpt>
      <trkpt lat="44.40153" lon="6.41025">
        <ele>1963</ele>
        <time>2020-07-07T10:30:12.000Z</time>
      </trkpt>
      <trkpt lat="44.40153" lon="6.41025">
        <ele>1963</ele>
        <time>2020-07-07T10:30:13.000Z</time>
      </trkpt>
      <trkpt lat="44.40153" lon="6.41025">
        <ele>1963</ele>
        <time>2020-07-07T10:30:14.000Z</time>
      </trkpt>
      <trkpt lat="44.40153" lon="6.41025">
        <ele>1963</ele>
        <time>2020-07-07T10:30:15.000Z</time>
      </trkpt>
      <trkpt lat="44.40153" lon="6.41025">
        <ele>1963</ele>
        <time>2020-07-07T10:30:16.000Z</time>
      </trkpt>
      <trkpt lat="44.40153" lon="6.41025">
        <ele>1963</ele>
        <time>2020-07-07T10:30:17.000Z</time>
      </trkpt>
      <trkpt lat="44.40153" lon="6.41025">
        <ele>1963</ele>
        <time>2020-07-07T10:30:18.000Z</time>
      </trkpt>
      <trkpt lat="44.40153" lon="6.41025">
        <ele>1963</ele>
        <time>2020-07-07T10:30:19.000Z</time>
      </trkpt>
      <trkpt lat="44.40153" lon="6.41025">
        <ele>1963</ele>
        <time>2020-07-07T10:30:20.000Z</time>
      </trkpt>
      <trkpt lat="44.40153" lon="6.41025">
        <ele>1963</ele>
        <time>2020-07-07T10:30:21.000Z</time>
      </trkpt>
      <trkpt lat="44.40153" lon="6.41027">
        <ele>1963</ele>
        <time>2020-07-07T10:30:22.000Z</time>
      </trkpt>
      <trkpt lat="44.40153" lon="6.41028">
        <ele>1962</ele>
        <time>2020-07-07T10:30:23.000Z</time>
      </trkpt>
      <trkpt lat="44.40153" lon="6.41029">
        <ele>1962</ele>
        <time>2020-07-07T10:30:24.000Z</time>
      </trkpt>
      <trkpt lat="44.40153" lon="6.4103">
        <ele>1962</ele>
        <time>2020-07-07T10:30:25.000Z</time>
      </trkpt>
      <trkpt lat="44.40154" lon="6.41031">
        <ele>1962</ele>
        <time>2020-07-07T10:30:26.000Z</time>
      </trkpt>
      <trkpt lat="44.40154" lon="6.41032">
        <ele>1962</ele>
        <time>2020-07-07T10:30:27.000Z</time>
      </trkpt>
      <trkpt lat="44.40154" lon="6.41033">
        <ele>1962</ele>
        <time>2020-07-07T10:30:28.000Z</time>
      </trkpt>
      <trkpt lat="44.40155" lon="6.41035">
        <ele>1962</ele>
        <time>2020-07-07T10:30:29.000Z</time>
      </trkpt>
      <trkpt lat="44.40155" lon="6.41037">
        <ele>1962</ele>
        <time>2020-07-07T10:30:30.000Z</time>
      </trkpt>
      <trkpt lat="44.40155" lon="6.41038">
        <ele>1962</ele>
        <time>2020-07-07T10:30:31.000Z</time>
      </trkpt>
      <trkpt lat="44.40156" lon="6.41039">
        <ele>1962</ele>
        <time>2020-07-07T10:30:32.000Z</time>
      </trkpt>
      <trkpt lat="44.40156" lon="6.4104">
        <ele>1962</ele>
        <time>2020-07-07T10:30:33.000Z</time>
      </trkpt>
      <trkpt lat="44.40157" lon="6.41041">
        <ele>1962</ele>
        <time>2020-07-07T10:30:34.000Z</time>
      </trkpt>
      <trkpt lat="44.40157" lon="6.41041">
        <ele>1962</ele>
        <time>2020-07-07T10:30:35.000Z</time>
      </trkpt>
      <trkpt lat="44.40158" lon="6.4104">
        <ele>1962</ele>
        <time>2020-07-07T10:30:36.000Z</time>
      </trkpt>
      <trkpt lat="44.40158" lon="6.4104">
        <ele>1962</ele>
        <time>2020-07-07T10:30:37.000Z</time>
      </trkpt>
      <trkpt lat="44.40159" lon="6.4104">
        <ele>1962</ele>
        <time>2020-07-07T10:30:38.000Z</time>
      </trkpt>
      <trkpt lat="44.40159" lon="6.4104">
        <ele>1962</ele>
        <time>2020-07-07T10:30:39.000Z</time>
      </trkpt>
      <trkpt lat="44.40159" lon="6.4104">
        <ele>1962</ele>
        <time>2020-07-07T10:30:40.000Z</time>
      </trkpt>
      <trkpt lat="44.40159" lon="6.4104">
        <ele>1962</ele>
        <time>2020-07-07T10:30:41.000Z</time>
      </trkpt>
      <trkpt lat="44.40159" lon="6.4104">
        <ele>1962</ele>
        <time>2020-07-07T10:30:42.000Z</time>
      </trkpt>
      <trkpt lat="44.40159" lon="6.4104">
        <ele>1962</ele>
        <time>2020-07-07T10:30:43.000Z</time>
      </trkpt>
      <trkpt lat="44.40159" lon="6.4104">
        <ele>1962</ele>
        <time>2020-07-07T10:30:44.000Z</time>
      </trkpt>
      <trkpt lat="44.40159" lon="6.4104">
        <ele>1962</ele>
        <time>2020-07-07T10:30:45.000Z</time>
      </trkpt>
      <trkpt lat="44.40159" lon="6.4104">
        <ele>1962</ele>
        <time>2020-07-07T10:30:46.000Z</time>
      </trkpt>
      <trkpt lat="44.40159" lon="6.4104">
        <ele>1962</ele>
        <time>2020-07-07T10:30:47.000Z</time>
      </trkpt>
      <trkpt lat="44.40159" lon="6.4104">
        <ele>1962</ele>
        <time>2020-07-07T10:30:48.000Z</time>
      </trkpt>
      <trkpt lat="44.40159" lon="6.4104">
        <ele>1962</ele>
        <time>2020-07-07T10:30:49.000Z</time>
      </trkpt>
      <trkpt lat="44.40159" lon="6.4104">
        <ele>1962</ele>
        <time>2020-07-07T10:30:50.000Z</time>
      </trkpt>
      <trkpt lat="44.4016" lon="6.41041">
        <ele>1962</ele>
        <time>2020-07-07T10:30:51.000Z</time>
      </trkpt>
      <trkpt lat="44.4016" lon="6.41042">
        <ele>1962</ele>
        <time>2020-07-07T10:30:52.000Z</time>
      </trkpt>
      <trkpt lat="44.40161" lon="6.41042">
        <ele>1962</ele>
        <time>2020-07-07T10:30:53.000Z</time>
      </trkpt>
      <trkpt lat="44.40162" lon="6.41043">
        <ele>1962</ele>
        <time>2020-07-07T10:30:54.000Z</time>
      </trkpt>
      <trkpt lat="44.40163" lon="6.41044">
        <ele>1962</ele>
        <time>2020-07-07T10:30:55.000Z</time>
      </trkpt>
      <trkpt lat="44.40163" lon="6.41045">
        <ele>1962</ele>
        <time>2020-07-07T10:30:56.000Z</time>
      </trkpt>
      <trkpt lat="44.40164" lon="6.41046">
        <ele>1962</ele>
        <time>2020-07-07T10:30:57.000Z</time>
      </trkpt>
      <trkpt lat="44.40165" lon="6.41047">
        <ele>1962</ele>
        <time>2020-07-07T10:30:58.000Z</time>
      </trkpt>
      <trkpt lat="44.40166" lon="6.41048">
        <ele>1962</ele>
        <time>2020-07-07T10:30:59.000Z</time>
      </trkpt>
      <trkpt lat="44.40167" lon="6.4105">
        <ele>1962</ele>
        <time>2020-07-07T10:31:00.000Z</time>
      </trkpt>
      <trkpt lat="44.40167" lon="6.4105">
        <ele>1962</ele>
        <time>2020-07-07T10:31:01.000Z</time>
      </trkpt>
      <trkpt lat="44.40168" lon="6.41051">
        <ele>1962</ele>
        <time>2020-07-07T10:31:02.000Z</time>
      </trkpt>
      <trkpt lat="44.40168" lon="6.41052">
        <ele>1962</ele>
        <time>2020-07-07T10:31:03.000Z</time>
      </trkpt>
      <trkpt lat="44.40169" lon="6.41052">
        <ele>1962</ele>
        <time>2020-07-07T10:31:04.000Z</time>
      </trkpt>
      <trkpt lat="44.4017" lon="6.41053">
        <ele>1962</ele>
        <time>2020-07-07T10:31:05.000Z</time>
      </trkpt>
      <trkpt lat="44.4017" lon="6.41054">
        <ele>1962</ele>
        <time>2020-07-07T10:31:06.000Z</time>
      </trkpt>
      <trkpt lat="44.40171" lon="6.41055">
        <ele>1962</ele>
        <time>2020-07-07T10:31:07.000Z</time>
      </trkpt>
      <trkpt lat="44.40171" lon="6.41056">
        <ele>1962</ele>
        <time>2020-07-07T10:31:08.000Z</time>
      </trkpt>
      <trkpt lat="44.40172" lon="6.41057">
        <ele>1962</ele>
        <time>2020-07-07T10:31:09.000Z</time>
      </trkpt>
      <trkpt lat="44.40172" lon="6.41058">
        <ele>1962</ele>
        <time>2020-07-07T10:31:10.000Z</time>
      </trkpt>
      <trkpt lat="44.40172" lon="6.41059">
        <ele>1962</ele>
        <time>2020-07-07T10:31:11.000Z</time>
      </trkpt>
      <trkpt lat="44.40173" lon="6.4106">
        <ele>1962</ele>
        <time>2020-07-07T10:31:12.000Z</time>
      </trkpt>
      <trkpt lat="44.40173" lon="6.41061">
        <ele>1963</ele>
        <time>2020-07-07T10:31:13.000Z</time>
      </trkpt>
      <trkpt lat="44.40173" lon="6.41061">
        <ele>1963</ele>
        <time>2020-07-07T10:31:14.000Z</time>
      </trkpt>
      <trkpt lat="44.40173" lon="6.41062">
        <ele>1963</ele>
        <time>2020-07-07T10:31:15.000Z</time>
      </trkpt>
      <trkpt lat="44.40173" lon="6.41062">
        <ele>1963</ele>
        <time>2020-07-07T10:31:16.000Z</time>
      </trkpt>
      <trkpt lat="44.40173" lon="6.41062">
        <ele>1963</ele>
        <time>2020-07-07T10:31:17.000Z</time>
      </trkpt>
      <trkpt lat="44.40173" lon="6.41062">
        <ele>1963</ele>
        <time>2020-07-07T10:31:18.000Z</time>
      </trkpt>
      <trkpt lat="44.40173" lon="6.41062">
        <ele>1963</ele>
        <time>2020-07-07T10:31:19.000Z</time>
      </trkpt>
      <trkpt lat="44.40173" lon="6.41062">
        <ele>1963</ele>
        <time>2020-07-07T10:31:20.000Z</time>
      </trkpt>
      <trkpt lat="44.40173" lon="6.41062">
        <ele>1963</ele>
        <time>2020-07-07T10:31:21.000Z</time>
      </trkpt>
      <trkpt lat="44.40173" lon="6.41062">
        <ele>1963</ele>
        <time>2020-07-07T10:31:22.000Z</time>
      </trkpt>
      <trkpt lat="44.40173" lon="6.41062">
        <ele>1963</ele>
        <time>2020-07-07T10:31:23.000Z</time>
      </trkpt>
      <trkpt lat="44.40173" lon="6.41062">
        <ele>1963</ele>
        <time>2020-07-07T10:31:24.000Z</time>
      </trkpt>
      <trkpt lat="44.40173" lon="6.41062">
        <ele>1963</ele>
        <time>2020-07-07T10:31:25.000Z</time>
      </trkpt>
      <trkpt lat="44.40174" lon="6.41062">
        <ele>1963</ele>
        <time>2020-07-07T10:31:26.000Z</time>
      </trkpt>
      <trkpt lat="44.40174" lon="6.41062">
        <ele>1963</ele>
        <time>2020-07-07T10:31:27.000Z</time>
      </trkpt>
      <trkpt lat="44.40174" lon="6.41062">
        <ele>1963</ele>
        <time>2020-07-07T10:31:28.000Z</time>
      </trkpt>
      <trkpt lat="44.40174" lon="6.41062">
        <ele>1963</ele>
        <time>2020-07-07T10:31:29.000Z</time>
      </trkpt>
      <trkpt lat="44.40174" lon="6.41062">
        <ele>1963</ele>
        <time>2020-07-07T10:31:30.000Z</time>
      </trkpt>
      <trkpt lat="44.40174" lon="6.41063">
        <ele>1963</ele>
        <time>2020-07-07T10:31:31.000Z</time>
      </trkpt>
      <trkpt lat="44.40175" lon="6.41064">
        <ele>1963</ele>
        <time>2020-07-07T10:31:32.000Z</time>
      </trkpt>
      <trkpt lat="44.40175" lon="6.41065">
        <ele>1963</ele>
        <time>2020-07-07T10:31:33.000Z</time>
      </trkpt>
      <trkpt lat="44.40176" lon="6.41066">
        <ele>1963</ele>
        <time>2020-07-07T10:31:34.000Z</time>
      </trkpt>
      <trkpt lat="44.40177" lon="6.41068">
        <ele>1963</ele>
        <time>2020-07-07T10:31:35.000Z</time>
      </trkpt>
      <trkpt lat="44.40177" lon="6.41069">
        <ele>1963</ele>
        <time>2020-07-07T10:31:36.000Z</time>
      </trkpt>
      <trkpt lat="44.40178" lon="6.4107">
        <ele>1963</ele>
        <time>2020-07-07T10:31:37.000Z</time>
      </trkpt>
      <trkpt lat="44.40179" lon="6.41071">
        <ele>1963</ele>
        <time>2020-07-07T10:31:38.000Z</time>
      </trkpt>
      <trkpt lat="44.40179" lon="6.41072">
        <ele>1963</ele>
        <time>2020-07-07T10:31:39.000Z</time>
      </trkpt>
      <trkpt lat="44.4018" lon="6.41073">
        <ele>1963</ele>
        <time>2020-07-07T10:31:40.000Z</time>
      </trkpt>
      <trkpt lat="44.4018" lon="6.41074">
        <ele>1963</ele>
        <time>2020-07-07T10:31:41.000Z</time>
      </trkpt>
      <trkpt lat="44.40181" lon="6.41076">
        <ele>1963</ele>
        <time>2020-07-07T10:31:42.000Z</time>
      </trkpt>
      <trkpt lat="44.40181" lon="6.41076">
        <ele>1963</ele>
        <time>2020-07-07T10:31:43.000Z</time>
      </trkpt>
      <trkpt lat="44.40182" lon="6.41077">
        <ele>1963</ele>
        <time>2020-07-07T10:31:44.000Z</time>
      </trkpt>
      <trkpt lat="44.40183" lon="6.41078">
        <ele>1963</ele>
        <time>2020-07-07T10:31:45.000Z</time>
      </trkpt>
      <trkpt lat="44.40183" lon="6.41079">
        <ele>1963</ele>
        <time>2020-07-07T10:31:46.000Z</time>
      </trkpt>
      <trkpt lat="44.40183" lon="6.4108">
        <ele>1963</ele>
        <time>2020-07-07T10:31:47.000Z</time>
      </trkpt>
      <trkpt lat="44.40184" lon="6.41081">
        <ele>1963</ele>
        <time>2020-07-07T10:31:48.000Z</time>
      </trkpt>
      <trkpt lat="44.40184" lon="6.41081">
        <ele>1963</ele>
        <time>2020-07-07T10:31:49.000Z</time>
      </trkpt>
      <trkpt lat="44.40185" lon="6.41082">
        <ele>1963</ele>
        <time>2020-07-07T10:31:50.000Z</time>
      </trkpt>
      <trkpt lat="44.40185" lon="6.41083">
        <ele>1963</ele>
        <time>2020-07-07T10:31:51.000Z</time>
      </trkpt>
      <trkpt lat="44.40185" lon="6.41084">
        <ele>1963</ele>
        <time>2020-07-07T10:31:52.000Z</time>
      </trkpt>
      <trkpt lat="44.40185" lon="6.41084">
        <ele>1963</ele>
        <time>2020-07-07T10:31:53.000Z</time>
      </trkpt>
      <trkpt lat="44.40186" lon="6.41085">
        <ele>1963</ele>
        <time>2020-07-07T10:31:54.000Z</time>
      </trkpt>
      <trkpt lat="44.40186" lon="6.41086">
        <ele>1963</ele>
        <time>2020-07-07T10:31:55.000Z</time>
      </trkpt>
      <trkpt lat="44.40186" lon="6.41087">
        <ele>1963</ele>
        <time>2020-07-07T10:31:56.000Z</time>
      </trkpt>
      <trkpt lat="44.40186" lon="6.41087">
        <ele>1963</ele>
        <time>2020-07-07T10:31:57.000Z</time>
      </trkpt>
      <trkpt lat="44.40186" lon="6.41087">
        <ele>1963</ele>
        <time>2020-07-07T10:31:58.000Z</time>
      </trkpt>
      <trkpt lat="44.40186" lon="6.41087">
        <ele>1963</ele>
        <time>2020-07-07T10:31:59.000Z</time>
      </trkpt>
      <trkpt lat="44.40187" lon="6.41087">
        <ele>1963</ele>
        <time>2020-07-07T10:32:00.000Z</time>
      </trkpt>
      <trkpt lat="44.40188" lon="6.41088">
        <ele>1963</ele>
        <time>2020-07-07T10:32:01.000Z</time>
      </trkpt>
      <trkpt lat="44.40188" lon="6.41089">
        <ele>1963</ele>
        <time>2020-07-07T10:32:02.000Z</time>
      </trkpt>
      <trkpt lat="44.40189" lon="6.41089">
        <ele>1963</ele>
        <time>2020-07-07T10:32:03.000Z</time>
      </trkpt>
      <trkpt lat="44.4019" lon="6.4109">
        <ele>1963</ele>
        <time>2020-07-07T10:32:04.000Z</time>
      </trkpt>
      <trkpt lat="44.4019" lon="6.4109">
        <ele>1963</ele>
        <time>2020-07-07T10:32:05.000Z</time>
      </trkpt>
      <trkpt lat="44.40191" lon="6.4109">
        <ele>1963</ele>
        <time>2020-07-07T10:32:06.000Z</time>
      </trkpt>
      <trkpt lat="44.40192" lon="6.4109">
        <ele>1963</ele>
        <time>2020-07-07T10:32:07.000Z</time>
      </trkpt>
      <trkpt lat="44.40193" lon="6.41091">
        <ele>1964</ele>
        <time>2020-07-07T10:32:08.000Z</time>
      </trkpt>
      <trkpt lat="44.40193" lon="6.41091">
        <ele>1964</ele>
        <time>2020-07-07T10:32:09.000Z</time>
      </trkpt>
      <trkpt lat="44.40193" lon="6.41091">
        <ele>1964</ele>
        <time>2020-07-07T10:32:10.000Z</time>
      </trkpt>
      <trkpt lat="44.40193" lon="6.4109">
        <ele>1964</ele>
        <time>2020-07-07T10:32:11.000Z</time>
      </trkpt>
      <trkpt lat="44.40194" lon="6.41091">
        <ele>1964</ele>
        <time>2020-07-07T10:32:12.000Z</time>
      </trkpt>
      <trkpt lat="44.40194" lon="6.41091">
        <ele>1965</ele>
        <time>2020-07-07T10:32:13.000Z</time>
      </trkpt>
      <trkpt lat="44.40194" lon="6.4109">
        <ele>1965</ele>
        <time>2020-07-07T10:32:14.000Z</time>
      </trkpt>
      <trkpt lat="44.40194" lon="6.4109">
        <ele>1965</ele>
        <time>2020-07-07T10:32:15.000Z</time>
      </trkpt>
      <trkpt lat="44.40195" lon="6.41091">
        <ele>1965</ele>
        <time>2020-07-07T10:32:16.000Z</time>
      </trkpt>
      <trkpt lat="44.40195" lon="6.41091">
        <ele>1965</ele>
        <time>2020-07-07T10:32:17.000Z</time>
      </trkpt>
      <trkpt lat="44.40195" lon="6.4109">
        <ele>1965</ele>
        <time>2020-07-07T10:32:18.000Z</time>
      </trkpt>
      <trkpt lat="44.40195" lon="6.4109">
        <ele>1965</ele>
        <time>2020-07-07T10:32:19.000Z</time>
      </trkpt>
      <trkpt lat="44.40195" lon="6.4109">
        <ele>1965</ele>
        <time>2020-07-07T10:32:20.000Z</time>
      </trkpt>
      <trkpt lat="44.40196" lon="6.4109">
        <ele>1965</ele>
        <time>2020-07-07T10:32:21.000Z</time>
      </trkpt>
      <trkpt lat="44.40196" lon="6.4109">
        <ele>1965</ele>
        <time>2020-07-07T10:32:22.000Z</time>
      </trkpt>
      <trkpt lat="44.40196" lon="6.4109">
        <ele>1965</ele>
        <time>2020-07-07T10:32:23.000Z</time>
      </trkpt>
      <trkpt lat="44.40196" lon="6.4109">
        <ele>1965</ele>
        <time>2020-07-07T10:32:24.000Z</time>
      </trkpt>
      <trkpt lat="44.40196" lon="6.4109">
        <ele>1965</ele>
        <time>2020-07-07T10:32:25.000Z</time>
      </trkpt>
      <trkpt lat="44.40196" lon="6.4109">
        <ele>1965</ele>
        <time>2020-07-07T10:32:26.000Z</time>
      </trkpt>
      <trkpt lat="44.40196" lon="6.41089">
        <ele>1965</ele>
        <time>2020-07-07T10:32:27.000Z</time>
      </trkpt>
      <trkpt lat="44.40195" lon="6.41089">
        <ele>1965</ele>
        <time>2020-07-07T10:32:28.000Z</time>
      </trkpt>
      <trkpt lat="44.40195" lon="6.41089">
        <ele>1965</ele>
        <time>2020-07-07T10:32:29.000Z</time>
      </trkpt>
      <trkpt lat="44.40195" lon="6.41089">
        <ele>1965</ele>
        <time>2020-07-07T10:32:30.000Z</time>
      </trkpt>
      <trkpt lat="44.40195" lon="6.41089">
        <ele>1965</ele>
        <time>2020-07-07T10:32:31.000Z</time>
      </trkpt>
      <trkpt lat="44.40195" lon="6.41089">
        <ele>1965</ele>
        <time>2020-07-07T10:32:32.000Z</time>
      </trkpt>
      <trkpt lat="44.40195" lon="6.41089">
        <ele>1965</ele>
        <time>2020-07-07T10:32:33.000Z</time>
      </trkpt>
      <trkpt lat="44.40195" lon="6.41089">
        <ele>1965</ele>
        <time>2020-07-07T10:32:34.000Z</time>
      </trkpt>
      <trkpt lat="44.40195" lon="6.41089">
        <ele>1965</ele>
        <time>2020-07-07T10:32:35.000Z</time>
      </trkpt>
      <trkpt lat="44.40195" lon="6.41089">
        <ele>1965</ele>
        <time>2020-07-07T10:32:36.000Z</time>
      </trkpt>
      <trkpt lat="44.40195" lon="6.41089">
        <ele>1965</ele>
        <time>2020-07-07T10:32:37.000Z</time>
      </trkpt>
      <trkpt lat="44.40195" lon="6.41088">
        <ele>1965</ele>
        <time>2020-07-07T10:32:38.000Z</time>
      </trkpt>
      <trkpt lat="44.40195" lon="6.41088">
        <ele>1965</ele>
        <time>2020-07-07T10:32:39.000Z</time>
      </trkpt>
      <trkpt lat="44.40194" lon="6.41088">
        <ele>1965</ele>
        <time>2020-07-07T10:32:40.000Z</time>
      </trkpt>
      <trkpt lat="44.40194" lon="6.41088">
        <ele>1965</ele>
        <time>2020-07-07T10:32:41.000Z</time>
      </trkpt>
      <trkpt lat="44.40194" lon="6.41088">
        <ele>1965</ele>
        <time>2020-07-07T10:32:42.000Z</time>
      </trkpt>
      <trkpt lat="44.40194" lon="6.41088">
        <ele>1965</ele>
        <time>2020-07-07T10:32:43.000Z</time>
      </trkpt>
      <trkpt lat="44.40194" lon="6.41088">
        <ele>1965</ele>
        <time>2020-07-07T10:32:44.000Z</time>
      </trkpt>
      <trkpt lat="44.40194" lon="6.41088">
        <ele>1965</ele>
        <time>2020-07-07T10:32:45.000Z</time>
      </trkpt>
      <trkpt lat="44.40194" lon="6.41087">
        <ele>1965</ele>
        <time>2020-07-07T10:32:46.000Z</time>
      </trkpt>
      <trkpt lat="44.40194" lon="6.41087">
        <ele>1965</ele>
        <time>2020-07-07T10:32:47.000Z</time>
      </trkpt>
      <trkpt lat="44.40194" lon="6.41087">
        <ele>1965</ele>
        <time>2020-07-07T10:32:48.000Z</time>
      </trkpt>
      <trkpt lat="44.40194" lon="6.41087">
        <ele>1965</ele>
        <time>2020-07-07T10:32:49.000Z</time>
      </trkpt>
      <trkpt lat="44.40194" lon="6.41087">
        <ele>1965</ele>
        <time>2020-07-07T10:32:50.000Z</time>
      </trkpt>
      <trkpt lat="44.40194" lon="6.41087">
        <ele>1965</ele>
        <time>2020-07-07T10:32:51.000Z</time>
      </trkpt>
      <trkpt lat="44.40194" lon="6.41087">
        <ele>1965</ele>
        <time>2020-07-07T10:32:52.000Z</time>
      </trkpt>
      <trkpt lat="44.40194" lon="6.41087">
        <ele>1965</ele>
        <time>2020-07-07T10:32:53.000Z</time>
      </trkpt>
      <trkpt lat="44.40194" lon="6.41087">
        <ele>1965</ele>
        <time>2020-07-07T10:32:54.000Z</time>
      </trkpt>
      <trkpt lat="44.40194" lon="6.41087">
        <ele>1965</ele>
        <time>2020-07-07T10:32:55.000Z</time>
      </trkpt>
      <trkpt lat="44.40194" lon="6.41087">
        <ele>1965</ele>
        <time>2020-07-07T10:32:56.000Z</time>
      </trkpt>
      <trkpt lat="44.40195" lon="6.41087">
        <ele>1965</ele>
        <time>2020-07-07T10:32:57.000Z</time>
      </trkpt>
      <trkpt lat="44.40194" lon="6.41086">
        <ele>1965</ele>
        <time>2020-07-07T10:32:58.000Z</time>
      </trkpt>
      <trkpt lat="44.40195" lon="6.41087">
        <ele>1966</ele>
        <time>2020-07-07T10:32:59.000Z</time>
      </trkpt>
      <trkpt lat="44.40195" lon="6.41087">
        <ele>1966</ele>
        <time>2020-07-07T10:33:00.000Z</time>
      </trkpt>
      <trkpt lat="44.40195" lon="6.41087">
        <ele>1966</ele>
        <time>2020-07-07T10:33:01.000Z</time>
      </trkpt>
      <trkpt lat="44.40195" lon="6.41087">
        <ele>1966</ele>
        <time>2020-07-07T10:33:02.000Z</time>
      </trkpt>
      <trkpt lat="44.40195" lon="6.41087">
        <ele>1966</ele>
        <time>2020-07-07T10:33:03.000Z</time>
      </trkpt>
      <trkpt lat="44.40195" lon="6.41087">
        <ele>1966</ele>
        <time>2020-07-07T10:33:04.000Z</time>
      </trkpt>
      <trkpt lat="44.40195" lon="6.41087">
        <ele>1965</ele>
        <time>2020-07-07T10:33:05.000Z</time>
      </trkpt>
      <trkpt lat="44.40195" lon="6.41088">
        <ele>1965</ele>
        <time>2020-07-07T10:33:06.000Z</time>
      </trkpt>
      <trkpt lat="44.40195" lon="6.41088">
        <ele>1965</ele>
        <time>2020-07-07T10:33:07.000Z</time>
      </trkpt>
      <trkpt lat="44.40195" lon="6.41088">
        <ele>1965</ele>
        <time>2020-07-07T10:33:08.000Z</time>
      </trkpt>
      <trkpt lat="44.40195" lon="6.41088">
        <ele>1965</ele>
        <time>2020-07-07T10:33:09.000Z</time>
      </trkpt>
      <trkpt lat="44.40196" lon="6.41088">
        <ele>1965</ele>
        <time>2020-07-07T10:33:10.000Z</time>
      </trkpt>
      <trkpt lat="44.40196" lon="6.41088">
        <ele>1965</ele>
        <time>2020-07-07T10:33:11.000Z</time>
      </trkpt>
      <trkpt lat="44.40196" lon="6.41089">
        <ele>1965</ele>
        <time>2020-07-07T10:33:12.000Z</time>
      </trkpt>
      <trkpt lat="44.40196" lon="6.41089">
        <ele>1965</ele>
        <time>2020-07-07T10:33:13.000Z</time>
      </trkpt>
      <trkpt lat="44.40196" lon="6.41089">
        <ele>1965</ele>
        <time>2020-07-07T10:33:14.000Z</time>
      </trkpt>
      <trkpt lat="44.40196" lon="6.41089">
        <ele>1965</ele>
        <time>2020-07-07T10:33:15.000Z</time>
      </trkpt>
      <trkpt lat="44.40196" lon="6.41089">
        <ele>1965</ele>
        <time>2020-07-07T10:33:16.000Z</time>
      </trkpt>
      <trkpt lat="44.40197" lon="6.41089">
        <ele>1965</ele>
        <time>2020-07-07T10:33:17.000Z</time>
      </trkpt>
      <trkpt lat="44.40197" lon="6.41089">
        <ele>1965</ele>
        <time>2020-07-07T10:33:18.000Z</time>
      </trkpt>
      <trkpt lat="44.40198" lon="6.4109">
        <ele>1965</ele>
        <time>2020-07-07T10:33:19.000Z</time>
      </trkpt>
      <trkpt lat="44.40198" lon="6.41091">
        <ele>1965</ele>
        <time>2020-07-07T10:33:20.000Z</time>
      </trkpt>
      <trkpt lat="44.40198" lon="6.41091">
        <ele>1965</ele>
        <time>2020-07-07T10:33:21.000Z</time>
      </trkpt>
      <trkpt lat="44.40198" lon="6.41091">
        <ele>1965</ele>
        <time>2020-07-07T10:33:22.000Z</time>
      </trkpt>
      <trkpt lat="44.40198" lon="6.41091">
        <ele>1965</ele>
        <time>2020-07-07T10:33:23.000Z</time>
      </trkpt>
      <trkpt lat="44.40199" lon="6.41091">
        <ele>1965</ele>
        <time>2020-07-07T10:33:24.000Z</time>
      </trkpt>
      <trkpt lat="44.40199" lon="6.41092">
        <ele>1965</ele>
        <time>2020-07-07T10:33:25.000Z</time>
      </trkpt>
      <trkpt lat="44.40199" lon="6.41092">
        <ele>1965</ele>
        <time>2020-07-07T10:33:26.000Z</time>
      </trkpt>
      <trkpt lat="44.40199" lon="6.41092">
        <ele>1965</ele>
        <time>2020-07-07T10:33:27.000Z</time>
      </trkpt>
      <trkpt lat="44.40199" lon="6.41093">
        <ele>1965</ele>
        <time>2020-07-07T10:33:28.000Z</time>
      </trkpt>
      <trkpt lat="44.402" lon="6.41094">
        <ele>1965</ele>
        <time>2020-07-07T10:33:29.000Z</time>
      </trkpt>
      <trkpt lat="44.402" lon="6.41094">
        <ele>1965</ele>
        <time>2020-07-07T10:33:30.000Z</time>
      </trkpt>
      <trkpt lat="44.40201" lon="6.41095">
        <ele>1964</ele>
        <time>2020-07-07T10:33:31.000Z</time>
      </trkpt>
      <trkpt lat="44.40201" lon="6.41096">
        <ele>1964</ele>
        <time>2020-07-07T10:33:32.000Z</time>
      </trkpt>
      <trkpt lat="44.40201" lon="6.41096">
        <ele>1965</ele>
        <time>2020-07-07T10:33:33.000Z</time>
      </trkpt>
      <trkpt lat="44.40201" lon="6.41097">
        <ele>1965</ele>
        <time>2020-07-07T10:33:34.000Z</time>
      </trkpt>
      <trkpt lat="44.40202" lon="6.41097">
        <ele>1964</ele>
        <time>2020-07-07T10:33:35.000Z</time>
      </trkpt>
      <trkpt lat="44.40202" lon="6.41097">
        <ele>1964</ele>
        <time>2020-07-07T10:33:36.000Z</time>
      </trkpt>
      <trkpt lat="44.40202" lon="6.41097">
        <ele>1964</ele>
        <time>2020-07-07T10:33:37.000Z</time>
      </trkpt>
      <trkpt lat="44.40202" lon="6.41097">
        <ele>1964</ele>
        <time>2020-07-07T10:33:38.000Z</time>
      </trkpt>
      <trkpt lat="44.40203" lon="6.41098">
        <ele>1964</ele>
        <time>2020-07-07T10:33:39.000Z</time>
      </trkpt>
      <trkpt lat="44.40204" lon="6.41099">
        <ele>1964</ele>
        <time>2020-07-07T10:33:40.000Z</time>
      </trkpt>
      <trkpt lat="44.40204" lon="6.41099">
        <ele>1964</ele>
        <time>2020-07-07T10:33:41.000Z</time>
      </trkpt>
      <trkpt lat="44.40205" lon="6.411">
        <ele>1964</ele>
        <time>2020-07-07T10:33:42.000Z</time>
      </trkpt>
      <trkpt lat="44.40205" lon="6.41101">
        <ele>1964</ele>
        <time>2020-07-07T10:33:43.000Z</time>
      </trkpt>
      <trkpt lat="44.40206" lon="6.41102">
        <ele>1964</ele>
        <time>2020-07-07T10:33:44.000Z</time>
      </trkpt>
      <trkpt lat="44.40207" lon="6.41102">
        <ele>1964</ele>
        <time>2020-07-07T10:33:45.000Z</time>
      </trkpt>
      <trkpt lat="44.40207" lon="6.41104">
        <ele>1964</ele>
        <time>2020-07-07T10:33:46.000Z</time>
      </trkpt>
      <trkpt lat="44.40208" lon="6.41105">
        <ele>1964</ele>
        <time>2020-07-07T10:33:47.000Z</time>
      </trkpt>
      <trkpt lat="44.40208" lon="6.41106">
        <ele>1964</ele>
        <time>2020-07-07T10:33:48.000Z</time>
      </trkpt>
      <trkpt lat="44.40209" lon="6.41106">
        <ele>1965</ele>
        <time>2020-07-07T10:33:49.000Z</time>
      </trkpt>
      <trkpt lat="44.4021" lon="6.41107">
        <ele>1965</ele>
        <time>2020-07-07T10:33:50.000Z</time>
      </trkpt>
      <trkpt lat="44.4021" lon="6.41107">
        <ele>1965</ele>
        <time>2020-07-07T10:33:51.000Z</time>
      </trkpt>
      <trkpt lat="44.40211" lon="6.41107">
        <ele>1965</ele>
        <time>2020-07-07T10:33:52.000Z</time>
      </trkpt>
      <trkpt lat="44.40211" lon="6.41108">
        <ele>1965</ele>
        <time>2020-07-07T10:33:53.000Z</time>
      </trkpt>
      <trkpt lat="44.40211" lon="6.41108">
        <ele>1965</ele>
        <time>2020-07-07T10:33:54.000Z</time>
      </trkpt>
      <trkpt lat="44.40212" lon="6.41108">
        <ele>1965</ele>
        <time>2020-07-07T10:33:55.000Z</time>
      </trkpt>
      <trkpt lat="44.40212" lon="6.41108">
        <ele>1965</ele>
        <time>2020-07-07T10:33:56.000Z</time>
      </trkpt>
      <trkpt lat="44.40212" lon="6.41108">
        <ele>1965</ele>
        <time>2020-07-07T10:33:57.000Z</time>
      </trkpt>
      <trkpt lat="44.40212" lon="6.41108">
        <ele>1965</ele>
        <time>2020-07-07T10:33:58.000Z</time>
      </trkpt>
      <trkpt lat="44.40212" lon="6.41108">
        <ele>1965</ele>
        <time>2020-07-07T10:33:59.000Z</time>
      </trkpt>
      <trkpt lat="44.40212" lon="6.41108">
        <ele>1965</ele>
        <time>2020-07-07T10:34:00.000Z</time>
      </trkpt>
      <trkpt lat="44.40212" lon="6.41109">
        <ele>1966</ele>
        <time>2020-07-07T10:34:01.000Z</time>
      </trkpt>
      <trkpt lat="44.40213" lon="6.41109">
        <ele>1966</ele>
        <time>2020-07-07T10:34:02.000Z</time>
      </trkpt>
      <trkpt lat="44.40213" lon="6.41109">
        <ele>1966</ele>
        <time>2020-07-07T10:34:03.000Z</time>
      </trkpt>
      <trkpt lat="44.40213" lon="6.41109">
        <ele>1966</ele>
        <time>2020-07-07T10:34:04.000Z</time>
      </trkpt>
      <trkpt lat="44.40214" lon="6.41109">
        <ele>1966</ele>
        <time>2020-07-07T10:34:05.000Z</time>
      </trkpt>
      <trkpt lat="44.40214" lon="6.4111">
        <ele>1966</ele>
        <time>2020-07-07T10:34:06.000Z</time>
      </trkpt>
      <trkpt lat="44.40214" lon="6.4111">
        <ele>1966</ele>
        <time>2020-07-07T10:34:07.000Z</time>
      </trkpt>
      <trkpt lat="44.40214" lon="6.4111">
        <ele>1966</ele>
        <time>2020-07-07T10:34:08.000Z</time>
      </trkpt>
      <trkpt lat="44.40215" lon="6.4111">
        <ele>1966</ele>
        <time>2020-07-07T10:34:09.000Z</time>
      </trkpt>
      <trkpt lat="44.40216" lon="6.41111">
        <ele>1966</ele>
        <time>2020-07-07T10:34:10.000Z</time>
      </trkpt>
      <trkpt lat="44.40216" lon="6.41112">
        <ele>1966</ele>
        <time>2020-07-07T10:34:11.000Z</time>
      </trkpt>
      <trkpt lat="44.40217" lon="6.41112">
        <ele>1966</ele>
        <time>2020-07-07T10:34:12.000Z</time>
      </trkpt>
      <trkpt lat="44.40218" lon="6.41113">
        <ele>1966</ele>
        <time>2020-07-07T10:34:13.000Z</time>
      </trkpt>
      <trkpt lat="44.40218" lon="6.41114">
        <ele>1966</ele>
        <time>2020-07-07T10:34:14.000Z</time>
      </trkpt>
      <trkpt lat="44.40218" lon="6.41115">
        <ele>1966</ele>
        <time>2020-07-07T10:34:15.000Z</time>
      </trkpt>
      <trkpt lat="44.40218" lon="6.41115">
        <ele>1966</ele>
        <time>2020-07-07T10:34:16.000Z</time>
      </trkpt>
      <trkpt lat="44.40218" lon="6.41116">
        <ele>1966</ele>
        <time>2020-07-07T10:34:17.000Z</time>
      </trkpt>
      <trkpt lat="44.40218" lon="6.41116">
        <ele>1966</ele>
        <time>2020-07-07T10:34:18.000Z</time>
      </trkpt>
      <trkpt lat="44.40218" lon="6.41116">
        <ele>1966</ele>
        <time>2020-07-07T10:34:19.000Z</time>
      </trkpt>
      <trkpt lat="44.40219" lon="6.41116">
        <ele>1966</ele>
        <time>2020-07-07T10:34:20.000Z</time>
      </trkpt>
      <trkpt lat="44.40219" lon="6.41116">
        <ele>1966</ele>
        <time>2020-07-07T10:34:21.000Z</time>
      </trkpt>
      <trkpt lat="44.40219" lon="6.41116">
        <ele>1966</ele>
        <time>2020-07-07T10:34:22.000Z</time>
      </trkpt>
      <trkpt lat="44.40219" lon="6.41116">
        <ele>1966</ele>
        <time>2020-07-07T10:34:23.000Z</time>
      </trkpt>
      <trkpt lat="44.40219" lon="6.41117">
        <ele>1966</ele>
        <time>2020-07-07T10:34:24.000Z</time>
      </trkpt>
      <trkpt lat="44.4022" lon="6.41118">
        <ele>1966</ele>
        <time>2020-07-07T10:34:25.000Z</time>
      </trkpt>
      <trkpt lat="44.4022" lon="6.41119">
        <ele>1966</ele>
        <time>2020-07-07T10:34:26.000Z</time>
      </trkpt>
      <trkpt lat="44.4022" lon="6.4112">
        <ele>1966</ele>
        <time>2020-07-07T10:34:27.000Z</time>
      </trkpt>
      <trkpt lat="44.40221" lon="6.4112">
        <ele>1966</ele>
        <time>2020-07-07T10:34:28.000Z</time>
      </trkpt>
      <trkpt lat="44.40221" lon="6.41121">
        <ele>1966</ele>
        <time>2020-07-07T10:34:29.000Z</time>
      </trkpt>
      <trkpt lat="44.40221" lon="6.41121">
        <ele>1966</ele>
        <time>2020-07-07T10:34:30.000Z</time>
      </trkpt>
      <trkpt lat="44.40221" lon="6.41121">
        <ele>1966</ele>
        <time>2020-07-07T10:34:31.000Z</time>
      </trkpt>
      <trkpt lat="44.40222" lon="6.41121">
        <ele>1967</ele>
        <time>2020-07-07T10:34:32.000Z</time>
      </trkpt>
      <trkpt lat="44.40222" lon="6.41121">
        <ele>1967</ele>
        <time>2020-07-07T10:34:33.000Z</time>
      </trkpt>
      <trkpt lat="44.40222" lon="6.41121">
        <ele>1967</ele>
        <time>2020-07-07T10:34:34.000Z</time>
      </trkpt>
      <trkpt lat="44.40222" lon="6.41121">
        <ele>1967</ele>
        <time>2020-07-07T10:34:35.000Z</time>
      </trkpt>
      <trkpt lat="44.40223" lon="6.41122">
        <ele>1967</ele>
        <time>2020-07-07T10:34:36.000Z</time>
      </trkpt>
      <trkpt lat="44.40223" lon="6.41122">
        <ele>1967</ele>
        <time>2020-07-07T10:34:37.000Z</time>
      </trkpt>
      <trkpt lat="44.40223" lon="6.41122">
        <ele>1967</ele>
        <time>2020-07-07T10:34:38.000Z</time>
      </trkpt>
      <trkpt lat="44.40223" lon="6.41122">
        <ele>1967</ele>
        <time>2020-07-07T10:34:39.000Z</time>
      </trkpt>
      <trkpt lat="44.40223" lon="6.41122">
        <ele>1967</ele>
        <time>2020-07-07T10:34:40.000Z</time>
      </trkpt>
      <trkpt lat="44.40223" lon="6.41122">
        <ele>1967</ele>
        <time>2020-07-07T10:34:41.000Z</time>
      </trkpt>
      <trkpt lat="44.40224" lon="6.41123">
        <ele>1967</ele>
        <time>2020-07-07T10:34:42.000Z</time>
      </trkpt>
      <trkpt lat="44.40224" lon="6.41123">
        <ele>1967</ele>
        <time>2020-07-07T10:34:43.000Z</time>
      </trkpt>
      <trkpt lat="44.40224" lon="6.41123">
        <ele>1967</ele>
        <time>2020-07-07T10:34:44.000Z</time>
      </trkpt>
      <trkpt lat="44.40224" lon="6.41123">
        <ele>1967</ele>
        <time>2020-07-07T10:34:45.000Z</time>
      </trkpt>
      <trkpt lat="44.40224" lon="6.41123">
        <ele>1967</ele>
        <time>2020-07-07T10:34:46.000Z</time>
      </trkpt>
      <trkpt lat="44.40224" lon="6.41123">
        <ele>1967</ele>
        <time>2020-07-07T10:34:47.000Z</time>
      </trkpt>
      <trkpt lat="44.40224" lon="6.41123">
        <ele>1967</ele>
        <time>2020-07-07T10:34:48.000Z</time>
      </trkpt>
      <trkpt lat="44.40225" lon="6.41124">
        <ele>1967</ele>
        <time>2020-07-07T10:34:49.000Z</time>
      </trkpt>
      <trkpt lat="44.40225" lon="6.41124">
        <ele>1967</ele>
        <time>2020-07-07T10:34:50.000Z</time>
      </trkpt>
      <trkpt lat="44.40225" lon="6.41124">
        <ele>1966</ele>
        <time>2020-07-07T10:34:51.000Z</time>
      </trkpt>
      <trkpt lat="44.40225" lon="6.41125">
        <ele>1966</ele>
        <time>2020-07-07T10:34:52.000Z</time>
      </trkpt>
      <trkpt lat="44.40225" lon="6.41126">
        <ele>1966</ele>
        <time>2020-07-07T10:34:53.000Z</time>
      </trkpt>
      <trkpt lat="44.40225" lon="6.41126">
        <ele>1967</ele>
        <time>2020-07-07T10:34:54.000Z</time>
      </trkpt>
      <trkpt lat="44.40226" lon="6.41126">
        <ele>1966</ele>
        <time>2020-07-07T10:34:55.000Z</time>
      </trkpt>
      <trkpt lat="44.40226" lon="6.41125">
        <ele>1966</ele>
        <time>2020-07-07T10:34:56.000Z</time>
      </trkpt>
      <trkpt lat="44.40226" lon="6.41125">
        <ele>1966</ele>
        <time>2020-07-07T10:34:57.000Z</time>
      </trkpt>
      <trkpt lat="44.40226" lon="6.41125">
        <ele>1966</ele>
        <time>2020-07-07T10:34:58.000Z</time>
      </trkpt>
      <trkpt lat="44.40226" lon="6.41125">
        <ele>1966</ele>
        <time>2020-07-07T10:34:59.000Z</time>
      </trkpt>
      <trkpt lat="44.40226" lon="6.41126">
        <ele>1966</ele>
        <time>2020-07-07T10:35:00.000Z</time>
      </trkpt>
      <trkpt lat="44.40227" lon="6.41126">
        <ele>1966</ele>
        <time>2020-07-07T10:35:01.000Z</time>
      </trkpt>
      <trkpt lat="44.40227" lon="6.41126">
        <ele>1966</ele>
        <time>2020-07-07T10:35:02.000Z</time>
      </trkpt>
      <trkpt lat="44.40227" lon="6.41126">
        <ele>1966</ele>
        <time>2020-07-07T10:35:03.000Z</time>
      </trkpt>
      <trkpt lat="44.40228" lon="6.41127">
        <ele>1966</ele>
        <time>2020-07-07T10:35:04.000Z</time>
      </trkpt>
      <trkpt lat="44.40228" lon="6.41127">
        <ele>1966</ele>
        <time>2020-07-07T10:35:05.000Z</time>
      </trkpt>
      <trkpt lat="44.40228" lon="6.41128">
        <ele>1966</ele>
        <time>2020-07-07T10:35:06.000Z</time>
      </trkpt>
      <trkpt lat="44.40228" lon="6.41128">
        <ele>1966</ele>
        <time>2020-07-07T10:35:07.000Z</time>
      </trkpt>
      <trkpt lat="44.40227" lon="6.41129">
        <ele>1966</ele>
        <time>2020-07-07T10:35:08.000Z</time>
      </trkpt>
      <trkpt lat="44.40227" lon="6.41129">
        <ele>1966</ele>
        <time>2020-07-07T10:35:09.000Z</time>
      </trkpt>
      <trkpt lat="44.40228" lon="6.41129">
        <ele>1967</ele>
        <time>2020-07-07T10:35:10.000Z</time>
      </trkpt>
      <trkpt lat="44.40228" lon="6.41129">
        <ele>1967</ele>
        <time>2020-07-07T10:35:11.000Z</time>
      </trkpt>
      <trkpt lat="44.40228" lon="6.41129">
        <ele>1967</ele>
        <time>2020-07-07T10:35:12.000Z</time>
      </trkpt>
      <trkpt lat="44.40228" lon="6.41129">
        <ele>1967</ele>
        <time>2020-07-07T10:35:13.000Z</time>
      </trkpt>
      <trkpt lat="44.40228" lon="6.41129">
        <ele>1967</ele>
        <time>2020-07-07T10:35:14.000Z</time>
      </trkpt>
      <trkpt lat="44.40228" lon="6.41129">
        <ele>1967</ele>
        <time>2020-07-07T10:35:15.000Z</time>
      </trkpt>
      <trkpt lat="44.40228" lon="6.4113">
        <ele>1967</ele>
        <time>2020-07-07T10:35:16.000Z</time>
      </trkpt>
      <trkpt lat="44.40228" lon="6.41131">
        <ele>1967</ele>
        <time>2020-07-07T10:35:17.000Z</time>
      </trkpt>
      <trkpt lat="44.40228" lon="6.41131">
        <ele>1967</ele>
        <time>2020-07-07T10:35:18.000Z</time>
      </trkpt>
      <trkpt lat="44.40228" lon="6.4113">
        <ele>1967</ele>
        <time>2020-07-07T10:35:19.000Z</time>
      </trkpt>
      <trkpt lat="44.40228" lon="6.4113">
        <ele>1968</ele>
        <time>2020-07-07T10:35:20.000Z</time>
      </trkpt>
      <trkpt lat="44.40228" lon="6.41131">
        <ele>1968</ele>
        <time>2020-07-07T10:35:21.000Z</time>
      </trkpt>
      <trkpt lat="44.40229" lon="6.41131">
        <ele>1968</ele>
        <time>2020-07-07T10:35:22.000Z</time>
      </trkpt>
      <trkpt lat="44.40229" lon="6.4113">
        <ele>1968</ele>
        <time>2020-07-07T10:35:23.000Z</time>
      </trkpt>
      <trkpt lat="44.40229" lon="6.4113">
        <ele>1968</ele>
        <time>2020-07-07T10:35:24.000Z</time>
      </trkpt>
      <trkpt lat="44.40229" lon="6.4113">
        <ele>1968</ele>
        <time>2020-07-07T10:35:25.000Z</time>
      </trkpt>
      <trkpt lat="44.40229" lon="6.41131">
        <ele>1968</ele>
        <time>2020-07-07T10:35:26.000Z</time>
      </trkpt>
      <trkpt lat="44.40229" lon="6.41132">
        <ele>1968</ele>
        <time>2020-07-07T10:35:27.000Z</time>
      </trkpt>
      <trkpt lat="44.4023" lon="6.41132">
        <ele>1968</ele>
        <time>2020-07-07T10:35:28.000Z</time>
      </trkpt>
      <trkpt lat="44.4023" lon="6.41133">
        <ele>1969</ele>
        <time>2020-07-07T10:35:29.000Z</time>
      </trkpt>
      <trkpt lat="44.4023" lon="6.41133">
        <ele>1969</ele>
        <time>2020-07-07T10:35:30.000Z</time>
      </trkpt>
      <trkpt lat="44.40231" lon="6.41133">
        <ele>1969</ele>
        <time>2020-07-07T10:35:31.000Z</time>
      </trkpt>
      <trkpt lat="44.40231" lon="6.41134">
        <ele>1969</ele>
        <time>2020-07-07T10:35:32.000Z</time>
      </trkpt>
      <trkpt lat="44.40232" lon="6.41135">
        <ele>1969</ele>
        <time>2020-07-07T10:35:33.000Z</time>
      </trkpt>
      <trkpt lat="44.40232" lon="6.41135">
        <ele>1969</ele>
        <time>2020-07-07T10:35:34.000Z</time>
      </trkpt>
      <trkpt lat="44.40232" lon="6.41136">
        <ele>1970</ele>
        <time>2020-07-07T10:35:35.000Z</time>
      </trkpt>
      <trkpt lat="44.40233" lon="6.41136">
        <ele>1970</ele>
        <time>2020-07-07T10:35:36.000Z</time>
      </trkpt>
      <trkpt lat="44.40233" lon="6.41136">
        <ele>1970</ele>
        <time>2020-07-07T10:35:37.000Z</time>
      </trkpt>
      <trkpt lat="44.40233" lon="6.41136">
        <ele>1970</ele>
        <time>2020-07-07T10:35:38.000Z</time>
      </trkpt>
      <trkpt lat="44.40233" lon="6.41136">
        <ele>1970</ele>
        <time>2020-07-07T10:35:39.000Z</time>
      </trkpt>
      <trkpt lat="44.40233" lon="6.41137">
        <ele>1970</ele>
        <time>2020-07-07T10:35:40.000Z</time>
      </trkpt>
      <trkpt lat="44.40233" lon="6.41138">
        <ele>1970</ele>
        <time>2020-07-07T10:35:41.000Z</time>
      </trkpt>
      <trkpt lat="44.40233" lon="6.41139">
        <ele>1970</ele>
        <time>2020-07-07T10:35:42.000Z</time>
      </trkpt>
      <trkpt lat="44.40233" lon="6.4114">
        <ele>1970</ele>
        <time>2020-07-07T10:35:43.000Z</time>
      </trkpt>
      <trkpt lat="44.40233" lon="6.4114">
        <ele>1970</ele>
        <time>2020-07-07T10:35:44.000Z</time>
      </trkpt>
      <trkpt lat="44.40233" lon="6.41141">
        <ele>1971</ele>
        <time>2020-07-07T10:35:45.000Z</time>
      </trkpt>
      <trkpt lat="44.40232" lon="6.41141">
        <ele>1971</ele>
        <time>2020-07-07T10:35:46.000Z</time>
      </trkpt>
      <trkpt lat="44.40233" lon="6.41142">
        <ele>1971</ele>
        <time>2020-07-07T10:35:47.000Z</time>
      </trkpt>
      <trkpt lat="44.40232" lon="6.41142">
        <ele>1971</ele>
        <time>2020-07-07T10:35:48.000Z</time>
      </trkpt>
      <trkpt lat="44.40233" lon="6.41142">
        <ele>1971</ele>
        <time>2020-07-07T10:35:49.000Z</time>
      </trkpt>
      <trkpt lat="44.40233" lon="6.41142">
        <ele>1971</ele>
        <time>2020-07-07T10:35:50.000Z</time>
      </trkpt>
      <trkpt lat="44.40233" lon="6.41143">
        <ele>1971</ele>
        <time>2020-07-07T10:35:51.000Z</time>
      </trkpt>
      <trkpt lat="44.40233" lon="6.41143">
        <ele>1971</ele>
        <time>2020-07-07T10:35:52.000Z</time>
      </trkpt>
      <trkpt lat="44.40233" lon="6.41144">
        <ele>1971</ele>
        <time>2020-07-07T10:35:53.000Z</time>
      </trkpt>
      <trkpt lat="44.40234" lon="6.41145">
        <ele>1971</ele>
        <time>2020-07-07T10:35:54.000Z</time>
      </trkpt>
      <trkpt lat="44.40234" lon="6.41145">
        <ele>1971</ele>
        <time>2020-07-07T10:35:55.000Z</time>
      </trkpt>
      <trkpt lat="44.40234" lon="6.41145">
        <ele>1971</ele>
        <time>2020-07-07T10:35:56.000Z</time>
      </trkpt>
      <trkpt lat="44.40234" lon="6.41146">
        <ele>1971</ele>
        <time>2020-07-07T10:35:57.000Z</time>
      </trkpt>
      <trkpt lat="44.40234" lon="6.41146">
        <ele>1971</ele>
        <time>2020-07-07T10:35:58.000Z</time>
      </trkpt>
      <trkpt lat="44.40234" lon="6.41146">
        <ele>1971</ele>
        <time>2020-07-07T10:35:59.000Z</time>
      </trkpt>
      <trkpt lat="44.40235" lon="6.41146">
        <ele>1971</ele>
        <time>2020-07-07T10:36:00.000Z</time>
      </trkpt>
      <trkpt lat="44.40235" lon="6.41146">
        <ele>1971</ele>
        <time>2020-07-07T10:36:01.000Z</time>
      </trkpt>
      <trkpt lat="44.40235" lon="6.41146">
        <ele>1971</ele>
        <time>2020-07-07T10:36:02.000Z</time>
      </trkpt>
      <trkpt lat="44.40235" lon="6.41146">
        <ele>1971</ele>
        <time>2020-07-07T10:36:03.000Z</time>
      </trkpt>
      <trkpt lat="44.40235" lon="6.41146">
        <ele>1971</ele>
        <time>2020-07-07T10:36:04.000Z</time>
      </trkpt>
      <trkpt lat="44.40235" lon="6.41146">
        <ele>1971</ele>
        <time>2020-07-07T10:36:05.000Z</time>
      </trkpt>
      <trkpt lat="44.40235" lon="6.41146">
        <ele>1972</ele>
        <time>2020-07-07T10:36:06.000Z</time>
      </trkpt>
      <trkpt lat="44.40235" lon="6.41146">
        <ele>1972</ele>
        <time>2020-07-07T10:36:07.000Z</time>
      </trkpt>
      <trkpt lat="44.40235" lon="6.41146">
        <ele>1972</ele>
        <time>2020-07-07T10:36:08.000Z</time>
      </trkpt>
      <trkpt lat="44.40235" lon="6.41146">
        <ele>1972</ele>
        <time>2020-07-07T10:36:09.000Z</time>
      </trkpt>
      <trkpt lat="44.40235" lon="6.41146">
        <ele>1972</ele>
        <time>2020-07-07T10:36:10.000Z</time>
      </trkpt>
      <trkpt lat="44.40236" lon="6.41146">
        <ele>1972</ele>
        <time>2020-07-07T10:36:11.000Z</time>
      </trkpt>
      <trkpt lat="44.40236" lon="6.41146">
        <ele>1972</ele>
        <time>2020-07-07T10:36:12.000Z</time>
      </trkpt>
      <trkpt lat="44.40236" lon="6.41147">
        <ele>1972</ele>
        <time>2020-07-07T10:36:13.000Z</time>
      </trkpt>
      <trkpt lat="44.40236" lon="6.41147">
        <ele>1972</ele>
        <time>2020-07-07T10:36:14.000Z</time>
      </trkpt>
      <trkpt lat="44.40236" lon="6.41147">
        <ele>1972</ele>
        <time>2020-07-07T10:36:15.000Z</time>
      </trkpt>
      <trkpt lat="44.40236" lon="6.41148">
        <ele>1972</ele>
        <time>2020-07-07T10:36:16.000Z</time>
      </trkpt>
      <trkpt lat="44.40236" lon="6.41149">
        <ele>1972</ele>
        <time>2020-07-07T10:36:17.000Z</time>
      </trkpt>
      <trkpt lat="44.40236" lon="6.41149">
        <ele>1972</ele>
        <time>2020-07-07T10:36:18.000Z</time>
      </trkpt>
      <trkpt lat="44.40236" lon="6.41149">
        <ele>1972</ele>
        <time>2020-07-07T10:36:19.000Z</time>
      </trkpt>
      <trkpt lat="44.40236" lon="6.41149">
        <ele>1972</ele>
        <time>2020-07-07T10:36:20.000Z</time>
      </trkpt>
      <trkpt lat="44.40236" lon="6.4115">
        <ele>1972</ele>
        <time>2020-07-07T10:36:21.000Z</time>
      </trkpt>
      <trkpt lat="44.40235" lon="6.4115">
        <ele>1971</ele>
        <time>2020-07-07T10:36:22.000Z</time>
      </trkpt>
      <trkpt lat="44.40235" lon="6.4115">
        <ele>1971</ele>
        <time>2020-07-07T10:36:23.000Z</time>
      </trkpt>
      <trkpt lat="44.40235" lon="6.4115">
        <ele>1971</ele>
        <time>2020-07-07T10:36:24.000Z</time>
      </trkpt>
      <trkpt lat="44.40235" lon="6.4115">
        <ele>1971</ele>
        <time>2020-07-07T10:36:25.000Z</time>
      </trkpt>
      <trkpt lat="44.40235" lon="6.4115">
        <ele>1971</ele>
        <time>2020-07-07T10:36:26.000Z</time>
      </trkpt>
      <trkpt lat="44.40235" lon="6.41151">
        <ele>1971</ele>
        <time>2020-07-07T10:36:27.000Z</time>
      </trkpt>
      <trkpt lat="44.40235" lon="6.41151">
        <ele>1971</ele>
        <time>2020-07-07T10:36:28.000Z</time>
      </trkpt>
      <trkpt lat="44.40235" lon="6.41151">
        <ele>1971</ele>
        <time>2020-07-07T10:36:29.000Z</time>
      </trkpt>
      <trkpt lat="44.40235" lon="6.41151">
        <ele>1971</ele>
        <time>2020-07-07T10:36:30.000Z</time>
      </trkpt>
      <trkpt lat="44.40235" lon="6.41151">
        <ele>1971</ele>
        <time>2020-07-07T10:36:31.000Z</time>
      </trkpt>
      <trkpt lat="44.40235" lon="6.41151">
        <ele>1971</ele>
        <time>2020-07-07T10:36:32.000Z</time>
      </trkpt>
      <trkpt lat="44.40235" lon="6.41152">
        <ele>1971</ele>
        <time>2020-07-07T10:36:33.000Z</time>
      </trkpt>
      <trkpt lat="44.40235" lon="6.41153">
        <ele>1971</ele>
        <time>2020-07-07T10:36:34.000Z</time>
      </trkpt>
      <trkpt lat="44.40235" lon="6.41154">
        <ele>1970</ele>
        <time>2020-07-07T10:36:35.000Z</time>
      </trkpt>
      <trkpt lat="44.40235" lon="6.41154">
        <ele>1970</ele>
        <time>2020-07-07T10:36:36.000Z</time>
      </trkpt>
      <trkpt lat="44.40235" lon="6.41154">
        <ele>1970</ele>
        <time>2020-07-07T10:36:37.000Z</time>
      </trkpt>
      <trkpt lat="44.40236" lon="6.41155">
        <ele>1970</ele>
        <time>2020-07-07T10:36:38.000Z</time>
      </trkpt>
      <trkpt lat="44.40236" lon="6.41155">
        <ele>1970</ele>
        <time>2020-07-07T10:36:39.000Z</time>
      </trkpt>
      <trkpt lat="44.40236" lon="6.41155">
        <ele>1970</ele>
        <time>2020-07-07T10:36:40.000Z</time>
      </trkpt>
      <trkpt lat="44.40236" lon="6.41155">
        <ele>1970</ele>
        <time>2020-07-07T10:36:41.000Z</time>
      </trkpt>
      <trkpt lat="44.40236" lon="6.41155">
        <ele>1970</ele>
        <time>2020-07-07T10:36:42.000Z</time>
      </trkpt>
      <trkpt lat="44.40236" lon="6.41155">
        <ele>1970</ele>
        <time>2020-07-07T10:36:43.000Z</time>
      </trkpt>
      <trkpt lat="44.40236" lon="6.41155">
        <ele>1970</ele>
        <time>2020-07-07T10:36:44.000Z</time>
      </trkpt>
      <trkpt lat="44.40236" lon="6.41155">
        <ele>1970</ele>
        <time>2020-07-07T10:36:45.000Z</time>
      </trkpt>
      <trkpt lat="44.40236" lon="6.41155">
        <ele>1970</ele>
        <time>2020-07-07T10:36:46.000Z</time>
      </trkpt>
      <trkpt lat="44.40236" lon="6.41155">
        <ele>1970</ele>
        <time>2020-07-07T10:36:47.000Z</time>
      </trkpt>
      <trkpt lat="44.40236" lon="6.41155">
        <ele>1970</ele>
        <time>2020-07-07T10:36:48.000Z</time>
      </trkpt>
      <trkpt lat="44.40236" lon="6.41155">
        <ele>1970</ele>
        <time>2020-07-07T10:36:49.000Z</time>
      </trkpt>
      <trkpt lat="44.40236" lon="6.41155">
        <ele>1970</ele>
        <time>2020-07-07T10:36:50.000Z</time>
      </trkpt>
      <trkpt lat="44.40236" lon="6.41155">
        <ele>1970</ele>
        <time>2020-07-07T10:36:51.000Z</time>
      </trkpt>
      <trkpt lat="44.40236" lon="6.41156">
        <ele>1970</ele>
        <time>2020-07-07T10:36:52.000Z</time>
      </trkpt>
      <trkpt lat="44.40236" lon="6.41156">
        <ele>1970</ele>
        <time>2020-07-07T10:36:53.000Z</time>
      </trkpt>
      <trkpt lat="44.40236" lon="6.41156">
        <ele>1970</ele>
        <time>2020-07-07T10:36:54.000Z</time>
      </trkpt>
      <trkpt lat="44.40236" lon="6.41155">
        <ele>1971</ele>
        <time>2020-07-07T10:36:55.000Z</time>
      </trkpt>
      <trkpt lat="44.40236" lon="6.41155">
        <ele>1971</ele>
        <time>2020-07-07T10:36:56.000Z</time>
      </trkpt>
      <trkpt lat="44.40236" lon="6.41155">
        <ele>1971</ele>
        <time>2020-07-07T10:36:57.000Z</time>
      </trkpt>
      <trkpt lat="44.40236" lon="6.41156">
        <ele>1971</ele>
        <time>2020-07-07T10:36:58.000Z</time>
      </trkpt>
      <trkpt lat="44.40236" lon="6.41156">
        <ele>1971</ele>
        <time>2020-07-07T10:36:59.000Z</time>
      </trkpt>
      <trkpt lat="44.40236" lon="6.41155">
        <ele>1971</ele>
        <time>2020-07-07T10:37:00.000Z</time>
      </trkpt>
      <trkpt lat="44.40236" lon="6.41155">
        <ele>1971</ele>
        <time>2020-07-07T10:37:01.000Z</time>
      </trkpt>
      <trkpt lat="44.40236" lon="6.41156">
        <ele>1971</ele>
        <time>2020-07-07T10:37:02.000Z</time>
      </trkpt>
      <trkpt lat="44.40236" lon="6.41156">
        <ele>1971</ele>
        <time>2020-07-07T10:37:03.000Z</time>
      </trkpt>
      <trkpt lat="44.40236" lon="6.41155">
        <ele>1971</ele>
        <time>2020-07-07T10:37:04.000Z</time>
      </trkpt>
      <trkpt lat="44.40236" lon="6.41155">
        <ele>1971</ele>
        <time>2020-07-07T10:37:05.000Z</time>
      </trkpt>
      <trkpt lat="44.40236" lon="6.41155">
        <ele>1971</ele>
        <time>2020-07-07T10:37:06.000Z</time>
      </trkpt>
      <trkpt lat="44.40236" lon="6.41155">
        <ele>1971</ele>
        <time>2020-07-07T10:37:07.000Z</time>
      </trkpt>
      <trkpt lat="44.40237" lon="6.41155">
        <ele>1971</ele>
        <time>2020-07-07T10:37:08.000Z</time>
      </trkpt>
      <trkpt lat="44.40237" lon="6.41155">
        <ele>1971</ele>
        <time>2020-07-07T10:37:09.000Z</time>
      </trkpt>
      <trkpt lat="44.40237" lon="6.41155">
        <ele>1971</ele>
        <time>2020-07-07T10:37:10.000Z</time>
      </trkpt>
      <trkpt lat="44.40237" lon="6.41155">
        <ele>1971</ele>
        <time>2020-07-07T10:37:11.000Z</time>
      </trkpt>
      <trkpt lat="44.40237" lon="6.41155">
        <ele>1971</ele>
        <time>2020-07-07T10:37:12.000Z</time>
      </trkpt>
      <trkpt lat="44.40237" lon="6.41155">
        <ele>1971</ele>
        <time>2020-07-07T10:37:13.000Z</time>
      </trkpt>
      <trkpt lat="44.40237" lon="6.41155">
        <ele>1971</ele>
        <time>2020-07-07T10:37:14.000Z</time>
      </trkpt>
      <trkpt lat="44.40237" lon="6.41155">
        <ele>1971</ele>
        <time>2020-07-07T10:37:15.000Z</time>
      </trkpt>
      <trkpt lat="44.40237" lon="6.41155">
        <ele>1971</ele>
        <time>2020-07-07T10:37:16.000Z</time>
      </trkpt>
      <trkpt lat="44.40237" lon="6.41155">
        <ele>1971</ele>
        <time>2020-07-07T10:37:17.000Z</time>
      </trkpt>
      <trkpt lat="44.40237" lon="6.41155">
        <ele>1971</ele>
        <time>2020-07-07T10:37:18.000Z</time>
      </trkpt>
      <trkpt lat="44.40237" lon="6.41155">
        <ele>1971</ele>
        <time>2020-07-07T10:37:19.000Z</time>
      </trkpt>
      <trkpt lat="44.40237" lon="6.41155">
        <ele>1971</ele>
        <time>2020-07-07T10:37:20.000Z</time>
      </trkpt>
      <trkpt lat="44.40237" lon="6.41155">
        <ele>1971</ele>
        <time>2020-07-07T10:37:21.000Z</time>
      </trkpt>
      <trkpt lat="44.40237" lon="6.41155">
        <ele>1971</ele>
        <time>2020-07-07T10:37:22.000Z</time>
      </trkpt>
      <trkpt lat="44.40237" lon="6.41155">
        <ele>1971</ele>
        <time>2020-07-07T10:37:23.000Z</time>
      </trkpt>
      <trkpt lat="44.40237" lon="6.41155">
        <ele>1971</ele>
        <time>2020-07-07T10:37:24.000Z</time>
      </trkpt>
      <trkpt lat="44.40237" lon="6.41155">
        <ele>1971</ele>
        <time>2020-07-07T10:37:25.000Z</time>
      </trkpt>
      <trkpt lat="44.40237" lon="6.41155">
        <ele>1971</ele>
        <time>2020-07-07T10:37:26.000Z</time>
      </trkpt>
      <trkpt lat="44.40237" lon="6.41155">
        <ele>1971</ele>
        <time>2020-07-07T10:37:27.000Z</time>
      </trkpt>
      <trkpt lat="44.40237" lon="6.41155">
        <ele>1971</ele>
        <time>2020-07-07T10:37:28.000Z</time>
      </trkpt>
      <trkpt lat="44.40237" lon="6.41154">
        <ele>1971</ele>
        <time>2020-07-07T10:37:29.000Z</time>
      </trkpt>
      <trkpt lat="44.40237" lon="6.41154">
        <ele>1971</ele>
        <time>2020-07-07T10:37:30.000Z</time>
      </trkpt>
      <trkpt lat="44.40237" lon="6.41154">
        <ele>1971</ele>
        <time>2020-07-07T10:37:31.000Z</time>
      </trkpt>
      <trkpt lat="44.40237" lon="6.41154">
        <ele>1971</ele>
        <time>2020-07-07T10:37:32.000Z</time>
      </trkpt>
      <trkpt lat="44.40237" lon="6.41154">
        <ele>1971</ele>
        <time>2020-07-07T10:37:33.000Z</time>
      </trkpt>
      <trkpt lat="44.40237" lon="6.41154">
        <ele>1971</ele>
        <time>2020-07-07T10:37:34.000Z</time>
      </trkpt>
      <trkpt lat="44.40237" lon="6.41154">
        <ele>1971</ele>
        <time>2020-07-07T10:37:35.000Z</time>
      </trkpt>
      <trkpt lat="44.40237" lon="6.41154">
        <ele>1971</ele>
        <time>2020-07-07T10:37:36.000Z</time>
      </trkpt>
      <trkpt lat="44.40237" lon="6.41154">
        <ele>1971</ele>
        <time>2020-07-07T10:37:37.000Z</time>
      </trkpt>
      <trkpt lat="44.40237" lon="6.41154">
        <ele>1971</ele>
        <time>2020-07-07T10:37:38.000Z</time>
      </trkpt>
      <trkpt lat="44.40237" lon="6.41154">
        <ele>1971</ele>
        <time>2020-07-07T10:37:39.000Z</time>
      </trkpt>
      <trkpt lat="44.40237" lon="6.41155">
        <ele>1971</ele>
        <time>2020-07-07T10:37:40.000Z</time>
      </trkpt>
      <trkpt lat="44.40237" lon="6.41154">
        <ele>1971</ele>
        <time>2020-07-07T10:37:41.000Z</time>
      </trkpt>
      <trkpt lat="44.40237" lon="6.41154">
        <ele>1971</ele>
        <time>2020-07-07T10:37:42.000Z</time>
      </trkpt>
      <trkpt lat="44.40237" lon="6.41154">
        <ele>1971</ele>
        <time>2020-07-07T10:37:43.000Z</time>
      </trkpt>
      <trkpt lat="44.40238" lon="6.41155">
        <ele>1971</ele>
        <time>2020-07-07T10:37:44.000Z</time>
      </trkpt>
      <trkpt lat="44.40238" lon="6.41156">
        <ele>1971</ele>
        <time>2020-07-07T10:37:45.000Z</time>
      </trkpt>
      <trkpt lat="44.40238" lon="6.41156">
        <ele>1971</ele>
        <time>2020-07-07T10:37:46.000Z</time>
      </trkpt>
      <trkpt lat="44.40238" lon="6.41156">
        <ele>1971</ele>
        <time>2020-07-07T10:37:47.000Z</time>
      </trkpt>
      <trkpt lat="44.40237" lon="6.41156">
        <ele>1971</ele>
        <time>2020-07-07T10:37:48.000Z</time>
      </trkpt>
      <trkpt lat="44.40237" lon="6.41156">
        <ele>1971</ele>
        <time>2020-07-07T10:37:49.000Z</time>
      </trkpt>
      <trkpt lat="44.40237" lon="6.41156">
        <ele>1971</ele>
        <time>2020-07-07T10:37:50.000Z</time>
      </trkpt>
      <trkpt lat="44.40237" lon="6.41156">
        <ele>1971</ele>
        <time>2020-07-07T10:37:51.000Z</time>
      </trkpt>
      <trkpt lat="44.40236" lon="6.41156">
        <ele>1971</ele>
        <time>2020-07-07T10:37:52.000Z</time>
      </trkpt>
      <trkpt lat="44.40236" lon="6.41156">
        <ele>1971</ele>
        <time>2020-07-07T10:37:53.000Z</time>
      </trkpt>
      <trkpt lat="44.40236" lon="6.41157">
        <ele>1971</ele>
        <time>2020-07-07T10:37:54.000Z</time>
      </trkpt>
      <trkpt lat="44.40236" lon="6.41157">
        <ele>1971</ele>
        <time>2020-07-07T10:37:55.000Z</time>
      </trkpt>
      <trkpt lat="44.40235" lon="6.41158">
        <ele>1971</ele>
        <time>2020-07-07T10:37:56.000Z</time>
      </trkpt>
      <trkpt lat="44.40235" lon="6.41158">
        <ele>1970</ele>
        <time>2020-07-07T10:37:57.000Z</time>
      </trkpt>
      <trkpt lat="44.40235" lon="6.41158">
        <ele>1970</ele>
        <time>2020-07-07T10:37:58.000Z</time>
      </trkpt>
      <trkpt lat="44.40234" lon="6.41159">
        <ele>1970</ele>
        <time>2020-07-07T10:37:59.000Z</time>
      </trkpt>
      <trkpt lat="44.40234" lon="6.41159">
        <ele>1970</ele>
        <time>2020-07-07T10:38:00.000Z</time>
      </trkpt>
      <trkpt lat="44.40233" lon="6.41159">
        <ele>1970</ele>
        <time>2020-07-07T10:38:01.000Z</time>
      </trkpt>
      <trkpt lat="44.40233" lon="6.41159">
        <ele>1970</ele>
        <time>2020-07-07T10:38:02.000Z</time>
      </trkpt>
      <trkpt lat="44.40233" lon="6.41159">
        <ele>1970</ele>
        <time>2020-07-07T10:38:03.000Z</time>
      </trkpt>
      <trkpt lat="44.40233" lon="6.41159">
        <ele>1970</ele>
        <time>2020-07-07T10:38:04.000Z</time>
      </trkpt>
      <trkpt lat="44.40233" lon="6.4116">
        <ele>1970</ele>
        <time>2020-07-07T10:38:05.000Z</time>
      </trkpt>
      <trkpt lat="44.40233" lon="6.4116">
        <ele>1970</ele>
        <time>2020-07-07T10:38:06.000Z</time>
      </trkpt>
      <trkpt lat="44.40233" lon="6.41161">
        <ele>1970</ele>
        <time>2020-07-07T10:38:07.000Z</time>
      </trkpt>
      <trkpt lat="44.40234" lon="6.41162">
        <ele>1970</ele>
        <time>2020-07-07T10:38:08.000Z</time>
      </trkpt>
      <trkpt lat="44.40233" lon="6.41162">
        <ele>1970</ele>
        <time>2020-07-07T10:38:09.000Z</time>
      </trkpt>
      <trkpt lat="44.40233" lon="6.41163">
        <ele>1970</ele>
        <time>2020-07-07T10:38:10.000Z</time>
      </trkpt>
      <trkpt lat="44.40233" lon="6.41163">
        <ele>1970</ele>
        <time>2020-07-07T10:38:11.000Z</time>
      </trkpt>
      <trkpt lat="44.40234" lon="6.41164">
        <ele>1970</ele>
        <time>2020-07-07T10:38:12.000Z</time>
      </trkpt>
      <trkpt lat="44.40234" lon="6.41164">
        <ele>1970</ele>
        <time>2020-07-07T10:38:13.000Z</time>
      </trkpt>
      <trkpt lat="44.40234" lon="6.41164">
        <ele>1970</ele>
        <time>2020-07-07T10:38:14.000Z</time>
      </trkpt>
      <trkpt lat="44.40234" lon="6.41165">
        <ele>1970</ele>
        <time>2020-07-07T10:38:15.000Z</time>
      </trkpt>
      <trkpt lat="44.40234" lon="6.41165">
        <ele>1970</ele>
        <time>2020-07-07T10:38:16.000Z</time>
      </trkpt>
      <trkpt lat="44.40234" lon="6.41165">
        <ele>1970</ele>
        <time>2020-07-07T10:38:17.000Z</time>
      </trkpt>
      <trkpt lat="44.40234" lon="6.41166">
        <ele>1970</ele>
        <time>2020-07-07T10:38:18.000Z</time>
      </trkpt>
      <trkpt lat="44.40234" lon="6.41165">
        <ele>1970</ele>
        <time>2020-07-07T10:38:19.000Z</time>
      </trkpt>
      <trkpt lat="44.40235" lon="6.41166">
        <ele>1970</ele>
        <time>2020-07-07T10:38:20.000Z</time>
      </trkpt>
      <trkpt lat="44.40234" lon="6.41166">
        <ele>1970</ele>
        <time>2020-07-07T10:38:21.000Z</time>
      </trkpt>
      <trkpt lat="44.40234" lon="6.41167">
        <ele>1970</ele>
        <time>2020-07-07T10:38:22.000Z</time>
      </trkpt>
      <trkpt lat="44.40234" lon="6.41168">
        <ele>1970</ele>
        <time>2020-07-07T10:38:23.000Z</time>
      </trkpt>
      <trkpt lat="44.40235" lon="6.41168">
        <ele>1970</ele>
        <time>2020-07-07T10:38:24.000Z</time>
      </trkpt>
      <trkpt lat="44.40235" lon="6.41169">
        <ele>1970</ele>
        <time>2020-07-07T10:38:25.000Z</time>
      </trkpt>
      <trkpt lat="44.40235" lon="6.41169">
        <ele>1970</ele>
        <time>2020-07-07T10:38:26.000Z</time>
      </trkpt>
      <trkpt lat="44.40236" lon="6.41169">
        <ele>1970</ele>
        <time>2020-07-07T10:38:27.000Z</time>
      </trkpt>
      <trkpt lat="44.40235" lon="6.41169">
        <ele>1971</ele>
        <time>2020-07-07T10:38:28.000Z</time>
      </trkpt>
      <trkpt lat="44.40235" lon="6.41169">
        <ele>1971</ele>
        <time>2020-07-07T10:38:29.000Z</time>
      </trkpt>
      <trkpt lat="44.40236" lon="6.41169">
        <ele>1971</ele>
        <time>2020-07-07T10:38:30.000Z</time>
      </trkpt>
      <trkpt lat="44.40236" lon="6.41169">
        <ele>1971</ele>
        <time>2020-07-07T10:38:31.000Z</time>
      </trkpt>
      <trkpt lat="44.40237" lon="6.4117">
        <ele>1971</ele>
        <time>2020-07-07T10:38:32.000Z</time>
      </trkpt>
      <trkpt lat="44.40237" lon="6.4117">
        <ele>1971</ele>
        <time>2020-07-07T10:38:33.000Z</time>
      </trkpt>
      <trkpt lat="44.40238" lon="6.41171">
        <ele>1971</ele>
        <time>2020-07-07T10:38:34.000Z</time>
      </trkpt>
      <trkpt lat="44.40238" lon="6.41171">
        <ele>1971</ele>
        <time>2020-07-07T10:38:35.000Z</time>
      </trkpt>
      <trkpt lat="44.40238" lon="6.41172">
        <ele>1971</ele>
        <time>2020-07-07T10:38:36.000Z</time>
      </trkpt>
      <trkpt lat="44.40239" lon="6.41173">
        <ele>1971</ele>
        <time>2020-07-07T10:38:37.000Z</time>
      </trkpt>
      <trkpt lat="44.4024" lon="6.41173">
        <ele>1971</ele>
        <time>2020-07-07T10:38:38.000Z</time>
      </trkpt>
      <trkpt lat="44.4024" lon="6.41174">
        <ele>1971</ele>
        <time>2020-07-07T10:38:39.000Z</time>
      </trkpt>
      <trkpt lat="44.40241" lon="6.41174">
        <ele>1971</ele>
        <time>2020-07-07T10:38:40.000Z</time>
      </trkpt>
      <trkpt lat="44.40242" lon="6.41174">
        <ele>1971</ele>
        <time>2020-07-07T10:38:41.000Z</time>
      </trkpt>
      <trkpt lat="44.40242" lon="6.41175">
        <ele>1971</ele>
        <time>2020-07-07T10:38:42.000Z</time>
      </trkpt>
      <trkpt lat="44.40242" lon="6.41176">
        <ele>1971</ele>
        <time>2020-07-07T10:38:43.000Z</time>
      </trkpt>
      <trkpt lat="44.40243" lon="6.41177">
        <ele>1971</ele>
        <time>2020-07-07T10:38:44.000Z</time>
      </trkpt>
      <trkpt lat="44.40243" lon="6.41178">
        <ele>1971</ele>
        <time>2020-07-07T10:38:45.000Z</time>
      </trkpt>
      <trkpt lat="44.40243" lon="6.41178">
        <ele>1971</ele>
        <time>2020-07-07T10:38:46.000Z</time>
      </trkpt>
      <trkpt lat="44.40244" lon="6.41178">
        <ele>1971</ele>
        <time>2020-07-07T10:38:47.000Z</time>
      </trkpt>
      <trkpt lat="44.40244" lon="6.41178">
        <ele>1971</ele>
        <time>2020-07-07T10:38:48.000Z</time>
      </trkpt>
      <trkpt lat="44.40244" lon="6.41178">
        <ele>1971</ele>
        <time>2020-07-07T10:38:49.000Z</time>
      </trkpt>
      <trkpt lat="44.40245" lon="6.41179">
        <ele>1971</ele>
        <time>2020-07-07T10:38:50.000Z</time>
      </trkpt>
      <trkpt lat="44.40245" lon="6.41179">
        <ele>1971</ele>
        <time>2020-07-07T10:38:51.000Z</time>
      </trkpt>
      <trkpt lat="44.40245" lon="6.4118">
        <ele>1971</ele>
        <time>2020-07-07T10:38:52.000Z</time>
      </trkpt>
      <trkpt lat="44.40245" lon="6.4118">
        <ele>1971</ele>
        <time>2020-07-07T10:38:53.000Z</time>
      </trkpt>
      <trkpt lat="44.40245" lon="6.41181">
        <ele>1971</ele>
        <time>2020-07-07T10:38:54.000Z</time>
      </trkpt>
      <trkpt lat="44.40246" lon="6.41181">
        <ele>1971</ele>
        <time>2020-07-07T10:38:55.000Z</time>
      </trkpt>
      <trkpt lat="44.40246" lon="6.41182">
        <ele>1971</ele>
        <time>2020-07-07T10:38:56.000Z</time>
      </trkpt>
      <trkpt lat="44.40247" lon="6.41182">
        <ele>1971</ele>
        <time>2020-07-07T10:38:57.000Z</time>
      </trkpt>
      <trkpt lat="44.40248" lon="6.41182">
        <ele>1971</ele>
        <time>2020-07-07T10:38:58.000Z</time>
      </trkpt>
      <trkpt lat="44.40248" lon="6.41183">
        <ele>1971</ele>
        <time>2020-07-07T10:38:59.000Z</time>
      </trkpt>
      <trkpt lat="44.40249" lon="6.41184">
        <ele>1971</ele>
        <time>2020-07-07T10:39:00.000Z</time>
      </trkpt>
      <trkpt lat="44.40249" lon="6.41184">
        <ele>1971</ele>
        <time>2020-07-07T10:39:01.000Z</time>
      </trkpt>
      <trkpt lat="44.4025" lon="6.41184">
        <ele>1971</ele>
        <time>2020-07-07T10:39:02.000Z</time>
      </trkpt>
      <trkpt lat="44.4025" lon="6.41184">
        <ele>1971</ele>
        <time>2020-07-07T10:39:03.000Z</time>
      </trkpt>
      <trkpt lat="44.4025" lon="6.41184">
        <ele>1971</ele>
        <time>2020-07-07T10:39:04.000Z</time>
      </trkpt>
      <trkpt lat="44.40251" lon="6.41184">
        <ele>1971</ele>
        <time>2020-07-07T10:39:05.000Z</time>
      </trkpt>
      <trkpt lat="44.40251" lon="6.41185">
        <ele>1971</ele>
        <time>2020-07-07T10:39:06.000Z</time>
      </trkpt>
      <trkpt lat="44.40251" lon="6.41185">
        <ele>1971</ele>
        <time>2020-07-07T10:39:07.000Z</time>
      </trkpt>
      <trkpt lat="44.40251" lon="6.41185">
        <ele>1971</ele>
        <time>2020-07-07T10:39:08.000Z</time>
      </trkpt>
      <trkpt lat="44.40251" lon="6.41185">
        <ele>1971</ele>
        <time>2020-07-07T10:39:09.000Z</time>
      </trkpt>
      <trkpt lat="44.40252" lon="6.41185">
        <ele>1971</ele>
        <time>2020-07-07T10:39:10.000Z</time>
      </trkpt>
      <trkpt lat="44.40252" lon="6.41185">
        <ele>1971</ele>
        <time>2020-07-07T10:39:11.000Z</time>
      </trkpt>
      <trkpt lat="44.40252" lon="6.41185">
        <ele>1971</ele>
        <time>2020-07-07T10:39:12.000Z</time>
      </trkpt>
      <trkpt lat="44.40252" lon="6.41185">
        <ele>1971</ele>
        <time>2020-07-07T10:39:13.000Z</time>
      </trkpt>
      <trkpt lat="44.40252" lon="6.41185">
        <ele>1971</ele>
        <time>2020-07-07T10:39:14.000Z</time>
      </trkpt>
      <trkpt lat="44.40252" lon="6.41186">
        <ele>1971</ele>
        <time>2020-07-07T10:39:15.000Z</time>
      </trkpt>
      <trkpt lat="44.40252" lon="6.41186">
        <ele>1971</ele>
        <time>2020-07-07T10:39:16.000Z</time>
      </trkpt>
      <trkpt lat="44.40252" lon="6.41186">
        <ele>1971</ele>
        <time>2020-07-07T10:39:17.000Z</time>
      </trkpt>
      <trkpt lat="44.40252" lon="6.41186">
        <ele>1971</ele>
        <time>2020-07-07T10:39:18.000Z</time>
      </trkpt>
      <trkpt lat="44.40252" lon="6.41186">
        <ele>1971</ele>
        <time>2020-07-07T10:39:19.000Z</time>
      </trkpt>
      <trkpt lat="44.40252" lon="6.41186">
        <ele>1971</ele>
        <time>2020-07-07T10:39:20.000Z</time>
      </trkpt>
      <trkpt lat="44.40253" lon="6.41186">
        <ele>1971</ele>
        <time>2020-07-07T10:39:21.000Z</time>
      </trkpt>
      <trkpt lat="44.40253" lon="6.41187">
        <ele>1970</ele>
        <time>2020-07-07T10:39:22.000Z</time>
      </trkpt>
      <trkpt lat="44.40253" lon="6.41187">
        <ele>1970</ele>
        <time>2020-07-07T10:39:23.000Z</time>
      </trkpt>
      <trkpt lat="44.40253" lon="6.41187">
        <ele>1970</ele>
        <time>2020-07-07T10:39:24.000Z</time>
      </trkpt>
      <trkpt lat="44.40253" lon="6.41187">
        <ele>1970</ele>
        <time>2020-07-07T10:39:25.000Z</time>
      </trkpt>
      <trkpt lat="44.40253" lon="6.41187">
        <ele>1970</ele>
        <time>2020-07-07T10:39:26.000Z</time>
      </trkpt>
      <trkpt lat="44.40253" lon="6.41188">
        <ele>1970</ele>
        <time>2020-07-07T10:39:27.000Z</time>
      </trkpt>
      <trkpt lat="44.40254" lon="6.41188">
        <ele>1970</ele>
        <time>2020-07-07T10:39:28.000Z</time>
      </trkpt>
      <trkpt lat="44.40254" lon="6.41188">
        <ele>1970</ele>
        <time>2020-07-07T10:39:29.000Z</time>
      </trkpt>
      <trkpt lat="44.40254" lon="6.41189">
        <ele>1970</ele>
        <time>2020-07-07T10:39:30.000Z</time>
      </trkpt>
      <trkpt lat="44.40254" lon="6.4119">
        <ele>1970</ele>
        <time>2020-07-07T10:39:31.000Z</time>
      </trkpt>
      <trkpt lat="44.40255" lon="6.4119">
        <ele>1971</ele>
        <time>2020-07-07T10:39:32.000Z</time>
      </trkpt>
      <trkpt lat="44.40255" lon="6.41191">
        <ele>1971</ele>
        <time>2020-07-07T10:39:33.000Z</time>
      </trkpt>
      <trkpt lat="44.40255" lon="6.41192">
        <ele>1971</ele>
        <time>2020-07-07T10:39:34.000Z</time>
      </trkpt>
      <trkpt lat="44.40256" lon="6.41193">
        <ele>1971</ele>
        <time>2020-07-07T10:39:35.000Z</time>
      </trkpt>
      <trkpt lat="44.40256" lon="6.41193">
        <ele>1971</ele>
        <time>2020-07-07T10:39:36.000Z</time>
      </trkpt>
      <trkpt lat="44.40257" lon="6.41194">
        <ele>1971</ele>
        <time>2020-07-07T10:39:37.000Z</time>
      </trkpt>
      <trkpt lat="44.40257" lon="6.41194">
        <ele>1971</ele>
        <time>2020-07-07T10:39:38.000Z</time>
      </trkpt>
      <trkpt lat="44.40258" lon="6.41196">
        <ele>1971</ele>
        <time>2020-07-07T10:39:39.000Z</time>
      </trkpt>
      <trkpt lat="44.40259" lon="6.41197">
        <ele>1972</ele>
        <time>2020-07-07T10:39:40.000Z</time>
      </trkpt>
      <trkpt lat="44.40259" lon="6.41198">
        <ele>1972</ele>
        <time>2020-07-07T10:39:41.000Z</time>
      </trkpt>
      <trkpt lat="44.4026" lon="6.41198">
        <ele>1972</ele>
        <time>2020-07-07T10:39:42.000Z</time>
      </trkpt>
      <trkpt lat="44.4026" lon="6.41198">
        <ele>1972</ele>
        <time>2020-07-07T10:39:43.000Z</time>
      </trkpt>
      <trkpt lat="44.4026" lon="6.41199">
        <ele>1972</ele>
        <time>2020-07-07T10:39:44.000Z</time>
      </trkpt>
      <trkpt lat="44.40261" lon="6.41199">
        <ele>1972</ele>
        <time>2020-07-07T10:39:45.000Z</time>
      </trkpt>
      <trkpt lat="44.40261" lon="6.41199">
        <ele>1972</ele>
        <time>2020-07-07T10:39:46.000Z</time>
      </trkpt>
      <trkpt lat="44.40261" lon="6.412">
        <ele>1972</ele>
        <time>2020-07-07T10:39:47.000Z</time>
      </trkpt>
      <trkpt lat="44.40261" lon="6.412">
        <ele>1972</ele>
        <time>2020-07-07T10:39:48.000Z</time>
      </trkpt>
      <trkpt lat="44.40261" lon="6.41201">
        <ele>1972</ele>
        <time>2020-07-07T10:39:49.000Z</time>
      </trkpt>
      <trkpt lat="44.40261" lon="6.41201">
        <ele>1972</ele>
        <time>2020-07-07T10:39:50.000Z</time>
      </trkpt>
      <trkpt lat="44.40261" lon="6.41202">
        <ele>1972</ele>
        <time>2020-07-07T10:39:51.000Z</time>
      </trkpt>
      <trkpt lat="44.40261" lon="6.41204">
        <ele>1972</ele>
        <time>2020-07-07T10:39:52.000Z</time>
      </trkpt>
      <trkpt lat="44.40262" lon="6.41204">
        <ele>1972</ele>
        <time>2020-07-07T10:39:53.000Z</time>
      </trkpt>
      <trkpt lat="44.40262" lon="6.41205">
        <ele>1972</ele>
        <time>2020-07-07T10:39:54.000Z</time>
      </trkpt>
      <trkpt lat="44.40263" lon="6.41206">
        <ele>1972</ele>
        <time>2020-07-07T10:39:55.000Z</time>
      </trkpt>
      <trkpt lat="44.40263" lon="6.41206">
        <ele>1972</ele>
        <time>2020-07-07T10:39:56.000Z</time>
      </trkpt>
      <trkpt lat="44.40263" lon="6.41207">
        <ele>1972</ele>
        <time>2020-07-07T10:39:57.000Z</time>
      </trkpt>
      <trkpt lat="44.40264" lon="6.41208">
        <ele>1972</ele>
        <time>2020-07-07T10:39:58.000Z</time>
      </trkpt>
      <trkpt lat="44.40264" lon="6.4121">
        <ele>1973</ele>
        <time>2020-07-07T10:39:59.000Z</time>
      </trkpt>
      <trkpt lat="44.40265" lon="6.4121">
        <ele>1973</ele>
        <time>2020-07-07T10:40:00.000Z</time>
      </trkpt>
      <trkpt lat="44.40265" lon="6.41211">
        <ele>1973</ele>
        <time>2020-07-07T10:40:01.000Z</time>
      </trkpt>
      <trkpt lat="44.40264" lon="6.41211">
        <ele>1973</ele>
        <time>2020-07-07T10:40:02.000Z</time>
      </trkpt>
      <trkpt lat="44.40264" lon="6.4121">
        <ele>1973</ele>
        <time>2020-07-07T10:40:03.000Z</time>
      </trkpt>
      <trkpt lat="44.40264" lon="6.4121">
        <ele>1973</ele>
        <time>2020-07-07T10:40:04.000Z</time>
      </trkpt>
      <trkpt lat="44.40264" lon="6.4121">
        <ele>1973</ele>
        <time>2020-07-07T10:40:05.000Z</time>
      </trkpt>
      <trkpt lat="44.40264" lon="6.41209">
        <ele>1974</ele>
        <time>2020-07-07T10:40:06.000Z</time>
      </trkpt>
      <trkpt lat="44.40263" lon="6.41209">
        <ele>1974</ele>
        <time>2020-07-07T10:40:07.000Z</time>
      </trkpt>
      <trkpt lat="44.40263" lon="6.41209">
        <ele>1974</ele>
        <time>2020-07-07T10:40:08.000Z</time>
      </trkpt>
      <trkpt lat="44.40263" lon="6.41209">
        <ele>1974</ele>
        <time>2020-07-07T10:40:09.000Z</time>
      </trkpt>
      <trkpt lat="44.40263" lon="6.41209">
        <ele>1974</ele>
        <time>2020-07-07T10:40:10.000Z</time>
      </trkpt>
      <trkpt lat="44.40262" lon="6.41209">
        <ele>1974</ele>
        <time>2020-07-07T10:40:11.000Z</time>
      </trkpt>
      <trkpt lat="44.40262" lon="6.41209">
        <ele>1974</ele>
        <time>2020-07-07T10:40:12.000Z</time>
      </trkpt>
      <trkpt lat="44.40262" lon="6.41208">
        <ele>1974</ele>
        <time>2020-07-07T10:40:13.000Z</time>
      </trkpt>
      <trkpt lat="44.40262" lon="6.41208">
        <ele>1975</ele>
        <time>2020-07-07T10:40:14.000Z</time>
      </trkpt>
      <trkpt lat="44.40262" lon="6.41208">
        <ele>1975</ele>
        <time>2020-07-07T10:40:15.000Z</time>
      </trkpt>
      <trkpt lat="44.40262" lon="6.41208">
        <ele>1975</ele>
        <time>2020-07-07T10:40:16.000Z</time>
      </trkpt>
      <trkpt lat="44.40261" lon="6.41208">
        <ele>1975</ele>
        <time>2020-07-07T10:40:17.000Z</time>
      </trkpt>
      <trkpt lat="44.40261" lon="6.41208">
        <ele>1975</ele>
        <time>2020-07-07T10:40:18.000Z</time>
      </trkpt>
      <trkpt lat="44.40261" lon="6.41208">
        <ele>1975</ele>
        <time>2020-07-07T10:40:19.000Z</time>
      </trkpt>
      <trkpt lat="44.40261" lon="6.41208">
        <ele>1975</ele>
        <time>2020-07-07T10:40:20.000Z</time>
      </trkpt>
      <trkpt lat="44.40261" lon="6.41208">
        <ele>1975</ele>
        <time>2020-07-07T10:40:21.000Z</time>
      </trkpt>
      <trkpt lat="44.40261" lon="6.41207">
        <ele>1975</ele>
        <time>2020-07-07T10:40:22.000Z</time>
      </trkpt>
      <trkpt lat="44.40261" lon="6.41207">
        <ele>1975</ele>
        <time>2020-07-07T10:40:23.000Z</time>
      </trkpt>
      <trkpt lat="44.40261" lon="6.41207">
        <ele>1976</ele>
        <time>2020-07-07T10:40:24.000Z</time>
      </trkpt>
      <trkpt lat="44.40261" lon="6.41207">
        <ele>1976</ele>
        <time>2020-07-07T10:40:25.000Z</time>
      </trkpt>
      <trkpt lat="44.4026" lon="6.41207">
        <ele>1976</ele>
        <time>2020-07-07T10:40:26.000Z</time>
      </trkpt>
      <trkpt lat="44.4026" lon="6.41207">
        <ele>1976</ele>
        <time>2020-07-07T10:40:27.000Z</time>
      </trkpt>
      <trkpt lat="44.4026" lon="6.41207">
        <ele>1976</ele>
        <time>2020-07-07T10:40:28.000Z</time>
      </trkpt>
      <trkpt lat="44.4026" lon="6.41206">
        <ele>1976</ele>
        <time>2020-07-07T10:40:29.000Z</time>
      </trkpt>
      <trkpt lat="44.4026" lon="6.41206">
        <ele>1976</ele>
        <time>2020-07-07T10:40:30.000Z</time>
      </trkpt>
      <trkpt lat="44.4026" lon="6.41206">
        <ele>1976</ele>
        <time>2020-07-07T10:40:31.000Z</time>
      </trkpt>
      <trkpt lat="44.4026" lon="6.41206">
        <ele>1976</ele>
        <time>2020-07-07T10:40:32.000Z</time>
      </trkpt>
      <trkpt lat="44.4026" lon="6.41206">
        <ele>1976</ele>
        <time>2020-07-07T10:40:33.000Z</time>
      </trkpt>
      <trkpt lat="44.4026" lon="6.41206">
        <ele>1976</ele>
        <time>2020-07-07T10:40:34.000Z</time>
      </trkpt>
      <trkpt lat="44.4026" lon="6.41206">
        <ele>1976</ele>
        <time>2020-07-07T10:40:35.000Z</time>
      </trkpt>
      <trkpt lat="44.40259" lon="6.41206">
        <ele>1976</ele>
        <time>2020-07-07T10:40:36.000Z</time>
      </trkpt>
      <trkpt lat="44.40259" lon="6.41206">
        <ele>1976</ele>
        <time>2020-07-07T10:40:37.000Z</time>
      </trkpt>
      <trkpt lat="44.40259" lon="6.41205">
        <ele>1976</ele>
        <time>2020-07-07T10:40:38.000Z</time>
      </trkpt>
      <trkpt lat="44.40259" lon="6.41205">
        <ele>1976</ele>
        <time>2020-07-07T10:40:39.000Z</time>
      </trkpt>
      <trkpt lat="44.40259" lon="6.41205">
        <ele>1976</ele>
        <time>2020-07-07T10:40:40.000Z</time>
      </trkpt>
      <trkpt lat="44.40259" lon="6.41205">
        <ele>1976</ele>
        <time>2020-07-07T10:40:41.000Z</time>
      </trkpt>
      <trkpt lat="44.40259" lon="6.41205">
        <ele>1976</ele>
        <time>2020-07-07T10:40:42.000Z</time>
      </trkpt>
      <trkpt lat="44.40259" lon="6.41205">
        <ele>1976</ele>
        <time>2020-07-07T10:40:43.000Z</time>
      </trkpt>
      <trkpt lat="44.40258" lon="6.41205">
        <ele>1976</ele>
        <time>2020-07-07T10:40:44.000Z</time>
      </trkpt>
      <trkpt lat="44.40258" lon="6.41205">
        <ele>1976</ele>
        <time>2020-07-07T10:40:45.000Z</time>
      </trkpt>
      <trkpt lat="44.40258" lon="6.41205">
        <ele>1976</ele>
        <time>2020-07-07T10:40:46.000Z</time>
      </trkpt>
      <trkpt lat="44.40258" lon="6.41204">
        <ele>1976</ele>
        <time>2020-07-07T10:40:47.000Z</time>
      </trkpt>
      <trkpt lat="44.40258" lon="6.41204">
        <ele>1976</ele>
        <time>2020-07-07T10:40:48.000Z</time>
      </trkpt>
      <trkpt lat="44.40258" lon="6.41204">
        <ele>1976</ele>
        <time>2020-07-07T10:40:49.000Z</time>
      </trkpt>
      <trkpt lat="44.40258" lon="6.41204">
        <ele>1976</ele>
        <time>2020-07-07T10:40:50.000Z</time>
      </trkpt>
      <trkpt lat="44.40257" lon="6.41204">
        <ele>1976</ele>
        <time>2020-07-07T10:40:51.000Z</time>
      </trkpt>
      <trkpt lat="44.40257" lon="6.41204">
        <ele>1976</ele>
        <time>2020-07-07T10:40:52.000Z</time>
      </trkpt>
      <trkpt lat="44.40257" lon="6.41204">
        <ele>1976</ele>
        <time>2020-07-07T10:40:53.000Z</time>
      </trkpt>
      <trkpt lat="44.40257" lon="6.41204">
        <ele>1976</ele>
        <time>2020-07-07T10:40:54.000Z</time>
      </trkpt>
      <trkpt lat="44.40257" lon="6.41203">
        <ele>1976</ele>
        <time>2020-07-07T10:40:55.000Z</time>
      </trkpt>
      <trkpt lat="44.40257" lon="6.41203">
        <ele>1976</ele>
        <time>2020-07-07T10:40:56.000Z</time>
      </trkpt>
      <trkpt lat="44.40257" lon="6.41203">
        <ele>1976</ele>
        <time>2020-07-07T10:40:57.000Z</time>
      </trkpt>
      <trkpt lat="44.40257" lon="6.41203">
        <ele>1976</ele>
        <time>2020-07-07T10:40:58.000Z</time>
      </trkpt>
      <trkpt lat="44.40256" lon="6.41203">
        <ele>1976</ele>
        <time>2020-07-07T10:40:59.000Z</time>
      </trkpt>
      <trkpt lat="44.40256" lon="6.41204">
        <ele>1976</ele>
        <time>2020-07-07T10:41:00.000Z</time>
      </trkpt>
      <trkpt lat="44.40255" lon="6.41204">
        <ele>1976</ele>
        <time>2020-07-07T10:41:01.000Z</time>
      </trkpt>
      <trkpt lat="44.40256" lon="6.41204">
        <ele>1976</ele>
        <time>2020-07-07T10:41:02.000Z</time>
      </trkpt>
      <trkpt lat="44.40255" lon="6.41204">
        <ele>1976</ele>
        <time>2020-07-07T10:41:03.000Z</time>
      </trkpt>
      <trkpt lat="44.40255" lon="6.41204">
        <ele>1976</ele>
        <time>2020-07-07T10:41:04.000Z</time>
      </trkpt>
      <trkpt lat="44.40255" lon="6.41204">
        <ele>1976</ele>
        <time>2020-07-07T10:41:05.000Z</time>
      </trkpt>
      <trkpt lat="44.40255" lon="6.41203">
        <ele>1976</ele>
        <time>2020-07-07T10:41:06.000Z</time>
      </trkpt>
      <trkpt lat="44.40255" lon="6.41204">
        <ele>1976</ele>
        <time>2020-07-07T10:41:07.000Z</time>
      </trkpt>
      <trkpt lat="44.40256" lon="6.41204">
        <ele>1976</ele>
        <time>2020-07-07T10:41:08.000Z</time>
      </trkpt>
      <trkpt lat="44.40256" lon="6.41204">
        <ele>1977</ele>
        <time>2020-07-07T10:41:09.000Z</time>
      </trkpt>
      <trkpt lat="44.40257" lon="6.41205">
        <ele>1977</ele>
        <time>2020-07-07T10:41:10.000Z</time>
      </trkpt>
      <trkpt lat="44.40257" lon="6.41206">
        <ele>1977</ele>
        <time>2020-07-07T10:41:11.000Z</time>
      </trkpt>
      <trkpt lat="44.40258" lon="6.41207">
        <ele>1977</ele>
        <time>2020-07-07T10:41:12.000Z</time>
      </trkpt>
      <trkpt lat="44.40258" lon="6.41207">
        <ele>1977</ele>
        <time>2020-07-07T10:41:13.000Z</time>
      </trkpt>
      <trkpt lat="44.40259" lon="6.41208">
        <ele>1977</ele>
        <time>2020-07-07T10:41:14.000Z</time>
      </trkpt>
      <trkpt lat="44.4026" lon="6.41208">
        <ele>1977</ele>
        <time>2020-07-07T10:41:15.000Z</time>
      </trkpt>
      <trkpt lat="44.40261" lon="6.41209">
        <ele>1977</ele>
        <time>2020-07-07T10:41:16.000Z</time>
      </trkpt>
      <trkpt lat="44.40261" lon="6.4121">
        <ele>1977</ele>
        <time>2020-07-07T10:41:17.000Z</time>
      </trkpt>
      <trkpt lat="44.40262" lon="6.4121">
        <ele>1977</ele>
        <time>2020-07-07T10:41:18.000Z</time>
      </trkpt>
      <trkpt lat="44.40262" lon="6.4121">
        <ele>1977</ele>
        <time>2020-07-07T10:41:19.000Z</time>
      </trkpt>
      <trkpt lat="44.40263" lon="6.4121">
        <ele>1977</ele>
        <time>2020-07-07T10:41:20.000Z</time>
      </trkpt>
      <trkpt lat="44.40264" lon="6.41211">
        <ele>1977</ele>
        <time>2020-07-07T10:41:21.000Z</time>
      </trkpt>
      <trkpt lat="44.40265" lon="6.41212">
        <ele>1977</ele>
        <time>2020-07-07T10:41:22.000Z</time>
      </trkpt>
      <trkpt lat="44.40266" lon="6.41213">
        <ele>1977</ele>
        <time>2020-07-07T10:41:23.000Z</time>
      </trkpt>
      <trkpt lat="44.40267" lon="6.41214">
        <ele>1977</ele>
        <time>2020-07-07T10:41:24.000Z</time>
      </trkpt>
      <trkpt lat="44.40268" lon="6.41214">
        <ele>1977</ele>
        <time>2020-07-07T10:41:25.000Z</time>
      </trkpt>
      <trkpt lat="44.40268" lon="6.41214">
        <ele>1977</ele>
        <time>2020-07-07T10:41:26.000Z</time>
      </trkpt>
      <trkpt lat="44.40269" lon="6.41214">
        <ele>1976</ele>
        <time>2020-07-07T10:41:27.000Z</time>
      </trkpt>
      <trkpt lat="44.4027" lon="6.41213">
        <ele>1976</ele>
        <time>2020-07-07T10:41:28.000Z</time>
      </trkpt>
      <trkpt lat="44.4027" lon="6.41213">
        <ele>1976</ele>
        <time>2020-07-07T10:41:29.000Z</time>
      </trkpt>
      <trkpt lat="44.4027" lon="6.41213">
        <ele>1976</ele>
        <time>2020-07-07T10:41:30.000Z</time>
      </trkpt>
      <trkpt lat="44.4027" lon="6.41213">
        <ele>1976</ele>
        <time>2020-07-07T10:41:31.000Z</time>
      </trkpt>
      <trkpt lat="44.4027" lon="6.41213">
        <ele>1976</ele>
        <time>2020-07-07T10:41:32.000Z</time>
      </trkpt>
      <trkpt lat="44.4027" lon="6.41213">
        <ele>1976</ele>
        <time>2020-07-07T10:41:33.000Z</time>
      </trkpt>
      <trkpt lat="44.40269" lon="6.41213">
        <ele>1976</ele>
        <time>2020-07-07T10:41:34.000Z</time>
      </trkpt>
      <trkpt lat="44.40269" lon="6.41212">
        <ele>1976</ele>
        <time>2020-07-07T10:41:35.000Z</time>
      </trkpt>
      <trkpt lat="44.40268" lon="6.41212">
        <ele>1976</ele>
        <time>2020-07-07T10:41:36.000Z</time>
      </trkpt>
      <trkpt lat="44.40268" lon="6.41211">
        <ele>1976</ele>
        <time>2020-07-07T10:41:37.000Z</time>
      </trkpt>
      <trkpt lat="44.40268" lon="6.4121">
        <ele>1976</ele>
        <time>2020-07-07T10:41:38.000Z</time>
      </trkpt>
      <trkpt lat="44.40268" lon="6.41209">
        <ele>1975</ele>
        <time>2020-07-07T10:41:39.000Z</time>
      </trkpt>
      <trkpt lat="44.40268" lon="6.41209">
        <ele>1975</ele>
        <time>2020-07-07T10:41:40.000Z</time>
      </trkpt>
      <trkpt lat="44.40268" lon="6.41209">
        <ele>1975</ele>
        <time>2020-07-07T10:41:41.000Z</time>
      </trkpt>
      <trkpt lat="44.40268" lon="6.41208">
        <ele>1975</ele>
        <time>2020-07-07T10:41:42.000Z</time>
      </trkpt>
      <trkpt lat="44.40268" lon="6.41208">
        <ele>1975</ele>
        <time>2020-07-07T10:41:43.000Z</time>
      </trkpt>
      <trkpt lat="44.40268" lon="6.41207">
        <ele>1974</ele>
        <time>2020-07-07T10:41:44.000Z</time>
      </trkpt>
      <trkpt lat="44.40267" lon="6.41206">
        <ele>1974</ele>
        <time>2020-07-07T10:41:45.000Z</time>
      </trkpt>
      <trkpt lat="44.40267" lon="6.41206">
        <ele>1974</ele>
        <time>2020-07-07T10:41:46.000Z</time>
      </trkpt>
      <trkpt lat="44.40267" lon="6.41205">
        <ele>1974</ele>
        <time>2020-07-07T10:41:47.000Z</time>
      </trkpt>
      <trkpt lat="44.40268" lon="6.41205">
        <ele>1974</ele>
        <time>2020-07-07T10:41:48.000Z</time>
      </trkpt>
      <trkpt lat="44.40268" lon="6.41204">
        <ele>1974</ele>
        <time>2020-07-07T10:41:49.000Z</time>
      </trkpt>
      <trkpt lat="44.40268" lon="6.41203">
        <ele>1974</ele>
        <time>2020-07-07T10:41:50.000Z</time>
      </trkpt>
      <trkpt lat="44.40268" lon="6.41202">
        <ele>1974</ele>
        <time>2020-07-07T10:41:51.000Z</time>
      </trkpt>
      <trkpt lat="44.40268" lon="6.41201">
        <ele>1974</ele>
        <time>2020-07-07T10:41:52.000Z</time>
      </trkpt>
      <trkpt lat="44.40268" lon="6.412">
        <ele>1973</ele>
        <time>2020-07-07T10:41:53.000Z</time>
      </trkpt>
      <trkpt lat="44.40267" lon="6.41199">
        <ele>1973</ele>
        <time>2020-07-07T10:41:54.000Z</time>
      </trkpt>
      <trkpt lat="44.40268" lon="6.41199">
        <ele>1973</ele>
        <time>2020-07-07T10:41:55.000Z</time>
      </trkpt>
      <trkpt lat="44.40268" lon="6.41197">
        <ele>1973</ele>
        <time>2020-07-07T10:41:56.000Z</time>
      </trkpt>
      <trkpt lat="44.40268" lon="6.41197">
        <ele>1973</ele>
        <time>2020-07-07T10:41:57.000Z</time>
      </trkpt>
      <trkpt lat="44.40268" lon="6.41195">
        <ele>1973</ele>
        <time>2020-07-07T10:41:58.000Z</time>
      </trkpt>
      <trkpt lat="44.40268" lon="6.41194">
        <ele>1972</ele>
        <time>2020-07-07T10:41:59.000Z</time>
      </trkpt>
      <trkpt lat="44.40268" lon="6.41193">
        <ele>1972</ele>
        <time>2020-07-07T10:42:00.000Z</time>
      </trkpt>
      <trkpt lat="44.40268" lon="6.41193">
        <ele>1973</ele>
        <time>2020-07-07T10:42:01.000Z</time>
      </trkpt>
      <trkpt lat="44.40268" lon="6.41193">
        <ele>1973</ele>
        <time>2020-07-07T10:42:02.000Z</time>
      </trkpt>
      <trkpt lat="44.40269" lon="6.41193">
        <ele>1972</ele>
        <time>2020-07-07T10:42:03.000Z</time>
      </trkpt>
      <trkpt lat="44.40269" lon="6.41193">
        <ele>1972</ele>
        <time>2020-07-07T10:42:04.000Z</time>
      </trkpt>
      <trkpt lat="44.40269" lon="6.41193">
        <ele>1972</ele>
        <time>2020-07-07T10:42:05.000Z</time>
      </trkpt>
      <trkpt lat="44.40269" lon="6.41191">
        <ele>1972</ele>
        <time>2020-07-07T10:42:06.000Z</time>
      </trkpt>
      <trkpt lat="44.40269" lon="6.4119">
        <ele>1972</ele>
        <time>2020-07-07T10:42:07.000Z</time>
      </trkpt>
      <trkpt lat="44.40269" lon="6.41188">
        <ele>1972</ele>
        <time>2020-07-07T10:42:08.000Z</time>
      </trkpt>
      <trkpt lat="44.40269" lon="6.41187">
        <ele>1972</ele>
        <time>2020-07-07T10:42:09.000Z</time>
      </trkpt>
      <trkpt lat="44.40269" lon="6.41185">
        <ele>1972</ele>
        <time>2020-07-07T10:42:10.000Z</time>
      </trkpt>
      <trkpt lat="44.40269" lon="6.41185">
        <ele>1972</ele>
        <time>2020-07-07T10:42:11.000Z</time>
      </trkpt>
      <trkpt lat="44.40269" lon="6.41183">
        <ele>1972</ele>
        <time>2020-07-07T10:42:12.000Z</time>
      </trkpt>
      <trkpt lat="44.40268" lon="6.41182">
        <ele>1972</ele>
        <time>2020-07-07T10:42:13.000Z</time>
      </trkpt>
      <trkpt lat="44.40268" lon="6.4118">
        <ele>1972</ele>
        <time>2020-07-07T10:42:14.000Z</time>
      </trkpt>
      <trkpt lat="44.40268" lon="6.4118">
        <ele>1972</ele>
        <time>2020-07-07T10:42:15.000Z</time>
      </trkpt>
      <trkpt lat="44.40268" lon="6.41179">
        <ele>1972</ele>
        <time>2020-07-07T10:42:16.000Z</time>
      </trkpt>
      <trkpt lat="44.40268" lon="6.41178">
        <ele>1972</ele>
        <time>2020-07-07T10:42:17.000Z</time>
      </trkpt>
      <trkpt lat="44.40268" lon="6.41178">
        <ele>1972</ele>
        <time>2020-07-07T10:42:18.000Z</time>
      </trkpt>
      <trkpt lat="44.40268" lon="6.41177">
        <ele>1972</ele>
        <time>2020-07-07T10:42:19.000Z</time>
      </trkpt>
      <trkpt lat="44.40268" lon="6.41177">
        <ele>1972</ele>
        <time>2020-07-07T10:42:20.000Z</time>
      </trkpt>
      <trkpt lat="44.40267" lon="6.41176">
        <ele>1972</ele>
        <time>2020-07-07T10:42:21.000Z</time>
      </trkpt>
      <trkpt lat="44.40267" lon="6.41175">
        <ele>1972</ele>
        <time>2020-07-07T10:42:22.000Z</time>
      </trkpt>
      <trkpt lat="44.40267" lon="6.41174">
        <ele>1971</ele>
        <time>2020-07-07T10:42:23.000Z</time>
      </trkpt>
      <trkpt lat="44.40266" lon="6.41174">
        <ele>1971</ele>
        <time>2020-07-07T10:42:24.000Z</time>
      </trkpt>
      <trkpt lat="44.40266" lon="6.41174">
        <ele>1971</ele>
        <time>2020-07-07T10:42:25.000Z</time>
      </trkpt>
      <trkpt lat="44.40266" lon="6.41174">
        <ele>1971</ele>
        <time>2020-07-07T10:42:26.000Z</time>
      </trkpt>
      <trkpt lat="44.40266" lon="6.41174">
        <ele>1971</ele>
        <time>2020-07-07T10:42:27.000Z</time>
      </trkpt>
      <trkpt lat="44.40266" lon="6.41173">
        <ele>1971</ele>
        <time>2020-07-07T10:42:28.000Z</time>
      </trkpt>
      <trkpt lat="44.40266" lon="6.41172">
        <ele>1971</ele>
        <time>2020-07-07T10:42:29.000Z</time>
      </trkpt>
      <trkpt lat="44.40266" lon="6.41172">
        <ele>1971</ele>
        <time>2020-07-07T10:42:30.000Z</time>
      </trkpt>
      <trkpt lat="44.40266" lon="6.41172">
        <ele>1971</ele>
        <time>2020-07-07T10:42:31.000Z</time>
      </trkpt>
      <trkpt lat="44.40266" lon="6.41172">
        <ele>1971</ele>
        <time>2020-07-07T10:42:32.000Z</time>
      </trkpt>
      <trkpt lat="44.40266" lon="6.41172">
        <ele>1971</ele>
        <time>2020-07-07T10:42:33.000Z</time>
      </trkpt>
      <trkpt lat="44.40266" lon="6.41172">
        <ele>1971</ele>
        <time>2020-07-07T10:42:34.000Z</time>
      </trkpt>
      <trkpt lat="44.40266" lon="6.41172">
        <ele>1971</ele>
        <time>2020-07-07T10:42:35.000Z</time>
      </trkpt>
      <trkpt lat="44.40266" lon="6.41172">
        <ele>1971</ele>
        <time>2020-07-07T10:42:36.000Z</time>
      </trkpt>
      <trkpt lat="44.40266" lon="6.41172">
        <ele>1971</ele>
        <time>2020-07-07T10:42:37.000Z</time>
      </trkpt>
      <trkpt lat="44.40266" lon="6.41172">
        <ele>1971</ele>
        <time>2020-07-07T10:42:38.000Z</time>
      </trkpt>
      <trkpt lat="44.40266" lon="6.41171">
        <ele>1971</ele>
        <time>2020-07-07T10:42:39.000Z</time>
      </trkpt>
      <trkpt lat="44.40266" lon="6.41171">
        <ele>1971</ele>
        <time>2020-07-07T10:42:40.000Z</time>
      </trkpt>
      <trkpt lat="44.40266" lon="6.4117">
        <ele>1971</ele>
        <time>2020-07-07T10:42:41.000Z</time>
      </trkpt>
      <trkpt lat="44.40266" lon="6.41169">
        <ele>1971</ele>
        <time>2020-07-07T10:42:42.000Z</time>
      </trkpt>
      <trkpt lat="44.40266" lon="6.41169">
        <ele>1972</ele>
        <time>2020-07-07T10:42:43.000Z</time>
      </trkpt>
      <trkpt lat="44.40266" lon="6.41168">
        <ele>1972</ele>
        <time>2020-07-07T10:42:44.000Z</time>
      </trkpt>
      <trkpt lat="44.40266" lon="6.41168">
        <ele>1972</ele>
        <time>2020-07-07T10:42:45.000Z</time>
      </trkpt>
      <trkpt lat="44.40266" lon="6.41167">
        <ele>1972</ele>
        <time>2020-07-07T10:42:46.000Z</time>
      </trkpt>
      <trkpt lat="44.40266" lon="6.41166">
        <ele>1972</ele>
        <time>2020-07-07T10:42:47.000Z</time>
      </trkpt>
      <trkpt lat="44.40266" lon="6.41166">
        <ele>1972</ele>
        <time>2020-07-07T10:42:48.000Z</time>
      </trkpt>
      <trkpt lat="44.40266" lon="6.41165">
        <ele>1972</ele>
        <time>2020-07-07T10:42:49.000Z</time>
      </trkpt>
      <trkpt lat="44.40266" lon="6.41164">
        <ele>1972</ele>
        <time>2020-07-07T10:42:50.000Z</time>
      </trkpt>
      <trkpt lat="44.40266" lon="6.41164">
        <ele>1972</ele>
        <time>2020-07-07T10:42:51.000Z</time>
      </trkpt>
      <trkpt lat="44.40266" lon="6.41163">
        <ele>1972</ele>
        <time>2020-07-07T10:42:52.000Z</time>
      </trkpt>
      <trkpt lat="44.40266" lon="6.41163">
        <ele>1972</ele>
        <time>2020-07-07T10:42:53.000Z</time>
      </trkpt>
      <trkpt lat="44.40266" lon="6.41163">
        <ele>1973</ele>
        <time>2020-07-07T10:42:54.000Z</time>
      </trkpt>
      <trkpt lat="44.40265" lon="6.41162">
        <ele>1973</ele>
        <time>2020-07-07T10:42:55.000Z</time>
      </trkpt>
      <trkpt lat="44.40265" lon="6.41162">
        <ele>1973</ele>
        <time>2020-07-07T10:42:56.000Z</time>
      </trkpt>
      <trkpt lat="44.40265" lon="6.41162">
        <ele>1973</ele>
        <time>2020-07-07T10:42:57.000Z</time>
      </trkpt>
      <trkpt lat="44.40265" lon="6.41162">
        <ele>1973</ele>
        <time>2020-07-07T10:42:58.000Z</time>
      </trkpt>
      <trkpt lat="44.40265" lon="6.41162">
        <ele>1973</ele>
        <time>2020-07-07T10:42:59.000Z</time>
      </trkpt>
      <trkpt lat="44.40265" lon="6.41162">
        <ele>1973</ele>
        <time>2020-07-07T10:43:00.000Z</time>
      </trkpt>
      <trkpt lat="44.40265" lon="6.41163">
        <ele>1973</ele>
        <time>2020-07-07T10:43:01.000Z</time>
      </trkpt>
      <trkpt lat="44.40264" lon="6.41163">
        <ele>1973</ele>
        <time>2020-07-07T10:43:02.000Z</time>
      </trkpt>
      <trkpt lat="44.40263" lon="6.41163">
        <ele>1973</ele>
        <time>2020-07-07T10:43:03.000Z</time>
      </trkpt>
      <trkpt lat="44.40263" lon="6.41163">
        <ele>1973</ele>
        <time>2020-07-07T10:43:04.000Z</time>
      </trkpt>
      <trkpt lat="44.40263" lon="6.41163">
        <ele>1973</ele>
        <time>2020-07-07T10:43:05.000Z</time>
      </trkpt>
      <trkpt lat="44.40263" lon="6.41163">
        <ele>1973</ele>
        <time>2020-07-07T10:43:06.000Z</time>
      </trkpt>
      <trkpt lat="44.40262" lon="6.41163">
        <ele>1973</ele>
        <time>2020-07-07T10:43:07.000Z</time>
      </trkpt>
      <trkpt lat="44.40262" lon="6.41163">
        <ele>1973</ele>
        <time>2020-07-07T10:43:08.000Z</time>
      </trkpt>
      <trkpt lat="44.40262" lon="6.41163">
        <ele>1973</ele>
        <time>2020-07-07T10:43:09.000Z</time>
      </trkpt>
      <trkpt lat="44.40262" lon="6.41163">
        <ele>1973</ele>
        <time>2020-07-07T10:43:10.000Z</time>
      </trkpt>
      <trkpt lat="44.40262" lon="6.41163">
        <ele>1973</ele>
        <time>2020-07-07T10:43:11.000Z</time>
      </trkpt>
      <trkpt lat="44.40262" lon="6.41162">
        <ele>1973</ele>
        <time>2020-07-07T10:43:12.000Z</time>
      </trkpt>
      <trkpt lat="44.40262" lon="6.4116">
        <ele>1973</ele>
        <time>2020-07-07T10:43:13.000Z</time>
      </trkpt>
      <trkpt lat="44.40262" lon="6.4116">
        <ele>1973</ele>
        <time>2020-07-07T10:43:14.000Z</time>
      </trkpt>
      <trkpt lat="44.40262" lon="6.41159">
        <ele>1973</ele>
        <time>2020-07-07T10:43:15.000Z</time>
      </trkpt>
      <trkpt lat="44.40262" lon="6.41159">
        <ele>1973</ele>
        <time>2020-07-07T10:43:16.000Z</time>
      </trkpt>
      <trkpt lat="44.40262" lon="6.41159">
        <ele>1973</ele>
        <time>2020-07-07T10:43:17.000Z</time>
      </trkpt>
      <trkpt lat="44.40262" lon="6.4116">
        <ele>1973</ele>
        <time>2020-07-07T10:43:18.000Z</time>
      </trkpt>
      <trkpt lat="44.40262" lon="6.4116">
        <ele>1973</ele>
        <time>2020-07-07T10:43:19.000Z</time>
      </trkpt>
      <trkpt lat="44.40262" lon="6.4116">
        <ele>1973</ele>
        <time>2020-07-07T10:43:20.000Z</time>
      </trkpt>
      <trkpt lat="44.40262" lon="6.4116">
        <ele>1973</ele>
        <time>2020-07-07T10:43:21.000Z</time>
      </trkpt>
      <trkpt lat="44.40262" lon="6.4116">
        <ele>1973</ele>
        <time>2020-07-07T10:43:22.000Z</time>
      </trkpt>
      <trkpt lat="44.40262" lon="6.4116">
        <ele>1973</ele>
        <time>2020-07-07T10:43:23.000Z</time>
      </trkpt>
      <trkpt lat="44.40262" lon="6.41159">
        <ele>1973</ele>
        <time>2020-07-07T10:43:24.000Z</time>
      </trkpt>
      <trkpt lat="44.40262" lon="6.41159">
        <ele>1973</ele>
        <time>2020-07-07T10:43:25.000Z</time>
      </trkpt>
      <trkpt lat="44.40261" lon="6.41159">
        <ele>1973</ele>
        <time>2020-07-07T10:43:26.000Z</time>
      </trkpt>
      <trkpt lat="44.40261" lon="6.41159">
        <ele>1973</ele>
        <time>2020-07-07T10:43:27.000Z</time>
      </trkpt>
      <trkpt lat="44.4026" lon="6.41158">
        <ele>1973</ele>
        <time>2020-07-07T10:43:28.000Z</time>
      </trkpt>
      <trkpt lat="44.4026" lon="6.41157">
        <ele>1973</ele>
        <time>2020-07-07T10:43:29.000Z</time>
      </trkpt>
      <trkpt lat="44.40259" lon="6.41156">
        <ele>1973</ele>
        <time>2020-07-07T10:43:30.000Z</time>
      </trkpt>
      <trkpt lat="44.40259" lon="6.41155">
        <ele>1973</ele>
        <time>2020-07-07T10:43:31.000Z</time>
      </trkpt>
      <trkpt lat="44.40259" lon="6.41155">
        <ele>1973</ele>
        <time>2020-07-07T10:43:32.000Z</time>
      </trkpt>
      <trkpt lat="44.40259" lon="6.41154">
        <ele>1973</ele>
        <time>2020-07-07T10:43:33.000Z</time>
      </trkpt>
      <trkpt lat="44.40259" lon="6.41153">
        <ele>1973</ele>
        <time>2020-07-07T10:43:34.000Z</time>
      </trkpt>
      <trkpt lat="44.40259" lon="6.41152">
        <ele>1973</ele>
        <time>2020-07-07T10:43:35.000Z</time>
      </trkpt>
      <trkpt lat="44.40259" lon="6.4115">
        <ele>1974</ele>
        <time>2020-07-07T10:43:36.000Z</time>
      </trkpt>
      <trkpt lat="44.40259" lon="6.4115">
        <ele>1974</ele>
        <time>2020-07-07T10:43:37.000Z</time>
      </trkpt>
      <trkpt lat="44.40259" lon="6.4115">
        <ele>1974</ele>
        <time>2020-07-07T10:43:38.000Z</time>
      </trkpt>
      <trkpt lat="44.40259" lon="6.41149">
        <ele>1974</ele>
        <time>2020-07-07T10:43:39.000Z</time>
      </trkpt>
      <trkpt lat="44.40259" lon="6.41148">
        <ele>1974</ele>
        <time>2020-07-07T10:43:40.000Z</time>
      </trkpt>
      <trkpt lat="44.40259" lon="6.41148">
        <ele>1974</ele>
        <time>2020-07-07T10:43:41.000Z</time>
      </trkpt>
      <trkpt lat="44.40258" lon="6.41147">
        <ele>1974</ele>
        <time>2020-07-07T10:43:42.000Z</time>
      </trkpt>
      <trkpt lat="44.40258" lon="6.41146">
        <ele>1974</ele>
        <time>2020-07-07T10:43:43.000Z</time>
      </trkpt>
      <trkpt lat="44.40257" lon="6.41146">
        <ele>1975</ele>
        <time>2020-07-07T10:43:44.000Z</time>
      </trkpt>
      <trkpt lat="44.40257" lon="6.41145">
        <ele>1975</ele>
        <time>2020-07-07T10:43:45.000Z</time>
      </trkpt>
      <trkpt lat="44.40257" lon="6.41144">
        <ele>1975</ele>
        <time>2020-07-07T10:43:46.000Z</time>
      </trkpt>
      <trkpt lat="44.40256" lon="6.41143">
        <ele>1975</ele>
        <time>2020-07-07T10:43:47.000Z</time>
      </trkpt>
      <trkpt lat="44.40256" lon="6.41141">
        <ele>1975</ele>
        <time>2020-07-07T10:43:48.000Z</time>
      </trkpt>
      <trkpt lat="44.40255" lon="6.4114">
        <ele>1976</ele>
        <time>2020-07-07T10:43:49.000Z</time>
      </trkpt>
      <trkpt lat="44.40255" lon="6.41139">
        <ele>1976</ele>
        <time>2020-07-07T10:43:50.000Z</time>
      </trkpt>
      <trkpt lat="44.40255" lon="6.41138">
        <ele>1976</ele>
        <time>2020-07-07T10:43:51.000Z</time>
      </trkpt>
      <trkpt lat="44.40255" lon="6.41138">
        <ele>1976</ele>
        <time>2020-07-07T10:43:52.000Z</time>
      </trkpt>
      <trkpt lat="44.40254" lon="6.41136">
        <ele>1976</ele>
        <time>2020-07-07T10:43:53.000Z</time>
      </trkpt>
      <trkpt lat="44.40254" lon="6.41136">
        <ele>1976</ele>
        <time>2020-07-07T10:43:54.000Z</time>
      </trkpt>
      <trkpt lat="44.40254" lon="6.41135">
        <ele>1976</ele>
        <time>2020-07-07T10:43:55.000Z</time>
      </trkpt>
      <trkpt lat="44.40254" lon="6.41134">
        <ele>1977</ele>
        <time>2020-07-07T10:43:56.000Z</time>
      </trkpt>
      <trkpt lat="44.40254" lon="6.41133">
        <ele>1977</ele>
        <time>2020-07-07T10:43:57.000Z</time>
      </trkpt>
      <trkpt lat="44.40253" lon="6.41132">
        <ele>1977</ele>
        <time>2020-07-07T10:43:58.000Z</time>
      </trkpt>
      <trkpt lat="44.40253" lon="6.41131">
        <ele>1977</ele>
        <time>2020-07-07T10:43:59.000Z</time>
      </trkpt>
      <trkpt lat="44.40253" lon="6.41129">
        <ele>1977</ele>
        <time>2020-07-07T10:44:00.000Z</time>
      </trkpt>
      <trkpt lat="44.40252" lon="6.41128">
        <ele>1977</ele>
        <time>2020-07-07T10:44:01.000Z</time>
      </trkpt>
      <trkpt lat="44.40252" lon="6.41127">
        <ele>1977</ele>
        <time>2020-07-07T10:44:02.000Z</time>
      </trkpt>
      <trkpt lat="44.40252" lon="6.41127">
        <ele>1977</ele>
        <time>2020-07-07T10:44:03.000Z</time>
      </trkpt>
      <trkpt lat="44.40252" lon="6.41126">
        <ele>1977</ele>
        <time>2020-07-07T10:44:04.000Z</time>
      </trkpt>
      <trkpt lat="44.40252" lon="6.41126">
        <ele>1977</ele>
        <time>2020-07-07T10:44:05.000Z</time>
      </trkpt>
      <trkpt lat="44.40251" lon="6.41126">
        <ele>1977</ele>
        <time>2020-07-07T10:44:06.000Z</time>
      </trkpt>
      <trkpt lat="44.40251" lon="6.41126">
        <ele>1977</ele>
        <time>2020-07-07T10:44:07.000Z</time>
      </trkpt>
      <trkpt lat="44.4025" lon="6.41125">
        <ele>1977</ele>
        <time>2020-07-07T10:44:08.000Z</time>
      </trkpt>
      <trkpt lat="44.4025" lon="6.41125">
        <ele>1977</ele>
        <time>2020-07-07T10:44:09.000Z</time>
      </trkpt>
      <trkpt lat="44.40249" lon="6.41124">
        <ele>1977</ele>
        <time>2020-07-07T10:44:10.000Z</time>
      </trkpt>
      <trkpt lat="44.40249" lon="6.41124">
        <ele>1977</ele>
        <time>2020-07-07T10:44:11.000Z</time>
      </trkpt>
      <trkpt lat="44.40249" lon="6.41123">
        <ele>1977</ele>
        <time>2020-07-07T10:44:12.000Z</time>
      </trkpt>
      <trkpt lat="44.40248" lon="6.41122">
        <ele>1976</ele>
        <time>2020-07-07T10:44:13.000Z</time>
      </trkpt>
      <trkpt lat="44.40248" lon="6.41121">
        <ele>1976</ele>
        <time>2020-07-07T10:44:14.000Z</time>
      </trkpt>
      <trkpt lat="44.40248" lon="6.4112">
        <ele>1976</ele>
        <time>2020-07-07T10:44:15.000Z</time>
      </trkpt>
      <trkpt lat="44.40248" lon="6.41119">
        <ele>1976</ele>
        <time>2020-07-07T10:44:16.000Z</time>
      </trkpt>
      <trkpt lat="44.40247" lon="6.41117">
        <ele>1976</ele>
        <time>2020-07-07T10:44:17.000Z</time>
      </trkpt>
      <trkpt lat="44.40247" lon="6.41117">
        <ele>1976</ele>
        <time>2020-07-07T10:44:18.000Z</time>
      </trkpt>
      <trkpt lat="44.40247" lon="6.41117">
        <ele>1976</ele>
        <time>2020-07-07T10:44:19.000Z</time>
      </trkpt>
      <trkpt lat="44.40247" lon="6.41116">
        <ele>1976</ele>
        <time>2020-07-07T10:44:20.000Z</time>
      </trkpt>
      <trkpt lat="44.40246" lon="6.41116">
        <ele>1976</ele>
        <time>2020-07-07T10:44:21.000Z</time>
      </trkpt>
      <trkpt lat="44.40246" lon="6.41116">
        <ele>1976</ele>
        <time>2020-07-07T10:44:22.000Z</time>
      </trkpt>
      <trkpt lat="44.40246" lon="6.41116">
        <ele>1976</ele>
        <time>2020-07-07T10:44:23.000Z</time>
      </trkpt>
      <trkpt lat="44.40246" lon="6.41116">
        <ele>1976</ele>
        <time>2020-07-07T10:44:24.000Z</time>
      </trkpt>
      <trkpt lat="44.40246" lon="6.41116">
        <ele>1976</ele>
        <time>2020-07-07T10:44:25.000Z</time>
      </trkpt>
      <trkpt lat="44.40246" lon="6.41116">
        <ele>1976</ele>
        <time>2020-07-07T10:44:26.000Z</time>
      </trkpt>
      <trkpt lat="44.40245" lon="6.41116">
        <ele>1976</ele>
        <time>2020-07-07T10:44:27.000Z</time>
      </trkpt>
      <trkpt lat="44.40245" lon="6.41115">
        <ele>1976</ele>
        <time>2020-07-07T10:44:28.000Z</time>
      </trkpt>
      <trkpt lat="44.40244" lon="6.41115">
        <ele>1976</ele>
        <time>2020-07-07T10:44:29.000Z</time>
      </trkpt>
      <trkpt lat="44.40244" lon="6.41115">
        <ele>1976</ele>
        <time>2020-07-07T10:44:30.000Z</time>
      </trkpt>
      <trkpt lat="44.40244" lon="6.41115">
        <ele>1976</ele>
        <time>2020-07-07T10:44:31.000Z</time>
      </trkpt>
      <trkpt lat="44.40243" lon="6.41115">
        <ele>1976</ele>
        <time>2020-07-07T10:44:32.000Z</time>
      </trkpt>
      <trkpt lat="44.40242" lon="6.41115">
        <ele>1976</ele>
        <time>2020-07-07T10:44:33.000Z</time>
      </trkpt>
      <trkpt lat="44.40241" lon="6.41114">
        <ele>1977</ele>
        <time>2020-07-07T10:44:34.000Z</time>
      </trkpt>
      <trkpt lat="44.40241" lon="6.41114">
        <ele>1977</ele>
        <time>2020-07-07T10:44:35.000Z</time>
      </trkpt>
      <trkpt lat="44.40241" lon="6.41114">
        <ele>1977</ele>
        <time>2020-07-07T10:44:36.000Z</time>
      </trkpt>
      <trkpt lat="44.40241" lon="6.41114">
        <ele>1977</ele>
        <time>2020-07-07T10:44:37.000Z</time>
      </trkpt>
      <trkpt lat="44.40241" lon="6.41114">
        <ele>1977</ele>
        <time>2020-07-07T10:44:38.000Z</time>
      </trkpt>
      <trkpt lat="44.40241" lon="6.41115">
        <ele>1977</ele>
        <time>2020-07-07T10:44:39.000Z</time>
      </trkpt>
      <trkpt lat="44.40241" lon="6.41115">
        <ele>1976</ele>
        <time>2020-07-07T10:44:40.000Z</time>
      </trkpt>
      <trkpt lat="44.4024" lon="6.41115">
        <ele>1976</ele>
        <time>2020-07-07T10:44:41.000Z</time>
      </trkpt>
      <trkpt lat="44.4024" lon="6.41115">
        <ele>1976</ele>
        <time>2020-07-07T10:44:42.000Z</time>
      </trkpt>
      <trkpt lat="44.4024" lon="6.41114">
        <ele>1976</ele>
        <time>2020-07-07T10:44:43.000Z</time>
      </trkpt>
      <trkpt lat="44.4024" lon="6.41114">
        <ele>1976</ele>
        <time>2020-07-07T10:44:44.000Z</time>
      </trkpt>
      <trkpt lat="44.4024" lon="6.41113">
        <ele>1976</ele>
        <time>2020-07-07T10:44:45.000Z</time>
      </trkpt>
      <trkpt lat="44.40239" lon="6.41112">
        <ele>1976</ele>
        <time>2020-07-07T10:44:46.000Z</time>
      </trkpt>
      <trkpt lat="44.40239" lon="6.41111">
        <ele>1977</ele>
        <time>2020-07-07T10:44:47.000Z</time>
      </trkpt>
      <trkpt lat="44.40239" lon="6.41111">
        <ele>1977</ele>
        <time>2020-07-07T10:44:48.000Z</time>
      </trkpt>
      <trkpt lat="44.40239" lon="6.4111">
        <ele>1977</ele>
        <time>2020-07-07T10:44:49.000Z</time>
      </trkpt>
      <trkpt lat="44.40239" lon="6.4111">
        <ele>1976</ele>
        <time>2020-07-07T10:44:50.000Z</time>
      </trkpt>
      <trkpt lat="44.40238" lon="6.41109">
        <ele>1976</ele>
        <time>2020-07-07T10:44:51.000Z</time>
      </trkpt>
      <trkpt lat="44.40237" lon="6.41109">
        <ele>1976</ele>
        <time>2020-07-07T10:44:52.000Z</time>
      </trkpt>
      <trkpt lat="44.40236" lon="6.41109">
        <ele>1976</ele>
        <time>2020-07-07T10:44:53.000Z</time>
      </trkpt>
      <trkpt lat="44.40235" lon="6.41108">
        <ele>1976</ele>
        <time>2020-07-07T10:44:54.000Z</time>
      </trkpt>
      <trkpt lat="44.40235" lon="6.41107">
        <ele>1976</ele>
        <time>2020-07-07T10:44:55.000Z</time>
      </trkpt>
      <trkpt lat="44.40234" lon="6.41107">
        <ele>1976</ele>
        <time>2020-07-07T10:44:56.000Z</time>
      </trkpt>
      <trkpt lat="44.40234" lon="6.41105">
        <ele>1975</ele>
        <time>2020-07-07T10:44:57.000Z</time>
      </trkpt>
      <trkpt lat="44.40234" lon="6.41104">
        <ele>1975</ele>
        <time>2020-07-07T10:44:58.000Z</time>
      </trkpt>
      <trkpt lat="44.40234" lon="6.41102">
        <ele>1974</ele>
        <time>2020-07-07T10:44:59.000Z</time>
      </trkpt>
      <trkpt lat="44.40235" lon="6.41101">
        <ele>1974</ele>
        <time>2020-07-07T10:45:00.000Z</time>
      </trkpt>
      <trkpt lat="44.40235" lon="6.411">
        <ele>1973</ele>
        <time>2020-07-07T10:45:01.000Z</time>
      </trkpt>
      <trkpt lat="44.40235" lon="6.41099">
        <ele>1973</ele>
        <time>2020-07-07T10:45:02.000Z</time>
      </trkpt>
      <trkpt lat="44.40235" lon="6.41098">
        <ele>1973</ele>
        <time>2020-07-07T10:45:03.000Z</time>
      </trkpt>
      <trkpt lat="44.40235" lon="6.41097">
        <ele>1972</ele>
        <time>2020-07-07T10:45:04.000Z</time>
      </trkpt>
      <trkpt lat="44.40235" lon="6.41096">
        <ele>1972</ele>
        <time>2020-07-07T10:45:05.000Z</time>
      </trkpt>
      <trkpt lat="44.40235" lon="6.41096">
        <ele>1972</ele>
        <time>2020-07-07T10:45:06.000Z</time>
      </trkpt>
      <trkpt lat="44.40234" lon="6.41096">
        <ele>1971</ele>
        <time>2020-07-07T10:45:07.000Z</time>
      </trkpt>
      <trkpt lat="44.40234" lon="6.41096">
        <ele>1971</ele>
        <time>2020-07-07T10:45:08.000Z</time>
      </trkpt>
      <trkpt lat="44.40234" lon="6.41096">
        <ele>1971</ele>
        <time>2020-07-07T10:45:09.000Z</time>
      </trkpt>
      <trkpt lat="44.40234" lon="6.41095">
        <ele>1971</ele>
        <time>2020-07-07T10:45:10.000Z</time>
      </trkpt>
      <trkpt lat="44.40235" lon="6.41094">
        <ele>1970</ele>
        <time>2020-07-07T10:45:11.000Z</time>
      </trkpt>
      <trkpt lat="44.40235" lon="6.41094">
        <ele>1970</ele>
        <time>2020-07-07T10:45:12.000Z</time>
      </trkpt>
      <trkpt lat="44.40235" lon="6.41093">
        <ele>1970</ele>
        <time>2020-07-07T10:45:13.000Z</time>
      </trkpt>
      <trkpt lat="44.40235" lon="6.41092">
        <ele>1970</ele>
        <time>2020-07-07T10:45:14.000Z</time>
      </trkpt>
      <trkpt lat="44.40235" lon="6.41092">
        <ele>1970</ele>
        <time>2020-07-07T10:45:15.000Z</time>
      </trkpt>
      <trkpt lat="44.40235" lon="6.41091">
        <ele>1970</ele>
        <time>2020-07-07T10:45:16.000Z</time>
      </trkpt>
      <trkpt lat="44.40235" lon="6.4109">
        <ele>1970</ele>
        <time>2020-07-07T10:45:17.000Z</time>
      </trkpt>
      <trkpt lat="44.40235" lon="6.41088">
        <ele>1969</ele>
        <time>2020-07-07T10:45:18.000Z</time>
      </trkpt>
      <trkpt lat="44.40235" lon="6.41087">
        <ele>1969</ele>
        <time>2020-07-07T10:45:19.000Z</time>
      </trkpt>
      <trkpt lat="44.40236" lon="6.41086">
        <ele>1969</ele>
        <time>2020-07-07T10:45:20.000Z</time>
      </trkpt>
      <trkpt lat="44.40236" lon="6.41086">
        <ele>1969</ele>
        <time>2020-07-07T10:45:21.000Z</time>
      </trkpt>
      <trkpt lat="44.40236" lon="6.41085">
        <ele>1969</ele>
        <time>2020-07-07T10:45:22.000Z</time>
      </trkpt>
      <trkpt lat="44.40236" lon="6.41085">
        <ele>1969</ele>
        <time>2020-07-07T10:45:23.000Z</time>
      </trkpt>
      <trkpt lat="44.40236" lon="6.41084">
        <ele>1969</ele>
        <time>2020-07-07T10:45:24.000Z</time>
      </trkpt>
      <trkpt lat="44.40236" lon="6.41084">
        <ele>1969</ele>
        <time>2020-07-07T10:45:25.000Z</time>
      </trkpt>
      <trkpt lat="44.40236" lon="6.41083">
        <ele>1968</ele>
        <time>2020-07-07T10:45:26.000Z</time>
      </trkpt>
      <trkpt lat="44.40236" lon="6.41083">
        <ele>1968</ele>
        <time>2020-07-07T10:45:27.000Z</time>
      </trkpt>
      <trkpt lat="44.40236" lon="6.41082">
        <ele>1968</ele>
        <time>2020-07-07T10:45:28.000Z</time>
      </trkpt>
      <trkpt lat="44.40236" lon="6.41081">
        <ele>1968</ele>
        <time>2020-07-07T10:45:29.000Z</time>
      </trkpt>
      <trkpt lat="44.40236" lon="6.41081">
        <ele>1968</ele>
        <time>2020-07-07T10:45:30.000Z</time>
      </trkpt>
      <trkpt lat="44.40236" lon="6.4108">
        <ele>1968</ele>
        <time>2020-07-07T10:45:31.000Z</time>
      </trkpt>
      <trkpt lat="44.40235" lon="6.4108">
        <ele>1968</ele>
        <time>2020-07-07T10:45:32.000Z</time>
      </trkpt>
      <trkpt lat="44.40235" lon="6.41079">
        <ele>1968</ele>
        <time>2020-07-07T10:45:33.000Z</time>
      </trkpt>
      <trkpt lat="44.40235" lon="6.41078">
        <ele>1967</ele>
        <time>2020-07-07T10:45:34.000Z</time>
      </trkpt>
      <trkpt lat="44.40235" lon="6.41076">
        <ele>1967</ele>
        <time>2020-07-07T10:45:35.000Z</time>
      </trkpt>
      <trkpt lat="44.40235" lon="6.41075">
        <ele>1967</ele>
        <time>2020-07-07T10:45:36.000Z</time>
      </trkpt>
      <trkpt lat="44.40236" lon="6.41074">
        <ele>1967</ele>
        <time>2020-07-07T10:45:37.000Z</time>
      </trkpt>
      <trkpt lat="44.40236" lon="6.41072">
        <ele>1967</ele>
        <time>2020-07-07T10:45:38.000Z</time>
      </trkpt>
      <trkpt lat="44.40237" lon="6.41071">
        <ele>1967</ele>
        <time>2020-07-07T10:45:39.000Z</time>
      </trkpt>
      <trkpt lat="44.40238" lon="6.4107">
        <ele>1967</ele>
        <time>2020-07-07T10:45:40.000Z</time>
      </trkpt>
      <trkpt lat="44.40238" lon="6.41069">
        <ele>1967</ele>
        <time>2020-07-07T10:45:41.000Z</time>
      </trkpt>
      <trkpt lat="44.40237" lon="6.41068">
        <ele>1967</ele>
        <time>2020-07-07T10:45:42.000Z</time>
      </trkpt>
      <trkpt lat="44.40237" lon="6.41068">
        <ele>1967</ele>
        <time>2020-07-07T10:45:43.000Z</time>
      </trkpt>
      <trkpt lat="44.40238" lon="6.41068">
        <ele>1967</ele>
        <time>2020-07-07T10:45:44.000Z</time>
      </trkpt>
      <trkpt lat="44.40238" lon="6.41068">
        <ele>1967</ele>
        <time>2020-07-07T10:45:45.000Z</time>
      </trkpt>
      <trkpt lat="44.40238" lon="6.41069">
        <ele>1967</ele>
        <time>2020-07-07T10:45:46.000Z</time>
      </trkpt>
      <trkpt lat="44.40238" lon="6.41069">
        <ele>1967</ele>
        <time>2020-07-07T10:45:47.000Z</time>
      </trkpt>
      <trkpt lat="44.40238" lon="6.41068">
        <ele>1967</ele>
        <time>2020-07-07T10:45:48.000Z</time>
      </trkpt>
      <trkpt lat="44.40238" lon="6.41068">
        <ele>1967</ele>
        <time>2020-07-07T10:45:49.000Z</time>
      </trkpt>
      <trkpt lat="44.40238" lon="6.41068">
        <ele>1967</ele>
        <time>2020-07-07T10:45:50.000Z</time>
      </trkpt>
      <trkpt lat="44.40238" lon="6.41068">
        <ele>1967</ele>
        <time>2020-07-07T10:45:51.000Z</time>
      </trkpt>
      <trkpt lat="44.40238" lon="6.41067">
        <ele>1967</ele>
        <time>2020-07-07T10:45:52.000Z</time>
      </trkpt>
      <trkpt lat="44.40238" lon="6.41066">
        <ele>1967</ele>
        <time>2020-07-07T10:45:53.000Z</time>
      </trkpt>
      <trkpt lat="44.40238" lon="6.41066">
        <ele>1967</ele>
        <time>2020-07-07T10:45:54.000Z</time>
      </trkpt>
      <trkpt lat="44.40238" lon="6.41066">
        <ele>1967</ele>
        <time>2020-07-07T10:45:55.000Z</time>
      </trkpt>
      <trkpt lat="44.40238" lon="6.41065">
        <ele>1967</ele>
        <time>2020-07-07T10:45:56.000Z</time>
      </trkpt>
      <trkpt lat="44.40237" lon="6.41065">
        <ele>1967</ele>
        <time>2020-07-07T10:45:57.000Z</time>
      </trkpt>
      <trkpt lat="44.40237" lon="6.41065">
        <ele>1967</ele>
        <time>2020-07-07T10:45:58.000Z</time>
      </trkpt>
      <trkpt lat="44.40237" lon="6.41064">
        <ele>1967</ele>
        <time>2020-07-07T10:45:59.000Z</time>
      </trkpt>
      <trkpt lat="44.40236" lon="6.41062">
        <ele>1967</ele>
        <time>2020-07-07T10:46:00.000Z</time>
      </trkpt>
      <trkpt lat="44.40236" lon="6.4106">
        <ele>1967</ele>
        <time>2020-07-07T10:46:01.000Z</time>
      </trkpt>
      <trkpt lat="44.40235" lon="6.41058">
        <ele>1967</ele>
        <time>2020-07-07T10:46:02.000Z</time>
      </trkpt>
      <trkpt lat="44.40234" lon="6.41057">
        <ele>1967</ele>
        <time>2020-07-07T10:46:03.000Z</time>
      </trkpt>
      <trkpt lat="44.40234" lon="6.41056">
        <ele>1967</ele>
        <time>2020-07-07T10:46:04.000Z</time>
      </trkpt>
      <trkpt lat="44.40233" lon="6.41054">
        <ele>1967</ele>
        <time>2020-07-07T10:46:05.000Z</time>
      </trkpt>
      <trkpt lat="44.40233" lon="6.41053">
        <ele>1967</ele>
        <time>2020-07-07T10:46:06.000Z</time>
      </trkpt>
      <trkpt lat="44.40233" lon="6.41051">
        <ele>1967</ele>
        <time>2020-07-07T10:46:07.000Z</time>
      </trkpt>
      <trkpt lat="44.40233" lon="6.4105">
        <ele>1967</ele>
        <time>2020-07-07T10:46:08.000Z</time>
      </trkpt>
      <trkpt lat="44.40233" lon="6.41049">
        <ele>1967</ele>
        <time>2020-07-07T10:46:09.000Z</time>
      </trkpt>
      <trkpt lat="44.40233" lon="6.41048">
        <ele>1967</ele>
        <time>2020-07-07T10:46:10.000Z</time>
      </trkpt>
      <trkpt lat="44.40233" lon="6.41046">
        <ele>1967</ele>
        <time>2020-07-07T10:46:11.000Z</time>
      </trkpt>
      <trkpt lat="44.40232" lon="6.41045">
        <ele>1967</ele>
        <time>2020-07-07T10:46:12.000Z</time>
      </trkpt>
      <trkpt lat="44.40232" lon="6.41044">
        <ele>1967</ele>
        <time>2020-07-07T10:46:13.000Z</time>
      </trkpt>
      <trkpt lat="44.40231" lon="6.41043">
        <ele>1967</ele>
        <time>2020-07-07T10:46:14.000Z</time>
      </trkpt>
      <trkpt lat="44.4023" lon="6.41043">
        <ele>1967</ele>
        <time>2020-07-07T10:46:15.000Z</time>
      </trkpt>
      <trkpt lat="44.40229" lon="6.41042">
        <ele>1967</ele>
        <time>2020-07-07T10:46:16.000Z</time>
      </trkpt>
      <trkpt lat="44.40228" lon="6.41042">
        <ele>1967</ele>
        <time>2020-07-07T10:46:17.000Z</time>
      </trkpt>
      <trkpt lat="44.40228" lon="6.41042">
        <ele>1967</ele>
        <time>2020-07-07T10:46:18.000Z</time>
      </trkpt>
      <trkpt lat="44.40227" lon="6.41041">
        <ele>1967</ele>
        <time>2020-07-07T10:46:19.000Z</time>
      </trkpt>
      <trkpt lat="44.40227" lon="6.41041">
        <ele>1967</ele>
        <time>2020-07-07T10:46:20.000Z</time>
      </trkpt>
      <trkpt lat="44.40226" lon="6.4104">
        <ele>1967</ele>
        <time>2020-07-07T10:46:21.000Z</time>
      </trkpt>
      <trkpt lat="44.40225" lon="6.4104">
        <ele>1967</ele>
        <time>2020-07-07T10:46:22.000Z</time>
      </trkpt>
      <trkpt lat="44.40224" lon="6.4104">
        <ele>1966</ele>
        <time>2020-07-07T10:46:23.000Z</time>
      </trkpt>
      <trkpt lat="44.40223" lon="6.41039">
        <ele>1966</ele>
        <time>2020-07-07T10:46:24.000Z</time>
      </trkpt>
      <trkpt lat="44.40222" lon="6.41038">
        <ele>1966</ele>
        <time>2020-07-07T10:46:25.000Z</time>
      </trkpt>
      <trkpt lat="44.40222" lon="6.41038">
        <ele>1966</ele>
        <time>2020-07-07T10:46:26.000Z</time>
      </trkpt>
      <trkpt lat="44.40221" lon="6.41039">
        <ele>1966</ele>
        <time>2020-07-07T10:46:27.000Z</time>
      </trkpt>
      <trkpt lat="44.4022" lon="6.41039">
        <ele>1966</ele>
        <time>2020-07-07T10:46:28.000Z</time>
      </trkpt>
      <trkpt lat="44.4022" lon="6.41039">
        <ele>1965</ele>
        <time>2020-07-07T10:46:29.000Z</time>
      </trkpt>
      <trkpt lat="44.4022" lon="6.41039">
        <ele>1965</ele>
        <time>2020-07-07T10:46:30.000Z</time>
      </trkpt>
      <trkpt lat="44.40219" lon="6.41039">
        <ele>1965</ele>
        <time>2020-07-07T10:46:31.000Z</time>
      </trkpt>
      <trkpt lat="44.40218" lon="6.41039">
        <ele>1965</ele>
        <time>2020-07-07T10:46:32.000Z</time>
      </trkpt>
      <trkpt lat="44.40218" lon="6.41039">
        <ele>1965</ele>
        <time>2020-07-07T10:46:33.000Z</time>
      </trkpt>
      <trkpt lat="44.40217" lon="6.41039">
        <ele>1964</ele>
        <time>2020-07-07T10:46:34.000Z</time>
      </trkpt>
      <trkpt lat="44.40216" lon="6.41039">
        <ele>1964</ele>
        <time>2020-07-07T10:46:35.000Z</time>
      </trkpt>
      <trkpt lat="44.40216" lon="6.41039">
        <ele>1964</ele>
        <time>2020-07-07T10:46:36.000Z</time>
      </trkpt>
      <trkpt lat="44.40215" lon="6.4104">
        <ele>1964</ele>
        <time>2020-07-07T10:46:37.000Z</time>
      </trkpt>
      <trkpt lat="44.40214" lon="6.4104">
        <ele>1964</ele>
        <time>2020-07-07T10:46:38.000Z</time>
      </trkpt>
      <trkpt lat="44.40213" lon="6.4104">
        <ele>1964</ele>
        <time>2020-07-07T10:46:39.000Z</time>
      </trkpt>
      <trkpt lat="44.40212" lon="6.4104">
        <ele>1964</ele>
        <time>2020-07-07T10:46:40.000Z</time>
      </trkpt>
      <trkpt lat="44.40211" lon="6.4104">
        <ele>1963</ele>
        <time>2020-07-07T10:46:41.000Z</time>
      </trkpt>
      <trkpt lat="44.40211" lon="6.41038">
        <ele>1963</ele>
        <time>2020-07-07T10:46:42.000Z</time>
      </trkpt>
      <trkpt lat="44.40211" lon="6.41038">
        <ele>1963</ele>
        <time>2020-07-07T10:46:43.000Z</time>
      </trkpt>
      <trkpt lat="44.4021" lon="6.41037">
        <ele>1963</ele>
        <time>2020-07-07T10:46:44.000Z</time>
      </trkpt>
      <trkpt lat="44.4021" lon="6.41037">
        <ele>1963</ele>
        <time>2020-07-07T10:46:45.000Z</time>
      </trkpt>
      <trkpt lat="44.4021" lon="6.41036">
        <ele>1963</ele>
        <time>2020-07-07T10:46:46.000Z</time>
      </trkpt>
      <trkpt lat="44.4021" lon="6.41036">
        <ele>1963</ele>
        <time>2020-07-07T10:46:47.000Z</time>
      </trkpt>
      <trkpt lat="44.4021" lon="6.41035">
        <ele>1963</ele>
        <time>2020-07-07T10:46:48.000Z</time>
      </trkpt>
      <trkpt lat="44.4021" lon="6.41034">
        <ele>1963</ele>
        <time>2020-07-07T10:46:49.000Z</time>
      </trkpt>
      <trkpt lat="44.40209" lon="6.41033">
        <ele>1963</ele>
        <time>2020-07-07T10:46:50.000Z</time>
      </trkpt>
      <trkpt lat="44.40208" lon="6.41033">
        <ele>1963</ele>
        <time>2020-07-07T10:46:51.000Z</time>
      </trkpt>
      <trkpt lat="44.40207" lon="6.41033">
        <ele>1963</ele>
        <time>2020-07-07T10:46:52.000Z</time>
      </trkpt>
      <trkpt lat="44.40206" lon="6.41033">
        <ele>1963</ele>
        <time>2020-07-07T10:46:53.000Z</time>
      </trkpt>
      <trkpt lat="44.40206" lon="6.41033">
        <ele>1962</ele>
        <time>2020-07-07T10:46:54.000Z</time>
      </trkpt>
      <trkpt lat="44.40206" lon="6.41032">
        <ele>1962</ele>
        <time>2020-07-07T10:46:55.000Z</time>
      </trkpt>
      <trkpt lat="44.40205" lon="6.41032">
        <ele>1962</ele>
        <time>2020-07-07T10:46:56.000Z</time>
      </trkpt>
      <trkpt lat="44.40205" lon="6.41032">
        <ele>1962</ele>
        <time>2020-07-07T10:46:57.000Z</time>
      </trkpt>
      <trkpt lat="44.40205" lon="6.41032">
        <ele>1962</ele>
        <time>2020-07-07T10:46:58.000Z</time>
      </trkpt>
      <trkpt lat="44.40205" lon="6.41032">
        <ele>1962</ele>
        <time>2020-07-07T10:46:59.000Z</time>
      </trkpt>
      <trkpt lat="44.40205" lon="6.41032">
        <ele>1962</ele>
        <time>2020-07-07T10:47:00.000Z</time>
      </trkpt>
      <trkpt lat="44.40205" lon="6.41033">
        <ele>1962</ele>
        <time>2020-07-07T10:47:01.000Z</time>
      </trkpt>
      <trkpt lat="44.40204" lon="6.41033">
        <ele>1962</ele>
        <time>2020-07-07T10:47:02.000Z</time>
      </trkpt>
      <trkpt lat="44.40204" lon="6.41033">
        <ele>1962</ele>
        <time>2020-07-07T10:47:03.000Z</time>
      </trkpt>
      <trkpt lat="44.40204" lon="6.41033">
        <ele>1962</ele>
        <time>2020-07-07T10:47:04.000Z</time>
      </trkpt>
      <trkpt lat="44.40204" lon="6.41033">
        <ele>1962</ele>
        <time>2020-07-07T10:47:05.000Z</time>
      </trkpt>
      <trkpt lat="44.40204" lon="6.41033">
        <ele>1962</ele>
        <time>2020-07-07T10:47:06.000Z</time>
      </trkpt>
      <trkpt lat="44.40203" lon="6.41033">
        <ele>1962</ele>
        <time>2020-07-07T10:47:07.000Z</time>
      </trkpt>
      <trkpt lat="44.40202" lon="6.41032">
        <ele>1962</ele>
        <time>2020-07-07T10:47:08.000Z</time>
      </trkpt>
      <trkpt lat="44.40201" lon="6.41031">
        <ele>1962</ele>
        <time>2020-07-07T10:47:09.000Z</time>
      </trkpt>
      <trkpt lat="44.40201" lon="6.41031">
        <ele>1962</ele>
        <time>2020-07-07T10:47:10.000Z</time>
      </trkpt>
      <trkpt lat="44.402" lon="6.4103">
        <ele>1962</ele>
        <time>2020-07-07T10:47:11.000Z</time>
      </trkpt>
      <trkpt lat="44.40199" lon="6.4103">
        <ele>1962</ele>
        <time>2020-07-07T10:47:12.000Z</time>
      </trkpt>
      <trkpt lat="44.40198" lon="6.4103">
        <ele>1962</ele>
        <time>2020-07-07T10:47:13.000Z</time>
      </trkpt>
      <trkpt lat="44.40197" lon="6.4103">
        <ele>1962</ele>
        <time>2020-07-07T10:47:14.000Z</time>
      </trkpt>
      <trkpt lat="44.40196" lon="6.4103">
        <ele>1962</ele>
        <time>2020-07-07T10:47:15.000Z</time>
      </trkpt>
      <trkpt lat="44.40196" lon="6.41029">
        <ele>1962</ele>
        <time>2020-07-07T10:47:16.000Z</time>
      </trkpt>
      <trkpt lat="44.40195" lon="6.41029">
        <ele>1962</ele>
        <time>2020-07-07T10:47:17.000Z</time>
      </trkpt>
      <trkpt lat="44.40194" lon="6.41029">
        <ele>1962</ele>
        <time>2020-07-07T10:47:18.000Z</time>
      </trkpt>
      <trkpt lat="44.40194" lon="6.41029">
        <ele>1962</ele>
        <time>2020-07-07T10:47:19.000Z</time>
      </trkpt>
      <trkpt lat="44.40193" lon="6.41029">
        <ele>1962</ele>
        <time>2020-07-07T10:47:20.000Z</time>
      </trkpt>
      <trkpt lat="44.40193" lon="6.41029">
        <ele>1962</ele>
        <time>2020-07-07T10:47:21.000Z</time>
      </trkpt>
      <trkpt lat="44.40193" lon="6.41029">
        <ele>1962</ele>
        <time>2020-07-07T10:47:22.000Z</time>
      </trkpt>
      <trkpt lat="44.40193" lon="6.41029">
        <ele>1962</ele>
        <time>2020-07-07T10:47:23.000Z</time>
      </trkpt>
      <trkpt lat="44.40193" lon="6.4103">
        <ele>1962</ele>
        <time>2020-07-07T10:47:24.000Z</time>
      </trkpt>
      <trkpt lat="44.40193" lon="6.4103">
        <ele>1962</ele>
        <time>2020-07-07T10:47:25.000Z</time>
      </trkpt>
      <trkpt lat="44.40193" lon="6.4103">
        <ele>1962</ele>
        <time>2020-07-07T10:47:26.000Z</time>
      </trkpt>
      <trkpt lat="44.40193" lon="6.41029">
        <ele>1962</ele>
        <time>2020-07-07T10:47:27.000Z</time>
      </trkpt>
      <trkpt lat="44.40192" lon="6.41028">
        <ele>1962</ele>
        <time>2020-07-07T10:47:28.000Z</time>
      </trkpt>
      <trkpt lat="44.40192" lon="6.41028">
        <ele>1962</ele>
        <time>2020-07-07T10:47:29.000Z</time>
      </trkpt>
      <trkpt lat="44.4019" lon="6.41027">
        <ele>1962</ele>
        <time>2020-07-07T10:47:30.000Z</time>
      </trkpt>
      <trkpt lat="44.4019" lon="6.41027">
        <ele>1962</ele>
        <time>2020-07-07T10:47:31.000Z</time>
      </trkpt>
      <trkpt lat="44.40189" lon="6.41026">
        <ele>1962</ele>
        <time>2020-07-07T10:47:32.000Z</time>
      </trkpt>
      <trkpt lat="44.40188" lon="6.41026">
        <ele>1962</ele>
        <time>2020-07-07T10:47:33.000Z</time>
      </trkpt>
      <trkpt lat="44.40187" lon="6.41026">
        <ele>1962</ele>
        <time>2020-07-07T10:47:34.000Z</time>
      </trkpt>
      <trkpt lat="44.40186" lon="6.41025">
        <ele>1962</ele>
        <time>2020-07-07T10:47:35.000Z</time>
      </trkpt>
      <trkpt lat="44.40185" lon="6.41025">
        <ele>1962</ele>
        <time>2020-07-07T10:47:36.000Z</time>
      </trkpt>
      <trkpt lat="44.40184" lon="6.41024">
        <ele>1962</ele>
        <time>2020-07-07T10:47:37.000Z</time>
      </trkpt>
      <trkpt lat="44.40183" lon="6.41023">
        <ele>1962</ele>
        <time>2020-07-07T10:47:38.000Z</time>
      </trkpt>
      <trkpt lat="44.40182" lon="6.41022">
        <ele>1962</ele>
        <time>2020-07-07T10:47:39.000Z</time>
      </trkpt>
      <trkpt lat="44.40181" lon="6.4102">
        <ele>1962</ele>
        <time>2020-07-07T10:47:40.000Z</time>
      </trkpt>
      <trkpt lat="44.4018" lon="6.41019">
        <ele>1963</ele>
        <time>2020-07-07T10:47:41.000Z</time>
      </trkpt>
      <trkpt lat="44.4018" lon="6.41018">
        <ele>1963</ele>
        <time>2020-07-07T10:47:42.000Z</time>
      </trkpt>
      <trkpt lat="44.4018" lon="6.41016">
        <ele>1963</ele>
        <time>2020-07-07T10:47:43.000Z</time>
      </trkpt>
      <trkpt lat="44.4018" lon="6.41015">
        <ele>1963</ele>
        <time>2020-07-07T10:47:44.000Z</time>
      </trkpt>
      <trkpt lat="44.4018" lon="6.41014">
        <ele>1963</ele>
        <time>2020-07-07T10:47:45.000Z</time>
      </trkpt>
      <trkpt lat="44.40179" lon="6.41013">
        <ele>1963</ele>
        <time>2020-07-07T10:47:46.000Z</time>
      </trkpt>
      <trkpt lat="44.40178" lon="6.41011">
        <ele>1963</ele>
        <time>2020-07-07T10:47:47.000Z</time>
      </trkpt>
      <trkpt lat="44.40178" lon="6.4101">
        <ele>1963</ele>
        <time>2020-07-07T10:47:48.000Z</time>
      </trkpt>
      <trkpt lat="44.40178" lon="6.4101">
        <ele>1963</ele>
        <time>2020-07-07T10:47:49.000Z</time>
      </trkpt>
      <trkpt lat="44.40178" lon="6.41009">
        <ele>1963</ele>
        <time>2020-07-07T10:47:50.000Z</time>
      </trkpt>
      <trkpt lat="44.40177" lon="6.41009">
        <ele>1964</ele>
        <time>2020-07-07T10:47:51.000Z</time>
      </trkpt>
      <trkpt lat="44.40177" lon="6.41008">
        <ele>1964</ele>
        <time>2020-07-07T10:47:52.000Z</time>
      </trkpt>
      <trkpt lat="44.40177" lon="6.41007">
        <ele>1964</ele>
        <time>2020-07-07T10:47:53.000Z</time>
      </trkpt>
      <trkpt lat="44.40176" lon="6.41005">
        <ele>1964</ele>
        <time>2020-07-07T10:47:54.000Z</time>
      </trkpt>
      <trkpt lat="44.40176" lon="6.41004">
        <ele>1964</ele>
        <time>2020-07-07T10:47:55.000Z</time>
      </trkpt>
      <trkpt lat="44.40176" lon="6.41003">
        <ele>1965</ele>
        <time>2020-07-07T10:47:56.000Z</time>
      </trkpt>
      <trkpt lat="44.40177" lon="6.41002">
        <ele>1965</ele>
        <time>2020-07-07T10:47:57.000Z</time>
      </trkpt>
      <trkpt lat="44.40176" lon="6.41">
        <ele>1965</ele>
        <time>2020-07-07T10:47:58.000Z</time>
      </trkpt>
      <trkpt lat="44.40176" lon="6.40999">
        <ele>1965</ele>
        <time>2020-07-07T10:47:59.000Z</time>
      </trkpt>
      <trkpt lat="44.40176" lon="6.40999">
        <ele>1965</ele>
        <time>2020-07-07T10:48:00.000Z</time>
      </trkpt>
      <trkpt lat="44.40176" lon="6.40999">
        <ele>1965</ele>
        <time>2020-07-07T10:48:01.000Z</time>
      </trkpt>
      <trkpt lat="44.40175" lon="6.40998">
        <ele>1965</ele>
        <time>2020-07-07T10:48:02.000Z</time>
      </trkpt>
      <trkpt lat="44.40175" lon="6.40996">
        <ele>1965</ele>
        <time>2020-07-07T10:48:03.000Z</time>
      </trkpt>
      <trkpt lat="44.40175" lon="6.40995">
        <ele>1965</ele>
        <time>2020-07-07T10:48:04.000Z</time>
      </trkpt>
      <trkpt lat="44.40174" lon="6.40994">
        <ele>1966</ele>
        <time>2020-07-07T10:48:05.000Z</time>
      </trkpt>
      <trkpt lat="44.40174" lon="6.40993">
        <ele>1966</ele>
        <time>2020-07-07T10:48:06.000Z</time>
      </trkpt>
      <trkpt lat="44.40173" lon="6.40992">
        <ele>1966</ele>
        <time>2020-07-07T10:48:07.000Z</time>
      </trkpt>
      <trkpt lat="44.40173" lon="6.40991">
        <ele>1966</ele>
        <time>2020-07-07T10:48:08.000Z</time>
      </trkpt>
      <trkpt lat="44.40173" lon="6.4099">
        <ele>1966</ele>
        <time>2020-07-07T10:48:09.000Z</time>
      </trkpt>
      <trkpt lat="44.40173" lon="6.4099">
        <ele>1966</ele>
        <time>2020-07-07T10:48:10.000Z</time>
      </trkpt>
      <trkpt lat="44.40172" lon="6.4099">
        <ele>1966</ele>
        <time>2020-07-07T10:48:11.000Z</time>
      </trkpt>
      <trkpt lat="44.40172" lon="6.4099">
        <ele>1966</ele>
        <time>2020-07-07T10:48:12.000Z</time>
      </trkpt>
      <trkpt lat="44.40172" lon="6.40989">
        <ele>1967</ele>
        <time>2020-07-07T10:48:13.000Z</time>
      </trkpt>
      <trkpt lat="44.40171" lon="6.40988">
        <ele>1967</ele>
        <time>2020-07-07T10:48:14.000Z</time>
      </trkpt>
      <trkpt lat="44.40171" lon="6.40988">
        <ele>1967</ele>
        <time>2020-07-07T10:48:15.000Z</time>
      </trkpt>
      <trkpt lat="44.40171" lon="6.40987">
        <ele>1967</ele>
        <time>2020-07-07T10:48:16.000Z</time>
      </trkpt>
      <trkpt lat="44.40171" lon="6.40986">
        <ele>1967</ele>
        <time>2020-07-07T10:48:17.000Z</time>
      </trkpt>
      <trkpt lat="44.4017" lon="6.40986">
        <ele>1967</ele>
        <time>2020-07-07T10:48:18.000Z</time>
      </trkpt>
      <trkpt lat="44.4017" lon="6.40985">
        <ele>1967</ele>
        <time>2020-07-07T10:48:19.000Z</time>
      </trkpt>
      <trkpt lat="44.40169" lon="6.40984">
        <ele>1967</ele>
        <time>2020-07-07T10:48:20.000Z</time>
      </trkpt>
      <trkpt lat="44.40169" lon="6.40982">
        <ele>1967</ele>
        <time>2020-07-07T10:48:21.000Z</time>
      </trkpt>
      <trkpt lat="44.40169" lon="6.40981">
        <ele>1967</ele>
        <time>2020-07-07T10:48:22.000Z</time>
      </trkpt>
      <trkpt lat="44.40169" lon="6.40981">
        <ele>1967</ele>
        <time>2020-07-07T10:48:23.000Z</time>
      </trkpt>
      <trkpt lat="44.40168" lon="6.40979">
        <ele>1967</ele>
        <time>2020-07-07T10:48:24.000Z</time>
      </trkpt>
      <trkpt lat="44.40168" lon="6.40977">
        <ele>1967</ele>
        <time>2020-07-07T10:48:25.000Z</time>
      </trkpt>
      <trkpt lat="44.40168" lon="6.40975">
        <ele>1967</ele>
        <time>2020-07-07T10:48:26.000Z</time>
      </trkpt>
      <trkpt lat="44.40168" lon="6.40974">
        <ele>1967</ele>
        <time>2020-07-07T10:48:27.000Z</time>
      </trkpt>
      <trkpt lat="44.40168" lon="6.40973">
        <ele>1967</ele>
        <time>2020-07-07T10:48:28.000Z</time>
      </trkpt>
      <trkpt lat="44.40168" lon="6.40972">
        <ele>1967</ele>
        <time>2020-07-07T10:48:29.000Z</time>
      </trkpt>
      <trkpt lat="44.40168" lon="6.4097">
        <ele>1967</ele>
        <time>2020-07-07T10:48:30.000Z</time>
      </trkpt>
      <trkpt lat="44.40168" lon="6.40969">
        <ele>1967</ele>
        <time>2020-07-07T10:48:31.000Z</time>
      </trkpt>
      <trkpt lat="44.40168" lon="6.40967">
        <ele>1967</ele>
        <time>2020-07-07T10:48:32.000Z</time>
      </trkpt>
      <trkpt lat="44.40168" lon="6.40966">
        <ele>1967</ele>
        <time>2020-07-07T10:48:33.000Z</time>
      </trkpt>
      <trkpt lat="44.40168" lon="6.40965">
        <ele>1967</ele>
        <time>2020-07-07T10:48:34.000Z</time>
      </trkpt>
      <trkpt lat="44.40167" lon="6.40964">
        <ele>1967</ele>
        <time>2020-07-07T10:48:35.000Z</time>
      </trkpt>
      <trkpt lat="44.40167" lon="6.40963">
        <ele>1967</ele>
        <time>2020-07-07T10:48:36.000Z</time>
      </trkpt>
      <trkpt lat="44.40166" lon="6.40962">
        <ele>1967</ele>
        <time>2020-07-07T10:48:37.000Z</time>
      </trkpt>
      <trkpt lat="44.40166" lon="6.40961">
        <ele>1967</ele>
        <time>2020-07-07T10:48:38.000Z</time>
      </trkpt>
      <trkpt lat="44.40165" lon="6.4096">
        <ele>1967</ele>
        <time>2020-07-07T10:48:39.000Z</time>
      </trkpt>
      <trkpt lat="44.40164" lon="6.4096">
        <ele>1967</ele>
        <time>2020-07-07T10:48:40.000Z</time>
      </trkpt>
      <trkpt lat="44.40163" lon="6.40959">
        <ele>1966</ele>
        <time>2020-07-07T10:48:41.000Z</time>
      </trkpt>
      <trkpt lat="44.40162" lon="6.40959">
        <ele>1966</ele>
        <time>2020-07-07T10:48:42.000Z</time>
      </trkpt>
      <trkpt lat="44.40162" lon="6.40958">
        <ele>1966</ele>
        <time>2020-07-07T10:48:43.000Z</time>
      </trkpt>
      <trkpt lat="44.40162" lon="6.40958">
        <ele>1966</ele>
        <time>2020-07-07T10:48:44.000Z</time>
      </trkpt>
      <trkpt lat="44.40161" lon="6.40958">
        <ele>1966</ele>
        <time>2020-07-07T10:48:45.000Z</time>
      </trkpt>
      <trkpt lat="44.40161" lon="6.40958">
        <ele>1966</ele>
        <time>2020-07-07T10:48:46.000Z</time>
      </trkpt>
      <trkpt lat="44.4016" lon="6.40958">
        <ele>1966</ele>
        <time>2020-07-07T10:48:47.000Z</time>
      </trkpt>
      <trkpt lat="44.40159" lon="6.40958">
        <ele>1966</ele>
        <time>2020-07-07T10:48:48.000Z</time>
      </trkpt>
      <trkpt lat="44.40158" lon="6.40957">
        <ele>1966</ele>
        <time>2020-07-07T10:48:49.000Z</time>
      </trkpt>
      <trkpt lat="44.40158" lon="6.40956">
        <ele>1966</ele>
        <time>2020-07-07T10:48:50.000Z</time>
      </trkpt>
      <trkpt lat="44.40157" lon="6.40955">
        <ele>1966</ele>
        <time>2020-07-07T10:48:51.000Z</time>
      </trkpt>
      <trkpt lat="44.40157" lon="6.40954">
        <ele>1966</ele>
        <time>2020-07-07T10:48:52.000Z</time>
      </trkpt>
      <trkpt lat="44.40156" lon="6.40953">
        <ele>1966</ele>
        <time>2020-07-07T10:48:53.000Z</time>
      </trkpt>
      <trkpt lat="44.40156" lon="6.40953">
        <ele>1966</ele>
        <time>2020-07-07T10:48:54.000Z</time>
      </trkpt>
      <trkpt lat="44.40156" lon="6.40953">
        <ele>1966</ele>
        <time>2020-07-07T10:48:55.000Z</time>
      </trkpt>
      <trkpt lat="44.40156" lon="6.40953">
        <ele>1966</ele>
        <time>2020-07-07T10:48:56.000Z</time>
      </trkpt>
      <trkpt lat="44.40156" lon="6.40954">
        <ele>1966</ele>
        <time>2020-07-07T10:48:57.000Z</time>
      </trkpt>
      <trkpt lat="44.40156" lon="6.40954">
        <ele>1966</ele>
        <time>2020-07-07T10:48:58.000Z</time>
      </trkpt>
      <trkpt lat="44.40156" lon="6.40954">
        <ele>1966</ele>
        <time>2020-07-07T10:48:59.000Z</time>
      </trkpt>
      <trkpt lat="44.40156" lon="6.40954">
        <ele>1966</ele>
        <time>2020-07-07T10:49:00.000Z</time>
      </trkpt>
      <trkpt lat="44.40156" lon="6.40954">
        <ele>1966</ele>
        <time>2020-07-07T10:49:01.000Z</time>
      </trkpt>
      <trkpt lat="44.40156" lon="6.40954">
        <ele>1966</ele>
        <time>2020-07-07T10:49:02.000Z</time>
      </trkpt>
      <trkpt lat="44.40156" lon="6.40954">
        <ele>1966</ele>
        <time>2020-07-07T10:49:03.000Z</time>
      </trkpt>
      <trkpt lat="44.40156" lon="6.40954">
        <ele>1966</ele>
        <time>2020-07-07T10:49:04.000Z</time>
      </trkpt>
      <trkpt lat="44.40156" lon="6.40954">
        <ele>1966</ele>
        <time>2020-07-07T10:49:05.000Z</time>
      </trkpt>
      <trkpt lat="44.40156" lon="6.40954">
        <ele>1966</ele>
        <time>2020-07-07T10:49:06.000Z</time>
      </trkpt>
      <trkpt lat="44.40156" lon="6.40954">
        <ele>1967</ele>
        <time>2020-07-07T10:49:07.000Z</time>
      </trkpt>
      <trkpt lat="44.40156" lon="6.40954">
        <ele>1967</ele>
        <time>2020-07-07T10:49:08.000Z</time>
      </trkpt>
      <trkpt lat="44.40156" lon="6.40954">
        <ele>1967</ele>
        <time>2020-07-07T10:49:09.000Z</time>
      </trkpt>
      <trkpt lat="44.40156" lon="6.40954">
        <ele>1967</ele>
        <time>2020-07-07T10:49:10.000Z</time>
      </trkpt>
      <trkpt lat="44.40156" lon="6.40954">
        <ele>1967</ele>
        <time>2020-07-07T10:49:11.000Z</time>
      </trkpt>
      <trkpt lat="44.40156" lon="6.40954">
        <ele>1967</ele>
        <time>2020-07-07T10:49:12.000Z</time>
      </trkpt>
      <trkpt lat="44.40156" lon="6.40954">
        <ele>1967</ele>
        <time>2020-07-07T10:49:13.000Z</time>
      </trkpt>
      <trkpt lat="44.40156" lon="6.40954">
        <ele>1967</ele>
        <time>2020-07-07T10:49:14.000Z</time>
      </trkpt>
      <trkpt lat="44.40155" lon="6.40954">
        <ele>1967</ele>
        <time>2020-07-07T10:49:15.000Z</time>
      </trkpt>
      <trkpt lat="44.40155" lon="6.40954">
        <ele>1967</ele>
        <time>2020-07-07T10:49:16.000Z</time>
      </trkpt>
      <trkpt lat="44.40155" lon="6.40954">
        <ele>1967</ele>
        <time>2020-07-07T10:49:17.000Z</time>
      </trkpt>
      <trkpt lat="44.40155" lon="6.40954">
        <ele>1967</ele>
        <time>2020-07-07T10:49:18.000Z</time>
      </trkpt>
      <trkpt lat="44.40155" lon="6.40955">
        <ele>1967</ele>
        <time>2020-07-07T10:49:19.000Z</time>
      </trkpt>
      <trkpt lat="44.40155" lon="6.40955">
        <ele>1967</ele>
        <time>2020-07-07T10:49:20.000Z</time>
      </trkpt>
      <trkpt lat="44.40155" lon="6.40955">
        <ele>1967</ele>
        <time>2020-07-07T10:49:21.000Z</time>
      </trkpt>
      <trkpt lat="44.40155" lon="6.40955">
        <ele>1967</ele>
        <time>2020-07-07T10:49:22.000Z</time>
      </trkpt>
      <trkpt lat="44.40155" lon="6.40955">
        <ele>1967</ele>
        <time>2020-07-07T10:49:23.000Z</time>
      </trkpt>
      <trkpt lat="44.40155" lon="6.40955">
        <ele>1967</ele>
        <time>2020-07-07T10:49:24.000Z</time>
      </trkpt>
      <trkpt lat="44.40155" lon="6.40955">
        <ele>1967</ele>
        <time>2020-07-07T10:49:25.000Z</time>
      </trkpt>
      <trkpt lat="44.40155" lon="6.40955">
        <ele>1967</ele>
        <time>2020-07-07T10:49:26.000Z</time>
      </trkpt>
      <trkpt lat="44.40155" lon="6.40955">
        <ele>1967</ele>
        <time>2020-07-07T10:49:27.000Z</time>
      </trkpt>
      <trkpt lat="44.40155" lon="6.40955">
        <ele>1967</ele>
        <time>2020-07-07T10:49:28.000Z</time>
      </trkpt>
      <trkpt lat="44.40155" lon="6.40955">
        <ele>1967</ele>
        <time>2020-07-07T10:49:29.000Z</time>
      </trkpt>
      <trkpt lat="44.40155" lon="6.40955">
        <ele>1967</ele>
        <time>2020-07-07T10:49:30.000Z</time>
      </trkpt>
      <trkpt lat="44.40155" lon="6.40955">
        <ele>1967</ele>
        <time>2020-07-07T10:49:31.000Z</time>
      </trkpt>
      <trkpt lat="44.40155" lon="6.40955">
        <ele>1967</ele>
        <time>2020-07-07T10:49:32.000Z</time>
      </trkpt>
      <trkpt lat="44.40155" lon="6.40955">
        <ele>1967</ele>
        <time>2020-07-07T10:49:33.000Z</time>
      </trkpt>
      <trkpt lat="44.40155" lon="6.40955">
        <ele>1967</ele>
        <time>2020-07-07T10:49:34.000Z</time>
      </trkpt>
      <trkpt lat="44.40154" lon="6.40956">
        <ele>1967</ele>
        <time>2020-07-07T10:49:35.000Z</time>
      </trkpt>
      <trkpt lat="44.40154" lon="6.40955">
        <ele>1967</ele>
        <time>2020-07-07T10:49:36.000Z</time>
      </trkpt>
      <trkpt lat="44.40153" lon="6.40954">
        <ele>1967</ele>
        <time>2020-07-07T10:49:37.000Z</time>
      </trkpt>
      <trkpt lat="44.40152" lon="6.40954">
        <ele>1967</ele>
        <time>2020-07-07T10:49:38.000Z</time>
      </trkpt>
      <trkpt lat="44.40152" lon="6.40952">
        <ele>1967</ele>
        <time>2020-07-07T10:49:39.000Z</time>
      </trkpt>
      <trkpt lat="44.40152" lon="6.40951">
        <ele>1967</ele>
        <time>2020-07-07T10:49:40.000Z</time>
      </trkpt>
      <trkpt lat="44.40151" lon="6.4095">
        <ele>1967</ele>
        <time>2020-07-07T10:49:41.000Z</time>
      </trkpt>
      <trkpt lat="44.40151" lon="6.40948">
        <ele>1967</ele>
        <time>2020-07-07T10:49:42.000Z</time>
      </trkpt>
      <trkpt lat="44.40151" lon="6.40947">
        <ele>1967</ele>
        <time>2020-07-07T10:49:43.000Z</time>
      </trkpt>
      <trkpt lat="44.40151" lon="6.40945">
        <ele>1967</ele>
        <time>2020-07-07T10:49:44.000Z</time>
      </trkpt>
      <trkpt lat="44.40151" lon="6.40944">
        <ele>1967</ele>
        <time>2020-07-07T10:49:45.000Z</time>
      </trkpt>
      <trkpt lat="44.4015" lon="6.40943">
        <ele>1967</ele>
        <time>2020-07-07T10:49:46.000Z</time>
      </trkpt>
      <trkpt lat="44.4015" lon="6.40941">
        <ele>1967</ele>
        <time>2020-07-07T10:49:47.000Z</time>
      </trkpt>
      <trkpt lat="44.4015" lon="6.40939">
        <ele>1967</ele>
        <time>2020-07-07T10:49:48.000Z</time>
      </trkpt>
      <trkpt lat="44.4015" lon="6.40938">
        <ele>1967</ele>
        <time>2020-07-07T10:49:49.000Z</time>
      </trkpt>
      <trkpt lat="44.4015" lon="6.40937">
        <ele>1967</ele>
        <time>2020-07-07T10:49:50.000Z</time>
      </trkpt>
      <trkpt lat="44.4015" lon="6.40936">
        <ele>1967</ele>
        <time>2020-07-07T10:49:51.000Z</time>
      </trkpt>
      <trkpt lat="44.4015" lon="6.40935">
        <ele>1967</ele>
        <time>2020-07-07T10:49:52.000Z</time>
      </trkpt>
      <trkpt lat="44.4015" lon="6.40934">
        <ele>1967</ele>
        <time>2020-07-07T10:49:53.000Z</time>
      </trkpt>
      <trkpt lat="44.4015" lon="6.40933">
        <ele>1967</ele>
        <time>2020-07-07T10:49:54.000Z</time>
      </trkpt>
      <trkpt lat="44.4015" lon="6.40932">
        <ele>1967</ele>
        <time>2020-07-07T10:49:55.000Z</time>
      </trkpt>
      <trkpt lat="44.4015" lon="6.4093">
        <ele>1967</ele>
        <time>2020-07-07T10:49:56.000Z</time>
      </trkpt>
      <trkpt lat="44.4015" lon="6.40929">
        <ele>1967</ele>
        <time>2020-07-07T10:49:57.000Z</time>
      </trkpt>
      <trkpt lat="44.40149" lon="6.40928">
        <ele>1967</ele>
        <time>2020-07-07T10:49:58.000Z</time>
      </trkpt>
      <trkpt lat="44.40149" lon="6.40926">
        <ele>1967</ele>
        <time>2020-07-07T10:49:59.000Z</time>
      </trkpt>
      <trkpt lat="44.40149" lon="6.40925">
        <ele>1967</ele>
        <time>2020-07-07T10:50:00.000Z</time>
      </trkpt>
      <trkpt lat="44.40149" lon="6.40924">
        <ele>1967</ele>
        <time>2020-07-07T10:50:01.000Z</time>
      </trkpt>
      <trkpt lat="44.40149" lon="6.40922">
        <ele>1967</ele>
        <time>2020-07-07T10:50:02.000Z</time>
      </trkpt>
      <trkpt lat="44.40149" lon="6.4092">
        <ele>1968</ele>
        <time>2020-07-07T10:50:03.000Z</time>
      </trkpt>
      <trkpt lat="44.40148" lon="6.40919">
        <ele>1968</ele>
        <time>2020-07-07T10:50:04.000Z</time>
      </trkpt>
      <trkpt lat="44.40148" lon="6.40918">
        <ele>1968</ele>
        <time>2020-07-07T10:50:05.000Z</time>
      </trkpt>
      <trkpt lat="44.40147" lon="6.40917">
        <ele>1968</ele>
        <time>2020-07-07T10:50:06.000Z</time>
      </trkpt>
      <trkpt lat="44.40148" lon="6.40917">
        <ele>1968</ele>
        <time>2020-07-07T10:50:07.000Z</time>
      </trkpt>
      <trkpt lat="44.40147" lon="6.40915">
        <ele>1968</ele>
        <time>2020-07-07T10:50:08.000Z</time>
      </trkpt>
      <trkpt lat="44.40147" lon="6.40914">
        <ele>1968</ele>
        <time>2020-07-07T10:50:09.000Z</time>
      </trkpt>
      <trkpt lat="44.40147" lon="6.40912">
        <ele>1968</ele>
        <time>2020-07-07T10:50:10.000Z</time>
      </trkpt>
      <trkpt lat="44.40147" lon="6.40911">
        <ele>1968</ele>
        <time>2020-07-07T10:50:11.000Z</time>
      </trkpt>
      <trkpt lat="44.40147" lon="6.40909">
        <ele>1968</ele>
        <time>2020-07-07T10:50:12.000Z</time>
      </trkpt>
      <trkpt lat="44.40147" lon="6.40907">
        <ele>1968</ele>
        <time>2020-07-07T10:50:13.000Z</time>
      </trkpt>
      <trkpt lat="44.40146" lon="6.40906">
        <ele>1968</ele>
        <time>2020-07-07T10:50:14.000Z</time>
      </trkpt>
      <trkpt lat="44.40146" lon="6.40904">
        <ele>1968</ele>
        <time>2020-07-07T10:50:15.000Z</time>
      </trkpt>
      <trkpt lat="44.40146" lon="6.40903">
        <ele>1968</ele>
        <time>2020-07-07T10:50:16.000Z</time>
      </trkpt>
      <trkpt lat="44.40146" lon="6.40901">
        <ele>1968</ele>
        <time>2020-07-07T10:50:17.000Z</time>
      </trkpt>
      <trkpt lat="44.40145" lon="6.409">
        <ele>1969</ele>
        <time>2020-07-07T10:50:18.000Z</time>
      </trkpt>
      <trkpt lat="44.40145" lon="6.40899">
        <ele>1969</ele>
        <time>2020-07-07T10:50:19.000Z</time>
      </trkpt>
      <trkpt lat="44.40145" lon="6.40897">
        <ele>1969</ele>
        <time>2020-07-07T10:50:20.000Z</time>
      </trkpt>
      <trkpt lat="44.40144" lon="6.40896">
        <ele>1969</ele>
        <time>2020-07-07T10:50:21.000Z</time>
      </trkpt>
      <trkpt lat="44.40144" lon="6.40895">
        <ele>1969</ele>
        <time>2020-07-07T10:50:22.000Z</time>
      </trkpt>
      <trkpt lat="44.40144" lon="6.40893">
        <ele>1970</ele>
        <time>2020-07-07T10:50:23.000Z</time>
      </trkpt>
      <trkpt lat="44.40143" lon="6.40892">
        <ele>1970</ele>
        <time>2020-07-07T10:50:24.000Z</time>
      </trkpt>
      <trkpt lat="44.40143" lon="6.40891">
        <ele>1970</ele>
        <time>2020-07-07T10:50:25.000Z</time>
      </trkpt>
      <trkpt lat="44.40142" lon="6.4089">
        <ele>1970</ele>
        <time>2020-07-07T10:50:26.000Z</time>
      </trkpt>
      <trkpt lat="44.40142" lon="6.40889">
        <ele>1970</ele>
        <time>2020-07-07T10:50:27.000Z</time>
      </trkpt>
      <trkpt lat="44.40141" lon="6.40888">
        <ele>1970</ele>
        <time>2020-07-07T10:50:28.000Z</time>
      </trkpt>
      <trkpt lat="44.40141" lon="6.40887">
        <ele>1970</ele>
        <time>2020-07-07T10:50:29.000Z</time>
      </trkpt>
      <trkpt lat="44.40141" lon="6.40885">
        <ele>1970</ele>
        <time>2020-07-07T10:50:30.000Z</time>
      </trkpt>
      <trkpt lat="44.4014" lon="6.40884">
        <ele>1970</ele>
        <time>2020-07-07T10:50:31.000Z</time>
      </trkpt>
      <trkpt lat="44.4014" lon="6.40883">
        <ele>1970</ele>
        <time>2020-07-07T10:50:32.000Z</time>
      </trkpt>
      <trkpt lat="44.4014" lon="6.40882">
        <ele>1971</ele>
        <time>2020-07-07T10:50:33.000Z</time>
      </trkpt>
      <trkpt lat="44.40139" lon="6.40881">
        <ele>1971</ele>
        <time>2020-07-07T10:50:34.000Z</time>
      </trkpt>
      <trkpt lat="44.40138" lon="6.40881">
        <ele>1971</ele>
        <time>2020-07-07T10:50:35.000Z</time>
      </trkpt>
      <trkpt lat="44.40137" lon="6.40879">
        <ele>1971</ele>
        <time>2020-07-07T10:50:36.000Z</time>
      </trkpt>
      <trkpt lat="44.40136" lon="6.40878">
        <ele>1971</ele>
        <time>2020-07-07T10:50:37.000Z</time>
      </trkpt>
      <trkpt lat="44.40136" lon="6.40878">
        <ele>1971</ele>
        <time>2020-07-07T10:50:38.000Z</time>
      </trkpt>
      <trkpt lat="44.40136" lon="6.40877">
        <ele>1970</ele>
        <time>2020-07-07T10:50:39.000Z</time>
      </trkpt>
      <trkpt lat="44.40135" lon="6.40876">
        <ele>1970</ele>
        <time>2020-07-07T10:50:40.000Z</time>
      </trkpt>
      <trkpt lat="44.40135" lon="6.40874">
        <ele>1970</ele>
        <time>2020-07-07T10:50:41.000Z</time>
      </trkpt>
      <trkpt lat="44.40135" lon="6.40874">
        <ele>1970</ele>
        <time>2020-07-07T10:50:42.000Z</time>
      </trkpt>
      <trkpt lat="44.40134" lon="6.40873">
        <ele>1970</ele>
        <time>2020-07-07T10:50:43.000Z</time>
      </trkpt>
      <trkpt lat="44.40134" lon="6.40872">
        <ele>1970</ele>
        <time>2020-07-07T10:50:44.000Z</time>
      </trkpt>
      <trkpt lat="44.40133" lon="6.40871">
        <ele>1970</ele>
        <time>2020-07-07T10:50:45.000Z</time>
      </trkpt>
      <trkpt lat="44.40133" lon="6.4087">
        <ele>1970</ele>
        <time>2020-07-07T10:50:46.000Z</time>
      </trkpt>
      <trkpt lat="44.40132" lon="6.4087">
        <ele>1970</ele>
        <time>2020-07-07T10:50:47.000Z</time>
      </trkpt>
      <trkpt lat="44.40132" lon="6.4087">
        <ele>1970</ele>
        <time>2020-07-07T10:50:48.000Z</time>
      </trkpt>
      <trkpt lat="44.40131" lon="6.40869">
        <ele>1970</ele>
        <time>2020-07-07T10:50:49.000Z</time>
      </trkpt>
      <trkpt lat="44.40131" lon="6.40869">
        <ele>1970</ele>
        <time>2020-07-07T10:50:50.000Z</time>
      </trkpt>
      <trkpt lat="44.4013" lon="6.40868">
        <ele>1970</ele>
        <time>2020-07-07T10:50:51.000Z</time>
      </trkpt>
      <trkpt lat="44.4013" lon="6.40868">
        <ele>1970</ele>
        <time>2020-07-07T10:50:52.000Z</time>
      </trkpt>
      <trkpt lat="44.4013" lon="6.40868">
        <ele>1970</ele>
        <time>2020-07-07T10:50:53.000Z</time>
      </trkpt>
      <trkpt lat="44.4013" lon="6.40868">
        <ele>1970</ele>
        <time>2020-07-07T10:50:54.000Z</time>
      </trkpt>
      <trkpt lat="44.4013" lon="6.40868">
        <ele>1970</ele>
        <time>2020-07-07T10:50:55.000Z</time>
      </trkpt>
      <trkpt lat="44.40129" lon="6.40868">
        <ele>1970</ele>
        <time>2020-07-07T10:50:56.000Z</time>
      </trkpt>
      <trkpt lat="44.40129" lon="6.40867">
        <ele>1970</ele>
        <time>2020-07-07T10:50:57.000Z</time>
      </trkpt>
      <trkpt lat="44.40128" lon="6.40867">
        <ele>1970</ele>
        <time>2020-07-07T10:50:58.000Z</time>
      </trkpt>
      <trkpt lat="44.40128" lon="6.40866">
        <ele>1970</ele>
        <time>2020-07-07T10:50:59.000Z</time>
      </trkpt>
      <trkpt lat="44.40127" lon="6.40865">
        <ele>1970</ele>
        <time>2020-07-07T10:51:00.000Z</time>
      </trkpt>
      <trkpt lat="44.40126" lon="6.40864">
        <ele>1970</ele>
        <time>2020-07-07T10:51:01.000Z</time>
      </trkpt>
      <trkpt lat="44.40125" lon="6.40862">
        <ele>1970</ele>
        <time>2020-07-07T10:51:02.000Z</time>
      </trkpt>
      <trkpt lat="44.40124" lon="6.4086">
        <ele>1970</ele>
        <time>2020-07-07T10:51:03.000Z</time>
      </trkpt>
      <trkpt lat="44.40123" lon="6.40859">
        <ele>1970</ele>
        <time>2020-07-07T10:51:04.000Z</time>
      </trkpt>
      <trkpt lat="44.40122" lon="6.40857">
        <ele>1970</ele>
        <time>2020-07-07T10:51:05.000Z</time>
      </trkpt>
      <trkpt lat="44.4012" lon="6.40856">
        <ele>1970</ele>
        <time>2020-07-07T10:51:06.000Z</time>
      </trkpt>
      <trkpt lat="44.4012" lon="6.40855">
        <ele>1970</ele>
        <time>2020-07-07T10:51:07.000Z</time>
      </trkpt>
      <trkpt lat="44.40119" lon="6.40855">
        <ele>1970</ele>
        <time>2020-07-07T10:51:08.000Z</time>
      </trkpt>
      <trkpt lat="44.40118" lon="6.40854">
        <ele>1970</ele>
        <time>2020-07-07T10:51:09.000Z</time>
      </trkpt>
      <trkpt lat="44.40118" lon="6.40854">
        <ele>1970</ele>
        <time>2020-07-07T10:51:10.000Z</time>
      </trkpt>
      <trkpt lat="44.40117" lon="6.40853">
        <ele>1970</ele>
        <time>2020-07-07T10:51:11.000Z</time>
      </trkpt>
      <trkpt lat="44.40117" lon="6.40853">
        <ele>1970</ele>
        <time>2020-07-07T10:51:12.000Z</time>
      </trkpt>
      <trkpt lat="44.40116" lon="6.40853">
        <ele>1970</ele>
        <time>2020-07-07T10:51:13.000Z</time>
      </trkpt>
      <trkpt lat="44.40116" lon="6.40853">
        <ele>1970</ele>
        <time>2020-07-07T10:51:14.000Z</time>
      </trkpt>
      <trkpt lat="44.40115" lon="6.40853">
        <ele>1971</ele>
        <time>2020-07-07T10:51:15.000Z</time>
      </trkpt>
      <trkpt lat="44.40114" lon="6.40852">
        <ele>1971</ele>
        <time>2020-07-07T10:51:16.000Z</time>
      </trkpt>
      <trkpt lat="44.40113" lon="6.40852">
        <ele>1971</ele>
        <time>2020-07-07T10:51:17.000Z</time>
      </trkpt>
      <trkpt lat="44.40112" lon="6.40852">
        <ele>1971</ele>
        <time>2020-07-07T10:51:18.000Z</time>
      </trkpt>
      <trkpt lat="44.40112" lon="6.40852">
        <ele>1971</ele>
        <time>2020-07-07T10:51:19.000Z</time>
      </trkpt>
      <trkpt lat="44.40111" lon="6.40852">
        <ele>1970</ele>
        <time>2020-07-07T10:51:20.000Z</time>
      </trkpt>
      <trkpt lat="44.40109" lon="6.40852">
        <ele>1970</ele>
        <time>2020-07-07T10:51:21.000Z</time>
      </trkpt>
      <trkpt lat="44.40108" lon="6.40851">
        <ele>1970</ele>
        <time>2020-07-07T10:51:22.000Z</time>
      </trkpt>
      <trkpt lat="44.40107" lon="6.40851">
        <ele>1970</ele>
        <time>2020-07-07T10:51:23.000Z</time>
      </trkpt>
      <trkpt lat="44.40106" lon="6.40851">
        <ele>1970</ele>
        <time>2020-07-07T10:51:24.000Z</time>
      </trkpt>
      <trkpt lat="44.40106" lon="6.40851">
        <ele>1970</ele>
        <time>2020-07-07T10:51:25.000Z</time>
      </trkpt>
      <trkpt lat="44.40105" lon="6.40851">
        <ele>1970</ele>
        <time>2020-07-07T10:51:26.000Z</time>
      </trkpt>
      <trkpt lat="44.40104" lon="6.40851">
        <ele>1970</ele>
        <time>2020-07-07T10:51:27.000Z</time>
      </trkpt>
      <trkpt lat="44.40103" lon="6.4085">
        <ele>1970</ele>
        <time>2020-07-07T10:51:28.000Z</time>
      </trkpt>
      <trkpt lat="44.40102" lon="6.4085">
        <ele>1970</ele>
        <time>2020-07-07T10:51:29.000Z</time>
      </trkpt>
      <trkpt lat="44.401" lon="6.4085">
        <ele>1970</ele>
        <time>2020-07-07T10:51:30.000Z</time>
      </trkpt>
      <trkpt lat="44.401" lon="6.4085">
        <ele>1970</ele>
        <time>2020-07-07T10:51:31.000Z</time>
      </trkpt>
      <trkpt lat="44.40099" lon="6.40849">
        <ele>1970</ele>
        <time>2020-07-07T10:51:32.000Z</time>
      </trkpt>
      <trkpt lat="44.40098" lon="6.40849">
        <ele>1970</ele>
        <time>2020-07-07T10:51:33.000Z</time>
      </trkpt>
      <trkpt lat="44.40097" lon="6.40849">
        <ele>1970</ele>
        <time>2020-07-07T10:51:34.000Z</time>
      </trkpt>
      <trkpt lat="44.40096" lon="6.40848">
        <ele>1970</ele>
        <time>2020-07-07T10:51:35.000Z</time>
      </trkpt>
      <trkpt lat="44.40095" lon="6.40849">
        <ele>1970</ele>
        <time>2020-07-07T10:51:36.000Z</time>
      </trkpt>
      <trkpt lat="44.40095" lon="6.40849">
        <ele>1970</ele>
        <time>2020-07-07T10:51:37.000Z</time>
      </trkpt>
      <trkpt lat="44.40095" lon="6.40849">
        <ele>1970</ele>
        <time>2020-07-07T10:51:38.000Z</time>
      </trkpt>
      <trkpt lat="44.40094" lon="6.40849">
        <ele>1970</ele>
        <time>2020-07-07T10:51:39.000Z</time>
      </trkpt>
      <trkpt lat="44.40093" lon="6.40849">
        <ele>1970</ele>
        <time>2020-07-07T10:51:40.000Z</time>
      </trkpt>
      <trkpt lat="44.40092" lon="6.40849">
        <ele>1970</ele>
        <time>2020-07-07T10:51:41.000Z</time>
      </trkpt>
      <trkpt lat="44.40091" lon="6.40849">
        <ele>1970</ele>
        <time>2020-07-07T10:51:42.000Z</time>
      </trkpt>
      <trkpt lat="44.4009" lon="6.40849">
        <ele>1970</ele>
        <time>2020-07-07T10:51:43.000Z</time>
      </trkpt>
      <trkpt lat="44.40089" lon="6.40849">
        <ele>1970</ele>
        <time>2020-07-07T10:51:44.000Z</time>
      </trkpt>
      <trkpt lat="44.40088" lon="6.40849">
        <ele>1970</ele>
        <time>2020-07-07T10:51:45.000Z</time>
      </trkpt>
      <trkpt lat="44.40086" lon="6.4085">
        <ele>1970</ele>
        <time>2020-07-07T10:51:46.000Z</time>
      </trkpt>
      <trkpt lat="44.40085" lon="6.40851">
        <ele>1970</ele>
        <time>2020-07-07T10:51:47.000Z</time>
      </trkpt>
      <trkpt lat="44.40085" lon="6.40851">
        <ele>1970</ele>
        <time>2020-07-07T10:51:48.000Z</time>
      </trkpt>
      <trkpt lat="44.40084" lon="6.40851">
        <ele>1970</ele>
        <time>2020-07-07T10:51:49.000Z</time>
      </trkpt>
      <trkpt lat="44.40082" lon="6.40852">
        <ele>1970</ele>
        <time>2020-07-07T10:51:50.000Z</time>
      </trkpt>
      <trkpt lat="44.40082" lon="6.40853">
        <ele>1970</ele>
        <time>2020-07-07T10:51:51.000Z</time>
      </trkpt>
      <trkpt lat="44.40081" lon="6.40853">
        <ele>1970</ele>
        <time>2020-07-07T10:51:52.000Z</time>
      </trkpt>
      <trkpt lat="44.4008" lon="6.40853">
        <ele>1970</ele>
        <time>2020-07-07T10:51:53.000Z</time>
      </trkpt>
      <trkpt lat="44.40079" lon="6.40855">
        <ele>1970</ele>
        <time>2020-07-07T10:51:54.000Z</time>
      </trkpt>
      <trkpt lat="44.40078" lon="6.40855">
        <ele>1970</ele>
        <time>2020-07-07T10:51:55.000Z</time>
      </trkpt>
      <trkpt lat="44.40078" lon="6.40855">
        <ele>1971</ele>
        <time>2020-07-07T10:51:56.000Z</time>
      </trkpt>
      <trkpt lat="44.40077" lon="6.40857">
        <ele>1970</ele>
        <time>2020-07-07T10:51:57.000Z</time>
      </trkpt>
      <trkpt lat="44.40075" lon="6.40858">
        <ele>1970</ele>
        <time>2020-07-07T10:51:58.000Z</time>
      </trkpt>
      <trkpt lat="44.40074" lon="6.40859">
        <ele>1971</ele>
        <time>2020-07-07T10:51:59.000Z</time>
      </trkpt>
      <trkpt lat="44.40074" lon="6.40859">
        <ele>1971</ele>
        <time>2020-07-07T10:52:00.000Z</time>
      </trkpt>
      <trkpt lat="44.40072" lon="6.40859">
        <ele>1971</ele>
        <time>2020-07-07T10:52:01.000Z</time>
      </trkpt>
      <trkpt lat="44.4007" lon="6.4086">
        <ele>1970</ele>
        <time>2020-07-07T10:52:02.000Z</time>
      </trkpt>
      <trkpt lat="44.40069" lon="6.40862">
        <ele>1970</ele>
        <time>2020-07-07T10:52:03.000Z</time>
      </trkpt>
      <trkpt lat="44.40067" lon="6.40863">
        <ele>1970</ele>
        <time>2020-07-07T10:52:04.000Z</time>
      </trkpt>
      <trkpt lat="44.40066" lon="6.40863">
        <ele>1970</ele>
        <time>2020-07-07T10:52:05.000Z</time>
      </trkpt>
      <trkpt lat="44.40064" lon="6.40862">
        <ele>1970</ele>
        <time>2020-07-07T10:52:06.000Z</time>
      </trkpt>
      <trkpt lat="44.40064" lon="6.40863">
        <ele>1970</ele>
        <time>2020-07-07T10:52:07.000Z</time>
      </trkpt>
      <trkpt lat="44.40063" lon="6.40863">
        <ele>1970</ele>
        <time>2020-07-07T10:52:08.000Z</time>
      </trkpt>
      <trkpt lat="44.40062" lon="6.40863">
        <ele>1970</ele>
        <time>2020-07-07T10:52:09.000Z</time>
      </trkpt>
      <trkpt lat="44.40062" lon="6.40862">
        <ele>1970</ele>
        <time>2020-07-07T10:52:10.000Z</time>
      </trkpt>
      <trkpt lat="44.40061" lon="6.40862">
        <ele>1970</ele>
        <time>2020-07-07T10:52:11.000Z</time>
      </trkpt>
      <trkpt lat="44.4006" lon="6.40862">
        <ele>1970</ele>
        <time>2020-07-07T10:52:12.000Z</time>
      </trkpt>
      <trkpt lat="44.40059" lon="6.40861">
        <ele>1970</ele>
        <time>2020-07-07T10:52:13.000Z</time>
      </trkpt>
      <trkpt lat="44.40058" lon="6.4086">
        <ele>1971</ele>
        <time>2020-07-07T10:52:14.000Z</time>
      </trkpt>
      <trkpt lat="44.40056" lon="6.40859">
        <ele>1971</ele>
        <time>2020-07-07T10:52:15.000Z</time>
      </trkpt>
      <trkpt lat="44.40056" lon="6.40859">
        <ele>1971</ele>
        <time>2020-07-07T10:52:16.000Z</time>
      </trkpt>
      <trkpt lat="44.40055" lon="6.40858">
        <ele>1971</ele>
        <time>2020-07-07T10:52:17.000Z</time>
      </trkpt>
      <trkpt lat="44.40054" lon="6.40857">
        <ele>1971</ele>
        <time>2020-07-07T10:52:18.000Z</time>
      </trkpt>
      <trkpt lat="44.40053" lon="6.40856">
        <ele>1971</ele>
        <time>2020-07-07T10:52:19.000Z</time>
      </trkpt>
      <trkpt lat="44.40052" lon="6.40856">
        <ele>1971</ele>
        <time>2020-07-07T10:52:20.000Z</time>
      </trkpt>
      <trkpt lat="44.40051" lon="6.40856">
        <ele>1971</ele>
        <time>2020-07-07T10:52:21.000Z</time>
      </trkpt>
      <trkpt lat="44.40051" lon="6.40855">
        <ele>1971</ele>
        <time>2020-07-07T10:52:22.000Z</time>
      </trkpt>
      <trkpt lat="44.4005" lon="6.40854">
        <ele>1971</ele>
        <time>2020-07-07T10:52:23.000Z</time>
      </trkpt>
      <trkpt lat="44.4005" lon="6.40853">
        <ele>1971</ele>
        <time>2020-07-07T10:52:24.000Z</time>
      </trkpt>
      <trkpt lat="44.40049" lon="6.40852">
        <ele>1971</ele>
        <time>2020-07-07T10:52:25.000Z</time>
      </trkpt>
      <trkpt lat="44.40048" lon="6.40852">
        <ele>1971</ele>
        <time>2020-07-07T10:52:26.000Z</time>
      </trkpt>
      <trkpt lat="44.40047" lon="6.40852">
        <ele>1971</ele>
        <time>2020-07-07T10:52:27.000Z</time>
      </trkpt>
      <trkpt lat="44.40047" lon="6.40851">
        <ele>1971</ele>
        <time>2020-07-07T10:52:28.000Z</time>
      </trkpt>
      <trkpt lat="44.40046" lon="6.40851">
        <ele>1971</ele>
        <time>2020-07-07T10:52:29.000Z</time>
      </trkpt>
      <trkpt lat="44.40045" lon="6.4085">
        <ele>1971</ele>
        <time>2020-07-07T10:52:30.000Z</time>
      </trkpt>
      <trkpt lat="44.40045" lon="6.40848">
        <ele>1971</ele>
        <time>2020-07-07T10:52:31.000Z</time>
      </trkpt>
      <trkpt lat="44.40044" lon="6.40848">
        <ele>1971</ele>
        <time>2020-07-07T10:52:32.000Z</time>
      </trkpt>
      <trkpt lat="44.40043" lon="6.40848">
        <ele>1971</ele>
        <time>2020-07-07T10:52:33.000Z</time>
      </trkpt>
      <trkpt lat="44.40042" lon="6.40847">
        <ele>1971</ele>
        <time>2020-07-07T10:52:34.000Z</time>
      </trkpt>
      <trkpt lat="44.40041" lon="6.40847">
        <ele>1971</ele>
        <time>2020-07-07T10:52:35.000Z</time>
      </trkpt>
      <trkpt lat="44.40041" lon="6.40846">
        <ele>1971</ele>
        <time>2020-07-07T10:52:36.000Z</time>
      </trkpt>
      <trkpt lat="44.4004" lon="6.40845">
        <ele>1971</ele>
        <time>2020-07-07T10:52:37.000Z</time>
      </trkpt>
      <trkpt lat="44.40039" lon="6.40845">
        <ele>1971</ele>
        <time>2020-07-07T10:52:38.000Z</time>
      </trkpt>
      <trkpt lat="44.40038" lon="6.40844">
        <ele>1971</ele>
        <time>2020-07-07T10:52:39.000Z</time>
      </trkpt>
      <trkpt lat="44.40038" lon="6.40843">
        <ele>1971</ele>
        <time>2020-07-07T10:52:40.000Z</time>
      </trkpt>
      <trkpt lat="44.40037" lon="6.40843">
        <ele>1971</ele>
        <time>2020-07-07T10:52:41.000Z</time>
      </trkpt>
      <trkpt lat="44.40036" lon="6.40842">
        <ele>1971</ele>
        <time>2020-07-07T10:52:42.000Z</time>
      </trkpt>
      <trkpt lat="44.40036" lon="6.40841">
        <ele>1971</ele>
        <time>2020-07-07T10:52:43.000Z</time>
      </trkpt>
      <trkpt lat="44.40036" lon="6.4084">
        <ele>1972</ele>
        <time>2020-07-07T10:52:44.000Z</time>
      </trkpt>
      <trkpt lat="44.40035" lon="6.4084">
        <ele>1972</ele>
        <time>2020-07-07T10:52:45.000Z</time>
      </trkpt>
      <trkpt lat="44.40035" lon="6.40839">
        <ele>1972</ele>
        <time>2020-07-07T10:52:46.000Z</time>
      </trkpt>
      <trkpt lat="44.40035" lon="6.40839">
        <ele>1972</ele>
        <time>2020-07-07T10:52:47.000Z</time>
      </trkpt>
      <trkpt lat="44.40035" lon="6.40838">
        <ele>1972</ele>
        <time>2020-07-07T10:52:48.000Z</time>
      </trkpt>
      <trkpt lat="44.40034" lon="6.40838">
        <ele>1973</ele>
        <time>2020-07-07T10:52:49.000Z</time>
      </trkpt>
      <trkpt lat="44.40034" lon="6.40838">
        <ele>1973</ele>
        <time>2020-07-07T10:52:50.000Z</time>
      </trkpt>
      <trkpt lat="44.40034" lon="6.40838">
        <ele>1973</ele>
        <time>2020-07-07T10:52:51.000Z</time>
      </trkpt>
      <trkpt lat="44.40034" lon="6.40838">
        <ele>1973</ele>
        <time>2020-07-07T10:52:52.000Z</time>
      </trkpt>
      <trkpt lat="44.40034" lon="6.40838">
        <ele>1973</ele>
        <time>2020-07-07T10:52:53.000Z</time>
      </trkpt>
      <trkpt lat="44.40034" lon="6.40839">
        <ele>1973</ele>
        <time>2020-07-07T10:52:54.000Z</time>
      </trkpt>
      <trkpt lat="44.40034" lon="6.40839">
        <ele>1973</ele>
        <time>2020-07-07T10:52:55.000Z</time>
      </trkpt>
      <trkpt lat="44.40034" lon="6.4084">
        <ele>1973</ele>
        <time>2020-07-07T10:52:56.000Z</time>
      </trkpt>
      <trkpt lat="44.40035" lon="6.4084">
        <ele>1973</ele>
        <time>2020-07-07T10:52:57.000Z</time>
      </trkpt>
      <trkpt lat="44.40035" lon="6.4084">
        <ele>1974</ele>
        <time>2020-07-07T10:52:58.000Z</time>
      </trkpt>
      <trkpt lat="44.40035" lon="6.40841">
        <ele>1974</ele>
        <time>2020-07-07T10:52:59.000Z</time>
      </trkpt>
      <trkpt lat="44.40035" lon="6.40841">
        <ele>1974</ele>
        <time>2020-07-07T10:53:00.000Z</time>
      </trkpt>
      <trkpt lat="44.40035" lon="6.40841">
        <ele>1974</ele>
        <time>2020-07-07T10:53:01.000Z</time>
      </trkpt>
      <trkpt lat="44.40035" lon="6.40842">
        <ele>1974</ele>
        <time>2020-07-07T10:53:02.000Z</time>
      </trkpt>
      <trkpt lat="44.40035" lon="6.40842">
        <ele>1974</ele>
        <time>2020-07-07T10:53:03.000Z</time>
      </trkpt>
      <trkpt lat="44.40035" lon="6.40842">
        <ele>1974</ele>
        <time>2020-07-07T10:53:04.000Z</time>
      </trkpt>
      <trkpt lat="44.40035" lon="6.40842">
        <ele>1974</ele>
        <time>2020-07-07T10:53:05.000Z</time>
      </trkpt>
      <trkpt lat="44.40035" lon="6.40842">
        <ele>1974</ele>
        <time>2020-07-07T10:53:06.000Z</time>
      </trkpt>
      <trkpt lat="44.40034" lon="6.40842">
        <ele>1974</ele>
        <time>2020-07-07T10:53:07.000Z</time>
      </trkpt>
      <trkpt lat="44.40034" lon="6.40842">
        <ele>1974</ele>
        <time>2020-07-07T10:53:08.000Z</time>
      </trkpt>
      <trkpt lat="44.40034" lon="6.40842">
        <ele>1975</ele>
        <time>2020-07-07T10:53:09.000Z</time>
      </trkpt>
      <trkpt lat="44.40034" lon="6.40843">
        <ele>1975</ele>
        <time>2020-07-07T10:53:10.000Z</time>
      </trkpt>
      <trkpt lat="44.40034" lon="6.40843">
        <ele>1975</ele>
        <time>2020-07-07T10:53:11.000Z</time>
      </trkpt>
      <trkpt lat="44.40034" lon="6.40843">
        <ele>1975</ele>
        <time>2020-07-07T10:53:12.000Z</time>
      </trkpt>
      <trkpt lat="44.40034" lon="6.40843">
        <ele>1975</ele>
        <time>2020-07-07T10:53:13.000Z</time>
      </trkpt>
      <trkpt lat="44.40034" lon="6.40843">
        <ele>1975</ele>
        <time>2020-07-07T10:53:14.000Z</time>
      </trkpt>
      <trkpt lat="44.40034" lon="6.40843">
        <ele>1975</ele>
        <time>2020-07-07T10:53:15.000Z</time>
      </trkpt>
      <trkpt lat="44.40034" lon="6.40843">
        <ele>1975</ele>
        <time>2020-07-07T10:53:16.000Z</time>
      </trkpt>
      <trkpt lat="44.40034" lon="6.40843">
        <ele>1975</ele>
        <time>2020-07-07T10:53:17.000Z</time>
      </trkpt>
      <trkpt lat="44.40034" lon="6.40843">
        <ele>1975</ele>
        <time>2020-07-07T10:53:18.000Z</time>
      </trkpt>
      <trkpt lat="44.40034" lon="6.40843">
        <ele>1975</ele>
        <time>2020-07-07T10:53:19.000Z</time>
      </trkpt>
      <trkpt lat="44.40034" lon="6.40843">
        <ele>1975</ele>
        <time>2020-07-07T10:53:20.000Z</time>
      </trkpt>
      <trkpt lat="44.40034" lon="6.40843">
        <ele>1975</ele>
        <time>2020-07-07T10:53:21.000Z</time>
      </trkpt>
      <trkpt lat="44.40034" lon="6.40843">
        <ele>1976</ele>
        <time>2020-07-07T10:53:22.000Z</time>
      </trkpt>
      <trkpt lat="44.40034" lon="6.40843">
        <ele>1976</ele>
        <time>2020-07-07T10:53:23.000Z</time>
      </trkpt>
      <trkpt lat="44.40033" lon="6.40843">
        <ele>1976</ele>
        <time>2020-07-07T10:53:24.000Z</time>
      </trkpt>
      <trkpt lat="44.40033" lon="6.40843">
        <ele>1976</ele>
        <time>2020-07-07T10:53:25.000Z</time>
      </trkpt>
      <trkpt lat="44.40034" lon="6.40843">
        <ele>1976</ele>
        <time>2020-07-07T10:53:26.000Z</time>
      </trkpt>
      <trkpt lat="44.40034" lon="6.40843">
        <ele>1976</ele>
        <time>2020-07-07T10:53:27.000Z</time>
      </trkpt>
      <trkpt lat="44.40034" lon="6.40843">
        <ele>1976</ele>
        <time>2020-07-07T10:53:28.000Z</time>
      </trkpt>
      <trkpt lat="44.40034" lon="6.40843">
        <ele>1976</ele>
        <time>2020-07-07T10:53:29.000Z</time>
      </trkpt>
      <trkpt lat="44.40034" lon="6.40843">
        <ele>1976</ele>
        <time>2020-07-07T10:53:30.000Z</time>
      </trkpt>
      <trkpt lat="44.40034" lon="6.40843">
        <ele>1976</ele>
        <time>2020-07-07T10:53:31.000Z</time>
      </trkpt>
      <trkpt lat="44.40034" lon="6.40843">
        <ele>1976</ele>
        <time>2020-07-07T10:53:32.000Z</time>
      </trkpt>
      <trkpt lat="44.40034" lon="6.40843">
        <ele>1976</ele>
        <time>2020-07-07T10:53:33.000Z</time>
      </trkpt>
      <trkpt lat="44.40034" lon="6.40843">
        <ele>1976</ele>
        <time>2020-07-07T10:53:34.000Z</time>
      </trkpt>
      <trkpt lat="44.40034" lon="6.40843">
        <ele>1976</ele>
        <time>2020-07-07T10:53:35.000Z</time>
      </trkpt>
      <trkpt lat="44.40034" lon="6.40843">
        <ele>1976</ele>
        <time>2020-07-07T10:53:36.000Z</time>
      </trkpt>
      <trkpt lat="44.40034" lon="6.40843">
        <ele>1976</ele>
        <time>2020-07-07T10:53:37.000Z</time>
      </trkpt>
      <trkpt lat="44.40034" lon="6.40843">
        <ele>1976</ele>
        <time>2020-07-07T10:53:38.000Z</time>
      </trkpt>
      <trkpt lat="44.40034" lon="6.40843">
        <ele>1976</ele>
        <time>2020-07-07T10:53:39.000Z</time>
      </trkpt>
      <trkpt lat="44.40034" lon="6.40843">
        <ele>1976</ele>
        <time>2020-07-07T10:53:40.000Z</time>
      </trkpt>
      <trkpt lat="44.40034" lon="6.40843">
        <ele>1976</ele>
        <time>2020-07-07T10:53:41.000Z</time>
      </trkpt>
      <trkpt lat="44.40034" lon="6.40843">
        <ele>1976</ele>
        <time>2020-07-07T10:53:42.000Z</time>
      </trkpt>
      <trkpt lat="44.40034" lon="6.40843">
        <ele>1976</ele>
        <time>2020-07-07T10:53:43.000Z</time>
      </trkpt>
      <trkpt lat="44.40034" lon="6.40843">
        <ele>1976</ele>
        <time>2020-07-07T10:53:44.000Z</time>
      </trkpt>
      <trkpt lat="44.40034" lon="6.40843">
        <ele>1977</ele>
        <time>2020-07-07T10:53:45.000Z</time>
      </trkpt>
      <trkpt lat="44.40034" lon="6.40842">
        <ele>1977</ele>
        <time>2020-07-07T10:53:46.000Z</time>
      </trkpt>
      <trkpt lat="44.40034" lon="6.40842">
        <ele>1977</ele>
        <time>2020-07-07T10:53:47.000Z</time>
      </trkpt>
      <trkpt lat="44.40034" lon="6.40842">
        <ele>1977</ele>
        <time>2020-07-07T10:53:48.000Z</time>
      </trkpt>
      <trkpt lat="44.40034" lon="6.40842">
        <ele>1977</ele>
        <time>2020-07-07T10:53:49.000Z</time>
      </trkpt>
      <trkpt lat="44.40034" lon="6.40842">
        <ele>1977</ele>
        <time>2020-07-07T10:53:50.000Z</time>
      </trkpt>
      <trkpt lat="44.40034" lon="6.40842">
        <ele>1977</ele>
        <time>2020-07-07T10:53:51.000Z</time>
      </trkpt>
      <trkpt lat="44.40034" lon="6.40842">
        <ele>1977</ele>
        <time>2020-07-07T10:53:52.000Z</time>
      </trkpt>
      <trkpt lat="44.40034" lon="6.40842">
        <ele>1977</ele>
        <time>2020-07-07T10:53:53.000Z</time>
      </trkpt>
      <trkpt lat="44.40034" lon="6.40842">
        <ele>1977</ele>
        <time>2020-07-07T10:53:54.000Z</time>
      </trkpt>
      <trkpt lat="44.40034" lon="6.40842">
        <ele>1977</ele>
        <time>2020-07-07T10:53:55.000Z</time>
      </trkpt>
      <trkpt lat="44.40034" lon="6.40842">
        <ele>1977</ele>
        <time>2020-07-07T10:53:56.000Z</time>
      </trkpt>
      <trkpt lat="44.40034" lon="6.40842">
        <ele>1977</ele>
        <time>2020-07-07T10:53:57.000Z</time>
      </trkpt>
      <trkpt lat="44.40034" lon="6.40842">
        <ele>1977</ele>
        <time>2020-07-07T10:53:58.000Z</time>
      </trkpt>
      <trkpt lat="44.40034" lon="6.40842">
        <ele>1977</ele>
        <time>2020-07-07T10:53:59.000Z</time>
      </trkpt>
      <trkpt lat="44.40034" lon="6.40842">
        <ele>1977</ele>
        <time>2020-07-07T10:54:00.000Z</time>
      </trkpt>
      <trkpt lat="44.40034" lon="6.40842">
        <ele>1977</ele>
        <time>2020-07-07T10:54:01.000Z</time>
      </trkpt>
      <trkpt lat="44.40034" lon="6.40842">
        <ele>1977</ele>
        <time>2020-07-07T10:54:02.000Z</time>
      </trkpt>
      <trkpt lat="44.40034" lon="6.40842">
        <ele>1977</ele>
        <time>2020-07-07T10:54:03.000Z</time>
      </trkpt>
      <trkpt lat="44.40034" lon="6.40842">
        <ele>1977</ele>
        <time>2020-07-07T10:54:04.000Z</time>
      </trkpt>
      <trkpt lat="44.40034" lon="6.40842">
        <ele>1977</ele>
        <time>2020-07-07T10:54:05.000Z</time>
      </trkpt>
      <trkpt lat="44.40034" lon="6.40842">
        <ele>1977</ele>
        <time>2020-07-07T10:54:06.000Z</time>
      </trkpt>
      <trkpt lat="44.40034" lon="6.40843">
        <ele>1977</ele>
        <time>2020-07-07T10:54:07.000Z</time>
      </trkpt>
      <trkpt lat="44.40034" lon="6.40843">
        <ele>1977</ele>
        <time>2020-07-07T10:54:08.000Z</time>
      </trkpt>
      <trkpt lat="44.40034" lon="6.40843">
        <ele>1977</ele>
        <time>2020-07-07T10:54:09.000Z</time>
      </trkpt>
      <trkpt lat="44.40034" lon="6.40843">
        <ele>1977</ele>
        <time>2020-07-07T10:54:10.000Z</time>
      </trkpt>
      <trkpt lat="44.40034" lon="6.40843">
        <ele>1977</ele>
        <time>2020-07-07T10:54:11.000Z</time>
      </trkpt>
      <trkpt lat="44.40034" lon="6.40843">
        <ele>1977</ele>
        <time>2020-07-07T10:54:12.000Z</time>
      </trkpt>
      <trkpt lat="44.40033" lon="6.40843">
        <ele>1977</ele>
        <time>2020-07-07T10:54:13.000Z</time>
      </trkpt>
      <trkpt lat="44.40033" lon="6.40843">
        <ele>1977</ele>
        <time>2020-07-07T10:54:14.000Z</time>
      </trkpt>
      <trkpt lat="44.40033" lon="6.40842">
        <ele>1977</ele>
        <time>2020-07-07T10:54:15.000Z</time>
      </trkpt>
      <trkpt lat="44.40033" lon="6.40843">
        <ele>1977</ele>
        <time>2020-07-07T10:54:16.000Z</time>
      </trkpt>
      <trkpt lat="44.40033" lon="6.40843">
        <ele>1977</ele>
        <time>2020-07-07T10:54:17.000Z</time>
      </trkpt>
      <trkpt lat="44.40033" lon="6.40843">
        <ele>1977</ele>
        <time>2020-07-07T10:54:18.000Z</time>
      </trkpt>
      <trkpt lat="44.40033" lon="6.40843">
        <ele>1977</ele>
        <time>2020-07-07T10:54:19.000Z</time>
      </trkpt>
      <trkpt lat="44.40033" lon="6.40843">
        <ele>1977</ele>
        <time>2020-07-07T10:54:20.000Z</time>
      </trkpt>
      <trkpt lat="44.40033" lon="6.40843">
        <ele>1977</ele>
        <time>2020-07-07T10:54:21.000Z</time>
      </trkpt>
      <trkpt lat="44.40033" lon="6.40843">
        <ele>1977</ele>
        <time>2020-07-07T10:54:22.000Z</time>
      </trkpt>
      <trkpt lat="44.40033" lon="6.40843">
        <ele>1977</ele>
        <time>2020-07-07T10:54:23.000Z</time>
      </trkpt>
      <trkpt lat="44.40033" lon="6.40843">
        <ele>1977</ele>
        <time>2020-07-07T10:54:24.000Z</time>
      </trkpt>
      <trkpt lat="44.40033" lon="6.40843">
        <ele>1977</ele>
        <time>2020-07-07T10:54:25.000Z</time>
      </trkpt>
      <trkpt lat="44.40034" lon="6.40843">
        <ele>1977</ele>
        <time>2020-07-07T10:54:26.000Z</time>
      </trkpt>
      <trkpt lat="44.40034" lon="6.40843">
        <ele>1977</ele>
        <time>2020-07-07T10:54:27.000Z</time>
      </trkpt>
      <trkpt lat="44.40034" lon="6.40843">
        <ele>1977</ele>
        <time>2020-07-07T10:54:28.000Z</time>
      </trkpt>
      <trkpt lat="44.40034" lon="6.40843">
        <ele>1977</ele>
        <time>2020-07-07T10:54:29.000Z</time>
      </trkpt>
      <trkpt lat="44.40034" lon="6.40843">
        <ele>1977</ele>
        <time>2020-07-07T10:54:30.000Z</time>
      </trkpt>
      <trkpt lat="44.40034" lon="6.40843">
        <ele>1977</ele>
        <time>2020-07-07T10:54:31.000Z</time>
      </trkpt>
      <trkpt lat="44.40034" lon="6.40843">
        <ele>1977</ele>
        <time>2020-07-07T10:54:32.000Z</time>
      </trkpt>
      <trkpt lat="44.40034" lon="6.40843">
        <ele>1977</ele>
        <time>2020-07-07T10:54:33.000Z</time>
      </trkpt>
      <trkpt lat="44.40034" lon="6.40843">
        <ele>1977</ele>
        <time>2020-07-07T10:54:34.000Z</time>
      </trkpt>
      <trkpt lat="44.40034" lon="6.40843">
        <ele>1977</ele>
        <time>2020-07-07T10:54:35.000Z</time>
      </trkpt>
      <trkpt lat="44.40034" lon="6.40843">
        <ele>1977</ele>
        <time>2020-07-07T10:54:36.000Z</time>
      </trkpt>
      <trkpt lat="44.40033" lon="6.40843">
        <ele>1977</ele>
        <time>2020-07-07T10:54:37.000Z</time>
      </trkpt>
      <trkpt lat="44.40033" lon="6.40843">
        <ele>1977</ele>
        <time>2020-07-07T10:54:38.000Z</time>
      </trkpt>
      <trkpt lat="44.40033" lon="6.40843">
        <ele>1977</ele>
        <time>2020-07-07T10:54:39.000Z</time>
      </trkpt>
      <trkpt lat="44.40033" lon="6.40843">
        <ele>1977</ele>
        <time>2020-07-07T10:54:40.000Z</time>
      </trkpt>
      <trkpt lat="44.40033" lon="6.40843">
        <ele>1977</ele>
        <time>2020-07-07T10:54:41.000Z</time>
      </trkpt>
      <trkpt lat="44.40033" lon="6.40843">
        <ele>1977</ele>
        <time>2020-07-07T10:54:42.000Z</time>
      </trkpt>
      <trkpt lat="44.40033" lon="6.40843">
        <ele>1977</ele>
        <time>2020-07-07T10:54:43.000Z</time>
      </trkpt>
      <trkpt lat="44.40033" lon="6.40843">
        <ele>1977</ele>
        <time>2020-07-07T10:54:44.000Z</time>
      </trkpt>
      <trkpt lat="44.40033" lon="6.40843">
        <ele>1977</ele>
        <time>2020-07-07T10:54:45.000Z</time>
      </trkpt>
      <trkpt lat="44.40033" lon="6.40843">
        <ele>1977</ele>
        <time>2020-07-07T10:54:46.000Z</time>
      </trkpt>
      <trkpt lat="44.40033" lon="6.40843">
        <ele>1977</ele>
        <time>2020-07-07T10:54:47.000Z</time>
      </trkpt>
      <trkpt lat="44.40033" lon="6.40843">
        <ele>1977</ele>
        <time>2020-07-07T10:54:48.000Z</time>
      </trkpt>
      <trkpt lat="44.40033" lon="6.40843">
        <ele>1977</ele>
        <time>2020-07-07T10:54:49.000Z</time>
      </trkpt>
      <trkpt lat="44.40033" lon="6.40843">
        <ele>1977</ele>
        <time>2020-07-07T10:54:50.000Z</time>
      </trkpt>
      <trkpt lat="44.40033" lon="6.40843">
        <ele>1977</ele>
        <time>2020-07-07T10:54:51.000Z</time>
      </trkpt>
      <trkpt lat="44.40033" lon="6.40843">
        <ele>1977</ele>
        <time>2020-07-07T10:54:52.000Z</time>
      </trkpt>
      <trkpt lat="44.40033" lon="6.40842">
        <ele>1977</ele>
        <time>2020-07-07T10:54:53.000Z</time>
      </trkpt>
      <trkpt lat="44.40033" lon="6.40842">
        <ele>1977</ele>
        <time>2020-07-07T10:54:54.000Z</time>
      </trkpt>
      <trkpt lat="44.40033" lon="6.40842">
        <ele>1976</ele>
        <time>2020-07-07T10:54:55.000Z</time>
      </trkpt>
      <trkpt lat="44.40033" lon="6.40841">
        <ele>1976</ele>
        <time>2020-07-07T10:54:56.000Z</time>
      </trkpt>
      <trkpt lat="44.40033" lon="6.40841">
        <ele>1976</ele>
        <time>2020-07-07T10:54:57.000Z</time>
      </trkpt>
      <trkpt lat="44.40032" lon="6.4084">
        <ele>1976</ele>
        <time>2020-07-07T10:54:58.000Z</time>
      </trkpt>
      <trkpt lat="44.40032" lon="6.4084">
        <ele>1976</ele>
        <time>2020-07-07T10:54:59.000Z</time>
      </trkpt>
      <trkpt lat="44.40032" lon="6.4084">
        <ele>1976</ele>
        <time>2020-07-07T10:55:00.000Z</time>
      </trkpt>
      <trkpt lat="44.40032" lon="6.4084">
        <ele>1976</ele>
        <time>2020-07-07T10:55:01.000Z</time>
      </trkpt>
      <trkpt lat="44.40032" lon="6.4084">
        <ele>1976</ele>
        <time>2020-07-07T10:55:02.000Z</time>
      </trkpt>
      <trkpt lat="44.40033" lon="6.4084">
        <ele>1976</ele>
        <time>2020-07-07T10:55:03.000Z</time>
      </trkpt>
      <trkpt lat="44.40033" lon="6.4084">
        <ele>1976</ele>
        <time>2020-07-07T10:55:04.000Z</time>
      </trkpt>
      <trkpt lat="44.40033" lon="6.4084">
        <ele>1976</ele>
        <time>2020-07-07T10:55:05.000Z</time>
      </trkpt>
      <trkpt lat="44.40033" lon="6.4084">
        <ele>1977</ele>
        <time>2020-07-07T10:55:06.000Z</time>
      </trkpt>
      <trkpt lat="44.40033" lon="6.4084">
        <ele>1977</ele>
        <time>2020-07-07T10:55:07.000Z</time>
      </trkpt>
      <trkpt lat="44.40033" lon="6.4084">
        <ele>1977</ele>
        <time>2020-07-07T10:55:08.000Z</time>
      </trkpt>
      <trkpt lat="44.40033" lon="6.4084">
        <ele>1977</ele>
        <time>2020-07-07T10:55:09.000Z</time>
      </trkpt>
      <trkpt lat="44.40033" lon="6.4084">
        <ele>1977</ele>
        <time>2020-07-07T10:55:10.000Z</time>
      </trkpt>
      <trkpt lat="44.40033" lon="6.4084">
        <ele>1977</ele>
        <time>2020-07-07T10:55:11.000Z</time>
      </trkpt>
      <trkpt lat="44.40033" lon="6.4084">
        <ele>1977</ele>
        <time>2020-07-07T10:55:12.000Z</time>
      </trkpt>
      <trkpt lat="44.40033" lon="6.40841">
        <ele>1977</ele>
        <time>2020-07-07T10:55:13.000Z</time>
      </trkpt>
      <trkpt lat="44.40034" lon="6.40842">
        <ele>1977</ele>
        <time>2020-07-07T10:55:14.000Z</time>
      </trkpt>
      <trkpt lat="44.40034" lon="6.40842">
        <ele>1977</ele>
        <time>2020-07-07T10:55:15.000Z</time>
      </trkpt>
      <trkpt lat="44.40034" lon="6.40842">
        <ele>1977</ele>
        <time>2020-07-07T10:55:16.000Z</time>
      </trkpt>
      <trkpt lat="44.40034" lon="6.40842">
        <ele>1977</ele>
        <time>2020-07-07T10:55:17.000Z</time>
      </trkpt>
      <trkpt lat="44.40034" lon="6.40842">
        <ele>1977</ele>
        <time>2020-07-07T10:55:18.000Z</time>
      </trkpt>
      <trkpt lat="44.40034" lon="6.40842">
        <ele>1977</ele>
        <time>2020-07-07T10:55:19.000Z</time>
      </trkpt>
      <trkpt lat="44.40034" lon="6.40842">
        <ele>1977</ele>
        <time>2020-07-07T10:55:20.000Z</time>
      </trkpt>
      <trkpt lat="44.40034" lon="6.40842">
        <ele>1977</ele>
        <time>2020-07-07T10:55:21.000Z</time>
      </trkpt>
      <trkpt lat="44.40034" lon="6.40842">
        <ele>1977</ele>
        <time>2020-07-07T10:55:22.000Z</time>
      </trkpt>
      <trkpt lat="44.40034" lon="6.40842">
        <ele>1977</ele>
        <time>2020-07-07T10:55:23.000Z</time>
      </trkpt>
      <trkpt lat="44.40034" lon="6.40842">
        <ele>1977</ele>
        <time>2020-07-07T10:55:24.000Z</time>
      </trkpt>
      <trkpt lat="44.40034" lon="6.40842">
        <ele>1977</ele>
        <time>2020-07-07T10:55:25.000Z</time>
      </trkpt>
      <trkpt lat="44.40034" lon="6.40842">
        <ele>1977</ele>
        <time>2020-07-07T10:55:26.000Z</time>
      </trkpt>
      <trkpt lat="44.40034" lon="6.40842">
        <ele>1977</ele>
        <time>2020-07-07T10:55:27.000Z</time>
      </trkpt>
      <trkpt lat="44.40034" lon="6.40842">
        <ele>1977</ele>
        <time>2020-07-07T10:55:28.000Z</time>
      </trkpt>
      <trkpt lat="44.40034" lon="6.40842">
        <ele>1977</ele>
        <time>2020-07-07T10:55:29.000Z</time>
      </trkpt>
      <trkpt lat="44.40034" lon="6.40842">
        <ele>1977</ele>
        <time>2020-07-07T10:55:30.000Z</time>
      </trkpt>
      <trkpt lat="44.40034" lon="6.40842">
        <ele>1977</ele>
        <time>2020-07-07T10:55:31.000Z</time>
      </trkpt>
      <trkpt lat="44.40034" lon="6.40842">
        <ele>1977</ele>
        <time>2020-07-07T10:55:32.000Z</time>
      </trkpt>
      <trkpt lat="44.40035" lon="6.40843">
        <ele>1977</ele>
        <time>2020-07-07T10:55:33.000Z</time>
      </trkpt>
      <trkpt lat="44.40035" lon="6.40843">
        <ele>1977</ele>
        <time>2020-07-07T10:55:34.000Z</time>
      </trkpt>
      <trkpt lat="44.40035" lon="6.40843">
        <ele>1977</ele>
        <time>2020-07-07T10:55:35.000Z</time>
      </trkpt>
      <trkpt lat="44.40035" lon="6.40842">
        <ele>1977</ele>
        <time>2020-07-07T10:55:36.000Z</time>
      </trkpt>
      <trkpt lat="44.40035" lon="6.40842">
        <ele>1977</ele>
        <time>2020-07-07T10:55:37.000Z</time>
      </trkpt>
      <trkpt lat="44.40035" lon="6.40843">
        <ele>1977</ele>
        <time>2020-07-07T10:55:38.000Z</time>
      </trkpt>
      <trkpt lat="44.40035" lon="6.40843">
        <ele>1977</ele>
        <time>2020-07-07T10:55:39.000Z</time>
      </trkpt>
      <trkpt lat="44.40035" lon="6.40844">
        <ele>1977</ele>
        <time>2020-07-07T10:55:40.000Z</time>
      </trkpt>
      <trkpt lat="44.40034" lon="6.40845">
        <ele>1977</ele>
        <time>2020-07-07T10:55:41.000Z</time>
      </trkpt>
      <trkpt lat="44.40034" lon="6.40845">
        <ele>1977</ele>
        <time>2020-07-07T10:55:42.000Z</time>
      </trkpt>
      <trkpt lat="44.40033" lon="6.40846">
        <ele>1976</ele>
        <time>2020-07-07T10:55:43.000Z</time>
      </trkpt>
      <trkpt lat="44.40032" lon="6.40846">
        <ele>1976</ele>
        <time>2020-07-07T10:55:44.000Z</time>
      </trkpt>
      <trkpt lat="44.40032" lon="6.40846">
        <ele>1976</ele>
        <time>2020-07-07T10:55:45.000Z</time>
      </trkpt>
      <trkpt lat="44.40031" lon="6.40846">
        <ele>1976</ele>
        <time>2020-07-07T10:55:46.000Z</time>
      </trkpt>
      <trkpt lat="44.40031" lon="6.40847">
        <ele>1976</ele>
        <time>2020-07-07T10:55:47.000Z</time>
      </trkpt>
      <trkpt lat="44.4003" lon="6.40847">
        <ele>1976</ele>
        <time>2020-07-07T10:55:48.000Z</time>
      </trkpt>
      <trkpt lat="44.4003" lon="6.40848">
        <ele>1976</ele>
        <time>2020-07-07T10:55:49.000Z</time>
      </trkpt>
      <trkpt lat="44.40029" lon="6.40848">
        <ele>1976</ele>
        <time>2020-07-07T10:55:50.000Z</time>
      </trkpt>
      <trkpt lat="44.40028" lon="6.40849">
        <ele>1976</ele>
        <time>2020-07-07T10:55:51.000Z</time>
      </trkpt>
      <trkpt lat="44.40028" lon="6.40849">
        <ele>1975</ele>
        <time>2020-07-07T10:55:52.000Z</time>
      </trkpt>
      <trkpt lat="44.40027" lon="6.4085">
        <ele>1975</ele>
        <time>2020-07-07T10:55:53.000Z</time>
      </trkpt>
      <trkpt lat="44.40027" lon="6.40851">
        <ele>1975</ele>
        <time>2020-07-07T10:55:54.000Z</time>
      </trkpt>
      <trkpt lat="44.40026" lon="6.40852">
        <ele>1975</ele>
        <time>2020-07-07T10:55:55.000Z</time>
      </trkpt>
      <trkpt lat="44.40026" lon="6.40852">
        <ele>1975</ele>
        <time>2020-07-07T10:55:56.000Z</time>
      </trkpt>
      <trkpt lat="44.40025" lon="6.40853">
        <ele>1975</ele>
        <time>2020-07-07T10:55:57.000Z</time>
      </trkpt>
      <trkpt lat="44.40025" lon="6.40853">
        <ele>1974</ele>
        <time>2020-07-07T10:55:58.000Z</time>
      </trkpt>
      <trkpt lat="44.40025" lon="6.40854">
        <ele>1974</ele>
        <time>2020-07-07T10:55:59.000Z</time>
      </trkpt>
      <trkpt lat="44.40024" lon="6.40855">
        <ele>1974</ele>
        <time>2020-07-07T10:56:00.000Z</time>
      </trkpt>
      <trkpt lat="44.40024" lon="6.40855">
        <ele>1974</ele>
        <time>2020-07-07T10:56:01.000Z</time>
      </trkpt>
      <trkpt lat="44.40023" lon="6.40856">
        <ele>1974</ele>
        <time>2020-07-07T10:56:02.000Z</time>
      </trkpt>
      <trkpt lat="44.40023" lon="6.40856">
        <ele>1974</ele>
        <time>2020-07-07T10:56:03.000Z</time>
      </trkpt>
      <trkpt lat="44.40022" lon="6.40856">
        <ele>1973</ele>
        <time>2020-07-07T10:56:04.000Z</time>
      </trkpt>
      <trkpt lat="44.40022" lon="6.40857">
        <ele>1973</ele>
        <time>2020-07-07T10:56:05.000Z</time>
      </trkpt>
      <trkpt lat="44.40021" lon="6.40858">
        <ele>1973</ele>
        <time>2020-07-07T10:56:06.000Z</time>
      </trkpt>
      <trkpt lat="44.40021" lon="6.40858">
        <ele>1973</ele>
        <time>2020-07-07T10:56:07.000Z</time>
      </trkpt>
      <trkpt lat="44.4002" lon="6.40859">
        <ele>1973</ele>
        <time>2020-07-07T10:56:08.000Z</time>
      </trkpt>
      <trkpt lat="44.4002" lon="6.40859">
        <ele>1973</ele>
        <time>2020-07-07T10:56:09.000Z</time>
      </trkpt>
      <trkpt lat="44.40019" lon="6.4086">
        <ele>1973</ele>
        <time>2020-07-07T10:56:10.000Z</time>
      </trkpt>
      <trkpt lat="44.40019" lon="6.4086">
        <ele>1973</ele>
        <time>2020-07-07T10:56:11.000Z</time>
      </trkpt>
      <trkpt lat="44.40018" lon="6.40861">
        <ele>1973</ele>
        <time>2020-07-07T10:56:12.000Z</time>
      </trkpt>
      <trkpt lat="44.40017" lon="6.40861">
        <ele>1973</ele>
        <time>2020-07-07T10:56:13.000Z</time>
      </trkpt>
      <trkpt lat="44.40017" lon="6.40862">
        <ele>1972</ele>
        <time>2020-07-07T10:56:14.000Z</time>
      </trkpt>
      <trkpt lat="44.40017" lon="6.40862">
        <ele>1972</ele>
        <time>2020-07-07T10:56:15.000Z</time>
      </trkpt>
      <trkpt lat="44.40017" lon="6.40862">
        <ele>1972</ele>
        <time>2020-07-07T10:56:16.000Z</time>
      </trkpt>
      <trkpt lat="44.40016" lon="6.40863">
        <ele>1972</ele>
        <time>2020-07-07T10:56:17.000Z</time>
      </trkpt>
      <trkpt lat="44.40015" lon="6.40863">
        <ele>1972</ele>
        <time>2020-07-07T10:56:18.000Z</time>
      </trkpt>
      <trkpt lat="44.40015" lon="6.40864">
        <ele>1972</ele>
        <time>2020-07-07T10:56:19.000Z</time>
      </trkpt>
      <trkpt lat="44.40014" lon="6.40865">
        <ele>1972</ele>
        <time>2020-07-07T10:56:20.000Z</time>
      </trkpt>
      <trkpt lat="44.40014" lon="6.40866">
        <ele>1971</ele>
        <time>2020-07-07T10:56:21.000Z</time>
      </trkpt>
      <trkpt lat="44.40013" lon="6.40866">
        <ele>1971</ele>
        <time>2020-07-07T10:56:22.000Z</time>
      </trkpt>
      <trkpt lat="44.40013" lon="6.40867">
        <ele>1971</ele>
        <time>2020-07-07T10:56:23.000Z</time>
      </trkpt>
      <trkpt lat="44.40012" lon="6.40868">
        <ele>1971</ele>
        <time>2020-07-07T10:56:24.000Z</time>
      </trkpt>
      <trkpt lat="44.40012" lon="6.40869">
        <ele>1971</ele>
        <time>2020-07-07T10:56:25.000Z</time>
      </trkpt>
      <trkpt lat="44.40011" lon="6.40869">
        <ele>1971</ele>
        <time>2020-07-07T10:56:26.000Z</time>
      </trkpt>
      <trkpt lat="44.40011" lon="6.40869">
        <ele>1971</ele>
        <time>2020-07-07T10:56:27.000Z</time>
      </trkpt>
      <trkpt lat="44.4001" lon="6.4087">
        <ele>1970</ele>
        <time>2020-07-07T10:56:28.000Z</time>
      </trkpt>
      <trkpt lat="44.40009" lon="6.4087">
        <ele>1970</ele>
        <time>2020-07-07T10:56:29.000Z</time>
      </trkpt>
      <trkpt lat="44.40008" lon="6.40871">
        <ele>1970</ele>
        <time>2020-07-07T10:56:30.000Z</time>
      </trkpt>
      <trkpt lat="44.40008" lon="6.40871">
        <ele>1970</ele>
        <time>2020-07-07T10:56:31.000Z</time>
      </trkpt>
      <trkpt lat="44.40007" lon="6.40872">
        <ele>1970</ele>
        <time>2020-07-07T10:56:32.000Z</time>
      </trkpt>
      <trkpt lat="44.40006" lon="6.40873">
        <ele>1970</ele>
        <time>2020-07-07T10:56:33.000Z</time>
      </trkpt>
      <trkpt lat="44.40006" lon="6.40874">
        <ele>1969</ele>
        <time>2020-07-07T10:56:34.000Z</time>
      </trkpt>
      <trkpt lat="44.40005" lon="6.40874">
        <ele>1969</ele>
        <time>2020-07-07T10:56:35.000Z</time>
      </trkpt>
      <trkpt lat="44.40004" lon="6.40875">
        <ele>1969</ele>
        <time>2020-07-07T10:56:36.000Z</time>
      </trkpt>
      <trkpt lat="44.40004" lon="6.40875">
        <ele>1969</ele>
        <time>2020-07-07T10:56:37.000Z</time>
      </trkpt>
      <trkpt lat="44.40003" lon="6.40876">
        <ele>1968</ele>
        <time>2020-07-07T10:56:38.000Z</time>
      </trkpt>
      <trkpt lat="44.40002" lon="6.40876">
        <ele>1968</ele>
        <time>2020-07-07T10:56:39.000Z</time>
      </trkpt>
      <trkpt lat="44.40001" lon="6.40877">
        <ele>1968</ele>
        <time>2020-07-07T10:56:40.000Z</time>
      </trkpt>
      <trkpt lat="44.4" lon="6.40876">
        <ele>1968</ele>
        <time>2020-07-07T10:56:41.000Z</time>
      </trkpt>
      <trkpt lat="44.4" lon="6.40876">
        <ele>1967</ele>
        <time>2020-07-07T10:56:42.000Z</time>
      </trkpt>
      <trkpt lat="44.39999" lon="6.40877">
        <ele>1967</ele>
        <time>2020-07-07T10:56:43.000Z</time>
      </trkpt>
      <trkpt lat="44.39997" lon="6.40877">
        <ele>1967</ele>
        <time>2020-07-07T10:56:44.000Z</time>
      </trkpt>
      <trkpt lat="44.39996" lon="6.40877">
        <ele>1967</ele>
        <time>2020-07-07T10:56:45.000Z</time>
      </trkpt>
      <trkpt lat="44.39995" lon="6.40877">
        <ele>1967</ele>
        <time>2020-07-07T10:56:46.000Z</time>
      </trkpt>
      <trkpt lat="44.39994" lon="6.40877">
        <ele>1967</ele>
        <time>2020-07-07T10:56:47.000Z</time>
      </trkpt>
      <trkpt lat="44.39993" lon="6.40878">
        <ele>1966</ele>
        <time>2020-07-07T10:56:48.000Z</time>
      </trkpt>
      <trkpt lat="44.39991" lon="6.40878">
        <ele>1966</ele>
        <time>2020-07-07T10:56:49.000Z</time>
      </trkpt>
      <trkpt lat="44.3999" lon="6.40878">
        <ele>1966</ele>
        <time>2020-07-07T10:56:50.000Z</time>
      </trkpt>
      <trkpt lat="44.39989" lon="6.40878">
        <ele>1966</ele>
        <time>2020-07-07T10:56:51.000Z</time>
      </trkpt>
      <trkpt lat="44.39988" lon="6.40878">
        <ele>1966</ele>
        <time>2020-07-07T10:56:52.000Z</time>
      </trkpt>
      <trkpt lat="44.39987" lon="6.40877">
        <ele>1966</ele>
        <time>2020-07-07T10:56:53.000Z</time>
      </trkpt>
      <trkpt lat="44.39986" lon="6.40877">
        <ele>1966</ele>
        <time>2020-07-07T10:56:54.000Z</time>
      </trkpt>
      <trkpt lat="44.39985" lon="6.40877">
        <ele>1966</ele>
        <time>2020-07-07T10:56:55.000Z</time>
      </trkpt>
      <trkpt lat="44.39983" lon="6.40877">
        <ele>1966</ele>
        <time>2020-07-07T10:56:56.000Z</time>
      </trkpt>
      <trkpt lat="44.39982" lon="6.40877">
        <ele>1965</ele>
        <time>2020-07-07T10:56:57.000Z</time>
      </trkpt>
      <trkpt lat="44.39981" lon="6.40877">
        <ele>1965</ele>
        <time>2020-07-07T10:56:58.000Z</time>
      </trkpt>
      <trkpt lat="44.3998" lon="6.40876">
        <ele>1965</ele>
        <time>2020-07-07T10:56:59.000Z</time>
      </trkpt>
      <trkpt lat="44.39979" lon="6.40876">
        <ele>1965</ele>
        <time>2020-07-07T10:57:00.000Z</time>
      </trkpt>
      <trkpt lat="44.39978" lon="6.40876">
        <ele>1965</ele>
        <time>2020-07-07T10:57:01.000Z</time>
      </trkpt>
      <trkpt lat="44.39977" lon="6.40875">
        <ele>1965</ele>
        <time>2020-07-07T10:57:02.000Z</time>
      </trkpt>
      <trkpt lat="44.39976" lon="6.40875">
        <ele>1965</ele>
        <time>2020-07-07T10:57:03.000Z</time>
      </trkpt>
      <trkpt lat="44.39975" lon="6.40875">
        <ele>1965</ele>
        <time>2020-07-07T10:57:04.000Z</time>
      </trkpt>
      <trkpt lat="44.39974" lon="6.40874">
        <ele>1965</ele>
        <time>2020-07-07T10:57:05.000Z</time>
      </trkpt>
      <trkpt lat="44.39973" lon="6.40874">
        <ele>1965</ele>
        <time>2020-07-07T10:57:06.000Z</time>
      </trkpt>
      <trkpt lat="44.39972" lon="6.40874">
        <ele>1965</ele>
        <time>2020-07-07T10:57:07.000Z</time>
      </trkpt>
      <trkpt lat="44.39971" lon="6.40874">
        <ele>1965</ele>
        <time>2020-07-07T10:57:08.000Z</time>
      </trkpt>
      <trkpt lat="44.3997" lon="6.40873">
        <ele>1965</ele>
        <time>2020-07-07T10:57:09.000Z</time>
      </trkpt>
      <trkpt lat="44.39969" lon="6.40872">
        <ele>1965</ele>
        <time>2020-07-07T10:57:10.000Z</time>
      </trkpt>
      <trkpt lat="44.39969" lon="6.40872">
        <ele>1965</ele>
        <time>2020-07-07T10:57:11.000Z</time>
      </trkpt>
      <trkpt lat="44.39968" lon="6.40871">
        <ele>1965</ele>
        <time>2020-07-07T10:57:12.000Z</time>
      </trkpt>
      <trkpt lat="44.39967" lon="6.4087">
        <ele>1965</ele>
        <time>2020-07-07T10:57:13.000Z</time>
      </trkpt>
      <trkpt lat="44.39966" lon="6.4087">
        <ele>1965</ele>
        <time>2020-07-07T10:57:14.000Z</time>
      </trkpt>
      <trkpt lat="44.39965" lon="6.40869">
        <ele>1965</ele>
        <time>2020-07-07T10:57:15.000Z</time>
      </trkpt>
      <trkpt lat="44.39964" lon="6.40868">
        <ele>1965</ele>
        <time>2020-07-07T10:57:16.000Z</time>
      </trkpt>
      <trkpt lat="44.39964" lon="6.40867">
        <ele>1966</ele>
        <time>2020-07-07T10:57:17.000Z</time>
      </trkpt>
      <trkpt lat="44.39963" lon="6.40867">
        <ele>1966</ele>
        <time>2020-07-07T10:57:18.000Z</time>
      </trkpt>
      <trkpt lat="44.39963" lon="6.40866">
        <ele>1966</ele>
        <time>2020-07-07T10:57:19.000Z</time>
      </trkpt>
      <trkpt lat="44.39962" lon="6.40866">
        <ele>1966</ele>
        <time>2020-07-07T10:57:20.000Z</time>
      </trkpt>
      <trkpt lat="44.39961" lon="6.40865">
        <ele>1965</ele>
        <time>2020-07-07T10:57:21.000Z</time>
      </trkpt>
      <trkpt lat="44.39961" lon="6.40865">
        <ele>1965</ele>
        <time>2020-07-07T10:57:22.000Z</time>
      </trkpt>
      <trkpt lat="44.3996" lon="6.40864">
        <ele>1965</ele>
        <time>2020-07-07T10:57:23.000Z</time>
      </trkpt>
      <trkpt lat="44.39959" lon="6.40864">
        <ele>1965</ele>
        <time>2020-07-07T10:57:24.000Z</time>
      </trkpt>
      <trkpt lat="44.39959" lon="6.40864">
        <ele>1965</ele>
        <time>2020-07-07T10:57:25.000Z</time>
      </trkpt>
      <trkpt lat="44.39958" lon="6.40863">
        <ele>1965</ele>
        <time>2020-07-07T10:57:26.000Z</time>
      </trkpt>
      <trkpt lat="44.39958" lon="6.40862">
        <ele>1965</ele>
        <time>2020-07-07T10:57:27.000Z</time>
      </trkpt>
      <trkpt lat="44.39957" lon="6.40862">
        <ele>1965</ele>
        <time>2020-07-07T10:57:28.000Z</time>
      </trkpt>
      <trkpt lat="44.39956" lon="6.40861">
        <ele>1966</ele>
        <time>2020-07-07T10:57:29.000Z</time>
      </trkpt>
      <trkpt lat="44.39956" lon="6.40861">
        <ele>1966</ele>
        <time>2020-07-07T10:57:30.000Z</time>
      </trkpt>
      <trkpt lat="44.39955" lon="6.4086">
        <ele>1966</ele>
        <time>2020-07-07T10:57:31.000Z</time>
      </trkpt>
      <trkpt lat="44.39954" lon="6.4086">
        <ele>1966</ele>
        <time>2020-07-07T10:57:32.000Z</time>
      </trkpt>
      <trkpt lat="44.39954" lon="6.40859">
        <ele>1966</ele>
        <time>2020-07-07T10:57:33.000Z</time>
      </trkpt>
      <trkpt lat="44.39953" lon="6.40859">
        <ele>1966</ele>
        <time>2020-07-07T10:57:34.000Z</time>
      </trkpt>
      <trkpt lat="44.39952" lon="6.40858">
        <ele>1966</ele>
        <time>2020-07-07T10:57:35.000Z</time>
      </trkpt>
      <trkpt lat="44.39952" lon="6.40858">
        <ele>1966</ele>
        <time>2020-07-07T10:57:36.000Z</time>
      </trkpt>
      <trkpt lat="44.39951" lon="6.40858">
        <ele>1967</ele>
        <time>2020-07-07T10:57:37.000Z</time>
      </trkpt>
      <trkpt lat="44.3995" lon="6.40858">
        <ele>1967</ele>
        <time>2020-07-07T10:57:38.000Z</time>
      </trkpt>
      <trkpt lat="44.3995" lon="6.40857">
        <ele>1967</ele>
        <time>2020-07-07T10:57:39.000Z</time>
      </trkpt>
      <trkpt lat="44.39949" lon="6.40857">
        <ele>1967</ele>
        <time>2020-07-07T10:57:40.000Z</time>
      </trkpt>
      <trkpt lat="44.39949" lon="6.40856">
        <ele>1967</ele>
        <time>2020-07-07T10:57:41.000Z</time>
      </trkpt>
      <trkpt lat="44.39948" lon="6.40856">
        <ele>1967</ele>
        <time>2020-07-07T10:57:42.000Z</time>
      </trkpt>
      <trkpt lat="44.39948" lon="6.40856">
        <ele>1967</ele>
        <time>2020-07-07T10:57:43.000Z</time>
      </trkpt>
      <trkpt lat="44.39947" lon="6.40855">
        <ele>1967</ele>
        <time>2020-07-07T10:57:44.000Z</time>
      </trkpt>
      <trkpt lat="44.39947" lon="6.40855">
        <ele>1967</ele>
        <time>2020-07-07T10:57:45.000Z</time>
      </trkpt>
      <trkpt lat="44.39947" lon="6.40854">
        <ele>1967</ele>
        <time>2020-07-07T10:57:46.000Z</time>
      </trkpt>
      <trkpt lat="44.39946" lon="6.40854">
        <ele>1967</ele>
        <time>2020-07-07T10:57:47.000Z</time>
      </trkpt>
      <trkpt lat="44.39946" lon="6.40853">
        <ele>1967</ele>
        <time>2020-07-07T10:57:48.000Z</time>
      </trkpt>
      <trkpt lat="44.39945" lon="6.40853">
        <ele>1967</ele>
        <time>2020-07-07T10:57:49.000Z</time>
      </trkpt>
      <trkpt lat="44.39945" lon="6.40852">
        <ele>1967</ele>
        <time>2020-07-07T10:57:50.000Z</time>
      </trkpt>
      <trkpt lat="44.39944" lon="6.40851">
        <ele>1967</ele>
        <time>2020-07-07T10:57:51.000Z</time>
      </trkpt>
      <trkpt lat="44.39943" lon="6.40851">
        <ele>1967</ele>
        <time>2020-07-07T10:57:52.000Z</time>
      </trkpt>
      <trkpt lat="44.39943" lon="6.40851">
        <ele>1968</ele>
        <time>2020-07-07T10:57:53.000Z</time>
      </trkpt>
      <trkpt lat="44.39942" lon="6.40851">
        <ele>1968</ele>
        <time>2020-07-07T10:57:54.000Z</time>
      </trkpt>
      <trkpt lat="44.39941" lon="6.40851">
        <ele>1968</ele>
        <time>2020-07-07T10:57:55.000Z</time>
      </trkpt>
      <trkpt lat="44.39941" lon="6.40851">
        <ele>1968</ele>
        <time>2020-07-07T10:57:56.000Z</time>
      </trkpt>
      <trkpt lat="44.3994" lon="6.40851">
        <ele>1968</ele>
        <time>2020-07-07T10:57:57.000Z</time>
      </trkpt>
      <trkpt lat="44.3994" lon="6.40851">
        <ele>1968</ele>
        <time>2020-07-07T10:57:58.000Z</time>
      </trkpt>
      <trkpt lat="44.39939" lon="6.40851">
        <ele>1968</ele>
        <time>2020-07-07T10:57:59.000Z</time>
      </trkpt>
      <trkpt lat="44.39939" lon="6.4085">
        <ele>1968</ele>
        <time>2020-07-07T10:58:00.000Z</time>
      </trkpt>
      <trkpt lat="44.39939" lon="6.4085">
        <ele>1968</ele>
        <time>2020-07-07T10:58:01.000Z</time>
      </trkpt>
      <trkpt lat="44.39939" lon="6.4085">
        <ele>1968</ele>
        <time>2020-07-07T10:58:02.000Z</time>
      </trkpt>
      <trkpt lat="44.39939" lon="6.40851">
        <ele>1968</ele>
        <time>2020-07-07T10:58:03.000Z</time>
      </trkpt>
      <trkpt lat="44.39939" lon="6.40851">
        <ele>1968</ele>
        <time>2020-07-07T10:58:04.000Z</time>
      </trkpt>
      <trkpt lat="44.39939" lon="6.40851">
        <ele>1968</ele>
        <time>2020-07-07T10:58:05.000Z</time>
      </trkpt>
      <trkpt lat="44.39939" lon="6.40851">
        <ele>1968</ele>
        <time>2020-07-07T10:58:06.000Z</time>
      </trkpt>
      <trkpt lat="44.39939" lon="6.4085">
        <ele>1968</ele>
        <time>2020-07-07T10:58:07.000Z</time>
      </trkpt>
      <trkpt lat="44.39939" lon="6.4085">
        <ele>1968</ele>
        <time>2020-07-07T10:58:08.000Z</time>
      </trkpt>
      <trkpt lat="44.39939" lon="6.4085">
        <ele>1969</ele>
        <time>2020-07-07T10:58:09.000Z</time>
      </trkpt>
      <trkpt lat="44.39939" lon="6.4085">
        <ele>1969</ele>
        <time>2020-07-07T10:58:10.000Z</time>
      </trkpt>
      <trkpt lat="44.39939" lon="6.4085">
        <ele>1969</ele>
        <time>2020-07-07T10:58:11.000Z</time>
      </trkpt>
      <trkpt lat="44.39939" lon="6.40851">
        <ele>1969</ele>
        <time>2020-07-07T10:58:12.000Z</time>
      </trkpt>
      <trkpt lat="44.39939" lon="6.40851">
        <ele>1969</ele>
        <time>2020-07-07T10:58:13.000Z</time>
      </trkpt>
      <trkpt lat="44.39938" lon="6.40851">
        <ele>1969</ele>
        <time>2020-07-07T10:58:14.000Z</time>
      </trkpt>
      <trkpt lat="44.39938" lon="6.40851">
        <ele>1969</ele>
        <time>2020-07-07T10:58:15.000Z</time>
      </trkpt>
      <trkpt lat="44.39937" lon="6.40851">
        <ele>1969</ele>
        <time>2020-07-07T10:58:16.000Z</time>
      </trkpt>
      <trkpt lat="44.39937" lon="6.40851">
        <ele>1969</ele>
        <time>2020-07-07T10:58:17.000Z</time>
      </trkpt>
      <trkpt lat="44.39936" lon="6.4085">
        <ele>1969</ele>
        <time>2020-07-07T10:58:18.000Z</time>
      </trkpt>
      <trkpt lat="44.39936" lon="6.4085">
        <ele>1969</ele>
        <time>2020-07-07T10:58:19.000Z</time>
      </trkpt>
      <trkpt lat="44.39936" lon="6.40849">
        <ele>1969</ele>
        <time>2020-07-07T10:58:20.000Z</time>
      </trkpt>
      <trkpt lat="44.39936" lon="6.40849">
        <ele>1969</ele>
        <time>2020-07-07T10:58:21.000Z</time>
      </trkpt>
      <trkpt lat="44.39935" lon="6.40848">
        <ele>1969</ele>
        <time>2020-07-07T10:58:22.000Z</time>
      </trkpt>
      <trkpt lat="44.39935" lon="6.40848">
        <ele>1969</ele>
        <time>2020-07-07T10:58:23.000Z</time>
      </trkpt>
      <trkpt lat="44.39934" lon="6.40848">
        <ele>1969</ele>
        <time>2020-07-07T10:58:24.000Z</time>
      </trkpt>
      <trkpt lat="44.39934" lon="6.40848">
        <ele>1969</ele>
        <time>2020-07-07T10:58:25.000Z</time>
      </trkpt>
      <trkpt lat="44.39933" lon="6.40848">
        <ele>1969</ele>
        <time>2020-07-07T10:58:26.000Z</time>
      </trkpt>
      <trkpt lat="44.39933" lon="6.40847">
        <ele>1969</ele>
        <time>2020-07-07T10:58:27.000Z</time>
      </trkpt>
      <trkpt lat="44.39932" lon="6.40847">
        <ele>1969</ele>
        <time>2020-07-07T10:58:28.000Z</time>
      </trkpt>
      <trkpt lat="44.39931" lon="6.40847">
        <ele>1969</ele>
        <time>2020-07-07T10:58:29.000Z</time>
      </trkpt>
      <trkpt lat="44.39931" lon="6.40846">
        <ele>1970</ele>
        <time>2020-07-07T10:58:30.000Z</time>
      </trkpt>
      <trkpt lat="44.3993" lon="6.40846">
        <ele>1970</ele>
        <time>2020-07-07T10:58:31.000Z</time>
      </trkpt>
      <trkpt lat="44.3993" lon="6.40846">
        <ele>1970</ele>
        <time>2020-07-07T10:58:32.000Z</time>
      </trkpt>
      <trkpt lat="44.39929" lon="6.40845">
        <ele>1970</ele>
        <time>2020-07-07T10:58:33.000Z</time>
      </trkpt>
      <trkpt lat="44.39929" lon="6.40845">
        <ele>1970</ele>
        <time>2020-07-07T10:58:34.000Z</time>
      </trkpt>
      <trkpt lat="44.39928" lon="6.40846">
        <ele>1970</ele>
        <time>2020-07-07T10:58:35.000Z</time>
      </trkpt>
      <trkpt lat="44.39928" lon="6.40846">
        <ele>1970</ele>
        <time>2020-07-07T10:58:36.000Z</time>
      </trkpt>
      <trkpt lat="44.39927" lon="6.40846">
        <ele>1970</ele>
        <time>2020-07-07T10:58:37.000Z</time>
      </trkpt>
      <trkpt lat="44.39926" lon="6.40846">
        <ele>1970</ele>
        <time>2020-07-07T10:58:38.000Z</time>
      </trkpt>
      <trkpt lat="44.39926" lon="6.40845">
        <ele>1971</ele>
        <time>2020-07-07T10:58:39.000Z</time>
      </trkpt>
      <trkpt lat="44.39926" lon="6.40846">
        <ele>1971</ele>
        <time>2020-07-07T10:58:40.000Z</time>
      </trkpt>
      <trkpt lat="44.39925" lon="6.40846">
        <ele>1971</ele>
        <time>2020-07-07T10:58:41.000Z</time>
      </trkpt>
      <trkpt lat="44.39926" lon="6.40846">
        <ele>1971</ele>
        <time>2020-07-07T10:58:42.000Z</time>
      </trkpt>
      <trkpt lat="44.39926" lon="6.40846">
        <ele>1971</ele>
        <time>2020-07-07T10:58:43.000Z</time>
      </trkpt>
      <trkpt lat="44.39925" lon="6.40846">
        <ele>1971</ele>
        <time>2020-07-07T10:58:44.000Z</time>
      </trkpt>
      <trkpt lat="44.39925" lon="6.40845">
        <ele>1971</ele>
        <time>2020-07-07T10:58:45.000Z</time>
      </trkpt>
      <trkpt lat="44.39925" lon="6.40845">
        <ele>1971</ele>
        <time>2020-07-07T10:58:46.000Z</time>
      </trkpt>
      <trkpt lat="44.39925" lon="6.40845">
        <ele>1971</ele>
        <time>2020-07-07T10:58:47.000Z</time>
      </trkpt>
      <trkpt lat="44.39925" lon="6.40845">
        <ele>1971</ele>
        <time>2020-07-07T10:58:48.000Z</time>
      </trkpt>
      <trkpt lat="44.39925" lon="6.40846">
        <ele>1971</ele>
        <time>2020-07-07T10:58:49.000Z</time>
      </trkpt>
      <trkpt lat="44.39925" lon="6.40846">
        <ele>1971</ele>
        <time>2020-07-07T10:58:50.000Z</time>
      </trkpt>
      <trkpt lat="44.39925" lon="6.40846">
        <ele>1971</ele>
        <time>2020-07-07T10:58:51.000Z</time>
      </trkpt>
      <trkpt lat="44.39925" lon="6.40846">
        <ele>1971</ele>
        <time>2020-07-07T10:58:52.000Z</time>
      </trkpt>
      <trkpt lat="44.39925" lon="6.40845">
        <ele>1971</ele>
        <time>2020-07-07T10:58:53.000Z</time>
      </trkpt>
      <trkpt lat="44.39924" lon="6.40845">
        <ele>1972</ele>
        <time>2020-07-07T10:58:54.000Z</time>
      </trkpt>
      <trkpt lat="44.39924" lon="6.40845">
        <ele>1972</ele>
        <time>2020-07-07T10:58:55.000Z</time>
      </trkpt>
      <trkpt lat="44.39923" lon="6.40845">
        <ele>1972</ele>
        <time>2020-07-07T10:58:56.000Z</time>
      </trkpt>
      <trkpt lat="44.39922" lon="6.40844">
        <ele>1972</ele>
        <time>2020-07-07T10:58:57.000Z</time>
      </trkpt>
      <trkpt lat="44.39922" lon="6.40844">
        <ele>1972</ele>
        <time>2020-07-07T10:58:58.000Z</time>
      </trkpt>
      <trkpt lat="44.39921" lon="6.40843">
        <ele>1972</ele>
        <time>2020-07-07T10:58:59.000Z</time>
      </trkpt>
      <trkpt lat="44.39921" lon="6.40842">
        <ele>1973</ele>
        <time>2020-07-07T10:59:00.000Z</time>
      </trkpt>
      <trkpt lat="44.3992" lon="6.40841">
        <ele>1973</ele>
        <time>2020-07-07T10:59:01.000Z</time>
      </trkpt>
      <trkpt lat="44.3992" lon="6.4084">
        <ele>1973</ele>
        <time>2020-07-07T10:59:02.000Z</time>
      </trkpt>
      <trkpt lat="44.3992" lon="6.4084">
        <ele>1973</ele>
        <time>2020-07-07T10:59:03.000Z</time>
      </trkpt>
      <trkpt lat="44.39919" lon="6.40839">
        <ele>1973</ele>
        <time>2020-07-07T10:59:04.000Z</time>
      </trkpt>
      <trkpt lat="44.39919" lon="6.40838">
        <ele>1973</ele>
        <time>2020-07-07T10:59:05.000Z</time>
      </trkpt>
      <trkpt lat="44.39918" lon="6.40837">
        <ele>1974</ele>
        <time>2020-07-07T10:59:06.000Z</time>
      </trkpt>
      <trkpt lat="44.39918" lon="6.40837">
        <ele>1974</ele>
        <time>2020-07-07T10:59:07.000Z</time>
      </trkpt>
      <trkpt lat="44.39918" lon="6.40836">
        <ele>1974</ele>
        <time>2020-07-07T10:59:08.000Z</time>
      </trkpt>
      <trkpt lat="44.39918" lon="6.40835">
        <ele>1974</ele>
        <time>2020-07-07T10:59:09.000Z</time>
      </trkpt>
      <trkpt lat="44.39917" lon="6.40835">
        <ele>1974</ele>
        <time>2020-07-07T10:59:10.000Z</time>
      </trkpt>
      <trkpt lat="44.39917" lon="6.40834">
        <ele>1975</ele>
        <time>2020-07-07T10:59:11.000Z</time>
      </trkpt>
      <trkpt lat="44.39917" lon="6.40833">
        <ele>1975</ele>
        <time>2020-07-07T10:59:12.000Z</time>
      </trkpt>
      <trkpt lat="44.39916" lon="6.40833">
        <ele>1975</ele>
        <time>2020-07-07T10:59:13.000Z</time>
      </trkpt>
      <trkpt lat="44.39916" lon="6.40832">
        <ele>1975</ele>
        <time>2020-07-07T10:59:14.000Z</time>
      </trkpt>
      <trkpt lat="44.39916" lon="6.40831">
        <ele>1975</ele>
        <time>2020-07-07T10:59:15.000Z</time>
      </trkpt>
      <trkpt lat="44.39915" lon="6.4083">
        <ele>1975</ele>
        <time>2020-07-07T10:59:16.000Z</time>
      </trkpt>
      <trkpt lat="44.39915" lon="6.4083">
        <ele>1975</ele>
        <time>2020-07-07T10:59:17.000Z</time>
      </trkpt>
      <trkpt lat="44.39915" lon="6.40829">
        <ele>1976</ele>
        <time>2020-07-07T10:59:18.000Z</time>
      </trkpt>
      <trkpt lat="44.39914" lon="6.40828">
        <ele>1976</ele>
        <time>2020-07-07T10:59:19.000Z</time>
      </trkpt>
      <trkpt lat="44.39914" lon="6.40828">
        <ele>1976</ele>
        <time>2020-07-07T10:59:20.000Z</time>
      </trkpt>
      <trkpt lat="44.39913" lon="6.40828">
        <ele>1976</ele>
        <time>2020-07-07T10:59:21.000Z</time>
      </trkpt>
      <trkpt lat="44.39913" lon="6.40827">
        <ele>1976</ele>
        <time>2020-07-07T10:59:22.000Z</time>
      </trkpt>
      <trkpt lat="44.39912" lon="6.40827">
        <ele>1975</ele>
        <time>2020-07-07T10:59:23.000Z</time>
      </trkpt>
      <trkpt lat="44.39912" lon="6.40826">
        <ele>1975</ele>
        <time>2020-07-07T10:59:24.000Z</time>
      </trkpt>
      <trkpt lat="44.39911" lon="6.40826">
        <ele>1975</ele>
        <time>2020-07-07T10:59:25.000Z</time>
      </trkpt>
      <trkpt lat="44.3991" lon="6.40825">
        <ele>1976</ele>
        <time>2020-07-07T10:59:26.000Z</time>
      </trkpt>
      <trkpt lat="44.3991" lon="6.40824">
        <ele>1976</ele>
        <time>2020-07-07T10:59:27.000Z</time>
      </trkpt>
      <trkpt lat="44.3991" lon="6.40824">
        <ele>1976</ele>
        <time>2020-07-07T10:59:28.000Z</time>
      </trkpt>
      <trkpt lat="44.39909" lon="6.40824">
        <ele>1976</ele>
        <time>2020-07-07T10:59:29.000Z</time>
      </trkpt>
      <trkpt lat="44.39909" lon="6.40823">
        <ele>1976</ele>
        <time>2020-07-07T10:59:30.000Z</time>
      </trkpt>
      <trkpt lat="44.39908" lon="6.40823">
        <ele>1976</ele>
        <time>2020-07-07T10:59:31.000Z</time>
      </trkpt>
      <trkpt lat="44.39907" lon="6.40823">
        <ele>1976</ele>
        <time>2020-07-07T10:59:32.000Z</time>
      </trkpt>
      <trkpt lat="44.39907" lon="6.40823">
        <ele>1976</ele>
        <time>2020-07-07T10:59:33.000Z</time>
      </trkpt>
      <trkpt lat="44.39906" lon="6.40822">
        <ele>1976</ele>
        <time>2020-07-07T10:59:34.000Z</time>
      </trkpt>
      <trkpt lat="44.39905" lon="6.40822">
        <ele>1976</ele>
        <time>2020-07-07T10:59:35.000Z</time>
      </trkpt>
      <trkpt lat="44.39905" lon="6.40822">
        <ele>1976</ele>
        <time>2020-07-07T10:59:36.000Z</time>
      </trkpt>
      <trkpt lat="44.39904" lon="6.40822">
        <ele>1976</ele>
        <time>2020-07-07T10:59:37.000Z</time>
      </trkpt>
      <trkpt lat="44.39903" lon="6.40822">
        <ele>1976</ele>
        <time>2020-07-07T10:59:38.000Z</time>
      </trkpt>
      <trkpt lat="44.39902" lon="6.40822">
        <ele>1977</ele>
        <time>2020-07-07T10:59:39.000Z</time>
      </trkpt>
      <trkpt lat="44.39901" lon="6.40822">
        <ele>1977</ele>
        <time>2020-07-07T10:59:40.000Z</time>
      </trkpt>
      <trkpt lat="44.39901" lon="6.40823">
        <ele>1977</ele>
        <time>2020-07-07T10:59:41.000Z</time>
      </trkpt>
      <trkpt lat="44.399" lon="6.40823">
        <ele>1977</ele>
        <time>2020-07-07T10:59:42.000Z</time>
      </trkpt>
      <trkpt lat="44.39899" lon="6.40822">
        <ele>1977</ele>
        <time>2020-07-07T10:59:43.000Z</time>
      </trkpt>
      <trkpt lat="44.39898" lon="6.40822">
        <ele>1977</ele>
        <time>2020-07-07T10:59:44.000Z</time>
      </trkpt>
      <trkpt lat="44.39898" lon="6.40822">
        <ele>1978</ele>
        <time>2020-07-07T10:59:45.000Z</time>
      </trkpt>
      <trkpt lat="44.39897" lon="6.40821">
        <ele>1978</ele>
        <time>2020-07-07T10:59:46.000Z</time>
      </trkpt>
      <trkpt lat="44.39897" lon="6.40821">
        <ele>1978</ele>
        <time>2020-07-07T10:59:47.000Z</time>
      </trkpt>
      <trkpt lat="44.39897" lon="6.40821">
        <ele>1978</ele>
        <time>2020-07-07T10:59:48.000Z</time>
      </trkpt>
      <trkpt lat="44.39897" lon="6.40821">
        <ele>1978</ele>
        <time>2020-07-07T10:59:49.000Z</time>
      </trkpt>
      <trkpt lat="44.39897" lon="6.40821">
        <ele>1978</ele>
        <time>2020-07-07T10:59:50.000Z</time>
      </trkpt>
      <trkpt lat="44.39897" lon="6.40821">
        <ele>1978</ele>
        <time>2020-07-07T10:59:51.000Z</time>
      </trkpt>
      <trkpt lat="44.39897" lon="6.40821">
        <ele>1978</ele>
        <time>2020-07-07T10:59:52.000Z</time>
      </trkpt>
      <trkpt lat="44.39897" lon="6.40821">
        <ele>1978</ele>
        <time>2020-07-07T10:59:53.000Z</time>
      </trkpt>
      <trkpt lat="44.39897" lon="6.40821">
        <ele>1978</ele>
        <time>2020-07-07T10:59:54.000Z</time>
      </trkpt>
      <trkpt lat="44.39897" lon="6.40821">
        <ele>1978</ele>
        <time>2020-07-07T10:59:55.000Z</time>
      </trkpt>
      <trkpt lat="44.39896" lon="6.40821">
        <ele>1978</ele>
        <time>2020-07-07T10:59:56.000Z</time>
      </trkpt>
      <trkpt lat="44.39896" lon="6.4082">
        <ele>1978</ele>
        <time>2020-07-07T10:59:57.000Z</time>
      </trkpt>
      <trkpt lat="44.39895" lon="6.4082">
        <ele>1978</ele>
        <time>2020-07-07T10:59:58.000Z</time>
      </trkpt>
      <trkpt lat="44.39895" lon="6.40819">
        <ele>1978</ele>
        <time>2020-07-07T10:59:59.000Z</time>
      </trkpt>
      <trkpt lat="44.39894" lon="6.40818">
        <ele>1978</ele>
        <time>2020-07-07T11:00:00.000Z</time>
      </trkpt>
      <trkpt lat="44.39894" lon="6.40817">
        <ele>1978</ele>
        <time>2020-07-07T11:00:01.000Z</time>
      </trkpt>
      <trkpt lat="44.39893" lon="6.40816">
        <ele>1978</ele>
        <time>2020-07-07T11:00:02.000Z</time>
      </trkpt>
      <trkpt lat="44.39893" lon="6.40815">
        <ele>1978</ele>
        <time>2020-07-07T11:00:03.000Z</time>
      </trkpt>
      <trkpt lat="44.39893" lon="6.40814">
        <ele>1979</ele>
        <time>2020-07-07T11:00:04.000Z</time>
      </trkpt>
      <trkpt lat="44.39892" lon="6.40814">
        <ele>1979</ele>
        <time>2020-07-07T11:00:05.000Z</time>
      </trkpt>
      <trkpt lat="44.39892" lon="6.40813">
        <ele>1979</ele>
        <time>2020-07-07T11:00:06.000Z</time>
      </trkpt>
      <trkpt lat="44.39891" lon="6.40813">
        <ele>1979</ele>
        <time>2020-07-07T11:00:07.000Z</time>
      </trkpt>
      <trkpt lat="44.3989" lon="6.40812">
        <ele>1979</ele>
        <time>2020-07-07T11:00:08.000Z</time>
      </trkpt>
      <trkpt lat="44.3989" lon="6.40812">
        <ele>1979</ele>
        <time>2020-07-07T11:00:09.000Z</time>
      </trkpt>
      <trkpt lat="44.39889" lon="6.40811">
        <ele>1979</ele>
        <time>2020-07-07T11:00:10.000Z</time>
      </trkpt>
      <trkpt lat="44.39889" lon="6.4081">
        <ele>1979</ele>
        <time>2020-07-07T11:00:11.000Z</time>
      </trkpt>
      <trkpt lat="44.39888" lon="6.4081">
        <ele>1979</ele>
        <time>2020-07-07T11:00:12.000Z</time>
      </trkpt>
      <trkpt lat="44.39888" lon="6.40809">
        <ele>1979</ele>
        <time>2020-07-07T11:00:13.000Z</time>
      </trkpt>
      <trkpt lat="44.39888" lon="6.40808">
        <ele>1979</ele>
        <time>2020-07-07T11:00:14.000Z</time>
      </trkpt>
      <trkpt lat="44.39887" lon="6.40807">
        <ele>1979</ele>
        <time>2020-07-07T11:00:15.000Z</time>
      </trkpt>
      <trkpt lat="44.39887" lon="6.40807">
        <ele>1979</ele>
        <time>2020-07-07T11:00:16.000Z</time>
      </trkpt>
      <trkpt lat="44.39886" lon="6.40806">
        <ele>1979</ele>
        <time>2020-07-07T11:00:17.000Z</time>
      </trkpt>
      <trkpt lat="44.39885" lon="6.40806">
        <ele>1979</ele>
        <time>2020-07-07T11:00:18.000Z</time>
      </trkpt>
      <trkpt lat="44.39885" lon="6.40805">
        <ele>1979</ele>
        <time>2020-07-07T11:00:19.000Z</time>
      </trkpt>
      <trkpt lat="44.39885" lon="6.40804">
        <ele>1979</ele>
        <time>2020-07-07T11:00:20.000Z</time>
      </trkpt>
      <trkpt lat="44.39884" lon="6.40803">
        <ele>1979</ele>
        <time>2020-07-07T11:00:21.000Z</time>
      </trkpt>
      <trkpt lat="44.39884" lon="6.40803">
        <ele>1979</ele>
        <time>2020-07-07T11:00:22.000Z</time>
      </trkpt>
      <trkpt lat="44.39884" lon="6.40802">
        <ele>1980</ele>
        <time>2020-07-07T11:00:23.000Z</time>
      </trkpt>
      <trkpt lat="44.39883" lon="6.40801">
        <ele>1980</ele>
        <time>2020-07-07T11:00:24.000Z</time>
      </trkpt>
      <trkpt lat="44.39882" lon="6.40801">
        <ele>1980</ele>
        <time>2020-07-07T11:00:25.000Z</time>
      </trkpt>
      <trkpt lat="44.39882" lon="6.408">
        <ele>1980</ele>
        <time>2020-07-07T11:00:26.000Z</time>
      </trkpt>
      <trkpt lat="44.39881" lon="6.40799">
        <ele>1980</ele>
        <time>2020-07-07T11:00:27.000Z</time>
      </trkpt>
      <trkpt lat="44.39881" lon="6.40799">
        <ele>1980</ele>
        <time>2020-07-07T11:00:28.000Z</time>
      </trkpt>
      <trkpt lat="44.3988" lon="6.40798">
        <ele>1980</ele>
        <time>2020-07-07T11:00:29.000Z</time>
      </trkpt>
      <trkpt lat="44.39879" lon="6.40798">
        <ele>1981</ele>
        <time>2020-07-07T11:00:30.000Z</time>
      </trkpt>
      <trkpt lat="44.39879" lon="6.40798">
        <ele>1981</ele>
        <time>2020-07-07T11:00:31.000Z</time>
      </trkpt>
      <trkpt lat="44.39878" lon="6.40798">
        <ele>1981</ele>
        <time>2020-07-07T11:00:32.000Z</time>
      </trkpt>
      <trkpt lat="44.39878" lon="6.40797">
        <ele>1981</ele>
        <time>2020-07-07T11:00:33.000Z</time>
      </trkpt>
      <trkpt lat="44.39877" lon="6.40796">
        <ele>1981</ele>
        <time>2020-07-07T11:00:34.000Z</time>
      </trkpt>
      <trkpt lat="44.39877" lon="6.40796">
        <ele>1981</ele>
        <time>2020-07-07T11:00:35.000Z</time>
      </trkpt>
      <trkpt lat="44.39877" lon="6.40795">
        <ele>1981</ele>
        <time>2020-07-07T11:00:36.000Z</time>
      </trkpt>
      <trkpt lat="44.39876" lon="6.40796">
        <ele>1981</ele>
        <time>2020-07-07T11:00:37.000Z</time>
      </trkpt>
      <trkpt lat="44.39876" lon="6.40796">
        <ele>1982</ele>
        <time>2020-07-07T11:00:38.000Z</time>
      </trkpt>
      <trkpt lat="44.39876" lon="6.40796">
        <ele>1982</ele>
        <time>2020-07-07T11:00:39.000Z</time>
      </trkpt>
      <trkpt lat="44.39876" lon="6.40795">
        <ele>1982</ele>
        <time>2020-07-07T11:00:40.000Z</time>
      </trkpt>
      <trkpt lat="44.39876" lon="6.40795">
        <ele>1982</ele>
        <time>2020-07-07T11:00:41.000Z</time>
      </trkpt>
      <trkpt lat="44.39876" lon="6.40795">
        <ele>1982</ele>
        <time>2020-07-07T11:00:42.000Z</time>
      </trkpt>
      <trkpt lat="44.39876" lon="6.40796">
        <ele>1982</ele>
        <time>2020-07-07T11:00:43.000Z</time>
      </trkpt>
      <trkpt lat="44.39876" lon="6.40796">
        <ele>1982</ele>
        <time>2020-07-07T11:00:44.000Z</time>
      </trkpt>
      <trkpt lat="44.39876" lon="6.40795">
        <ele>1982</ele>
        <time>2020-07-07T11:00:45.000Z</time>
      </trkpt>
      <trkpt lat="44.39876" lon="6.40796">
        <ele>1982</ele>
        <time>2020-07-07T11:00:46.000Z</time>
      </trkpt>
      <trkpt lat="44.39876" lon="6.40795">
        <ele>1982</ele>
        <time>2020-07-07T11:00:47.000Z</time>
      </trkpt>
      <trkpt lat="44.39876" lon="6.40795">
        <ele>1982</ele>
        <time>2020-07-07T11:00:48.000Z</time>
      </trkpt>
      <trkpt lat="44.39876" lon="6.40795">
        <ele>1982</ele>
        <time>2020-07-07T11:00:49.000Z</time>
      </trkpt>
      <trkpt lat="44.39877" lon="6.40795">
        <ele>1982</ele>
        <time>2020-07-07T11:00:50.000Z</time>
      </trkpt>
      <trkpt lat="44.39877" lon="6.40795">
        <ele>1982</ele>
        <time>2020-07-07T11:00:51.000Z</time>
      </trkpt>
      <trkpt lat="44.39876" lon="6.40795">
        <ele>1982</ele>
        <time>2020-07-07T11:00:52.000Z</time>
      </trkpt>
      <trkpt lat="44.39877" lon="6.40794">
        <ele>1982</ele>
        <time>2020-07-07T11:00:53.000Z</time>
      </trkpt>
      <trkpt lat="44.39877" lon="6.40794">
        <ele>1982</ele>
        <time>2020-07-07T11:00:54.000Z</time>
      </trkpt>
      <trkpt lat="44.39877" lon="6.40793">
        <ele>1982</ele>
        <time>2020-07-07T11:00:55.000Z</time>
      </trkpt>
      <trkpt lat="44.39877" lon="6.40792">
        <ele>1983</ele>
        <time>2020-07-07T11:00:56.000Z</time>
      </trkpt>
      <trkpt lat="44.39877" lon="6.40791">
        <ele>1983</ele>
        <time>2020-07-07T11:00:57.000Z</time>
      </trkpt>
      <trkpt lat="44.39877" lon="6.4079">
        <ele>1983</ele>
        <time>2020-07-07T11:00:58.000Z</time>
      </trkpt>
      <trkpt lat="44.39877" lon="6.40789">
        <ele>1983</ele>
        <time>2020-07-07T11:00:59.000Z</time>
      </trkpt>
      <trkpt lat="44.39877" lon="6.40788">
        <ele>1983</ele>
        <time>2020-07-07T11:01:00.000Z</time>
      </trkpt>
      <trkpt lat="44.39877" lon="6.40787">
        <ele>1983</ele>
        <time>2020-07-07T11:01:01.000Z</time>
      </trkpt>
      <trkpt lat="44.39876" lon="6.40787">
        <ele>1983</ele>
        <time>2020-07-07T11:01:02.000Z</time>
      </trkpt>
      <trkpt lat="44.39876" lon="6.40786">
        <ele>1983</ele>
        <time>2020-07-07T11:01:03.000Z</time>
      </trkpt>
      <trkpt lat="44.39876" lon="6.40786">
        <ele>1984</ele>
        <time>2020-07-07T11:01:04.000Z</time>
      </trkpt>
      <trkpt lat="44.39875" lon="6.40786">
        <ele>1984</ele>
        <time>2020-07-07T11:01:05.000Z</time>
      </trkpt>
      <trkpt lat="44.39875" lon="6.40785">
        <ele>1984</ele>
        <time>2020-07-07T11:01:06.000Z</time>
      </trkpt>
      <trkpt lat="44.39875" lon="6.40784">
        <ele>1984</ele>
        <time>2020-07-07T11:01:07.000Z</time>
      </trkpt>
      <trkpt lat="44.39874" lon="6.40784">
        <ele>1984</ele>
        <time>2020-07-07T11:01:08.000Z</time>
      </trkpt>
      <trkpt lat="44.39874" lon="6.40783">
        <ele>1984</ele>
        <time>2020-07-07T11:01:09.000Z</time>
      </trkpt>
      <trkpt lat="44.39873" lon="6.40782">
        <ele>1984</ele>
        <time>2020-07-07T11:01:10.000Z</time>
      </trkpt>
      <trkpt lat="44.39873" lon="6.40782">
        <ele>1985</ele>
        <time>2020-07-07T11:01:11.000Z</time>
      </trkpt>
      <trkpt lat="44.39872" lon="6.40781">
        <ele>1985</ele>
        <time>2020-07-07T11:01:12.000Z</time>
      </trkpt>
      <trkpt lat="44.39872" lon="6.40781">
        <ele>1985</ele>
        <time>2020-07-07T11:01:13.000Z</time>
      </trkpt>
      <trkpt lat="44.39872" lon="6.40781">
        <ele>1985</ele>
        <time>2020-07-07T11:01:14.000Z</time>
      </trkpt>
      <trkpt lat="44.39871" lon="6.4078">
        <ele>1985</ele>
        <time>2020-07-07T11:01:15.000Z</time>
      </trkpt>
      <trkpt lat="44.39871" lon="6.4078">
        <ele>1986</ele>
        <time>2020-07-07T11:01:16.000Z</time>
      </trkpt>
      <trkpt lat="44.39871" lon="6.40779">
        <ele>1986</ele>
        <time>2020-07-07T11:01:17.000Z</time>
      </trkpt>
      <trkpt lat="44.3987" lon="6.40779">
        <ele>1986</ele>
        <time>2020-07-07T11:01:18.000Z</time>
      </trkpt>
      <trkpt lat="44.39869" lon="6.40778">
        <ele>1986</ele>
        <time>2020-07-07T11:01:19.000Z</time>
      </trkpt>
      <trkpt lat="44.39869" lon="6.40778">
        <ele>1986</ele>
        <time>2020-07-07T11:01:20.000Z</time>
      </trkpt>
      <trkpt lat="44.39868" lon="6.40777">
        <ele>1986</ele>
        <time>2020-07-07T11:01:21.000Z</time>
      </trkpt>
      <trkpt lat="44.39868" lon="6.40776">
        <ele>1986</ele>
        <time>2020-07-07T11:01:22.000Z</time>
      </trkpt>
      <trkpt lat="44.39868" lon="6.40775">
        <ele>1986</ele>
        <time>2020-07-07T11:01:23.000Z</time>
      </trkpt>
      <trkpt lat="44.39868" lon="6.40774">
        <ele>1986</ele>
        <time>2020-07-07T11:01:24.000Z</time>
      </trkpt>
      <trkpt lat="44.39868" lon="6.40773">
        <ele>1987</ele>
        <time>2020-07-07T11:01:25.000Z</time>
      </trkpt>
      <trkpt lat="44.39868" lon="6.40772">
        <ele>1987</ele>
        <time>2020-07-07T11:01:26.000Z</time>
      </trkpt>
      <trkpt lat="44.39868" lon="6.40772">
        <ele>1987</ele>
        <time>2020-07-07T11:01:27.000Z</time>
      </trkpt>
      <trkpt lat="44.39868" lon="6.40771">
        <ele>1987</ele>
        <time>2020-07-07T11:01:28.000Z</time>
      </trkpt>
      <trkpt lat="44.39867" lon="6.4077">
        <ele>1987</ele>
        <time>2020-07-07T11:01:29.000Z</time>
      </trkpt>
      <trkpt lat="44.39867" lon="6.40769">
        <ele>1987</ele>
        <time>2020-07-07T11:01:30.000Z</time>
      </trkpt>
      <trkpt lat="44.39867" lon="6.40768">
        <ele>1988</ele>
        <time>2020-07-07T11:01:31.000Z</time>
      </trkpt>
      <trkpt lat="44.39868" lon="6.40768">
        <ele>1988</ele>
        <time>2020-07-07T11:01:32.000Z</time>
      </trkpt>
      <trkpt lat="44.39867" lon="6.40768">
        <ele>1988</ele>
        <time>2020-07-07T11:01:33.000Z</time>
      </trkpt>
      <trkpt lat="44.39867" lon="6.40767">
        <ele>1988</ele>
        <time>2020-07-07T11:01:34.000Z</time>
      </trkpt>
      <trkpt lat="44.39867" lon="6.40767">
        <ele>1988</ele>
        <time>2020-07-07T11:01:35.000Z</time>
      </trkpt>
      <trkpt lat="44.39867" lon="6.40767">
        <ele>1988</ele>
        <time>2020-07-07T11:01:36.000Z</time>
      </trkpt>
      <trkpt lat="44.39867" lon="6.40767">
        <ele>1988</ele>
        <time>2020-07-07T11:01:37.000Z</time>
      </trkpt>
      <trkpt lat="44.39867" lon="6.40767">
        <ele>1988</ele>
        <time>2020-07-07T11:01:38.000Z</time>
      </trkpt>
      <trkpt lat="44.39867" lon="6.40767">
        <ele>1988</ele>
        <time>2020-07-07T11:01:39.000Z</time>
      </trkpt>
      <trkpt lat="44.39867" lon="6.40767">
        <ele>1988</ele>
        <time>2020-07-07T11:01:40.000Z</time>
      </trkpt>
      <trkpt lat="44.39867" lon="6.40767">
        <ele>1988</ele>
        <time>2020-07-07T11:01:41.000Z</time>
      </trkpt>
      <trkpt lat="44.39867" lon="6.40767">
        <ele>1988</ele>
        <time>2020-07-07T11:01:42.000Z</time>
      </trkpt>
      <trkpt lat="44.39868" lon="6.40767">
        <ele>1988</ele>
        <time>2020-07-07T11:01:43.000Z</time>
      </trkpt>
      <trkpt lat="44.39868" lon="6.40767">
        <ele>1988</ele>
        <time>2020-07-07T11:01:44.000Z</time>
      </trkpt>
      <trkpt lat="44.39868" lon="6.40767">
        <ele>1989</ele>
        <time>2020-07-07T11:01:45.000Z</time>
      </trkpt>
      <trkpt lat="44.39868" lon="6.40767">
        <ele>1989</ele>
        <time>2020-07-07T11:01:46.000Z</time>
      </trkpt>
      <trkpt lat="44.39868" lon="6.40767">
        <ele>1989</ele>
        <time>2020-07-07T11:01:47.000Z</time>
      </trkpt>
      <trkpt lat="44.39868" lon="6.40766">
        <ele>1989</ele>
        <time>2020-07-07T11:01:48.000Z</time>
      </trkpt>
      <trkpt lat="44.39868" lon="6.40766">
        <ele>1989</ele>
        <time>2020-07-07T11:01:49.000Z</time>
      </trkpt>
      <trkpt lat="44.39867" lon="6.40765">
        <ele>1989</ele>
        <time>2020-07-07T11:01:50.000Z</time>
      </trkpt>
      <trkpt lat="44.39867" lon="6.40764">
        <ele>1989</ele>
        <time>2020-07-07T11:01:51.000Z</time>
      </trkpt>
      <trkpt lat="44.39867" lon="6.40763">
        <ele>1989</ele>
        <time>2020-07-07T11:01:52.000Z</time>
      </trkpt>
      <trkpt lat="44.39867" lon="6.40762">
        <ele>1989</ele>
        <time>2020-07-07T11:01:53.000Z</time>
      </trkpt>
      <trkpt lat="44.39867" lon="6.40762">
        <ele>1989</ele>
        <time>2020-07-07T11:01:54.000Z</time>
      </trkpt>
      <trkpt lat="44.39867" lon="6.40761">
        <ele>1989</ele>
        <time>2020-07-07T11:01:55.000Z</time>
      </trkpt>
      <trkpt lat="44.39867" lon="6.40761">
        <ele>1990</ele>
        <time>2020-07-07T11:01:56.000Z</time>
      </trkpt>
      <trkpt lat="44.39866" lon="6.4076">
        <ele>1990</ele>
        <time>2020-07-07T11:01:57.000Z</time>
      </trkpt>
      <trkpt lat="44.39866" lon="6.40759">
        <ele>1990</ele>
        <time>2020-07-07T11:01:58.000Z</time>
      </trkpt>
      <trkpt lat="44.39866" lon="6.40759">
        <ele>1990</ele>
        <time>2020-07-07T11:01:59.000Z</time>
      </trkpt>
      <trkpt lat="44.39865" lon="6.40758">
        <ele>1990</ele>
        <time>2020-07-07T11:02:00.000Z</time>
      </trkpt>
      <trkpt lat="44.39865" lon="6.40758">
        <ele>1991</ele>
        <time>2020-07-07T11:02:01.000Z</time>
      </trkpt>
      <trkpt lat="44.39865" lon="6.40757">
        <ele>1991</ele>
        <time>2020-07-07T11:02:02.000Z</time>
      </trkpt>
      <trkpt lat="44.39864" lon="6.40756">
        <ele>1991</ele>
        <time>2020-07-07T11:02:03.000Z</time>
      </trkpt>
      <trkpt lat="44.39864" lon="6.40755">
        <ele>1991</ele>
        <time>2020-07-07T11:02:04.000Z</time>
      </trkpt>
      <trkpt lat="44.39865" lon="6.40755">
        <ele>1991</ele>
        <time>2020-07-07T11:02:05.000Z</time>
      </trkpt>
      <trkpt lat="44.39865" lon="6.40754">
        <ele>1991</ele>
        <time>2020-07-07T11:02:06.000Z</time>
      </trkpt>
      <trkpt lat="44.39865" lon="6.40754">
        <ele>1991</ele>
        <time>2020-07-07T11:02:07.000Z</time>
      </trkpt>
      <trkpt lat="44.39865" lon="6.40753">
        <ele>1992</ele>
        <time>2020-07-07T11:02:08.000Z</time>
      </trkpt>
      <trkpt lat="44.39865" lon="6.40752">
        <ele>1992</ele>
        <time>2020-07-07T11:02:09.000Z</time>
      </trkpt>
      <trkpt lat="44.39865" lon="6.40752">
        <ele>1992</ele>
        <time>2020-07-07T11:02:10.000Z</time>
      </trkpt>
      <trkpt lat="44.39865" lon="6.40751">
        <ele>1992</ele>
        <time>2020-07-07T11:02:11.000Z</time>
      </trkpt>
      <trkpt lat="44.39864" lon="6.40751">
        <ele>1993</ele>
        <time>2020-07-07T11:02:12.000Z</time>
      </trkpt>
      <trkpt lat="44.39864" lon="6.4075">
        <ele>1993</ele>
        <time>2020-07-07T11:02:13.000Z</time>
      </trkpt>
      <trkpt lat="44.39864" lon="6.40749">
        <ele>1993</ele>
        <time>2020-07-07T11:02:14.000Z</time>
      </trkpt>
      <trkpt lat="44.39863" lon="6.40748">
        <ele>1993</ele>
        <time>2020-07-07T11:02:15.000Z</time>
      </trkpt>
      <trkpt lat="44.39863" lon="6.40748">
        <ele>1993</ele>
        <time>2020-07-07T11:02:16.000Z</time>
      </trkpt>
      <trkpt lat="44.39863" lon="6.40747">
        <ele>1994</ele>
        <time>2020-07-07T11:02:17.000Z</time>
      </trkpt>
      <trkpt lat="44.39863" lon="6.40746">
        <ele>1994</ele>
        <time>2020-07-07T11:02:18.000Z</time>
      </trkpt>
      <trkpt lat="44.39862" lon="6.40746">
        <ele>1994</ele>
        <time>2020-07-07T11:02:19.000Z</time>
      </trkpt>
      <trkpt lat="44.39862" lon="6.40746">
        <ele>1994</ele>
        <time>2020-07-07T11:02:20.000Z</time>
      </trkpt>
      <trkpt lat="44.39862" lon="6.40745">
        <ele>1994</ele>
        <time>2020-07-07T11:02:21.000Z</time>
      </trkpt>
      <trkpt lat="44.39862" lon="6.40745">
        <ele>1994</ele>
        <time>2020-07-07T11:02:22.000Z</time>
      </trkpt>
      <trkpt lat="44.39862" lon="6.40745">
        <ele>1995</ele>
        <time>2020-07-07T11:02:23.000Z</time>
      </trkpt>
      <trkpt lat="44.39862" lon="6.40745">
        <ele>1995</ele>
        <time>2020-07-07T11:02:24.000Z</time>
      </trkpt>
      <trkpt lat="44.39862" lon="6.40745">
        <ele>1995</ele>
        <time>2020-07-07T11:02:25.000Z</time>
      </trkpt>
      <trkpt lat="44.39863" lon="6.40744">
        <ele>1995</ele>
        <time>2020-07-07T11:02:26.000Z</time>
      </trkpt>
      <trkpt lat="44.39863" lon="6.40744">
        <ele>1995</ele>
        <time>2020-07-07T11:02:27.000Z</time>
      </trkpt>
      <trkpt lat="44.39863" lon="6.40744">
        <ele>1995</ele>
        <time>2020-07-07T11:02:28.000Z</time>
      </trkpt>
      <trkpt lat="44.39863" lon="6.40744">
        <ele>1995</ele>
        <time>2020-07-07T11:02:29.000Z</time>
      </trkpt>
      <trkpt lat="44.39863" lon="6.40744">
        <ele>1995</ele>
        <time>2020-07-07T11:02:30.000Z</time>
      </trkpt>
      <trkpt lat="44.39863" lon="6.40744">
        <ele>1995</ele>
        <time>2020-07-07T11:02:31.000Z</time>
      </trkpt>
      <trkpt lat="44.39863" lon="6.40744">
        <ele>1995</ele>
        <time>2020-07-07T11:02:32.000Z</time>
      </trkpt>
      <trkpt lat="44.39863" lon="6.40744">
        <ele>1995</ele>
        <time>2020-07-07T11:02:33.000Z</time>
      </trkpt>
      <trkpt lat="44.39862" lon="6.40744">
        <ele>1995</ele>
        <time>2020-07-07T11:02:34.000Z</time>
      </trkpt>
      <trkpt lat="44.39862" lon="6.40745">
        <ele>1995</ele>
        <time>2020-07-07T11:02:35.000Z</time>
      </trkpt>
      <trkpt lat="44.39862" lon="6.40745">
        <ele>1995</ele>
        <time>2020-07-07T11:02:36.000Z</time>
      </trkpt>
      <trkpt lat="44.39862" lon="6.40745">
        <ele>1995</ele>
        <time>2020-07-07T11:02:37.000Z</time>
      </trkpt>
      <trkpt lat="44.39861" lon="6.40744">
        <ele>1996</ele>
        <time>2020-07-07T11:02:38.000Z</time>
      </trkpt>
      <trkpt lat="44.39861" lon="6.40743">
        <ele>1996</ele>
        <time>2020-07-07T11:02:39.000Z</time>
      </trkpt>
      <trkpt lat="44.3986" lon="6.40742">
        <ele>1996</ele>
        <time>2020-07-07T11:02:40.000Z</time>
      </trkpt>
      <trkpt lat="44.3986" lon="6.40742">
        <ele>1996</ele>
        <time>2020-07-07T11:02:41.000Z</time>
      </trkpt>
      <trkpt lat="44.3986" lon="6.40741">
        <ele>1996</ele>
        <time>2020-07-07T11:02:42.000Z</time>
      </trkpt>
      <trkpt lat="44.3986" lon="6.4074">
        <ele>1996</ele>
        <time>2020-07-07T11:02:43.000Z</time>
      </trkpt>
      <trkpt lat="44.39859" lon="6.4074">
        <ele>1996</ele>
        <time>2020-07-07T11:02:44.000Z</time>
      </trkpt>
      <trkpt lat="44.39859" lon="6.40739">
        <ele>1996</ele>
        <time>2020-07-07T11:02:45.000Z</time>
      </trkpt>
      <trkpt lat="44.39858" lon="6.40738">
        <ele>1996</ele>
        <time>2020-07-07T11:02:46.000Z</time>
      </trkpt>
      <trkpt lat="44.39858" lon="6.40738">
        <ele>1996</ele>
        <time>2020-07-07T11:02:47.000Z</time>
      </trkpt>
      <trkpt lat="44.39857" lon="6.40737">
        <ele>1996</ele>
        <time>2020-07-07T11:02:48.000Z</time>
      </trkpt>
      <trkpt lat="44.39857" lon="6.40736">
        <ele>1996</ele>
        <time>2020-07-07T11:02:49.000Z</time>
      </trkpt>
      <trkpt lat="44.39856" lon="6.40735">
        <ele>1996</ele>
        <time>2020-07-07T11:02:50.000Z</time>
      </trkpt>
      <trkpt lat="44.39856" lon="6.40735">
        <ele>1997</ele>
        <time>2020-07-07T11:02:51.000Z</time>
      </trkpt>
      <trkpt lat="44.39855" lon="6.40734">
        <ele>1997</ele>
        <time>2020-07-07T11:02:52.000Z</time>
      </trkpt>
      <trkpt lat="44.39855" lon="6.40734">
        <ele>1997</ele>
        <time>2020-07-07T11:02:53.000Z</time>
      </trkpt>
      <trkpt lat="44.39854" lon="6.40733">
        <ele>1997</ele>
        <time>2020-07-07T11:02:54.000Z</time>
      </trkpt>
      <trkpt lat="44.39854" lon="6.40733">
        <ele>1997</ele>
        <time>2020-07-07T11:02:55.000Z</time>
      </trkpt>
      <trkpt lat="44.39854" lon="6.40732">
        <ele>1997</ele>
        <time>2020-07-07T11:02:56.000Z</time>
      </trkpt>
      <trkpt lat="44.39854" lon="6.40732">
        <ele>1997</ele>
        <time>2020-07-07T11:02:57.000Z</time>
      </trkpt>
      <trkpt lat="44.39853" lon="6.40731">
        <ele>1997</ele>
        <time>2020-07-07T11:02:58.000Z</time>
      </trkpt>
      <trkpt lat="44.39853" lon="6.4073">
        <ele>1997</ele>
        <time>2020-07-07T11:02:59.000Z</time>
      </trkpt>
      <trkpt lat="44.39853" lon="6.4073">
        <ele>1997</ele>
        <time>2020-07-07T11:03:00.000Z</time>
      </trkpt>
      <trkpt lat="44.39852" lon="6.40729">
        <ele>1998</ele>
        <time>2020-07-07T11:03:01.000Z</time>
      </trkpt>
      <trkpt lat="44.39852" lon="6.40728">
        <ele>1998</ele>
        <time>2020-07-07T11:03:02.000Z</time>
      </trkpt>
      <trkpt lat="44.39852" lon="6.40728">
        <ele>1998</ele>
        <time>2020-07-07T11:03:03.000Z</time>
      </trkpt>
      <trkpt lat="44.39853" lon="6.40727">
        <ele>1998</ele>
        <time>2020-07-07T11:03:04.000Z</time>
      </trkpt>
      <trkpt lat="44.39853" lon="6.40727">
        <ele>1998</ele>
        <time>2020-07-07T11:03:05.000Z</time>
      </trkpt>
      <trkpt lat="44.39853" lon="6.40727">
        <ele>1998</ele>
        <time>2020-07-07T11:03:06.000Z</time>
      </trkpt>
      <trkpt lat="44.39853" lon="6.40728">
        <ele>1998</ele>
        <time>2020-07-07T11:03:07.000Z</time>
      </trkpt>
      <trkpt lat="44.39853" lon="6.40728">
        <ele>1998</ele>
        <time>2020-07-07T11:03:08.000Z</time>
      </trkpt>
      <trkpt lat="44.39853" lon="6.40728">
        <ele>1998</ele>
        <time>2020-07-07T11:03:09.000Z</time>
      </trkpt>
      <trkpt lat="44.39853" lon="6.40727">
        <ele>1998</ele>
        <time>2020-07-07T11:03:10.000Z</time>
      </trkpt>
      <trkpt lat="44.39853" lon="6.40728">
        <ele>1998</ele>
        <time>2020-07-07T11:03:11.000Z</time>
      </trkpt>
      <trkpt lat="44.39853" lon="6.40728">
        <ele>1999</ele>
        <time>2020-07-07T11:03:12.000Z</time>
      </trkpt>
      <trkpt lat="44.39853" lon="6.40728">
        <ele>1999</ele>
        <time>2020-07-07T11:03:13.000Z</time>
      </trkpt>
      <trkpt lat="44.39853" lon="6.40728">
        <ele>1999</ele>
        <time>2020-07-07T11:03:14.000Z</time>
      </trkpt>
      <trkpt lat="44.39853" lon="6.40728">
        <ele>1999</ele>
        <time>2020-07-07T11:03:15.000Z</time>
      </trkpt>
      <trkpt lat="44.39853" lon="6.40728">
        <ele>1999</ele>
        <time>2020-07-07T11:03:16.000Z</time>
      </trkpt>
      <trkpt lat="44.39853" lon="6.40728">
        <ele>1999</ele>
        <time>2020-07-07T11:03:17.000Z</time>
      </trkpt>
      <trkpt lat="44.39853" lon="6.40728">
        <ele>1999</ele>
        <time>2020-07-07T11:03:18.000Z</time>
      </trkpt>
      <trkpt lat="44.39853" lon="6.40728">
        <ele>1999</ele>
        <time>2020-07-07T11:03:19.000Z</time>
      </trkpt>
      <trkpt lat="44.39853" lon="6.40728">
        <ele>1999</ele>
        <time>2020-07-07T11:03:20.000Z</time>
      </trkpt>
      <trkpt lat="44.39853" lon="6.40728">
        <ele>1999</ele>
        <time>2020-07-07T11:03:21.000Z</time>
      </trkpt>
      <trkpt lat="44.39853" lon="6.40728">
        <ele>1999</ele>
        <time>2020-07-07T11:03:22.000Z</time>
      </trkpt>
      <trkpt lat="44.39853" lon="6.40728">
        <ele>1999</ele>
        <time>2020-07-07T11:03:23.000Z</time>
      </trkpt>
      <trkpt lat="44.39853" lon="6.40728">
        <ele>1999</ele>
        <time>2020-07-07T11:03:24.000Z</time>
      </trkpt>
      <trkpt lat="44.39853" lon="6.40727">
        <ele>1999</ele>
        <time>2020-07-07T11:03:25.000Z</time>
      </trkpt>
      <trkpt lat="44.39853" lon="6.40727">
        <ele>1999</ele>
        <time>2020-07-07T11:03:26.000Z</time>
      </trkpt>
      <trkpt lat="44.39853" lon="6.40727">
        <ele>1999</ele>
        <time>2020-07-07T11:03:27.000Z</time>
      </trkpt>
      <trkpt lat="44.39853" lon="6.40727">
        <ele>1999</ele>
        <time>2020-07-07T11:03:28.000Z</time>
      </trkpt>
      <trkpt lat="44.39853" lon="6.40727">
        <ele>1999</ele>
        <time>2020-07-07T11:03:29.000Z</time>
      </trkpt>
      <trkpt lat="44.39853" lon="6.40728">
        <ele>1999</ele>
        <time>2020-07-07T11:03:30.000Z</time>
      </trkpt>
      <trkpt lat="44.39853" lon="6.40728">
        <ele>1999</ele>
        <time>2020-07-07T11:03:31.000Z</time>
      </trkpt>
      <trkpt lat="44.39853" lon="6.40728">
        <ele>1999</ele>
        <time>2020-07-07T11:03:32.000Z</time>
      </trkpt>
      <trkpt lat="44.39853" lon="6.40728">
        <ele>1999</ele>
        <time>2020-07-07T11:03:33.000Z</time>
      </trkpt>
      <trkpt lat="44.39853" lon="6.40728">
        <ele>1999</ele>
        <time>2020-07-07T11:03:34.000Z</time>
      </trkpt>
      <trkpt lat="44.39853" lon="6.40728">
        <ele>1999</ele>
        <time>2020-07-07T11:03:35.000Z</time>
      </trkpt>
      <trkpt lat="44.39853" lon="6.40728">
        <ele>1999</ele>
        <time>2020-07-07T11:03:36.000Z</time>
      </trkpt>
      <trkpt lat="44.39853" lon="6.40727">
        <ele>1999</ele>
        <time>2020-07-07T11:03:37.000Z</time>
      </trkpt>
      <trkpt lat="44.39853" lon="6.40728">
        <ele>1999</ele>
        <time>2020-07-07T11:03:38.000Z</time>
      </trkpt>
      <trkpt lat="44.39853" lon="6.40728">
        <ele>1999</ele>
        <time>2020-07-07T11:03:39.000Z</time>
      </trkpt>
      <trkpt lat="44.39853" lon="6.40727">
        <ele>1999</ele>
        <time>2020-07-07T11:03:40.000Z</time>
      </trkpt>
      <trkpt lat="44.39852" lon="6.40727">
        <ele>2000</ele>
        <time>2020-07-07T11:03:41.000Z</time>
      </trkpt>
      <trkpt lat="44.39852" lon="6.40727">
        <ele>2000</ele>
        <time>2020-07-07T11:03:42.000Z</time>
      </trkpt>
      <trkpt lat="44.39852" lon="6.40726">
        <ele>2000</ele>
        <time>2020-07-07T11:03:43.000Z</time>
      </trkpt>
      <trkpt lat="44.39851" lon="6.40726">
        <ele>2000</ele>
        <time>2020-07-07T11:03:44.000Z</time>
      </trkpt>
      <trkpt lat="44.39851" lon="6.40725">
        <ele>2000</ele>
        <time>2020-07-07T11:03:45.000Z</time>
      </trkpt>
      <trkpt lat="44.3985" lon="6.40725">
        <ele>2000</ele>
        <time>2020-07-07T11:03:46.000Z</time>
      </trkpt>
      <trkpt lat="44.39849" lon="6.40725">
        <ele>2000</ele>
        <time>2020-07-07T11:03:47.000Z</time>
      </trkpt>
      <trkpt lat="44.39849" lon="6.40725">
        <ele>2000</ele>
        <time>2020-07-07T11:03:48.000Z</time>
      </trkpt>
      <trkpt lat="44.39848" lon="6.40724">
        <ele>2001</ele>
        <time>2020-07-07T11:03:49.000Z</time>
      </trkpt>
      <trkpt lat="44.39848" lon="6.40724">
        <ele>2001</ele>
        <time>2020-07-07T11:03:50.000Z</time>
      </trkpt>
      <trkpt lat="44.39847" lon="6.40723">
        <ele>2001</ele>
        <time>2020-07-07T11:03:51.000Z</time>
      </trkpt>
      <trkpt lat="44.39847" lon="6.40723">
        <ele>2001</ele>
        <time>2020-07-07T11:03:52.000Z</time>
      </trkpt>
      <trkpt lat="44.39846" lon="6.40722">
        <ele>2001</ele>
        <time>2020-07-07T11:03:53.000Z</time>
      </trkpt>
      <trkpt lat="44.39846" lon="6.40722">
        <ele>2001</ele>
        <time>2020-07-07T11:03:54.000Z</time>
      </trkpt>
      <trkpt lat="44.39845" lon="6.40721">
        <ele>2002</ele>
        <time>2020-07-07T11:03:55.000Z</time>
      </trkpt>
      <trkpt lat="44.39845" lon="6.40721">
        <ele>2002</ele>
        <time>2020-07-07T11:03:56.000Z</time>
      </trkpt>
      <trkpt lat="44.39844" lon="6.4072">
        <ele>2002</ele>
        <time>2020-07-07T11:03:57.000Z</time>
      </trkpt>
      <trkpt lat="44.39844" lon="6.4072">
        <ele>2002</ele>
        <time>2020-07-07T11:03:58.000Z</time>
      </trkpt>
      <trkpt lat="44.39843" lon="6.40719">
        <ele>2002</ele>
        <time>2020-07-07T11:03:59.000Z</time>
      </trkpt>
      <trkpt lat="44.39842" lon="6.40719">
        <ele>2002</ele>
        <time>2020-07-07T11:04:00.000Z</time>
      </trkpt>
      <trkpt lat="44.39842" lon="6.40718">
        <ele>2002</ele>
        <time>2020-07-07T11:04:01.000Z</time>
      </trkpt>
      <trkpt lat="44.39841" lon="6.40718">
        <ele>2002</ele>
        <time>2020-07-07T11:04:02.000Z</time>
      </trkpt>
      <trkpt lat="44.39841" lon="6.40717">
        <ele>2002</ele>
        <time>2020-07-07T11:04:03.000Z</time>
      </trkpt>
      <trkpt lat="44.3984" lon="6.40716">
        <ele>2002</ele>
        <time>2020-07-07T11:04:04.000Z</time>
      </trkpt>
      <trkpt lat="44.3984" lon="6.40715">
        <ele>2002</ele>
        <time>2020-07-07T11:04:05.000Z</time>
      </trkpt>
      <trkpt lat="44.39839" lon="6.40715">
        <ele>2002</ele>
        <time>2020-07-07T11:04:06.000Z</time>
      </trkpt>
      <trkpt lat="44.39838" lon="6.40714">
        <ele>2002</ele>
        <time>2020-07-07T11:04:07.000Z</time>
      </trkpt>
      <trkpt lat="44.39838" lon="6.40713">
        <ele>2003</ele>
        <time>2020-07-07T11:04:08.000Z</time>
      </trkpt>
      <trkpt lat="44.39838" lon="6.40712">
        <ele>2003</ele>
        <time>2020-07-07T11:04:09.000Z</time>
      </trkpt>
      <trkpt lat="44.39838" lon="6.40711">
        <ele>2003</ele>
        <time>2020-07-07T11:04:10.000Z</time>
      </trkpt>
      <trkpt lat="44.39838" lon="6.40711">
        <ele>2003</ele>
        <time>2020-07-07T11:04:11.000Z</time>
      </trkpt>
      <trkpt lat="44.39837" lon="6.4071">
        <ele>2003</ele>
        <time>2020-07-07T11:04:12.000Z</time>
      </trkpt>
      <trkpt lat="44.39836" lon="6.40708">
        <ele>2004</ele>
        <time>2020-07-07T11:04:13.000Z</time>
      </trkpt>
      <trkpt lat="44.39836" lon="6.40707">
        <ele>2004</ele>
        <time>2020-07-07T11:04:14.000Z</time>
      </trkpt>
      <trkpt lat="44.39836" lon="6.40706">
        <ele>2004</ele>
        <time>2020-07-07T11:04:15.000Z</time>
      </trkpt>
      <trkpt lat="44.39836" lon="6.40706">
        <ele>2004</ele>
        <time>2020-07-07T11:04:16.000Z</time>
      </trkpt>
      <trkpt lat="44.39835" lon="6.40705">
        <ele>2004</ele>
        <time>2020-07-07T11:04:17.000Z</time>
      </trkpt>
      <trkpt lat="44.39835" lon="6.40704">
        <ele>2004</ele>
        <time>2020-07-07T11:04:18.000Z</time>
      </trkpt>
      <trkpt lat="44.39834" lon="6.40703">
        <ele>2004</ele>
        <time>2020-07-07T11:04:19.000Z</time>
      </trkpt>
      <trkpt lat="44.39834" lon="6.40703">
        <ele>2005</ele>
        <time>2020-07-07T11:04:20.000Z</time>
      </trkpt>
      <trkpt lat="44.39833" lon="6.40702">
        <ele>2005</ele>
        <time>2020-07-07T11:04:21.000Z</time>
      </trkpt>
      <trkpt lat="44.39833" lon="6.40701">
        <ele>2005</ele>
        <time>2020-07-07T11:04:22.000Z</time>
      </trkpt>
      <trkpt lat="44.39832" lon="6.40701">
        <ele>2005</ele>
        <time>2020-07-07T11:04:23.000Z</time>
      </trkpt>
      <trkpt lat="44.39832" lon="6.40701">
        <ele>2005</ele>
        <time>2020-07-07T11:04:24.000Z</time>
      </trkpt>
      <trkpt lat="44.39832" lon="6.407">
        <ele>2005</ele>
        <time>2020-07-07T11:04:25.000Z</time>
      </trkpt>
      <trkpt lat="44.39832" lon="6.407">
        <ele>2005</ele>
        <time>2020-07-07T11:04:26.000Z</time>
      </trkpt>
      <trkpt lat="44.39832" lon="6.40701">
        <ele>2005</ele>
        <time>2020-07-07T11:04:27.000Z</time>
      </trkpt>
      <trkpt lat="44.39832" lon="6.407">
        <ele>2005</ele>
        <time>2020-07-07T11:04:28.000Z</time>
      </trkpt>
      <trkpt lat="44.39832" lon="6.407">
        <ele>2006</ele>
        <time>2020-07-07T11:04:29.000Z</time>
      </trkpt>
      <trkpt lat="44.39832" lon="6.407">
        <ele>2006</ele>
        <time>2020-07-07T11:04:30.000Z</time>
      </trkpt>
      <trkpt lat="44.39832" lon="6.407">
        <ele>2006</ele>
        <time>2020-07-07T11:04:31.000Z</time>
      </trkpt>
      <trkpt lat="44.39832" lon="6.407">
        <ele>2006</ele>
        <time>2020-07-07T11:04:32.000Z</time>
      </trkpt>
      <trkpt lat="44.39832" lon="6.407">
        <ele>2006</ele>
        <time>2020-07-07T11:04:33.000Z</time>
      </trkpt>
      <trkpt lat="44.39833" lon="6.407">
        <ele>2006</ele>
        <time>2020-07-07T11:04:34.000Z</time>
      </trkpt>
      <trkpt lat="44.39833" lon="6.407">
        <ele>2006</ele>
        <time>2020-07-07T11:04:35.000Z</time>
      </trkpt>
      <trkpt lat="44.39833" lon="6.407">
        <ele>2006</ele>
        <time>2020-07-07T11:04:36.000Z</time>
      </trkpt>
      <trkpt lat="44.39833" lon="6.407">
        <ele>2006</ele>
        <time>2020-07-07T11:04:37.000Z</time>
      </trkpt>
      <trkpt lat="44.39833" lon="6.40699">
        <ele>2006</ele>
        <time>2020-07-07T11:04:38.000Z</time>
      </trkpt>
      <trkpt lat="44.39833" lon="6.40699">
        <ele>2006</ele>
        <time>2020-07-07T11:04:39.000Z</time>
      </trkpt>
      <trkpt lat="44.39833" lon="6.40699">
        <ele>2006</ele>
        <time>2020-07-07T11:04:40.000Z</time>
      </trkpt>
      <trkpt lat="44.39833" lon="6.40699">
        <ele>2006</ele>
        <time>2020-07-07T11:04:41.000Z</time>
      </trkpt>
      <trkpt lat="44.39833" lon="6.40699">
        <ele>2006</ele>
        <time>2020-07-07T11:04:42.000Z</time>
      </trkpt>
      <trkpt lat="44.39833" lon="6.40699">
        <ele>2006</ele>
        <time>2020-07-07T11:04:43.000Z</time>
      </trkpt>
      <trkpt lat="44.39833" lon="6.40699">
        <ele>2006</ele>
        <time>2020-07-07T11:04:44.000Z</time>
      </trkpt>
      <trkpt lat="44.39833" lon="6.40699">
        <ele>2006</ele>
        <time>2020-07-07T11:04:45.000Z</time>
      </trkpt>
      <trkpt lat="44.39833" lon="6.40699">
        <ele>2006</ele>
        <time>2020-07-07T11:04:46.000Z</time>
      </trkpt>
      <trkpt lat="44.39833" lon="6.40699">
        <ele>2006</ele>
        <time>2020-07-07T11:04:47.000Z</time>
      </trkpt>
      <trkpt lat="44.39833" lon="6.40699">
        <ele>2006</ele>
        <time>2020-07-07T11:04:48.000Z</time>
      </trkpt>
      <trkpt lat="44.39833" lon="6.40699">
        <ele>2006</ele>
        <time>2020-07-07T11:04:49.000Z</time>
      </trkpt>
      <trkpt lat="44.39833" lon="6.40699">
        <ele>2006</ele>
        <time>2020-07-07T11:04:50.000Z</time>
      </trkpt>
      <trkpt lat="44.39833" lon="6.40699">
        <ele>2006</ele>
        <time>2020-07-07T11:04:51.000Z</time>
      </trkpt>
      <trkpt lat="44.39833" lon="6.40699">
        <ele>2006</ele>
        <time>2020-07-07T11:04:52.000Z</time>
      </trkpt>
      <trkpt lat="44.39833" lon="6.40699">
        <ele>2006</ele>
        <time>2020-07-07T11:04:53.000Z</time>
      </trkpt>
      <trkpt lat="44.39833" lon="6.40699">
        <ele>2006</ele>
        <time>2020-07-07T11:04:54.000Z</time>
      </trkpt>
      <trkpt lat="44.39833" lon="6.40699">
        <ele>2006</ele>
        <time>2020-07-07T11:04:55.000Z</time>
      </trkpt>
      <trkpt lat="44.39833" lon="6.40699">
        <ele>2006</ele>
        <time>2020-07-07T11:04:56.000Z</time>
      </trkpt>
      <trkpt lat="44.39834" lon="6.40699">
        <ele>2006</ele>
        <time>2020-07-07T11:04:57.000Z</time>
      </trkpt>
      <trkpt lat="44.39834" lon="6.40699">
        <ele>2006</ele>
        <time>2020-07-07T11:04:58.000Z</time>
      </trkpt>
      <trkpt lat="44.39834" lon="6.40699">
        <ele>2006</ele>
        <time>2020-07-07T11:04:59.000Z</time>
      </trkpt>
      <trkpt lat="44.39834" lon="6.40699">
        <ele>2006</ele>
        <time>2020-07-07T11:05:00.000Z</time>
      </trkpt>
      <trkpt lat="44.39834" lon="6.40699">
        <ele>2006</ele>
        <time>2020-07-07T11:05:01.000Z</time>
      </trkpt>
      <trkpt lat="44.39834" lon="6.40699">
        <ele>2006</ele>
        <time>2020-07-07T11:05:02.000Z</time>
      </trkpt>
      <trkpt lat="44.39834" lon="6.407">
        <ele>2006</ele>
        <time>2020-07-07T11:05:03.000Z</time>
      </trkpt>
      <trkpt lat="44.39834" lon="6.407">
        <ele>2006</ele>
        <time>2020-07-07T11:05:04.000Z</time>
      </trkpt>
      <trkpt lat="44.39834" lon="6.407">
        <ele>2006</ele>
        <time>2020-07-07T11:05:05.000Z</time>
      </trkpt>
      <trkpt lat="44.39834" lon="6.407">
        <ele>2006</ele>
        <time>2020-07-07T11:05:06.000Z</time>
      </trkpt>
      <trkpt lat="44.39834" lon="6.407">
        <ele>2006</ele>
        <time>2020-07-07T11:05:07.000Z</time>
      </trkpt>
      <trkpt lat="44.39834" lon="6.407">
        <ele>2006</ele>
        <time>2020-07-07T11:05:08.000Z</time>
      </trkpt>
      <trkpt lat="44.39834" lon="6.407">
        <ele>2006</ele>
        <time>2020-07-07T11:05:09.000Z</time>
      </trkpt>
      <trkpt lat="44.39834" lon="6.407">
        <ele>2006</ele>
        <time>2020-07-07T11:05:10.000Z</time>
      </trkpt>
      <trkpt lat="44.39834" lon="6.407">
        <ele>2006</ele>
        <time>2020-07-07T11:05:11.000Z</time>
      </trkpt>
      <trkpt lat="44.39834" lon="6.407">
        <ele>2006</ele>
        <time>2020-07-07T11:05:12.000Z</time>
      </trkpt>
      <trkpt lat="44.39834" lon="6.407">
        <ele>2006</ele>
        <time>2020-07-07T11:05:13.000Z</time>
      </trkpt>
      <trkpt lat="44.39834" lon="6.407">
        <ele>2006</ele>
        <time>2020-07-07T11:05:14.000Z</time>
      </trkpt>
      <trkpt lat="44.39834" lon="6.407">
        <ele>2006</ele>
        <time>2020-07-07T11:05:15.000Z</time>
      </trkpt>
      <trkpt lat="44.39834" lon="6.407">
        <ele>2006</ele>
        <time>2020-07-07T11:05:16.000Z</time>
      </trkpt>
      <trkpt lat="44.39834" lon="6.407">
        <ele>2007</ele>
        <time>2020-07-07T11:05:17.000Z</time>
      </trkpt>
      <trkpt lat="44.39833" lon="6.407">
        <ele>2007</ele>
        <time>2020-07-07T11:05:18.000Z</time>
      </trkpt>
      <trkpt lat="44.39833" lon="6.407">
        <ele>2007</ele>
        <time>2020-07-07T11:05:19.000Z</time>
      </trkpt>
      <trkpt lat="44.39833" lon="6.407">
        <ele>2007</ele>
        <time>2020-07-07T11:05:20.000Z</time>
      </trkpt>
      <trkpt lat="44.39833" lon="6.407">
        <ele>2007</ele>
        <time>2020-07-07T11:05:21.000Z</time>
      </trkpt>
      <trkpt lat="44.39833" lon="6.407">
        <ele>2007</ele>
        <time>2020-07-07T11:05:22.000Z</time>
      </trkpt>
      <trkpt lat="44.39834" lon="6.407">
        <ele>2006</ele>
        <time>2020-07-07T11:05:23.000Z</time>
      </trkpt>
      <trkpt lat="44.39834" lon="6.40701">
        <ele>2006</ele>
        <time>2020-07-07T11:05:24.000Z</time>
      </trkpt>
      <trkpt lat="44.39833" lon="6.40701">
        <ele>2007</ele>
        <time>2020-07-07T11:05:25.000Z</time>
      </trkpt>
      <trkpt lat="44.39833" lon="6.407">
        <ele>2007</ele>
        <time>2020-07-07T11:05:26.000Z</time>
      </trkpt>
      <trkpt lat="44.39833" lon="6.407">
        <ele>2007</ele>
        <time>2020-07-07T11:05:27.000Z</time>
      </trkpt>
      <trkpt lat="44.39833" lon="6.407">
        <ele>2007</ele>
        <time>2020-07-07T11:05:28.000Z</time>
      </trkpt>
      <trkpt lat="44.39833" lon="6.407">
        <ele>2007</ele>
        <time>2020-07-07T11:05:29.000Z</time>
      </trkpt>
      <trkpt lat="44.39833" lon="6.407">
        <ele>2007</ele>
        <time>2020-07-07T11:05:30.000Z</time>
      </trkpt>
      <trkpt lat="44.39833" lon="6.407">
        <ele>2007</ele>
        <time>2020-07-07T11:05:31.000Z</time>
      </trkpt>
      <trkpt lat="44.39833" lon="6.407">
        <ele>2007</ele>
        <time>2020-07-07T11:05:32.000Z</time>
      </trkpt>
      <trkpt lat="44.39833" lon="6.407">
        <ele>2007</ele>
        <time>2020-07-07T11:05:33.000Z</time>
      </trkpt>
      <trkpt lat="44.39833" lon="6.407">
        <ele>2007</ele>
        <time>2020-07-07T11:05:34.000Z</time>
      </trkpt>
      <trkpt lat="44.39833" lon="6.407">
        <ele>2007</ele>
        <time>2020-07-07T11:05:35.000Z</time>
      </trkpt>
      <trkpt lat="44.39833" lon="6.407">
        <ele>2007</ele>
        <time>2020-07-07T11:05:36.000Z</time>
      </trkpt>
      <trkpt lat="44.39833" lon="6.407">
        <ele>2007</ele>
        <time>2020-07-07T11:05:37.000Z</time>
      </trkpt>
      <trkpt lat="44.39833" lon="6.407">
        <ele>2007</ele>
        <time>2020-07-07T11:05:38.000Z</time>
      </trkpt>
      <trkpt lat="44.39833" lon="6.407">
        <ele>2007</ele>
        <time>2020-07-07T11:05:39.000Z</time>
      </trkpt>
      <trkpt lat="44.39833" lon="6.407">
        <ele>2007</ele>
        <time>2020-07-07T11:05:40.000Z</time>
      </trkpt>
      <trkpt lat="44.39834" lon="6.407">
        <ele>2007</ele>
        <time>2020-07-07T11:05:41.000Z</time>
      </trkpt>
      <trkpt lat="44.39834" lon="6.407">
        <ele>2007</ele>
        <time>2020-07-07T11:05:42.000Z</time>
      </trkpt>
      <trkpt lat="44.39834" lon="6.407">
        <ele>2007</ele>
        <time>2020-07-07T11:05:43.000Z</time>
      </trkpt>
      <trkpt lat="44.39834" lon="6.407">
        <ele>2007</ele>
        <time>2020-07-07T11:05:44.000Z</time>
      </trkpt>
      <trkpt lat="44.39834" lon="6.407">
        <ele>2007</ele>
        <time>2020-07-07T11:05:45.000Z</time>
      </trkpt>
      <trkpt lat="44.39833" lon="6.407">
        <ele>2007</ele>
        <time>2020-07-07T11:05:46.000Z</time>
      </trkpt>
      <trkpt lat="44.39833" lon="6.407">
        <ele>2007</ele>
        <time>2020-07-07T11:05:47.000Z</time>
      </trkpt>
      <trkpt lat="44.39833" lon="6.407">
        <ele>2007</ele>
        <time>2020-07-07T11:05:48.000Z</time>
      </trkpt>
      <trkpt lat="44.39833" lon="6.407">
        <ele>2007</ele>
        <time>2020-07-07T11:05:49.000Z</time>
      </trkpt>
      <trkpt lat="44.39833" lon="6.407">
        <ele>2007</ele>
        <time>2020-07-07T11:05:50.000Z</time>
      </trkpt>
      <trkpt lat="44.39833" lon="6.407">
        <ele>2007</ele>
        <time>2020-07-07T11:05:51.000Z</time>
      </trkpt>
      <trkpt lat="44.39833" lon="6.407">
        <ele>2007</ele>
        <time>2020-07-07T11:05:52.000Z</time>
      </trkpt>
      <trkpt lat="44.39832" lon="6.407">
        <ele>2007</ele>
        <time>2020-07-07T11:05:53.000Z</time>
      </trkpt>
      <trkpt lat="44.39832" lon="6.407">
        <ele>2007</ele>
        <time>2020-07-07T11:05:54.000Z</time>
      </trkpt>
      <trkpt lat="44.39831" lon="6.40701">
        <ele>2007</ele>
        <time>2020-07-07T11:05:55.000Z</time>
      </trkpt>
      <trkpt lat="44.3983" lon="6.40701">
        <ele>2007</ele>
        <time>2020-07-07T11:05:56.000Z</time>
      </trkpt>
      <trkpt lat="44.39829" lon="6.40702">
        <ele>2007</ele>
        <time>2020-07-07T11:05:57.000Z</time>
      </trkpt>
      <trkpt lat="44.39829" lon="6.40702">
        <ele>2007</ele>
        <time>2020-07-07T11:05:58.000Z</time>
      </trkpt>
      <trkpt lat="44.39828" lon="6.40703">
        <ele>2007</ele>
        <time>2020-07-07T11:05:59.000Z</time>
      </trkpt>
      <trkpt lat="44.39827" lon="6.40703">
        <ele>2007</ele>
        <time>2020-07-07T11:06:00.000Z</time>
      </trkpt>
      <trkpt lat="44.39827" lon="6.40704">
        <ele>2007</ele>
        <time>2020-07-07T11:06:01.000Z</time>
      </trkpt>
      <trkpt lat="44.39826" lon="6.40704">
        <ele>2007</ele>
        <time>2020-07-07T11:06:02.000Z</time>
      </trkpt>
      <trkpt lat="44.39825" lon="6.40705">
        <ele>2007</ele>
        <time>2020-07-07T11:06:03.000Z</time>
      </trkpt>
      <trkpt lat="44.39825" lon="6.40706">
        <ele>2007</ele>
        <time>2020-07-07T11:06:04.000Z</time>
      </trkpt>
      <trkpt lat="44.39824" lon="6.40706">
        <ele>2007</ele>
        <time>2020-07-07T11:06:05.000Z</time>
      </trkpt>
      <trkpt lat="44.39823" lon="6.40707">
        <ele>2007</ele>
        <time>2020-07-07T11:06:06.000Z</time>
      </trkpt>
      <trkpt lat="44.39822" lon="6.40708">
        <ele>2007</ele>
        <time>2020-07-07T11:06:07.000Z</time>
      </trkpt>
      <trkpt lat="44.39821" lon="6.4071">
        <ele>2007</ele>
        <time>2020-07-07T11:06:08.000Z</time>
      </trkpt>
      <trkpt lat="44.3982" lon="6.40712">
        <ele>2007</ele>
        <time>2020-07-07T11:06:09.000Z</time>
      </trkpt>
      <trkpt lat="44.39819" lon="6.40713">
        <ele>2007</ele>
        <time>2020-07-07T11:06:10.000Z</time>
      </trkpt>
      <trkpt lat="44.39818" lon="6.40714">
        <ele>2007</ele>
        <time>2020-07-07T11:06:11.000Z</time>
      </trkpt>
      <trkpt lat="44.39818" lon="6.40715">
        <ele>2007</ele>
        <time>2020-07-07T11:06:12.000Z</time>
      </trkpt>
      <trkpt lat="44.39817" lon="6.40716">
        <ele>2007</ele>
        <time>2020-07-07T11:06:13.000Z</time>
      </trkpt>
      <trkpt lat="44.39816" lon="6.40716">
        <ele>2007</ele>
        <time>2020-07-07T11:06:14.000Z</time>
      </trkpt>
      <trkpt lat="44.39815" lon="6.40717">
        <ele>2007</ele>
        <time>2020-07-07T11:06:15.000Z</time>
      </trkpt>
      <trkpt lat="44.39814" lon="6.40718">
        <ele>2007</ele>
        <time>2020-07-07T11:06:16.000Z</time>
      </trkpt>
      <trkpt lat="44.39814" lon="6.40719">
        <ele>2007</ele>
        <time>2020-07-07T11:06:17.000Z</time>
      </trkpt>
      <trkpt lat="44.39813" lon="6.40719">
        <ele>2007</ele>
        <time>2020-07-07T11:06:18.000Z</time>
      </trkpt>
      <trkpt lat="44.39812" lon="6.4072">
        <ele>2007</ele>
        <time>2020-07-07T11:06:19.000Z</time>
      </trkpt>
      <trkpt lat="44.39811" lon="6.40721">
        <ele>2007</ele>
        <time>2020-07-07T11:06:20.000Z</time>
      </trkpt>
      <trkpt lat="44.3981" lon="6.40721">
        <ele>2007</ele>
        <time>2020-07-07T11:06:21.000Z</time>
      </trkpt>
      <trkpt lat="44.39809" lon="6.40721">
        <ele>2007</ele>
        <time>2020-07-07T11:06:22.000Z</time>
      </trkpt>
      <trkpt lat="44.39808" lon="6.40721">
        <ele>2007</ele>
        <time>2020-07-07T11:06:23.000Z</time>
      </trkpt>
      <trkpt lat="44.39807" lon="6.40722">
        <ele>2007</ele>
        <time>2020-07-07T11:06:24.000Z</time>
      </trkpt>
      <trkpt lat="44.39806" lon="6.40722">
        <ele>2007</ele>
        <time>2020-07-07T11:06:25.000Z</time>
      </trkpt>
      <trkpt lat="44.39806" lon="6.40723">
        <ele>2007</ele>
        <time>2020-07-07T11:06:26.000Z</time>
      </trkpt>
      <trkpt lat="44.39805" lon="6.40724">
        <ele>2007</ele>
        <time>2020-07-07T11:06:27.000Z</time>
      </trkpt>
      <trkpt lat="44.39804" lon="6.40724">
        <ele>2007</ele>
        <time>2020-07-07T11:06:28.000Z</time>
      </trkpt>
      <trkpt lat="44.39803" lon="6.40725">
        <ele>2007</ele>
        <time>2020-07-07T11:06:29.000Z</time>
      </trkpt>
      <trkpt lat="44.39802" lon="6.40725">
        <ele>2007</ele>
        <time>2020-07-07T11:06:30.000Z</time>
      </trkpt>
      <trkpt lat="44.39801" lon="6.40726">
        <ele>2007</ele>
        <time>2020-07-07T11:06:31.000Z</time>
      </trkpt>
      <trkpt lat="44.398" lon="6.40727">
        <ele>2007</ele>
        <time>2020-07-07T11:06:32.000Z</time>
      </trkpt>
      <trkpt lat="44.39799" lon="6.40728">
        <ele>2007</ele>
        <time>2020-07-07T11:06:33.000Z</time>
      </trkpt>
      <trkpt lat="44.39799" lon="6.40728">
        <ele>2007</ele>
        <time>2020-07-07T11:06:34.000Z</time>
      </trkpt>
      <trkpt lat="44.39797" lon="6.40729">
        <ele>2007</ele>
        <time>2020-07-07T11:06:35.000Z</time>
      </trkpt>
      <trkpt lat="44.39796" lon="6.40729">
        <ele>2007</ele>
        <time>2020-07-07T11:06:36.000Z</time>
      </trkpt>
      <trkpt lat="44.39795" lon="6.40729">
        <ele>2007</ele>
        <time>2020-07-07T11:06:37.000Z</time>
      </trkpt>
      <trkpt lat="44.39795" lon="6.4073">
        <ele>2007</ele>
        <time>2020-07-07T11:06:38.000Z</time>
      </trkpt>
      <trkpt lat="44.39794" lon="6.4073">
        <ele>2007</ele>
        <time>2020-07-07T11:06:39.000Z</time>
      </trkpt>
      <trkpt lat="44.39793" lon="6.40731">
        <ele>2007</ele>
        <time>2020-07-07T11:06:40.000Z</time>
      </trkpt>
      <trkpt lat="44.39792" lon="6.40732">
        <ele>2007</ele>
        <time>2020-07-07T11:06:41.000Z</time>
      </trkpt>
      <trkpt lat="44.39791" lon="6.40732">
        <ele>2007</ele>
        <time>2020-07-07T11:06:42.000Z</time>
      </trkpt>
      <trkpt lat="44.39791" lon="6.40734">
        <ele>2007</ele>
        <time>2020-07-07T11:06:43.000Z</time>
      </trkpt>
      <trkpt lat="44.3979" lon="6.40735">
        <ele>2007</ele>
        <time>2020-07-07T11:06:44.000Z</time>
      </trkpt>
      <trkpt lat="44.39789" lon="6.40735">
        <ele>2007</ele>
        <time>2020-07-07T11:06:45.000Z</time>
      </trkpt>
      <trkpt lat="44.39788" lon="6.40735">
        <ele>2008</ele>
        <time>2020-07-07T11:06:46.000Z</time>
      </trkpt>
      <trkpt lat="44.39787" lon="6.40736">
        <ele>2008</ele>
        <time>2020-07-07T11:06:47.000Z</time>
      </trkpt>
      <trkpt lat="44.39786" lon="6.40736">
        <ele>2008</ele>
        <time>2020-07-07T11:06:48.000Z</time>
      </trkpt>
      <trkpt lat="44.39785" lon="6.40736">
        <ele>2008</ele>
        <time>2020-07-07T11:06:49.000Z</time>
      </trkpt>
      <trkpt lat="44.39784" lon="6.40737">
        <ele>2008</ele>
        <time>2020-07-07T11:06:50.000Z</time>
      </trkpt>
      <trkpt lat="44.39783" lon="6.40737">
        <ele>2008</ele>
        <time>2020-07-07T11:06:51.000Z</time>
      </trkpt>
      <trkpt lat="44.39782" lon="6.40737">
        <ele>2008</ele>
        <time>2020-07-07T11:06:52.000Z</time>
      </trkpt>
      <trkpt lat="44.39781" lon="6.40738">
        <ele>2008</ele>
        <time>2020-07-07T11:06:53.000Z</time>
      </trkpt>
      <trkpt lat="44.3978" lon="6.40738">
        <ele>2008</ele>
        <time>2020-07-07T11:06:54.000Z</time>
      </trkpt>
      <trkpt lat="44.3978" lon="6.40738">
        <ele>2009</ele>
        <time>2020-07-07T11:06:55.000Z</time>
      </trkpt>
      <trkpt lat="44.39779" lon="6.40738">
        <ele>2009</ele>
        <time>2020-07-07T11:06:56.000Z</time>
      </trkpt>
      <trkpt lat="44.39778" lon="6.40739">
        <ele>2009</ele>
        <time>2020-07-07T11:06:57.000Z</time>
      </trkpt>
      <trkpt lat="44.39777" lon="6.40739">
        <ele>2009</ele>
        <time>2020-07-07T11:06:58.000Z</time>
      </trkpt>
      <trkpt lat="44.39776" lon="6.40739">
        <ele>2009</ele>
        <time>2020-07-07T11:06:59.000Z</time>
      </trkpt>
      <trkpt lat="44.39776" lon="6.40739">
        <ele>2009</ele>
        <time>2020-07-07T11:07:00.000Z</time>
      </trkpt>
      <trkpt lat="44.39775" lon="6.4074">
        <ele>2009</ele>
        <time>2020-07-07T11:07:01.000Z</time>
      </trkpt>
      <trkpt lat="44.39774" lon="6.4074">
        <ele>2010</ele>
        <time>2020-07-07T11:07:02.000Z</time>
      </trkpt>
      <trkpt lat="44.39772" lon="6.4074">
        <ele>2010</ele>
        <time>2020-07-07T11:07:03.000Z</time>
      </trkpt>
      <trkpt lat="44.39772" lon="6.40741">
        <ele>2010</ele>
        <time>2020-07-07T11:07:04.000Z</time>
      </trkpt>
      <trkpt lat="44.39771" lon="6.40741">
        <ele>2010</ele>
        <time>2020-07-07T11:07:05.000Z</time>
      </trkpt>
      <trkpt lat="44.3977" lon="6.40741">
        <ele>2010</ele>
        <time>2020-07-07T11:07:06.000Z</time>
      </trkpt>
      <trkpt lat="44.39769" lon="6.40742">
        <ele>2010</ele>
        <time>2020-07-07T11:07:07.000Z</time>
      </trkpt>
      <trkpt lat="44.39768" lon="6.40742">
        <ele>2010</ele>
        <time>2020-07-07T11:07:08.000Z</time>
      </trkpt>
      <trkpt lat="44.39767" lon="6.40743">
        <ele>2010</ele>
        <time>2020-07-07T11:07:09.000Z</time>
      </trkpt>
      <trkpt lat="44.39766" lon="6.40743">
        <ele>2010</ele>
        <time>2020-07-07T11:07:10.000Z</time>
      </trkpt>
      <trkpt lat="44.39766" lon="6.40743">
        <ele>2010</ele>
        <time>2020-07-07T11:07:11.000Z</time>
      </trkpt>
      <trkpt lat="44.39764" lon="6.40744">
        <ele>2010</ele>
        <time>2020-07-07T11:07:12.000Z</time>
      </trkpt>
      <trkpt lat="44.39763" lon="6.40744">
        <ele>2010</ele>
        <time>2020-07-07T11:07:13.000Z</time>
      </trkpt>
      <trkpt lat="44.39762" lon="6.40745">
        <ele>2010</ele>
        <time>2020-07-07T11:07:14.000Z</time>
      </trkpt>
      <trkpt lat="44.39761" lon="6.40745">
        <ele>2010</ele>
        <time>2020-07-07T11:07:15.000Z</time>
      </trkpt>
      <trkpt lat="44.3976" lon="6.40745">
        <ele>2010</ele>
        <time>2020-07-07T11:07:16.000Z</time>
      </trkpt>
      <trkpt lat="44.39759" lon="6.40746">
        <ele>2010</ele>
        <time>2020-07-07T11:07:17.000Z</time>
      </trkpt>
      <trkpt lat="44.39758" lon="6.40746">
        <ele>2011</ele>
        <time>2020-07-07T11:07:18.000Z</time>
      </trkpt>
      <trkpt lat="44.39757" lon="6.40747">
        <ele>2011</ele>
        <time>2020-07-07T11:07:19.000Z</time>
      </trkpt>
      <trkpt lat="44.39756" lon="6.40748">
        <ele>2011</ele>
        <time>2020-07-07T11:07:20.000Z</time>
      </trkpt>
      <trkpt lat="44.39755" lon="6.40748">
        <ele>2011</ele>
        <time>2020-07-07T11:07:21.000Z</time>
      </trkpt>
      <trkpt lat="44.39754" lon="6.40749">
        <ele>2011</ele>
        <time>2020-07-07T11:07:22.000Z</time>
      </trkpt>
      <trkpt lat="44.39753" lon="6.4075">
        <ele>2011</ele>
        <time>2020-07-07T11:07:23.000Z</time>
      </trkpt>
      <trkpt lat="44.39752" lon="6.4075">
        <ele>2011</ele>
        <time>2020-07-07T11:07:24.000Z</time>
      </trkpt>
      <trkpt lat="44.39751" lon="6.40751">
        <ele>2011</ele>
        <time>2020-07-07T11:07:25.000Z</time>
      </trkpt>
      <trkpt lat="44.39751" lon="6.40751">
        <ele>2011</ele>
        <time>2020-07-07T11:07:26.000Z</time>
      </trkpt>
      <trkpt lat="44.39749" lon="6.40752">
        <ele>2011</ele>
        <time>2020-07-07T11:07:27.000Z</time>
      </trkpt>
      <trkpt lat="44.39748" lon="6.40752">
        <ele>2011</ele>
        <time>2020-07-07T11:07:28.000Z</time>
      </trkpt>
      <trkpt lat="44.39748" lon="6.40753">
        <ele>2011</ele>
        <time>2020-07-07T11:07:29.000Z</time>
      </trkpt>
      <trkpt lat="44.39746" lon="6.40754">
        <ele>2011</ele>
        <time>2020-07-07T11:07:30.000Z</time>
      </trkpt>
      <trkpt lat="44.39745" lon="6.40754">
        <ele>2011</ele>
        <time>2020-07-07T11:07:31.000Z</time>
      </trkpt>
      <trkpt lat="44.39745" lon="6.40755">
        <ele>2012</ele>
        <time>2020-07-07T11:07:32.000Z</time>
      </trkpt>
      <trkpt lat="44.39744" lon="6.40756">
        <ele>2012</ele>
        <time>2020-07-07T11:07:33.000Z</time>
      </trkpt>
      <trkpt lat="44.39742" lon="6.40756">
        <ele>2012</ele>
        <time>2020-07-07T11:07:34.000Z</time>
      </trkpt>
      <trkpt lat="44.39742" lon="6.40757">
        <ele>2012</ele>
        <time>2020-07-07T11:07:35.000Z</time>
      </trkpt>
      <trkpt lat="44.39741" lon="6.40758">
        <ele>2012</ele>
        <time>2020-07-07T11:07:36.000Z</time>
      </trkpt>
      <trkpt lat="44.3974" lon="6.40758">
        <ele>2012</ele>
        <time>2020-07-07T11:07:37.000Z</time>
      </trkpt>
      <trkpt lat="44.39739" lon="6.40759">
        <ele>2012</ele>
        <time>2020-07-07T11:07:38.000Z</time>
      </trkpt>
      <trkpt lat="44.39738" lon="6.40759">
        <ele>2012</ele>
        <time>2020-07-07T11:07:39.000Z</time>
      </trkpt>
      <trkpt lat="44.39737" lon="6.40759">
        <ele>2012</ele>
        <time>2020-07-07T11:07:40.000Z</time>
      </trkpt>
      <trkpt lat="44.39736" lon="6.4076">
        <ele>2012</ele>
        <time>2020-07-07T11:07:41.000Z</time>
      </trkpt>
      <trkpt lat="44.39735" lon="6.4076">
        <ele>2012</ele>
        <time>2020-07-07T11:07:42.000Z</time>
      </trkpt>
      <trkpt lat="44.39734" lon="6.40761">
        <ele>2012</ele>
        <time>2020-07-07T11:07:43.000Z</time>
      </trkpt>
      <trkpt lat="44.39733" lon="6.40761">
        <ele>2012</ele>
        <time>2020-07-07T11:07:44.000Z</time>
      </trkpt>
      <trkpt lat="44.39732" lon="6.40762">
        <ele>2012</ele>
        <time>2020-07-07T11:07:45.000Z</time>
      </trkpt>
      <trkpt lat="44.39731" lon="6.40762">
        <ele>2013</ele>
        <time>2020-07-07T11:07:46.000Z</time>
      </trkpt>
      <trkpt lat="44.3973" lon="6.40762">
        <ele>2013</ele>
        <time>2020-07-07T11:07:47.000Z</time>
      </trkpt>
      <trkpt lat="44.39729" lon="6.40762">
        <ele>2013</ele>
        <time>2020-07-07T11:07:48.000Z</time>
      </trkpt>
      <trkpt lat="44.39728" lon="6.40763">
        <ele>2013</ele>
        <time>2020-07-07T11:07:49.000Z</time>
      </trkpt>
      <trkpt lat="44.39727" lon="6.40763">
        <ele>2013</ele>
        <time>2020-07-07T11:07:50.000Z</time>
      </trkpt>
      <trkpt lat="44.39726" lon="6.40763">
        <ele>2013</ele>
        <time>2020-07-07T11:07:51.000Z</time>
      </trkpt>
      <trkpt lat="44.39725" lon="6.40764">
        <ele>2013</ele>
        <time>2020-07-07T11:07:52.000Z</time>
      </trkpt>
      <trkpt lat="44.39724" lon="6.40764">
        <ele>2013</ele>
        <time>2020-07-07T11:07:53.000Z</time>
      </trkpt>
      <trkpt lat="44.39723" lon="6.40764">
        <ele>2013</ele>
        <time>2020-07-07T11:07:54.000Z</time>
      </trkpt>
      <trkpt lat="44.39722" lon="6.40764">
        <ele>2013</ele>
        <time>2020-07-07T11:07:55.000Z</time>
      </trkpt>
      <trkpt lat="44.39722" lon="6.40764">
        <ele>2013</ele>
        <time>2020-07-07T11:07:56.000Z</time>
      </trkpt>
      <trkpt lat="44.39721" lon="6.40764">
        <ele>2013</ele>
        <time>2020-07-07T11:07:57.000Z</time>
      </trkpt>
      <trkpt lat="44.3972" lon="6.40764">
        <ele>2013</ele>
        <time>2020-07-07T11:07:58.000Z</time>
      </trkpt>
      <trkpt lat="44.39719" lon="6.40764">
        <ele>2013</ele>
        <time>2020-07-07T11:07:59.000Z</time>
      </trkpt>
      <trkpt lat="44.39718" lon="6.40765">
        <ele>2013</ele>
        <time>2020-07-07T11:08:00.000Z</time>
      </trkpt>
      <trkpt lat="44.39717" lon="6.40765">
        <ele>2013</ele>
        <time>2020-07-07T11:08:01.000Z</time>
      </trkpt>
      <trkpt lat="44.39716" lon="6.40765">
        <ele>2013</ele>
        <time>2020-07-07T11:08:02.000Z</time>
      </trkpt>
      <trkpt lat="44.39715" lon="6.40765">
        <ele>2013</ele>
        <time>2020-07-07T11:08:03.000Z</time>
      </trkpt>
      <trkpt lat="44.39714" lon="6.40765">
        <ele>2013</ele>
        <time>2020-07-07T11:08:04.000Z</time>
      </trkpt>
      <trkpt lat="44.39713" lon="6.40765">
        <ele>2013</ele>
        <time>2020-07-07T11:08:05.000Z</time>
      </trkpt>
      <trkpt lat="44.39712" lon="6.40766">
        <ele>2013</ele>
        <time>2020-07-07T11:08:06.000Z</time>
      </trkpt>
      <trkpt lat="44.39711" lon="6.40766">
        <ele>2013</ele>
        <time>2020-07-07T11:08:07.000Z</time>
      </trkpt>
      <trkpt lat="44.3971" lon="6.40767">
        <ele>2013</ele>
        <time>2020-07-07T11:08:08.000Z</time>
      </trkpt>
      <trkpt lat="44.39709" lon="6.40768">
        <ele>2013</ele>
        <time>2020-07-07T11:08:09.000Z</time>
      </trkpt>
      <trkpt lat="44.39709" lon="6.40768">
        <ele>2013</ele>
        <time>2020-07-07T11:08:10.000Z</time>
      </trkpt>
      <trkpt lat="44.39708" lon="6.40769">
        <ele>2013</ele>
        <time>2020-07-07T11:08:11.000Z</time>
      </trkpt>
      <trkpt lat="44.39707" lon="6.4077">
        <ele>2013</ele>
        <time>2020-07-07T11:08:12.000Z</time>
      </trkpt>
      <trkpt lat="44.39706" lon="6.40771">
        <ele>2013</ele>
        <time>2020-07-07T11:08:13.000Z</time>
      </trkpt>
      <trkpt lat="44.39705" lon="6.40772">
        <ele>2013</ele>
        <time>2020-07-07T11:08:14.000Z</time>
      </trkpt>
      <trkpt lat="44.39704" lon="6.40773">
        <ele>2013</ele>
        <time>2020-07-07T11:08:15.000Z</time>
      </trkpt>
      <trkpt lat="44.39704" lon="6.40774">
        <ele>2013</ele>
        <time>2020-07-07T11:08:16.000Z</time>
      </trkpt>
      <trkpt lat="44.39703" lon="6.40775">
        <ele>2013</ele>
        <time>2020-07-07T11:08:17.000Z</time>
      </trkpt>
      <trkpt lat="44.39702" lon="6.40776">
        <ele>2012</ele>
        <time>2020-07-07T11:08:18.000Z</time>
      </trkpt>
      <trkpt lat="44.39701" lon="6.40777">
        <ele>2012</ele>
        <time>2020-07-07T11:08:19.000Z</time>
      </trkpt>
      <trkpt lat="44.397" lon="6.40778">
        <ele>2012</ele>
        <time>2020-07-07T11:08:20.000Z</time>
      </trkpt>
      <trkpt lat="44.39699" lon="6.40779">
        <ele>2012</ele>
        <time>2020-07-07T11:08:21.000Z</time>
      </trkpt>
      <trkpt lat="44.39698" lon="6.4078">
        <ele>2012</ele>
        <time>2020-07-07T11:08:22.000Z</time>
      </trkpt>
      <trkpt lat="44.39698" lon="6.40781">
        <ele>2012</ele>
        <time>2020-07-07T11:08:23.000Z</time>
      </trkpt>
      <trkpt lat="44.39697" lon="6.40782">
        <ele>2012</ele>
        <time>2020-07-07T11:08:24.000Z</time>
      </trkpt>
      <trkpt lat="44.39696" lon="6.40783">
        <ele>2013</ele>
        <time>2020-07-07T11:08:25.000Z</time>
      </trkpt>
      <trkpt lat="44.39695" lon="6.40784">
        <ele>2013</ele>
        <time>2020-07-07T11:08:26.000Z</time>
      </trkpt>
      <trkpt lat="44.39694" lon="6.40785">
        <ele>2012</ele>
        <time>2020-07-07T11:08:27.000Z</time>
      </trkpt>
      <trkpt lat="44.39694" lon="6.40786">
        <ele>2013</ele>
        <time>2020-07-07T11:08:28.000Z</time>
      </trkpt>
      <trkpt lat="44.39693" lon="6.40787">
        <ele>2013</ele>
        <time>2020-07-07T11:08:29.000Z</time>
      </trkpt>
      <trkpt lat="44.39692" lon="6.40788">
        <ele>2012</ele>
        <time>2020-07-07T11:08:30.000Z</time>
      </trkpt>
      <trkpt lat="44.39691" lon="6.40788">
        <ele>2012</ele>
        <time>2020-07-07T11:08:31.000Z</time>
      </trkpt>
      <trkpt lat="44.3969" lon="6.40788">
        <ele>2012</ele>
        <time>2020-07-07T11:08:32.000Z</time>
      </trkpt>
      <trkpt lat="44.39689" lon="6.40789">
        <ele>2012</ele>
        <time>2020-07-07T11:08:33.000Z</time>
      </trkpt>
      <trkpt lat="44.39688" lon="6.40789">
        <ele>2012</ele>
        <time>2020-07-07T11:08:34.000Z</time>
      </trkpt>
      <trkpt lat="44.39687" lon="6.40789">
        <ele>2012</ele>
        <time>2020-07-07T11:08:35.000Z</time>
      </trkpt>
      <trkpt lat="44.39686" lon="6.4079">
        <ele>2012</ele>
        <time>2020-07-07T11:08:36.000Z</time>
      </trkpt>
      <trkpt lat="44.39685" lon="6.4079">
        <ele>2012</ele>
        <time>2020-07-07T11:08:37.000Z</time>
      </trkpt>
      <trkpt lat="44.39683" lon="6.4079">
        <ele>2012</ele>
        <time>2020-07-07T11:08:38.000Z</time>
      </trkpt>
      <trkpt lat="44.39682" lon="6.4079">
        <ele>2012</ele>
        <time>2020-07-07T11:08:39.000Z</time>
      </trkpt>
      <trkpt lat="44.39682" lon="6.4079">
        <ele>2012</ele>
        <time>2020-07-07T11:08:40.000Z</time>
      </trkpt>
      <trkpt lat="44.39681" lon="6.4079">
        <ele>2012</ele>
        <time>2020-07-07T11:08:41.000Z</time>
      </trkpt>
      <trkpt lat="44.39679" lon="6.4079">
        <ele>2012</ele>
        <time>2020-07-07T11:08:42.000Z</time>
      </trkpt>
      <trkpt lat="44.39678" lon="6.4079">
        <ele>2012</ele>
        <time>2020-07-07T11:08:43.000Z</time>
      </trkpt>
      <trkpt lat="44.39677" lon="6.4079">
        <ele>2012</ele>
        <time>2020-07-07T11:08:44.000Z</time>
      </trkpt>
      <trkpt lat="44.39676" lon="6.4079">
        <ele>2012</ele>
        <time>2020-07-07T11:08:45.000Z</time>
      </trkpt>
      <trkpt lat="44.39675" lon="6.4079">
        <ele>2012</ele>
        <time>2020-07-07T11:08:46.000Z</time>
      </trkpt>
      <trkpt lat="44.39674" lon="6.4079">
        <ele>2012</ele>
        <time>2020-07-07T11:08:47.000Z</time>
      </trkpt>
      <trkpt lat="44.39673" lon="6.4079">
        <ele>2012</ele>
        <time>2020-07-07T11:08:48.000Z</time>
      </trkpt>
      <trkpt lat="44.39672" lon="6.40791">
        <ele>2012</ele>
        <time>2020-07-07T11:08:49.000Z</time>
      </trkpt>
      <trkpt lat="44.39671" lon="6.40791">
        <ele>2012</ele>
        <time>2020-07-07T11:08:50.000Z</time>
      </trkpt>
      <trkpt lat="44.3967" lon="6.40791">
        <ele>2012</ele>
        <time>2020-07-07T11:08:51.000Z</time>
      </trkpt>
      <trkpt lat="44.39669" lon="6.40791">
        <ele>2012</ele>
        <time>2020-07-07T11:08:52.000Z</time>
      </trkpt>
      <trkpt lat="44.39668" lon="6.40791">
        <ele>2011</ele>
        <time>2020-07-07T11:08:53.000Z</time>
      </trkpt>
      <trkpt lat="44.39667" lon="6.40791">
        <ele>2011</ele>
        <time>2020-07-07T11:08:54.000Z</time>
      </trkpt>
      <trkpt lat="44.39666" lon="6.40791">
        <ele>2011</ele>
        <time>2020-07-07T11:08:55.000Z</time>
      </trkpt>
      <trkpt lat="44.39665" lon="6.40791">
        <ele>2011</ele>
        <time>2020-07-07T11:08:56.000Z</time>
      </trkpt>
      <trkpt lat="44.39664" lon="6.40791">
        <ele>2011</ele>
        <time>2020-07-07T11:08:57.000Z</time>
      </trkpt>
      <trkpt lat="44.39663" lon="6.40791">
        <ele>2011</ele>
        <time>2020-07-07T11:08:58.000Z</time>
      </trkpt>
      <trkpt lat="44.39663" lon="6.40791">
        <ele>2011</ele>
        <time>2020-07-07T11:08:59.000Z</time>
      </trkpt>
      <trkpt lat="44.39662" lon="6.40791">
        <ele>2011</ele>
        <time>2020-07-07T11:09:00.000Z</time>
      </trkpt>
      <trkpt lat="44.39662" lon="6.40791">
        <ele>2011</ele>
        <time>2020-07-07T11:09:01.000Z</time>
      </trkpt>
      <trkpt lat="44.39661" lon="6.40791">
        <ele>2011</ele>
        <time>2020-07-07T11:09:02.000Z</time>
      </trkpt>
      <trkpt lat="44.39661" lon="6.40791">
        <ele>2011</ele>
        <time>2020-07-07T11:09:03.000Z</time>
      </trkpt>
      <trkpt lat="44.3966" lon="6.4079">
        <ele>2011</ele>
        <time>2020-07-07T11:09:04.000Z</time>
      </trkpt>
      <trkpt lat="44.3966" lon="6.4079">
        <ele>2011</ele>
        <time>2020-07-07T11:09:05.000Z</time>
      </trkpt>
      <trkpt lat="44.39659" lon="6.4079">
        <ele>2012</ele>
        <time>2020-07-07T11:09:06.000Z</time>
      </trkpt>
      <trkpt lat="44.39659" lon="6.40789">
        <ele>2012</ele>
        <time>2020-07-07T11:09:07.000Z</time>
      </trkpt>
      <trkpt lat="44.39659" lon="6.4079">
        <ele>2012</ele>
        <time>2020-07-07T11:09:08.000Z</time>
      </trkpt>
      <trkpt lat="44.39658" lon="6.4079">
        <ele>2012</ele>
        <time>2020-07-07T11:09:09.000Z</time>
      </trkpt>
      <trkpt lat="44.39657" lon="6.40791">
        <ele>2012</ele>
        <time>2020-07-07T11:09:10.000Z</time>
      </trkpt>
      <trkpt lat="44.39656" lon="6.40792">
        <ele>2012</ele>
        <time>2020-07-07T11:09:11.000Z</time>
      </trkpt>
      <trkpt lat="44.39655" lon="6.40793">
        <ele>2012</ele>
        <time>2020-07-07T11:09:12.000Z</time>
      </trkpt>
      <trkpt lat="44.39654" lon="6.40793">
        <ele>2012</ele>
        <time>2020-07-07T11:09:13.000Z</time>
      </trkpt>
      <trkpt lat="44.39653" lon="6.40793">
        <ele>2012</ele>
        <time>2020-07-07T11:09:14.000Z</time>
      </trkpt>
      <trkpt lat="44.39652" lon="6.40794">
        <ele>2012</ele>
        <time>2020-07-07T11:09:15.000Z</time>
      </trkpt>
      <trkpt lat="44.39652" lon="6.40794">
        <ele>2012</ele>
        <time>2020-07-07T11:09:16.000Z</time>
      </trkpt>
      <trkpt lat="44.39651" lon="6.40795">
        <ele>2012</ele>
        <time>2020-07-07T11:09:17.000Z</time>
      </trkpt>
      <trkpt lat="44.3965" lon="6.40795">
        <ele>2012</ele>
        <time>2020-07-07T11:09:18.000Z</time>
      </trkpt>
      <trkpt lat="44.39649" lon="6.40795">
        <ele>2012</ele>
        <time>2020-07-07T11:09:19.000Z</time>
      </trkpt>
      <trkpt lat="44.39648" lon="6.40796">
        <ele>2012</ele>
        <time>2020-07-07T11:09:20.000Z</time>
      </trkpt>
      <trkpt lat="44.39648" lon="6.40796">
        <ele>2012</ele>
        <time>2020-07-07T11:09:21.000Z</time>
      </trkpt>
      <trkpt lat="44.39647" lon="6.40797">
        <ele>2012</ele>
        <time>2020-07-07T11:09:22.000Z</time>
      </trkpt>
      <trkpt lat="44.39646" lon="6.40798">
        <ele>2012</ele>
        <time>2020-07-07T11:09:23.000Z</time>
      </trkpt>
      <trkpt lat="44.39645" lon="6.40798">
        <ele>2012</ele>
        <time>2020-07-07T11:09:24.000Z</time>
      </trkpt>
      <trkpt lat="44.39644" lon="6.40799">
        <ele>2012</ele>
        <time>2020-07-07T11:09:25.000Z</time>
      </trkpt>
      <trkpt lat="44.39643" lon="6.40799">
        <ele>2012</ele>
        <time>2020-07-07T11:09:26.000Z</time>
      </trkpt>
      <trkpt lat="44.39642" lon="6.408">
        <ele>2013</ele>
        <time>2020-07-07T11:09:27.000Z</time>
      </trkpt>
      <trkpt lat="44.39641" lon="6.408">
        <ele>2012</ele>
        <time>2020-07-07T11:09:28.000Z</time>
      </trkpt>
      <trkpt lat="44.3964" lon="6.40801">
        <ele>2013</ele>
        <time>2020-07-07T11:09:29.000Z</time>
      </trkpt>
      <trkpt lat="44.39639" lon="6.40802">
        <ele>2013</ele>
        <time>2020-07-07T11:09:30.000Z</time>
      </trkpt>
      <trkpt lat="44.39638" lon="6.40802">
        <ele>2013</ele>
        <time>2020-07-07T11:09:31.000Z</time>
      </trkpt>
      <trkpt lat="44.39638" lon="6.40803">
        <ele>2013</ele>
        <time>2020-07-07T11:09:32.000Z</time>
      </trkpt>
      <trkpt lat="44.39637" lon="6.40804">
        <ele>2013</ele>
        <time>2020-07-07T11:09:33.000Z</time>
      </trkpt>
      <trkpt lat="44.39636" lon="6.40804">
        <ele>2013</ele>
        <time>2020-07-07T11:09:34.000Z</time>
      </trkpt>
      <trkpt lat="44.39635" lon="6.40805">
        <ele>2013</ele>
        <time>2020-07-07T11:09:35.000Z</time>
      </trkpt>
      <trkpt lat="44.39634" lon="6.40805">
        <ele>2013</ele>
        <time>2020-07-07T11:09:36.000Z</time>
      </trkpt>
      <trkpt lat="44.39633" lon="6.40806">
        <ele>2013</ele>
        <time>2020-07-07T11:09:37.000Z</time>
      </trkpt>
      <trkpt lat="44.39633" lon="6.40806">
        <ele>2013</ele>
        <time>2020-07-07T11:09:38.000Z</time>
      </trkpt>
      <trkpt lat="44.39632" lon="6.40807">
        <ele>2013</ele>
        <time>2020-07-07T11:09:39.000Z</time>
      </trkpt>
      <trkpt lat="44.39632" lon="6.40808">
        <ele>2013</ele>
        <time>2020-07-07T11:09:40.000Z</time>
      </trkpt>
      <trkpt lat="44.39631" lon="6.40809">
        <ele>2013</ele>
        <time>2020-07-07T11:09:41.000Z</time>
      </trkpt>
      <trkpt lat="44.39631" lon="6.40809">
        <ele>2013</ele>
        <time>2020-07-07T11:09:42.000Z</time>
      </trkpt>
      <trkpt lat="44.3963" lon="6.40811">
        <ele>2013</ele>
        <time>2020-07-07T11:09:43.000Z</time>
      </trkpt>
      <trkpt lat="44.3963" lon="6.40812">
        <ele>2013</ele>
        <time>2020-07-07T11:09:44.000Z</time>
      </trkpt>
      <trkpt lat="44.39629" lon="6.40813">
        <ele>2013</ele>
        <time>2020-07-07T11:09:45.000Z</time>
      </trkpt>
      <trkpt lat="44.39628" lon="6.40814">
        <ele>2013</ele>
        <time>2020-07-07T11:09:46.000Z</time>
      </trkpt>
      <trkpt lat="44.39628" lon="6.40815">
        <ele>2013</ele>
        <time>2020-07-07T11:09:47.000Z</time>
      </trkpt>
      <trkpt lat="44.39627" lon="6.40816">
        <ele>2013</ele>
        <time>2020-07-07T11:09:48.000Z</time>
      </trkpt>
      <trkpt lat="44.39626" lon="6.40817">
        <ele>2013</ele>
        <time>2020-07-07T11:09:49.000Z</time>
      </trkpt>
      <trkpt lat="44.39625" lon="6.40817">
        <ele>2013</ele>
        <time>2020-07-07T11:09:50.000Z</time>
      </trkpt>
      <trkpt lat="44.39624" lon="6.40818">
        <ele>2012</ele>
        <time>2020-07-07T11:09:51.000Z</time>
      </trkpt>
      <trkpt lat="44.39624" lon="6.40819">
        <ele>2012</ele>
        <time>2020-07-07T11:09:52.000Z</time>
      </trkpt>
      <trkpt lat="44.39623" lon="6.4082">
        <ele>2012</ele>
        <time>2020-07-07T11:09:53.000Z</time>
      </trkpt>
      <trkpt lat="44.39622" lon="6.4082">
        <ele>2012</ele>
        <time>2020-07-07T11:09:54.000Z</time>
      </trkpt>
      <trkpt lat="44.39621" lon="6.4082">
        <ele>2012</ele>
        <time>2020-07-07T11:09:55.000Z</time>
      </trkpt>
      <trkpt lat="44.3962" lon="6.40821">
        <ele>2012</ele>
        <time>2020-07-07T11:09:56.000Z</time>
      </trkpt>
      <trkpt lat="44.3962" lon="6.40822">
        <ele>2012</ele>
        <time>2020-07-07T11:09:57.000Z</time>
      </trkpt>
      <trkpt lat="44.39619" lon="6.40823">
        <ele>2012</ele>
        <time>2020-07-07T11:09:58.000Z</time>
      </trkpt>
      <trkpt lat="44.39618" lon="6.40823">
        <ele>2012</ele>
        <time>2020-07-07T11:09:59.000Z</time>
      </trkpt>
      <trkpt lat="44.39617" lon="6.40824">
        <ele>2012</ele>
        <time>2020-07-07T11:10:00.000Z</time>
      </trkpt>
      <trkpt lat="44.39616" lon="6.40824">
        <ele>2012</ele>
        <time>2020-07-07T11:10:01.000Z</time>
      </trkpt>
      <trkpt lat="44.39615" lon="6.40824">
        <ele>2013</ele>
        <time>2020-07-07T11:10:02.000Z</time>
      </trkpt>
      <trkpt lat="44.39614" lon="6.40825">
        <ele>2013</ele>
        <time>2020-07-07T11:10:03.000Z</time>
      </trkpt>
      <trkpt lat="44.39613" lon="6.40826">
        <ele>2013</ele>
        <time>2020-07-07T11:10:04.000Z</time>
      </trkpt>
      <trkpt lat="44.39612" lon="6.40826">
        <ele>2013</ele>
        <time>2020-07-07T11:10:05.000Z</time>
      </trkpt>
      <trkpt lat="44.39612" lon="6.40827">
        <ele>2013</ele>
        <time>2020-07-07T11:10:06.000Z</time>
      </trkpt>
      <trkpt lat="44.39611" lon="6.40828">
        <ele>2013</ele>
        <time>2020-07-07T11:10:07.000Z</time>
      </trkpt>
      <trkpt lat="44.3961" lon="6.40829">
        <ele>2013</ele>
        <time>2020-07-07T11:10:08.000Z</time>
      </trkpt>
      <trkpt lat="44.3961" lon="6.4083">
        <ele>2013</ele>
        <time>2020-07-07T11:10:09.000Z</time>
      </trkpt>
      <trkpt lat="44.39609" lon="6.4083">
        <ele>2013</ele>
        <time>2020-07-07T11:10:10.000Z</time>
      </trkpt>
      <trkpt lat="44.39608" lon="6.40829">
        <ele>2014</ele>
        <time>2020-07-07T11:10:11.000Z</time>
      </trkpt>
      <trkpt lat="44.39607" lon="6.4083">
        <ele>2014</ele>
        <time>2020-07-07T11:10:12.000Z</time>
      </trkpt>
      <trkpt lat="44.39607" lon="6.40831">
        <ele>2014</ele>
        <time>2020-07-07T11:10:13.000Z</time>
      </trkpt>
      <trkpt lat="44.39606" lon="6.40832">
        <ele>2014</ele>
        <time>2020-07-07T11:10:14.000Z</time>
      </trkpt>
      <trkpt lat="44.39605" lon="6.40832">
        <ele>2014</ele>
        <time>2020-07-07T11:10:15.000Z</time>
      </trkpt>
      <trkpt lat="44.39605" lon="6.40833">
        <ele>2014</ele>
        <time>2020-07-07T11:10:16.000Z</time>
      </trkpt>
      <trkpt lat="44.39605" lon="6.40834">
        <ele>2014</ele>
        <time>2020-07-07T11:10:17.000Z</time>
      </trkpt>
      <trkpt lat="44.39604" lon="6.40835">
        <ele>2014</ele>
        <time>2020-07-07T11:10:18.000Z</time>
      </trkpt>
      <trkpt lat="44.39603" lon="6.40834">
        <ele>2015</ele>
        <time>2020-07-07T11:10:19.000Z</time>
      </trkpt>
      <trkpt lat="44.39602" lon="6.40834">
        <ele>2015</ele>
        <time>2020-07-07T11:10:20.000Z</time>
      </trkpt>
      <trkpt lat="44.39602" lon="6.40834">
        <ele>2015</ele>
        <time>2020-07-07T11:10:21.000Z</time>
      </trkpt>
      <trkpt lat="44.39602" lon="6.40835">
        <ele>2015</ele>
        <time>2020-07-07T11:10:22.000Z</time>
      </trkpt>
      <trkpt lat="44.39601" lon="6.40836">
        <ele>2015</ele>
        <time>2020-07-07T11:10:23.000Z</time>
      </trkpt>
      <trkpt lat="44.39601" lon="6.40837">
        <ele>2015</ele>
        <time>2020-07-07T11:10:24.000Z</time>
      </trkpt>
      <trkpt lat="44.396" lon="6.40838">
        <ele>2015</ele>
        <time>2020-07-07T11:10:25.000Z</time>
      </trkpt>
      <trkpt lat="44.39599" lon="6.40838">
        <ele>2015</ele>
        <time>2020-07-07T11:10:26.000Z</time>
      </trkpt>
      <trkpt lat="44.39599" lon="6.40838">
        <ele>2015</ele>
        <time>2020-07-07T11:10:27.000Z</time>
      </trkpt>
      <trkpt lat="44.39598" lon="6.40839">
        <ele>2016</ele>
        <time>2020-07-07T11:10:28.000Z</time>
      </trkpt>
      <trkpt lat="44.39597" lon="6.4084">
        <ele>2016</ele>
        <time>2020-07-07T11:10:29.000Z</time>
      </trkpt>
      <trkpt lat="44.39596" lon="6.4084">
        <ele>2016</ele>
        <time>2020-07-07T11:10:30.000Z</time>
      </trkpt>
      <trkpt lat="44.39596" lon="6.40841">
        <ele>2016</ele>
        <time>2020-07-07T11:10:31.000Z</time>
      </trkpt>
      <trkpt lat="44.39596" lon="6.40842">
        <ele>2016</ele>
        <time>2020-07-07T11:10:32.000Z</time>
      </trkpt>
      <trkpt lat="44.39595" lon="6.40843">
        <ele>2016</ele>
        <time>2020-07-07T11:10:33.000Z</time>
      </trkpt>
      <trkpt lat="44.39595" lon="6.40844">
        <ele>2016</ele>
        <time>2020-07-07T11:10:34.000Z</time>
      </trkpt>
      <trkpt lat="44.39594" lon="6.40845">
        <ele>2017</ele>
        <time>2020-07-07T11:10:35.000Z</time>
      </trkpt>
      <trkpt lat="44.39594" lon="6.40846">
        <ele>2017</ele>
        <time>2020-07-07T11:10:36.000Z</time>
      </trkpt>
      <trkpt lat="44.39593" lon="6.40847">
        <ele>2017</ele>
        <time>2020-07-07T11:10:37.000Z</time>
      </trkpt>
      <trkpt lat="44.39592" lon="6.40847">
        <ele>2017</ele>
        <time>2020-07-07T11:10:38.000Z</time>
      </trkpt>
      <trkpt lat="44.39592" lon="6.40848">
        <ele>2017</ele>
        <time>2020-07-07T11:10:39.000Z</time>
      </trkpt>
      <trkpt lat="44.39592" lon="6.40849">
        <ele>2017</ele>
        <time>2020-07-07T11:10:40.000Z</time>
      </trkpt>
      <trkpt lat="44.39591" lon="6.4085">
        <ele>2018</ele>
        <time>2020-07-07T11:10:41.000Z</time>
      </trkpt>
      <trkpt lat="44.3959" lon="6.4085">
        <ele>2018</ele>
        <time>2020-07-07T11:10:42.000Z</time>
      </trkpt>
      <trkpt lat="44.3959" lon="6.4085">
        <ele>2018</ele>
        <time>2020-07-07T11:10:43.000Z</time>
      </trkpt>
      <trkpt lat="44.39589" lon="6.40851">
        <ele>2018</ele>
        <time>2020-07-07T11:10:44.000Z</time>
      </trkpt>
      <trkpt lat="44.39588" lon="6.40851">
        <ele>2018</ele>
        <time>2020-07-07T11:10:45.000Z</time>
      </trkpt>
      <trkpt lat="44.39588" lon="6.40852">
        <ele>2018</ele>
        <time>2020-07-07T11:10:46.000Z</time>
      </trkpt>
      <trkpt lat="44.39587" lon="6.40852">
        <ele>2019</ele>
        <time>2020-07-07T11:10:47.000Z</time>
      </trkpt>
      <trkpt lat="44.39587" lon="6.40852">
        <ele>2019</ele>
        <time>2020-07-07T11:10:48.000Z</time>
      </trkpt>
      <trkpt lat="44.39587" lon="6.40852">
        <ele>2019</ele>
        <time>2020-07-07T11:10:49.000Z</time>
      </trkpt>
      <trkpt lat="44.39587" lon="6.40852">
        <ele>2019</ele>
        <time>2020-07-07T11:10:50.000Z</time>
      </trkpt>
      <trkpt lat="44.39587" lon="6.40852">
        <ele>2019</ele>
        <time>2020-07-07T11:10:51.000Z</time>
      </trkpt>
      <trkpt lat="44.39587" lon="6.40852">
        <ele>2019</ele>
        <time>2020-07-07T11:10:52.000Z</time>
      </trkpt>
      <trkpt lat="44.39587" lon="6.40852">
        <ele>2020</ele>
        <time>2020-07-07T11:10:53.000Z</time>
      </trkpt>
      <trkpt lat="44.39587" lon="6.40852">
        <ele>2020</ele>
        <time>2020-07-07T11:10:54.000Z</time>
      </trkpt>
      <trkpt lat="44.39587" lon="6.40852">
        <ele>2020</ele>
        <time>2020-07-07T11:10:55.000Z</time>
      </trkpt>
      <trkpt lat="44.39587" lon="6.40852">
        <ele>2020</ele>
        <time>2020-07-07T11:10:56.000Z</time>
      </trkpt>
      <trkpt lat="44.39587" lon="6.40852">
        <ele>2020</ele>
        <time>2020-07-07T11:10:57.000Z</time>
      </trkpt>
      <trkpt lat="44.39587" lon="6.40852">
        <ele>2020</ele>
        <time>2020-07-07T11:10:58.000Z</time>
      </trkpt>
      <trkpt lat="44.39587" lon="6.40852">
        <ele>2020</ele>
        <time>2020-07-07T11:10:59.000Z</time>
      </trkpt>
      <trkpt lat="44.39587" lon="6.40852">
        <ele>2020</ele>
        <time>2020-07-07T11:11:00.000Z</time>
      </trkpt>
      <trkpt lat="44.39587" lon="6.40852">
        <ele>2021</ele>
        <time>2020-07-07T11:11:01.000Z</time>
      </trkpt>
      <trkpt lat="44.39587" lon="6.40852">
        <ele>2021</ele>
        <time>2020-07-07T11:11:02.000Z</time>
      </trkpt>
      <trkpt lat="44.39587" lon="6.40852">
        <ele>2021</ele>
        <time>2020-07-07T11:11:03.000Z</time>
      </trkpt>
      <trkpt lat="44.39587" lon="6.40852">
        <ele>2021</ele>
        <time>2020-07-07T11:11:04.000Z</time>
      </trkpt>
      <trkpt lat="44.39587" lon="6.40852">
        <ele>2021</ele>
        <time>2020-07-07T11:11:05.000Z</time>
      </trkpt>
      <trkpt lat="44.39587" lon="6.40852">
        <ele>2021</ele>
        <time>2020-07-07T11:11:06.000Z</time>
      </trkpt>
      <trkpt lat="44.39587" lon="6.40852">
        <ele>2021</ele>
        <time>2020-07-07T11:11:07.000Z</time>
      </trkpt>
      <trkpt lat="44.39587" lon="6.40853">
        <ele>2021</ele>
        <time>2020-07-07T11:11:08.000Z</time>
      </trkpt>
      <trkpt lat="44.39587" lon="6.40853">
        <ele>2021</ele>
        <time>2020-07-07T11:11:09.000Z</time>
      </trkpt>
      <trkpt lat="44.39587" lon="6.40853">
        <ele>2021</ele>
        <time>2020-07-07T11:11:10.000Z</time>
      </trkpt>
      <trkpt lat="44.39587" lon="6.40853">
        <ele>2021</ele>
        <time>2020-07-07T11:11:11.000Z</time>
      </trkpt>
      <trkpt lat="44.39586" lon="6.40853">
        <ele>2021</ele>
        <time>2020-07-07T11:11:12.000Z</time>
      </trkpt>
      <trkpt lat="44.39586" lon="6.40853">
        <ele>2021</ele>
        <time>2020-07-07T11:11:13.000Z</time>
      </trkpt>
      <trkpt lat="44.39586" lon="6.40853">
        <ele>2021</ele>
        <time>2020-07-07T11:11:14.000Z</time>
      </trkpt>
      <trkpt lat="44.39586" lon="6.40853">
        <ele>2021</ele>
        <time>2020-07-07T11:11:15.000Z</time>
      </trkpt>
      <trkpt lat="44.39586" lon="6.40853">
        <ele>2021</ele>
        <time>2020-07-07T11:11:16.000Z</time>
      </trkpt>
      <trkpt lat="44.39586" lon="6.40853">
        <ele>2021</ele>
        <time>2020-07-07T11:11:17.000Z</time>
      </trkpt>
      <trkpt lat="44.39586" lon="6.40853">
        <ele>2021</ele>
        <time>2020-07-07T11:11:18.000Z</time>
      </trkpt>
      <trkpt lat="44.39586" lon="6.40853">
        <ele>2021</ele>
        <time>2020-07-07T11:11:19.000Z</time>
      </trkpt>
      <trkpt lat="44.39586" lon="6.40853">
        <ele>2022</ele>
        <time>2020-07-07T11:11:20.000Z</time>
      </trkpt>
      <trkpt lat="44.39586" lon="6.40853">
        <ele>2022</ele>
        <time>2020-07-07T11:11:21.000Z</time>
      </trkpt>
      <trkpt lat="44.39586" lon="6.40853">
        <ele>2022</ele>
        <time>2020-07-07T11:11:22.000Z</time>
      </trkpt>
      <trkpt lat="44.39586" lon="6.40853">
        <ele>2022</ele>
        <time>2020-07-07T11:11:23.000Z</time>
      </trkpt>
      <trkpt lat="44.39586" lon="6.40853">
        <ele>2022</ele>
        <time>2020-07-07T11:11:24.000Z</time>
      </trkpt>
      <trkpt lat="44.39586" lon="6.40853">
        <ele>2022</ele>
        <time>2020-07-07T11:11:25.000Z</time>
      </trkpt>
      <trkpt lat="44.39586" lon="6.40853">
        <ele>2022</ele>
        <time>2020-07-07T11:11:26.000Z</time>
      </trkpt>
      <trkpt lat="44.39586" lon="6.40853">
        <ele>2022</ele>
        <time>2020-07-07T11:11:27.000Z</time>
      </trkpt>
      <trkpt lat="44.39586" lon="6.40853">
        <ele>2022</ele>
        <time>2020-07-07T11:11:28.000Z</time>
      </trkpt>
      <trkpt lat="44.39586" lon="6.40853">
        <ele>2022</ele>
        <time>2020-07-07T11:11:29.000Z</time>
      </trkpt>
      <trkpt lat="44.39586" lon="6.40853">
        <ele>2022</ele>
        <time>2020-07-07T11:11:30.000Z</time>
      </trkpt>
      <trkpt lat="44.39585" lon="6.40854">
        <ele>2022</ele>
        <time>2020-07-07T11:11:31.000Z</time>
      </trkpt>
      <trkpt lat="44.39585" lon="6.40854">
        <ele>2022</ele>
        <time>2020-07-07T11:11:32.000Z</time>
      </trkpt>
      <trkpt lat="44.39584" lon="6.40854">
        <ele>2022</ele>
        <time>2020-07-07T11:11:33.000Z</time>
      </trkpt>
      <trkpt lat="44.39584" lon="6.40855">
        <ele>2022</ele>
        <time>2020-07-07T11:11:34.000Z</time>
      </trkpt>
      <trkpt lat="44.39583" lon="6.40855">
        <ele>2022</ele>
        <time>2020-07-07T11:11:35.000Z</time>
      </trkpt>
      <trkpt lat="44.39582" lon="6.40855">
        <ele>2022</ele>
        <time>2020-07-07T11:11:36.000Z</time>
      </trkpt>
      <trkpt lat="44.39581" lon="6.40854">
        <ele>2022</ele>
        <time>2020-07-07T11:11:37.000Z</time>
      </trkpt>
      <trkpt lat="44.3958" lon="6.40854">
        <ele>2023</ele>
        <time>2020-07-07T11:11:38.000Z</time>
      </trkpt>
      <trkpt lat="44.3958" lon="6.40853">
        <ele>2022</ele>
        <time>2020-07-07T11:11:39.000Z</time>
      </trkpt>
      <trkpt lat="44.39579" lon="6.40852">
        <ele>2022</ele>
        <time>2020-07-07T11:11:40.000Z</time>
      </trkpt>
      <trkpt lat="44.39578" lon="6.40851">
        <ele>2022</ele>
        <time>2020-07-07T11:11:41.000Z</time>
      </trkpt>
      <trkpt lat="44.39578" lon="6.4085">
        <ele>2022</ele>
        <time>2020-07-07T11:11:42.000Z</time>
      </trkpt>
      <trkpt lat="44.39577" lon="6.40849">
        <ele>2023</ele>
        <time>2020-07-07T11:11:43.000Z</time>
      </trkpt>
      <trkpt lat="44.39576" lon="6.40848">
        <ele>2023</ele>
        <time>2020-07-07T11:11:44.000Z</time>
      </trkpt>
      <trkpt lat="44.39576" lon="6.40847">
        <ele>2023</ele>
        <time>2020-07-07T11:11:45.000Z</time>
      </trkpt>
      <trkpt lat="44.39575" lon="6.40846">
        <ele>2023</ele>
        <time>2020-07-07T11:11:46.000Z</time>
      </trkpt>
      <trkpt lat="44.39574" lon="6.40845">
        <ele>2023</ele>
        <time>2020-07-07T11:11:47.000Z</time>
      </trkpt>
      <trkpt lat="44.39573" lon="6.40843">
        <ele>2023</ele>
        <time>2020-07-07T11:11:48.000Z</time>
      </trkpt>
      <trkpt lat="44.39573" lon="6.40842">
        <ele>2023</ele>
        <time>2020-07-07T11:11:49.000Z</time>
      </trkpt>
      <trkpt lat="44.39572" lon="6.40841">
        <ele>2023</ele>
        <time>2020-07-07T11:11:50.000Z</time>
      </trkpt>
      <trkpt lat="44.39571" lon="6.4084">
        <ele>2023</ele>
        <time>2020-07-07T11:11:51.000Z</time>
      </trkpt>
      <trkpt lat="44.39571" lon="6.40839">
        <ele>2023</ele>
        <time>2020-07-07T11:11:52.000Z</time>
      </trkpt>
      <trkpt lat="44.3957" lon="6.40838">
        <ele>2023</ele>
        <time>2020-07-07T11:11:53.000Z</time>
      </trkpt>
      <trkpt lat="44.39569" lon="6.40837">
        <ele>2023</ele>
        <time>2020-07-07T11:11:54.000Z</time>
      </trkpt>
      <trkpt lat="44.39568" lon="6.40836">
        <ele>2023</ele>
        <time>2020-07-07T11:11:55.000Z</time>
      </trkpt>
      <trkpt lat="44.39567" lon="6.40835">
        <ele>2023</ele>
        <time>2020-07-07T11:11:56.000Z</time>
      </trkpt>
      <trkpt lat="44.39567" lon="6.40834">
        <ele>2023</ele>
        <time>2020-07-07T11:11:57.000Z</time>
      </trkpt>
      <trkpt lat="44.39566" lon="6.40833">
        <ele>2023</ele>
        <time>2020-07-07T11:11:58.000Z</time>
      </trkpt>
      <trkpt lat="44.39565" lon="6.40832">
        <ele>2023</ele>
        <time>2020-07-07T11:11:59.000Z</time>
      </trkpt>
      <trkpt lat="44.39564" lon="6.40832">
        <ele>2023</ele>
        <time>2020-07-07T11:12:00.000Z</time>
      </trkpt>
      <trkpt lat="44.39564" lon="6.40831">
        <ele>2023</ele>
        <time>2020-07-07T11:12:01.000Z</time>
      </trkpt>
      <trkpt lat="44.39563" lon="6.4083">
        <ele>2023</ele>
        <time>2020-07-07T11:12:02.000Z</time>
      </trkpt>
      <trkpt lat="44.39562" lon="6.40829">
        <ele>2023</ele>
        <time>2020-07-07T11:12:03.000Z</time>
      </trkpt>
      <trkpt lat="44.39561" lon="6.40828">
        <ele>2023</ele>
        <time>2020-07-07T11:12:04.000Z</time>
      </trkpt>
      <trkpt lat="44.3956" lon="6.40827">
        <ele>2023</ele>
        <time>2020-07-07T11:12:05.000Z</time>
      </trkpt>
      <trkpt lat="44.3956" lon="6.40825">
        <ele>2023</ele>
        <time>2020-07-07T11:12:06.000Z</time>
      </trkpt>
      <trkpt lat="44.39559" lon="6.40824">
        <ele>2023</ele>
        <time>2020-07-07T11:12:07.000Z</time>
      </trkpt>
      <trkpt lat="44.39558" lon="6.40823">
        <ele>2023</ele>
        <time>2020-07-07T11:12:08.000Z</time>
      </trkpt>
      <trkpt lat="44.39558" lon="6.40822">
        <ele>2023</ele>
        <time>2020-07-07T11:12:09.000Z</time>
      </trkpt>
      <trkpt lat="44.39557" lon="6.40821">
        <ele>2023</ele>
        <time>2020-07-07T11:12:10.000Z</time>
      </trkpt>
      <trkpt lat="44.39556" lon="6.4082">
        <ele>2023</ele>
        <time>2020-07-07T11:12:11.000Z</time>
      </trkpt>
      <trkpt lat="44.39556" lon="6.40818">
        <ele>2023</ele>
        <time>2020-07-07T11:12:12.000Z</time>
      </trkpt>
      <trkpt lat="44.39555" lon="6.40817">
        <ele>2023</ele>
        <time>2020-07-07T11:12:13.000Z</time>
      </trkpt>
      <trkpt lat="44.39554" lon="6.40816">
        <ele>2023</ele>
        <time>2020-07-07T11:12:14.000Z</time>
      </trkpt>
      <trkpt lat="44.39554" lon="6.40815">
        <ele>2023</ele>
        <time>2020-07-07T11:12:15.000Z</time>
      </trkpt>
      <trkpt lat="44.39553" lon="6.40814">
        <ele>2023</ele>
        <time>2020-07-07T11:12:16.000Z</time>
      </trkpt>
      <trkpt lat="44.39553" lon="6.40813">
        <ele>2023</ele>
        <time>2020-07-07T11:12:17.000Z</time>
      </trkpt>
      <trkpt lat="44.39552" lon="6.40811">
        <ele>2023</ele>
        <time>2020-07-07T11:12:18.000Z</time>
      </trkpt>
      <trkpt lat="44.39551" lon="6.4081">
        <ele>2024</ele>
        <time>2020-07-07T11:12:19.000Z</time>
      </trkpt>
      <trkpt lat="44.39551" lon="6.40809">
        <ele>2024</ele>
        <time>2020-07-07T11:12:20.000Z</time>
      </trkpt>
      <trkpt lat="44.39551" lon="6.40808">
        <ele>2024</ele>
        <time>2020-07-07T11:12:21.000Z</time>
      </trkpt>
      <trkpt lat="44.3955" lon="6.40807">
        <ele>2024</ele>
        <time>2020-07-07T11:12:22.000Z</time>
      </trkpt>
      <trkpt lat="44.3955" lon="6.40806">
        <ele>2024</ele>
        <time>2020-07-07T11:12:23.000Z</time>
      </trkpt>
      <trkpt lat="44.39549" lon="6.40805">
        <ele>2024</ele>
        <time>2020-07-07T11:12:24.000Z</time>
      </trkpt>
      <trkpt lat="44.39548" lon="6.40803">
        <ele>2024</ele>
        <time>2020-07-07T11:12:25.000Z</time>
      </trkpt>
      <trkpt lat="44.39548" lon="6.40802">
        <ele>2024</ele>
        <time>2020-07-07T11:12:26.000Z</time>
      </trkpt>
      <trkpt lat="44.39547" lon="6.40802">
        <ele>2024</ele>
        <time>2020-07-07T11:12:27.000Z</time>
      </trkpt>
      <trkpt lat="44.39547" lon="6.408">
        <ele>2024</ele>
        <time>2020-07-07T11:12:28.000Z</time>
      </trkpt>
      <trkpt lat="44.39547" lon="6.40799">
        <ele>2024</ele>
        <time>2020-07-07T11:12:29.000Z</time>
      </trkpt>
      <trkpt lat="44.39547" lon="6.40798">
        <ele>2024</ele>
        <time>2020-07-07T11:12:30.000Z</time>
      </trkpt>
      <trkpt lat="44.39546" lon="6.40797">
        <ele>2024</ele>
        <time>2020-07-07T11:12:31.000Z</time>
      </trkpt>
      <trkpt lat="44.39545" lon="6.40796">
        <ele>2024</ele>
        <time>2020-07-07T11:12:32.000Z</time>
      </trkpt>
      <trkpt lat="44.39545" lon="6.40795">
        <ele>2024</ele>
        <time>2020-07-07T11:12:33.000Z</time>
      </trkpt>
      <trkpt lat="44.39544" lon="6.40794">
        <ele>2024</ele>
        <time>2020-07-07T11:12:34.000Z</time>
      </trkpt>
      <trkpt lat="44.39544" lon="6.40794">
        <ele>2024</ele>
        <time>2020-07-07T11:12:35.000Z</time>
      </trkpt>
      <trkpt lat="44.39543" lon="6.40793">
        <ele>2024</ele>
        <time>2020-07-07T11:12:36.000Z</time>
      </trkpt>
      <trkpt lat="44.39543" lon="6.40792">
        <ele>2024</ele>
        <time>2020-07-07T11:12:37.000Z</time>
      </trkpt>
      <trkpt lat="44.39542" lon="6.40791">
        <ele>2024</ele>
        <time>2020-07-07T11:12:38.000Z</time>
      </trkpt>
      <trkpt lat="44.39542" lon="6.4079">
        <ele>2025</ele>
        <time>2020-07-07T11:12:39.000Z</time>
      </trkpt>
      <trkpt lat="44.39541" lon="6.4079">
        <ele>2025</ele>
        <time>2020-07-07T11:12:40.000Z</time>
      </trkpt>
      <trkpt lat="44.3954" lon="6.40789">
        <ele>2025</ele>
        <time>2020-07-07T11:12:41.000Z</time>
      </trkpt>
      <trkpt lat="44.3954" lon="6.40789">
        <ele>2025</ele>
        <time>2020-07-07T11:12:42.000Z</time>
      </trkpt>
      <trkpt lat="44.39539" lon="6.40788">
        <ele>2025</ele>
        <time>2020-07-07T11:12:43.000Z</time>
      </trkpt>
      <trkpt lat="44.39539" lon="6.40788">
        <ele>2025</ele>
        <time>2020-07-07T11:12:44.000Z</time>
      </trkpt>
      <trkpt lat="44.39538" lon="6.40787">
        <ele>2025</ele>
        <time>2020-07-07T11:12:45.000Z</time>
      </trkpt>
      <trkpt lat="44.39538" lon="6.40786">
        <ele>2025</ele>
        <time>2020-07-07T11:12:46.000Z</time>
      </trkpt>
      <trkpt lat="44.39537" lon="6.40786">
        <ele>2025</ele>
        <time>2020-07-07T11:12:47.000Z</time>
      </trkpt>
      <trkpt lat="44.39537" lon="6.40785">
        <ele>2025</ele>
        <time>2020-07-07T11:12:48.000Z</time>
      </trkpt>
      <trkpt lat="44.39537" lon="6.40784">
        <ele>2025</ele>
        <time>2020-07-07T11:12:49.000Z</time>
      </trkpt>
      <trkpt lat="44.39536" lon="6.40783">
        <ele>2025</ele>
        <time>2020-07-07T11:12:50.000Z</time>
      </trkpt>
      <trkpt lat="44.39535" lon="6.40782">
        <ele>2025</ele>
        <time>2020-07-07T11:12:51.000Z</time>
      </trkpt>
      <trkpt lat="44.39534" lon="6.40781">
        <ele>2025</ele>
        <time>2020-07-07T11:12:52.000Z</time>
      </trkpt>
      <trkpt lat="44.39533" lon="6.4078">
        <ele>2026</ele>
        <time>2020-07-07T11:12:53.000Z</time>
      </trkpt>
      <trkpt lat="44.39532" lon="6.40779">
        <ele>2026</ele>
        <time>2020-07-07T11:12:54.000Z</time>
      </trkpt>
      <trkpt lat="44.39532" lon="6.40778">
        <ele>2026</ele>
        <time>2020-07-07T11:12:55.000Z</time>
      </trkpt>
      <trkpt lat="44.39531" lon="6.40778">
        <ele>2026</ele>
        <time>2020-07-07T11:12:56.000Z</time>
      </trkpt>
      <trkpt lat="44.39531" lon="6.40777">
        <ele>2026</ele>
        <time>2020-07-07T11:12:57.000Z</time>
      </trkpt>
      <trkpt lat="44.3953" lon="6.40776">
        <ele>2026</ele>
        <time>2020-07-07T11:12:58.000Z</time>
      </trkpt>
      <trkpt lat="44.39529" lon="6.40776">
        <ele>2026</ele>
        <time>2020-07-07T11:12:59.000Z</time>
      </trkpt>
      <trkpt lat="44.39529" lon="6.40775">
        <ele>2026</ele>
        <time>2020-07-07T11:13:00.000Z</time>
      </trkpt>
      <trkpt lat="44.39528" lon="6.40775">
        <ele>2026</ele>
        <time>2020-07-07T11:13:01.000Z</time>
      </trkpt>
      <trkpt lat="44.39527" lon="6.40774">
        <ele>2026</ele>
        <time>2020-07-07T11:13:02.000Z</time>
      </trkpt>
      <trkpt lat="44.39526" lon="6.40773">
        <ele>2026</ele>
        <time>2020-07-07T11:13:03.000Z</time>
      </trkpt>
      <trkpt lat="44.39526" lon="6.40773">
        <ele>2026</ele>
        <time>2020-07-07T11:13:04.000Z</time>
      </trkpt>
      <trkpt lat="44.39525" lon="6.40772">
        <ele>2026</ele>
        <time>2020-07-07T11:13:05.000Z</time>
      </trkpt>
      <trkpt lat="44.39524" lon="6.40772">
        <ele>2026</ele>
        <time>2020-07-07T11:13:06.000Z</time>
      </trkpt>
      <trkpt lat="44.39524" lon="6.40771">
        <ele>2026</ele>
        <time>2020-07-07T11:13:07.000Z</time>
      </trkpt>
      <trkpt lat="44.39523" lon="6.40771">
        <ele>2026</ele>
        <time>2020-07-07T11:13:08.000Z</time>
      </trkpt>
      <trkpt lat="44.39522" lon="6.40771">
        <ele>2026</ele>
        <time>2020-07-07T11:13:09.000Z</time>
      </trkpt>
      <trkpt lat="44.39521" lon="6.40771">
        <ele>2026</ele>
        <time>2020-07-07T11:13:10.000Z</time>
      </trkpt>
      <trkpt lat="44.3952" lon="6.40771">
        <ele>2026</ele>
        <time>2020-07-07T11:13:11.000Z</time>
      </trkpt>
      <trkpt lat="44.3952" lon="6.4077">
        <ele>2027</ele>
        <time>2020-07-07T11:13:12.000Z</time>
      </trkpt>
      <trkpt lat="44.39519" lon="6.4077">
        <ele>2027</ele>
        <time>2020-07-07T11:13:13.000Z</time>
      </trkpt>
      <trkpt lat="44.39518" lon="6.40769">
        <ele>2027</ele>
        <time>2020-07-07T11:13:14.000Z</time>
      </trkpt>
      <trkpt lat="44.39517" lon="6.40769">
        <ele>2027</ele>
        <time>2020-07-07T11:13:15.000Z</time>
      </trkpt>
      <trkpt lat="44.39517" lon="6.40768">
        <ele>2027</ele>
        <time>2020-07-07T11:13:16.000Z</time>
      </trkpt>
      <trkpt lat="44.39516" lon="6.40768">
        <ele>2027</ele>
        <time>2020-07-07T11:13:17.000Z</time>
      </trkpt>
      <trkpt lat="44.39515" lon="6.40768">
        <ele>2027</ele>
        <time>2020-07-07T11:13:18.000Z</time>
      </trkpt>
      <trkpt lat="44.39515" lon="6.40767">
        <ele>2027</ele>
        <time>2020-07-07T11:13:19.000Z</time>
      </trkpt>
      <trkpt lat="44.39514" lon="6.40767">
        <ele>2027</ele>
        <time>2020-07-07T11:13:20.000Z</time>
      </trkpt>
      <trkpt lat="44.39513" lon="6.40766">
        <ele>2027</ele>
        <time>2020-07-07T11:13:21.000Z</time>
      </trkpt>
      <trkpt lat="44.39512" lon="6.40767">
        <ele>2028</ele>
        <time>2020-07-07T11:13:22.000Z</time>
      </trkpt>
      <trkpt lat="44.39512" lon="6.40766">
        <ele>2028</ele>
        <time>2020-07-07T11:13:23.000Z</time>
      </trkpt>
      <trkpt lat="44.39511" lon="6.40766">
        <ele>2028</ele>
        <time>2020-07-07T11:13:24.000Z</time>
      </trkpt>
      <trkpt lat="44.3951" lon="6.40765">
        <ele>2028</ele>
        <time>2020-07-07T11:13:25.000Z</time>
      </trkpt>
      <trkpt lat="44.3951" lon="6.40764">
        <ele>2028</ele>
        <time>2020-07-07T11:13:26.000Z</time>
      </trkpt>
      <trkpt lat="44.39509" lon="6.40764">
        <ele>2028</ele>
        <time>2020-07-07T11:13:27.000Z</time>
      </trkpt>
      <trkpt lat="44.39508" lon="6.40763">
        <ele>2028</ele>
        <time>2020-07-07T11:13:28.000Z</time>
      </trkpt>
      <trkpt lat="44.39508" lon="6.40762">
        <ele>2028</ele>
        <time>2020-07-07T11:13:29.000Z</time>
      </trkpt>
      <trkpt lat="44.39507" lon="6.40761">
        <ele>2029</ele>
        <time>2020-07-07T11:13:30.000Z</time>
      </trkpt>
      <trkpt lat="44.39506" lon="6.40761">
        <ele>2029</ele>
        <time>2020-07-07T11:13:31.000Z</time>
      </trkpt>
      <trkpt lat="44.39505" lon="6.4076">
        <ele>2029</ele>
        <time>2020-07-07T11:13:32.000Z</time>
      </trkpt>
      <trkpt lat="44.39504" lon="6.4076">
        <ele>2029</ele>
        <time>2020-07-07T11:13:33.000Z</time>
      </trkpt>
      <trkpt lat="44.39504" lon="6.4076">
        <ele>2029</ele>
        <time>2020-07-07T11:13:34.000Z</time>
      </trkpt>
      <trkpt lat="44.39503" lon="6.40759">
        <ele>2029</ele>
        <time>2020-07-07T11:13:35.000Z</time>
      </trkpt>
      <trkpt lat="44.39502" lon="6.40759">
        <ele>2029</ele>
        <time>2020-07-07T11:13:36.000Z</time>
      </trkpt>
      <trkpt lat="44.39502" lon="6.40758">
        <ele>2029</ele>
        <time>2020-07-07T11:13:37.000Z</time>
      </trkpt>
      <trkpt lat="44.39501" lon="6.40758">
        <ele>2030</ele>
        <time>2020-07-07T11:13:38.000Z</time>
      </trkpt>
      <trkpt lat="44.39501" lon="6.40757">
        <ele>2030</ele>
        <time>2020-07-07T11:13:39.000Z</time>
      </trkpt>
      <trkpt lat="44.395" lon="6.40757">
        <ele>2030</ele>
        <time>2020-07-07T11:13:40.000Z</time>
      </trkpt>
      <trkpt lat="44.395" lon="6.40756">
        <ele>2030</ele>
        <time>2020-07-07T11:13:41.000Z</time>
      </trkpt>
      <trkpt lat="44.39499" lon="6.40755">
        <ele>2030</ele>
        <time>2020-07-07T11:13:42.000Z</time>
      </trkpt>
      <trkpt lat="44.39498" lon="6.40755">
        <ele>2030</ele>
        <time>2020-07-07T11:13:43.000Z</time>
      </trkpt>
      <trkpt lat="44.39498" lon="6.40755">
        <ele>2030</ele>
        <time>2020-07-07T11:13:44.000Z</time>
      </trkpt>
      <trkpt lat="44.39497" lon="6.40754">
        <ele>2030</ele>
        <time>2020-07-07T11:13:45.000Z</time>
      </trkpt>
      <trkpt lat="44.39496" lon="6.40754">
        <ele>2030</ele>
        <time>2020-07-07T11:13:46.000Z</time>
      </trkpt>
      <trkpt lat="44.39496" lon="6.40753">
        <ele>2031</ele>
        <time>2020-07-07T11:13:47.000Z</time>
      </trkpt>
      <trkpt lat="44.39495" lon="6.40753">
        <ele>2031</ele>
        <time>2020-07-07T11:13:48.000Z</time>
      </trkpt>
      <trkpt lat="44.39495" lon="6.40752">
        <ele>2031</ele>
        <time>2020-07-07T11:13:49.000Z</time>
      </trkpt>
      <trkpt lat="44.39494" lon="6.40752">
        <ele>2031</ele>
        <time>2020-07-07T11:13:50.000Z</time>
      </trkpt>
      <trkpt lat="44.39494" lon="6.40751">
        <ele>2031</ele>
        <time>2020-07-07T11:13:51.000Z</time>
      </trkpt>
      <trkpt lat="44.39493" lon="6.4075">
        <ele>2031</ele>
        <time>2020-07-07T11:13:52.000Z</time>
      </trkpt>
      <trkpt lat="44.39492" lon="6.4075">
        <ele>2031</ele>
        <time>2020-07-07T11:13:53.000Z</time>
      </trkpt>
      <trkpt lat="44.39492" lon="6.4075">
        <ele>2031</ele>
        <time>2020-07-07T11:13:54.000Z</time>
      </trkpt>
      <trkpt lat="44.39491" lon="6.40749">
        <ele>2031</ele>
        <time>2020-07-07T11:13:55.000Z</time>
      </trkpt>
      <trkpt lat="44.39491" lon="6.40749">
        <ele>2031</ele>
        <time>2020-07-07T11:13:56.000Z</time>
      </trkpt>
      <trkpt lat="44.3949" lon="6.40749">
        <ele>2031</ele>
        <time>2020-07-07T11:13:57.000Z</time>
      </trkpt>
      <trkpt lat="44.3949" lon="6.40748">
        <ele>2031</ele>
        <time>2020-07-07T11:13:58.000Z</time>
      </trkpt>
      <trkpt lat="44.39489" lon="6.40748">
        <ele>2032</ele>
        <time>2020-07-07T11:13:59.000Z</time>
      </trkpt>
      <trkpt lat="44.39488" lon="6.40748">
        <ele>2032</ele>
        <time>2020-07-07T11:14:00.000Z</time>
      </trkpt>
      <trkpt lat="44.39488" lon="6.40747">
        <ele>2032</ele>
        <time>2020-07-07T11:14:01.000Z</time>
      </trkpt>
      <trkpt lat="44.39487" lon="6.40747">
        <ele>2032</ele>
        <time>2020-07-07T11:14:02.000Z</time>
      </trkpt>
      <trkpt lat="44.39487" lon="6.40746">
        <ele>2032</ele>
        <time>2020-07-07T11:14:03.000Z</time>
      </trkpt>
      <trkpt lat="44.39486" lon="6.40746">
        <ele>2032</ele>
        <time>2020-07-07T11:14:04.000Z</time>
      </trkpt>
      <trkpt lat="44.39486" lon="6.40745">
        <ele>2032</ele>
        <time>2020-07-07T11:14:05.000Z</time>
      </trkpt>
      <trkpt lat="44.39485" lon="6.40745">
        <ele>2032</ele>
        <time>2020-07-07T11:14:06.000Z</time>
      </trkpt>
      <trkpt lat="44.39484" lon="6.40745">
        <ele>2033</ele>
        <time>2020-07-07T11:14:07.000Z</time>
      </trkpt>
      <trkpt lat="44.39484" lon="6.40744">
        <ele>2033</ele>
        <time>2020-07-07T11:14:08.000Z</time>
      </trkpt>
      <trkpt lat="44.39483" lon="6.40744">
        <ele>2033</ele>
        <time>2020-07-07T11:14:09.000Z</time>
      </trkpt>
      <trkpt lat="44.39483" lon="6.40743">
        <ele>2033</ele>
        <time>2020-07-07T11:14:10.000Z</time>
      </trkpt>
      <trkpt lat="44.39482" lon="6.40743">
        <ele>2033</ele>
        <time>2020-07-07T11:14:11.000Z</time>
      </trkpt>
      <trkpt lat="44.39481" lon="6.40743">
        <ele>2033</ele>
        <time>2020-07-07T11:14:12.000Z</time>
      </trkpt>
      <trkpt lat="44.39481" lon="6.40742">
        <ele>2033</ele>
        <time>2020-07-07T11:14:13.000Z</time>
      </trkpt>
      <trkpt lat="44.3948" lon="6.40742">
        <ele>2033</ele>
        <time>2020-07-07T11:14:14.000Z</time>
      </trkpt>
      <trkpt lat="44.3948" lon="6.40741">
        <ele>2033</ele>
        <time>2020-07-07T11:14:15.000Z</time>
      </trkpt>
      <trkpt lat="44.39479" lon="6.40741">
        <ele>2033</ele>
        <time>2020-07-07T11:14:16.000Z</time>
      </trkpt>
      <trkpt lat="44.39478" lon="6.4074">
        <ele>2033</ele>
        <time>2020-07-07T11:14:17.000Z</time>
      </trkpt>
      <trkpt lat="44.39478" lon="6.4074">
        <ele>2034</ele>
        <time>2020-07-07T11:14:18.000Z</time>
      </trkpt>
      <trkpt lat="44.39478" lon="6.4074">
        <ele>2034</ele>
        <time>2020-07-07T11:14:19.000Z</time>
      </trkpt>
      <trkpt lat="44.39478" lon="6.4074">
        <ele>2034</ele>
        <time>2020-07-07T11:14:20.000Z</time>
      </trkpt>
      <trkpt lat="44.39478" lon="6.4074">
        <ele>2034</ele>
        <time>2020-07-07T11:14:21.000Z</time>
      </trkpt>
      <trkpt lat="44.39478" lon="6.4074">
        <ele>2034</ele>
        <time>2020-07-07T11:14:22.000Z</time>
      </trkpt>
      <trkpt lat="44.39478" lon="6.4074">
        <ele>2034</ele>
        <time>2020-07-07T11:14:23.000Z</time>
      </trkpt>
      <trkpt lat="44.39478" lon="6.4074">
        <ele>2034</ele>
        <time>2020-07-07T11:14:24.000Z</time>
      </trkpt>
      <trkpt lat="44.39478" lon="6.4074">
        <ele>2034</ele>
        <time>2020-07-07T11:14:25.000Z</time>
      </trkpt>
      <trkpt lat="44.39478" lon="6.4074">
        <ele>2034</ele>
        <time>2020-07-07T11:14:26.000Z</time>
      </trkpt>
      <trkpt lat="44.39478" lon="6.4074">
        <ele>2034</ele>
        <time>2020-07-07T11:14:27.000Z</time>
      </trkpt>
      <trkpt lat="44.39478" lon="6.4074">
        <ele>2034</ele>
        <time>2020-07-07T11:14:28.000Z</time>
      </trkpt>
      <trkpt lat="44.39478" lon="6.4074">
        <ele>2034</ele>
        <time>2020-07-07T11:14:29.000Z</time>
      </trkpt>
      <trkpt lat="44.39478" lon="6.4074">
        <ele>2034</ele>
        <time>2020-07-07T11:14:30.000Z</time>
      </trkpt>
      <trkpt lat="44.39478" lon="6.4074">
        <ele>2035</ele>
        <time>2020-07-07T11:14:31.000Z</time>
      </trkpt>
      <trkpt lat="44.39478" lon="6.4074">
        <ele>2035</ele>
        <time>2020-07-07T11:14:32.000Z</time>
      </trkpt>
      <trkpt lat="44.39478" lon="6.4074">
        <ele>2035</ele>
        <time>2020-07-07T11:14:33.000Z</time>
      </trkpt>
      <trkpt lat="44.39478" lon="6.4074">
        <ele>2035</ele>
        <time>2020-07-07T11:14:34.000Z</time>
      </trkpt>
      <trkpt lat="44.39478" lon="6.40739">
        <ele>2035</ele>
        <time>2020-07-07T11:14:35.000Z</time>
      </trkpt>
      <trkpt lat="44.39477" lon="6.40739">
        <ele>2035</ele>
        <time>2020-07-07T11:14:36.000Z</time>
      </trkpt>
      <trkpt lat="44.39477" lon="6.40739">
        <ele>2035</ele>
        <time>2020-07-07T11:14:37.000Z</time>
      </trkpt>
      <trkpt lat="44.39477" lon="6.40739">
        <ele>2035</ele>
        <time>2020-07-07T11:14:38.000Z</time>
      </trkpt>
      <trkpt lat="44.39476" lon="6.40739">
        <ele>2035</ele>
        <time>2020-07-07T11:14:39.000Z</time>
      </trkpt>
      <trkpt lat="44.39475" lon="6.40739">
        <ele>2035</ele>
        <time>2020-07-07T11:14:40.000Z</time>
      </trkpt>
      <trkpt lat="44.39474" lon="6.40739">
        <ele>2035</ele>
        <time>2020-07-07T11:14:41.000Z</time>
      </trkpt>
      <trkpt lat="44.39474" lon="6.40739">
        <ele>2035</ele>
        <time>2020-07-07T11:14:42.000Z</time>
      </trkpt>
      <trkpt lat="44.39473" lon="6.40739">
        <ele>2035</ele>
        <time>2020-07-07T11:14:43.000Z</time>
      </trkpt>
      <trkpt lat="44.39473" lon="6.40738">
        <ele>2035</ele>
        <time>2020-07-07T11:14:44.000Z</time>
      </trkpt>
      <trkpt lat="44.39472" lon="6.40738">
        <ele>2035</ele>
        <time>2020-07-07T11:14:45.000Z</time>
      </trkpt>
      <trkpt lat="44.39472" lon="6.40737">
        <ele>2035</ele>
        <time>2020-07-07T11:14:46.000Z</time>
      </trkpt>
      <trkpt lat="44.39471" lon="6.40736">
        <ele>2035</ele>
        <time>2020-07-07T11:14:47.000Z</time>
      </trkpt>
      <trkpt lat="44.39471" lon="6.40736">
        <ele>2035</ele>
        <time>2020-07-07T11:14:48.000Z</time>
      </trkpt>
      <trkpt lat="44.3947" lon="6.40736">
        <ele>2036</ele>
        <time>2020-07-07T11:14:49.000Z</time>
      </trkpt>
      <trkpt lat="44.3947" lon="6.40735">
        <ele>2036</ele>
        <time>2020-07-07T11:14:50.000Z</time>
      </trkpt>
      <trkpt lat="44.39469" lon="6.40735">
        <ele>2036</ele>
        <time>2020-07-07T11:14:51.000Z</time>
      </trkpt>
      <trkpt lat="44.39469" lon="6.40734">
        <ele>2036</ele>
        <time>2020-07-07T11:14:52.000Z</time>
      </trkpt>
      <trkpt lat="44.39468" lon="6.40733">
        <ele>2036</ele>
        <time>2020-07-07T11:14:53.000Z</time>
      </trkpt>
      <trkpt lat="44.39468" lon="6.40733">
        <ele>2036</ele>
        <time>2020-07-07T11:14:54.000Z</time>
      </trkpt>
      <trkpt lat="44.39467" lon="6.40732">
        <ele>2036</ele>
        <time>2020-07-07T11:14:55.000Z</time>
      </trkpt>
      <trkpt lat="44.39467" lon="6.40732">
        <ele>2037</ele>
        <time>2020-07-07T11:14:56.000Z</time>
      </trkpt>
      <trkpt lat="44.39466" lon="6.40731">
        <ele>2037</ele>
        <time>2020-07-07T11:14:57.000Z</time>
      </trkpt>
      <trkpt lat="44.39465" lon="6.40731">
        <ele>2037</ele>
        <time>2020-07-07T11:14:58.000Z</time>
      </trkpt>
      <trkpt lat="44.39465" lon="6.4073">
        <ele>2037</ele>
        <time>2020-07-07T11:14:59.000Z</time>
      </trkpt>
      <trkpt lat="44.39464" lon="6.4073">
        <ele>2037</ele>
        <time>2020-07-07T11:15:00.000Z</time>
      </trkpt>
      <trkpt lat="44.39464" lon="6.40729">
        <ele>2037</ele>
        <time>2020-07-07T11:15:01.000Z</time>
      </trkpt>
      <trkpt lat="44.39463" lon="6.40729">
        <ele>2037</ele>
        <time>2020-07-07T11:15:02.000Z</time>
      </trkpt>
      <trkpt lat="44.39462" lon="6.40728">
        <ele>2037</ele>
        <time>2020-07-07T11:15:03.000Z</time>
      </trkpt>
      <trkpt lat="44.39462" lon="6.40727">
        <ele>2037</ele>
        <time>2020-07-07T11:15:04.000Z</time>
      </trkpt>
      <trkpt lat="44.39461" lon="6.40727">
        <ele>2037</ele>
        <time>2020-07-07T11:15:05.000Z</time>
      </trkpt>
      <trkpt lat="44.3946" lon="6.40727">
        <ele>2038</ele>
        <time>2020-07-07T11:15:06.000Z</time>
      </trkpt>
      <trkpt lat="44.39459" lon="6.40727">
        <ele>2038</ele>
        <time>2020-07-07T11:15:07.000Z</time>
      </trkpt>
      <trkpt lat="44.39459" lon="6.40727">
        <ele>2038</ele>
        <time>2020-07-07T11:15:08.000Z</time>
      </trkpt>
      <trkpt lat="44.39458" lon="6.40726">
        <ele>2038</ele>
        <time>2020-07-07T11:15:09.000Z</time>
      </trkpt>
      <trkpt lat="44.39457" lon="6.40726">
        <ele>2038</ele>
        <time>2020-07-07T11:15:10.000Z</time>
      </trkpt>
      <trkpt lat="44.39457" lon="6.40726">
        <ele>2039</ele>
        <time>2020-07-07T11:15:11.000Z</time>
      </trkpt>
      <trkpt lat="44.39456" lon="6.40726">
        <ele>2039</ele>
        <time>2020-07-07T11:15:12.000Z</time>
      </trkpt>
      <trkpt lat="44.39455" lon="6.40726">
        <ele>2039</ele>
        <time>2020-07-07T11:15:13.000Z</time>
      </trkpt>
      <trkpt lat="44.39455" lon="6.40725">
        <ele>2039</ele>
        <time>2020-07-07T11:15:14.000Z</time>
      </trkpt>
      <trkpt lat="44.39454" lon="6.40725">
        <ele>2039</ele>
        <time>2020-07-07T11:15:15.000Z</time>
      </trkpt>
      <trkpt lat="44.39454" lon="6.40725">
        <ele>2040</ele>
        <time>2020-07-07T11:15:16.000Z</time>
      </trkpt>
      <trkpt lat="44.39454" lon="6.40725">
        <ele>2040</ele>
        <time>2020-07-07T11:15:17.000Z</time>
      </trkpt>
      <trkpt lat="44.39454" lon="6.40725">
        <ele>2040</ele>
        <time>2020-07-07T11:15:18.000Z</time>
      </trkpt>
      <trkpt lat="44.39454" lon="6.40726">
        <ele>2040</ele>
        <time>2020-07-07T11:15:19.000Z</time>
      </trkpt>
      <trkpt lat="44.39454" lon="6.40726">
        <ele>2040</ele>
        <time>2020-07-07T11:15:20.000Z</time>
      </trkpt>
      <trkpt lat="44.39454" lon="6.40726">
        <ele>2040</ele>
        <time>2020-07-07T11:15:21.000Z</time>
      </trkpt>
      <trkpt lat="44.39454" lon="6.40727">
        <ele>2041</ele>
        <time>2020-07-07T11:15:22.000Z</time>
      </trkpt>
      <trkpt lat="44.39454" lon="6.40726">
        <ele>2041</ele>
        <time>2020-07-07T11:15:23.000Z</time>
      </trkpt>
      <trkpt lat="44.39454" lon="6.40726">
        <ele>2041</ele>
        <time>2020-07-07T11:15:24.000Z</time>
      </trkpt>
      <trkpt lat="44.39453" lon="6.40726">
        <ele>2041</ele>
        <time>2020-07-07T11:15:25.000Z</time>
      </trkpt>
      <trkpt lat="44.39453" lon="6.40726">
        <ele>2041</ele>
        <time>2020-07-07T11:15:26.000Z</time>
      </trkpt>
      <trkpt lat="44.39453" lon="6.40726">
        <ele>2042</ele>
        <time>2020-07-07T11:15:27.000Z</time>
      </trkpt>
      <trkpt lat="44.39453" lon="6.40726">
        <ele>2042</ele>
        <time>2020-07-07T11:15:28.000Z</time>
      </trkpt>
      <trkpt lat="44.39453" lon="6.40726">
        <ele>2042</ele>
        <time>2020-07-07T11:15:29.000Z</time>
      </trkpt>
      <trkpt lat="44.39453" lon="6.40726">
        <ele>2042</ele>
        <time>2020-07-07T11:15:30.000Z</time>
      </trkpt>
      <trkpt lat="44.39453" lon="6.40726">
        <ele>2042</ele>
        <time>2020-07-07T11:15:31.000Z</time>
      </trkpt>
      <trkpt lat="44.39453" lon="6.40726">
        <ele>2042</ele>
        <time>2020-07-07T11:15:32.000Z</time>
      </trkpt>
      <trkpt lat="44.39453" lon="6.40726">
        <ele>2042</ele>
        <time>2020-07-07T11:15:33.000Z</time>
      </trkpt>
      <trkpt lat="44.39453" lon="6.40726">
        <ele>2042</ele>
        <time>2020-07-07T11:15:34.000Z</time>
      </trkpt>
      <trkpt lat="44.39453" lon="6.40725">
        <ele>2042</ele>
        <time>2020-07-07T11:15:35.000Z</time>
      </trkpt>
      <trkpt lat="44.39453" lon="6.40725">
        <ele>2043</ele>
        <time>2020-07-07T11:15:36.000Z</time>
      </trkpt>
      <trkpt lat="44.39453" lon="6.40725">
        <ele>2043</ele>
        <time>2020-07-07T11:15:37.000Z</time>
      </trkpt>
      <trkpt lat="44.39453" lon="6.40725">
        <ele>2043</ele>
        <time>2020-07-07T11:15:38.000Z</time>
      </trkpt>
      <trkpt lat="44.39452" lon="6.40726">
        <ele>2043</ele>
        <time>2020-07-07T11:15:39.000Z</time>
      </trkpt>
      <trkpt lat="44.39452" lon="6.40726">
        <ele>2043</ele>
        <time>2020-07-07T11:15:40.000Z</time>
      </trkpt>
      <trkpt lat="44.39452" lon="6.40726">
        <ele>2043</ele>
        <time>2020-07-07T11:15:41.000Z</time>
      </trkpt>
      <trkpt lat="44.39452" lon="6.40726">
        <ele>2043</ele>
        <time>2020-07-07T11:15:42.000Z</time>
      </trkpt>
      <trkpt lat="44.39452" lon="6.40726">
        <ele>2043</ele>
        <time>2020-07-07T11:15:43.000Z</time>
      </trkpt>
      <trkpt lat="44.39452" lon="6.40726">
        <ele>2043</ele>
        <time>2020-07-07T11:15:44.000Z</time>
      </trkpt>
      <trkpt lat="44.39452" lon="6.40726">
        <ele>2043</ele>
        <time>2020-07-07T11:15:45.000Z</time>
      </trkpt>
      <trkpt lat="44.39452" lon="6.40726">
        <ele>2044</ele>
        <time>2020-07-07T11:15:46.000Z</time>
      </trkpt>
      <trkpt lat="44.39452" lon="6.40726">
        <ele>2044</ele>
        <time>2020-07-07T11:15:47.000Z</time>
      </trkpt>
      <trkpt lat="44.39452" lon="6.40726">
        <ele>2044</ele>
        <time>2020-07-07T11:15:48.000Z</time>
      </trkpt>
      <trkpt lat="44.39452" lon="6.40726">
        <ele>2044</ele>
        <time>2020-07-07T11:15:49.000Z</time>
      </trkpt>
      <trkpt lat="44.39452" lon="6.40726">
        <ele>2044</ele>
        <time>2020-07-07T11:15:50.000Z</time>
      </trkpt>
      <trkpt lat="44.39451" lon="6.40726">
        <ele>2045</ele>
        <time>2020-07-07T11:15:51.000Z</time>
      </trkpt>
      <trkpt lat="44.39451" lon="6.40726">
        <ele>2045</ele>
        <time>2020-07-07T11:15:52.000Z</time>
      </trkpt>
      <trkpt lat="44.39451" lon="6.40726">
        <ele>2045</ele>
        <time>2020-07-07T11:15:53.000Z</time>
      </trkpt>
      <trkpt lat="44.39451" lon="6.40726">
        <ele>2045</ele>
        <time>2020-07-07T11:15:54.000Z</time>
      </trkpt>
      <trkpt lat="44.39452" lon="6.40726">
        <ele>2045</ele>
        <time>2020-07-07T11:15:55.000Z</time>
      </trkpt>
      <trkpt lat="44.39452" lon="6.40726">
        <ele>2046</ele>
        <time>2020-07-07T11:15:56.000Z</time>
      </trkpt>
      <trkpt lat="44.39452" lon="6.40726">
        <ele>2046</ele>
        <time>2020-07-07T11:15:57.000Z</time>
      </trkpt>
      <trkpt lat="44.39452" lon="6.40726">
        <ele>2046</ele>
        <time>2020-07-07T11:15:58.000Z</time>
      </trkpt>
      <trkpt lat="44.39452" lon="6.40726">
        <ele>2046</ele>
        <time>2020-07-07T11:15:59.000Z</time>
      </trkpt>
      <trkpt lat="44.39452" lon="6.40726">
        <ele>2046</ele>
        <time>2020-07-07T11:16:00.000Z</time>
      </trkpt>
      <trkpt lat="44.39452" lon="6.40726">
        <ele>2047</ele>
        <time>2020-07-07T11:16:01.000Z</time>
      </trkpt>
      <trkpt lat="44.39451" lon="6.40726">
        <ele>2047</ele>
        <time>2020-07-07T11:16:02.000Z</time>
      </trkpt>
      <trkpt lat="44.39451" lon="6.40726">
        <ele>2047</ele>
        <time>2020-07-07T11:16:03.000Z</time>
      </trkpt>
      <trkpt lat="44.39451" lon="6.40726">
        <ele>2047</ele>
        <time>2020-07-07T11:16:04.000Z</time>
      </trkpt>
      <trkpt lat="44.39451" lon="6.40726">
        <ele>2047</ele>
        <time>2020-07-07T11:16:05.000Z</time>
      </trkpt>
      <trkpt lat="44.3945" lon="6.40726">
        <ele>2047</ele>
        <time>2020-07-07T11:16:06.000Z</time>
      </trkpt>
      <trkpt lat="44.3945" lon="6.40725">
        <ele>2047</ele>
        <time>2020-07-07T11:16:07.000Z</time>
      </trkpt>
      <trkpt lat="44.3945" lon="6.40725">
        <ele>2047</ele>
        <time>2020-07-07T11:16:08.000Z</time>
      </trkpt>
      <trkpt lat="44.39449" lon="6.40725">
        <ele>2047</ele>
        <time>2020-07-07T11:16:09.000Z</time>
      </trkpt>
      <trkpt lat="44.39449" lon="6.40724">
        <ele>2047</ele>
        <time>2020-07-07T11:16:10.000Z</time>
      </trkpt>
      <trkpt lat="44.39449" lon="6.40723">
        <ele>2047</ele>
        <time>2020-07-07T11:16:11.000Z</time>
      </trkpt>
      <trkpt lat="44.39449" lon="6.40722">
        <ele>2047</ele>
        <time>2020-07-07T11:16:12.000Z</time>
      </trkpt>
      <trkpt lat="44.39448" lon="6.40721">
        <ele>2047</ele>
        <time>2020-07-07T11:16:13.000Z</time>
      </trkpt>
      <trkpt lat="44.39448" lon="6.4072">
        <ele>2047</ele>
        <time>2020-07-07T11:16:14.000Z</time>
      </trkpt>
      <trkpt lat="44.39448" lon="6.40719">
        <ele>2047</ele>
        <time>2020-07-07T11:16:15.000Z</time>
      </trkpt>
      <trkpt lat="44.39448" lon="6.40718">
        <ele>2047</ele>
        <time>2020-07-07T11:16:16.000Z</time>
      </trkpt>
      <trkpt lat="44.39447" lon="6.40717">
        <ele>2047</ele>
        <time>2020-07-07T11:16:17.000Z</time>
      </trkpt>
      <trkpt lat="44.39447" lon="6.40716">
        <ele>2047</ele>
        <time>2020-07-07T11:16:18.000Z</time>
      </trkpt>
      <trkpt lat="44.39447" lon="6.40715">
        <ele>2047</ele>
        <time>2020-07-07T11:16:19.000Z</time>
      </trkpt>
      <trkpt lat="44.39447" lon="6.40714">
        <ele>2047</ele>
        <time>2020-07-07T11:16:20.000Z</time>
      </trkpt>
      <trkpt lat="44.39447" lon="6.40712">
        <ele>2047</ele>
        <time>2020-07-07T11:16:21.000Z</time>
      </trkpt>
      <trkpt lat="44.39447" lon="6.40712">
        <ele>2047</ele>
        <time>2020-07-07T11:16:22.000Z</time>
      </trkpt>
      <trkpt lat="44.39447" lon="6.40711">
        <ele>2047</ele>
        <time>2020-07-07T11:16:23.000Z</time>
      </trkpt>
      <trkpt lat="44.39446" lon="6.4071">
        <ele>2047</ele>
        <time>2020-07-07T11:16:24.000Z</time>
      </trkpt>
      <trkpt lat="44.39446" lon="6.40709">
        <ele>2047</ele>
        <time>2020-07-07T11:16:25.000Z</time>
      </trkpt>
      <trkpt lat="44.39446" lon="6.40708">
        <ele>2047</ele>
        <time>2020-07-07T11:16:26.000Z</time>
      </trkpt>
      <trkpt lat="44.39445" lon="6.40707">
        <ele>2047</ele>
        <time>2020-07-07T11:16:27.000Z</time>
      </trkpt>
      <trkpt lat="44.39445" lon="6.40707">
        <ele>2047</ele>
        <time>2020-07-07T11:16:28.000Z</time>
      </trkpt>
      <trkpt lat="44.39445" lon="6.40706">
        <ele>2047</ele>
        <time>2020-07-07T11:16:29.000Z</time>
      </trkpt>
      <trkpt lat="44.39444" lon="6.40705">
        <ele>2047</ele>
        <time>2020-07-07T11:16:30.000Z</time>
      </trkpt>
      <trkpt lat="44.39443" lon="6.40705">
        <ele>2047</ele>
        <time>2020-07-07T11:16:31.000Z</time>
      </trkpt>
      <trkpt lat="44.39443" lon="6.40704">
        <ele>2047</ele>
        <time>2020-07-07T11:16:32.000Z</time>
      </trkpt>
      <trkpt lat="44.39443" lon="6.40703">
        <ele>2048</ele>
        <time>2020-07-07T11:16:33.000Z</time>
      </trkpt>
      <trkpt lat="44.39442" lon="6.40702">
        <ele>2048</ele>
        <time>2020-07-07T11:16:34.000Z</time>
      </trkpt>
      <trkpt lat="44.39442" lon="6.40702">
        <ele>2048</ele>
        <time>2020-07-07T11:16:35.000Z</time>
      </trkpt>
      <trkpt lat="44.39442" lon="6.40701">
        <ele>2048</ele>
        <time>2020-07-07T11:16:36.000Z</time>
      </trkpt>
      <trkpt lat="44.39442" lon="6.407">
        <ele>2048</ele>
        <time>2020-07-07T11:16:37.000Z</time>
      </trkpt>
      <trkpt lat="44.39441" lon="6.407">
        <ele>2048</ele>
        <time>2020-07-07T11:16:38.000Z</time>
      </trkpt>
      <trkpt lat="44.39441" lon="6.40699">
        <ele>2048</ele>
        <time>2020-07-07T11:16:39.000Z</time>
      </trkpt>
      <trkpt lat="44.39441" lon="6.40698">
        <ele>2048</ele>
        <time>2020-07-07T11:16:40.000Z</time>
      </trkpt>
      <trkpt lat="44.39441" lon="6.40697">
        <ele>2048</ele>
        <time>2020-07-07T11:16:41.000Z</time>
      </trkpt>
      <trkpt lat="44.3944" lon="6.40696">
        <ele>2048</ele>
        <time>2020-07-07T11:16:42.000Z</time>
      </trkpt>
      <trkpt lat="44.3944" lon="6.40695">
        <ele>2048</ele>
        <time>2020-07-07T11:16:43.000Z</time>
      </trkpt>
      <trkpt lat="44.3944" lon="6.40695">
        <ele>2048</ele>
        <time>2020-07-07T11:16:44.000Z</time>
      </trkpt>
      <trkpt lat="44.3944" lon="6.40694">
        <ele>2048</ele>
        <time>2020-07-07T11:16:45.000Z</time>
      </trkpt>
      <trkpt lat="44.3944" lon="6.40693">
        <ele>2048</ele>
        <time>2020-07-07T11:16:46.000Z</time>
      </trkpt>
      <trkpt lat="44.3944" lon="6.40692">
        <ele>2048</ele>
        <time>2020-07-07T11:16:47.000Z</time>
      </trkpt>
      <trkpt lat="44.39439" lon="6.40692">
        <ele>2048</ele>
        <time>2020-07-07T11:16:48.000Z</time>
      </trkpt>
      <trkpt lat="44.39439" lon="6.40692">
        <ele>2048</ele>
        <time>2020-07-07T11:16:49.000Z</time>
      </trkpt>
      <trkpt lat="44.39439" lon="6.40691">
        <ele>2048</ele>
        <time>2020-07-07T11:16:50.000Z</time>
      </trkpt>
      <trkpt lat="44.39438" lon="6.40691">
        <ele>2048</ele>
        <time>2020-07-07T11:16:51.000Z</time>
      </trkpt>
      <trkpt lat="44.39438" lon="6.4069">
        <ele>2048</ele>
        <time>2020-07-07T11:16:52.000Z</time>
      </trkpt>
      <trkpt lat="44.39437" lon="6.4069">
        <ele>2048</ele>
        <time>2020-07-07T11:16:53.000Z</time>
      </trkpt>
      <trkpt lat="44.39437" lon="6.4069">
        <ele>2049</ele>
        <time>2020-07-07T11:16:54.000Z</time>
      </trkpt>
      <trkpt lat="44.39436" lon="6.4069">
        <ele>2049</ele>
        <time>2020-07-07T11:16:55.000Z</time>
      </trkpt>
      <trkpt lat="44.39436" lon="6.4069">
        <ele>2049</ele>
        <time>2020-07-07T11:16:56.000Z</time>
      </trkpt>
      <trkpt lat="44.39435" lon="6.40689">
        <ele>2049</ele>
        <time>2020-07-07T11:16:57.000Z</time>
      </trkpt>
      <trkpt lat="44.39435" lon="6.4069">
        <ele>2049</ele>
        <time>2020-07-07T11:16:58.000Z</time>
      </trkpt>
      <trkpt lat="44.39435" lon="6.40689">
        <ele>2049</ele>
        <time>2020-07-07T11:16:59.000Z</time>
      </trkpt>
      <trkpt lat="44.39434" lon="6.40689">
        <ele>2050</ele>
        <time>2020-07-07T11:17:00.000Z</time>
      </trkpt>
      <trkpt lat="44.39433" lon="6.40689">
        <ele>2050</ele>
        <time>2020-07-07T11:17:01.000Z</time>
      </trkpt>
      <trkpt lat="44.39433" lon="6.40689">
        <ele>2050</ele>
        <time>2020-07-07T11:17:02.000Z</time>
      </trkpt>
      <trkpt lat="44.39433" lon="6.40688">
        <ele>2050</ele>
        <time>2020-07-07T11:17:03.000Z</time>
      </trkpt>
      <trkpt lat="44.39432" lon="6.40688">
        <ele>2050</ele>
        <time>2020-07-07T11:17:04.000Z</time>
      </trkpt>
      <trkpt lat="44.39433" lon="6.40688">
        <ele>2050</ele>
        <time>2020-07-07T11:17:05.000Z</time>
      </trkpt>
      <trkpt lat="44.39433" lon="6.40687">
        <ele>2050</ele>
        <time>2020-07-07T11:17:06.000Z</time>
      </trkpt>
      <trkpt lat="44.39433" lon="6.40687">
        <ele>2051</ele>
        <time>2020-07-07T11:17:07.000Z</time>
      </trkpt>
      <trkpt lat="44.39433" lon="6.40687">
        <ele>2051</ele>
        <time>2020-07-07T11:17:08.000Z</time>
      </trkpt>
      <trkpt lat="44.39432" lon="6.40687">
        <ele>2051</ele>
        <time>2020-07-07T11:17:09.000Z</time>
      </trkpt>
      <trkpt lat="44.39432" lon="6.40687">
        <ele>2051</ele>
        <time>2020-07-07T11:17:10.000Z</time>
      </trkpt>
      <trkpt lat="44.39431" lon="6.40686">
        <ele>2051</ele>
        <time>2020-07-07T11:17:11.000Z</time>
      </trkpt>
      <trkpt lat="44.3943" lon="6.40686">
        <ele>2051</ele>
        <time>2020-07-07T11:17:12.000Z</time>
      </trkpt>
      <trkpt lat="44.3943" lon="6.40685">
        <ele>2051</ele>
        <time>2020-07-07T11:17:13.000Z</time>
      </trkpt>
      <trkpt lat="44.39429" lon="6.40685">
        <ele>2051</ele>
        <time>2020-07-07T11:17:14.000Z</time>
      </trkpt>
      <trkpt lat="44.39428" lon="6.40684">
        <ele>2051</ele>
        <time>2020-07-07T11:17:15.000Z</time>
      </trkpt>
      <trkpt lat="44.39428" lon="6.40684">
        <ele>2051</ele>
        <time>2020-07-07T11:17:16.000Z</time>
      </trkpt>
      <trkpt lat="44.39428" lon="6.40683">
        <ele>2051</ele>
        <time>2020-07-07T11:17:17.000Z</time>
      </trkpt>
      <trkpt lat="44.39428" lon="6.40683">
        <ele>2051</ele>
        <time>2020-07-07T11:17:18.000Z</time>
      </trkpt>
      <trkpt lat="44.39428" lon="6.40683">
        <ele>2051</ele>
        <time>2020-07-07T11:17:19.000Z</time>
      </trkpt>
      <trkpt lat="44.39428" lon="6.40683">
        <ele>2051</ele>
        <time>2020-07-07T11:17:20.000Z</time>
      </trkpt>
      <trkpt lat="44.39428" lon="6.40684">
        <ele>2051</ele>
        <time>2020-07-07T11:17:21.000Z</time>
      </trkpt>
      <trkpt lat="44.39428" lon="6.40684">
        <ele>2051</ele>
        <time>2020-07-07T11:17:22.000Z</time>
      </trkpt>
      <trkpt lat="44.39428" lon="6.40683">
        <ele>2051</ele>
        <time>2020-07-07T11:17:23.000Z</time>
      </trkpt>
      <trkpt lat="44.39428" lon="6.40684">
        <ele>2051</ele>
        <time>2020-07-07T11:17:24.000Z</time>
      </trkpt>
      <trkpt lat="44.39428" lon="6.40684">
        <ele>2051</ele>
        <time>2020-07-07T11:17:25.000Z</time>
      </trkpt>
      <trkpt lat="44.39428" lon="6.40684">
        <ele>2051</ele>
        <time>2020-07-07T11:17:26.000Z</time>
      </trkpt>
      <trkpt lat="44.39428" lon="6.40684">
        <ele>2051</ele>
        <time>2020-07-07T11:17:27.000Z</time>
      </trkpt>
      <trkpt lat="44.39428" lon="6.40684">
        <ele>2051</ele>
        <time>2020-07-07T11:17:28.000Z</time>
      </trkpt>
      <trkpt lat="44.39428" lon="6.40684">
        <ele>2051</ele>
        <time>2020-07-07T11:17:29.000Z</time>
      </trkpt>
      <trkpt lat="44.39427" lon="6.40683">
        <ele>2051</ele>
        <time>2020-07-07T11:17:30.000Z</time>
      </trkpt>
      <trkpt lat="44.39427" lon="6.40683">
        <ele>2051</ele>
        <time>2020-07-07T11:17:31.000Z</time>
      </trkpt>
      <trkpt lat="44.39427" lon="6.40683">
        <ele>2051</ele>
        <time>2020-07-07T11:17:32.000Z</time>
      </trkpt>
      <trkpt lat="44.39427" lon="6.40683">
        <ele>2051</ele>
        <time>2020-07-07T11:17:33.000Z</time>
      </trkpt>
      <trkpt lat="44.39427" lon="6.40684">
        <ele>2051</ele>
        <time>2020-07-07T11:17:34.000Z</time>
      </trkpt>
      <trkpt lat="44.39427" lon="6.40684">
        <ele>2051</ele>
        <time>2020-07-07T11:17:35.000Z</time>
      </trkpt>
      <trkpt lat="44.39427" lon="6.40683">
        <ele>2051</ele>
        <time>2020-07-07T11:17:36.000Z</time>
      </trkpt>
      <trkpt lat="44.39427" lon="6.40683">
        <ele>2051</ele>
        <time>2020-07-07T11:17:37.000Z</time>
      </trkpt>
      <trkpt lat="44.39427" lon="6.40683">
        <ele>2051</ele>
        <time>2020-07-07T11:17:38.000Z</time>
      </trkpt>
      <trkpt lat="44.39427" lon="6.40683">
        <ele>2051</ele>
        <time>2020-07-07T11:17:39.000Z</time>
      </trkpt>
      <trkpt lat="44.39427" lon="6.40683">
        <ele>2051</ele>
        <time>2020-07-07T11:17:40.000Z</time>
      </trkpt>
      <trkpt lat="44.39427" lon="6.40683">
        <ele>2051</ele>
        <time>2020-07-07T11:17:41.000Z</time>
      </trkpt>
      <trkpt lat="44.39427" lon="6.40683">
        <ele>2051</ele>
        <time>2020-07-07T11:17:42.000Z</time>
      </trkpt>
      <trkpt lat="44.39427" lon="6.40683">
        <ele>2051</ele>
        <time>2020-07-07T11:17:43.000Z</time>
      </trkpt>
      <trkpt lat="44.39427" lon="6.40683">
        <ele>2051</ele>
        <time>2020-07-07T11:17:44.000Z</time>
      </trkpt>
      <trkpt lat="44.39427" lon="6.40683">
        <ele>2052</ele>
        <time>2020-07-07T11:17:45.000Z</time>
      </trkpt>
      <trkpt lat="44.39427" lon="6.40683">
        <ele>2052</ele>
        <time>2020-07-07T11:17:46.000Z</time>
      </trkpt>
      <trkpt lat="44.39427" lon="6.40683">
        <ele>2052</ele>
        <time>2020-07-07T11:17:47.000Z</time>
      </trkpt>
      <trkpt lat="44.39427" lon="6.40683">
        <ele>2052</ele>
        <time>2020-07-07T11:17:48.000Z</time>
      </trkpt>
      <trkpt lat="44.39427" lon="6.40683">
        <ele>2052</ele>
        <time>2020-07-07T11:17:49.000Z</time>
      </trkpt>
      <trkpt lat="44.39427" lon="6.40683">
        <ele>2052</ele>
        <time>2020-07-07T11:17:50.000Z</time>
      </trkpt>
      <trkpt lat="44.39427" lon="6.40683">
        <ele>2052</ele>
        <time>2020-07-07T11:17:51.000Z</time>
      </trkpt>
      <trkpt lat="44.39427" lon="6.40683">
        <ele>2052</ele>
        <time>2020-07-07T11:17:52.000Z</time>
      </trkpt>
      <trkpt lat="44.39427" lon="6.40683">
        <ele>2052</ele>
        <time>2020-07-07T11:17:53.000Z</time>
      </trkpt>
      <trkpt lat="44.39427" lon="6.40683">
        <ele>2053</ele>
        <time>2020-07-07T11:17:54.000Z</time>
      </trkpt>
      <trkpt lat="44.39427" lon="6.40682">
        <ele>2053</ele>
        <time>2020-07-07T11:17:55.000Z</time>
      </trkpt>
      <trkpt lat="44.39427" lon="6.40682">
        <ele>2053</ele>
        <time>2020-07-07T11:17:56.000Z</time>
      </trkpt>
      <trkpt lat="44.39427" lon="6.40683">
        <ele>2053</ele>
        <time>2020-07-07T11:17:57.000Z</time>
      </trkpt>
      <trkpt lat="44.39427" lon="6.40682">
        <ele>2053</ele>
        <time>2020-07-07T11:17:58.000Z</time>
      </trkpt>
      <trkpt lat="44.39427" lon="6.40682">
        <ele>2053</ele>
        <time>2020-07-07T11:17:59.000Z</time>
      </trkpt>
      <trkpt lat="44.39427" lon="6.40682">
        <ele>2053</ele>
        <time>2020-07-07T11:18:00.000Z</time>
      </trkpt>
      <trkpt lat="44.39427" lon="6.40682">
        <ele>2053</ele>
        <time>2020-07-07T11:18:01.000Z</time>
      </trkpt>
      <trkpt lat="44.39426" lon="6.40683">
        <ele>2053</ele>
        <time>2020-07-07T11:18:02.000Z</time>
      </trkpt>
      <trkpt lat="44.39426" lon="6.40682">
        <ele>2053</ele>
        <time>2020-07-07T11:18:03.000Z</time>
      </trkpt>
      <trkpt lat="44.39425" lon="6.40682">
        <ele>2054</ele>
        <time>2020-07-07T11:18:04.000Z</time>
      </trkpt>
      <trkpt lat="44.39425" lon="6.40681">
        <ele>2054</ele>
        <time>2020-07-07T11:18:05.000Z</time>
      </trkpt>
      <trkpt lat="44.39424" lon="6.40681">
        <ele>2054</ele>
        <time>2020-07-07T11:18:06.000Z</time>
      </trkpt>
      <trkpt lat="44.39424" lon="6.4068">
        <ele>2054</ele>
        <time>2020-07-07T11:18:07.000Z</time>
      </trkpt>
      <trkpt lat="44.39423" lon="6.4068">
        <ele>2054</ele>
        <time>2020-07-07T11:18:08.000Z</time>
      </trkpt>
      <trkpt lat="44.39422" lon="6.40679">
        <ele>2054</ele>
        <time>2020-07-07T11:18:09.000Z</time>
      </trkpt>
      <trkpt lat="44.39422" lon="6.40679">
        <ele>2055</ele>
        <time>2020-07-07T11:18:10.000Z</time>
      </trkpt>
      <trkpt lat="44.39421" lon="6.40678">
        <ele>2055</ele>
        <time>2020-07-07T11:18:11.000Z</time>
      </trkpt>
      <trkpt lat="44.39421" lon="6.40678">
        <ele>2055</ele>
        <time>2020-07-07T11:18:12.000Z</time>
      </trkpt>
      <trkpt lat="44.3942" lon="6.40677">
        <ele>2055</ele>
        <time>2020-07-07T11:18:13.000Z</time>
      </trkpt>
      <trkpt lat="44.3942" lon="6.40677">
        <ele>2055</ele>
        <time>2020-07-07T11:18:14.000Z</time>
      </trkpt>
      <trkpt lat="44.39419" lon="6.40677">
        <ele>2055</ele>
        <time>2020-07-07T11:18:15.000Z</time>
      </trkpt>
      <trkpt lat="44.39418" lon="6.40676">
        <ele>2055</ele>
        <time>2020-07-07T11:18:16.000Z</time>
      </trkpt>
      <trkpt lat="44.39418" lon="6.40676">
        <ele>2056</ele>
        <time>2020-07-07T11:18:17.000Z</time>
      </trkpt>
      <trkpt lat="44.39417" lon="6.40676">
        <ele>2056</ele>
        <time>2020-07-07T11:18:18.000Z</time>
      </trkpt>
      <trkpt lat="44.39417" lon="6.40676">
        <ele>2056</ele>
        <time>2020-07-07T11:18:19.000Z</time>
      </trkpt>
      <trkpt lat="44.39416" lon="6.40676">
        <ele>2056</ele>
        <time>2020-07-07T11:18:20.000Z</time>
      </trkpt>
      <trkpt lat="44.39415" lon="6.40676">
        <ele>2056</ele>
        <time>2020-07-07T11:18:21.000Z</time>
      </trkpt>
      <trkpt lat="44.39415" lon="6.40675">
        <ele>2056</ele>
        <time>2020-07-07T11:18:22.000Z</time>
      </trkpt>
      <trkpt lat="44.39414" lon="6.40675">
        <ele>2056</ele>
        <time>2020-07-07T11:18:23.000Z</time>
      </trkpt>
      <trkpt lat="44.39413" lon="6.40675">
        <ele>2057</ele>
        <time>2020-07-07T11:18:24.000Z</time>
      </trkpt>
      <trkpt lat="44.39413" lon="6.40674">
        <ele>2057</ele>
        <time>2020-07-07T11:18:25.000Z</time>
      </trkpt>
      <trkpt lat="44.39412" lon="6.40674">
        <ele>2057</ele>
        <time>2020-07-07T11:18:26.000Z</time>
      </trkpt>
      <trkpt lat="44.39412" lon="6.40673">
        <ele>2057</ele>
        <time>2020-07-07T11:18:27.000Z</time>
      </trkpt>
      <trkpt lat="44.39411" lon="6.40673">
        <ele>2057</ele>
        <time>2020-07-07T11:18:28.000Z</time>
      </trkpt>
      <trkpt lat="44.39411" lon="6.40673">
        <ele>2057</ele>
        <time>2020-07-07T11:18:29.000Z</time>
      </trkpt>
      <trkpt lat="44.3941" lon="6.40672">
        <ele>2057</ele>
        <time>2020-07-07T11:18:30.000Z</time>
      </trkpt>
      <trkpt lat="44.39409" lon="6.40672">
        <ele>2057</ele>
        <time>2020-07-07T11:18:31.000Z</time>
      </trkpt>
      <trkpt lat="44.39409" lon="6.40672">
        <ele>2057</ele>
        <time>2020-07-07T11:18:32.000Z</time>
      </trkpt>
      <trkpt lat="44.39408" lon="6.40672">
        <ele>2057</ele>
        <time>2020-07-07T11:18:33.000Z</time>
      </trkpt>
      <trkpt lat="44.39408" lon="6.40671">
        <ele>2057</ele>
        <time>2020-07-07T11:18:34.000Z</time>
      </trkpt>
      <trkpt lat="44.39407" lon="6.40671">
        <ele>2057</ele>
        <time>2020-07-07T11:18:35.000Z</time>
      </trkpt>
      <trkpt lat="44.39406" lon="6.40671">
        <ele>2057</ele>
        <time>2020-07-07T11:18:36.000Z</time>
      </trkpt>
      <trkpt lat="44.39406" lon="6.40671">
        <ele>2057</ele>
        <time>2020-07-07T11:18:37.000Z</time>
      </trkpt>
      <trkpt lat="44.39405" lon="6.4067">
        <ele>2057</ele>
        <time>2020-07-07T11:18:38.000Z</time>
      </trkpt>
      <trkpt lat="44.39404" lon="6.4067">
        <ele>2058</ele>
        <time>2020-07-07T11:18:39.000Z</time>
      </trkpt>
      <trkpt lat="44.39404" lon="6.4067">
        <ele>2058</ele>
        <time>2020-07-07T11:18:40.000Z</time>
      </trkpt>
      <trkpt lat="44.39403" lon="6.40669">
        <ele>2058</ele>
        <time>2020-07-07T11:18:41.000Z</time>
      </trkpt>
      <trkpt lat="44.39402" lon="6.4067">
        <ele>2058</ele>
        <time>2020-07-07T11:18:42.000Z</time>
      </trkpt>
      <trkpt lat="44.39401" lon="6.40669">
        <ele>2058</ele>
        <time>2020-07-07T11:18:43.000Z</time>
      </trkpt>
      <trkpt lat="44.39401" lon="6.40669">
        <ele>2058</ele>
        <time>2020-07-07T11:18:44.000Z</time>
      </trkpt>
      <trkpt lat="44.39401" lon="6.40668">
        <ele>2058</ele>
        <time>2020-07-07T11:18:45.000Z</time>
      </trkpt>
      <trkpt lat="44.394" lon="6.40668">
        <ele>2059</ele>
        <time>2020-07-07T11:18:46.000Z</time>
      </trkpt>
      <trkpt lat="44.394" lon="6.40667">
        <ele>2059</ele>
        <time>2020-07-07T11:18:47.000Z</time>
      </trkpt>
      <trkpt lat="44.39399" lon="6.40667">
        <ele>2059</ele>
        <time>2020-07-07T11:18:48.000Z</time>
      </trkpt>
      <trkpt lat="44.39398" lon="6.40667">
        <ele>2059</ele>
        <time>2020-07-07T11:18:49.000Z</time>
      </trkpt>
      <trkpt lat="44.39398" lon="6.40667">
        <ele>2059</ele>
        <time>2020-07-07T11:18:50.000Z</time>
      </trkpt>
      <trkpt lat="44.39397" lon="6.40667">
        <ele>2059</ele>
        <time>2020-07-07T11:18:51.000Z</time>
      </trkpt>
      <trkpt lat="44.39396" lon="6.40666">
        <ele>2060</ele>
        <time>2020-07-07T11:18:52.000Z</time>
      </trkpt>
      <trkpt lat="44.39395" lon="6.40666">
        <ele>2060</ele>
        <time>2020-07-07T11:18:53.000Z</time>
      </trkpt>
      <trkpt lat="44.39395" lon="6.40666">
        <ele>2060</ele>
        <time>2020-07-07T11:18:54.000Z</time>
      </trkpt>
      <trkpt lat="44.39394" lon="6.40665">
        <ele>2060</ele>
        <time>2020-07-07T11:18:55.000Z</time>
      </trkpt>
      <trkpt lat="44.39394" lon="6.40665">
        <ele>2060</ele>
        <time>2020-07-07T11:18:56.000Z</time>
      </trkpt>
      <trkpt lat="44.39393" lon="6.40665">
        <ele>2060</ele>
        <time>2020-07-07T11:18:57.000Z</time>
      </trkpt>
      <trkpt lat="44.39393" lon="6.40664">
        <ele>2061</ele>
        <time>2020-07-07T11:18:58.000Z</time>
      </trkpt>
      <trkpt lat="44.39392" lon="6.40664">
        <ele>2061</ele>
        <time>2020-07-07T11:18:59.000Z</time>
      </trkpt>
      <trkpt lat="44.39391" lon="6.40665">
        <ele>2061</ele>
        <time>2020-07-07T11:19:00.000Z</time>
      </trkpt>
      <trkpt lat="44.39391" lon="6.40665">
        <ele>2061</ele>
        <time>2020-07-07T11:19:01.000Z</time>
      </trkpt>
      <trkpt lat="44.3939" lon="6.40665">
        <ele>2061</ele>
        <time>2020-07-07T11:19:02.000Z</time>
      </trkpt>
      <trkpt lat="44.39389" lon="6.40665">
        <ele>2061</ele>
        <time>2020-07-07T11:19:03.000Z</time>
      </trkpt>
      <trkpt lat="44.39389" lon="6.40665">
        <ele>2061</ele>
        <time>2020-07-07T11:19:04.000Z</time>
      </trkpt>
      <trkpt lat="44.39388" lon="6.40665">
        <ele>2062</ele>
        <time>2020-07-07T11:19:05.000Z</time>
      </trkpt>
      <trkpt lat="44.39387" lon="6.40664">
        <ele>2062</ele>
        <time>2020-07-07T11:19:06.000Z</time>
      </trkpt>
      <trkpt lat="44.39387" lon="6.40664">
        <ele>2062</ele>
        <time>2020-07-07T11:19:07.000Z</time>
      </trkpt>
      <trkpt lat="44.39386" lon="6.40663">
        <ele>2062</ele>
        <time>2020-07-07T11:19:08.000Z</time>
      </trkpt>
      <trkpt lat="44.39385" lon="6.40663">
        <ele>2062</ele>
        <time>2020-07-07T11:19:09.000Z</time>
      </trkpt>
      <trkpt lat="44.39384" lon="6.40662">
        <ele>2062</ele>
        <time>2020-07-07T11:19:10.000Z</time>
      </trkpt>
      <trkpt lat="44.39384" lon="6.40662">
        <ele>2062</ele>
        <time>2020-07-07T11:19:11.000Z</time>
      </trkpt>
      <trkpt lat="44.39383" lon="6.40661">
        <ele>2063</ele>
        <time>2020-07-07T11:19:12.000Z</time>
      </trkpt>
      <trkpt lat="44.39383" lon="6.40661">
        <ele>2063</ele>
        <time>2020-07-07T11:19:13.000Z</time>
      </trkpt>
      <trkpt lat="44.39382" lon="6.40662">
        <ele>2063</ele>
        <time>2020-07-07T11:19:14.000Z</time>
      </trkpt>
      <trkpt lat="44.39381" lon="6.40662">
        <ele>2063</ele>
        <time>2020-07-07T11:19:15.000Z</time>
      </trkpt>
      <trkpt lat="44.3938" lon="6.40663">
        <ele>2063</ele>
        <time>2020-07-07T11:19:16.000Z</time>
      </trkpt>
      <trkpt lat="44.39379" lon="6.40663">
        <ele>2063</ele>
        <time>2020-07-07T11:19:17.000Z</time>
      </trkpt>
      <trkpt lat="44.39379" lon="6.40663">
        <ele>2063</ele>
        <time>2020-07-07T11:19:18.000Z</time>
      </trkpt>
      <trkpt lat="44.39378" lon="6.40662">
        <ele>2063</ele>
        <time>2020-07-07T11:19:19.000Z</time>
      </trkpt>
      <trkpt lat="44.39377" lon="6.40662">
        <ele>2063</ele>
        <time>2020-07-07T11:19:20.000Z</time>
      </trkpt>
      <trkpt lat="44.39377" lon="6.40662">
        <ele>2063</ele>
        <time>2020-07-07T11:19:21.000Z</time>
      </trkpt>
      <trkpt lat="44.39376" lon="6.40662">
        <ele>2063</ele>
        <time>2020-07-07T11:19:22.000Z</time>
      </trkpt>
      <trkpt lat="44.39375" lon="6.40661">
        <ele>2063</ele>
        <time>2020-07-07T11:19:23.000Z</time>
      </trkpt>
      <trkpt lat="44.39374" lon="6.40661">
        <ele>2063</ele>
        <time>2020-07-07T11:19:24.000Z</time>
      </trkpt>
      <trkpt lat="44.39374" lon="6.40662">
        <ele>2063</ele>
        <time>2020-07-07T11:19:25.000Z</time>
      </trkpt>
      <trkpt lat="44.39373" lon="6.40662">
        <ele>2063</ele>
        <time>2020-07-07T11:19:26.000Z</time>
      </trkpt>
      <trkpt lat="44.39372" lon="6.40662">
        <ele>2063</ele>
        <time>2020-07-07T11:19:27.000Z</time>
      </trkpt>
      <trkpt lat="44.39372" lon="6.40662">
        <ele>2063</ele>
        <time>2020-07-07T11:19:28.000Z</time>
      </trkpt>
      <trkpt lat="44.39371" lon="6.40662">
        <ele>2063</ele>
        <time>2020-07-07T11:19:29.000Z</time>
      </trkpt>
      <trkpt lat="44.3937" lon="6.40663">
        <ele>2063</ele>
        <time>2020-07-07T11:19:30.000Z</time>
      </trkpt>
      <trkpt lat="44.3937" lon="6.40663">
        <ele>2063</ele>
        <time>2020-07-07T11:19:31.000Z</time>
      </trkpt>
      <trkpt lat="44.39369" lon="6.40664">
        <ele>2063</ele>
        <time>2020-07-07T11:19:32.000Z</time>
      </trkpt>
      <trkpt lat="44.39369" lon="6.40664">
        <ele>2063</ele>
        <time>2020-07-07T11:19:33.000Z</time>
      </trkpt>
      <trkpt lat="44.39368" lon="6.40664">
        <ele>2063</ele>
        <time>2020-07-07T11:19:34.000Z</time>
      </trkpt>
      <trkpt lat="44.39367" lon="6.40664">
        <ele>2063</ele>
        <time>2020-07-07T11:19:35.000Z</time>
      </trkpt>
      <trkpt lat="44.39367" lon="6.40665">
        <ele>2063</ele>
        <time>2020-07-07T11:19:36.000Z</time>
      </trkpt>
      <trkpt lat="44.39366" lon="6.40665">
        <ele>2063</ele>
        <time>2020-07-07T11:19:37.000Z</time>
      </trkpt>
      <trkpt lat="44.39365" lon="6.40665">
        <ele>2063</ele>
        <time>2020-07-07T11:19:38.000Z</time>
      </trkpt>
      <trkpt lat="44.39365" lon="6.40664">
        <ele>2064</ele>
        <time>2020-07-07T11:19:39.000Z</time>
      </trkpt>
      <trkpt lat="44.39365" lon="6.40664">
        <ele>2064</ele>
        <time>2020-07-07T11:19:40.000Z</time>
      </trkpt>
      <trkpt lat="44.39365" lon="6.40664">
        <ele>2064</ele>
        <time>2020-07-07T11:19:41.000Z</time>
      </trkpt>
      <trkpt lat="44.39365" lon="6.40664">
        <ele>2064</ele>
        <time>2020-07-07T11:19:42.000Z</time>
      </trkpt>
      <trkpt lat="44.39365" lon="6.40664">
        <ele>2064</ele>
        <time>2020-07-07T11:19:43.000Z</time>
      </trkpt>
      <trkpt lat="44.39364" lon="6.40663">
        <ele>2064</ele>
        <time>2020-07-07T11:19:44.000Z</time>
      </trkpt>
      <trkpt lat="44.39365" lon="6.40663">
        <ele>2064</ele>
        <time>2020-07-07T11:19:45.000Z</time>
      </trkpt>
      <trkpt lat="44.39365" lon="6.40663">
        <ele>2064</ele>
        <time>2020-07-07T11:19:46.000Z</time>
      </trkpt>
      <trkpt lat="44.39365" lon="6.40662">
        <ele>2064</ele>
        <time>2020-07-07T11:19:47.000Z</time>
      </trkpt>
      <trkpt lat="44.39365" lon="6.40662">
        <ele>2064</ele>
        <time>2020-07-07T11:19:48.000Z</time>
      </trkpt>
      <trkpt lat="44.39365" lon="6.40662">
        <ele>2064</ele>
        <time>2020-07-07T11:19:49.000Z</time>
      </trkpt>
      <trkpt lat="44.39365" lon="6.40662">
        <ele>2064</ele>
        <time>2020-07-07T11:19:50.000Z</time>
      </trkpt>
      <trkpt lat="44.39365" lon="6.40662">
        <ele>2064</ele>
        <time>2020-07-07T11:19:51.000Z</time>
      </trkpt>
      <trkpt lat="44.39365" lon="6.40662">
        <ele>2064</ele>
        <time>2020-07-07T11:19:52.000Z</time>
      </trkpt>
      <trkpt lat="44.39365" lon="6.40662">
        <ele>2064</ele>
        <time>2020-07-07T11:19:53.000Z</time>
      </trkpt>
      <trkpt lat="44.39365" lon="6.40663">
        <ele>2064</ele>
        <time>2020-07-07T11:19:54.000Z</time>
      </trkpt>
      <trkpt lat="44.39365" lon="6.40663">
        <ele>2064</ele>
        <time>2020-07-07T11:19:55.000Z</time>
      </trkpt>
      <trkpt lat="44.39365" lon="6.40664">
        <ele>2064</ele>
        <time>2020-07-07T11:19:56.000Z</time>
      </trkpt>
      <trkpt lat="44.39365" lon="6.40663">
        <ele>2064</ele>
        <time>2020-07-07T11:19:57.000Z</time>
      </trkpt>
      <trkpt lat="44.39365" lon="6.40663">
        <ele>2064</ele>
        <time>2020-07-07T11:19:58.000Z</time>
      </trkpt>
      <trkpt lat="44.39365" lon="6.40663">
        <ele>2064</ele>
        <time>2020-07-07T11:19:59.000Z</time>
      </trkpt>
      <trkpt lat="44.39365" lon="6.40663">
        <ele>2064</ele>
        <time>2020-07-07T11:20:00.000Z</time>
      </trkpt>
      <trkpt lat="44.39365" lon="6.40663">
        <ele>2064</ele>
        <time>2020-07-07T11:20:01.000Z</time>
      </trkpt>
      <trkpt lat="44.39365" lon="6.40663">
        <ele>2064</ele>
        <time>2020-07-07T11:20:02.000Z</time>
      </trkpt>
      <trkpt lat="44.39365" lon="6.40663">
        <ele>2064</ele>
        <time>2020-07-07T11:20:03.000Z</time>
      </trkpt>
      <trkpt lat="44.39365" lon="6.40663">
        <ele>2064</ele>
        <time>2020-07-07T11:20:04.000Z</time>
      </trkpt>
      <trkpt lat="44.39365" lon="6.40663">
        <ele>2065</ele>
        <time>2020-07-07T11:20:05.000Z</time>
      </trkpt>
      <trkpt lat="44.39365" lon="6.40663">
        <ele>2065</ele>
        <time>2020-07-07T11:20:06.000Z</time>
      </trkpt>
      <trkpt lat="44.39365" lon="6.40663">
        <ele>2065</ele>
        <time>2020-07-07T11:20:07.000Z</time>
      </trkpt>
      <trkpt lat="44.39365" lon="6.40663">
        <ele>2065</ele>
        <time>2020-07-07T11:20:08.000Z</time>
      </trkpt>
      <trkpt lat="44.39365" lon="6.40663">
        <ele>2065</ele>
        <time>2020-07-07T11:20:09.000Z</time>
      </trkpt>
      <trkpt lat="44.39365" lon="6.40663">
        <ele>2065</ele>
        <time>2020-07-07T11:20:10.000Z</time>
      </trkpt>
      <trkpt lat="44.39365" lon="6.40663">
        <ele>2065</ele>
        <time>2020-07-07T11:20:11.000Z</time>
      </trkpt>
      <trkpt lat="44.39365" lon="6.40663">
        <ele>2065</ele>
        <time>2020-07-07T11:20:12.000Z</time>
      </trkpt>
      <trkpt lat="44.39365" lon="6.40663">
        <ele>2065</ele>
        <time>2020-07-07T11:20:13.000Z</time>
      </trkpt>
      <trkpt lat="44.39365" lon="6.40664">
        <ele>2065</ele>
        <time>2020-07-07T11:20:14.000Z</time>
      </trkpt>
      <trkpt lat="44.39365" lon="6.40664">
        <ele>2065</ele>
        <time>2020-07-07T11:20:15.000Z</time>
      </trkpt>
      <trkpt lat="44.39365" lon="6.40664">
        <ele>2065</ele>
        <time>2020-07-07T11:20:16.000Z</time>
      </trkpt>
      <trkpt lat="44.39365" lon="6.40664">
        <ele>2065</ele>
        <time>2020-07-07T11:20:17.000Z</time>
      </trkpt>
      <trkpt lat="44.39365" lon="6.40664">
        <ele>2065</ele>
        <time>2020-07-07T11:20:18.000Z</time>
      </trkpt>
      <trkpt lat="44.39365" lon="6.40664">
        <ele>2065</ele>
        <time>2020-07-07T11:20:19.000Z</time>
      </trkpt>
      <trkpt lat="44.39365" lon="6.40664">
        <ele>2065</ele>
        <time>2020-07-07T11:20:20.000Z</time>
      </trkpt>
      <trkpt lat="44.39365" lon="6.40665">
        <ele>2065</ele>
        <time>2020-07-07T11:20:21.000Z</time>
      </trkpt>
      <trkpt lat="44.39365" lon="6.40665">
        <ele>2065</ele>
        <time>2020-07-07T11:20:22.000Z</time>
      </trkpt>
      <trkpt lat="44.39365" lon="6.40665">
        <ele>2065</ele>
        <time>2020-07-07T11:20:23.000Z</time>
      </trkpt>
      <trkpt lat="44.39365" lon="6.40665">
        <ele>2065</ele>
        <time>2020-07-07T11:20:24.000Z</time>
      </trkpt>
      <trkpt lat="44.39365" lon="6.40665">
        <ele>2065</ele>
        <time>2020-07-07T11:20:25.000Z</time>
      </trkpt>
      <trkpt lat="44.39365" lon="6.40665">
        <ele>2065</ele>
        <time>2020-07-07T11:20:26.000Z</time>
      </trkpt>
      <trkpt lat="44.39365" lon="6.40665">
        <ele>2065</ele>
        <time>2020-07-07T11:20:27.000Z</time>
      </trkpt>
      <trkpt lat="44.39364" lon="6.40665">
        <ele>2065</ele>
        <time>2020-07-07T11:20:28.000Z</time>
      </trkpt>
      <trkpt lat="44.39364" lon="6.40665">
        <ele>2065</ele>
        <time>2020-07-07T11:20:29.000Z</time>
      </trkpt>
      <trkpt lat="44.39365" lon="6.40665">
        <ele>2065</ele>
        <time>2020-07-07T11:20:30.000Z</time>
      </trkpt>
      <trkpt lat="44.39365" lon="6.40665">
        <ele>2065</ele>
        <time>2020-07-07T11:20:31.000Z</time>
      </trkpt>
      <trkpt lat="44.39365" lon="6.40665">
        <ele>2065</ele>
        <time>2020-07-07T11:20:32.000Z</time>
      </trkpt>
      <trkpt lat="44.39365" lon="6.40665">
        <ele>2065</ele>
        <time>2020-07-07T11:20:33.000Z</time>
      </trkpt>
      <trkpt lat="44.39365" lon="6.40665">
        <ele>2065</ele>
        <time>2020-07-07T11:20:34.000Z</time>
      </trkpt>
      <trkpt lat="44.39365" lon="6.40665">
        <ele>2065</ele>
        <time>2020-07-07T11:20:35.000Z</time>
      </trkpt>
      <trkpt lat="44.39365" lon="6.40665">
        <ele>2065</ele>
        <time>2020-07-07T11:20:36.000Z</time>
      </trkpt>
      <trkpt lat="44.39365" lon="6.40665">
        <ele>2065</ele>
        <time>2020-07-07T11:20:37.000Z</time>
      </trkpt>
      <trkpt lat="44.39365" lon="6.40665">
        <ele>2065</ele>
        <time>2020-07-07T11:20:38.000Z</time>
      </trkpt>
      <trkpt lat="44.39365" lon="6.40665">
        <ele>2065</ele>
        <time>2020-07-07T11:20:39.000Z</time>
      </trkpt>
      <trkpt lat="44.39365" lon="6.40665">
        <ele>2065</ele>
        <time>2020-07-07T11:20:40.000Z</time>
      </trkpt>
      <trkpt lat="44.39365" lon="6.40665">
        <ele>2065</ele>
        <time>2020-07-07T11:20:41.000Z</time>
      </trkpt>
      <trkpt lat="44.39364" lon="6.40665">
        <ele>2065</ele>
        <time>2020-07-07T11:20:42.000Z</time>
      </trkpt>
      <trkpt lat="44.39364" lon="6.40665">
        <ele>2065</ele>
        <time>2020-07-07T11:20:43.000Z</time>
      </trkpt>
      <trkpt lat="44.39364" lon="6.40665">
        <ele>2065</ele>
        <time>2020-07-07T11:20:44.000Z</time>
      </trkpt>
      <trkpt lat="44.39364" lon="6.40665">
        <ele>2065</ele>
        <time>2020-07-07T11:20:45.000Z</time>
      </trkpt>
      <trkpt lat="44.39364" lon="6.40665">
        <ele>2065</ele>
        <time>2020-07-07T11:20:46.000Z</time>
      </trkpt>
      <trkpt lat="44.39364" lon="6.40665">
        <ele>2066</ele>
        <time>2020-07-07T11:20:47.000Z</time>
      </trkpt>
      <trkpt lat="44.39364" lon="6.40665">
        <ele>2066</ele>
        <time>2020-07-07T11:20:48.000Z</time>
      </trkpt>
      <trkpt lat="44.39364" lon="6.40665">
        <ele>2066</ele>
        <time>2020-07-07T11:20:49.000Z</time>
      </trkpt>
      <trkpt lat="44.39364" lon="6.40665">
        <ele>2066</ele>
        <time>2020-07-07T11:20:50.000Z</time>
      </trkpt>
      <trkpt lat="44.39364" lon="6.40666">
        <ele>2066</ele>
        <time>2020-07-07T11:20:51.000Z</time>
      </trkpt>
      <trkpt lat="44.39364" lon="6.40666">
        <ele>2066</ele>
        <time>2020-07-07T11:20:52.000Z</time>
      </trkpt>
      <trkpt lat="44.39364" lon="6.40666">
        <ele>2066</ele>
        <time>2020-07-07T11:20:53.000Z</time>
      </trkpt>
      <trkpt lat="44.39364" lon="6.40666">
        <ele>2066</ele>
        <time>2020-07-07T11:20:54.000Z</time>
      </trkpt>
      <trkpt lat="44.39364" lon="6.40666">
        <ele>2066</ele>
        <time>2020-07-07T11:20:55.000Z</time>
      </trkpt>
      <trkpt lat="44.39364" lon="6.40666">
        <ele>2066</ele>
        <time>2020-07-07T11:20:56.000Z</time>
      </trkpt>
      <trkpt lat="44.39364" lon="6.40666">
        <ele>2066</ele>
        <time>2020-07-07T11:20:57.000Z</time>
      </trkpt>
      <trkpt lat="44.39364" lon="6.40666">
        <ele>2066</ele>
        <time>2020-07-07T11:20:58.000Z</time>
      </trkpt>
      <trkpt lat="44.39364" lon="6.40666">
        <ele>2066</ele>
        <time>2020-07-07T11:20:59.000Z</time>
      </trkpt>
      <trkpt lat="44.39364" lon="6.40666">
        <ele>2066</ele>
        <time>2020-07-07T11:21:00.000Z</time>
      </trkpt>
      <trkpt lat="44.39364" lon="6.40665">
        <ele>2066</ele>
        <time>2020-07-07T11:21:01.000Z</time>
      </trkpt>
      <trkpt lat="44.39364" lon="6.40665">
        <ele>2066</ele>
        <time>2020-07-07T11:21:02.000Z</time>
      </trkpt>
      <trkpt lat="44.39364" lon="6.40665">
        <ele>2066</ele>
        <time>2020-07-07T11:21:03.000Z</time>
      </trkpt>
      <trkpt lat="44.39364" lon="6.40665">
        <ele>2066</ele>
        <time>2020-07-07T11:21:04.000Z</time>
      </trkpt>
      <trkpt lat="44.39364" lon="6.40665">
        <ele>2066</ele>
        <time>2020-07-07T11:21:05.000Z</time>
      </trkpt>
      <trkpt lat="44.39364" lon="6.40665">
        <ele>2066</ele>
        <time>2020-07-07T11:21:06.000Z</time>
      </trkpt>
      <trkpt lat="44.39364" lon="6.40665">
        <ele>2066</ele>
        <time>2020-07-07T11:21:07.000Z</time>
      </trkpt>
      <trkpt lat="44.39364" lon="6.40665">
        <ele>2066</ele>
        <time>2020-07-07T11:21:08.000Z</time>
      </trkpt>
      <trkpt lat="44.39364" lon="6.40665">
        <ele>2066</ele>
        <time>2020-07-07T11:21:09.000Z</time>
      </trkpt>
      <trkpt lat="44.39364" lon="6.40665">
        <ele>2066</ele>
        <time>2020-07-07T11:21:10.000Z</time>
      </trkpt>
      <trkpt lat="44.39364" lon="6.40666">
        <ele>2066</ele>
        <time>2020-07-07T11:21:11.000Z</time>
      </trkpt>
      <trkpt lat="44.39364" lon="6.40665">
        <ele>2066</ele>
        <time>2020-07-07T11:21:12.000Z</time>
      </trkpt>
      <trkpt lat="44.39364" lon="6.40665">
        <ele>2066</ele>
        <time>2020-07-07T11:21:13.000Z</time>
      </trkpt>
      <trkpt lat="44.39364" lon="6.40665">
        <ele>2066</ele>
        <time>2020-07-07T11:21:14.000Z</time>
      </trkpt>
      <trkpt lat="44.39364" lon="6.40665">
        <ele>2066</ele>
        <time>2020-07-07T11:21:15.000Z</time>
      </trkpt>
      <trkpt lat="44.39364" lon="6.40665">
        <ele>2066</ele>
        <time>2020-07-07T11:21:16.000Z</time>
      </trkpt>
      <trkpt lat="44.39364" lon="6.40665">
        <ele>2066</ele>
        <time>2020-07-07T11:21:17.000Z</time>
      </trkpt>
      <trkpt lat="44.39364" lon="6.40665">
        <ele>2066</ele>
        <time>2020-07-07T11:21:18.000Z</time>
      </trkpt>
      <trkpt lat="44.39364" lon="6.40665">
        <ele>2066</ele>
        <time>2020-07-07T11:21:19.000Z</time>
      </trkpt>
      <trkpt lat="44.39364" lon="6.40665">
        <ele>2066</ele>
        <time>2020-07-07T11:21:20.000Z</time>
      </trkpt>
      <trkpt lat="44.39364" lon="6.40665">
        <ele>2067</ele>
        <time>2020-07-07T11:21:21.000Z</time>
      </trkpt>
      <trkpt lat="44.39364" lon="6.40665">
        <ele>2067</ele>
        <time>2020-07-07T11:21:22.000Z</time>
      </trkpt>
      <trkpt lat="44.39364" lon="6.40665">
        <ele>2067</ele>
        <time>2020-07-07T11:21:23.000Z</time>
      </trkpt>
      <trkpt lat="44.39364" lon="6.40665">
        <ele>2067</ele>
        <time>2020-07-07T11:21:24.000Z</time>
      </trkpt>
      <trkpt lat="44.39364" lon="6.40665">
        <ele>2067</ele>
        <time>2020-07-07T11:21:25.000Z</time>
      </trkpt>
      <trkpt lat="44.39364" lon="6.40665">
        <ele>2067</ele>
        <time>2020-07-07T11:21:26.000Z</time>
      </trkpt>
      <trkpt lat="44.39364" lon="6.40665">
        <ele>2067</ele>
        <time>2020-07-07T11:21:27.000Z</time>
      </trkpt>
      <trkpt lat="44.39364" lon="6.40665">
        <ele>2067</ele>
        <time>2020-07-07T11:21:28.000Z</time>
      </trkpt>
      <trkpt lat="44.39364" lon="6.40665">
        <ele>2067</ele>
        <time>2020-07-07T11:21:29.000Z</time>
      </trkpt>
      <trkpt lat="44.39364" lon="6.40665">
        <ele>2067</ele>
        <time>2020-07-07T11:21:30.000Z</time>
      </trkpt>
      <trkpt lat="44.39364" lon="6.40665">
        <ele>2067</ele>
        <time>2020-07-07T11:21:31.000Z</time>
      </trkpt>
      <trkpt lat="44.39364" lon="6.40665">
        <ele>2067</ele>
        <time>2020-07-07T11:21:32.000Z</time>
      </trkpt>
      <trkpt lat="44.39364" lon="6.40665">
        <ele>2067</ele>
        <time>2020-07-07T11:21:33.000Z</time>
      </trkpt>
      <trkpt lat="44.39364" lon="6.40665">
        <ele>2067</ele>
        <time>2020-07-07T11:21:34.000Z</time>
      </trkpt>
      <trkpt lat="44.39364" lon="6.40666">
        <ele>2067</ele>
        <time>2020-07-07T11:21:35.000Z</time>
      </trkpt>
      <trkpt lat="44.39364" lon="6.40666">
        <ele>2067</ele>
        <time>2020-07-07T11:21:36.000Z</time>
      </trkpt>
      <trkpt lat="44.39364" lon="6.40666">
        <ele>2067</ele>
        <time>2020-07-07T11:21:37.000Z</time>
      </trkpt>
      <trkpt lat="44.39364" lon="6.40666">
        <ele>2067</ele>
        <time>2020-07-07T11:21:38.000Z</time>
      </trkpt>
      <trkpt lat="44.39364" lon="6.40666">
        <ele>2067</ele>
        <time>2020-07-07T11:21:39.000Z</time>
      </trkpt>
      <trkpt lat="44.39364" lon="6.40666">
        <ele>2067</ele>
        <time>2020-07-07T11:21:40.000Z</time>
      </trkpt>
      <trkpt lat="44.39364" lon="6.40666">
        <ele>2067</ele>
        <time>2020-07-07T11:21:41.000Z</time>
      </trkpt>
      <trkpt lat="44.39364" lon="6.40666">
        <ele>2067</ele>
        <time>2020-07-07T11:21:42.000Z</time>
      </trkpt>
      <trkpt lat="44.39364" lon="6.40666">
        <ele>2067</ele>
        <time>2020-07-07T11:21:43.000Z</time>
      </trkpt>
      <trkpt lat="44.39364" lon="6.40666">
        <ele>2067</ele>
        <time>2020-07-07T11:21:44.000Z</time>
      </trkpt>
      <trkpt lat="44.39363" lon="6.40666">
        <ele>2067</ele>
        <time>2020-07-07T11:21:45.000Z</time>
      </trkpt>
      <trkpt lat="44.39363" lon="6.40666">
        <ele>2067</ele>
        <time>2020-07-07T11:21:46.000Z</time>
      </trkpt>
      <trkpt lat="44.39363" lon="6.40666">
        <ele>2067</ele>
        <time>2020-07-07T11:21:47.000Z</time>
      </trkpt>
      <trkpt lat="44.39363" lon="6.40666">
        <ele>2067</ele>
        <time>2020-07-07T11:21:48.000Z</time>
      </trkpt>
      <trkpt lat="44.39363" lon="6.40666">
        <ele>2067</ele>
        <time>2020-07-07T11:21:49.000Z</time>
      </trkpt>
      <trkpt lat="44.39363" lon="6.40666">
        <ele>2067</ele>
        <time>2020-07-07T11:21:50.000Z</time>
      </trkpt>
      <trkpt lat="44.39363" lon="6.40666">
        <ele>2067</ele>
        <time>2020-07-07T11:21:51.000Z</time>
      </trkpt>
      <trkpt lat="44.39363" lon="6.40666">
        <ele>2067</ele>
        <time>2020-07-07T11:21:52.000Z</time>
      </trkpt>
      <trkpt lat="44.39363" lon="6.40666">
        <ele>2067</ele>
        <time>2020-07-07T11:21:53.000Z</time>
      </trkpt>
      <trkpt lat="44.39363" lon="6.40666">
        <ele>2067</ele>
        <time>2020-07-07T11:21:54.000Z</time>
      </trkpt>
      <trkpt lat="44.39363" lon="6.40666">
        <ele>2067</ele>
        <time>2020-07-07T11:21:55.000Z</time>
      </trkpt>
      <trkpt lat="44.39363" lon="6.40666">
        <ele>2067</ele>
        <time>2020-07-07T11:21:56.000Z</time>
      </trkpt>
      <trkpt lat="44.39363" lon="6.40666">
        <ele>2067</ele>
        <time>2020-07-07T11:21:57.000Z</time>
      </trkpt>
      <trkpt lat="44.39363" lon="6.40666">
        <ele>2067</ele>
        <time>2020-07-07T11:21:58.000Z</time>
      </trkpt>
      <trkpt lat="44.39363" lon="6.40666">
        <ele>2067</ele>
        <time>2020-07-07T11:21:59.000Z</time>
      </trkpt>
      <trkpt lat="44.39362" lon="6.40666">
        <ele>2067</ele>
        <time>2020-07-07T11:22:00.000Z</time>
      </trkpt>
      <trkpt lat="44.39362" lon="6.40666">
        <ele>2067</ele>
        <time>2020-07-07T11:22:01.000Z</time>
      </trkpt>
      <trkpt lat="44.39362" lon="6.40666">
        <ele>2067</ele>
        <time>2020-07-07T11:22:02.000Z</time>
      </trkpt>
      <trkpt lat="44.39363" lon="6.40666">
        <ele>2067</ele>
        <time>2020-07-07T11:22:03.000Z</time>
      </trkpt>
      <trkpt lat="44.39363" lon="6.40666">
        <ele>2067</ele>
        <time>2020-07-07T11:22:04.000Z</time>
      </trkpt>
      <trkpt lat="44.39363" lon="6.40666">
        <ele>2067</ele>
        <time>2020-07-07T11:22:05.000Z</time>
      </trkpt>
      <trkpt lat="44.39363" lon="6.40666">
        <ele>2067</ele>
        <time>2020-07-07T11:22:06.000Z</time>
      </trkpt>
      <trkpt lat="44.39363" lon="6.40666">
        <ele>2067</ele>
        <time>2020-07-07T11:22:07.000Z</time>
      </trkpt>
      <trkpt lat="44.39363" lon="6.40666">
        <ele>2067</ele>
        <time>2020-07-07T11:22:08.000Z</time>
      </trkpt>
      <trkpt lat="44.39363" lon="6.40666">
        <ele>2067</ele>
        <time>2020-07-07T11:22:09.000Z</time>
      </trkpt>
      <trkpt lat="44.39363" lon="6.40666">
        <ele>2067</ele>
        <time>2020-07-07T11:22:10.000Z</time>
      </trkpt>
      <trkpt lat="44.39363" lon="6.40666">
        <ele>2067</ele>
        <time>2020-07-07T11:22:11.000Z</time>
      </trkpt>
      <trkpt lat="44.39363" lon="6.40666">
        <ele>2067</ele>
        <time>2020-07-07T11:22:12.000Z</time>
      </trkpt>
      <trkpt lat="44.39363" lon="6.40666">
        <ele>2067</ele>
        <time>2020-07-07T11:22:13.000Z</time>
      </trkpt>
      <trkpt lat="44.39363" lon="6.40666">
        <ele>2067</ele>
        <time>2020-07-07T11:22:14.000Z</time>
      </trkpt>
      <trkpt lat="44.39363" lon="6.40666">
        <ele>2067</ele>
        <time>2020-07-07T11:22:15.000Z</time>
      </trkpt>
      <trkpt lat="44.39363" lon="6.40666">
        <ele>2067</ele>
        <time>2020-07-07T11:22:16.000Z</time>
      </trkpt>
      <trkpt lat="44.39363" lon="6.40666">
        <ele>2067</ele>
        <time>2020-07-07T11:22:17.000Z</time>
      </trkpt>
      <trkpt lat="44.39363" lon="6.40666">
        <ele>2067</ele>
        <time>2020-07-07T11:22:18.000Z</time>
      </trkpt>
      <trkpt lat="44.39363" lon="6.40666">
        <ele>2067</ele>
        <time>2020-07-07T11:22:19.000Z</time>
      </trkpt>
      <trkpt lat="44.39363" lon="6.40666">
        <ele>2067</ele>
        <time>2020-07-07T11:22:20.000Z</time>
      </trkpt>
      <trkpt lat="44.39363" lon="6.40666">
        <ele>2067</ele>
        <time>2020-07-07T11:22:21.000Z</time>
      </trkpt>
      <trkpt lat="44.39363" lon="6.40666">
        <ele>2067</ele>
        <time>2020-07-07T11:22:22.000Z</time>
      </trkpt>
      <trkpt lat="44.39363" lon="6.40666">
        <ele>2067</ele>
        <time>2020-07-07T11:22:23.000Z</time>
      </trkpt>
      <trkpt lat="44.39363" lon="6.40666">
        <ele>2067</ele>
        <time>2020-07-07T11:22:24.000Z</time>
      </trkpt>
      <trkpt lat="44.39363" lon="6.40666">
        <ele>2067</ele>
        <time>2020-07-07T11:22:25.000Z</time>
      </trkpt>
      <trkpt lat="44.39363" lon="6.40666">
        <ele>2067</ele>
        <time>2020-07-07T11:22:26.000Z</time>
      </trkpt>
      <trkpt lat="44.39363" lon="6.40666">
        <ele>2067</ele>
        <time>2020-07-07T11:22:27.000Z</time>
      </trkpt>
      <trkpt lat="44.39363" lon="6.40666">
        <ele>2067</ele>
        <time>2020-07-07T11:22:28.000Z</time>
      </trkpt>
      <trkpt lat="44.39363" lon="6.40666">
        <ele>2067</ele>
        <time>2020-07-07T11:22:29.000Z</time>
      </trkpt>
      <trkpt lat="44.39363" lon="6.40666">
        <ele>2067</ele>
        <time>2020-07-07T11:22:30.000Z</time>
      </trkpt>
      <trkpt lat="44.39363" lon="6.40666">
        <ele>2067</ele>
        <time>2020-07-07T11:22:31.000Z</time>
      </trkpt>
      <trkpt lat="44.39363" lon="6.40666">
        <ele>2067</ele>
        <time>2020-07-07T11:22:32.000Z</time>
      </trkpt>
      <trkpt lat="44.39363" lon="6.40667">
        <ele>2067</ele>
        <time>2020-07-07T11:22:33.000Z</time>
      </trkpt>
      <trkpt lat="44.39363" lon="6.40667">
        <ele>2067</ele>
        <time>2020-07-07T11:22:34.000Z</time>
      </trkpt>
      <trkpt lat="44.39362" lon="6.40666">
        <ele>2067</ele>
        <time>2020-07-07T11:22:35.000Z</time>
      </trkpt>
      <trkpt lat="44.39362" lon="6.40666">
        <ele>2067</ele>
        <time>2020-07-07T11:22:36.000Z</time>
      </trkpt>
      <trkpt lat="44.39362" lon="6.40667">
        <ele>2067</ele>
        <time>2020-07-07T11:22:37.000Z</time>
      </trkpt>
      <trkpt lat="44.39362" lon="6.40666">
        <ele>2067</ele>
        <time>2020-07-07T11:22:38.000Z</time>
      </trkpt>
      <trkpt lat="44.39361" lon="6.40666">
        <ele>2067</ele>
        <time>2020-07-07T11:22:39.000Z</time>
      </trkpt>
      <trkpt lat="44.3936" lon="6.40667">
        <ele>2067</ele>
        <time>2020-07-07T11:22:40.000Z</time>
      </trkpt>
      <trkpt lat="44.3936" lon="6.40667">
        <ele>2067</ele>
        <time>2020-07-07T11:22:41.000Z</time>
      </trkpt>
      <trkpt lat="44.39359" lon="6.40667">
        <ele>2067</ele>
        <time>2020-07-07T11:22:42.000Z</time>
      </trkpt>
      <trkpt lat="44.39358" lon="6.40667">
        <ele>2067</ele>
        <time>2020-07-07T11:22:43.000Z</time>
      </trkpt>
      <trkpt lat="44.39357" lon="6.40666">
        <ele>2067</ele>
        <time>2020-07-07T11:22:44.000Z</time>
      </trkpt>
      <trkpt lat="44.39356" lon="6.40665">
        <ele>2067</ele>
        <time>2020-07-07T11:22:45.000Z</time>
      </trkpt>
      <trkpt lat="44.39355" lon="6.40664">
        <ele>2067</ele>
        <time>2020-07-07T11:22:46.000Z</time>
      </trkpt>
      <trkpt lat="44.39355" lon="6.40664">
        <ele>2067</ele>
        <time>2020-07-07T11:22:47.000Z</time>
      </trkpt>
      <trkpt lat="44.39354" lon="6.40663">
        <ele>2067</ele>
        <time>2020-07-07T11:22:48.000Z</time>
      </trkpt>
      <trkpt lat="44.39353" lon="6.40662">
        <ele>2067</ele>
        <time>2020-07-07T11:22:49.000Z</time>
      </trkpt>
      <trkpt lat="44.39352" lon="6.40662">
        <ele>2067</ele>
        <time>2020-07-07T11:22:50.000Z</time>
      </trkpt>
      <trkpt lat="44.39352" lon="6.40661">
        <ele>2067</ele>
        <time>2020-07-07T11:22:51.000Z</time>
      </trkpt>
      <trkpt lat="44.39351" lon="6.4066">
        <ele>2067</ele>
        <time>2020-07-07T11:22:52.000Z</time>
      </trkpt>
      <trkpt lat="44.3935" lon="6.4066">
        <ele>2067</ele>
        <time>2020-07-07T11:22:53.000Z</time>
      </trkpt>
      <trkpt lat="44.39349" lon="6.4066">
        <ele>2067</ele>
        <time>2020-07-07T11:22:54.000Z</time>
      </trkpt>
      <trkpt lat="44.39348" lon="6.4066">
        <ele>2067</ele>
        <time>2020-07-07T11:22:55.000Z</time>
      </trkpt>
      <trkpt lat="44.39347" lon="6.40659">
        <ele>2067</ele>
        <time>2020-07-07T11:22:56.000Z</time>
      </trkpt>
      <trkpt lat="44.39347" lon="6.40659">
        <ele>2067</ele>
        <time>2020-07-07T11:22:57.000Z</time>
      </trkpt>
      <trkpt lat="44.39346" lon="6.40659">
        <ele>2067</ele>
        <time>2020-07-07T11:22:58.000Z</time>
      </trkpt>
      <trkpt lat="44.39344" lon="6.4066">
        <ele>2067</ele>
        <time>2020-07-07T11:22:59.000Z</time>
      </trkpt>
      <trkpt lat="44.39343" lon="6.4066">
        <ele>2067</ele>
        <time>2020-07-07T11:23:00.000Z</time>
      </trkpt>
      <trkpt lat="44.39342" lon="6.4066">
        <ele>2067</ele>
        <time>2020-07-07T11:23:01.000Z</time>
      </trkpt>
      <trkpt lat="44.39341" lon="6.4066">
        <ele>2067</ele>
        <time>2020-07-07T11:23:02.000Z</time>
      </trkpt>
      <trkpt lat="44.3934" lon="6.40661">
        <ele>2067</ele>
        <time>2020-07-07T11:23:03.000Z</time>
      </trkpt>
      <trkpt lat="44.39339" lon="6.40661">
        <ele>2067</ele>
        <time>2020-07-07T11:23:04.000Z</time>
      </trkpt>
      <trkpt lat="44.39338" lon="6.40661">
        <ele>2067</ele>
        <time>2020-07-07T11:23:05.000Z</time>
      </trkpt>
      <trkpt lat="44.39336" lon="6.40662">
        <ele>2067</ele>
        <time>2020-07-07T11:23:06.000Z</time>
      </trkpt>
      <trkpt lat="44.39335" lon="6.40662">
        <ele>2066</ele>
        <time>2020-07-07T11:23:07.000Z</time>
      </trkpt>
      <trkpt lat="44.39334" lon="6.40662">
        <ele>2066</ele>
        <time>2020-07-07T11:23:08.000Z</time>
      </trkpt>
      <trkpt lat="44.39333" lon="6.40662">
        <ele>2066</ele>
        <time>2020-07-07T11:23:09.000Z</time>
      </trkpt>
      <trkpt lat="44.39332" lon="6.40662">
        <ele>2066</ele>
        <time>2020-07-07T11:23:10.000Z</time>
      </trkpt>
      <trkpt lat="44.39331" lon="6.40662">
        <ele>2066</ele>
        <time>2020-07-07T11:23:11.000Z</time>
      </trkpt>
      <trkpt lat="44.3933" lon="6.40662">
        <ele>2066</ele>
        <time>2020-07-07T11:23:12.000Z</time>
      </trkpt>
      <trkpt lat="44.39329" lon="6.40661">
        <ele>2066</ele>
        <time>2020-07-07T11:23:13.000Z</time>
      </trkpt>
      <trkpt lat="44.39328" lon="6.40661">
        <ele>2066</ele>
        <time>2020-07-07T11:23:14.000Z</time>
      </trkpt>
      <trkpt lat="44.39326" lon="6.40661">
        <ele>2066</ele>
        <time>2020-07-07T11:23:15.000Z</time>
      </trkpt>
      <trkpt lat="44.39325" lon="6.4066">
        <ele>2066</ele>
        <time>2020-07-07T11:23:16.000Z</time>
      </trkpt>
      <trkpt lat="44.39324" lon="6.4066">
        <ele>2066</ele>
        <time>2020-07-07T11:23:17.000Z</time>
      </trkpt>
      <trkpt lat="44.39323" lon="6.4066">
        <ele>2066</ele>
        <time>2020-07-07T11:23:18.000Z</time>
      </trkpt>
      <trkpt lat="44.39322" lon="6.4066">
        <ele>2066</ele>
        <time>2020-07-07T11:23:19.000Z</time>
      </trkpt>
      <trkpt lat="44.39321" lon="6.4066">
        <ele>2066</ele>
        <time>2020-07-07T11:23:20.000Z</time>
      </trkpt>
      <trkpt lat="44.3932" lon="6.4066">
        <ele>2066</ele>
        <time>2020-07-07T11:23:21.000Z</time>
      </trkpt>
      <trkpt lat="44.39319" lon="6.4066">
        <ele>2066</ele>
        <time>2020-07-07T11:23:22.000Z</time>
      </trkpt>
      <trkpt lat="44.39318" lon="6.4066">
        <ele>2066</ele>
        <time>2020-07-07T11:23:23.000Z</time>
      </trkpt>
      <trkpt lat="44.39317" lon="6.4066">
        <ele>2066</ele>
        <time>2020-07-07T11:23:24.000Z</time>
      </trkpt>
      <trkpt lat="44.39316" lon="6.4066">
        <ele>2066</ele>
        <time>2020-07-07T11:23:25.000Z</time>
      </trkpt>
      <trkpt lat="44.39315" lon="6.4066">
        <ele>2066</ele>
        <time>2020-07-07T11:23:26.000Z</time>
      </trkpt>
      <trkpt lat="44.39313" lon="6.40661">
        <ele>2066</ele>
        <time>2020-07-07T11:23:27.000Z</time>
      </trkpt>
      <trkpt lat="44.39312" lon="6.40661">
        <ele>2066</ele>
        <time>2020-07-07T11:23:28.000Z</time>
      </trkpt>
      <trkpt lat="44.39311" lon="6.40662">
        <ele>2066</ele>
        <time>2020-07-07T11:23:29.000Z</time>
      </trkpt>
      <trkpt lat="44.3931" lon="6.40663">
        <ele>2066</ele>
        <time>2020-07-07T11:23:30.000Z</time>
      </trkpt>
      <trkpt lat="44.39309" lon="6.40663">
        <ele>2066</ele>
        <time>2020-07-07T11:23:31.000Z</time>
      </trkpt>
      <trkpt lat="44.39308" lon="6.40663">
        <ele>2066</ele>
        <time>2020-07-07T11:23:32.000Z</time>
      </trkpt>
      <trkpt lat="44.39307" lon="6.40664">
        <ele>2066</ele>
        <time>2020-07-07T11:23:33.000Z</time>
      </trkpt>
      <trkpt lat="44.39305" lon="6.40664">
        <ele>2066</ele>
        <time>2020-07-07T11:23:34.000Z</time>
      </trkpt>
      <trkpt lat="44.39304" lon="6.40665">
        <ele>2066</ele>
        <time>2020-07-07T11:23:35.000Z</time>
      </trkpt>
      <trkpt lat="44.39303" lon="6.40665">
        <ele>2066</ele>
        <time>2020-07-07T11:23:36.000Z</time>
      </trkpt>
      <trkpt lat="44.39302" lon="6.40665">
        <ele>2066</ele>
        <time>2020-07-07T11:23:37.000Z</time>
      </trkpt>
      <trkpt lat="44.39301" lon="6.40666">
        <ele>2066</ele>
        <time>2020-07-07T11:23:38.000Z</time>
      </trkpt>
      <trkpt lat="44.393" lon="6.40666">
        <ele>2066</ele>
        <time>2020-07-07T11:23:39.000Z</time>
      </trkpt>
      <trkpt lat="44.39298" lon="6.40666">
        <ele>2066</ele>
        <time>2020-07-07T11:23:40.000Z</time>
      </trkpt>
      <trkpt lat="44.39297" lon="6.40667">
        <ele>2066</ele>
        <time>2020-07-07T11:23:41.000Z</time>
      </trkpt>
      <trkpt lat="44.39296" lon="6.40667">
        <ele>2066</ele>
        <time>2020-07-07T11:23:42.000Z</time>
      </trkpt>
      <trkpt lat="44.39295" lon="6.40667">
        <ele>2066</ele>
        <time>2020-07-07T11:23:43.000Z</time>
      </trkpt>
      <trkpt lat="44.39294" lon="6.40667">
        <ele>2066</ele>
        <time>2020-07-07T11:23:44.000Z</time>
      </trkpt>
      <trkpt lat="44.39293" lon="6.40667">
        <ele>2066</ele>
        <time>2020-07-07T11:23:45.000Z</time>
      </trkpt>
      <trkpt lat="44.39292" lon="6.40667">
        <ele>2066</ele>
        <time>2020-07-07T11:23:46.000Z</time>
      </trkpt>
      <trkpt lat="44.39291" lon="6.40667">
        <ele>2066</ele>
        <time>2020-07-07T11:23:47.000Z</time>
      </trkpt>
      <trkpt lat="44.3929" lon="6.40667">
        <ele>2066</ele>
        <time>2020-07-07T11:23:48.000Z</time>
      </trkpt>
      <trkpt lat="44.39288" lon="6.40667">
        <ele>2065</ele>
        <time>2020-07-07T11:23:49.000Z</time>
      </trkpt>
      <trkpt lat="44.39287" lon="6.40667">
        <ele>2065</ele>
        <time>2020-07-07T11:23:50.000Z</time>
      </trkpt>
      <trkpt lat="44.39286" lon="6.40667">
        <ele>2065</ele>
        <time>2020-07-07T11:23:51.000Z</time>
      </trkpt>
      <trkpt lat="44.39285" lon="6.40667">
        <ele>2065</ele>
        <time>2020-07-07T11:23:52.000Z</time>
      </trkpt>
      <trkpt lat="44.39284" lon="6.40667">
        <ele>2065</ele>
        <time>2020-07-07T11:23:53.000Z</time>
      </trkpt>
      <trkpt lat="44.39283" lon="6.40667">
        <ele>2065</ele>
        <time>2020-07-07T11:23:54.000Z</time>
      </trkpt>
      <trkpt lat="44.39282" lon="6.40667">
        <ele>2065</ele>
        <time>2020-07-07T11:23:55.000Z</time>
      </trkpt>
      <trkpt lat="44.39281" lon="6.40667">
        <ele>2066</ele>
        <time>2020-07-07T11:23:56.000Z</time>
      </trkpt>
      <trkpt lat="44.3928" lon="6.40667">
        <ele>2065</ele>
        <time>2020-07-07T11:23:57.000Z</time>
      </trkpt>
      <trkpt lat="44.39279" lon="6.40667">
        <ele>2065</ele>
        <time>2020-07-07T11:23:58.000Z</time>
      </trkpt>
      <trkpt lat="44.39278" lon="6.40667">
        <ele>2066</ele>
        <time>2020-07-07T11:23:59.000Z</time>
      </trkpt>
      <trkpt lat="44.39277" lon="6.40667">
        <ele>2065</ele>
        <time>2020-07-07T11:24:00.000Z</time>
      </trkpt>
      <trkpt lat="44.39276" lon="6.40667">
        <ele>2065</ele>
        <time>2020-07-07T11:24:01.000Z</time>
      </trkpt>
      <trkpt lat="44.39275" lon="6.40667">
        <ele>2065</ele>
        <time>2020-07-07T11:24:02.000Z</time>
      </trkpt>
      <trkpt lat="44.39274" lon="6.40666">
        <ele>2065</ele>
        <time>2020-07-07T11:24:03.000Z</time>
      </trkpt>
      <trkpt lat="44.39273" lon="6.40666">
        <ele>2066</ele>
        <time>2020-07-07T11:24:04.000Z</time>
      </trkpt>
      <trkpt lat="44.39272" lon="6.40666">
        <ele>2066</ele>
        <time>2020-07-07T11:24:05.000Z</time>
      </trkpt>
      <trkpt lat="44.39271" lon="6.40666">
        <ele>2066</ele>
        <time>2020-07-07T11:24:06.000Z</time>
      </trkpt>
      <trkpt lat="44.3927" lon="6.40666">
        <ele>2066</ele>
        <time>2020-07-07T11:24:07.000Z</time>
      </trkpt>
      <trkpt lat="44.39269" lon="6.40666">
        <ele>2066</ele>
        <time>2020-07-07T11:24:08.000Z</time>
      </trkpt>
      <trkpt lat="44.39268" lon="6.40666">
        <ele>2066</ele>
        <time>2020-07-07T11:24:09.000Z</time>
      </trkpt>
      <trkpt lat="44.39267" lon="6.40666">
        <ele>2066</ele>
        <time>2020-07-07T11:24:10.000Z</time>
      </trkpt>
      <trkpt lat="44.39266" lon="6.40665">
        <ele>2066</ele>
        <time>2020-07-07T11:24:11.000Z</time>
      </trkpt>
      <trkpt lat="44.39266" lon="6.40665">
        <ele>2066</ele>
        <time>2020-07-07T11:24:12.000Z</time>
      </trkpt>
      <trkpt lat="44.39265" lon="6.40665">
        <ele>2066</ele>
        <time>2020-07-07T11:24:13.000Z</time>
      </trkpt>
      <trkpt lat="44.39264" lon="6.40665">
        <ele>2066</ele>
        <time>2020-07-07T11:24:14.000Z</time>
      </trkpt>
      <trkpt lat="44.39263" lon="6.40665">
        <ele>2067</ele>
        <time>2020-07-07T11:24:15.000Z</time>
      </trkpt>
      <trkpt lat="44.39262" lon="6.40665">
        <ele>2067</ele>
        <time>2020-07-07T11:24:16.000Z</time>
      </trkpt>
      <trkpt lat="44.39261" lon="6.40665">
        <ele>2067</ele>
        <time>2020-07-07T11:24:17.000Z</time>
      </trkpt>
      <trkpt lat="44.39261" lon="6.40665">
        <ele>2067</ele>
        <time>2020-07-07T11:24:18.000Z</time>
      </trkpt>
      <trkpt lat="44.3926" lon="6.40665">
        <ele>2067</ele>
        <time>2020-07-07T11:24:19.000Z</time>
      </trkpt>
      <trkpt lat="44.39259" lon="6.40664">
        <ele>2068</ele>
        <time>2020-07-07T11:24:20.000Z</time>
      </trkpt>
      <trkpt lat="44.39258" lon="6.40663">
        <ele>2068</ele>
        <time>2020-07-07T11:24:21.000Z</time>
      </trkpt>
      <trkpt lat="44.39257" lon="6.40663">
        <ele>2068</ele>
        <time>2020-07-07T11:24:22.000Z</time>
      </trkpt>
      <trkpt lat="44.39257" lon="6.40662">
        <ele>2068</ele>
        <time>2020-07-07T11:24:23.000Z</time>
      </trkpt>
      <trkpt lat="44.39256" lon="6.40661">
        <ele>2068</ele>
        <time>2020-07-07T11:24:24.000Z</time>
      </trkpt>
      <trkpt lat="44.39256" lon="6.4066">
        <ele>2068</ele>
        <time>2020-07-07T11:24:25.000Z</time>
      </trkpt>
      <trkpt lat="44.39255" lon="6.4066">
        <ele>2068</ele>
        <time>2020-07-07T11:24:26.000Z</time>
      </trkpt>
      <trkpt lat="44.39255" lon="6.40659">
        <ele>2069</ele>
        <time>2020-07-07T11:24:27.000Z</time>
      </trkpt>
      <trkpt lat="44.39255" lon="6.40659">
        <ele>2069</ele>
        <time>2020-07-07T11:24:28.000Z</time>
      </trkpt>
      <trkpt lat="44.39255" lon="6.40658">
        <ele>2069</ele>
        <time>2020-07-07T11:24:29.000Z</time>
      </trkpt>
      <trkpt lat="44.39254" lon="6.40657">
        <ele>2069</ele>
        <time>2020-07-07T11:24:30.000Z</time>
      </trkpt>
      <trkpt lat="44.39254" lon="6.40656">
        <ele>2069</ele>
        <time>2020-07-07T11:24:31.000Z</time>
      </trkpt>
      <trkpt lat="44.39253" lon="6.40655">
        <ele>2069</ele>
        <time>2020-07-07T11:24:32.000Z</time>
      </trkpt>
      <trkpt lat="44.39253" lon="6.40654">
        <ele>2069</ele>
        <time>2020-07-07T11:24:33.000Z</time>
      </trkpt>
      <trkpt lat="44.39252" lon="6.40653">
        <ele>2069</ele>
        <time>2020-07-07T11:24:34.000Z</time>
      </trkpt>
      <trkpt lat="44.39252" lon="6.40653">
        <ele>2069</ele>
        <time>2020-07-07T11:24:35.000Z</time>
      </trkpt>
      <trkpt lat="44.39251" lon="6.40652">
        <ele>2069</ele>
        <time>2020-07-07T11:24:36.000Z</time>
      </trkpt>
      <trkpt lat="44.39251" lon="6.40651">
        <ele>2069</ele>
        <time>2020-07-07T11:24:37.000Z</time>
      </trkpt>
      <trkpt lat="44.3925" lon="6.4065">
        <ele>2069</ele>
        <time>2020-07-07T11:24:38.000Z</time>
      </trkpt>
      <trkpt lat="44.3925" lon="6.4065">
        <ele>2069</ele>
        <time>2020-07-07T11:24:39.000Z</time>
      </trkpt>
      <trkpt lat="44.39249" lon="6.40649">
        <ele>2069</ele>
        <time>2020-07-07T11:24:40.000Z</time>
      </trkpt>
      <trkpt lat="44.39249" lon="6.40648">
        <ele>2069</ele>
        <time>2020-07-07T11:24:41.000Z</time>
      </trkpt>
      <trkpt lat="44.39248" lon="6.40647">
        <ele>2069</ele>
        <time>2020-07-07T11:24:42.000Z</time>
      </trkpt>
      <trkpt lat="44.39247" lon="6.40647">
        <ele>2069</ele>
        <time>2020-07-07T11:24:43.000Z</time>
      </trkpt>
      <trkpt lat="44.39247" lon="6.40646">
        <ele>2069</ele>
        <time>2020-07-07T11:24:44.000Z</time>
      </trkpt>
      <trkpt lat="44.39246" lon="6.40646">
        <ele>2069</ele>
        <time>2020-07-07T11:24:45.000Z</time>
      </trkpt>
      <trkpt lat="44.39245" lon="6.40645">
        <ele>2069</ele>
        <time>2020-07-07T11:24:46.000Z</time>
      </trkpt>
      <trkpt lat="44.39244" lon="6.40645">
        <ele>2069</ele>
        <time>2020-07-07T11:24:47.000Z</time>
      </trkpt>
      <trkpt lat="44.39243" lon="6.40644">
        <ele>2069</ele>
        <time>2020-07-07T11:24:48.000Z</time>
      </trkpt>
      <trkpt lat="44.39242" lon="6.40644">
        <ele>2069</ele>
        <time>2020-07-07T11:24:49.000Z</time>
      </trkpt>
      <trkpt lat="44.39241" lon="6.40643">
        <ele>2069</ele>
        <time>2020-07-07T11:24:50.000Z</time>
      </trkpt>
      <trkpt lat="44.39241" lon="6.40642">
        <ele>2069</ele>
        <time>2020-07-07T11:24:51.000Z</time>
      </trkpt>
      <trkpt lat="44.3924" lon="6.40642">
        <ele>2069</ele>
        <time>2020-07-07T11:24:52.000Z</time>
      </trkpt>
      <trkpt lat="44.39239" lon="6.40641">
        <ele>2069</ele>
        <time>2020-07-07T11:24:53.000Z</time>
      </trkpt>
      <trkpt lat="44.39238" lon="6.40641">
        <ele>2069</ele>
        <time>2020-07-07T11:24:54.000Z</time>
      </trkpt>
      <trkpt lat="44.39238" lon="6.4064">
        <ele>2070</ele>
        <time>2020-07-07T11:24:55.000Z</time>
      </trkpt>
      <trkpt lat="44.39236" lon="6.4064">
        <ele>2070</ele>
        <time>2020-07-07T11:24:56.000Z</time>
      </trkpt>
      <trkpt lat="44.39235" lon="6.4064">
        <ele>2070</ele>
        <time>2020-07-07T11:24:57.000Z</time>
      </trkpt>
      <trkpt lat="44.39234" lon="6.4064">
        <ele>2070</ele>
        <time>2020-07-07T11:24:58.000Z</time>
      </trkpt>
      <trkpt lat="44.39233" lon="6.4064">
        <ele>2070</ele>
        <time>2020-07-07T11:24:59.000Z</time>
      </trkpt>
      <trkpt lat="44.39232" lon="6.40639">
        <ele>2070</ele>
        <time>2020-07-07T11:25:00.000Z</time>
      </trkpt>
      <trkpt lat="44.39231" lon="6.40639">
        <ele>2070</ele>
        <time>2020-07-07T11:25:01.000Z</time>
      </trkpt>
      <trkpt lat="44.3923" lon="6.40638">
        <ele>2070</ele>
        <time>2020-07-07T11:25:02.000Z</time>
      </trkpt>
      <trkpt lat="44.3923" lon="6.40638">
        <ele>2070</ele>
        <time>2020-07-07T11:25:03.000Z</time>
      </trkpt>
      <trkpt lat="44.39229" lon="6.40637">
        <ele>2070</ele>
        <time>2020-07-07T11:25:04.000Z</time>
      </trkpt>
      <trkpt lat="44.39228" lon="6.40636">
        <ele>2070</ele>
        <time>2020-07-07T11:25:05.000Z</time>
      </trkpt>
      <trkpt lat="44.39227" lon="6.40635">
        <ele>2070</ele>
        <time>2020-07-07T11:25:06.000Z</time>
      </trkpt>
      <trkpt lat="44.39226" lon="6.40635">
        <ele>2070</ele>
        <time>2020-07-07T11:25:07.000Z</time>
      </trkpt>
      <trkpt lat="44.39225" lon="6.40634">
        <ele>2070</ele>
        <time>2020-07-07T11:25:08.000Z</time>
      </trkpt>
      <trkpt lat="44.39224" lon="6.40633">
        <ele>2070</ele>
        <time>2020-07-07T11:25:09.000Z</time>
      </trkpt>
      <trkpt lat="44.39223" lon="6.40632">
        <ele>2070</ele>
        <time>2020-07-07T11:25:10.000Z</time>
      </trkpt>
      <trkpt lat="44.39222" lon="6.40631">
        <ele>2070</ele>
        <time>2020-07-07T11:25:11.000Z</time>
      </trkpt>
      <trkpt lat="44.39221" lon="6.40631">
        <ele>2070</ele>
        <time>2020-07-07T11:25:12.000Z</time>
      </trkpt>
      <trkpt lat="44.39221" lon="6.40629">
        <ele>2070</ele>
        <time>2020-07-07T11:25:13.000Z</time>
      </trkpt>
      <trkpt lat="44.3922" lon="6.40629">
        <ele>2071</ele>
        <time>2020-07-07T11:25:14.000Z</time>
      </trkpt>
      <trkpt lat="44.3922" lon="6.40628">
        <ele>2071</ele>
        <time>2020-07-07T11:25:15.000Z</time>
      </trkpt>
      <trkpt lat="44.39219" lon="6.40627">
        <ele>2070</ele>
        <time>2020-07-07T11:25:16.000Z</time>
      </trkpt>
      <trkpt lat="44.39219" lon="6.40626">
        <ele>2071</ele>
        <time>2020-07-07T11:25:17.000Z</time>
      </trkpt>
      <trkpt lat="44.39218" lon="6.40625">
        <ele>2071</ele>
        <time>2020-07-07T11:25:18.000Z</time>
      </trkpt>
      <trkpt lat="44.39218" lon="6.40624">
        <ele>2071</ele>
        <time>2020-07-07T11:25:19.000Z</time>
      </trkpt>
      <trkpt lat="44.39217" lon="6.40623">
        <ele>2071</ele>
        <time>2020-07-07T11:25:20.000Z</time>
      </trkpt>
      <trkpt lat="44.39216" lon="6.40622">
        <ele>2071</ele>
        <time>2020-07-07T11:25:21.000Z</time>
      </trkpt>
      <trkpt lat="44.39216" lon="6.40621">
        <ele>2071</ele>
        <time>2020-07-07T11:25:22.000Z</time>
      </trkpt>
      <trkpt lat="44.39215" lon="6.4062">
        <ele>2071</ele>
        <time>2020-07-07T11:25:23.000Z</time>
      </trkpt>
      <trkpt lat="44.39215" lon="6.40619">
        <ele>2071</ele>
        <time>2020-07-07T11:25:24.000Z</time>
      </trkpt>
      <trkpt lat="44.39214" lon="6.40618">
        <ele>2071</ele>
        <time>2020-07-07T11:25:25.000Z</time>
      </trkpt>
      <trkpt lat="44.39214" lon="6.40616">
        <ele>2071</ele>
        <time>2020-07-07T11:25:26.000Z</time>
      </trkpt>
      <trkpt lat="44.39214" lon="6.40615">
        <ele>2071</ele>
        <time>2020-07-07T11:25:27.000Z</time>
      </trkpt>
      <trkpt lat="44.39213" lon="6.40614">
        <ele>2071</ele>
        <time>2020-07-07T11:25:28.000Z</time>
      </trkpt>
      <trkpt lat="44.39213" lon="6.40613">
        <ele>2071</ele>
        <time>2020-07-07T11:25:29.000Z</time>
      </trkpt>
      <trkpt lat="44.39212" lon="6.40612">
        <ele>2071</ele>
        <time>2020-07-07T11:25:30.000Z</time>
      </trkpt>
      <trkpt lat="44.39212" lon="6.40611">
        <ele>2071</ele>
        <time>2020-07-07T11:25:31.000Z</time>
      </trkpt>
      <trkpt lat="44.39211" lon="6.4061">
        <ele>2071</ele>
        <time>2020-07-07T11:25:32.000Z</time>
      </trkpt>
      <trkpt lat="44.39211" lon="6.40609">
        <ele>2071</ele>
        <time>2020-07-07T11:25:33.000Z</time>
      </trkpt>
      <trkpt lat="44.3921" lon="6.40608">
        <ele>2071</ele>
        <time>2020-07-07T11:25:34.000Z</time>
      </trkpt>
      <trkpt lat="44.3921" lon="6.40608">
        <ele>2071</ele>
        <time>2020-07-07T11:25:35.000Z</time>
      </trkpt>
      <trkpt lat="44.39209" lon="6.40607">
        <ele>2071</ele>
        <time>2020-07-07T11:25:36.000Z</time>
      </trkpt>
      <trkpt lat="44.39208" lon="6.40606">
        <ele>2071</ele>
        <time>2020-07-07T11:25:37.000Z</time>
      </trkpt>
      <trkpt lat="44.39208" lon="6.40605">
        <ele>2071</ele>
        <time>2020-07-07T11:25:38.000Z</time>
      </trkpt>
      <trkpt lat="44.39207" lon="6.40604">
        <ele>2071</ele>
        <time>2020-07-07T11:25:39.000Z</time>
      </trkpt>
      <trkpt lat="44.39206" lon="6.40603">
        <ele>2071</ele>
        <time>2020-07-07T11:25:40.000Z</time>
      </trkpt>
      <trkpt lat="44.39206" lon="6.40603">
        <ele>2071</ele>
        <time>2020-07-07T11:25:41.000Z</time>
      </trkpt>
      <trkpt lat="44.39205" lon="6.40602">
        <ele>2071</ele>
        <time>2020-07-07T11:25:42.000Z</time>
      </trkpt>
      <trkpt lat="44.39204" lon="6.40601">
        <ele>2072</ele>
        <time>2020-07-07T11:25:43.000Z</time>
      </trkpt>
      <trkpt lat="44.39204" lon="6.40601">
        <ele>2072</ele>
        <time>2020-07-07T11:25:44.000Z</time>
      </trkpt>
      <trkpt lat="44.39203" lon="6.406">
        <ele>2072</ele>
        <time>2020-07-07T11:25:45.000Z</time>
      </trkpt>
      <trkpt lat="44.39202" lon="6.406">
        <ele>2072</ele>
        <time>2020-07-07T11:25:46.000Z</time>
      </trkpt>
      <trkpt lat="44.39202" lon="6.40599">
        <ele>2072</ele>
        <time>2020-07-07T11:25:47.000Z</time>
      </trkpt>
      <trkpt lat="44.39201" lon="6.40598">
        <ele>2072</ele>
        <time>2020-07-07T11:25:48.000Z</time>
      </trkpt>
      <trkpt lat="44.392" lon="6.40597">
        <ele>2072</ele>
        <time>2020-07-07T11:25:49.000Z</time>
      </trkpt>
      <trkpt lat="44.392" lon="6.40597">
        <ele>2072</ele>
        <time>2020-07-07T11:25:50.000Z</time>
      </trkpt>
      <trkpt lat="44.39199" lon="6.40596">
        <ele>2072</ele>
        <time>2020-07-07T11:25:51.000Z</time>
      </trkpt>
      <trkpt lat="44.39199" lon="6.40595">
        <ele>2073</ele>
        <time>2020-07-07T11:25:52.000Z</time>
      </trkpt>
      <trkpt lat="44.39199" lon="6.40594">
        <ele>2073</ele>
        <time>2020-07-07T11:25:53.000Z</time>
      </trkpt>
      <trkpt lat="44.39198" lon="6.40593">
        <ele>2073</ele>
        <time>2020-07-07T11:25:54.000Z</time>
      </trkpt>
      <trkpt lat="44.39198" lon="6.40593">
        <ele>2073</ele>
        <time>2020-07-07T11:25:55.000Z</time>
      </trkpt>
      <trkpt lat="44.39197" lon="6.40592">
        <ele>2073</ele>
        <time>2020-07-07T11:25:56.000Z</time>
      </trkpt>
      <trkpt lat="44.39197" lon="6.40591">
        <ele>2073</ele>
        <time>2020-07-07T11:25:57.000Z</time>
      </trkpt>
      <trkpt lat="44.39197" lon="6.4059">
        <ele>2073</ele>
        <time>2020-07-07T11:25:58.000Z</time>
      </trkpt>
      <trkpt lat="44.39197" lon="6.40589">
        <ele>2073</ele>
        <time>2020-07-07T11:25:59.000Z</time>
      </trkpt>
      <trkpt lat="44.39197" lon="6.40588">
        <ele>2073</ele>
        <time>2020-07-07T11:26:00.000Z</time>
      </trkpt>
      <trkpt lat="44.39196" lon="6.40587">
        <ele>2073</ele>
        <time>2020-07-07T11:26:01.000Z</time>
      </trkpt>
      <trkpt lat="44.39196" lon="6.40586">
        <ele>2073</ele>
        <time>2020-07-07T11:26:02.000Z</time>
      </trkpt>
      <trkpt lat="44.39196" lon="6.40585">
        <ele>2073</ele>
        <time>2020-07-07T11:26:03.000Z</time>
      </trkpt>
      <trkpt lat="44.39196" lon="6.40584">
        <ele>2073</ele>
        <time>2020-07-07T11:26:04.000Z</time>
      </trkpt>
      <trkpt lat="44.39196" lon="6.40583">
        <ele>2073</ele>
        <time>2020-07-07T11:26:05.000Z</time>
      </trkpt>
      <trkpt lat="44.39195" lon="6.40582">
        <ele>2073</ele>
        <time>2020-07-07T11:26:06.000Z</time>
      </trkpt>
      <trkpt lat="44.39195" lon="6.40582">
        <ele>2073</ele>
        <time>2020-07-07T11:26:07.000Z</time>
      </trkpt>
      <trkpt lat="44.39195" lon="6.40581">
        <ele>2073</ele>
        <time>2020-07-07T11:26:08.000Z</time>
      </trkpt>
      <trkpt lat="44.39194" lon="6.4058">
        <ele>2073</ele>
        <time>2020-07-07T11:26:09.000Z</time>
      </trkpt>
      <trkpt lat="44.39194" lon="6.4058">
        <ele>2073</ele>
        <time>2020-07-07T11:26:10.000Z</time>
      </trkpt>
      <trkpt lat="44.39194" lon="6.40579">
        <ele>2073</ele>
        <time>2020-07-07T11:26:11.000Z</time>
      </trkpt>
      <trkpt lat="44.39194" lon="6.40578">
        <ele>2073</ele>
        <time>2020-07-07T11:26:12.000Z</time>
      </trkpt>
      <trkpt lat="44.39194" lon="6.40578">
        <ele>2073</ele>
        <time>2020-07-07T11:26:13.000Z</time>
      </trkpt>
      <trkpt lat="44.39193" lon="6.40577">
        <ele>2073</ele>
        <time>2020-07-07T11:26:14.000Z</time>
      </trkpt>
      <trkpt lat="44.39193" lon="6.40577">
        <ele>2073</ele>
        <time>2020-07-07T11:26:15.000Z</time>
      </trkpt>
      <trkpt lat="44.39193" lon="6.40576">
        <ele>2073</ele>
        <time>2020-07-07T11:26:16.000Z</time>
      </trkpt>
      <trkpt lat="44.39192" lon="6.40576">
        <ele>2073</ele>
        <time>2020-07-07T11:26:17.000Z</time>
      </trkpt>
      <trkpt lat="44.39192" lon="6.40575">
        <ele>2073</ele>
        <time>2020-07-07T11:26:18.000Z</time>
      </trkpt>
      <trkpt lat="44.39192" lon="6.40574">
        <ele>2074</ele>
        <time>2020-07-07T11:26:19.000Z</time>
      </trkpt>
      <trkpt lat="44.39191" lon="6.40574">
        <ele>2074</ele>
        <time>2020-07-07T11:26:20.000Z</time>
      </trkpt>
      <trkpt lat="44.39191" lon="6.40573">
        <ele>2074</ele>
        <time>2020-07-07T11:26:21.000Z</time>
      </trkpt>
      <trkpt lat="44.39191" lon="6.40573">
        <ele>2074</ele>
        <time>2020-07-07T11:26:22.000Z</time>
      </trkpt>
      <trkpt lat="44.3919" lon="6.40572">
        <ele>2074</ele>
        <time>2020-07-07T11:26:23.000Z</time>
      </trkpt>
      <trkpt lat="44.3919" lon="6.4057">
        <ele>2074</ele>
        <time>2020-07-07T11:26:24.000Z</time>
      </trkpt>
      <trkpt lat="44.3919" lon="6.40569">
        <ele>2074</ele>
        <time>2020-07-07T11:26:25.000Z</time>
      </trkpt>
      <trkpt lat="44.3919" lon="6.40568">
        <ele>2074</ele>
        <time>2020-07-07T11:26:26.000Z</time>
      </trkpt>
      <trkpt lat="44.3919" lon="6.40567">
        <ele>2075</ele>
        <time>2020-07-07T11:26:27.000Z</time>
      </trkpt>
      <trkpt lat="44.3919" lon="6.40566">
        <ele>2075</ele>
        <time>2020-07-07T11:26:28.000Z</time>
      </trkpt>
      <trkpt lat="44.3919" lon="6.40565">
        <ele>2075</ele>
        <time>2020-07-07T11:26:29.000Z</time>
      </trkpt>
      <trkpt lat="44.3919" lon="6.40565">
        <ele>2075</ele>
        <time>2020-07-07T11:26:30.000Z</time>
      </trkpt>
      <trkpt lat="44.3919" lon="6.40564">
        <ele>2075</ele>
        <time>2020-07-07T11:26:31.000Z</time>
      </trkpt>
      <trkpt lat="44.39189" lon="6.40564">
        <ele>2075</ele>
        <time>2020-07-07T11:26:32.000Z</time>
      </trkpt>
      <trkpt lat="44.39189" lon="6.40563">
        <ele>2075</ele>
        <time>2020-07-07T11:26:33.000Z</time>
      </trkpt>
      <trkpt lat="44.39189" lon="6.40562">
        <ele>2075</ele>
        <time>2020-07-07T11:26:34.000Z</time>
      </trkpt>
      <trkpt lat="44.3919" lon="6.40561">
        <ele>2075</ele>
        <time>2020-07-07T11:26:35.000Z</time>
      </trkpt>
      <trkpt lat="44.3919" lon="6.4056">
        <ele>2075</ele>
        <time>2020-07-07T11:26:36.000Z</time>
      </trkpt>
      <trkpt lat="44.3919" lon="6.40559">
        <ele>2075</ele>
        <time>2020-07-07T11:26:37.000Z</time>
      </trkpt>
      <trkpt lat="44.3919" lon="6.40559">
        <ele>2075</ele>
        <time>2020-07-07T11:26:38.000Z</time>
      </trkpt>
      <trkpt lat="44.3919" lon="6.40559">
        <ele>2075</ele>
        <time>2020-07-07T11:26:39.000Z</time>
      </trkpt>
      <trkpt lat="44.3919" lon="6.40559">
        <ele>2075</ele>
        <time>2020-07-07T11:26:40.000Z</time>
      </trkpt>
      <trkpt lat="44.3919" lon="6.40559">
        <ele>2075</ele>
        <time>2020-07-07T11:26:41.000Z</time>
      </trkpt>
      <trkpt lat="44.3919" lon="6.40559">
        <ele>2075</ele>
        <time>2020-07-07T11:26:42.000Z</time>
      </trkpt>
      <trkpt lat="44.3919" lon="6.40558">
        <ele>2075</ele>
        <time>2020-07-07T11:26:43.000Z</time>
      </trkpt>
      <trkpt lat="44.3919" lon="6.40557">
        <ele>2075</ele>
        <time>2020-07-07T11:26:44.000Z</time>
      </trkpt>
      <trkpt lat="44.39189" lon="6.40556">
        <ele>2075</ele>
        <time>2020-07-07T11:26:45.000Z</time>
      </trkpt>
      <trkpt lat="44.39189" lon="6.40556">
        <ele>2076</ele>
        <time>2020-07-07T11:26:46.000Z</time>
      </trkpt>
      <trkpt lat="44.39188" lon="6.40555">
        <ele>2076</ele>
        <time>2020-07-07T11:26:47.000Z</time>
      </trkpt>
      <trkpt lat="44.39187" lon="6.40555">
        <ele>2076</ele>
        <time>2020-07-07T11:26:48.000Z</time>
      </trkpt>
      <trkpt lat="44.39187" lon="6.40555">
        <ele>2076</ele>
        <time>2020-07-07T11:26:49.000Z</time>
      </trkpt>
      <trkpt lat="44.39186" lon="6.40554">
        <ele>2076</ele>
        <time>2020-07-07T11:26:50.000Z</time>
      </trkpt>
      <trkpt lat="44.39186" lon="6.40554">
        <ele>2076</ele>
        <time>2020-07-07T11:26:51.000Z</time>
      </trkpt>
      <trkpt lat="44.39186" lon="6.40553">
        <ele>2076</ele>
        <time>2020-07-07T11:26:52.000Z</time>
      </trkpt>
      <trkpt lat="44.39186" lon="6.40553">
        <ele>2076</ele>
        <time>2020-07-07T11:26:53.000Z</time>
      </trkpt>
      <trkpt lat="44.39186" lon="6.40553">
        <ele>2076</ele>
        <time>2020-07-07T11:26:54.000Z</time>
      </trkpt>
      <trkpt lat="44.39186" lon="6.40553">
        <ele>2077</ele>
        <time>2020-07-07T11:26:55.000Z</time>
      </trkpt>
      <trkpt lat="44.39185" lon="6.40553">
        <ele>2077</ele>
        <time>2020-07-07T11:26:56.000Z</time>
      </trkpt>
      <trkpt lat="44.39185" lon="6.40553">
        <ele>2077</ele>
        <time>2020-07-07T11:26:57.000Z</time>
      </trkpt>
      <trkpt lat="44.39185" lon="6.40553">
        <ele>2077</ele>
        <time>2020-07-07T11:26:58.000Z</time>
      </trkpt>
      <trkpt lat="44.39185" lon="6.40553">
        <ele>2077</ele>
        <time>2020-07-07T11:26:59.000Z</time>
      </trkpt>
      <trkpt lat="44.39185" lon="6.40553">
        <ele>2077</ele>
        <time>2020-07-07T11:27:00.000Z</time>
      </trkpt>
      <trkpt lat="44.39185" lon="6.40553">
        <ele>2077</ele>
        <time>2020-07-07T11:27:01.000Z</time>
      </trkpt>
      <trkpt lat="44.39184" lon="6.40553">
        <ele>2077</ele>
        <time>2020-07-07T11:27:02.000Z</time>
      </trkpt>
      <trkpt lat="44.39184" lon="6.40553">
        <ele>2077</ele>
        <time>2020-07-07T11:27:03.000Z</time>
      </trkpt>
      <trkpt lat="44.39184" lon="6.40554">
        <ele>2077</ele>
        <time>2020-07-07T11:27:04.000Z</time>
      </trkpt>
      <trkpt lat="44.39184" lon="6.40553">
        <ele>2077</ele>
        <time>2020-07-07T11:27:05.000Z</time>
      </trkpt>
      <trkpt lat="44.39184" lon="6.40553">
        <ele>2077</ele>
        <time>2020-07-07T11:27:06.000Z</time>
      </trkpt>
      <trkpt lat="44.39184" lon="6.40553">
        <ele>2077</ele>
        <time>2020-07-07T11:27:07.000Z</time>
      </trkpt>
      <trkpt lat="44.39184" lon="6.40553">
        <ele>2077</ele>
        <time>2020-07-07T11:27:08.000Z</time>
      </trkpt>
      <trkpt lat="44.39184" lon="6.40553">
        <ele>2077</ele>
        <time>2020-07-07T11:27:09.000Z</time>
      </trkpt>
      <trkpt lat="44.39184" lon="6.40553">
        <ele>2078</ele>
        <time>2020-07-07T11:27:10.000Z</time>
      </trkpt>
      <trkpt lat="44.39184" lon="6.40553">
        <ele>2078</ele>
        <time>2020-07-07T11:27:11.000Z</time>
      </trkpt>
      <trkpt lat="44.39184" lon="6.40553">
        <ele>2078</ele>
        <time>2020-07-07T11:27:12.000Z</time>
      </trkpt>
      <trkpt lat="44.39184" lon="6.40553">
        <ele>2078</ele>
        <time>2020-07-07T11:27:13.000Z</time>
      </trkpt>
      <trkpt lat="44.39184" lon="6.40553">
        <ele>2078</ele>
        <time>2020-07-07T11:27:14.000Z</time>
      </trkpt>
      <trkpt lat="44.39184" lon="6.40553">
        <ele>2078</ele>
        <time>2020-07-07T11:27:15.000Z</time>
      </trkpt>
      <trkpt lat="44.39184" lon="6.40553">
        <ele>2078</ele>
        <time>2020-07-07T11:27:16.000Z</time>
      </trkpt>
      <trkpt lat="44.39183" lon="6.40553">
        <ele>2078</ele>
        <time>2020-07-07T11:27:17.000Z</time>
      </trkpt>
      <trkpt lat="44.39182" lon="6.40552">
        <ele>2078</ele>
        <time>2020-07-07T11:27:18.000Z</time>
      </trkpt>
      <trkpt lat="44.39181" lon="6.40552">
        <ele>2078</ele>
        <time>2020-07-07T11:27:19.000Z</time>
      </trkpt>
      <trkpt lat="44.3918" lon="6.40552">
        <ele>2078</ele>
        <time>2020-07-07T11:27:20.000Z</time>
      </trkpt>
      <trkpt lat="44.3918" lon="6.40552">
        <ele>2078</ele>
        <time>2020-07-07T11:27:21.000Z</time>
      </trkpt>
      <trkpt lat="44.39179" lon="6.40551">
        <ele>2079</ele>
        <time>2020-07-07T11:27:22.000Z</time>
      </trkpt>
      <trkpt lat="44.39178" lon="6.4055">
        <ele>2079</ele>
        <time>2020-07-07T11:27:23.000Z</time>
      </trkpt>
      <trkpt lat="44.39177" lon="6.40549">
        <ele>2079</ele>
        <time>2020-07-07T11:27:24.000Z</time>
      </trkpt>
      <trkpt lat="44.39176" lon="6.40549">
        <ele>2079</ele>
        <time>2020-07-07T11:27:25.000Z</time>
      </trkpt>
      <trkpt lat="44.39175" lon="6.40549">
        <ele>2079</ele>
        <time>2020-07-07T11:27:26.000Z</time>
      </trkpt>
      <trkpt lat="44.39174" lon="6.40548">
        <ele>2079</ele>
        <time>2020-07-07T11:27:27.000Z</time>
      </trkpt>
      <trkpt lat="44.39173" lon="6.40548">
        <ele>2079</ele>
        <time>2020-07-07T11:27:28.000Z</time>
      </trkpt>
      <trkpt lat="44.39172" lon="6.40548">
        <ele>2079</ele>
        <time>2020-07-07T11:27:29.000Z</time>
      </trkpt>
      <trkpt lat="44.39171" lon="6.40547">
        <ele>2079</ele>
        <time>2020-07-07T11:27:30.000Z</time>
      </trkpt>
      <trkpt lat="44.3917" lon="6.40547">
        <ele>2080</ele>
        <time>2020-07-07T11:27:31.000Z</time>
      </trkpt>
      <trkpt lat="44.39169" lon="6.40546">
        <ele>2080</ele>
        <time>2020-07-07T11:27:32.000Z</time>
      </trkpt>
      <trkpt lat="44.39168" lon="6.40546">
        <ele>2080</ele>
        <time>2020-07-07T11:27:33.000Z</time>
      </trkpt>
      <trkpt lat="44.39167" lon="6.40545">
        <ele>2080</ele>
        <time>2020-07-07T11:27:34.000Z</time>
      </trkpt>
      <trkpt lat="44.39166" lon="6.40544">
        <ele>2080</ele>
        <time>2020-07-07T11:27:35.000Z</time>
      </trkpt>
      <trkpt lat="44.39165" lon="6.40544">
        <ele>2080</ele>
        <time>2020-07-07T11:27:36.000Z</time>
      </trkpt>
      <trkpt lat="44.39164" lon="6.40543">
        <ele>2080</ele>
        <time>2020-07-07T11:27:37.000Z</time>
      </trkpt>
      <trkpt lat="44.39163" lon="6.40542">
        <ele>2081</ele>
        <time>2020-07-07T11:27:38.000Z</time>
      </trkpt>
      <trkpt lat="44.39163" lon="6.40541">
        <ele>2081</ele>
        <time>2020-07-07T11:27:39.000Z</time>
      </trkpt>
      <trkpt lat="44.39162" lon="6.40541">
        <ele>2081</ele>
        <time>2020-07-07T11:27:40.000Z</time>
      </trkpt>
      <trkpt lat="44.39161" lon="6.4054">
        <ele>2081</ele>
        <time>2020-07-07T11:27:41.000Z</time>
      </trkpt>
      <trkpt lat="44.39161" lon="6.4054">
        <ele>2081</ele>
        <time>2020-07-07T11:27:42.000Z</time>
      </trkpt>
      <trkpt lat="44.3916" lon="6.40539">
        <ele>2081</ele>
        <time>2020-07-07T11:27:43.000Z</time>
      </trkpt>
      <trkpt lat="44.39159" lon="6.40538">
        <ele>2081</ele>
        <time>2020-07-07T11:27:44.000Z</time>
      </trkpt>
      <trkpt lat="44.39158" lon="6.40538">
        <ele>2081</ele>
        <time>2020-07-07T11:27:45.000Z</time>
      </trkpt>
      <trkpt lat="44.39157" lon="6.40538">
        <ele>2081</ele>
        <time>2020-07-07T11:27:46.000Z</time>
      </trkpt>
      <trkpt lat="44.39157" lon="6.40537">
        <ele>2081</ele>
        <time>2020-07-07T11:27:47.000Z</time>
      </trkpt>
      <trkpt lat="44.39156" lon="6.40538">
        <ele>2081</ele>
        <time>2020-07-07T11:27:48.000Z</time>
      </trkpt>
      <trkpt lat="44.39154" lon="6.40538">
        <ele>2081</ele>
        <time>2020-07-07T11:27:49.000Z</time>
      </trkpt>
      <trkpt lat="44.39153" lon="6.40538">
        <ele>2081</ele>
        <time>2020-07-07T11:27:50.000Z</time>
      </trkpt>
      <trkpt lat="44.39152" lon="6.40537">
        <ele>2081</ele>
        <time>2020-07-07T11:27:51.000Z</time>
      </trkpt>
      <trkpt lat="44.3915" lon="6.40538">
        <ele>2081</ele>
        <time>2020-07-07T11:27:52.000Z</time>
      </trkpt>
      <trkpt lat="44.3915" lon="6.40538">
        <ele>2081</ele>
        <time>2020-07-07T11:27:53.000Z</time>
      </trkpt>
      <trkpt lat="44.39149" lon="6.40539">
        <ele>2081</ele>
        <time>2020-07-07T11:27:54.000Z</time>
      </trkpt>
      <trkpt lat="44.39148" lon="6.40539">
        <ele>2081</ele>
        <time>2020-07-07T11:27:55.000Z</time>
      </trkpt>
      <trkpt lat="44.39146" lon="6.40539">
        <ele>2081</ele>
        <time>2020-07-07T11:27:56.000Z</time>
      </trkpt>
      <trkpt lat="44.39146" lon="6.4054">
        <ele>2081</ele>
        <time>2020-07-07T11:27:57.000Z</time>
      </trkpt>
      <trkpt lat="44.39145" lon="6.4054">
        <ele>2081</ele>
        <time>2020-07-07T11:27:58.000Z</time>
      </trkpt>
      <trkpt lat="44.39144" lon="6.4054">
        <ele>2081</ele>
        <time>2020-07-07T11:27:59.000Z</time>
      </trkpt>
      <trkpt lat="44.39143" lon="6.4054">
        <ele>2081</ele>
        <time>2020-07-07T11:28:00.000Z</time>
      </trkpt>
      <trkpt lat="44.39141" lon="6.40541">
        <ele>2081</ele>
        <time>2020-07-07T11:28:01.000Z</time>
      </trkpt>
      <trkpt lat="44.39141" lon="6.4054">
        <ele>2081</ele>
        <time>2020-07-07T11:28:02.000Z</time>
      </trkpt>
      <trkpt lat="44.3914" lon="6.4054">
        <ele>2081</ele>
        <time>2020-07-07T11:28:03.000Z</time>
      </trkpt>
      <trkpt lat="44.39139" lon="6.40541">
        <ele>2081</ele>
        <time>2020-07-07T11:28:04.000Z</time>
      </trkpt>
      <trkpt lat="44.39138" lon="6.4054">
        <ele>2081</ele>
        <time>2020-07-07T11:28:05.000Z</time>
      </trkpt>
      <trkpt lat="44.39137" lon="6.4054">
        <ele>2081</ele>
        <time>2020-07-07T11:28:06.000Z</time>
      </trkpt>
      <trkpt lat="44.39136" lon="6.4054">
        <ele>2081</ele>
        <time>2020-07-07T11:28:07.000Z</time>
      </trkpt>
      <trkpt lat="44.39136" lon="6.4054">
        <ele>2081</ele>
        <time>2020-07-07T11:28:08.000Z</time>
      </trkpt>
      <trkpt lat="44.39135" lon="6.4054">
        <ele>2081</ele>
        <time>2020-07-07T11:28:09.000Z</time>
      </trkpt>
      <trkpt lat="44.39134" lon="6.4054">
        <ele>2081</ele>
        <time>2020-07-07T11:28:10.000Z</time>
      </trkpt>
      <trkpt lat="44.39133" lon="6.4054">
        <ele>2081</ele>
        <time>2020-07-07T11:28:11.000Z</time>
      </trkpt>
      <trkpt lat="44.39132" lon="6.4054">
        <ele>2082</ele>
        <time>2020-07-07T11:28:12.000Z</time>
      </trkpt>
      <trkpt lat="44.39131" lon="6.4054">
        <ele>2082</ele>
        <time>2020-07-07T11:28:13.000Z</time>
      </trkpt>
      <trkpt lat="44.3913" lon="6.40539">
        <ele>2082</ele>
        <time>2020-07-07T11:28:14.000Z</time>
      </trkpt>
      <trkpt lat="44.39129" lon="6.40539">
        <ele>2082</ele>
        <time>2020-07-07T11:28:15.000Z</time>
      </trkpt>
      <trkpt lat="44.39128" lon="6.40539">
        <ele>2082</ele>
        <time>2020-07-07T11:28:16.000Z</time>
      </trkpt>
      <trkpt lat="44.39127" lon="6.40539">
        <ele>2082</ele>
        <time>2020-07-07T11:28:17.000Z</time>
      </trkpt>
      <trkpt lat="44.39126" lon="6.40539">
        <ele>2082</ele>
        <time>2020-07-07T11:28:18.000Z</time>
      </trkpt>
      <trkpt lat="44.39125" lon="6.40539">
        <ele>2082</ele>
        <time>2020-07-07T11:28:19.000Z</time>
      </trkpt>
      <trkpt lat="44.39124" lon="6.40539">
        <ele>2082</ele>
        <time>2020-07-07T11:28:20.000Z</time>
      </trkpt>
      <trkpt lat="44.39123" lon="6.40538">
        <ele>2082</ele>
        <time>2020-07-07T11:28:21.000Z</time>
      </trkpt>
      <trkpt lat="44.39122" lon="6.40538">
        <ele>2082</ele>
        <time>2020-07-07T11:28:22.000Z</time>
      </trkpt>
      <trkpt lat="44.39121" lon="6.40538">
        <ele>2083</ele>
        <time>2020-07-07T11:28:23.000Z</time>
      </trkpt>
      <trkpt lat="44.3912" lon="6.40537">
        <ele>2083</ele>
        <time>2020-07-07T11:28:24.000Z</time>
      </trkpt>
      <trkpt lat="44.3912" lon="6.40536">
        <ele>2083</ele>
        <time>2020-07-07T11:28:25.000Z</time>
      </trkpt>
      <trkpt lat="44.39119" lon="6.40535">
        <ele>2083</ele>
        <time>2020-07-07T11:28:26.000Z</time>
      </trkpt>
      <trkpt lat="44.39118" lon="6.40535">
        <ele>2083</ele>
        <time>2020-07-07T11:28:27.000Z</time>
      </trkpt>
      <trkpt lat="44.39118" lon="6.40535">
        <ele>2084</ele>
        <time>2020-07-07T11:28:28.000Z</time>
      </trkpt>
      <trkpt lat="44.39117" lon="6.40534">
        <ele>2084</ele>
        <time>2020-07-07T11:28:29.000Z</time>
      </trkpt>
      <trkpt lat="44.39116" lon="6.40532">
        <ele>2084</ele>
        <time>2020-07-07T11:28:30.000Z</time>
      </trkpt>
      <trkpt lat="44.39116" lon="6.40531">
        <ele>2084</ele>
        <time>2020-07-07T11:28:31.000Z</time>
      </trkpt>
      <trkpt lat="44.39115" lon="6.4053">
        <ele>2084</ele>
        <time>2020-07-07T11:28:32.000Z</time>
      </trkpt>
      <trkpt lat="44.39115" lon="6.40529">
        <ele>2085</ele>
        <time>2020-07-07T11:28:33.000Z</time>
      </trkpt>
      <trkpt lat="44.39114" lon="6.40527">
        <ele>2085</ele>
        <time>2020-07-07T11:28:34.000Z</time>
      </trkpt>
      <trkpt lat="44.39114" lon="6.40527">
        <ele>2085</ele>
        <time>2020-07-07T11:28:35.000Z</time>
      </trkpt>
      <trkpt lat="44.39114" lon="6.40526">
        <ele>2085</ele>
        <time>2020-07-07T11:28:36.000Z</time>
      </trkpt>
      <trkpt lat="44.39113" lon="6.40526">
        <ele>2085</ele>
        <time>2020-07-07T11:28:37.000Z</time>
      </trkpt>
      <trkpt lat="44.39113" lon="6.40525">
        <ele>2085</ele>
        <time>2020-07-07T11:28:38.000Z</time>
      </trkpt>
      <trkpt lat="44.39112" lon="6.40524">
        <ele>2085</ele>
        <time>2020-07-07T11:28:39.000Z</time>
      </trkpt>
      <trkpt lat="44.39112" lon="6.40524">
        <ele>2085</ele>
        <time>2020-07-07T11:28:40.000Z</time>
      </trkpt>
      <trkpt lat="44.39111" lon="6.40522">
        <ele>2085</ele>
        <time>2020-07-07T11:28:41.000Z</time>
      </trkpt>
      <trkpt lat="44.39111" lon="6.40521">
        <ele>2085</ele>
        <time>2020-07-07T11:28:42.000Z</time>
      </trkpt>
      <trkpt lat="44.39111" lon="6.4052">
        <ele>2085</ele>
        <time>2020-07-07T11:28:43.000Z</time>
      </trkpt>
      <trkpt lat="44.39111" lon="6.40519">
        <ele>2085</ele>
        <time>2020-07-07T11:28:44.000Z</time>
      </trkpt>
      <trkpt lat="44.3911" lon="6.40518">
        <ele>2085</ele>
        <time>2020-07-07T11:28:45.000Z</time>
      </trkpt>
      <trkpt lat="44.3911" lon="6.40517">
        <ele>2085</ele>
        <time>2020-07-07T11:28:46.000Z</time>
      </trkpt>
      <trkpt lat="44.39109" lon="6.40516">
        <ele>2086</ele>
        <time>2020-07-07T11:28:47.000Z</time>
      </trkpt>
      <trkpt lat="44.39109" lon="6.40513">
        <ele>2086</ele>
        <time>2020-07-07T11:28:48.000Z</time>
      </trkpt>
      <trkpt lat="44.39109" lon="6.40512">
        <ele>2086</ele>
        <time>2020-07-07T11:28:49.000Z</time>
      </trkpt>
      <trkpt lat="44.39109" lon="6.40511">
        <ele>2086</ele>
        <time>2020-07-07T11:28:50.000Z</time>
      </trkpt>
      <trkpt lat="44.39108" lon="6.40509">
        <ele>2086</ele>
        <time>2020-07-07T11:28:51.000Z</time>
      </trkpt>
      <trkpt lat="44.39108" lon="6.40508">
        <ele>2086</ele>
        <time>2020-07-07T11:28:52.000Z</time>
      </trkpt>
      <trkpt lat="44.39108" lon="6.40507">
        <ele>2086</ele>
        <time>2020-07-07T11:28:53.000Z</time>
      </trkpt>
      <trkpt lat="44.39108" lon="6.40505">
        <ele>2086</ele>
        <time>2020-07-07T11:28:54.000Z</time>
      </trkpt>
      <trkpt lat="44.39107" lon="6.40503">
        <ele>2086</ele>
        <time>2020-07-07T11:28:55.000Z</time>
      </trkpt>
      <trkpt lat="44.39107" lon="6.40502">
        <ele>2086</ele>
        <time>2020-07-07T11:28:56.000Z</time>
      </trkpt>
      <trkpt lat="44.39106" lon="6.40501">
        <ele>2086</ele>
        <time>2020-07-07T11:28:57.000Z</time>
      </trkpt>
      <trkpt lat="44.39106" lon="6.405">
        <ele>2085</ele>
        <time>2020-07-07T11:28:58.000Z</time>
      </trkpt>
      <trkpt lat="44.39106" lon="6.40499">
        <ele>2085</ele>
        <time>2020-07-07T11:28:59.000Z</time>
      </trkpt>
      <trkpt lat="44.39105" lon="6.40498">
        <ele>2085</ele>
        <time>2020-07-07T11:29:00.000Z</time>
      </trkpt>
      <trkpt lat="44.39105" lon="6.40497">
        <ele>2086</ele>
        <time>2020-07-07T11:29:01.000Z</time>
      </trkpt>
      <trkpt lat="44.39105" lon="6.40496">
        <ele>2086</ele>
        <time>2020-07-07T11:29:02.000Z</time>
      </trkpt>
      <trkpt lat="44.39104" lon="6.40493">
        <ele>2086</ele>
        <time>2020-07-07T11:29:03.000Z</time>
      </trkpt>
      <trkpt lat="44.39104" lon="6.40491">
        <ele>2086</ele>
        <time>2020-07-07T11:29:04.000Z</time>
      </trkpt>
      <trkpt lat="44.39104" lon="6.4049">
        <ele>2086</ele>
        <time>2020-07-07T11:29:05.000Z</time>
      </trkpt>
      <trkpt lat="44.39103" lon="6.40488">
        <ele>2086</ele>
        <time>2020-07-07T11:29:06.000Z</time>
      </trkpt>
      <trkpt lat="44.39103" lon="6.40486">
        <ele>2086</ele>
        <time>2020-07-07T11:29:07.000Z</time>
      </trkpt>
      <trkpt lat="44.39103" lon="6.40485">
        <ele>2086</ele>
        <time>2020-07-07T11:29:08.000Z</time>
      </trkpt>
      <trkpt lat="44.39103" lon="6.40484">
        <ele>2086</ele>
        <time>2020-07-07T11:29:09.000Z</time>
      </trkpt>
      <trkpt lat="44.39103" lon="6.40482">
        <ele>2086</ele>
        <time>2020-07-07T11:29:10.000Z</time>
      </trkpt>
      <trkpt lat="44.39103" lon="6.4048">
        <ele>2086</ele>
        <time>2020-07-07T11:29:11.000Z</time>
      </trkpt>
      <trkpt lat="44.39103" lon="6.40479">
        <ele>2086</ele>
        <time>2020-07-07T11:29:12.000Z</time>
      </trkpt>
      <trkpt lat="44.39103" lon="6.40478">
        <ele>2086</ele>
        <time>2020-07-07T11:29:13.000Z</time>
      </trkpt>
      <trkpt lat="44.39102" lon="6.40476">
        <ele>2086</ele>
        <time>2020-07-07T11:29:14.000Z</time>
      </trkpt>
      <trkpt lat="44.39102" lon="6.40474">
        <ele>2086</ele>
        <time>2020-07-07T11:29:15.000Z</time>
      </trkpt>
      <trkpt lat="44.39102" lon="6.40473">
        <ele>2086</ele>
        <time>2020-07-07T11:29:16.000Z</time>
      </trkpt>
      <trkpt lat="44.39101" lon="6.40471">
        <ele>2086</ele>
        <time>2020-07-07T11:29:17.000Z</time>
      </trkpt>
      <trkpt lat="44.39101" lon="6.40469">
        <ele>2086</ele>
        <time>2020-07-07T11:29:18.000Z</time>
      </trkpt>
      <trkpt lat="44.39101" lon="6.40467">
        <ele>2086</ele>
        <time>2020-07-07T11:29:19.000Z</time>
      </trkpt>
      <trkpt lat="44.39101" lon="6.40465">
        <ele>2086</ele>
        <time>2020-07-07T11:29:20.000Z</time>
      </trkpt>
      <trkpt lat="44.39101" lon="6.40464">
        <ele>2086</ele>
        <time>2020-07-07T11:29:21.000Z</time>
      </trkpt>
      <trkpt lat="44.391" lon="6.40463">
        <ele>2086</ele>
        <time>2020-07-07T11:29:22.000Z</time>
      </trkpt>
      <trkpt lat="44.39101" lon="6.40462">
        <ele>2086</ele>
        <time>2020-07-07T11:29:23.000Z</time>
      </trkpt>
      <trkpt lat="44.391" lon="6.4046">
        <ele>2086</ele>
        <time>2020-07-07T11:29:24.000Z</time>
      </trkpt>
      <trkpt lat="44.391" lon="6.40459">
        <ele>2086</ele>
        <time>2020-07-07T11:29:25.000Z</time>
      </trkpt>
      <trkpt lat="44.39101" lon="6.40458">
        <ele>2086</ele>
        <time>2020-07-07T11:29:26.000Z</time>
      </trkpt>
      <trkpt lat="44.39101" lon="6.40456">
        <ele>2086</ele>
        <time>2020-07-07T11:29:27.000Z</time>
      </trkpt>
      <trkpt lat="44.39101" lon="6.40456">
        <ele>2087</ele>
        <time>2020-07-07T11:29:28.000Z</time>
      </trkpt>
      <trkpt lat="44.39102" lon="6.40455">
        <ele>2087</ele>
        <time>2020-07-07T11:29:29.000Z</time>
      </trkpt>
      <trkpt lat="44.39102" lon="6.40455">
        <ele>2087</ele>
        <time>2020-07-07T11:29:30.000Z</time>
      </trkpt>
      <trkpt lat="44.39103" lon="6.40453">
        <ele>2087</ele>
        <time>2020-07-07T11:29:31.000Z</time>
      </trkpt>
      <trkpt lat="44.39103" lon="6.40452">
        <ele>2087</ele>
        <time>2020-07-07T11:29:32.000Z</time>
      </trkpt>
      <trkpt lat="44.39103" lon="6.40451">
        <ele>2087</ele>
        <time>2020-07-07T11:29:33.000Z</time>
      </trkpt>
      <trkpt lat="44.39103" lon="6.40449">
        <ele>2087</ele>
        <time>2020-07-07T11:29:34.000Z</time>
      </trkpt>
      <trkpt lat="44.39103" lon="6.40447">
        <ele>2087</ele>
        <time>2020-07-07T11:29:35.000Z</time>
      </trkpt>
      <trkpt lat="44.39103" lon="6.40445">
        <ele>2087</ele>
        <time>2020-07-07T11:29:36.000Z</time>
      </trkpt>
      <trkpt lat="44.39103" lon="6.40443">
        <ele>2087</ele>
        <time>2020-07-07T11:29:37.000Z</time>
      </trkpt>
      <trkpt lat="44.39103" lon="6.40441">
        <ele>2087</ele>
        <time>2020-07-07T11:29:38.000Z</time>
      </trkpt>
      <trkpt lat="44.39102" lon="6.4044">
        <ele>2087</ele>
        <time>2020-07-07T11:29:39.000Z</time>
      </trkpt>
      <trkpt lat="44.39102" lon="6.40438">
        <ele>2087</ele>
        <time>2020-07-07T11:29:40.000Z</time>
      </trkpt>
      <trkpt lat="44.39102" lon="6.40437">
        <ele>2087</ele>
        <time>2020-07-07T11:29:41.000Z</time>
      </trkpt>
      <trkpt lat="44.39102" lon="6.40435">
        <ele>2087</ele>
        <time>2020-07-07T11:29:42.000Z</time>
      </trkpt>
      <trkpt lat="44.39101" lon="6.40434">
        <ele>2087</ele>
        <time>2020-07-07T11:29:43.000Z</time>
      </trkpt>
      <trkpt lat="44.391" lon="6.40433">
        <ele>2086</ele>
        <time>2020-07-07T11:29:44.000Z</time>
      </trkpt>
      <trkpt lat="44.391" lon="6.40431">
        <ele>2086</ele>
        <time>2020-07-07T11:29:45.000Z</time>
      </trkpt>
      <trkpt lat="44.39099" lon="6.4043">
        <ele>2086</ele>
        <time>2020-07-07T11:29:46.000Z</time>
      </trkpt>
      <trkpt lat="44.39099" lon="6.40429">
        <ele>2086</ele>
        <time>2020-07-07T11:29:47.000Z</time>
      </trkpt>
      <trkpt lat="44.39098" lon="6.40428">
        <ele>2086</ele>
        <time>2020-07-07T11:29:48.000Z</time>
      </trkpt>
      <trkpt lat="44.39097" lon="6.40427">
        <ele>2086</ele>
        <time>2020-07-07T11:29:49.000Z</time>
      </trkpt>
      <trkpt lat="44.39096" lon="6.40426">
        <ele>2086</ele>
        <time>2020-07-07T11:29:50.000Z</time>
      </trkpt>
      <trkpt lat="44.39096" lon="6.40425">
        <ele>2085</ele>
        <time>2020-07-07T11:29:51.000Z</time>
      </trkpt>
      <trkpt lat="44.39094" lon="6.40424">
        <ele>2085</ele>
        <time>2020-07-07T11:29:52.000Z</time>
      </trkpt>
      <trkpt lat="44.39093" lon="6.40424">
        <ele>2085</ele>
        <time>2020-07-07T11:29:53.000Z</time>
      </trkpt>
      <trkpt lat="44.39092" lon="6.40424">
        <ele>2085</ele>
        <time>2020-07-07T11:29:54.000Z</time>
      </trkpt>
      <trkpt lat="44.39091" lon="6.40424">
        <ele>2085</ele>
        <time>2020-07-07T11:29:55.000Z</time>
      </trkpt>
      <trkpt lat="44.3909" lon="6.40424">
        <ele>2085</ele>
        <time>2020-07-07T11:29:56.000Z</time>
      </trkpt>
      <trkpt lat="44.39089" lon="6.40423">
        <ele>2085</ele>
        <time>2020-07-07T11:29:57.000Z</time>
      </trkpt>
      <trkpt lat="44.39088" lon="6.40422">
        <ele>2084</ele>
        <time>2020-07-07T11:29:58.000Z</time>
      </trkpt>
      <trkpt lat="44.39087" lon="6.40422">
        <ele>2084</ele>
        <time>2020-07-07T11:29:59.000Z</time>
      </trkpt>
      <trkpt lat="44.39086" lon="6.40422">
        <ele>2084</ele>
        <time>2020-07-07T11:30:00.000Z</time>
      </trkpt>
      <trkpt lat="44.39085" lon="6.40421">
        <ele>2084</ele>
        <time>2020-07-07T11:30:01.000Z</time>
      </trkpt>
      <trkpt lat="44.39084" lon="6.4042">
        <ele>2084</ele>
        <time>2020-07-07T11:30:02.000Z</time>
      </trkpt>
      <trkpt lat="44.39082" lon="6.4042">
        <ele>2084</ele>
        <time>2020-07-07T11:30:03.000Z</time>
      </trkpt>
      <trkpt lat="44.39081" lon="6.40419">
        <ele>2084</ele>
        <time>2020-07-07T11:30:04.000Z</time>
      </trkpt>
      <trkpt lat="44.39081" lon="6.40418">
        <ele>2084</ele>
        <time>2020-07-07T11:30:05.000Z</time>
      </trkpt>
      <trkpt lat="44.3908" lon="6.40418">
        <ele>2084</ele>
        <time>2020-07-07T11:30:06.000Z</time>
      </trkpt>
      <trkpt lat="44.39079" lon="6.40417">
        <ele>2084</ele>
        <time>2020-07-07T11:30:07.000Z</time>
      </trkpt>
      <trkpt lat="44.39078" lon="6.40417">
        <ele>2084</ele>
        <time>2020-07-07T11:30:08.000Z</time>
      </trkpt>
      <trkpt lat="44.39077" lon="6.40417">
        <ele>2084</ele>
        <time>2020-07-07T11:30:09.000Z</time>
      </trkpt>
      <trkpt lat="44.39076" lon="6.40416">
        <ele>2084</ele>
        <time>2020-07-07T11:30:10.000Z</time>
      </trkpt>
      <trkpt lat="44.39075" lon="6.40416">
        <ele>2084</ele>
        <time>2020-07-07T11:30:11.000Z</time>
      </trkpt>
      <trkpt lat="44.39073" lon="6.40416">
        <ele>2084</ele>
        <time>2020-07-07T11:30:12.000Z</time>
      </trkpt>
      <trkpt lat="44.39072" lon="6.40415">
        <ele>2084</ele>
        <time>2020-07-07T11:30:13.000Z</time>
      </trkpt>
      <trkpt lat="44.39071" lon="6.40414">
        <ele>2084</ele>
        <time>2020-07-07T11:30:14.000Z</time>
      </trkpt>
      <trkpt lat="44.3907" lon="6.40414">
        <ele>2084</ele>
        <time>2020-07-07T11:30:15.000Z</time>
      </trkpt>
      <trkpt lat="44.39069" lon="6.40413">
        <ele>2084</ele>
        <time>2020-07-07T11:30:16.000Z</time>
      </trkpt>
      <trkpt lat="44.39068" lon="6.40412">
        <ele>2084</ele>
        <time>2020-07-07T11:30:17.000Z</time>
      </trkpt>
      <trkpt lat="44.39067" lon="6.40411">
        <ele>2084</ele>
        <time>2020-07-07T11:30:18.000Z</time>
      </trkpt>
      <trkpt lat="44.39066" lon="6.4041">
        <ele>2084</ele>
        <time>2020-07-07T11:30:19.000Z</time>
      </trkpt>
      <trkpt lat="44.39065" lon="6.4041">
        <ele>2083</ele>
        <time>2020-07-07T11:30:20.000Z</time>
      </trkpt>
      <trkpt lat="44.39064" lon="6.40409">
        <ele>2083</ele>
        <time>2020-07-07T11:30:21.000Z</time>
      </trkpt>
      <trkpt lat="44.39063" lon="6.40408">
        <ele>2083</ele>
        <time>2020-07-07T11:30:22.000Z</time>
      </trkpt>
      <trkpt lat="44.39062" lon="6.40407">
        <ele>2083</ele>
        <time>2020-07-07T11:30:23.000Z</time>
      </trkpt>
      <trkpt lat="44.39061" lon="6.40407">
        <ele>2083</ele>
        <time>2020-07-07T11:30:24.000Z</time>
      </trkpt>
      <trkpt lat="44.3906" lon="6.40406">
        <ele>2083</ele>
        <time>2020-07-07T11:30:25.000Z</time>
      </trkpt>
      <trkpt lat="44.39059" lon="6.40405">
        <ele>2083</ele>
        <time>2020-07-07T11:30:26.000Z</time>
      </trkpt>
      <trkpt lat="44.39058" lon="6.40405">
        <ele>2083</ele>
        <time>2020-07-07T11:30:27.000Z</time>
      </trkpt>
      <trkpt lat="44.39057" lon="6.40404">
        <ele>2083</ele>
        <time>2020-07-07T11:30:28.000Z</time>
      </trkpt>
      <trkpt lat="44.39056" lon="6.40403">
        <ele>2084</ele>
        <time>2020-07-07T11:30:29.000Z</time>
      </trkpt>
      <trkpt lat="44.39055" lon="6.40403">
        <ele>2084</ele>
        <time>2020-07-07T11:30:30.000Z</time>
      </trkpt>
      <trkpt lat="44.39054" lon="6.40402">
        <ele>2084</ele>
        <time>2020-07-07T11:30:31.000Z</time>
      </trkpt>
      <trkpt lat="44.39053" lon="6.40401">
        <ele>2084</ele>
        <time>2020-07-07T11:30:32.000Z</time>
      </trkpt>
      <trkpt lat="44.39051" lon="6.40401">
        <ele>2084</ele>
        <time>2020-07-07T11:30:33.000Z</time>
      </trkpt>
      <trkpt lat="44.3905" lon="6.404">
        <ele>2084</ele>
        <time>2020-07-07T11:30:34.000Z</time>
      </trkpt>
      <trkpt lat="44.39049" lon="6.404">
        <ele>2084</ele>
        <time>2020-07-07T11:30:35.000Z</time>
      </trkpt>
      <trkpt lat="44.39048" lon="6.404">
        <ele>2084</ele>
        <time>2020-07-07T11:30:36.000Z</time>
      </trkpt>
      <trkpt lat="44.39047" lon="6.40399">
        <ele>2084</ele>
        <time>2020-07-07T11:30:37.000Z</time>
      </trkpt>
      <trkpt lat="44.39046" lon="6.40399">
        <ele>2084</ele>
        <time>2020-07-07T11:30:38.000Z</time>
      </trkpt>
      <trkpt lat="44.39044" lon="6.40399">
        <ele>2084</ele>
        <time>2020-07-07T11:30:39.000Z</time>
      </trkpt>
      <trkpt lat="44.39043" lon="6.40399">
        <ele>2084</ele>
        <time>2020-07-07T11:30:40.000Z</time>
      </trkpt>
      <trkpt lat="44.39042" lon="6.40399">
        <ele>2084</ele>
        <time>2020-07-07T11:30:41.000Z</time>
      </trkpt>
      <trkpt lat="44.39041" lon="6.40399">
        <ele>2084</ele>
        <time>2020-07-07T11:30:42.000Z</time>
      </trkpt>
      <trkpt lat="44.3904" lon="6.40399">
        <ele>2084</ele>
        <time>2020-07-07T11:30:43.000Z</time>
      </trkpt>
      <trkpt lat="44.39039" lon="6.40399">
        <ele>2084</ele>
        <time>2020-07-07T11:30:44.000Z</time>
      </trkpt>
      <trkpt lat="44.39038" lon="6.40399">
        <ele>2084</ele>
        <time>2020-07-07T11:30:45.000Z</time>
      </trkpt>
      <trkpt lat="44.39037" lon="6.40398">
        <ele>2084</ele>
        <time>2020-07-07T11:30:46.000Z</time>
      </trkpt>
      <trkpt lat="44.39036" lon="6.40398">
        <ele>2084</ele>
        <time>2020-07-07T11:30:47.000Z</time>
      </trkpt>
      <trkpt lat="44.39034" lon="6.40399">
        <ele>2084</ele>
        <time>2020-07-07T11:30:48.000Z</time>
      </trkpt>
      <trkpt lat="44.39033" lon="6.40399">
        <ele>2084</ele>
        <time>2020-07-07T11:30:49.000Z</time>
      </trkpt>
      <trkpt lat="44.39032" lon="6.40399">
        <ele>2085</ele>
        <time>2020-07-07T11:30:50.000Z</time>
      </trkpt>
      <trkpt lat="44.39031" lon="6.40399">
        <ele>2085</ele>
        <time>2020-07-07T11:30:51.000Z</time>
      </trkpt>
      <trkpt lat="44.3903" lon="6.40399">
        <ele>2085</ele>
        <time>2020-07-07T11:30:52.000Z</time>
      </trkpt>
      <trkpt lat="44.39028" lon="6.40399">
        <ele>2085</ele>
        <time>2020-07-07T11:30:53.000Z</time>
      </trkpt>
      <trkpt lat="44.39027" lon="6.40399">
        <ele>2085</ele>
        <time>2020-07-07T11:30:54.000Z</time>
      </trkpt>
      <trkpt lat="44.39026" lon="6.40399">
        <ele>2085</ele>
        <time>2020-07-07T11:30:55.000Z</time>
      </trkpt>
      <trkpt lat="44.39025" lon="6.40399">
        <ele>2085</ele>
        <time>2020-07-07T11:30:56.000Z</time>
      </trkpt>
      <trkpt lat="44.39024" lon="6.40399">
        <ele>2085</ele>
        <time>2020-07-07T11:30:57.000Z</time>
      </trkpt>
      <trkpt lat="44.39023" lon="6.40399">
        <ele>2085</ele>
        <time>2020-07-07T11:30:58.000Z</time>
      </trkpt>
      <trkpt lat="44.39022" lon="6.404">
        <ele>2086</ele>
        <time>2020-07-07T11:30:59.000Z</time>
      </trkpt>
      <trkpt lat="44.39021" lon="6.404">
        <ele>2086</ele>
        <time>2020-07-07T11:31:00.000Z</time>
      </trkpt>
      <trkpt lat="44.3902" lon="6.40401">
        <ele>2086</ele>
        <time>2020-07-07T11:31:01.000Z</time>
      </trkpt>
      <trkpt lat="44.39019" lon="6.40401">
        <ele>2086</ele>
        <time>2020-07-07T11:31:02.000Z</time>
      </trkpt>
      <trkpt lat="44.39018" lon="6.40402">
        <ele>2086</ele>
        <time>2020-07-07T11:31:03.000Z</time>
      </trkpt>
      <trkpt lat="44.39017" lon="6.40402">
        <ele>2086</ele>
        <time>2020-07-07T11:31:04.000Z</time>
      </trkpt>
      <trkpt lat="44.39016" lon="6.40403">
        <ele>2086</ele>
        <time>2020-07-07T11:31:05.000Z</time>
      </trkpt>
      <trkpt lat="44.39015" lon="6.40404">
        <ele>2086</ele>
        <time>2020-07-07T11:31:06.000Z</time>
      </trkpt>
      <trkpt lat="44.39015" lon="6.40404">
        <ele>2086</ele>
        <time>2020-07-07T11:31:07.000Z</time>
      </trkpt>
      <trkpt lat="44.39015" lon="6.40405">
        <ele>2086</ele>
        <time>2020-07-07T11:31:08.000Z</time>
      </trkpt>
      <trkpt lat="44.39014" lon="6.40406">
        <ele>2086</ele>
        <time>2020-07-07T11:31:09.000Z</time>
      </trkpt>
      <trkpt lat="44.39013" lon="6.40406">
        <ele>2086</ele>
        <time>2020-07-07T11:31:10.000Z</time>
      </trkpt>
      <trkpt lat="44.39012" lon="6.40407">
        <ele>2086</ele>
        <time>2020-07-07T11:31:11.000Z</time>
      </trkpt>
      <trkpt lat="44.39011" lon="6.40407">
        <ele>2086</ele>
        <time>2020-07-07T11:31:12.000Z</time>
      </trkpt>
      <trkpt lat="44.39009" lon="6.40408">
        <ele>2086</ele>
        <time>2020-07-07T11:31:13.000Z</time>
      </trkpt>
      <trkpt lat="44.39008" lon="6.40408">
        <ele>2086</ele>
        <time>2020-07-07T11:31:14.000Z</time>
      </trkpt>
      <trkpt lat="44.39007" lon="6.40409">
        <ele>2086</ele>
        <time>2020-07-07T11:31:15.000Z</time>
      </trkpt>
      <trkpt lat="44.39006" lon="6.40409">
        <ele>2086</ele>
        <time>2020-07-07T11:31:16.000Z</time>
      </trkpt>
      <trkpt lat="44.39005" lon="6.4041">
        <ele>2086</ele>
        <time>2020-07-07T11:31:17.000Z</time>
      </trkpt>
      <trkpt lat="44.39004" lon="6.40411">
        <ele>2086</ele>
        <time>2020-07-07T11:31:18.000Z</time>
      </trkpt>
      <trkpt lat="44.39003" lon="6.40412">
        <ele>2086</ele>
        <time>2020-07-07T11:31:19.000Z</time>
      </trkpt>
      <trkpt lat="44.39001" lon="6.40413">
        <ele>2086</ele>
        <time>2020-07-07T11:31:20.000Z</time>
      </trkpt>
      <trkpt lat="44.39001" lon="6.40414">
        <ele>2086</ele>
        <time>2020-07-07T11:31:21.000Z</time>
      </trkpt>
      <trkpt lat="44.39" lon="6.40414">
        <ele>2086</ele>
        <time>2020-07-07T11:31:22.000Z</time>
      </trkpt>
      <trkpt lat="44.38998" lon="6.40415">
        <ele>2086</ele>
        <time>2020-07-07T11:31:23.000Z</time>
      </trkpt>
      <trkpt lat="44.38997" lon="6.40416">
        <ele>2086</ele>
        <time>2020-07-07T11:31:24.000Z</time>
      </trkpt>
      <trkpt lat="44.38996" lon="6.40416">
        <ele>2086</ele>
        <time>2020-07-07T11:31:25.000Z</time>
      </trkpt>
      <trkpt lat="44.38995" lon="6.40417">
        <ele>2086</ele>
        <time>2020-07-07T11:31:26.000Z</time>
      </trkpt>
      <trkpt lat="44.38994" lon="6.40417">
        <ele>2086</ele>
        <time>2020-07-07T11:31:27.000Z</time>
      </trkpt>
      <trkpt lat="44.38993" lon="6.40418">
        <ele>2086</ele>
        <time>2020-07-07T11:31:28.000Z</time>
      </trkpt>
      <trkpt lat="44.38992" lon="6.40418">
        <ele>2086</ele>
        <time>2020-07-07T11:31:29.000Z</time>
      </trkpt>
      <trkpt lat="44.38991" lon="6.40419">
        <ele>2086</ele>
        <time>2020-07-07T11:31:30.000Z</time>
      </trkpt>
      <trkpt lat="44.3899" lon="6.40419">
        <ele>2086</ele>
        <time>2020-07-07T11:31:31.000Z</time>
      </trkpt>
      <trkpt lat="44.38989" lon="6.4042">
        <ele>2086</ele>
        <time>2020-07-07T11:31:32.000Z</time>
      </trkpt>
      <trkpt lat="44.38988" lon="6.40421">
        <ele>2086</ele>
        <time>2020-07-07T11:31:33.000Z</time>
      </trkpt>
      <trkpt lat="44.38988" lon="6.40422">
        <ele>2086</ele>
        <time>2020-07-07T11:31:34.000Z</time>
      </trkpt>
      <trkpt lat="44.38987" lon="6.40422">
        <ele>2086</ele>
        <time>2020-07-07T11:31:35.000Z</time>
      </trkpt>
      <trkpt lat="44.38987" lon="6.40423">
        <ele>2086</ele>
        <time>2020-07-07T11:31:36.000Z</time>
      </trkpt>
      <trkpt lat="44.38986" lon="6.40424">
        <ele>2086</ele>
        <time>2020-07-07T11:31:37.000Z</time>
      </trkpt>
      <trkpt lat="44.38985" lon="6.40426">
        <ele>2086</ele>
        <time>2020-07-07T11:31:38.000Z</time>
      </trkpt>
      <trkpt lat="44.38983" lon="6.40427">
        <ele>2086</ele>
        <time>2020-07-07T11:31:39.000Z</time>
      </trkpt>
      <trkpt lat="44.38982" lon="6.40428">
        <ele>2086</ele>
        <time>2020-07-07T11:31:40.000Z</time>
      </trkpt>
      <trkpt lat="44.38981" lon="6.40429">
        <ele>2086</ele>
        <time>2020-07-07T11:31:41.000Z</time>
      </trkpt>
      <trkpt lat="44.3898" lon="6.4043">
        <ele>2086</ele>
        <time>2020-07-07T11:31:42.000Z</time>
      </trkpt>
      <trkpt lat="44.38979" lon="6.40431">
        <ele>2086</ele>
        <time>2020-07-07T11:31:43.000Z</time>
      </trkpt>
      <trkpt lat="44.38978" lon="6.40432">
        <ele>2086</ele>
        <time>2020-07-07T11:31:44.000Z</time>
      </trkpt>
      <trkpt lat="44.38977" lon="6.40433">
        <ele>2086</ele>
        <time>2020-07-07T11:31:45.000Z</time>
      </trkpt>
      <trkpt lat="44.38976" lon="6.40434">
        <ele>2086</ele>
        <time>2020-07-07T11:31:46.000Z</time>
      </trkpt>
      <trkpt lat="44.38976" lon="6.40435">
        <ele>2086</ele>
        <time>2020-07-07T11:31:47.000Z</time>
      </trkpt>
      <trkpt lat="44.38975" lon="6.40436">
        <ele>2086</ele>
        <time>2020-07-07T11:31:48.000Z</time>
      </trkpt>
      <trkpt lat="44.38974" lon="6.40437">
        <ele>2086</ele>
        <time>2020-07-07T11:31:49.000Z</time>
      </trkpt>
      <trkpt lat="44.38974" lon="6.40438">
        <ele>2086</ele>
        <time>2020-07-07T11:31:50.000Z</time>
      </trkpt>
      <trkpt lat="44.38974" lon="6.40439">
        <ele>2086</ele>
        <time>2020-07-07T11:31:51.000Z</time>
      </trkpt>
      <trkpt lat="44.38973" lon="6.4044">
        <ele>2086</ele>
        <time>2020-07-07T11:31:52.000Z</time>
      </trkpt>
      <trkpt lat="44.38971" lon="6.40441">
        <ele>2086</ele>
        <time>2020-07-07T11:31:53.000Z</time>
      </trkpt>
      <trkpt lat="44.3897" lon="6.40442">
        <ele>2086</ele>
        <time>2020-07-07T11:31:54.000Z</time>
      </trkpt>
      <trkpt lat="44.38969" lon="6.40443">
        <ele>2086</ele>
        <time>2020-07-07T11:31:55.000Z</time>
      </trkpt>
      <trkpt lat="44.38969" lon="6.40444">
        <ele>2086</ele>
        <time>2020-07-07T11:31:56.000Z</time>
      </trkpt>
      <trkpt lat="44.38968" lon="6.40445">
        <ele>2086</ele>
        <time>2020-07-07T11:31:57.000Z</time>
      </trkpt>
      <trkpt lat="44.38968" lon="6.40446">
        <ele>2086</ele>
        <time>2020-07-07T11:31:58.000Z</time>
      </trkpt>
      <trkpt lat="44.38967" lon="6.40447">
        <ele>2086</ele>
        <time>2020-07-07T11:31:59.000Z</time>
      </trkpt>
      <trkpt lat="44.38965" lon="6.40448">
        <ele>2086</ele>
        <time>2020-07-07T11:32:00.000Z</time>
      </trkpt>
      <trkpt lat="44.38965" lon="6.40448">
        <ele>2086</ele>
        <time>2020-07-07T11:32:01.000Z</time>
      </trkpt>
      <trkpt lat="44.38963" lon="6.40449">
        <ele>2086</ele>
        <time>2020-07-07T11:32:02.000Z</time>
      </trkpt>
      <trkpt lat="44.38962" lon="6.4045">
        <ele>2086</ele>
        <time>2020-07-07T11:32:03.000Z</time>
      </trkpt>
      <trkpt lat="44.38961" lon="6.40451">
        <ele>2086</ele>
        <time>2020-07-07T11:32:04.000Z</time>
      </trkpt>
      <trkpt lat="44.3896" lon="6.40452">
        <ele>2086</ele>
        <time>2020-07-07T11:32:05.000Z</time>
      </trkpt>
      <trkpt lat="44.3896" lon="6.40453">
        <ele>2086</ele>
        <time>2020-07-07T11:32:06.000Z</time>
      </trkpt>
      <trkpt lat="44.38959" lon="6.40454">
        <ele>2086</ele>
        <time>2020-07-07T11:32:07.000Z</time>
      </trkpt>
      <trkpt lat="44.38958" lon="6.40455">
        <ele>2086</ele>
        <time>2020-07-07T11:32:08.000Z</time>
      </trkpt>
      <trkpt lat="44.38957" lon="6.40456">
        <ele>2086</ele>
        <time>2020-07-07T11:32:09.000Z</time>
      </trkpt>
      <trkpt lat="44.38955" lon="6.40457">
        <ele>2086</ele>
        <time>2020-07-07T11:32:10.000Z</time>
      </trkpt>
      <trkpt lat="44.38954" lon="6.40458">
        <ele>2086</ele>
        <time>2020-07-07T11:32:11.000Z</time>
      </trkpt>
      <trkpt lat="44.38954" lon="6.40459">
        <ele>2087</ele>
        <time>2020-07-07T11:32:12.000Z</time>
      </trkpt>
      <trkpt lat="44.38953" lon="6.40459">
        <ele>2087</ele>
        <time>2020-07-07T11:32:13.000Z</time>
      </trkpt>
      <trkpt lat="44.38953" lon="6.4046">
        <ele>2087</ele>
        <time>2020-07-07T11:32:14.000Z</time>
      </trkpt>
      <trkpt lat="44.38953" lon="6.40459">
        <ele>2087</ele>
        <time>2020-07-07T11:32:15.000Z</time>
      </trkpt>
      <trkpt lat="44.38952" lon="6.40459">
        <ele>2087</ele>
        <time>2020-07-07T11:32:16.000Z</time>
      </trkpt>
      <trkpt lat="44.38952" lon="6.40459">
        <ele>2087</ele>
        <time>2020-07-07T11:32:17.000Z</time>
      </trkpt>
      <trkpt lat="44.38952" lon="6.40458">
        <ele>2087</ele>
        <time>2020-07-07T11:32:18.000Z</time>
      </trkpt>
      <trkpt lat="44.38952" lon="6.40456">
        <ele>2087</ele>
        <time>2020-07-07T11:32:19.000Z</time>
      </trkpt>
      <trkpt lat="44.38953" lon="6.40454">
        <ele>2087</ele>
        <time>2020-07-07T11:32:20.000Z</time>
      </trkpt>
      <trkpt lat="44.38953" lon="6.40453">
        <ele>2087</ele>
        <time>2020-07-07T11:32:21.000Z</time>
      </trkpt>
      <trkpt lat="44.38953" lon="6.40452">
        <ele>2087</ele>
        <time>2020-07-07T11:32:22.000Z</time>
      </trkpt>
      <trkpt lat="44.38953" lon="6.40451">
        <ele>2087</ele>
        <time>2020-07-07T11:32:23.000Z</time>
      </trkpt>
      <trkpt lat="44.38953" lon="6.40451">
        <ele>2087</ele>
        <time>2020-07-07T11:32:24.000Z</time>
      </trkpt>
      <trkpt lat="44.38954" lon="6.4045">
        <ele>2087</ele>
        <time>2020-07-07T11:32:25.000Z</time>
      </trkpt>
      <trkpt lat="44.38954" lon="6.40449">
        <ele>2087</ele>
        <time>2020-07-07T11:32:26.000Z</time>
      </trkpt>
      <trkpt lat="44.38955" lon="6.40448">
        <ele>2087</ele>
        <time>2020-07-07T11:32:27.000Z</time>
      </trkpt>
      <trkpt lat="44.38956" lon="6.40446">
        <ele>2088</ele>
        <time>2020-07-07T11:32:28.000Z</time>
      </trkpt>
      <trkpt lat="44.38956" lon="6.40445">
        <ele>2088</ele>
        <time>2020-07-07T11:32:29.000Z</time>
      </trkpt>
      <trkpt lat="44.38957" lon="6.40445">
        <ele>2088</ele>
        <time>2020-07-07T11:32:30.000Z</time>
      </trkpt>
      <trkpt lat="44.38957" lon="6.40445">
        <ele>2088</ele>
        <time>2020-07-07T11:32:31.000Z</time>
      </trkpt>
      <trkpt lat="44.38958" lon="6.40445">
        <ele>2088</ele>
        <time>2020-07-07T11:32:32.000Z</time>
      </trkpt>
      <trkpt lat="44.3896" lon="6.40443">
        <ele>2088</ele>
        <time>2020-07-07T11:32:33.000Z</time>
      </trkpt>
      <trkpt lat="44.38961" lon="6.40443">
        <ele>2088</ele>
        <time>2020-07-07T11:32:34.000Z</time>
      </trkpt>
      <trkpt lat="44.38961" lon="6.40443">
        <ele>2088</ele>
        <time>2020-07-07T11:32:35.000Z</time>
      </trkpt>
      <trkpt lat="44.38962" lon="6.40442">
        <ele>2088</ele>
        <time>2020-07-07T11:32:36.000Z</time>
      </trkpt>
      <trkpt lat="44.38964" lon="6.40442">
        <ele>2087</ele>
        <time>2020-07-07T11:32:37.000Z</time>
      </trkpt>
      <trkpt lat="44.38964" lon="6.40441">
        <ele>2087</ele>
        <time>2020-07-07T11:32:38.000Z</time>
      </trkpt>
      <trkpt lat="44.38965" lon="6.40441">
        <ele>2087</ele>
        <time>2020-07-07T11:32:39.000Z</time>
      </trkpt>
      <trkpt lat="44.38967" lon="6.4044">
        <ele>2087</ele>
        <time>2020-07-07T11:32:40.000Z</time>
      </trkpt>
      <trkpt lat="44.38968" lon="6.40439">
        <ele>2087</ele>
        <time>2020-07-07T11:32:41.000Z</time>
      </trkpt>
      <trkpt lat="44.3897" lon="6.40438">
        <ele>2087</ele>
        <time>2020-07-07T11:32:42.000Z</time>
      </trkpt>
      <trkpt lat="44.38972" lon="6.40437">
        <ele>2087</ele>
        <time>2020-07-07T11:32:43.000Z</time>
      </trkpt>
      <trkpt lat="44.38973" lon="6.40437">
        <ele>2086</ele>
        <time>2020-07-07T11:32:44.000Z</time>
      </trkpt>
      <trkpt lat="44.38974" lon="6.40436">
        <ele>2086</ele>
        <time>2020-07-07T11:32:45.000Z</time>
      </trkpt>
      <trkpt lat="44.38975" lon="6.40435">
        <ele>2086</ele>
        <time>2020-07-07T11:32:46.000Z</time>
      </trkpt>
      <trkpt lat="44.38976" lon="6.40433">
        <ele>2086</ele>
        <time>2020-07-07T11:32:47.000Z</time>
      </trkpt>
      <trkpt lat="44.38976" lon="6.40431">
        <ele>2086</ele>
        <time>2020-07-07T11:32:48.000Z</time>
      </trkpt>
      <trkpt lat="44.38977" lon="6.4043">
        <ele>2086</ele>
        <time>2020-07-07T11:32:49.000Z</time>
      </trkpt>
      <trkpt lat="44.38977" lon="6.40429">
        <ele>2086</ele>
        <time>2020-07-07T11:32:50.000Z</time>
      </trkpt>
      <trkpt lat="44.38979" lon="6.40427">
        <ele>2086</ele>
        <time>2020-07-07T11:32:51.000Z</time>
      </trkpt>
      <trkpt lat="44.3898" lon="6.40426">
        <ele>2086</ele>
        <time>2020-07-07T11:32:52.000Z</time>
      </trkpt>
      <trkpt lat="44.38982" lon="6.40424">
        <ele>2086</ele>
        <time>2020-07-07T11:32:53.000Z</time>
      </trkpt>
      <trkpt lat="44.38982" lon="6.40423">
        <ele>2086</ele>
        <time>2020-07-07T11:32:54.000Z</time>
      </trkpt>
      <trkpt lat="44.38983" lon="6.40423">
        <ele>2086</ele>
        <time>2020-07-07T11:32:55.000Z</time>
      </trkpt>
      <trkpt lat="44.38984" lon="6.40423">
        <ele>2086</ele>
        <time>2020-07-07T11:32:56.000Z</time>
      </trkpt>
      <trkpt lat="44.38984" lon="6.40421">
        <ele>2086</ele>
        <time>2020-07-07T11:32:57.000Z</time>
      </trkpt>
      <trkpt lat="44.38985" lon="6.4042">
        <ele>2086</ele>
        <time>2020-07-07T11:32:58.000Z</time>
      </trkpt>
      <trkpt lat="44.38986" lon="6.4042">
        <ele>2086</ele>
        <time>2020-07-07T11:32:59.000Z</time>
      </trkpt>
      <trkpt lat="44.38987" lon="6.40419">
        <ele>2086</ele>
        <time>2020-07-07T11:33:00.000Z</time>
      </trkpt>
      <trkpt lat="44.38987" lon="6.40418">
        <ele>2086</ele>
        <time>2020-07-07T11:33:01.000Z</time>
      </trkpt>
      <trkpt lat="44.38988" lon="6.40416">
        <ele>2086</ele>
        <time>2020-07-07T11:33:02.000Z</time>
      </trkpt>
      <trkpt lat="44.38989" lon="6.40415">
        <ele>2086</ele>
        <time>2020-07-07T11:33:03.000Z</time>
      </trkpt>
      <trkpt lat="44.38989" lon="6.40414">
        <ele>2086</ele>
        <time>2020-07-07T11:33:04.000Z</time>
      </trkpt>
      <trkpt lat="44.3899" lon="6.40412">
        <ele>2086</ele>
        <time>2020-07-07T11:33:05.000Z</time>
      </trkpt>
      <trkpt lat="44.38991" lon="6.4041">
        <ele>2086</ele>
        <time>2020-07-07T11:33:06.000Z</time>
      </trkpt>
      <trkpt lat="44.38992" lon="6.40409">
        <ele>2086</ele>
        <time>2020-07-07T11:33:07.000Z</time>
      </trkpt>
      <trkpt lat="44.38993" lon="6.40408">
        <ele>2086</ele>
        <time>2020-07-07T11:33:08.000Z</time>
      </trkpt>
      <trkpt lat="44.38994" lon="6.40408">
        <ele>2086</ele>
        <time>2020-07-07T11:33:09.000Z</time>
      </trkpt>
      <trkpt lat="44.38995" lon="6.40408">
        <ele>2086</ele>
        <time>2020-07-07T11:33:10.000Z</time>
      </trkpt>
      <trkpt lat="44.38995" lon="6.40406">
        <ele>2086</ele>
        <time>2020-07-07T11:33:11.000Z</time>
      </trkpt>
      <trkpt lat="44.38995" lon="6.40405">
        <ele>2087</ele>
        <time>2020-07-07T11:33:12.000Z</time>
      </trkpt>
      <trkpt lat="44.38996" lon="6.40405">
        <ele>2087</ele>
        <time>2020-07-07T11:33:13.000Z</time>
      </trkpt>
      <trkpt lat="44.38996" lon="6.40403">
        <ele>2087</ele>
        <time>2020-07-07T11:33:14.000Z</time>
      </trkpt>
      <trkpt lat="44.38996" lon="6.40402">
        <ele>2087</ele>
        <time>2020-07-07T11:33:15.000Z</time>
      </trkpt>
      <trkpt lat="44.38996" lon="6.404">
        <ele>2087</ele>
        <time>2020-07-07T11:33:16.000Z</time>
      </trkpt>
      <trkpt lat="44.38996" lon="6.404">
        <ele>2087</ele>
        <time>2020-07-07T11:33:17.000Z</time>
      </trkpt>
      <trkpt lat="44.38997" lon="6.40399">
        <ele>2087</ele>
        <time>2020-07-07T11:33:18.000Z</time>
      </trkpt>
      <trkpt lat="44.38997" lon="6.40398">
        <ele>2087</ele>
        <time>2020-07-07T11:33:19.000Z</time>
      </trkpt>
      <trkpt lat="44.38997" lon="6.40396">
        <ele>2087</ele>
        <time>2020-07-07T11:33:20.000Z</time>
      </trkpt>
      <trkpt lat="44.38997" lon="6.40396">
        <ele>2087</ele>
        <time>2020-07-07T11:33:21.000Z</time>
      </trkpt>
      <trkpt lat="44.38997" lon="6.40395">
        <ele>2088</ele>
        <time>2020-07-07T11:33:22.000Z</time>
      </trkpt>
      <trkpt lat="44.38997" lon="6.40393">
        <ele>2088</ele>
        <time>2020-07-07T11:33:23.000Z</time>
      </trkpt>
      <trkpt lat="44.38997" lon="6.40392">
        <ele>2087</ele>
        <time>2020-07-07T11:33:24.000Z</time>
      </trkpt>
      <trkpt lat="44.38998" lon="6.40391">
        <ele>2088</ele>
        <time>2020-07-07T11:33:25.000Z</time>
      </trkpt>
      <trkpt lat="44.38998" lon="6.40389">
        <ele>2088</ele>
        <time>2020-07-07T11:33:26.000Z</time>
      </trkpt>
      <trkpt lat="44.38998" lon="6.40387">
        <ele>2088</ele>
        <time>2020-07-07T11:33:27.000Z</time>
      </trkpt>
      <trkpt lat="44.38998" lon="6.40385">
        <ele>2088</ele>
        <time>2020-07-07T11:33:28.000Z</time>
      </trkpt>
      <trkpt lat="44.38998" lon="6.40384">
        <ele>2088</ele>
        <time>2020-07-07T11:33:29.000Z</time>
      </trkpt>
      <trkpt lat="44.38998" lon="6.40385">
        <ele>2088</ele>
        <time>2020-07-07T11:33:30.000Z</time>
      </trkpt>
      <trkpt lat="44.38998" lon="6.40384">
        <ele>2088</ele>
        <time>2020-07-07T11:33:31.000Z</time>
      </trkpt>
      <trkpt lat="44.38998" lon="6.40384">
        <ele>2088</ele>
        <time>2020-07-07T11:33:32.000Z</time>
      </trkpt>
      <trkpt lat="44.38998" lon="6.40383">
        <ele>2088</ele>
        <time>2020-07-07T11:33:33.000Z</time>
      </trkpt>
      <trkpt lat="44.38998" lon="6.40382">
        <ele>2088</ele>
        <time>2020-07-07T11:33:34.000Z</time>
      </trkpt>
      <trkpt lat="44.38997" lon="6.40381">
        <ele>2088</ele>
        <time>2020-07-07T11:33:35.000Z</time>
      </trkpt>
      <trkpt lat="44.38997" lon="6.4038">
        <ele>2088</ele>
        <time>2020-07-07T11:33:36.000Z</time>
      </trkpt>
      <trkpt lat="44.38996" lon="6.40379">
        <ele>2088</ele>
        <time>2020-07-07T11:33:37.000Z</time>
      </trkpt>
      <trkpt lat="44.38996" lon="6.40378">
        <ele>2088</ele>
        <time>2020-07-07T11:33:38.000Z</time>
      </trkpt>
      <trkpt lat="44.38995" lon="6.40377">
        <ele>2088</ele>
        <time>2020-07-07T11:33:39.000Z</time>
      </trkpt>
      <trkpt lat="44.38994" lon="6.40376">
        <ele>2088</ele>
        <time>2020-07-07T11:33:40.000Z</time>
      </trkpt>
      <trkpt lat="44.38993" lon="6.40375">
        <ele>2088</ele>
        <time>2020-07-07T11:33:41.000Z</time>
      </trkpt>
      <trkpt lat="44.38992" lon="6.40374">
        <ele>2088</ele>
        <time>2020-07-07T11:33:42.000Z</time>
      </trkpt>
      <trkpt lat="44.38991" lon="6.40373">
        <ele>2088</ele>
        <time>2020-07-07T11:33:43.000Z</time>
      </trkpt>
      <trkpt lat="44.3899" lon="6.40372">
        <ele>2088</ele>
        <time>2020-07-07T11:33:44.000Z</time>
      </trkpt>
      <trkpt lat="44.38989" lon="6.40372">
        <ele>2088</ele>
        <time>2020-07-07T11:33:45.000Z</time>
      </trkpt>
      <trkpt lat="44.38989" lon="6.40371">
        <ele>2088</ele>
        <time>2020-07-07T11:33:46.000Z</time>
      </trkpt>
      <trkpt lat="44.38988" lon="6.4037">
        <ele>2088</ele>
        <time>2020-07-07T11:33:47.000Z</time>
      </trkpt>
      <trkpt lat="44.38987" lon="6.40369">
        <ele>2088</ele>
        <time>2020-07-07T11:33:48.000Z</time>
      </trkpt>
      <trkpt lat="44.38986" lon="6.40368">
        <ele>2087</ele>
        <time>2020-07-07T11:33:49.000Z</time>
      </trkpt>
      <trkpt lat="44.38985" lon="6.40367">
        <ele>2087</ele>
        <time>2020-07-07T11:33:50.000Z</time>
      </trkpt>
      <trkpt lat="44.38984" lon="6.40366">
        <ele>2087</ele>
        <time>2020-07-07T11:33:51.000Z</time>
      </trkpt>
      <trkpt lat="44.38984" lon="6.40365">
        <ele>2087</ele>
        <time>2020-07-07T11:33:52.000Z</time>
      </trkpt>
      <trkpt lat="44.38983" lon="6.40364">
        <ele>2087</ele>
        <time>2020-07-07T11:33:53.000Z</time>
      </trkpt>
      <trkpt lat="44.38982" lon="6.40363">
        <ele>2087</ele>
        <time>2020-07-07T11:33:54.000Z</time>
      </trkpt>
      <trkpt lat="44.38982" lon="6.40361">
        <ele>2087</ele>
        <time>2020-07-07T11:33:55.000Z</time>
      </trkpt>
      <trkpt lat="44.38981" lon="6.4036">
        <ele>2087</ele>
        <time>2020-07-07T11:33:56.000Z</time>
      </trkpt>
      <trkpt lat="44.38981" lon="6.40358">
        <ele>2087</ele>
        <time>2020-07-07T11:33:57.000Z</time>
      </trkpt>
      <trkpt lat="44.38981" lon="6.40357">
        <ele>2087</ele>
        <time>2020-07-07T11:33:58.000Z</time>
      </trkpt>
      <trkpt lat="44.3898" lon="6.40355">
        <ele>2087</ele>
        <time>2020-07-07T11:33:59.000Z</time>
      </trkpt>
      <trkpt lat="44.38981" lon="6.40354">
        <ele>2087</ele>
        <time>2020-07-07T11:34:00.000Z</time>
      </trkpt>
      <trkpt lat="44.3898" lon="6.40352">
        <ele>2087</ele>
        <time>2020-07-07T11:34:01.000Z</time>
      </trkpt>
      <trkpt lat="44.3898" lon="6.40351">
        <ele>2087</ele>
        <time>2020-07-07T11:34:02.000Z</time>
      </trkpt>
      <trkpt lat="44.38979" lon="6.40349">
        <ele>2087</ele>
        <time>2020-07-07T11:34:03.000Z</time>
      </trkpt>
      <trkpt lat="44.38979" lon="6.40348">
        <ele>2087</ele>
        <time>2020-07-07T11:34:04.000Z</time>
      </trkpt>
      <trkpt lat="44.38978" lon="6.40346">
        <ele>2087</ele>
        <time>2020-07-07T11:34:05.000Z</time>
      </trkpt>
      <trkpt lat="44.38978" lon="6.40345">
        <ele>2087</ele>
        <time>2020-07-07T11:34:06.000Z</time>
      </trkpt>
      <trkpt lat="44.38978" lon="6.40344">
        <ele>2087</ele>
        <time>2020-07-07T11:34:07.000Z</time>
      </trkpt>
      <trkpt lat="44.38978" lon="6.40343">
        <ele>2087</ele>
        <time>2020-07-07T11:34:08.000Z</time>
      </trkpt>
      <trkpt lat="44.38977" lon="6.40341">
        <ele>2087</ele>
        <time>2020-07-07T11:34:09.000Z</time>
      </trkpt>
      <trkpt lat="44.38977" lon="6.4034">
        <ele>2087</ele>
        <time>2020-07-07T11:34:10.000Z</time>
      </trkpt>
      <trkpt lat="44.38977" lon="6.40339">
        <ele>2087</ele>
        <time>2020-07-07T11:34:11.000Z</time>
      </trkpt>
      <trkpt lat="44.38976" lon="6.40338">
        <ele>2087</ele>
        <time>2020-07-07T11:34:12.000Z</time>
      </trkpt>
      <trkpt lat="44.38975" lon="6.40337">
        <ele>2087</ele>
        <time>2020-07-07T11:34:13.000Z</time>
      </trkpt>
      <trkpt lat="44.38975" lon="6.40334">
        <ele>2087</ele>
        <time>2020-07-07T11:34:14.000Z</time>
      </trkpt>
      <trkpt lat="44.38974" lon="6.40333">
        <ele>2087</ele>
        <time>2020-07-07T11:34:15.000Z</time>
      </trkpt>
      <trkpt lat="44.38974" lon="6.40332">
        <ele>2087</ele>
        <time>2020-07-07T11:34:16.000Z</time>
      </trkpt>
      <trkpt lat="44.38974" lon="6.4033">
        <ele>2088</ele>
        <time>2020-07-07T11:34:17.000Z</time>
      </trkpt>
      <trkpt lat="44.38974" lon="6.40327">
        <ele>2088</ele>
        <time>2020-07-07T11:34:18.000Z</time>
      </trkpt>
      <trkpt lat="44.38973" lon="6.40326">
        <ele>2088</ele>
        <time>2020-07-07T11:34:19.000Z</time>
      </trkpt>
      <trkpt lat="44.38973" lon="6.40325">
        <ele>2088</ele>
        <time>2020-07-07T11:34:20.000Z</time>
      </trkpt>
      <trkpt lat="44.38973" lon="6.40324">
        <ele>2088</ele>
        <time>2020-07-07T11:34:21.000Z</time>
      </trkpt>
      <trkpt lat="44.38973" lon="6.40323">
        <ele>2088</ele>
        <time>2020-07-07T11:34:22.000Z</time>
      </trkpt>
      <trkpt lat="44.38973" lon="6.40322">
        <ele>2088</ele>
        <time>2020-07-07T11:34:23.000Z</time>
      </trkpt>
      <trkpt lat="44.38974" lon="6.40321">
        <ele>2088</ele>
        <time>2020-07-07T11:34:24.000Z</time>
      </trkpt>
      <trkpt lat="44.38974" lon="6.40319">
        <ele>2088</ele>
        <time>2020-07-07T11:34:25.000Z</time>
      </trkpt>
      <trkpt lat="44.38974" lon="6.40318">
        <ele>2089</ele>
        <time>2020-07-07T11:34:26.000Z</time>
      </trkpt>
      <trkpt lat="44.38974" lon="6.40316">
        <ele>2089</ele>
        <time>2020-07-07T11:34:27.000Z</time>
      </trkpt>
      <trkpt lat="44.38974" lon="6.40315">
        <ele>2089</ele>
        <time>2020-07-07T11:34:28.000Z</time>
      </trkpt>
      <trkpt lat="44.38975" lon="6.40315">
        <ele>2089</ele>
        <time>2020-07-07T11:34:29.000Z</time>
      </trkpt>
      <trkpt lat="44.38975" lon="6.40314">
        <ele>2089</ele>
        <time>2020-07-07T11:34:30.000Z</time>
      </trkpt>
      <trkpt lat="44.38975" lon="6.40313">
        <ele>2089</ele>
        <time>2020-07-07T11:34:31.000Z</time>
      </trkpt>
      <trkpt lat="44.38976" lon="6.40312">
        <ele>2089</ele>
        <time>2020-07-07T11:34:32.000Z</time>
      </trkpt>
      <trkpt lat="44.38976" lon="6.4031">
        <ele>2089</ele>
        <time>2020-07-07T11:34:33.000Z</time>
      </trkpt>
      <trkpt lat="44.38976" lon="6.40308">
        <ele>2089</ele>
        <time>2020-07-07T11:34:34.000Z</time>
      </trkpt>
      <trkpt lat="44.38976" lon="6.40307">
        <ele>2089</ele>
        <time>2020-07-07T11:34:35.000Z</time>
      </trkpt>
      <trkpt lat="44.38976" lon="6.40305">
        <ele>2089</ele>
        <time>2020-07-07T11:34:36.000Z</time>
      </trkpt>
      <trkpt lat="44.38976" lon="6.40303">
        <ele>2089</ele>
        <time>2020-07-07T11:34:37.000Z</time>
      </trkpt>
      <trkpt lat="44.38975" lon="6.403">
        <ele>2089</ele>
        <time>2020-07-07T11:34:38.000Z</time>
      </trkpt>
      <trkpt lat="44.38975" lon="6.40299">
        <ele>2089</ele>
        <time>2020-07-07T11:34:39.000Z</time>
      </trkpt>
      <trkpt lat="44.38975" lon="6.40297">
        <ele>2089</ele>
        <time>2020-07-07T11:34:40.000Z</time>
      </trkpt>
      <trkpt lat="44.38975" lon="6.40296">
        <ele>2089</ele>
        <time>2020-07-07T11:34:41.000Z</time>
      </trkpt>
      <trkpt lat="44.38975" lon="6.40295">
        <ele>2089</ele>
        <time>2020-07-07T11:34:42.000Z</time>
      </trkpt>
      <trkpt lat="44.38975" lon="6.40295">
        <ele>2089</ele>
        <time>2020-07-07T11:34:43.000Z</time>
      </trkpt>
      <trkpt lat="44.38975" lon="6.40294">
        <ele>2089</ele>
        <time>2020-07-07T11:34:44.000Z</time>
      </trkpt>
      <trkpt lat="44.38976" lon="6.40293">
        <ele>2089</ele>
        <time>2020-07-07T11:34:45.000Z</time>
      </trkpt>
      <trkpt lat="44.38976" lon="6.40293">
        <ele>2089</ele>
        <time>2020-07-07T11:34:46.000Z</time>
      </trkpt>
      <trkpt lat="44.38976" lon="6.40294">
        <ele>2089</ele>
        <time>2020-07-07T11:34:47.000Z</time>
      </trkpt>
      <trkpt lat="44.38976" lon="6.40294">
        <ele>2089</ele>
        <time>2020-07-07T11:34:48.000Z</time>
      </trkpt>
      <trkpt lat="44.38976" lon="6.40294">
        <ele>2089</ele>
        <time>2020-07-07T11:34:49.000Z</time>
      </trkpt>
      <trkpt lat="44.38976" lon="6.40293">
        <ele>2089</ele>
        <time>2020-07-07T11:34:50.000Z</time>
      </trkpt>
      <trkpt lat="44.38975" lon="6.40292">
        <ele>2089</ele>
        <time>2020-07-07T11:34:51.000Z</time>
      </trkpt>
      <trkpt lat="44.38974" lon="6.40292">
        <ele>2089</ele>
        <time>2020-07-07T11:34:52.000Z</time>
      </trkpt>
      <trkpt lat="44.38973" lon="6.40291">
        <ele>2089</ele>
        <time>2020-07-07T11:34:53.000Z</time>
      </trkpt>
      <trkpt lat="44.38973" lon="6.4029">
        <ele>2089</ele>
        <time>2020-07-07T11:34:54.000Z</time>
      </trkpt>
      <trkpt lat="44.38972" lon="6.40289">
        <ele>2089</ele>
        <time>2020-07-07T11:34:55.000Z</time>
      </trkpt>
      <trkpt lat="44.38971" lon="6.40289">
        <ele>2089</ele>
        <time>2020-07-07T11:34:56.000Z</time>
      </trkpt>
      <trkpt lat="44.38971" lon="6.40289">
        <ele>2089</ele>
        <time>2020-07-07T11:34:57.000Z</time>
      </trkpt>
      <trkpt lat="44.38971" lon="6.40289">
        <ele>2089</ele>
        <time>2020-07-07T11:34:58.000Z</time>
      </trkpt>
      <trkpt lat="44.38971" lon="6.40289">
        <ele>2089</ele>
        <time>2020-07-07T11:34:59.000Z</time>
      </trkpt>
      <trkpt lat="44.38971" lon="6.40289">
        <ele>2089</ele>
        <time>2020-07-07T11:35:00.000Z</time>
      </trkpt>
      <trkpt lat="44.3897" lon="6.40289">
        <ele>2089</ele>
        <time>2020-07-07T11:35:01.000Z</time>
      </trkpt>
      <trkpt lat="44.3897" lon="6.4029">
        <ele>2089</ele>
        <time>2020-07-07T11:35:02.000Z</time>
      </trkpt>
      <trkpt lat="44.3897" lon="6.4029">
        <ele>2089</ele>
        <time>2020-07-07T11:35:03.000Z</time>
      </trkpt>
      <trkpt lat="44.3897" lon="6.40289">
        <ele>2089</ele>
        <time>2020-07-07T11:35:04.000Z</time>
      </trkpt>
      <trkpt lat="44.3897" lon="6.40289">
        <ele>2089</ele>
        <time>2020-07-07T11:35:05.000Z</time>
      </trkpt>
      <trkpt lat="44.3897" lon="6.40289">
        <ele>2089</ele>
        <time>2020-07-07T11:35:06.000Z</time>
      </trkpt>
      <trkpt lat="44.38969" lon="6.40288">
        <ele>2089</ele>
        <time>2020-07-07T11:35:07.000Z</time>
      </trkpt>
      <trkpt lat="44.38969" lon="6.40288">
        <ele>2089</ele>
        <time>2020-07-07T11:35:08.000Z</time>
      </trkpt>
      <trkpt lat="44.38968" lon="6.40289">
        <ele>2089</ele>
        <time>2020-07-07T11:35:09.000Z</time>
      </trkpt>
      <trkpt lat="44.38967" lon="6.4029">
        <ele>2088</ele>
        <time>2020-07-07T11:35:10.000Z</time>
      </trkpt>
      <trkpt lat="44.38966" lon="6.40289">
        <ele>2089</ele>
        <time>2020-07-07T11:35:11.000Z</time>
      </trkpt>
      <trkpt lat="44.38965" lon="6.40289">
        <ele>2089</ele>
        <time>2020-07-07T11:35:12.000Z</time>
      </trkpt>
      <trkpt lat="44.38964" lon="6.4029">
        <ele>2089</ele>
        <time>2020-07-07T11:35:13.000Z</time>
      </trkpt>
      <trkpt lat="44.38963" lon="6.4029">
        <ele>2088</ele>
        <time>2020-07-07T11:35:14.000Z</time>
      </trkpt>
      <trkpt lat="44.38962" lon="6.4029">
        <ele>2088</ele>
        <time>2020-07-07T11:35:15.000Z</time>
      </trkpt>
      <trkpt lat="44.38962" lon="6.40289">
        <ele>2088</ele>
        <time>2020-07-07T11:35:16.000Z</time>
      </trkpt>
      <trkpt lat="44.38961" lon="6.4029">
        <ele>2088</ele>
        <time>2020-07-07T11:35:17.000Z</time>
      </trkpt>
      <trkpt lat="44.38961" lon="6.4029">
        <ele>2088</ele>
        <time>2020-07-07T11:35:18.000Z</time>
      </trkpt>
      <trkpt lat="44.38961" lon="6.4029">
        <ele>2088</ele>
        <time>2020-07-07T11:35:19.000Z</time>
      </trkpt>
      <trkpt lat="44.3896" lon="6.40291">
        <ele>2088</ele>
        <time>2020-07-07T11:35:20.000Z</time>
      </trkpt>
      <trkpt lat="44.38959" lon="6.40291">
        <ele>2088</ele>
        <time>2020-07-07T11:35:21.000Z</time>
      </trkpt>
      <trkpt lat="44.38958" lon="6.40291">
        <ele>2088</ele>
        <time>2020-07-07T11:35:22.000Z</time>
      </trkpt>
      <trkpt lat="44.38958" lon="6.40291">
        <ele>2088</ele>
        <time>2020-07-07T11:35:23.000Z</time>
      </trkpt>
      <trkpt lat="44.38958" lon="6.40291">
        <ele>2088</ele>
        <time>2020-07-07T11:35:24.000Z</time>
      </trkpt>
      <trkpt lat="44.38957" lon="6.40291">
        <ele>2088</ele>
        <time>2020-07-07T11:35:25.000Z</time>
      </trkpt>
      <trkpt lat="44.38956" lon="6.40291">
        <ele>2088</ele>
        <time>2020-07-07T11:35:26.000Z</time>
      </trkpt>
      <trkpt lat="44.38955" lon="6.40292">
        <ele>2088</ele>
        <time>2020-07-07T11:35:27.000Z</time>
      </trkpt>
      <trkpt lat="44.38953" lon="6.40293">
        <ele>2088</ele>
        <time>2020-07-07T11:35:28.000Z</time>
      </trkpt>
      <trkpt lat="44.38951" lon="6.40294">
        <ele>2088</ele>
        <time>2020-07-07T11:35:29.000Z</time>
      </trkpt>
      <trkpt lat="44.3895" lon="6.40294">
        <ele>2088</ele>
        <time>2020-07-07T11:35:30.000Z</time>
      </trkpt>
      <trkpt lat="44.38949" lon="6.40295">
        <ele>2088</ele>
        <time>2020-07-07T11:35:31.000Z</time>
      </trkpt>
      <trkpt lat="44.38947" lon="6.40296">
        <ele>2088</ele>
        <time>2020-07-07T11:35:32.000Z</time>
      </trkpt>
      <trkpt lat="44.38947" lon="6.40297">
        <ele>2088</ele>
        <time>2020-07-07T11:35:33.000Z</time>
      </trkpt>
      <trkpt lat="44.38946" lon="6.40296">
        <ele>2088</ele>
        <time>2020-07-07T11:35:34.000Z</time>
      </trkpt>
      <trkpt lat="44.38944" lon="6.40296">
        <ele>2088</ele>
        <time>2020-07-07T11:35:35.000Z</time>
      </trkpt>
      <trkpt lat="44.38944" lon="6.40296">
        <ele>2088</ele>
        <time>2020-07-07T11:35:36.000Z</time>
      </trkpt>
      <trkpt lat="44.38943" lon="6.40295">
        <ele>2089</ele>
        <time>2020-07-07T11:35:37.000Z</time>
      </trkpt>
      <trkpt lat="44.38942" lon="6.40295">
        <ele>2089</ele>
        <time>2020-07-07T11:35:38.000Z</time>
      </trkpt>
      <trkpt lat="44.3894" lon="6.40295">
        <ele>2089</ele>
        <time>2020-07-07T11:35:39.000Z</time>
      </trkpt>
      <trkpt lat="44.38939" lon="6.40295">
        <ele>2089</ele>
        <time>2020-07-07T11:35:40.000Z</time>
      </trkpt>
      <trkpt lat="44.38938" lon="6.40294">
        <ele>2089</ele>
        <time>2020-07-07T11:35:41.000Z</time>
      </trkpt>
      <trkpt lat="44.38937" lon="6.40294">
        <ele>2089</ele>
        <time>2020-07-07T11:35:42.000Z</time>
      </trkpt>
      <trkpt lat="44.38936" lon="6.40293">
        <ele>2089</ele>
        <time>2020-07-07T11:35:43.000Z</time>
      </trkpt>
      <trkpt lat="44.38935" lon="6.40293">
        <ele>2089</ele>
        <time>2020-07-07T11:35:44.000Z</time>
      </trkpt>
      <trkpt lat="44.38935" lon="6.40292">
        <ele>2089</ele>
        <time>2020-07-07T11:35:45.000Z</time>
      </trkpt>
      <trkpt lat="44.38935" lon="6.40292">
        <ele>2089</ele>
        <time>2020-07-07T11:35:46.000Z</time>
      </trkpt>
      <trkpt lat="44.38934" lon="6.40291">
        <ele>2089</ele>
        <time>2020-07-07T11:35:47.000Z</time>
      </trkpt>
      <trkpt lat="44.38934" lon="6.40291">
        <ele>2089</ele>
        <time>2020-07-07T11:35:48.000Z</time>
      </trkpt>
      <trkpt lat="44.38932" lon="6.40291">
        <ele>2089</ele>
        <time>2020-07-07T11:35:49.000Z</time>
      </trkpt>
      <trkpt lat="44.38931" lon="6.40291">
        <ele>2089</ele>
        <time>2020-07-07T11:35:50.000Z</time>
      </trkpt>
      <trkpt lat="44.3893" lon="6.40291">
        <ele>2089</ele>
        <time>2020-07-07T11:35:51.000Z</time>
      </trkpt>
      <trkpt lat="44.38929" lon="6.40291">
        <ele>2090</ele>
        <time>2020-07-07T11:35:52.000Z</time>
      </trkpt>
      <trkpt lat="44.38928" lon="6.40291">
        <ele>2090</ele>
        <time>2020-07-07T11:35:53.000Z</time>
      </trkpt>
      <trkpt lat="44.38928" lon="6.40291">
        <ele>2090</ele>
        <time>2020-07-07T11:35:54.000Z</time>
      </trkpt>
      <trkpt lat="44.38928" lon="6.40292">
        <ele>2090</ele>
        <time>2020-07-07T11:35:55.000Z</time>
      </trkpt>
      <trkpt lat="44.38928" lon="6.40292">
        <ele>2090</ele>
        <time>2020-07-07T11:35:56.000Z</time>
      </trkpt>
      <trkpt lat="44.38928" lon="6.40292">
        <ele>2091</ele>
        <time>2020-07-07T11:35:57.000Z</time>
      </trkpt>
      <trkpt lat="44.38927" lon="6.40292">
        <ele>2091</ele>
        <time>2020-07-07T11:35:58.000Z</time>
      </trkpt>
      <trkpt lat="44.38927" lon="6.40292">
        <ele>2091</ele>
        <time>2020-07-07T11:35:59.000Z</time>
      </trkpt>
      <trkpt lat="44.38926" lon="6.40292">
        <ele>2091</ele>
        <time>2020-07-07T11:36:00.000Z</time>
      </trkpt>
      <trkpt lat="44.38926" lon="6.40292">
        <ele>2091</ele>
        <time>2020-07-07T11:36:01.000Z</time>
      </trkpt>
      <trkpt lat="44.38926" lon="6.40293">
        <ele>2091</ele>
        <time>2020-07-07T11:36:02.000Z</time>
      </trkpt>
      <trkpt lat="44.38926" lon="6.40293">
        <ele>2091</ele>
        <time>2020-07-07T11:36:03.000Z</time>
      </trkpt>
      <trkpt lat="44.38926" lon="6.40293">
        <ele>2091</ele>
        <time>2020-07-07T11:36:04.000Z</time>
      </trkpt>
      <trkpt lat="44.38926" lon="6.40293">
        <ele>2091</ele>
        <time>2020-07-07T11:36:05.000Z</time>
      </trkpt>
      <trkpt lat="44.38926" lon="6.40293">
        <ele>2091</ele>
        <time>2020-07-07T11:36:06.000Z</time>
      </trkpt>
      <trkpt lat="44.38926" lon="6.40292">
        <ele>2092</ele>
        <time>2020-07-07T11:36:07.000Z</time>
      </trkpt>
      <trkpt lat="44.38926" lon="6.40292">
        <ele>2092</ele>
        <time>2020-07-07T11:36:08.000Z</time>
      </trkpt>
      <trkpt lat="44.38926" lon="6.40292">
        <ele>2092</ele>
        <time>2020-07-07T11:36:09.000Z</time>
      </trkpt>
      <trkpt lat="44.38926" lon="6.40293">
        <ele>2092</ele>
        <time>2020-07-07T11:36:10.000Z</time>
      </trkpt>
      <trkpt lat="44.38926" lon="6.40293">
        <ele>2092</ele>
        <time>2020-07-07T11:36:11.000Z</time>
      </trkpt>
      <trkpt lat="44.38926" lon="6.40292">
        <ele>2092</ele>
        <time>2020-07-07T11:36:12.000Z</time>
      </trkpt>
      <trkpt lat="44.38926" lon="6.40293">
        <ele>2092</ele>
        <time>2020-07-07T11:36:13.000Z</time>
      </trkpt>
      <trkpt lat="44.38925" lon="6.40292">
        <ele>2092</ele>
        <time>2020-07-07T11:36:14.000Z</time>
      </trkpt>
      <trkpt lat="44.38924" lon="6.40293">
        <ele>2092</ele>
        <time>2020-07-07T11:36:15.000Z</time>
      </trkpt>
      <trkpt lat="44.38922" lon="6.40293">
        <ele>2092</ele>
        <time>2020-07-07T11:36:16.000Z</time>
      </trkpt>
      <trkpt lat="44.3892" lon="6.40293">
        <ele>2092</ele>
        <time>2020-07-07T11:36:17.000Z</time>
      </trkpt>
      <trkpt lat="44.3892" lon="6.40294">
        <ele>2092</ele>
        <time>2020-07-07T11:36:18.000Z</time>
      </trkpt>
      <trkpt lat="44.38919" lon="6.40294">
        <ele>2092</ele>
        <time>2020-07-07T11:36:19.000Z</time>
      </trkpt>
      <trkpt lat="44.38918" lon="6.40293">
        <ele>2092</ele>
        <time>2020-07-07T11:36:20.000Z</time>
      </trkpt>
      <trkpt lat="44.38917" lon="6.40293">
        <ele>2092</ele>
        <time>2020-07-07T11:36:21.000Z</time>
      </trkpt>
      <trkpt lat="44.38917" lon="6.40292">
        <ele>2092</ele>
        <time>2020-07-07T11:36:22.000Z</time>
      </trkpt>
      <trkpt lat="44.38916" lon="6.40292">
        <ele>2092</ele>
        <time>2020-07-07T11:36:23.000Z</time>
      </trkpt>
      <trkpt lat="44.38915" lon="6.40291">
        <ele>2092</ele>
        <time>2020-07-07T11:36:24.000Z</time>
      </trkpt>
      <trkpt lat="44.38914" lon="6.4029">
        <ele>2092</ele>
        <time>2020-07-07T11:36:25.000Z</time>
      </trkpt>
      <trkpt lat="44.38914" lon="6.4029">
        <ele>2092</ele>
        <time>2020-07-07T11:36:26.000Z</time>
      </trkpt>
      <trkpt lat="44.38913" lon="6.40289">
        <ele>2092</ele>
        <time>2020-07-07T11:36:27.000Z</time>
      </trkpt>
      <trkpt lat="44.38912" lon="6.40288">
        <ele>2092</ele>
        <time>2020-07-07T11:36:28.000Z</time>
      </trkpt>
      <trkpt lat="44.38912" lon="6.40288">
        <ele>2092</ele>
        <time>2020-07-07T11:36:29.000Z</time>
      </trkpt>
      <trkpt lat="44.38911" lon="6.40287">
        <ele>2092</ele>
        <time>2020-07-07T11:36:30.000Z</time>
      </trkpt>
      <trkpt lat="44.3891" lon="6.40286">
        <ele>2092</ele>
        <time>2020-07-07T11:36:31.000Z</time>
      </trkpt>
      <trkpt lat="44.3891" lon="6.40285">
        <ele>2092</ele>
        <time>2020-07-07T11:36:32.000Z</time>
      </trkpt>
      <trkpt lat="44.38909" lon="6.40284">
        <ele>2092</ele>
        <time>2020-07-07T11:36:33.000Z</time>
      </trkpt>
      <trkpt lat="44.38909" lon="6.40284">
        <ele>2092</ele>
        <time>2020-07-07T11:36:34.000Z</time>
      </trkpt>
      <trkpt lat="44.38908" lon="6.40283">
        <ele>2092</ele>
        <time>2020-07-07T11:36:35.000Z</time>
      </trkpt>
      <trkpt lat="44.38907" lon="6.40282">
        <ele>2092</ele>
        <time>2020-07-07T11:36:36.000Z</time>
      </trkpt>
      <trkpt lat="44.38907" lon="6.40281">
        <ele>2092</ele>
        <time>2020-07-07T11:36:37.000Z</time>
      </trkpt>
      <trkpt lat="44.38907" lon="6.40279">
        <ele>2092</ele>
        <time>2020-07-07T11:36:38.000Z</time>
      </trkpt>
      <trkpt lat="44.38906" lon="6.40278">
        <ele>2092</ele>
        <time>2020-07-07T11:36:39.000Z</time>
      </trkpt>
      <trkpt lat="44.38906" lon="6.40276">
        <ele>2092</ele>
        <time>2020-07-07T11:36:40.000Z</time>
      </trkpt>
      <trkpt lat="44.38905" lon="6.40275">
        <ele>2092</ele>
        <time>2020-07-07T11:36:41.000Z</time>
      </trkpt>
      <trkpt lat="44.38905" lon="6.40274">
        <ele>2092</ele>
        <time>2020-07-07T11:36:42.000Z</time>
      </trkpt>
      <trkpt lat="44.38905" lon="6.40272">
        <ele>2092</ele>
        <time>2020-07-07T11:36:43.000Z</time>
      </trkpt>
      <trkpt lat="44.38904" lon="6.4027">
        <ele>2092</ele>
        <time>2020-07-07T11:36:44.000Z</time>
      </trkpt>
      <trkpt lat="44.38904" lon="6.40268">
        <ele>2092</ele>
        <time>2020-07-07T11:36:45.000Z</time>
      </trkpt>
      <trkpt lat="44.38904" lon="6.40268">
        <ele>2092</ele>
        <time>2020-07-07T11:36:46.000Z</time>
      </trkpt>
      <trkpt lat="44.38904" lon="6.40266">
        <ele>2092</ele>
        <time>2020-07-07T11:36:47.000Z</time>
      </trkpt>
      <trkpt lat="44.38905" lon="6.40264">
        <ele>2092</ele>
        <time>2020-07-07T11:36:48.000Z</time>
      </trkpt>
      <trkpt lat="44.38905" lon="6.40263">
        <ele>2092</ele>
        <time>2020-07-07T11:36:49.000Z</time>
      </trkpt>
      <trkpt lat="44.38905" lon="6.40261">
        <ele>2092</ele>
        <time>2020-07-07T11:36:50.000Z</time>
      </trkpt>
      <trkpt lat="44.38905" lon="6.40259">
        <ele>2092</ele>
        <time>2020-07-07T11:36:51.000Z</time>
      </trkpt>
      <trkpt lat="44.38905" lon="6.40258">
        <ele>2092</ele>
        <time>2020-07-07T11:36:52.000Z</time>
      </trkpt>
      <trkpt lat="44.38905" lon="6.40257">
        <ele>2092</ele>
        <time>2020-07-07T11:36:53.000Z</time>
      </trkpt>
      <trkpt lat="44.38905" lon="6.40256">
        <ele>2093</ele>
        <time>2020-07-07T11:36:54.000Z</time>
      </trkpt>
      <trkpt lat="44.38906" lon="6.40254">
        <ele>2093</ele>
        <time>2020-07-07T11:36:55.000Z</time>
      </trkpt>
      <trkpt lat="44.38906" lon="6.40251">
        <ele>2093</ele>
        <time>2020-07-07T11:36:56.000Z</time>
      </trkpt>
      <trkpt lat="44.38907" lon="6.40249">
        <ele>2093</ele>
        <time>2020-07-07T11:36:57.000Z</time>
      </trkpt>
      <trkpt lat="44.38907" lon="6.40248">
        <ele>2093</ele>
        <time>2020-07-07T11:36:58.000Z</time>
      </trkpt>
      <trkpt lat="44.38907" lon="6.40246">
        <ele>2093</ele>
        <time>2020-07-07T11:36:59.000Z</time>
      </trkpt>
      <trkpt lat="44.38907" lon="6.40244">
        <ele>2093</ele>
        <time>2020-07-07T11:37:00.000Z</time>
      </trkpt>
      <trkpt lat="44.38908" lon="6.40243">
        <ele>2093</ele>
        <time>2020-07-07T11:37:01.000Z</time>
      </trkpt>
      <trkpt lat="44.38907" lon="6.40241">
        <ele>2093</ele>
        <time>2020-07-07T11:37:02.000Z</time>
      </trkpt>
      <trkpt lat="44.38907" lon="6.40239">
        <ele>2093</ele>
        <time>2020-07-07T11:37:03.000Z</time>
      </trkpt>
      <trkpt lat="44.38907" lon="6.40238">
        <ele>2093</ele>
        <time>2020-07-07T11:37:04.000Z</time>
      </trkpt>
      <trkpt lat="44.38907" lon="6.40237">
        <ele>2093</ele>
        <time>2020-07-07T11:37:05.000Z</time>
      </trkpt>
      <trkpt lat="44.38906" lon="6.40236">
        <ele>2093</ele>
        <time>2020-07-07T11:37:06.000Z</time>
      </trkpt>
      <trkpt lat="44.38906" lon="6.40234">
        <ele>2093</ele>
        <time>2020-07-07T11:37:07.000Z</time>
      </trkpt>
      <trkpt lat="44.38905" lon="6.40234">
        <ele>2093</ele>
        <time>2020-07-07T11:37:08.000Z</time>
      </trkpt>
      <trkpt lat="44.38905" lon="6.40232">
        <ele>2093</ele>
        <time>2020-07-07T11:37:09.000Z</time>
      </trkpt>
      <trkpt lat="44.38905" lon="6.40231">
        <ele>2093</ele>
        <time>2020-07-07T11:37:10.000Z</time>
      </trkpt>
      <trkpt lat="44.38904" lon="6.40229">
        <ele>2093</ele>
        <time>2020-07-07T11:37:11.000Z</time>
      </trkpt>
      <trkpt lat="44.38904" lon="6.40228">
        <ele>2093</ele>
        <time>2020-07-07T11:37:12.000Z</time>
      </trkpt>
      <trkpt lat="44.38903" lon="6.40228">
        <ele>2093</ele>
        <time>2020-07-07T11:37:13.000Z</time>
      </trkpt>
      <trkpt lat="44.38903" lon="6.40227">
        <ele>2093</ele>
        <time>2020-07-07T11:37:14.000Z</time>
      </trkpt>
      <trkpt lat="44.38902" lon="6.40226">
        <ele>2093</ele>
        <time>2020-07-07T11:37:15.000Z</time>
      </trkpt>
      <trkpt lat="44.38901" lon="6.40224">
        <ele>2093</ele>
        <time>2020-07-07T11:37:16.000Z</time>
      </trkpt>
      <trkpt lat="44.38901" lon="6.40222">
        <ele>2093</ele>
        <time>2020-07-07T11:37:17.000Z</time>
      </trkpt>
      <trkpt lat="44.389" lon="6.40221">
        <ele>2093</ele>
        <time>2020-07-07T11:37:18.000Z</time>
      </trkpt>
      <trkpt lat="44.389" lon="6.4022">
        <ele>2093</ele>
        <time>2020-07-07T11:37:19.000Z</time>
      </trkpt>
      <trkpt lat="44.38899" lon="6.40219">
        <ele>2093</ele>
        <time>2020-07-07T11:37:20.000Z</time>
      </trkpt>
      <trkpt lat="44.38898" lon="6.40218">
        <ele>2093</ele>
        <time>2020-07-07T11:37:21.000Z</time>
      </trkpt>
      <trkpt lat="44.38897" lon="6.40217">
        <ele>2093</ele>
        <time>2020-07-07T11:37:22.000Z</time>
      </trkpt>
      <trkpt lat="44.38897" lon="6.40217">
        <ele>2093</ele>
        <time>2020-07-07T11:37:23.000Z</time>
      </trkpt>
      <trkpt lat="44.38895" lon="6.40216">
        <ele>2093</ele>
        <time>2020-07-07T11:37:24.000Z</time>
      </trkpt>
      <trkpt lat="44.38894" lon="6.40215">
        <ele>2093</ele>
        <time>2020-07-07T11:37:25.000Z</time>
      </trkpt>
      <trkpt lat="44.38894" lon="6.40215">
        <ele>2093</ele>
        <time>2020-07-07T11:37:26.000Z</time>
      </trkpt>
      <trkpt lat="44.38893" lon="6.40214">
        <ele>2093</ele>
        <time>2020-07-07T11:37:27.000Z</time>
      </trkpt>
      <trkpt lat="44.38892" lon="6.40213">
        <ele>2093</ele>
        <time>2020-07-07T11:37:28.000Z</time>
      </trkpt>
      <trkpt lat="44.38891" lon="6.40212">
        <ele>2093</ele>
        <time>2020-07-07T11:37:29.000Z</time>
      </trkpt>
      <trkpt lat="44.3889" lon="6.40211">
        <ele>2093</ele>
        <time>2020-07-07T11:37:30.000Z</time>
      </trkpt>
      <trkpt lat="44.38889" lon="6.4021">
        <ele>2093</ele>
        <time>2020-07-07T11:37:31.000Z</time>
      </trkpt>
      <trkpt lat="44.38888" lon="6.4021">
        <ele>2093</ele>
        <time>2020-07-07T11:37:32.000Z</time>
      </trkpt>
      <trkpt lat="44.38887" lon="6.4021">
        <ele>2093</ele>
        <time>2020-07-07T11:37:33.000Z</time>
      </trkpt>
      <trkpt lat="44.38885" lon="6.4021">
        <ele>2093</ele>
        <time>2020-07-07T11:37:34.000Z</time>
      </trkpt>
      <trkpt lat="44.38884" lon="6.4021">
        <ele>2093</ele>
        <time>2020-07-07T11:37:35.000Z</time>
      </trkpt>
      <trkpt lat="44.38883" lon="6.40209">
        <ele>2093</ele>
        <time>2020-07-07T11:37:36.000Z</time>
      </trkpt>
      <trkpt lat="44.38882" lon="6.40209">
        <ele>2093</ele>
        <time>2020-07-07T11:37:37.000Z</time>
      </trkpt>
      <trkpt lat="44.38881" lon="6.40209">
        <ele>2093</ele>
        <time>2020-07-07T11:37:38.000Z</time>
      </trkpt>
      <trkpt lat="44.3888" lon="6.40209">
        <ele>2093</ele>
        <time>2020-07-07T11:37:39.000Z</time>
      </trkpt>
      <trkpt lat="44.38879" lon="6.40209">
        <ele>2093</ele>
        <time>2020-07-07T11:37:40.000Z</time>
      </trkpt>
      <trkpt lat="44.38878" lon="6.40209">
        <ele>2093</ele>
        <time>2020-07-07T11:37:41.000Z</time>
      </trkpt>
      <trkpt lat="44.38877" lon="6.40209">
        <ele>2093</ele>
        <time>2020-07-07T11:37:42.000Z</time>
      </trkpt>
      <trkpt lat="44.38876" lon="6.40209">
        <ele>2093</ele>
        <time>2020-07-07T11:37:43.000Z</time>
      </trkpt>
      <trkpt lat="44.38875" lon="6.40209">
        <ele>2093</ele>
        <time>2020-07-07T11:37:44.000Z</time>
      </trkpt>
      <trkpt lat="44.38874" lon="6.40209">
        <ele>2093</ele>
        <time>2020-07-07T11:37:45.000Z</time>
      </trkpt>
      <trkpt lat="44.38874" lon="6.4021">
        <ele>2093</ele>
        <time>2020-07-07T11:37:46.000Z</time>
      </trkpt>
      <trkpt lat="44.38872" lon="6.4021">
        <ele>2093</ele>
        <time>2020-07-07T11:37:47.000Z</time>
      </trkpt>
      <trkpt lat="44.38872" lon="6.40211">
        <ele>2093</ele>
        <time>2020-07-07T11:37:48.000Z</time>
      </trkpt>
      <trkpt lat="44.38871" lon="6.40211">
        <ele>2093</ele>
        <time>2020-07-07T11:37:49.000Z</time>
      </trkpt>
      <trkpt lat="44.3887" lon="6.40212">
        <ele>2093</ele>
        <time>2020-07-07T11:37:50.000Z</time>
      </trkpt>
      <trkpt lat="44.38869" lon="6.40212">
        <ele>2093</ele>
        <time>2020-07-07T11:37:51.000Z</time>
      </trkpt>
      <trkpt lat="44.38868" lon="6.40212">
        <ele>2094</ele>
        <time>2020-07-07T11:37:52.000Z</time>
      </trkpt>
      <trkpt lat="44.38867" lon="6.40213">
        <ele>2094</ele>
        <time>2020-07-07T11:37:53.000Z</time>
      </trkpt>
      <trkpt lat="44.38866" lon="6.40213">
        <ele>2094</ele>
        <time>2020-07-07T11:37:54.000Z</time>
      </trkpt>
      <trkpt lat="44.38865" lon="6.40214">
        <ele>2094</ele>
        <time>2020-07-07T11:37:55.000Z</time>
      </trkpt>
      <trkpt lat="44.38864" lon="6.40215">
        <ele>2094</ele>
        <time>2020-07-07T11:37:56.000Z</time>
      </trkpt>
      <trkpt lat="44.38863" lon="6.40215">
        <ele>2094</ele>
        <time>2020-07-07T11:37:57.000Z</time>
      </trkpt>
      <trkpt lat="44.38862" lon="6.40216">
        <ele>2094</ele>
        <time>2020-07-07T11:37:58.000Z</time>
      </trkpt>
      <trkpt lat="44.38861" lon="6.40217">
        <ele>2094</ele>
        <time>2020-07-07T11:37:59.000Z</time>
      </trkpt>
      <trkpt lat="44.3886" lon="6.40217">
        <ele>2094</ele>
        <time>2020-07-07T11:38:00.000Z</time>
      </trkpt>
      <trkpt lat="44.38859" lon="6.40217">
        <ele>2094</ele>
        <time>2020-07-07T11:38:01.000Z</time>
      </trkpt>
      <trkpt lat="44.38858" lon="6.40218">
        <ele>2095</ele>
        <time>2020-07-07T11:38:02.000Z</time>
      </trkpt>
      <trkpt lat="44.38857" lon="6.40218">
        <ele>2095</ele>
        <time>2020-07-07T11:38:03.000Z</time>
      </trkpt>
      <trkpt lat="44.38856" lon="6.40219">
        <ele>2095</ele>
        <time>2020-07-07T11:38:04.000Z</time>
      </trkpt>
      <trkpt lat="44.38855" lon="6.40219">
        <ele>2095</ele>
        <time>2020-07-07T11:38:05.000Z</time>
      </trkpt>
      <trkpt lat="44.38854" lon="6.4022">
        <ele>2095</ele>
        <time>2020-07-07T11:38:06.000Z</time>
      </trkpt>
      <trkpt lat="44.38853" lon="6.4022">
        <ele>2095</ele>
        <time>2020-07-07T11:38:07.000Z</time>
      </trkpt>
      <trkpt lat="44.38852" lon="6.4022">
        <ele>2095</ele>
        <time>2020-07-07T11:38:08.000Z</time>
      </trkpt>
      <trkpt lat="44.38851" lon="6.4022">
        <ele>2095</ele>
        <time>2020-07-07T11:38:09.000Z</time>
      </trkpt>
      <trkpt lat="44.3885" lon="6.4022">
        <ele>2095</ele>
        <time>2020-07-07T11:38:10.000Z</time>
      </trkpt>
      <trkpt lat="44.38849" lon="6.40221">
        <ele>2095</ele>
        <time>2020-07-07T11:38:11.000Z</time>
      </trkpt>
      <trkpt lat="44.38848" lon="6.40221">
        <ele>2095</ele>
        <time>2020-07-07T11:38:12.000Z</time>
      </trkpt>
      <trkpt lat="44.38847" lon="6.40221">
        <ele>2095</ele>
        <time>2020-07-07T11:38:13.000Z</time>
      </trkpt>
      <trkpt lat="44.38846" lon="6.40222">
        <ele>2095</ele>
        <time>2020-07-07T11:38:14.000Z</time>
      </trkpt>
      <trkpt lat="44.38845" lon="6.40223">
        <ele>2095</ele>
        <time>2020-07-07T11:38:15.000Z</time>
      </trkpt>
      <trkpt lat="44.38845" lon="6.40223">
        <ele>2095</ele>
        <time>2020-07-07T11:38:16.000Z</time>
      </trkpt>
      <trkpt lat="44.38844" lon="6.40224">
        <ele>2095</ele>
        <time>2020-07-07T11:38:17.000Z</time>
      </trkpt>
      <trkpt lat="44.38843" lon="6.40224">
        <ele>2095</ele>
        <time>2020-07-07T11:38:18.000Z</time>
      </trkpt>
      <trkpt lat="44.38841" lon="6.40224">
        <ele>2095</ele>
        <time>2020-07-07T11:38:19.000Z</time>
      </trkpt>
      <trkpt lat="44.3884" lon="6.40224">
        <ele>2095</ele>
        <time>2020-07-07T11:38:20.000Z</time>
      </trkpt>
      <trkpt lat="44.38839" lon="6.40225">
        <ele>2095</ele>
        <time>2020-07-07T11:38:21.000Z</time>
      </trkpt>
      <trkpt lat="44.38838" lon="6.40225">
        <ele>2095</ele>
        <time>2020-07-07T11:38:22.000Z</time>
      </trkpt>
      <trkpt lat="44.38837" lon="6.40225">
        <ele>2095</ele>
        <time>2020-07-07T11:38:23.000Z</time>
      </trkpt>
      <trkpt lat="44.38836" lon="6.40226">
        <ele>2095</ele>
        <time>2020-07-07T11:38:24.000Z</time>
      </trkpt>
      <trkpt lat="44.38836" lon="6.40226">
        <ele>2095</ele>
        <time>2020-07-07T11:38:25.000Z</time>
      </trkpt>
      <trkpt lat="44.38834" lon="6.40227">
        <ele>2095</ele>
        <time>2020-07-07T11:38:26.000Z</time>
      </trkpt>
      <trkpt lat="44.38833" lon="6.40227">
        <ele>2095</ele>
        <time>2020-07-07T11:38:27.000Z</time>
      </trkpt>
      <trkpt lat="44.38832" lon="6.40227">
        <ele>2095</ele>
        <time>2020-07-07T11:38:28.000Z</time>
      </trkpt>
      <trkpt lat="44.38831" lon="6.40227">
        <ele>2095</ele>
        <time>2020-07-07T11:38:29.000Z</time>
      </trkpt>
      <trkpt lat="44.3883" lon="6.40227">
        <ele>2095</ele>
        <time>2020-07-07T11:38:30.000Z</time>
      </trkpt>
      <trkpt lat="44.38829" lon="6.40227">
        <ele>2095</ele>
        <time>2020-07-07T11:38:31.000Z</time>
      </trkpt>
      <trkpt lat="44.38828" lon="6.40227">
        <ele>2095</ele>
        <time>2020-07-07T11:38:32.000Z</time>
      </trkpt>
      <trkpt lat="44.38827" lon="6.40227">
        <ele>2095</ele>
        <time>2020-07-07T11:38:33.000Z</time>
      </trkpt>
      <trkpt lat="44.38826" lon="6.40227">
        <ele>2095</ele>
        <time>2020-07-07T11:38:34.000Z</time>
      </trkpt>
      <trkpt lat="44.38825" lon="6.40227">
        <ele>2095</ele>
        <time>2020-07-07T11:38:35.000Z</time>
      </trkpt>
      <trkpt lat="44.38824" lon="6.40227">
        <ele>2095</ele>
        <time>2020-07-07T11:38:36.000Z</time>
      </trkpt>
      <trkpt lat="44.38823" lon="6.40227">
        <ele>2095</ele>
        <time>2020-07-07T11:38:37.000Z</time>
      </trkpt>
      <trkpt lat="44.38822" lon="6.40227">
        <ele>2095</ele>
        <time>2020-07-07T11:38:38.000Z</time>
      </trkpt>
      <trkpt lat="44.38821" lon="6.40227">
        <ele>2095</ele>
        <time>2020-07-07T11:38:39.000Z</time>
      </trkpt>
      <trkpt lat="44.3882" lon="6.40227">
        <ele>2095</ele>
        <time>2020-07-07T11:38:40.000Z</time>
      </trkpt>
      <trkpt lat="44.38819" lon="6.40228">
        <ele>2095</ele>
        <time>2020-07-07T11:38:41.000Z</time>
      </trkpt>
      <trkpt lat="44.38818" lon="6.40228">
        <ele>2095</ele>
        <time>2020-07-07T11:38:42.000Z</time>
      </trkpt>
      <trkpt lat="44.38817" lon="6.40228">
        <ele>2095</ele>
        <time>2020-07-07T11:38:43.000Z</time>
      </trkpt>
      <trkpt lat="44.38817" lon="6.40228">
        <ele>2095</ele>
        <time>2020-07-07T11:38:44.000Z</time>
      </trkpt>
      <trkpt lat="44.38815" lon="6.40228">
        <ele>2095</ele>
        <time>2020-07-07T11:38:45.000Z</time>
      </trkpt>
      <trkpt lat="44.38814" lon="6.40228">
        <ele>2095</ele>
        <time>2020-07-07T11:38:46.000Z</time>
      </trkpt>
      <trkpt lat="44.38814" lon="6.40228">
        <ele>2095</ele>
        <time>2020-07-07T11:38:47.000Z</time>
      </trkpt>
      <trkpt lat="44.38813" lon="6.40227">
        <ele>2095</ele>
        <time>2020-07-07T11:38:48.000Z</time>
      </trkpt>
      <trkpt lat="44.38812" lon="6.40227">
        <ele>2095</ele>
        <time>2020-07-07T11:38:49.000Z</time>
      </trkpt>
      <trkpt lat="44.38811" lon="6.40227">
        <ele>2096</ele>
        <time>2020-07-07T11:38:50.000Z</time>
      </trkpt>
      <trkpt lat="44.3881" lon="6.40227">
        <ele>2096</ele>
        <time>2020-07-07T11:38:51.000Z</time>
      </trkpt>
      <trkpt lat="44.38809" lon="6.40226">
        <ele>2096</ele>
        <time>2020-07-07T11:38:52.000Z</time>
      </trkpt>
      <trkpt lat="44.38808" lon="6.40226">
        <ele>2096</ele>
        <time>2020-07-07T11:38:53.000Z</time>
      </trkpt>
      <trkpt lat="44.38807" lon="6.40225">
        <ele>2096</ele>
        <time>2020-07-07T11:38:54.000Z</time>
      </trkpt>
      <trkpt lat="44.38806" lon="6.40225">
        <ele>2096</ele>
        <time>2020-07-07T11:38:55.000Z</time>
      </trkpt>
      <trkpt lat="44.38805" lon="6.40224">
        <ele>2096</ele>
        <time>2020-07-07T11:38:56.000Z</time>
      </trkpt>
      <trkpt lat="44.38804" lon="6.40224">
        <ele>2097</ele>
        <time>2020-07-07T11:38:57.000Z</time>
      </trkpt>
      <trkpt lat="44.38803" lon="6.40223">
        <ele>2097</ele>
        <time>2020-07-07T11:38:58.000Z</time>
      </trkpt>
      <trkpt lat="44.38802" lon="6.40223">
        <ele>2097</ele>
        <time>2020-07-07T11:38:59.000Z</time>
      </trkpt>
      <trkpt lat="44.38801" lon="6.40222">
        <ele>2097</ele>
        <time>2020-07-07T11:39:00.000Z</time>
      </trkpt>
      <trkpt lat="44.388" lon="6.40222">
        <ele>2097</ele>
        <time>2020-07-07T11:39:01.000Z</time>
      </trkpt>
      <trkpt lat="44.38799" lon="6.40221">
        <ele>2097</ele>
        <time>2020-07-07T11:39:02.000Z</time>
      </trkpt>
      <trkpt lat="44.38798" lon="6.40221">
        <ele>2097</ele>
        <time>2020-07-07T11:39:03.000Z</time>
      </trkpt>
      <trkpt lat="44.38797" lon="6.4022">
        <ele>2097</ele>
        <time>2020-07-07T11:39:04.000Z</time>
      </trkpt>
      <trkpt lat="44.38796" lon="6.40219">
        <ele>2097</ele>
        <time>2020-07-07T11:39:05.000Z</time>
      </trkpt>
      <trkpt lat="44.38795" lon="6.4022">
        <ele>2097</ele>
        <time>2020-07-07T11:39:06.000Z</time>
      </trkpt>
      <trkpt lat="44.38794" lon="6.4022">
        <ele>2097</ele>
        <time>2020-07-07T11:39:07.000Z</time>
      </trkpt>
      <trkpt lat="44.38793" lon="6.40219">
        <ele>2097</ele>
        <time>2020-07-07T11:39:08.000Z</time>
      </trkpt>
      <trkpt lat="44.38791" lon="6.40219">
        <ele>2097</ele>
        <time>2020-07-07T11:39:09.000Z</time>
      </trkpt>
      <trkpt lat="44.3879" lon="6.40218">
        <ele>2097</ele>
        <time>2020-07-07T11:39:10.000Z</time>
      </trkpt>
      <trkpt lat="44.38789" lon="6.40218">
        <ele>2097</ele>
        <time>2020-07-07T11:39:11.000Z</time>
      </trkpt>
      <trkpt lat="44.38788" lon="6.40218">
        <ele>2097</ele>
        <time>2020-07-07T11:39:12.000Z</time>
      </trkpt>
      <trkpt lat="44.38787" lon="6.40217">
        <ele>2097</ele>
        <time>2020-07-07T11:39:13.000Z</time>
      </trkpt>
      <trkpt lat="44.38786" lon="6.40217">
        <ele>2097</ele>
        <time>2020-07-07T11:39:14.000Z</time>
      </trkpt>
      <trkpt lat="44.38785" lon="6.40216">
        <ele>2097</ele>
        <time>2020-07-07T11:39:15.000Z</time>
      </trkpt>
      <trkpt lat="44.38784" lon="6.40216">
        <ele>2098</ele>
        <time>2020-07-07T11:39:16.000Z</time>
      </trkpt>
      <trkpt lat="44.38783" lon="6.40215">
        <ele>2098</ele>
        <time>2020-07-07T11:39:17.000Z</time>
      </trkpt>
      <trkpt lat="44.38782" lon="6.40214">
        <ele>2098</ele>
        <time>2020-07-07T11:39:18.000Z</time>
      </trkpt>
      <trkpt lat="44.38782" lon="6.40213">
        <ele>2098</ele>
        <time>2020-07-07T11:39:19.000Z</time>
      </trkpt>
      <trkpt lat="44.38781" lon="6.40213">
        <ele>2098</ele>
        <time>2020-07-07T11:39:20.000Z</time>
      </trkpt>
      <trkpt lat="44.3878" lon="6.40212">
        <ele>2098</ele>
        <time>2020-07-07T11:39:21.000Z</time>
      </trkpt>
      <trkpt lat="44.38779" lon="6.40212">
        <ele>2098</ele>
        <time>2020-07-07T11:39:22.000Z</time>
      </trkpt>
      <trkpt lat="44.38778" lon="6.40211">
        <ele>2098</ele>
        <time>2020-07-07T11:39:23.000Z</time>
      </trkpt>
      <trkpt lat="44.38777" lon="6.4021">
        <ele>2098</ele>
        <time>2020-07-07T11:39:24.000Z</time>
      </trkpt>
      <trkpt lat="44.38776" lon="6.40209">
        <ele>2098</ele>
        <time>2020-07-07T11:39:25.000Z</time>
      </trkpt>
      <trkpt lat="44.38776" lon="6.40209">
        <ele>2098</ele>
        <time>2020-07-07T11:39:26.000Z</time>
      </trkpt>
      <trkpt lat="44.38775" lon="6.40209">
        <ele>2098</ele>
        <time>2020-07-07T11:39:27.000Z</time>
      </trkpt>
      <trkpt lat="44.38775" lon="6.40208">
        <ele>2098</ele>
        <time>2020-07-07T11:39:28.000Z</time>
      </trkpt>
      <trkpt lat="44.38775" lon="6.40208">
        <ele>2098</ele>
        <time>2020-07-07T11:39:29.000Z</time>
      </trkpt>
      <trkpt lat="44.38775" lon="6.40208">
        <ele>2098</ele>
        <time>2020-07-07T11:39:30.000Z</time>
      </trkpt>
      <trkpt lat="44.38775" lon="6.40208">
        <ele>2098</ele>
        <time>2020-07-07T11:39:31.000Z</time>
      </trkpt>
      <trkpt lat="44.38775" lon="6.40208">
        <ele>2098</ele>
        <time>2020-07-07T11:39:32.000Z</time>
      </trkpt>
      <trkpt lat="44.38775" lon="6.40208">
        <ele>2098</ele>
        <time>2020-07-07T11:39:33.000Z</time>
      </trkpt>
      <trkpt lat="44.38775" lon="6.40208">
        <ele>2098</ele>
        <time>2020-07-07T11:39:34.000Z</time>
      </trkpt>
      <trkpt lat="44.38775" lon="6.40208">
        <ele>2098</ele>
        <time>2020-07-07T11:39:35.000Z</time>
      </trkpt>
      <trkpt lat="44.38775" lon="6.40208">
        <ele>2098</ele>
        <time>2020-07-07T11:39:36.000Z</time>
      </trkpt>
      <trkpt lat="44.38775" lon="6.40208">
        <ele>2098</ele>
        <time>2020-07-07T11:39:37.000Z</time>
      </trkpt>
      <trkpt lat="44.38775" lon="6.40208">
        <ele>2098</ele>
        <time>2020-07-07T11:39:38.000Z</time>
      </trkpt>
      <trkpt lat="44.38775" lon="6.40207">
        <ele>2098</ele>
        <time>2020-07-07T11:39:39.000Z</time>
      </trkpt>
      <trkpt lat="44.38774" lon="6.40207">
        <ele>2098</ele>
        <time>2020-07-07T11:39:40.000Z</time>
      </trkpt>
      <trkpt lat="44.38773" lon="6.40206">
        <ele>2098</ele>
        <time>2020-07-07T11:39:41.000Z</time>
      </trkpt>
      <trkpt lat="44.38771" lon="6.40205">
        <ele>2098</ele>
        <time>2020-07-07T11:39:42.000Z</time>
      </trkpt>
      <trkpt lat="44.38771" lon="6.40204">
        <ele>2098</ele>
        <time>2020-07-07T11:39:43.000Z</time>
      </trkpt>
      <trkpt lat="44.3877" lon="6.40203">
        <ele>2099</ele>
        <time>2020-07-07T11:39:44.000Z</time>
      </trkpt>
      <trkpt lat="44.38769" lon="6.40202">
        <ele>2099</ele>
        <time>2020-07-07T11:39:45.000Z</time>
      </trkpt>
      <trkpt lat="44.38768" lon="6.40201">
        <ele>2099</ele>
        <time>2020-07-07T11:39:46.000Z</time>
      </trkpt>
      <trkpt lat="44.38767" lon="6.402">
        <ele>2099</ele>
        <time>2020-07-07T11:39:47.000Z</time>
      </trkpt>
      <trkpt lat="44.38767" lon="6.40199">
        <ele>2099</ele>
        <time>2020-07-07T11:39:48.000Z</time>
      </trkpt>
      <trkpt lat="44.38766" lon="6.40198">
        <ele>2099</ele>
        <time>2020-07-07T11:39:49.000Z</time>
      </trkpt>
      <trkpt lat="44.38765" lon="6.40196">
        <ele>2099</ele>
        <time>2020-07-07T11:39:50.000Z</time>
      </trkpt>
      <trkpt lat="44.38765" lon="6.40195">
        <ele>2099</ele>
        <time>2020-07-07T11:39:51.000Z</time>
      </trkpt>
      <trkpt lat="44.38764" lon="6.40194">
        <ele>2099</ele>
        <time>2020-07-07T11:39:52.000Z</time>
      </trkpt>
      <trkpt lat="44.38764" lon="6.40194">
        <ele>2099</ele>
        <time>2020-07-07T11:39:53.000Z</time>
      </trkpt>
      <trkpt lat="44.38763" lon="6.40194">
        <ele>2098</ele>
        <time>2020-07-07T11:39:54.000Z</time>
      </trkpt>
      <trkpt lat="44.38762" lon="6.40193">
        <ele>2098</ele>
        <time>2020-07-07T11:39:55.000Z</time>
      </trkpt>
      <trkpt lat="44.38761" lon="6.40192">
        <ele>2098</ele>
        <time>2020-07-07T11:39:56.000Z</time>
      </trkpt>
      <trkpt lat="44.3876" lon="6.40191">
        <ele>2099</ele>
        <time>2020-07-07T11:39:57.000Z</time>
      </trkpt>
      <trkpt lat="44.3876" lon="6.4019">
        <ele>2099</ele>
        <time>2020-07-07T11:39:58.000Z</time>
      </trkpt>
      <trkpt lat="44.38759" lon="6.40189">
        <ele>2099</ele>
        <time>2020-07-07T11:39:59.000Z</time>
      </trkpt>
      <trkpt lat="44.38758" lon="6.40188">
        <ele>2099</ele>
        <time>2020-07-07T11:40:00.000Z</time>
      </trkpt>
      <trkpt lat="44.38758" lon="6.40186">
        <ele>2098</ele>
        <time>2020-07-07T11:40:01.000Z</time>
      </trkpt>
      <trkpt lat="44.38757" lon="6.40184">
        <ele>2098</ele>
        <time>2020-07-07T11:40:02.000Z</time>
      </trkpt>
      <trkpt lat="44.38757" lon="6.40183">
        <ele>2098</ele>
        <time>2020-07-07T11:40:03.000Z</time>
      </trkpt>
      <trkpt lat="44.38756" lon="6.40181">
        <ele>2098</ele>
        <time>2020-07-07T11:40:04.000Z</time>
      </trkpt>
      <trkpt lat="44.38756" lon="6.4018">
        <ele>2098</ele>
        <time>2020-07-07T11:40:05.000Z</time>
      </trkpt>
      <trkpt lat="44.38755" lon="6.40179">
        <ele>2098</ele>
        <time>2020-07-07T11:40:06.000Z</time>
      </trkpt>
      <trkpt lat="44.38754" lon="6.40178">
        <ele>2098</ele>
        <time>2020-07-07T11:40:07.000Z</time>
      </trkpt>
      <trkpt lat="44.38753" lon="6.40176">
        <ele>2098</ele>
        <time>2020-07-07T11:40:08.000Z</time>
      </trkpt>
      <trkpt lat="44.38752" lon="6.40176">
        <ele>2098</ele>
        <time>2020-07-07T11:40:09.000Z</time>
      </trkpt>
      <trkpt lat="44.38751" lon="6.40175">
        <ele>2098</ele>
        <time>2020-07-07T11:40:10.000Z</time>
      </trkpt>
      <trkpt lat="44.3875" lon="6.40175">
        <ele>2098</ele>
        <time>2020-07-07T11:40:11.000Z</time>
      </trkpt>
      <trkpt lat="44.38749" lon="6.40174">
        <ele>2098</ele>
        <time>2020-07-07T11:40:12.000Z</time>
      </trkpt>
      <trkpt lat="44.38749" lon="6.40173">
        <ele>2098</ele>
        <time>2020-07-07T11:40:13.000Z</time>
      </trkpt>
      <trkpt lat="44.38748" lon="6.40173">
        <ele>2098</ele>
        <time>2020-07-07T11:40:14.000Z</time>
      </trkpt>
      <trkpt lat="44.38747" lon="6.40172">
        <ele>2098</ele>
        <time>2020-07-07T11:40:15.000Z</time>
      </trkpt>
      <trkpt lat="44.38746" lon="6.40171">
        <ele>2098</ele>
        <time>2020-07-07T11:40:16.000Z</time>
      </trkpt>
      <trkpt lat="44.38745" lon="6.40171">
        <ele>2098</ele>
        <time>2020-07-07T11:40:17.000Z</time>
      </trkpt>
      <trkpt lat="44.38745" lon="6.40171">
        <ele>2098</ele>
        <time>2020-07-07T11:40:18.000Z</time>
      </trkpt>
      <trkpt lat="44.38744" lon="6.40171">
        <ele>2098</ele>
        <time>2020-07-07T11:40:19.000Z</time>
      </trkpt>
      <trkpt lat="44.38743" lon="6.40171">
        <ele>2098</ele>
        <time>2020-07-07T11:40:20.000Z</time>
      </trkpt>
      <trkpt lat="44.38743" lon="6.4017">
        <ele>2098</ele>
        <time>2020-07-07T11:40:21.000Z</time>
      </trkpt>
      <trkpt lat="44.38743" lon="6.4017">
        <ele>2098</ele>
        <time>2020-07-07T11:40:22.000Z</time>
      </trkpt>
      <trkpt lat="44.38742" lon="6.4017">
        <ele>2098</ele>
        <time>2020-07-07T11:40:23.000Z</time>
      </trkpt>
      <trkpt lat="44.38742" lon="6.4017">
        <ele>2098</ele>
        <time>2020-07-07T11:40:24.000Z</time>
      </trkpt>
      <trkpt lat="44.38741" lon="6.4017">
        <ele>2098</ele>
        <time>2020-07-07T11:40:25.000Z</time>
      </trkpt>
      <trkpt lat="44.38741" lon="6.4017">
        <ele>2098</ele>
        <time>2020-07-07T11:40:26.000Z</time>
      </trkpt>
      <trkpt lat="44.38741" lon="6.40169">
        <ele>2098</ele>
        <time>2020-07-07T11:40:27.000Z</time>
      </trkpt>
      <trkpt lat="44.38741" lon="6.40169">
        <ele>2098</ele>
        <time>2020-07-07T11:40:28.000Z</time>
      </trkpt>
      <trkpt lat="44.38741" lon="6.40169">
        <ele>2098</ele>
        <time>2020-07-07T11:40:29.000Z</time>
      </trkpt>
      <trkpt lat="44.38741" lon="6.4017">
        <ele>2098</ele>
        <time>2020-07-07T11:40:30.000Z</time>
      </trkpt>
      <trkpt lat="44.38741" lon="6.4017">
        <ele>2098</ele>
        <time>2020-07-07T11:40:31.000Z</time>
      </trkpt>
      <trkpt lat="44.38741" lon="6.4017">
        <ele>2098</ele>
        <time>2020-07-07T11:40:32.000Z</time>
      </trkpt>
      <trkpt lat="44.38741" lon="6.4017">
        <ele>2098</ele>
        <time>2020-07-07T11:40:33.000Z</time>
      </trkpt>
      <trkpt lat="44.38741" lon="6.4017">
        <ele>2098</ele>
        <time>2020-07-07T11:40:34.000Z</time>
      </trkpt>
      <trkpt lat="44.38741" lon="6.4017">
        <ele>2098</ele>
        <time>2020-07-07T11:40:35.000Z</time>
      </trkpt>
      <trkpt lat="44.38741" lon="6.4017">
        <ele>2098</ele>
        <time>2020-07-07T11:40:36.000Z</time>
      </trkpt>
      <trkpt lat="44.38741" lon="6.4017">
        <ele>2098</ele>
        <time>2020-07-07T11:40:37.000Z</time>
      </trkpt>
      <trkpt lat="44.3874" lon="6.4017">
        <ele>2098</ele>
        <time>2020-07-07T11:40:38.000Z</time>
      </trkpt>
      <trkpt lat="44.38741" lon="6.4017">
        <ele>2098</ele>
        <time>2020-07-07T11:40:39.000Z</time>
      </trkpt>
      <trkpt lat="44.38741" lon="6.4017">
        <ele>2098</ele>
        <time>2020-07-07T11:40:40.000Z</time>
      </trkpt>
      <trkpt lat="44.3874" lon="6.4017">
        <ele>2098</ele>
        <time>2020-07-07T11:40:41.000Z</time>
      </trkpt>
      <trkpt lat="44.3874" lon="6.4017">
        <ele>2098</ele>
        <time>2020-07-07T11:40:42.000Z</time>
      </trkpt>
      <trkpt lat="44.3874" lon="6.4017">
        <ele>2098</ele>
        <time>2020-07-07T11:40:43.000Z</time>
      </trkpt>
      <trkpt lat="44.3874" lon="6.4017">
        <ele>2098</ele>
        <time>2020-07-07T11:40:44.000Z</time>
      </trkpt>
      <trkpt lat="44.3874" lon="6.4017">
        <ele>2098</ele>
        <time>2020-07-07T11:40:45.000Z</time>
      </trkpt>
      <trkpt lat="44.3874" lon="6.4017">
        <ele>2098</ele>
        <time>2020-07-07T11:40:46.000Z</time>
      </trkpt>
      <trkpt lat="44.3874" lon="6.4017">
        <ele>2098</ele>
        <time>2020-07-07T11:40:47.000Z</time>
      </trkpt>
      <trkpt lat="44.3874" lon="6.4017">
        <ele>2098</ele>
        <time>2020-07-07T11:40:48.000Z</time>
      </trkpt>
      <trkpt lat="44.3874" lon="6.4017">
        <ele>2098</ele>
        <time>2020-07-07T11:40:49.000Z</time>
      </trkpt>
      <trkpt lat="44.3874" lon="6.4017">
        <ele>2098</ele>
        <time>2020-07-07T11:40:50.000Z</time>
      </trkpt>
      <trkpt lat="44.3874" lon="6.4017">
        <ele>2098</ele>
        <time>2020-07-07T11:40:51.000Z</time>
      </trkpt>
      <trkpt lat="44.3874" lon="6.4017">
        <ele>2098</ele>
        <time>2020-07-07T11:40:52.000Z</time>
      </trkpt>
      <trkpt lat="44.38738" lon="6.40169">
        <ele>2098</ele>
        <time>2020-07-07T11:40:53.000Z</time>
      </trkpt>
      <trkpt lat="44.38737" lon="6.40169">
        <ele>2098</ele>
        <time>2020-07-07T11:40:54.000Z</time>
      </trkpt>
      <trkpt lat="44.38736" lon="6.40169">
        <ele>2098</ele>
        <time>2020-07-07T11:40:55.000Z</time>
      </trkpt>
      <trkpt lat="44.38735" lon="6.40169">
        <ele>2099</ele>
        <time>2020-07-07T11:40:56.000Z</time>
      </trkpt>
      <trkpt lat="44.38734" lon="6.4017">
        <ele>2099</ele>
        <time>2020-07-07T11:40:57.000Z</time>
      </trkpt>
      <trkpt lat="44.38732" lon="6.4017">
        <ele>2099</ele>
        <time>2020-07-07T11:40:58.000Z</time>
      </trkpt>
      <trkpt lat="44.38731" lon="6.4017">
        <ele>2099</ele>
        <time>2020-07-07T11:40:59.000Z</time>
      </trkpt>
      <trkpt lat="44.38731" lon="6.4017">
        <ele>2099</ele>
        <time>2020-07-07T11:41:00.000Z</time>
      </trkpt>
      <trkpt lat="44.3873" lon="6.4017">
        <ele>2099</ele>
        <time>2020-07-07T11:41:01.000Z</time>
      </trkpt>
      <trkpt lat="44.38729" lon="6.4017">
        <ele>2099</ele>
        <time>2020-07-07T11:41:02.000Z</time>
      </trkpt>
      <trkpt lat="44.38728" lon="6.4017">
        <ele>2099</ele>
        <time>2020-07-07T11:41:03.000Z</time>
      </trkpt>
      <trkpt lat="44.38727" lon="6.40171">
        <ele>2099</ele>
        <time>2020-07-07T11:41:04.000Z</time>
      </trkpt>
      <trkpt lat="44.38726" lon="6.40171">
        <ele>2099</ele>
        <time>2020-07-07T11:41:05.000Z</time>
      </trkpt>
      <trkpt lat="44.38725" lon="6.40171">
        <ele>2099</ele>
        <time>2020-07-07T11:41:06.000Z</time>
      </trkpt>
      <trkpt lat="44.38724" lon="6.40171">
        <ele>2099</ele>
        <time>2020-07-07T11:41:07.000Z</time>
      </trkpt>
      <trkpt lat="44.38722" lon="6.40171">
        <ele>2099</ele>
        <time>2020-07-07T11:41:08.000Z</time>
      </trkpt>
      <trkpt lat="44.38721" lon="6.4017">
        <ele>2099</ele>
        <time>2020-07-07T11:41:09.000Z</time>
      </trkpt>
      <trkpt lat="44.38721" lon="6.4017">
        <ele>2099</ele>
        <time>2020-07-07T11:41:10.000Z</time>
      </trkpt>
      <trkpt lat="44.3872" lon="6.40169">
        <ele>2099</ele>
        <time>2020-07-07T11:41:11.000Z</time>
      </trkpt>
      <trkpt lat="44.38718" lon="6.40168">
        <ele>2099</ele>
        <time>2020-07-07T11:41:12.000Z</time>
      </trkpt>
      <trkpt lat="44.38717" lon="6.40168">
        <ele>2099</ele>
        <time>2020-07-07T11:41:13.000Z</time>
      </trkpt>
      <trkpt lat="44.38717" lon="6.40167">
        <ele>2099</ele>
        <time>2020-07-07T11:41:14.000Z</time>
      </trkpt>
      <trkpt lat="44.38716" lon="6.40167">
        <ele>2100</ele>
        <time>2020-07-07T11:41:15.000Z</time>
      </trkpt>
      <trkpt lat="44.38714" lon="6.40166">
        <ele>2100</ele>
        <time>2020-07-07T11:41:16.000Z</time>
      </trkpt>
      <trkpt lat="44.38713" lon="6.40166">
        <ele>2100</ele>
        <time>2020-07-07T11:41:17.000Z</time>
      </trkpt>
      <trkpt lat="44.38712" lon="6.40165">
        <ele>2100</ele>
        <time>2020-07-07T11:41:18.000Z</time>
      </trkpt>
      <trkpt lat="44.38711" lon="6.40165">
        <ele>2100</ele>
        <time>2020-07-07T11:41:19.000Z</time>
      </trkpt>
      <trkpt lat="44.3871" lon="6.40164">
        <ele>2100</ele>
        <time>2020-07-07T11:41:20.000Z</time>
      </trkpt>
      <trkpt lat="44.38708" lon="6.40164">
        <ele>2100</ele>
        <time>2020-07-07T11:41:21.000Z</time>
      </trkpt>
      <trkpt lat="44.38707" lon="6.40164">
        <ele>2100</ele>
        <time>2020-07-07T11:41:22.000Z</time>
      </trkpt>
      <trkpt lat="44.38706" lon="6.40164">
        <ele>2100</ele>
        <time>2020-07-07T11:41:23.000Z</time>
      </trkpt>
      <trkpt lat="44.38705" lon="6.40164">
        <ele>2100</ele>
        <time>2020-07-07T11:41:24.000Z</time>
      </trkpt>
      <trkpt lat="44.38703" lon="6.40164">
        <ele>2100</ele>
        <time>2020-07-07T11:41:25.000Z</time>
      </trkpt>
      <trkpt lat="44.38702" lon="6.40163">
        <ele>2100</ele>
        <time>2020-07-07T11:41:26.000Z</time>
      </trkpt>
      <trkpt lat="44.38701" lon="6.40164">
        <ele>2100</ele>
        <time>2020-07-07T11:41:27.000Z</time>
      </trkpt>
      <trkpt lat="44.387" lon="6.40164">
        <ele>2100</ele>
        <time>2020-07-07T11:41:28.000Z</time>
      </trkpt>
      <trkpt lat="44.38699" lon="6.40164">
        <ele>2100</ele>
        <time>2020-07-07T11:41:29.000Z</time>
      </trkpt>
      <trkpt lat="44.38698" lon="6.40164">
        <ele>2100</ele>
        <time>2020-07-07T11:41:30.000Z</time>
      </trkpt>
      <trkpt lat="44.38696" lon="6.40165">
        <ele>2100</ele>
        <time>2020-07-07T11:41:31.000Z</time>
      </trkpt>
      <trkpt lat="44.38695" lon="6.40165">
        <ele>2100</ele>
        <time>2020-07-07T11:41:32.000Z</time>
      </trkpt>
      <trkpt lat="44.38694" lon="6.40165">
        <ele>2100</ele>
        <time>2020-07-07T11:41:33.000Z</time>
      </trkpt>
      <trkpt lat="44.38693" lon="6.40165">
        <ele>2100</ele>
        <time>2020-07-07T11:41:34.000Z</time>
      </trkpt>
      <trkpt lat="44.38691" lon="6.40165">
        <ele>2100</ele>
        <time>2020-07-07T11:41:35.000Z</time>
      </trkpt>
      <trkpt lat="44.3869" lon="6.40165">
        <ele>2100</ele>
        <time>2020-07-07T11:41:36.000Z</time>
      </trkpt>
      <trkpt lat="44.38689" lon="6.40165">
        <ele>2100</ele>
        <time>2020-07-07T11:41:37.000Z</time>
      </trkpt>
      <trkpt lat="44.38688" lon="6.40165">
        <ele>2100</ele>
        <time>2020-07-07T11:41:38.000Z</time>
      </trkpt>
      <trkpt lat="44.38687" lon="6.40165">
        <ele>2100</ele>
        <time>2020-07-07T11:41:39.000Z</time>
      </trkpt>
      <trkpt lat="44.38686" lon="6.40165">
        <ele>2100</ele>
        <time>2020-07-07T11:41:40.000Z</time>
      </trkpt>
      <trkpt lat="44.38684" lon="6.40165">
        <ele>2101</ele>
        <time>2020-07-07T11:41:41.000Z</time>
      </trkpt>
      <trkpt lat="44.38683" lon="6.40165">
        <ele>2101</ele>
        <time>2020-07-07T11:41:42.000Z</time>
      </trkpt>
      <trkpt lat="44.38682" lon="6.40165">
        <ele>2101</ele>
        <time>2020-07-07T11:41:43.000Z</time>
      </trkpt>
      <trkpt lat="44.3868" lon="6.40164">
        <ele>2101</ele>
        <time>2020-07-07T11:41:44.000Z</time>
      </trkpt>
      <trkpt lat="44.38679" lon="6.40164">
        <ele>2101</ele>
        <time>2020-07-07T11:41:45.000Z</time>
      </trkpt>
      <trkpt lat="44.38678" lon="6.40164">
        <ele>2101</ele>
        <time>2020-07-07T11:41:46.000Z</time>
      </trkpt>
      <trkpt lat="44.38677" lon="6.40164">
        <ele>2101</ele>
        <time>2020-07-07T11:41:47.000Z</time>
      </trkpt>
      <trkpt lat="44.38676" lon="6.40165">
        <ele>2101</ele>
        <time>2020-07-07T11:41:48.000Z</time>
      </trkpt>
      <trkpt lat="44.38675" lon="6.40165">
        <ele>2101</ele>
        <time>2020-07-07T11:41:49.000Z</time>
      </trkpt>
      <trkpt lat="44.38674" lon="6.40164">
        <ele>2101</ele>
        <time>2020-07-07T11:41:50.000Z</time>
      </trkpt>
      <trkpt lat="44.38673" lon="6.40164">
        <ele>2101</ele>
        <time>2020-07-07T11:41:51.000Z</time>
      </trkpt>
      <trkpt lat="44.38672" lon="6.40164">
        <ele>2101</ele>
        <time>2020-07-07T11:41:52.000Z</time>
      </trkpt>
      <trkpt lat="44.38671" lon="6.40164">
        <ele>2101</ele>
        <time>2020-07-07T11:41:53.000Z</time>
      </trkpt>
      <trkpt lat="44.3867" lon="6.40164">
        <ele>2101</ele>
        <time>2020-07-07T11:41:54.000Z</time>
      </trkpt>
      <trkpt lat="44.38669" lon="6.40164">
        <ele>2101</ele>
        <time>2020-07-07T11:41:55.000Z</time>
      </trkpt>
      <trkpt lat="44.38668" lon="6.40164">
        <ele>2101</ele>
        <time>2020-07-07T11:41:56.000Z</time>
      </trkpt>
      <trkpt lat="44.38667" lon="6.40164">
        <ele>2101</ele>
        <time>2020-07-07T11:41:57.000Z</time>
      </trkpt>
      <trkpt lat="44.38665" lon="6.40164">
        <ele>2102</ele>
        <time>2020-07-07T11:41:58.000Z</time>
      </trkpt>
      <trkpt lat="44.38664" lon="6.40164">
        <ele>2102</ele>
        <time>2020-07-07T11:41:59.000Z</time>
      </trkpt>
      <trkpt lat="44.38663" lon="6.40164">
        <ele>2102</ele>
        <time>2020-07-07T11:42:00.000Z</time>
      </trkpt>
      <trkpt lat="44.38662" lon="6.40164">
        <ele>2102</ele>
        <time>2020-07-07T11:42:01.000Z</time>
      </trkpt>
      <trkpt lat="44.38661" lon="6.40164">
        <ele>2102</ele>
        <time>2020-07-07T11:42:02.000Z</time>
      </trkpt>
      <trkpt lat="44.3866" lon="6.40164">
        <ele>2102</ele>
        <time>2020-07-07T11:42:03.000Z</time>
      </trkpt>
      <trkpt lat="44.38659" lon="6.40164">
        <ele>2102</ele>
        <time>2020-07-07T11:42:04.000Z</time>
      </trkpt>
      <trkpt lat="44.38658" lon="6.40163">
        <ele>2102</ele>
        <time>2020-07-07T11:42:05.000Z</time>
      </trkpt>
      <trkpt lat="44.38657" lon="6.40163">
        <ele>2102</ele>
        <time>2020-07-07T11:42:06.000Z</time>
      </trkpt>
      <trkpt lat="44.38655" lon="6.40163">
        <ele>2102</ele>
        <time>2020-07-07T11:42:07.000Z</time>
      </trkpt>
      <trkpt lat="44.38654" lon="6.40163">
        <ele>2102</ele>
        <time>2020-07-07T11:42:08.000Z</time>
      </trkpt>
      <trkpt lat="44.38653" lon="6.40162">
        <ele>2102</ele>
        <time>2020-07-07T11:42:09.000Z</time>
      </trkpt>
      <trkpt lat="44.38652" lon="6.40162">
        <ele>2102</ele>
        <time>2020-07-07T11:42:10.000Z</time>
      </trkpt>
      <trkpt lat="44.38651" lon="6.40162">
        <ele>2102</ele>
        <time>2020-07-07T11:42:11.000Z</time>
      </trkpt>
      <trkpt lat="44.3865" lon="6.40162">
        <ele>2102</ele>
        <time>2020-07-07T11:42:12.000Z</time>
      </trkpt>
      <trkpt lat="44.38649" lon="6.40162">
        <ele>2103</ele>
        <time>2020-07-07T11:42:13.000Z</time>
      </trkpt>
      <trkpt lat="44.38648" lon="6.40161">
        <ele>2103</ele>
        <time>2020-07-07T11:42:14.000Z</time>
      </trkpt>
      <trkpt lat="44.38647" lon="6.40161">
        <ele>2103</ele>
        <time>2020-07-07T11:42:15.000Z</time>
      </trkpt>
      <trkpt lat="44.38646" lon="6.40161">
        <ele>2103</ele>
        <time>2020-07-07T11:42:16.000Z</time>
      </trkpt>
      <trkpt lat="44.38645" lon="6.4016">
        <ele>2103</ele>
        <time>2020-07-07T11:42:17.000Z</time>
      </trkpt>
      <trkpt lat="44.38644" lon="6.4016">
        <ele>2103</ele>
        <time>2020-07-07T11:42:18.000Z</time>
      </trkpt>
      <trkpt lat="44.38643" lon="6.40159">
        <ele>2103</ele>
        <time>2020-07-07T11:42:19.000Z</time>
      </trkpt>
      <trkpt lat="44.38642" lon="6.40159">
        <ele>2103</ele>
        <time>2020-07-07T11:42:20.000Z</time>
      </trkpt>
      <trkpt lat="44.38641" lon="6.40159">
        <ele>2103</ele>
        <time>2020-07-07T11:42:21.000Z</time>
      </trkpt>
      <trkpt lat="44.3864" lon="6.40158">
        <ele>2103</ele>
        <time>2020-07-07T11:42:22.000Z</time>
      </trkpt>
      <trkpt lat="44.38639" lon="6.40157">
        <ele>2103</ele>
        <time>2020-07-07T11:42:23.000Z</time>
      </trkpt>
      <trkpt lat="44.38639" lon="6.40157">
        <ele>2104</ele>
        <time>2020-07-07T11:42:24.000Z</time>
      </trkpt>
      <trkpt lat="44.38638" lon="6.40157">
        <ele>2104</ele>
        <time>2020-07-07T11:42:25.000Z</time>
      </trkpt>
      <trkpt lat="44.38637" lon="6.40156">
        <ele>2104</ele>
        <time>2020-07-07T11:42:26.000Z</time>
      </trkpt>
      <trkpt lat="44.38636" lon="6.40156">
        <ele>2104</ele>
        <time>2020-07-07T11:42:27.000Z</time>
      </trkpt>
      <trkpt lat="44.38635" lon="6.40155">
        <ele>2104</ele>
        <time>2020-07-07T11:42:28.000Z</time>
      </trkpt>
      <trkpt lat="44.38634" lon="6.40154">
        <ele>2104</ele>
        <time>2020-07-07T11:42:29.000Z</time>
      </trkpt>
      <trkpt lat="44.38634" lon="6.40154">
        <ele>2104</ele>
        <time>2020-07-07T11:42:30.000Z</time>
      </trkpt>
      <trkpt lat="44.38633" lon="6.40153">
        <ele>2104</ele>
        <time>2020-07-07T11:42:31.000Z</time>
      </trkpt>
      <trkpt lat="44.38632" lon="6.40153">
        <ele>2105</ele>
        <time>2020-07-07T11:42:32.000Z</time>
      </trkpt>
      <trkpt lat="44.38631" lon="6.40152">
        <ele>2105</ele>
        <time>2020-07-07T11:42:33.000Z</time>
      </trkpt>
      <trkpt lat="44.3863" lon="6.40152">
        <ele>2105</ele>
        <time>2020-07-07T11:42:34.000Z</time>
      </trkpt>
      <trkpt lat="44.3863" lon="6.40151">
        <ele>2105</ele>
        <time>2020-07-07T11:42:35.000Z</time>
      </trkpt>
      <trkpt lat="44.38628" lon="6.40151">
        <ele>2105</ele>
        <time>2020-07-07T11:42:36.000Z</time>
      </trkpt>
      <trkpt lat="44.38628" lon="6.4015">
        <ele>2105</ele>
        <time>2020-07-07T11:42:37.000Z</time>
      </trkpt>
      <trkpt lat="44.38627" lon="6.4015">
        <ele>2105</ele>
        <time>2020-07-07T11:42:38.000Z</time>
      </trkpt>
      <trkpt lat="44.38626" lon="6.40149">
        <ele>2105</ele>
        <time>2020-07-07T11:42:39.000Z</time>
      </trkpt>
      <trkpt lat="44.38625" lon="6.40149">
        <ele>2105</ele>
        <time>2020-07-07T11:42:40.000Z</time>
      </trkpt>
      <trkpt lat="44.38624" lon="6.40148">
        <ele>2106</ele>
        <time>2020-07-07T11:42:41.000Z</time>
      </trkpt>
      <trkpt lat="44.38623" lon="6.40148">
        <ele>2106</ele>
        <time>2020-07-07T11:42:42.000Z</time>
      </trkpt>
      <trkpt lat="44.38623" lon="6.40147">
        <ele>2106</ele>
        <time>2020-07-07T11:42:43.000Z</time>
      </trkpt>
      <trkpt lat="44.38623" lon="6.40147">
        <ele>2106</ele>
        <time>2020-07-07T11:42:44.000Z</time>
      </trkpt>
      <trkpt lat="44.38623" lon="6.40147">
        <ele>2106</ele>
        <time>2020-07-07T11:42:45.000Z</time>
      </trkpt>
      <trkpt lat="44.38623" lon="6.40147">
        <ele>2106</ele>
        <time>2020-07-07T11:42:46.000Z</time>
      </trkpt>
      <trkpt lat="44.38623" lon="6.40146">
        <ele>2106</ele>
        <time>2020-07-07T11:42:47.000Z</time>
      </trkpt>
      <trkpt lat="44.38623" lon="6.40146">
        <ele>2106</ele>
        <time>2020-07-07T11:42:48.000Z</time>
      </trkpt>
      <trkpt lat="44.38623" lon="6.40146">
        <ele>2106</ele>
        <time>2020-07-07T11:42:49.000Z</time>
      </trkpt>
      <trkpt lat="44.38623" lon="6.40146">
        <ele>2106</ele>
        <time>2020-07-07T11:42:50.000Z</time>
      </trkpt>
      <trkpt lat="44.38623" lon="6.40146">
        <ele>2106</ele>
        <time>2020-07-07T11:42:51.000Z</time>
      </trkpt>
      <trkpt lat="44.38623" lon="6.40146">
        <ele>2106</ele>
        <time>2020-07-07T11:42:52.000Z</time>
      </trkpt>
      <trkpt lat="44.38623" lon="6.40146">
        <ele>2106</ele>
        <time>2020-07-07T11:42:53.000Z</time>
      </trkpt>
      <trkpt lat="44.38623" lon="6.40146">
        <ele>2106</ele>
        <time>2020-07-07T11:42:54.000Z</time>
      </trkpt>
      <trkpt lat="44.38623" lon="6.40146">
        <ele>2106</ele>
        <time>2020-07-07T11:42:55.000Z</time>
      </trkpt>
      <trkpt lat="44.38623" lon="6.40146">
        <ele>2106</ele>
        <time>2020-07-07T11:42:56.000Z</time>
      </trkpt>
      <trkpt lat="44.38623" lon="6.40146">
        <ele>2106</ele>
        <time>2020-07-07T11:42:57.000Z</time>
      </trkpt>
      <trkpt lat="44.38623" lon="6.40146">
        <ele>2106</ele>
        <time>2020-07-07T11:42:58.000Z</time>
      </trkpt>
      <trkpt lat="44.38623" lon="6.40146">
        <ele>2106</ele>
        <time>2020-07-07T11:42:59.000Z</time>
      </trkpt>
      <trkpt lat="44.38623" lon="6.40146">
        <ele>2106</ele>
        <time>2020-07-07T11:43:00.000Z</time>
      </trkpt>
      <trkpt lat="44.38622" lon="6.40146">
        <ele>2106</ele>
        <time>2020-07-07T11:43:01.000Z</time>
      </trkpt>
      <trkpt lat="44.38622" lon="6.40145">
        <ele>2106</ele>
        <time>2020-07-07T11:43:02.000Z</time>
      </trkpt>
      <trkpt lat="44.38621" lon="6.40145">
        <ele>2106</ele>
        <time>2020-07-07T11:43:03.000Z</time>
      </trkpt>
      <trkpt lat="44.3862" lon="6.40145">
        <ele>2106</ele>
        <time>2020-07-07T11:43:04.000Z</time>
      </trkpt>
      <trkpt lat="44.38618" lon="6.40144">
        <ele>2106</ele>
        <time>2020-07-07T11:43:05.000Z</time>
      </trkpt>
      <trkpt lat="44.38617" lon="6.40144">
        <ele>2106</ele>
        <time>2020-07-07T11:43:06.000Z</time>
      </trkpt>
      <trkpt lat="44.38617" lon="6.40143">
        <ele>2106</ele>
        <time>2020-07-07T11:43:07.000Z</time>
      </trkpt>
      <trkpt lat="44.38616" lon="6.40143">
        <ele>2106</ele>
        <time>2020-07-07T11:43:08.000Z</time>
      </trkpt>
      <trkpt lat="44.38615" lon="6.40142">
        <ele>2106</ele>
        <time>2020-07-07T11:43:09.000Z</time>
      </trkpt>
      <trkpt lat="44.38614" lon="6.40142">
        <ele>2106</ele>
        <time>2020-07-07T11:43:10.000Z</time>
      </trkpt>
      <trkpt lat="44.38613" lon="6.40141">
        <ele>2107</ele>
        <time>2020-07-07T11:43:11.000Z</time>
      </trkpt>
      <trkpt lat="44.38612" lon="6.40141">
        <ele>2107</ele>
        <time>2020-07-07T11:43:12.000Z</time>
      </trkpt>
      <trkpt lat="44.3861" lon="6.4014">
        <ele>2107</ele>
        <time>2020-07-07T11:43:13.000Z</time>
      </trkpt>
      <trkpt lat="44.3861" lon="6.4014">
        <ele>2107</ele>
        <time>2020-07-07T11:43:14.000Z</time>
      </trkpt>
      <trkpt lat="44.38609" lon="6.40139">
        <ele>2107</ele>
        <time>2020-07-07T11:43:15.000Z</time>
      </trkpt>
      <trkpt lat="44.38608" lon="6.40139">
        <ele>2107</ele>
        <time>2020-07-07T11:43:16.000Z</time>
      </trkpt>
      <trkpt lat="44.38607" lon="6.40138">
        <ele>2107</ele>
        <time>2020-07-07T11:43:17.000Z</time>
      </trkpt>
      <trkpt lat="44.38606" lon="6.40137">
        <ele>2107</ele>
        <time>2020-07-07T11:43:18.000Z</time>
      </trkpt>
      <trkpt lat="44.38606" lon="6.40137">
        <ele>2107</ele>
        <time>2020-07-07T11:43:19.000Z</time>
      </trkpt>
      <trkpt lat="44.38605" lon="6.40137">
        <ele>2107</ele>
        <time>2020-07-07T11:43:20.000Z</time>
      </trkpt>
      <trkpt lat="44.38604" lon="6.40136">
        <ele>2107</ele>
        <time>2020-07-07T11:43:21.000Z</time>
      </trkpt>
      <trkpt lat="44.38603" lon="6.40136">
        <ele>2107</ele>
        <time>2020-07-07T11:43:22.000Z</time>
      </trkpt>
      <trkpt lat="44.38602" lon="6.40135">
        <ele>2108</ele>
        <time>2020-07-07T11:43:23.000Z</time>
      </trkpt>
      <trkpt lat="44.38601" lon="6.40134">
        <ele>2108</ele>
        <time>2020-07-07T11:43:24.000Z</time>
      </trkpt>
      <trkpt lat="44.386" lon="6.40134">
        <ele>2108</ele>
        <time>2020-07-07T11:43:25.000Z</time>
      </trkpt>
      <trkpt lat="44.38599" lon="6.40133">
        <ele>2108</ele>
        <time>2020-07-07T11:43:26.000Z</time>
      </trkpt>
      <trkpt lat="44.38598" lon="6.40133">
        <ele>2108</ele>
        <time>2020-07-07T11:43:27.000Z</time>
      </trkpt>
      <trkpt lat="44.38596" lon="6.40132">
        <ele>2108</ele>
        <time>2020-07-07T11:43:28.000Z</time>
      </trkpt>
      <trkpt lat="44.38595" lon="6.40131">
        <ele>2109</ele>
        <time>2020-07-07T11:43:29.000Z</time>
      </trkpt>
      <trkpt lat="44.38595" lon="6.4013">
        <ele>2109</ele>
        <time>2020-07-07T11:43:30.000Z</time>
      </trkpt>
      <trkpt lat="44.38594" lon="6.4013">
        <ele>2109</ele>
        <time>2020-07-07T11:43:31.000Z</time>
      </trkpt>
      <trkpt lat="44.38593" lon="6.40129">
        <ele>2109</ele>
        <time>2020-07-07T11:43:32.000Z</time>
      </trkpt>
      <trkpt lat="44.38592" lon="6.40129">
        <ele>2109</ele>
        <time>2020-07-07T11:43:33.000Z</time>
      </trkpt>
      <trkpt lat="44.38592" lon="6.40128">
        <ele>2109</ele>
        <time>2020-07-07T11:43:34.000Z</time>
      </trkpt>
      <trkpt lat="44.38591" lon="6.40127">
        <ele>2110</ele>
        <time>2020-07-07T11:43:35.000Z</time>
      </trkpt>
      <trkpt lat="44.3859" lon="6.40127">
        <ele>2110</ele>
        <time>2020-07-07T11:43:36.000Z</time>
      </trkpt>
      <trkpt lat="44.3859" lon="6.40126">
        <ele>2110</ele>
        <time>2020-07-07T11:43:37.000Z</time>
      </trkpt>
      <trkpt lat="44.38589" lon="6.40126">
        <ele>2110</ele>
        <time>2020-07-07T11:43:38.000Z</time>
      </trkpt>
      <trkpt lat="44.38588" lon="6.40125">
        <ele>2110</ele>
        <time>2020-07-07T11:43:39.000Z</time>
      </trkpt>
      <trkpt lat="44.38587" lon="6.40125">
        <ele>2111</ele>
        <time>2020-07-07T11:43:40.000Z</time>
      </trkpt>
      <trkpt lat="44.38586" lon="6.40124">
        <ele>2111</ele>
        <time>2020-07-07T11:43:41.000Z</time>
      </trkpt>
      <trkpt lat="44.38586" lon="6.40123">
        <ele>2111</ele>
        <time>2020-07-07T11:43:42.000Z</time>
      </trkpt>
      <trkpt lat="44.38585" lon="6.40123">
        <ele>2111</ele>
        <time>2020-07-07T11:43:43.000Z</time>
      </trkpt>
      <trkpt lat="44.38584" lon="6.40123">
        <ele>2111</ele>
        <time>2020-07-07T11:43:44.000Z</time>
      </trkpt>
      <trkpt lat="44.38583" lon="6.40122">
        <ele>2111</ele>
        <time>2020-07-07T11:43:45.000Z</time>
      </trkpt>
      <trkpt lat="44.38582" lon="6.40122">
        <ele>2111</ele>
        <time>2020-07-07T11:43:46.000Z</time>
      </trkpt>
      <trkpt lat="44.38581" lon="6.40121">
        <ele>2111</ele>
        <time>2020-07-07T11:43:47.000Z</time>
      </trkpt>
      <trkpt lat="44.3858" lon="6.4012">
        <ele>2111</ele>
        <time>2020-07-07T11:43:48.000Z</time>
      </trkpt>
      <trkpt lat="44.38579" lon="6.40119">
        <ele>2111</ele>
        <time>2020-07-07T11:43:49.000Z</time>
      </trkpt>
      <trkpt lat="44.38579" lon="6.40119">
        <ele>2111</ele>
        <time>2020-07-07T11:43:50.000Z</time>
      </trkpt>
      <trkpt lat="44.38578" lon="6.40118">
        <ele>2111</ele>
        <time>2020-07-07T11:43:51.000Z</time>
      </trkpt>
      <trkpt lat="44.38576" lon="6.40117">
        <ele>2111</ele>
        <time>2020-07-07T11:43:52.000Z</time>
      </trkpt>
      <trkpt lat="44.38575" lon="6.40117">
        <ele>2111</ele>
        <time>2020-07-07T11:43:53.000Z</time>
      </trkpt>
      <trkpt lat="44.38575" lon="6.40116">
        <ele>2111</ele>
        <time>2020-07-07T11:43:54.000Z</time>
      </trkpt>
      <trkpt lat="44.38574" lon="6.40115">
        <ele>2112</ele>
        <time>2020-07-07T11:43:55.000Z</time>
      </trkpt>
      <trkpt lat="44.38573" lon="6.40115">
        <ele>2112</ele>
        <time>2020-07-07T11:43:56.000Z</time>
      </trkpt>
      <trkpt lat="44.38572" lon="6.40114">
        <ele>2112</ele>
        <time>2020-07-07T11:43:57.000Z</time>
      </trkpt>
      <trkpt lat="44.38571" lon="6.40113">
        <ele>2112</ele>
        <time>2020-07-07T11:43:58.000Z</time>
      </trkpt>
      <trkpt lat="44.3857" lon="6.40112">
        <ele>2112</ele>
        <time>2020-07-07T11:43:59.000Z</time>
      </trkpt>
      <trkpt lat="44.3857" lon="6.40111">
        <ele>2112</ele>
        <time>2020-07-07T11:44:00.000Z</time>
      </trkpt>
      <trkpt lat="44.38569" lon="6.4011">
        <ele>2112</ele>
        <time>2020-07-07T11:44:01.000Z</time>
      </trkpt>
      <trkpt lat="44.38569" lon="6.40109">
        <ele>2112</ele>
        <time>2020-07-07T11:44:02.000Z</time>
      </trkpt>
      <trkpt lat="44.38568" lon="6.40108">
        <ele>2112</ele>
        <time>2020-07-07T11:44:03.000Z</time>
      </trkpt>
      <trkpt lat="44.38568" lon="6.40107">
        <ele>2112</ele>
        <time>2020-07-07T11:44:04.000Z</time>
      </trkpt>
      <trkpt lat="44.38567" lon="6.40106">
        <ele>2112</ele>
        <time>2020-07-07T11:44:05.000Z</time>
      </trkpt>
      <trkpt lat="44.38566" lon="6.40105">
        <ele>2112</ele>
        <time>2020-07-07T11:44:06.000Z</time>
      </trkpt>
      <trkpt lat="44.38565" lon="6.40104">
        <ele>2112</ele>
        <time>2020-07-07T11:44:07.000Z</time>
      </trkpt>
      <trkpt lat="44.38564" lon="6.40103">
        <ele>2112</ele>
        <time>2020-07-07T11:44:08.000Z</time>
      </trkpt>
      <trkpt lat="44.38564" lon="6.40102">
        <ele>2112</ele>
        <time>2020-07-07T11:44:09.000Z</time>
      </trkpt>
      <trkpt lat="44.38563" lon="6.40101">
        <ele>2112</ele>
        <time>2020-07-07T11:44:10.000Z</time>
      </trkpt>
      <trkpt lat="44.38563" lon="6.401">
        <ele>2112</ele>
        <time>2020-07-07T11:44:11.000Z</time>
      </trkpt>
      <trkpt lat="44.38562" lon="6.40099">
        <ele>2112</ele>
        <time>2020-07-07T11:44:12.000Z</time>
      </trkpt>
      <trkpt lat="44.38562" lon="6.40098">
        <ele>2112</ele>
        <time>2020-07-07T11:44:13.000Z</time>
      </trkpt>
      <trkpt lat="44.38561" lon="6.40097">
        <ele>2112</ele>
        <time>2020-07-07T11:44:14.000Z</time>
      </trkpt>
      <trkpt lat="44.38561" lon="6.40096">
        <ele>2112</ele>
        <time>2020-07-07T11:44:15.000Z</time>
      </trkpt>
      <trkpt lat="44.3856" lon="6.40096">
        <ele>2113</ele>
        <time>2020-07-07T11:44:16.000Z</time>
      </trkpt>
      <trkpt lat="44.3856" lon="6.40095">
        <ele>2113</ele>
        <time>2020-07-07T11:44:17.000Z</time>
      </trkpt>
      <trkpt lat="44.38559" lon="6.40094">
        <ele>2113</ele>
        <time>2020-07-07T11:44:18.000Z</time>
      </trkpt>
      <trkpt lat="44.38559" lon="6.40093">
        <ele>2113</ele>
        <time>2020-07-07T11:44:19.000Z</time>
      </trkpt>
      <trkpt lat="44.38558" lon="6.40092">
        <ele>2113</ele>
        <time>2020-07-07T11:44:20.000Z</time>
      </trkpt>
      <trkpt lat="44.38557" lon="6.40091">
        <ele>2113</ele>
        <time>2020-07-07T11:44:21.000Z</time>
      </trkpt>
      <trkpt lat="44.38557" lon="6.4009">
        <ele>2113</ele>
        <time>2020-07-07T11:44:22.000Z</time>
      </trkpt>
      <trkpt lat="44.38556" lon="6.40089">
        <ele>2113</ele>
        <time>2020-07-07T11:44:23.000Z</time>
      </trkpt>
      <trkpt lat="44.38555" lon="6.40088">
        <ele>2113</ele>
        <time>2020-07-07T11:44:24.000Z</time>
      </trkpt>
      <trkpt lat="44.38555" lon="6.40087">
        <ele>2114</ele>
        <time>2020-07-07T11:44:25.000Z</time>
      </trkpt>
      <trkpt lat="44.38554" lon="6.40086">
        <ele>2114</ele>
        <time>2020-07-07T11:44:26.000Z</time>
      </trkpt>
      <trkpt lat="44.38554" lon="6.40085">
        <ele>2114</ele>
        <time>2020-07-07T11:44:27.000Z</time>
      </trkpt>
      <trkpt lat="44.38553" lon="6.40084">
        <ele>2114</ele>
        <time>2020-07-07T11:44:28.000Z</time>
      </trkpt>
      <trkpt lat="44.38553" lon="6.40083">
        <ele>2114</ele>
        <time>2020-07-07T11:44:29.000Z</time>
      </trkpt>
      <trkpt lat="44.38552" lon="6.40082">
        <ele>2115</ele>
        <time>2020-07-07T11:44:30.000Z</time>
      </trkpt>
      <trkpt lat="44.38552" lon="6.40081">
        <ele>2115</ele>
        <time>2020-07-07T11:44:31.000Z</time>
      </trkpt>
      <trkpt lat="44.38551" lon="6.4008">
        <ele>2115</ele>
        <time>2020-07-07T11:44:32.000Z</time>
      </trkpt>
      <trkpt lat="44.38551" lon="6.40079">
        <ele>2115</ele>
        <time>2020-07-07T11:44:33.000Z</time>
      </trkpt>
      <trkpt lat="44.3855" lon="6.40078">
        <ele>2115</ele>
        <time>2020-07-07T11:44:34.000Z</time>
      </trkpt>
      <trkpt lat="44.3855" lon="6.40076">
        <ele>2116</ele>
        <time>2020-07-07T11:44:35.000Z</time>
      </trkpt>
      <trkpt lat="44.3855" lon="6.40075">
        <ele>2116</ele>
        <time>2020-07-07T11:44:36.000Z</time>
      </trkpt>
      <trkpt lat="44.38549" lon="6.40074">
        <ele>2116</ele>
        <time>2020-07-07T11:44:37.000Z</time>
      </trkpt>
      <trkpt lat="44.38549" lon="6.40074">
        <ele>2116</ele>
        <time>2020-07-07T11:44:38.000Z</time>
      </trkpt>
      <trkpt lat="44.38548" lon="6.40073">
        <ele>2116</ele>
        <time>2020-07-07T11:44:39.000Z</time>
      </trkpt>
      <trkpt lat="44.38547" lon="6.40072">
        <ele>2116</ele>
        <time>2020-07-07T11:44:40.000Z</time>
      </trkpt>
      <trkpt lat="44.38547" lon="6.40071">
        <ele>2117</ele>
        <time>2020-07-07T11:44:41.000Z</time>
      </trkpt>
      <trkpt lat="44.38547" lon="6.4007">
        <ele>2117</ele>
        <time>2020-07-07T11:44:42.000Z</time>
      </trkpt>
      <trkpt lat="44.38546" lon="6.40069">
        <ele>2117</ele>
        <time>2020-07-07T11:44:43.000Z</time>
      </trkpt>
      <trkpt lat="44.38546" lon="6.40068">
        <ele>2117</ele>
        <time>2020-07-07T11:44:44.000Z</time>
      </trkpt>
      <trkpt lat="44.38545" lon="6.40067">
        <ele>2117</ele>
        <time>2020-07-07T11:44:45.000Z</time>
      </trkpt>
      <trkpt lat="44.38544" lon="6.40066">
        <ele>2117</ele>
        <time>2020-07-07T11:44:46.000Z</time>
      </trkpt>
      <trkpt lat="44.38544" lon="6.40065">
        <ele>2117</ele>
        <time>2020-07-07T11:44:47.000Z</time>
      </trkpt>
      <trkpt lat="44.38543" lon="6.40065">
        <ele>2117</ele>
        <time>2020-07-07T11:44:48.000Z</time>
      </trkpt>
      <trkpt lat="44.38542" lon="6.40064">
        <ele>2117</ele>
        <time>2020-07-07T11:44:49.000Z</time>
      </trkpt>
      <trkpt lat="44.38542" lon="6.40063">
        <ele>2117</ele>
        <time>2020-07-07T11:44:50.000Z</time>
      </trkpt>
      <trkpt lat="44.38541" lon="6.40062">
        <ele>2117</ele>
        <time>2020-07-07T11:44:51.000Z</time>
      </trkpt>
      <trkpt lat="44.38541" lon="6.40061">
        <ele>2117</ele>
        <time>2020-07-07T11:44:52.000Z</time>
      </trkpt>
      <trkpt lat="44.3854" lon="6.4006">
        <ele>2117</ele>
        <time>2020-07-07T11:44:53.000Z</time>
      </trkpt>
      <trkpt lat="44.3854" lon="6.40059">
        <ele>2117</ele>
        <time>2020-07-07T11:44:54.000Z</time>
      </trkpt>
      <trkpt lat="44.3854" lon="6.40058">
        <ele>2118</ele>
        <time>2020-07-07T11:44:55.000Z</time>
      </trkpt>
      <trkpt lat="44.3854" lon="6.40058">
        <ele>2118</ele>
        <time>2020-07-07T11:44:56.000Z</time>
      </trkpt>
      <trkpt lat="44.38539" lon="6.40057">
        <ele>2118</ele>
        <time>2020-07-07T11:44:57.000Z</time>
      </trkpt>
      <trkpt lat="44.38539" lon="6.40057">
        <ele>2118</ele>
        <time>2020-07-07T11:44:58.000Z</time>
      </trkpt>
      <trkpt lat="44.3854" lon="6.40057">
        <ele>2118</ele>
        <time>2020-07-07T11:44:59.000Z</time>
      </trkpt>
      <trkpt lat="44.3854" lon="6.40057">
        <ele>2118</ele>
        <time>2020-07-07T11:45:00.000Z</time>
      </trkpt>
      <trkpt lat="44.38539" lon="6.40057">
        <ele>2117</ele>
        <time>2020-07-07T11:45:01.000Z</time>
      </trkpt>
      <trkpt lat="44.38539" lon="6.40057">
        <ele>2117</ele>
        <time>2020-07-07T11:45:02.000Z</time>
      </trkpt>
      <trkpt lat="44.38539" lon="6.40057">
        <ele>2117</ele>
        <time>2020-07-07T11:45:03.000Z</time>
      </trkpt>
      <trkpt lat="44.38539" lon="6.40057">
        <ele>2117</ele>
        <time>2020-07-07T11:45:04.000Z</time>
      </trkpt>
      <trkpt lat="44.38539" lon="6.40056">
        <ele>2117</ele>
        <time>2020-07-07T11:45:05.000Z</time>
      </trkpt>
      <trkpt lat="44.38539" lon="6.40056">
        <ele>2117</ele>
        <time>2020-07-07T11:45:06.000Z</time>
      </trkpt>
      <trkpt lat="44.38539" lon="6.40056">
        <ele>2118</ele>
        <time>2020-07-07T11:45:07.000Z</time>
      </trkpt>
      <trkpt lat="44.38539" lon="6.40056">
        <ele>2118</ele>
        <time>2020-07-07T11:45:08.000Z</time>
      </trkpt>
      <trkpt lat="44.38539" lon="6.40056">
        <ele>2118</ele>
        <time>2020-07-07T11:45:09.000Z</time>
      </trkpt>
      <trkpt lat="44.38539" lon="6.40056">
        <ele>2118</ele>
        <time>2020-07-07T11:45:10.000Z</time>
      </trkpt>
      <trkpt lat="44.38539" lon="6.40056">
        <ele>2118</ele>
        <time>2020-07-07T11:45:11.000Z</time>
      </trkpt>
      <trkpt lat="44.3854" lon="6.40055">
        <ele>2118</ele>
        <time>2020-07-07T11:45:12.000Z</time>
      </trkpt>
      <trkpt lat="44.3854" lon="6.40055">
        <ele>2118</ele>
        <time>2020-07-07T11:45:13.000Z</time>
      </trkpt>
      <trkpt lat="44.3854" lon="6.40055">
        <ele>2118</ele>
        <time>2020-07-07T11:45:14.000Z</time>
      </trkpt>
      <trkpt lat="44.3854" lon="6.40055">
        <ele>2118</ele>
        <time>2020-07-07T11:45:15.000Z</time>
      </trkpt>
      <trkpt lat="44.3854" lon="6.40055">
        <ele>2118</ele>
        <time>2020-07-07T11:45:16.000Z</time>
      </trkpt>
      <trkpt lat="44.3854" lon="6.40055">
        <ele>2118</ele>
        <time>2020-07-07T11:45:17.000Z</time>
      </trkpt>
      <trkpt lat="44.38539" lon="6.40054">
        <ele>2118</ele>
        <time>2020-07-07T11:45:18.000Z</time>
      </trkpt>
      <trkpt lat="44.38539" lon="6.40054">
        <ele>2118</ele>
        <time>2020-07-07T11:45:19.000Z</time>
      </trkpt>
      <trkpt lat="44.38539" lon="6.40053">
        <ele>2118</ele>
        <time>2020-07-07T11:45:20.000Z</time>
      </trkpt>
      <trkpt lat="44.38539" lon="6.40053">
        <ele>2118</ele>
        <time>2020-07-07T11:45:21.000Z</time>
      </trkpt>
      <trkpt lat="44.38539" lon="6.40053">
        <ele>2118</ele>
        <time>2020-07-07T11:45:22.000Z</time>
      </trkpt>
      <trkpt lat="44.38539" lon="6.40053">
        <ele>2118</ele>
        <time>2020-07-07T11:45:23.000Z</time>
      </trkpt>
      <trkpt lat="44.38539" lon="6.40053">
        <ele>2118</ele>
        <time>2020-07-07T11:45:24.000Z</time>
      </trkpt>
      <trkpt lat="44.38539" lon="6.40054">
        <ele>2118</ele>
        <time>2020-07-07T11:45:25.000Z</time>
      </trkpt>
      <trkpt lat="44.38538" lon="6.40054">
        <ele>2118</ele>
        <time>2020-07-07T11:45:26.000Z</time>
      </trkpt>
      <trkpt lat="44.38538" lon="6.40054">
        <ele>2118</ele>
        <time>2020-07-07T11:45:27.000Z</time>
      </trkpt>
      <trkpt lat="44.38538" lon="6.40054">
        <ele>2118</ele>
        <time>2020-07-07T11:45:28.000Z</time>
      </trkpt>
      <trkpt lat="44.38538" lon="6.40054">
        <ele>2118</ele>
        <time>2020-07-07T11:45:29.000Z</time>
      </trkpt>
      <trkpt lat="44.38538" lon="6.40054">
        <ele>2118</ele>
        <time>2020-07-07T11:45:30.000Z</time>
      </trkpt>
      <trkpt lat="44.38537" lon="6.40053">
        <ele>2118</ele>
        <time>2020-07-07T11:45:31.000Z</time>
      </trkpt>
      <trkpt lat="44.38537" lon="6.40052">
        <ele>2118</ele>
        <time>2020-07-07T11:45:32.000Z</time>
      </trkpt>
      <trkpt lat="44.38536" lon="6.40051">
        <ele>2118</ele>
        <time>2020-07-07T11:45:33.000Z</time>
      </trkpt>
      <trkpt lat="44.38536" lon="6.4005">
        <ele>2118</ele>
        <time>2020-07-07T11:45:34.000Z</time>
      </trkpt>
      <trkpt lat="44.38535" lon="6.40049">
        <ele>2118</ele>
        <time>2020-07-07T11:45:35.000Z</time>
      </trkpt>
      <trkpt lat="44.38535" lon="6.40048">
        <ele>2118</ele>
        <time>2020-07-07T11:45:36.000Z</time>
      </trkpt>
      <trkpt lat="44.38534" lon="6.40047">
        <ele>2118</ele>
        <time>2020-07-07T11:45:37.000Z</time>
      </trkpt>
      <trkpt lat="44.38534" lon="6.40046">
        <ele>2118</ele>
        <time>2020-07-07T11:45:38.000Z</time>
      </trkpt>
      <trkpt lat="44.38534" lon="6.40045">
        <ele>2118</ele>
        <time>2020-07-07T11:45:39.000Z</time>
      </trkpt>
      <trkpt lat="44.38534" lon="6.40045">
        <ele>2118</ele>
        <time>2020-07-07T11:45:40.000Z</time>
      </trkpt>
      <trkpt lat="44.38533" lon="6.40044">
        <ele>2118</ele>
        <time>2020-07-07T11:45:41.000Z</time>
      </trkpt>
      <trkpt lat="44.38533" lon="6.40043">
        <ele>2118</ele>
        <time>2020-07-07T11:45:42.000Z</time>
      </trkpt>
      <trkpt lat="44.38533" lon="6.40042">
        <ele>2118</ele>
        <time>2020-07-07T11:45:43.000Z</time>
      </trkpt>
      <trkpt lat="44.38532" lon="6.40042">
        <ele>2118</ele>
        <time>2020-07-07T11:45:44.000Z</time>
      </trkpt>
      <trkpt lat="44.38532" lon="6.40041">
        <ele>2118</ele>
        <time>2020-07-07T11:45:45.000Z</time>
      </trkpt>
      <trkpt lat="44.38531" lon="6.40041">
        <ele>2118</ele>
        <time>2020-07-07T11:45:46.000Z</time>
      </trkpt>
      <trkpt lat="44.3853" lon="6.4004">
        <ele>2118</ele>
        <time>2020-07-07T11:45:47.000Z</time>
      </trkpt>
      <trkpt lat="44.3853" lon="6.4004">
        <ele>2118</ele>
        <time>2020-07-07T11:45:48.000Z</time>
      </trkpt>
      <trkpt lat="44.38529" lon="6.4004">
        <ele>2118</ele>
        <time>2020-07-07T11:45:49.000Z</time>
      </trkpt>
      <trkpt lat="44.38528" lon="6.4004">
        <ele>2118</ele>
        <time>2020-07-07T11:45:50.000Z</time>
      </trkpt>
      <trkpt lat="44.38527" lon="6.40039">
        <ele>2118</ele>
        <time>2020-07-07T11:45:51.000Z</time>
      </trkpt>
      <trkpt lat="44.38526" lon="6.40039">
        <ele>2118</ele>
        <time>2020-07-07T11:45:52.000Z</time>
      </trkpt>
      <trkpt lat="44.38525" lon="6.40039">
        <ele>2118</ele>
        <time>2020-07-07T11:45:53.000Z</time>
      </trkpt>
      <trkpt lat="44.38524" lon="6.40038">
        <ele>2118</ele>
        <time>2020-07-07T11:45:54.000Z</time>
      </trkpt>
      <trkpt lat="44.38523" lon="6.40037">
        <ele>2118</ele>
        <time>2020-07-07T11:45:55.000Z</time>
      </trkpt>
      <trkpt lat="44.38522" lon="6.40036">
        <ele>2118</ele>
        <time>2020-07-07T11:45:56.000Z</time>
      </trkpt>
      <trkpt lat="44.38522" lon="6.40035">
        <ele>2118</ele>
        <time>2020-07-07T11:45:57.000Z</time>
      </trkpt>
      <trkpt lat="44.38521" lon="6.40034">
        <ele>2118</ele>
        <time>2020-07-07T11:45:58.000Z</time>
      </trkpt>
      <trkpt lat="44.38521" lon="6.40033">
        <ele>2118</ele>
        <time>2020-07-07T11:45:59.000Z</time>
      </trkpt>
      <trkpt lat="44.3852" lon="6.40032">
        <ele>2118</ele>
        <time>2020-07-07T11:46:00.000Z</time>
      </trkpt>
      <trkpt lat="44.38519" lon="6.40031">
        <ele>2118</ele>
        <time>2020-07-07T11:46:01.000Z</time>
      </trkpt>
      <trkpt lat="44.38518" lon="6.4003">
        <ele>2118</ele>
        <time>2020-07-07T11:46:02.000Z</time>
      </trkpt>
      <trkpt lat="44.38517" lon="6.40029">
        <ele>2118</ele>
        <time>2020-07-07T11:46:03.000Z</time>
      </trkpt>
      <trkpt lat="44.38516" lon="6.40028">
        <ele>2118</ele>
        <time>2020-07-07T11:46:04.000Z</time>
      </trkpt>
      <trkpt lat="44.38515" lon="6.40028">
        <ele>2118</ele>
        <time>2020-07-07T11:46:05.000Z</time>
      </trkpt>
      <trkpt lat="44.38514" lon="6.40027">
        <ele>2118</ele>
        <time>2020-07-07T11:46:06.000Z</time>
      </trkpt>
      <trkpt lat="44.38513" lon="6.40026">
        <ele>2118</ele>
        <time>2020-07-07T11:46:07.000Z</time>
      </trkpt>
      <trkpt lat="44.38511" lon="6.40025">
        <ele>2118</ele>
        <time>2020-07-07T11:46:08.000Z</time>
      </trkpt>
      <trkpt lat="44.3851" lon="6.40025">
        <ele>2118</ele>
        <time>2020-07-07T11:46:09.000Z</time>
      </trkpt>
      <trkpt lat="44.3851" lon="6.40025">
        <ele>2118</ele>
        <time>2020-07-07T11:46:10.000Z</time>
      </trkpt>
      <trkpt lat="44.38509" lon="6.40024">
        <ele>2118</ele>
        <time>2020-07-07T11:46:11.000Z</time>
      </trkpt>
      <trkpt lat="44.38508" lon="6.40023">
        <ele>2118</ele>
        <time>2020-07-07T11:46:12.000Z</time>
      </trkpt>
      <trkpt lat="44.38507" lon="6.40022">
        <ele>2118</ele>
        <time>2020-07-07T11:46:13.000Z</time>
      </trkpt>
      <trkpt lat="44.38506" lon="6.40022">
        <ele>2118</ele>
        <time>2020-07-07T11:46:14.000Z</time>
      </trkpt>
      <trkpt lat="44.38505" lon="6.40021">
        <ele>2118</ele>
        <time>2020-07-07T11:46:15.000Z</time>
      </trkpt>
      <trkpt lat="44.38504" lon="6.40021">
        <ele>2118</ele>
        <time>2020-07-07T11:46:16.000Z</time>
      </trkpt>
      <trkpt lat="44.38503" lon="6.4002">
        <ele>2117</ele>
        <time>2020-07-07T11:46:17.000Z</time>
      </trkpt>
      <trkpt lat="44.38502" lon="6.40019">
        <ele>2117</ele>
        <time>2020-07-07T11:46:18.000Z</time>
      </trkpt>
      <trkpt lat="44.38501" lon="6.40018">
        <ele>2117</ele>
        <time>2020-07-07T11:46:19.000Z</time>
      </trkpt>
      <trkpt lat="44.38501" lon="6.40018">
        <ele>2117</ele>
        <time>2020-07-07T11:46:20.000Z</time>
      </trkpt>
      <trkpt lat="44.385" lon="6.40018">
        <ele>2117</ele>
        <time>2020-07-07T11:46:21.000Z</time>
      </trkpt>
      <trkpt lat="44.38499" lon="6.40017">
        <ele>2117</ele>
        <time>2020-07-07T11:46:22.000Z</time>
      </trkpt>
      <trkpt lat="44.38498" lon="6.40016">
        <ele>2117</ele>
        <time>2020-07-07T11:46:23.000Z</time>
      </trkpt>
      <trkpt lat="44.38497" lon="6.40015">
        <ele>2117</ele>
        <time>2020-07-07T11:46:24.000Z</time>
      </trkpt>
      <trkpt lat="44.38496" lon="6.40014">
        <ele>2117</ele>
        <time>2020-07-07T11:46:25.000Z</time>
      </trkpt>
      <trkpt lat="44.38495" lon="6.40014">
        <ele>2117</ele>
        <time>2020-07-07T11:46:26.000Z</time>
      </trkpt>
      <trkpt lat="44.38494" lon="6.40013">
        <ele>2117</ele>
        <time>2020-07-07T11:46:27.000Z</time>
      </trkpt>
      <trkpt lat="44.38493" lon="6.40012">
        <ele>2116</ele>
        <time>2020-07-07T11:46:28.000Z</time>
      </trkpt>
      <trkpt lat="44.38492" lon="6.40012">
        <ele>2116</ele>
        <time>2020-07-07T11:46:29.000Z</time>
      </trkpt>
      <trkpt lat="44.38491" lon="6.4001">
        <ele>2116</ele>
        <time>2020-07-07T11:46:30.000Z</time>
      </trkpt>
      <trkpt lat="44.3849" lon="6.4001">
        <ele>2116</ele>
        <time>2020-07-07T11:46:31.000Z</time>
      </trkpt>
      <trkpt lat="44.38489" lon="6.40009">
        <ele>2116</ele>
        <time>2020-07-07T11:46:32.000Z</time>
      </trkpt>
      <trkpt lat="44.38488" lon="6.40008">
        <ele>2116</ele>
        <time>2020-07-07T11:46:33.000Z</time>
      </trkpt>
      <trkpt lat="44.38487" lon="6.40007">
        <ele>2116</ele>
        <time>2020-07-07T11:46:34.000Z</time>
      </trkpt>
      <trkpt lat="44.38486" lon="6.40006">
        <ele>2116</ele>
        <time>2020-07-07T11:46:35.000Z</time>
      </trkpt>
      <trkpt lat="44.38485" lon="6.40005">
        <ele>2116</ele>
        <time>2020-07-07T11:46:36.000Z</time>
      </trkpt>
      <trkpt lat="44.38484" lon="6.40004">
        <ele>2116</ele>
        <time>2020-07-07T11:46:37.000Z</time>
      </trkpt>
      <trkpt lat="44.38483" lon="6.40003">
        <ele>2116</ele>
        <time>2020-07-07T11:46:38.000Z</time>
      </trkpt>
      <trkpt lat="44.38482" lon="6.40003">
        <ele>2116</ele>
        <time>2020-07-07T11:46:39.000Z</time>
      </trkpt>
      <trkpt lat="44.38481" lon="6.40002">
        <ele>2115</ele>
        <time>2020-07-07T11:46:40.000Z</time>
      </trkpt>
      <trkpt lat="44.3848" lon="6.40001">
        <ele>2115</ele>
        <time>2020-07-07T11:46:41.000Z</time>
      </trkpt>
      <trkpt lat="44.38479" lon="6.4">
        <ele>2115</ele>
        <time>2020-07-07T11:46:42.000Z</time>
      </trkpt>
      <trkpt lat="44.38478" lon="6.4">
        <ele>2115</ele>
        <time>2020-07-07T11:46:43.000Z</time>
      </trkpt>
      <trkpt lat="44.38477" lon="6.39999">
        <ele>2115</ele>
        <time>2020-07-07T11:46:44.000Z</time>
      </trkpt>
      <trkpt lat="44.38476" lon="6.39998">
        <ele>2115</ele>
        <time>2020-07-07T11:46:45.000Z</time>
      </trkpt>
      <trkpt lat="44.38475" lon="6.39997">
        <ele>2115</ele>
        <time>2020-07-07T11:46:46.000Z</time>
      </trkpt>
      <trkpt lat="44.38474" lon="6.39996">
        <ele>2115</ele>
        <time>2020-07-07T11:46:47.000Z</time>
      </trkpt>
      <trkpt lat="44.38473" lon="6.39995">
        <ele>2115</ele>
        <time>2020-07-07T11:46:48.000Z</time>
      </trkpt>
      <trkpt lat="44.38472" lon="6.39994">
        <ele>2115</ele>
        <time>2020-07-07T11:46:49.000Z</time>
      </trkpt>
      <trkpt lat="44.38472" lon="6.39993">
        <ele>2115</ele>
        <time>2020-07-07T11:46:50.000Z</time>
      </trkpt>
      <trkpt lat="44.38471" lon="6.39992">
        <ele>2115</ele>
        <time>2020-07-07T11:46:51.000Z</time>
      </trkpt>
      <trkpt lat="44.3847" lon="6.39991">
        <ele>2115</ele>
        <time>2020-07-07T11:46:52.000Z</time>
      </trkpt>
      <trkpt lat="44.38469" lon="6.3999">
        <ele>2114</ele>
        <time>2020-07-07T11:46:53.000Z</time>
      </trkpt>
      <trkpt lat="44.38468" lon="6.3999">
        <ele>2114</ele>
        <time>2020-07-07T11:46:54.000Z</time>
      </trkpt>
      <trkpt lat="44.38467" lon="6.39989">
        <ele>2114</ele>
        <time>2020-07-07T11:46:55.000Z</time>
      </trkpt>
      <trkpt lat="44.38466" lon="6.39988">
        <ele>2114</ele>
        <time>2020-07-07T11:46:56.000Z</time>
      </trkpt>
      <trkpt lat="44.38465" lon="6.39987">
        <ele>2114</ele>
        <time>2020-07-07T11:46:57.000Z</time>
      </trkpt>
      <trkpt lat="44.38465" lon="6.39986">
        <ele>2114</ele>
        <time>2020-07-07T11:46:58.000Z</time>
      </trkpt>
      <trkpt lat="44.38464" lon="6.39985">
        <ele>2114</ele>
        <time>2020-07-07T11:46:59.000Z</time>
      </trkpt>
      <trkpt lat="44.38463" lon="6.39984">
        <ele>2114</ele>
        <time>2020-07-07T11:47:00.000Z</time>
      </trkpt>
      <trkpt lat="44.38462" lon="6.39983">
        <ele>2114</ele>
        <time>2020-07-07T11:47:01.000Z</time>
      </trkpt>
      <trkpt lat="44.38461" lon="6.39982">
        <ele>2114</ele>
        <time>2020-07-07T11:47:02.000Z</time>
      </trkpt>
      <trkpt lat="44.3846" lon="6.39981">
        <ele>2114</ele>
        <time>2020-07-07T11:47:03.000Z</time>
      </trkpt>
      <trkpt lat="44.38459" lon="6.3998">
        <ele>2114</ele>
        <time>2020-07-07T11:47:04.000Z</time>
      </trkpt>
      <trkpt lat="44.38458" lon="6.39979">
        <ele>2114</ele>
        <time>2020-07-07T11:47:05.000Z</time>
      </trkpt>
      <trkpt lat="44.38457" lon="6.39978">
        <ele>2114</ele>
        <time>2020-07-07T11:47:06.000Z</time>
      </trkpt>
      <trkpt lat="44.38457" lon="6.39977">
        <ele>2114</ele>
        <time>2020-07-07T11:47:07.000Z</time>
      </trkpt>
      <trkpt lat="44.38456" lon="6.39976">
        <ele>2114</ele>
        <time>2020-07-07T11:47:08.000Z</time>
      </trkpt>
      <trkpt lat="44.38455" lon="6.39975">
        <ele>2114</ele>
        <time>2020-07-07T11:47:09.000Z</time>
      </trkpt>
      <trkpt lat="44.38454" lon="6.39975">
        <ele>2114</ele>
        <time>2020-07-07T11:47:10.000Z</time>
      </trkpt>
      <trkpt lat="44.38453" lon="6.39974">
        <ele>2114</ele>
        <time>2020-07-07T11:47:11.000Z</time>
      </trkpt>
      <trkpt lat="44.38452" lon="6.39973">
        <ele>2114</ele>
        <time>2020-07-07T11:47:12.000Z</time>
      </trkpt>
      <trkpt lat="44.38451" lon="6.39972">
        <ele>2114</ele>
        <time>2020-07-07T11:47:13.000Z</time>
      </trkpt>
      <trkpt lat="44.3845" lon="6.39971">
        <ele>2114</ele>
        <time>2020-07-07T11:47:14.000Z</time>
      </trkpt>
      <trkpt lat="44.38449" lon="6.39971">
        <ele>2114</ele>
        <time>2020-07-07T11:47:15.000Z</time>
      </trkpt>
      <trkpt lat="44.38448" lon="6.3997">
        <ele>2114</ele>
        <time>2020-07-07T11:47:16.000Z</time>
      </trkpt>
      <trkpt lat="44.38447" lon="6.39968">
        <ele>2114</ele>
        <time>2020-07-07T11:47:17.000Z</time>
      </trkpt>
      <trkpt lat="44.38447" lon="6.39967">
        <ele>2114</ele>
        <time>2020-07-07T11:47:18.000Z</time>
      </trkpt>
      <trkpt lat="44.38446" lon="6.39965">
        <ele>2114</ele>
        <time>2020-07-07T11:47:19.000Z</time>
      </trkpt>
      <trkpt lat="44.38446" lon="6.39964">
        <ele>2114</ele>
        <time>2020-07-07T11:47:20.000Z</time>
      </trkpt>
      <trkpt lat="44.38445" lon="6.39963">
        <ele>2114</ele>
        <time>2020-07-07T11:47:21.000Z</time>
      </trkpt>
      <trkpt lat="44.38444" lon="6.39963">
        <ele>2114</ele>
        <time>2020-07-07T11:47:22.000Z</time>
      </trkpt>
      <trkpt lat="44.38443" lon="6.39962">
        <ele>2114</ele>
        <time>2020-07-07T11:47:23.000Z</time>
      </trkpt>
      <trkpt lat="44.38442" lon="6.39961">
        <ele>2114</ele>
        <time>2020-07-07T11:47:24.000Z</time>
      </trkpt>
      <trkpt lat="44.38442" lon="6.39961">
        <ele>2114</ele>
        <time>2020-07-07T11:47:25.000Z</time>
      </trkpt>
      <trkpt lat="44.38441" lon="6.3996">
        <ele>2114</ele>
        <time>2020-07-07T11:47:26.000Z</time>
      </trkpt>
      <trkpt lat="44.3844" lon="6.39959">
        <ele>2114</ele>
        <time>2020-07-07T11:47:27.000Z</time>
      </trkpt>
      <trkpt lat="44.38439" lon="6.39959">
        <ele>2114</ele>
        <time>2020-07-07T11:47:28.000Z</time>
      </trkpt>
      <trkpt lat="44.38439" lon="6.39958">
        <ele>2114</ele>
        <time>2020-07-07T11:47:29.000Z</time>
      </trkpt>
      <trkpt lat="44.38438" lon="6.39957">
        <ele>2114</ele>
        <time>2020-07-07T11:47:30.000Z</time>
      </trkpt>
      <trkpt lat="44.38436" lon="6.39957">
        <ele>2114</ele>
        <time>2020-07-07T11:47:31.000Z</time>
      </trkpt>
      <trkpt lat="44.38435" lon="6.39956">
        <ele>2113</ele>
        <time>2020-07-07T11:47:32.000Z</time>
      </trkpt>
      <trkpt lat="44.38434" lon="6.39955">
        <ele>2113</ele>
        <time>2020-07-07T11:47:33.000Z</time>
      </trkpt>
      <trkpt lat="44.38433" lon="6.39954">
        <ele>2113</ele>
        <time>2020-07-07T11:47:34.000Z</time>
      </trkpt>
      <trkpt lat="44.38433" lon="6.39954">
        <ele>2113</ele>
        <time>2020-07-07T11:47:35.000Z</time>
      </trkpt>
      <trkpt lat="44.38432" lon="6.39954">
        <ele>2113</ele>
        <time>2020-07-07T11:47:36.000Z</time>
      </trkpt>
      <trkpt lat="44.38431" lon="6.39953">
        <ele>2113</ele>
        <time>2020-07-07T11:47:37.000Z</time>
      </trkpt>
      <trkpt lat="44.3843" lon="6.39953">
        <ele>2113</ele>
        <time>2020-07-07T11:47:38.000Z</time>
      </trkpt>
      <trkpt lat="44.3843" lon="6.39952">
        <ele>2113</ele>
        <time>2020-07-07T11:47:39.000Z</time>
      </trkpt>
      <trkpt lat="44.38429" lon="6.39952">
        <ele>2112</ele>
        <time>2020-07-07T11:47:40.000Z</time>
      </trkpt>
      <trkpt lat="44.38428" lon="6.39951">
        <ele>2112</ele>
        <time>2020-07-07T11:47:41.000Z</time>
      </trkpt>
      <trkpt lat="44.38427" lon="6.39951">
        <ele>2112</ele>
        <time>2020-07-07T11:47:42.000Z</time>
      </trkpt>
      <trkpt lat="44.38427" lon="6.39951">
        <ele>2112</ele>
        <time>2020-07-07T11:47:43.000Z</time>
      </trkpt>
      <trkpt lat="44.38426" lon="6.3995">
        <ele>2112</ele>
        <time>2020-07-07T11:47:44.000Z</time>
      </trkpt>
      <trkpt lat="44.38425" lon="6.39949">
        <ele>2112</ele>
        <time>2020-07-07T11:47:45.000Z</time>
      </trkpt>
      <trkpt lat="44.38424" lon="6.39948">
        <ele>2112</ele>
        <time>2020-07-07T11:47:46.000Z</time>
      </trkpt>
      <trkpt lat="44.38423" lon="6.39947">
        <ele>2112</ele>
        <time>2020-07-07T11:47:47.000Z</time>
      </trkpt>
      <trkpt lat="44.38422" lon="6.39947">
        <ele>2111</ele>
        <time>2020-07-07T11:47:48.000Z</time>
      </trkpt>
      <trkpt lat="44.38422" lon="6.39947">
        <ele>2111</ele>
        <time>2020-07-07T11:47:49.000Z</time>
      </trkpt>
      <trkpt lat="44.38421" lon="6.39946">
        <ele>2111</ele>
        <time>2020-07-07T11:47:50.000Z</time>
      </trkpt>
      <trkpt lat="44.3842" lon="6.39945">
        <ele>2111</ele>
        <time>2020-07-07T11:47:51.000Z</time>
      </trkpt>
      <trkpt lat="44.38419" lon="6.39944">
        <ele>2111</ele>
        <time>2020-07-07T11:47:52.000Z</time>
      </trkpt>
      <trkpt lat="44.38418" lon="6.39943">
        <ele>2111</ele>
        <time>2020-07-07T11:47:53.000Z</time>
      </trkpt>
      <trkpt lat="44.38417" lon="6.39942">
        <ele>2111</ele>
        <time>2020-07-07T11:47:54.000Z</time>
      </trkpt>
      <trkpt lat="44.38416" lon="6.39941">
        <ele>2111</ele>
        <time>2020-07-07T11:47:55.000Z</time>
      </trkpt>
      <trkpt lat="44.38414" lon="6.3994">
        <ele>2112</ele>
        <time>2020-07-07T11:47:56.000Z</time>
      </trkpt>
      <trkpt lat="44.38413" lon="6.39939">
        <ele>2112</ele>
        <time>2020-07-07T11:47:57.000Z</time>
      </trkpt>
      <trkpt lat="44.38412" lon="6.39939">
        <ele>2112</ele>
        <time>2020-07-07T11:47:58.000Z</time>
      </trkpt>
      <trkpt lat="44.38412" lon="6.39938">
        <ele>2112</ele>
        <time>2020-07-07T11:47:59.000Z</time>
      </trkpt>
      <trkpt lat="44.38411" lon="6.39938">
        <ele>2112</ele>
        <time>2020-07-07T11:48:00.000Z</time>
      </trkpt>
      <trkpt lat="44.38411" lon="6.39938">
        <ele>2112</ele>
        <time>2020-07-07T11:48:01.000Z</time>
      </trkpt>
      <trkpt lat="44.3841" lon="6.39938">
        <ele>2112</ele>
        <time>2020-07-07T11:48:02.000Z</time>
      </trkpt>
      <trkpt lat="44.38408" lon="6.39938">
        <ele>2112</ele>
        <time>2020-07-07T11:48:03.000Z</time>
      </trkpt>
      <trkpt lat="44.38407" lon="6.39937">
        <ele>2112</ele>
        <time>2020-07-07T11:48:04.000Z</time>
      </trkpt>
      <trkpt lat="44.38406" lon="6.39936">
        <ele>2112</ele>
        <time>2020-07-07T11:48:05.000Z</time>
      </trkpt>
      <trkpt lat="44.38405" lon="6.39935">
        <ele>2112</ele>
        <time>2020-07-07T11:48:06.000Z</time>
      </trkpt>
      <trkpt lat="44.38404" lon="6.39935">
        <ele>2112</ele>
        <time>2020-07-07T11:48:07.000Z</time>
      </trkpt>
      <trkpt lat="44.38403" lon="6.39934">
        <ele>2112</ele>
        <time>2020-07-07T11:48:08.000Z</time>
      </trkpt>
      <trkpt lat="44.38402" lon="6.39933">
        <ele>2112</ele>
        <time>2020-07-07T11:48:09.000Z</time>
      </trkpt>
      <trkpt lat="44.384" lon="6.39933">
        <ele>2112</ele>
        <time>2020-07-07T11:48:10.000Z</time>
      </trkpt>
      <trkpt lat="44.38399" lon="6.39932">
        <ele>2112</ele>
        <time>2020-07-07T11:48:11.000Z</time>
      </trkpt>
      <trkpt lat="44.38398" lon="6.39932">
        <ele>2112</ele>
        <time>2020-07-07T11:48:12.000Z</time>
      </trkpt>
      <trkpt lat="44.38397" lon="6.39931">
        <ele>2112</ele>
        <time>2020-07-07T11:48:13.000Z</time>
      </trkpt>
      <trkpt lat="44.38396" lon="6.3993">
        <ele>2112</ele>
        <time>2020-07-07T11:48:14.000Z</time>
      </trkpt>
      <trkpt lat="44.38395" lon="6.39929">
        <ele>2112</ele>
        <time>2020-07-07T11:48:15.000Z</time>
      </trkpt>
      <trkpt lat="44.38394" lon="6.39929">
        <ele>2113</ele>
        <time>2020-07-07T11:48:16.000Z</time>
      </trkpt>
      <trkpt lat="44.38392" lon="6.39928">
        <ele>2113</ele>
        <time>2020-07-07T11:48:17.000Z</time>
      </trkpt>
      <trkpt lat="44.38391" lon="6.39927">
        <ele>2113</ele>
        <time>2020-07-07T11:48:18.000Z</time>
      </trkpt>
      <trkpt lat="44.3839" lon="6.39927">
        <ele>2113</ele>
        <time>2020-07-07T11:48:19.000Z</time>
      </trkpt>
      <trkpt lat="44.38389" lon="6.39926">
        <ele>2113</ele>
        <time>2020-07-07T11:48:20.000Z</time>
      </trkpt>
      <trkpt lat="44.38388" lon="6.39925">
        <ele>2113</ele>
        <time>2020-07-07T11:48:21.000Z</time>
      </trkpt>
      <trkpt lat="44.38387" lon="6.39925">
        <ele>2113</ele>
        <time>2020-07-07T11:48:22.000Z</time>
      </trkpt>
      <trkpt lat="44.38386" lon="6.39924">
        <ele>2113</ele>
        <time>2020-07-07T11:48:23.000Z</time>
      </trkpt>
      <trkpt lat="44.38385" lon="6.39923">
        <ele>2113</ele>
        <time>2020-07-07T11:48:24.000Z</time>
      </trkpt>
      <trkpt lat="44.38384" lon="6.39923">
        <ele>2113</ele>
        <time>2020-07-07T11:48:25.000Z</time>
      </trkpt>
      <trkpt lat="44.38383" lon="6.39923">
        <ele>2114</ele>
        <time>2020-07-07T11:48:26.000Z</time>
      </trkpt>
      <trkpt lat="44.38382" lon="6.39922">
        <ele>2114</ele>
        <time>2020-07-07T11:48:27.000Z</time>
      </trkpt>
      <trkpt lat="44.38381" lon="6.39922">
        <ele>2114</ele>
        <time>2020-07-07T11:48:28.000Z</time>
      </trkpt>
      <trkpt lat="44.3838" lon="6.39922">
        <ele>2114</ele>
        <time>2020-07-07T11:48:29.000Z</time>
      </trkpt>
      <trkpt lat="44.38379" lon="6.39921">
        <ele>2114</ele>
        <time>2020-07-07T11:48:30.000Z</time>
      </trkpt>
      <trkpt lat="44.38378" lon="6.39921">
        <ele>2114</ele>
        <time>2020-07-07T11:48:31.000Z</time>
      </trkpt>
      <trkpt lat="44.38377" lon="6.3992">
        <ele>2114</ele>
        <time>2020-07-07T11:48:32.000Z</time>
      </trkpt>
      <trkpt lat="44.38376" lon="6.3992">
        <ele>2114</ele>
        <time>2020-07-07T11:48:33.000Z</time>
      </trkpt>
      <trkpt lat="44.38375" lon="6.39919">
        <ele>2114</ele>
        <time>2020-07-07T11:48:34.000Z</time>
      </trkpt>
      <trkpt lat="44.38374" lon="6.39919">
        <ele>2115</ele>
        <time>2020-07-07T11:48:35.000Z</time>
      </trkpt>
      <trkpt lat="44.38373" lon="6.39918">
        <ele>2115</ele>
        <time>2020-07-07T11:48:36.000Z</time>
      </trkpt>
      <trkpt lat="44.38372" lon="6.39917">
        <ele>2115</ele>
        <time>2020-07-07T11:48:37.000Z</time>
      </trkpt>
      <trkpt lat="44.38371" lon="6.39917">
        <ele>2115</ele>
        <time>2020-07-07T11:48:38.000Z</time>
      </trkpt>
      <trkpt lat="44.38369" lon="6.39917">
        <ele>2115</ele>
        <time>2020-07-07T11:48:39.000Z</time>
      </trkpt>
      <trkpt lat="44.38368" lon="6.39916">
        <ele>2115</ele>
        <time>2020-07-07T11:48:40.000Z</time>
      </trkpt>
      <trkpt lat="44.38367" lon="6.39915">
        <ele>2115</ele>
        <time>2020-07-07T11:48:41.000Z</time>
      </trkpt>
      <trkpt lat="44.38366" lon="6.39915">
        <ele>2115</ele>
        <time>2020-07-07T11:48:42.000Z</time>
      </trkpt>
      <trkpt lat="44.38365" lon="6.39914">
        <ele>2115</ele>
        <time>2020-07-07T11:48:43.000Z</time>
      </trkpt>
      <trkpt lat="44.38364" lon="6.39914">
        <ele>2115</ele>
        <time>2020-07-07T11:48:44.000Z</time>
      </trkpt>
      <trkpt lat="44.38363" lon="6.39913">
        <ele>2115</ele>
        <time>2020-07-07T11:48:45.000Z</time>
      </trkpt>
      <trkpt lat="44.38363" lon="6.39912">
        <ele>2115</ele>
        <time>2020-07-07T11:48:46.000Z</time>
      </trkpt>
      <trkpt lat="44.38362" lon="6.39912">
        <ele>2115</ele>
        <time>2020-07-07T11:48:47.000Z</time>
      </trkpt>
      <trkpt lat="44.38361" lon="6.39912">
        <ele>2116</ele>
        <time>2020-07-07T11:48:48.000Z</time>
      </trkpt>
      <trkpt lat="44.3836" lon="6.39911">
        <ele>2116</ele>
        <time>2020-07-07T11:48:49.000Z</time>
      </trkpt>
      <trkpt lat="44.38359" lon="6.39911">
        <ele>2116</ele>
        <time>2020-07-07T11:48:50.000Z</time>
      </trkpt>
      <trkpt lat="44.38357" lon="6.3991">
        <ele>2116</ele>
        <time>2020-07-07T11:48:51.000Z</time>
      </trkpt>
      <trkpt lat="44.38356" lon="6.3991">
        <ele>2116</ele>
        <time>2020-07-07T11:48:52.000Z</time>
      </trkpt>
      <trkpt lat="44.38355" lon="6.3991">
        <ele>2116</ele>
        <time>2020-07-07T11:48:53.000Z</time>
      </trkpt>
      <trkpt lat="44.38354" lon="6.39909">
        <ele>2116</ele>
        <time>2020-07-07T11:48:54.000Z</time>
      </trkpt>
      <trkpt lat="44.38353" lon="6.39909">
        <ele>2116</ele>
        <time>2020-07-07T11:48:55.000Z</time>
      </trkpt>
      <trkpt lat="44.38351" lon="6.39908">
        <ele>2116</ele>
        <time>2020-07-07T11:48:56.000Z</time>
      </trkpt>
      <trkpt lat="44.3835" lon="6.39908">
        <ele>2116</ele>
        <time>2020-07-07T11:48:57.000Z</time>
      </trkpt>
      <trkpt lat="44.38349" lon="6.39908">
        <ele>2117</ele>
        <time>2020-07-07T11:48:58.000Z</time>
      </trkpt>
      <trkpt lat="44.38348" lon="6.39907">
        <ele>2117</ele>
        <time>2020-07-07T11:48:59.000Z</time>
      </trkpt>
      <trkpt lat="44.38347" lon="6.39907">
        <ele>2117</ele>
        <time>2020-07-07T11:49:00.000Z</time>
      </trkpt>
      <trkpt lat="44.38346" lon="6.39906">
        <ele>2117</ele>
        <time>2020-07-07T11:49:01.000Z</time>
      </trkpt>
      <trkpt lat="44.38345" lon="6.39906">
        <ele>2117</ele>
        <time>2020-07-07T11:49:02.000Z</time>
      </trkpt>
      <trkpt lat="44.38344" lon="6.39906">
        <ele>2117</ele>
        <time>2020-07-07T11:49:03.000Z</time>
      </trkpt>
      <trkpt lat="44.38343" lon="6.39906">
        <ele>2117</ele>
        <time>2020-07-07T11:49:04.000Z</time>
      </trkpt>
      <trkpt lat="44.38341" lon="6.39906">
        <ele>2117</ele>
        <time>2020-07-07T11:49:05.000Z</time>
      </trkpt>
      <trkpt lat="44.3834" lon="6.39906">
        <ele>2117</ele>
        <time>2020-07-07T11:49:06.000Z</time>
      </trkpt>
      <trkpt lat="44.38338" lon="6.39906">
        <ele>2117</ele>
        <time>2020-07-07T11:49:07.000Z</time>
      </trkpt>
      <trkpt lat="44.38337" lon="6.39906">
        <ele>2117</ele>
        <time>2020-07-07T11:49:08.000Z</time>
      </trkpt>
      <trkpt lat="44.38336" lon="6.39905">
        <ele>2118</ele>
        <time>2020-07-07T11:49:09.000Z</time>
      </trkpt>
      <trkpt lat="44.38335" lon="6.39905">
        <ele>2118</ele>
        <time>2020-07-07T11:49:10.000Z</time>
      </trkpt>
      <trkpt lat="44.38334" lon="6.39905">
        <ele>2118</ele>
        <time>2020-07-07T11:49:11.000Z</time>
      </trkpt>
      <trkpt lat="44.38333" lon="6.39905">
        <ele>2118</ele>
        <time>2020-07-07T11:49:12.000Z</time>
      </trkpt>
      <trkpt lat="44.38332" lon="6.39905">
        <ele>2118</ele>
        <time>2020-07-07T11:49:13.000Z</time>
      </trkpt>
      <trkpt lat="44.38331" lon="6.39905">
        <ele>2118</ele>
        <time>2020-07-07T11:49:14.000Z</time>
      </trkpt>
      <trkpt lat="44.3833" lon="6.39906">
        <ele>2118</ele>
        <time>2020-07-07T11:49:15.000Z</time>
      </trkpt>
      <trkpt lat="44.38329" lon="6.39906">
        <ele>2118</ele>
        <time>2020-07-07T11:49:16.000Z</time>
      </trkpt>
      <trkpt lat="44.38328" lon="6.39906">
        <ele>2118</ele>
        <time>2020-07-07T11:49:17.000Z</time>
      </trkpt>
      <trkpt lat="44.38327" lon="6.39905">
        <ele>2118</ele>
        <time>2020-07-07T11:49:18.000Z</time>
      </trkpt>
      <trkpt lat="44.38326" lon="6.39905">
        <ele>2118</ele>
        <time>2020-07-07T11:49:19.000Z</time>
      </trkpt>
      <trkpt lat="44.38326" lon="6.39905">
        <ele>2118</ele>
        <time>2020-07-07T11:49:20.000Z</time>
      </trkpt>
      <trkpt lat="44.38326" lon="6.39905">
        <ele>2118</ele>
        <time>2020-07-07T11:49:21.000Z</time>
      </trkpt>
      <trkpt lat="44.38325" lon="6.39905">
        <ele>2118</ele>
        <time>2020-07-07T11:49:22.000Z</time>
      </trkpt>
      <trkpt lat="44.38325" lon="6.39904">
        <ele>2118</ele>
        <time>2020-07-07T11:49:23.000Z</time>
      </trkpt>
      <trkpt lat="44.38324" lon="6.39904">
        <ele>2118</ele>
        <time>2020-07-07T11:49:24.000Z</time>
      </trkpt>
      <trkpt lat="44.38324" lon="6.39904">
        <ele>2118</ele>
        <time>2020-07-07T11:49:25.000Z</time>
      </trkpt>
      <trkpt lat="44.38323" lon="6.39904">
        <ele>2118</ele>
        <time>2020-07-07T11:49:26.000Z</time>
      </trkpt>
      <trkpt lat="44.38322" lon="6.39904">
        <ele>2118</ele>
        <time>2020-07-07T11:49:27.000Z</time>
      </trkpt>
      <trkpt lat="44.38321" lon="6.39903">
        <ele>2118</ele>
        <time>2020-07-07T11:49:28.000Z</time>
      </trkpt>
      <trkpt lat="44.3832" lon="6.39903">
        <ele>2118</ele>
        <time>2020-07-07T11:49:29.000Z</time>
      </trkpt>
      <trkpt lat="44.38319" lon="6.39903">
        <ele>2118</ele>
        <time>2020-07-07T11:49:30.000Z</time>
      </trkpt>
      <trkpt lat="44.38319" lon="6.39902">
        <ele>2118</ele>
        <time>2020-07-07T11:49:31.000Z</time>
      </trkpt>
      <trkpt lat="44.38318" lon="6.39902">
        <ele>2118</ele>
        <time>2020-07-07T11:49:32.000Z</time>
      </trkpt>
      <trkpt lat="44.38317" lon="6.39901">
        <ele>2118</ele>
        <time>2020-07-07T11:49:33.000Z</time>
      </trkpt>
      <trkpt lat="44.38316" lon="6.39901">
        <ele>2118</ele>
        <time>2020-07-07T11:49:34.000Z</time>
      </trkpt>
      <trkpt lat="44.38315" lon="6.39901">
        <ele>2118</ele>
        <time>2020-07-07T11:49:35.000Z</time>
      </trkpt>
      <trkpt lat="44.38314" lon="6.39901">
        <ele>2118</ele>
        <time>2020-07-07T11:49:36.000Z</time>
      </trkpt>
      <trkpt lat="44.38314" lon="6.39901">
        <ele>2118</ele>
        <time>2020-07-07T11:49:37.000Z</time>
      </trkpt>
      <trkpt lat="44.38313" lon="6.39901">
        <ele>2117</ele>
        <time>2020-07-07T11:49:38.000Z</time>
      </trkpt>
      <trkpt lat="44.38312" lon="6.39901">
        <ele>2117</ele>
        <time>2020-07-07T11:49:39.000Z</time>
      </trkpt>
      <trkpt lat="44.38312" lon="6.39901">
        <ele>2117</ele>
        <time>2020-07-07T11:49:40.000Z</time>
      </trkpt>
      <trkpt lat="44.38311" lon="6.399">
        <ele>2117</ele>
        <time>2020-07-07T11:49:41.000Z</time>
      </trkpt>
      <trkpt lat="44.38311" lon="6.399">
        <ele>2117</ele>
        <time>2020-07-07T11:49:42.000Z</time>
      </trkpt>
      <trkpt lat="44.3831" lon="6.399">
        <ele>2117</ele>
        <time>2020-07-07T11:49:43.000Z</time>
      </trkpt>
      <trkpt lat="44.3831" lon="6.399">
        <ele>2117</ele>
        <time>2020-07-07T11:49:44.000Z</time>
      </trkpt>
      <trkpt lat="44.38309" lon="6.399">
        <ele>2117</ele>
        <time>2020-07-07T11:49:45.000Z</time>
      </trkpt>
      <trkpt lat="44.38309" lon="6.39899">
        <ele>2117</ele>
        <time>2020-07-07T11:49:46.000Z</time>
      </trkpt>
      <trkpt lat="44.38309" lon="6.39899">
        <ele>2118</ele>
        <time>2020-07-07T11:49:47.000Z</time>
      </trkpt>
      <trkpt lat="44.38309" lon="6.39898">
        <ele>2118</ele>
        <time>2020-07-07T11:49:48.000Z</time>
      </trkpt>
      <trkpt lat="44.38309" lon="6.39898">
        <ele>2118</ele>
        <time>2020-07-07T11:49:49.000Z</time>
      </trkpt>
      <trkpt lat="44.38309" lon="6.39897">
        <ele>2118</ele>
        <time>2020-07-07T11:49:50.000Z</time>
      </trkpt>
      <trkpt lat="44.38308" lon="6.39897">
        <ele>2118</ele>
        <time>2020-07-07T11:49:51.000Z</time>
      </trkpt>
      <trkpt lat="44.38308" lon="6.39896">
        <ele>2118</ele>
        <time>2020-07-07T11:49:52.000Z</time>
      </trkpt>
      <trkpt lat="44.38308" lon="6.39896">
        <ele>2118</ele>
        <time>2020-07-07T11:49:53.000Z</time>
      </trkpt>
      <trkpt lat="44.38307" lon="6.39895">
        <ele>2118</ele>
        <time>2020-07-07T11:49:54.000Z</time>
      </trkpt>
      <trkpt lat="44.38307" lon="6.39895">
        <ele>2118</ele>
        <time>2020-07-07T11:49:55.000Z</time>
      </trkpt>
      <trkpt lat="44.38306" lon="6.39895">
        <ele>2118</ele>
        <time>2020-07-07T11:49:56.000Z</time>
      </trkpt>
      <trkpt lat="44.38305" lon="6.39896">
        <ele>2118</ele>
        <time>2020-07-07T11:49:57.000Z</time>
      </trkpt>
      <trkpt lat="44.38305" lon="6.39896">
        <ele>2118</ele>
        <time>2020-07-07T11:49:58.000Z</time>
      </trkpt>
      <trkpt lat="44.38304" lon="6.39896">
        <ele>2118</ele>
        <time>2020-07-07T11:49:59.000Z</time>
      </trkpt>
      <trkpt lat="44.38303" lon="6.39896">
        <ele>2118</ele>
        <time>2020-07-07T11:50:00.000Z</time>
      </trkpt>
      <trkpt lat="44.38302" lon="6.39897">
        <ele>2118</ele>
        <time>2020-07-07T11:50:01.000Z</time>
      </trkpt>
      <trkpt lat="44.38301" lon="6.39897">
        <ele>2118</ele>
        <time>2020-07-07T11:50:02.000Z</time>
      </trkpt>
      <trkpt lat="44.383" lon="6.39897">
        <ele>2118</ele>
        <time>2020-07-07T11:50:03.000Z</time>
      </trkpt>
      <trkpt lat="44.38299" lon="6.39897">
        <ele>2117</ele>
        <time>2020-07-07T11:50:04.000Z</time>
      </trkpt>
      <trkpt lat="44.38298" lon="6.39897">
        <ele>2117</ele>
        <time>2020-07-07T11:50:05.000Z</time>
      </trkpt>
      <trkpt lat="44.38296" lon="6.39897">
        <ele>2117</ele>
        <time>2020-07-07T11:50:06.000Z</time>
      </trkpt>
      <trkpt lat="44.38295" lon="6.39897">
        <ele>2117</ele>
        <time>2020-07-07T11:50:07.000Z</time>
      </trkpt>
      <trkpt lat="44.38294" lon="6.39896">
        <ele>2117</ele>
        <time>2020-07-07T11:50:08.000Z</time>
      </trkpt>
      <trkpt lat="44.38293" lon="6.39896">
        <ele>2117</ele>
        <time>2020-07-07T11:50:09.000Z</time>
      </trkpt>
      <trkpt lat="44.38292" lon="6.39896">
        <ele>2117</ele>
        <time>2020-07-07T11:50:10.000Z</time>
      </trkpt>
      <trkpt lat="44.38291" lon="6.39895">
        <ele>2117</ele>
        <time>2020-07-07T11:50:11.000Z</time>
      </trkpt>
      <trkpt lat="44.3829" lon="6.39895">
        <ele>2117</ele>
        <time>2020-07-07T11:50:12.000Z</time>
      </trkpt>
      <trkpt lat="44.38289" lon="6.39894">
        <ele>2117</ele>
        <time>2020-07-07T11:50:13.000Z</time>
      </trkpt>
      <trkpt lat="44.38288" lon="6.39894">
        <ele>2117</ele>
        <time>2020-07-07T11:50:14.000Z</time>
      </trkpt>
      <trkpt lat="44.38287" lon="6.39894">
        <ele>2117</ele>
        <time>2020-07-07T11:50:15.000Z</time>
      </trkpt>
      <trkpt lat="44.38286" lon="6.39894">
        <ele>2117</ele>
        <time>2020-07-07T11:50:16.000Z</time>
      </trkpt>
      <trkpt lat="44.38285" lon="6.39893">
        <ele>2117</ele>
        <time>2020-07-07T11:50:17.000Z</time>
      </trkpt>
      <trkpt lat="44.38284" lon="6.39893">
        <ele>2117</ele>
        <time>2020-07-07T11:50:18.000Z</time>
      </trkpt>
      <trkpt lat="44.38284" lon="6.39893">
        <ele>2117</ele>
        <time>2020-07-07T11:50:19.000Z</time>
      </trkpt>
      <trkpt lat="44.38283" lon="6.39893">
        <ele>2117</ele>
        <time>2020-07-07T11:50:20.000Z</time>
      </trkpt>
      <trkpt lat="44.38283" lon="6.39893">
        <ele>2117</ele>
        <time>2020-07-07T11:50:21.000Z</time>
      </trkpt>
      <trkpt lat="44.38282" lon="6.39893">
        <ele>2116</ele>
        <time>2020-07-07T11:50:22.000Z</time>
      </trkpt>
      <trkpt lat="44.38281" lon="6.39893">
        <ele>2116</ele>
        <time>2020-07-07T11:50:23.000Z</time>
      </trkpt>
      <trkpt lat="44.38281" lon="6.39893">
        <ele>2116</ele>
        <time>2020-07-07T11:50:24.000Z</time>
      </trkpt>
      <trkpt lat="44.3828" lon="6.39893">
        <ele>2116</ele>
        <time>2020-07-07T11:50:25.000Z</time>
      </trkpt>
      <trkpt lat="44.38279" lon="6.39892">
        <ele>2116</ele>
        <time>2020-07-07T11:50:26.000Z</time>
      </trkpt>
      <trkpt lat="44.38279" lon="6.39892">
        <ele>2116</ele>
        <time>2020-07-07T11:50:27.000Z</time>
      </trkpt>
      <trkpt lat="44.38278" lon="6.39891">
        <ele>2116</ele>
        <time>2020-07-07T11:50:28.000Z</time>
      </trkpt>
      <trkpt lat="44.38278" lon="6.39891">
        <ele>2116</ele>
        <time>2020-07-07T11:50:29.000Z</time>
      </trkpt>
      <trkpt lat="44.38278" lon="6.39891">
        <ele>2115</ele>
        <time>2020-07-07T11:50:30.000Z</time>
      </trkpt>
      <trkpt lat="44.38278" lon="6.3989">
        <ele>2115</ele>
        <time>2020-07-07T11:50:31.000Z</time>
      </trkpt>
      <trkpt lat="44.38277" lon="6.39889">
        <ele>2115</ele>
        <time>2020-07-07T11:50:32.000Z</time>
      </trkpt>
      <trkpt lat="44.38277" lon="6.39888">
        <ele>2115</ele>
        <time>2020-07-07T11:50:33.000Z</time>
      </trkpt>
      <trkpt lat="44.38276" lon="6.39887">
        <ele>2115</ele>
        <time>2020-07-07T11:50:34.000Z</time>
      </trkpt>
      <trkpt lat="44.38275" lon="6.39887">
        <ele>2114</ele>
        <time>2020-07-07T11:50:35.000Z</time>
      </trkpt>
      <trkpt lat="44.38274" lon="6.39887">
        <ele>2114</ele>
        <time>2020-07-07T11:50:36.000Z</time>
      </trkpt>
      <trkpt lat="44.38274" lon="6.39886">
        <ele>2114</ele>
        <time>2020-07-07T11:50:37.000Z</time>
      </trkpt>
      <trkpt lat="44.38273" lon="6.39886">
        <ele>2114</ele>
        <time>2020-07-07T11:50:38.000Z</time>
      </trkpt>
      <trkpt lat="44.38272" lon="6.39885">
        <ele>2114</ele>
        <time>2020-07-07T11:50:39.000Z</time>
      </trkpt>
      <trkpt lat="44.38271" lon="6.39885">
        <ele>2113</ele>
        <time>2020-07-07T11:50:40.000Z</time>
      </trkpt>
      <trkpt lat="44.3827" lon="6.39885">
        <ele>2113</ele>
        <time>2020-07-07T11:50:41.000Z</time>
      </trkpt>
      <trkpt lat="44.38269" lon="6.39885">
        <ele>2113</ele>
        <time>2020-07-07T11:50:42.000Z</time>
      </trkpt>
      <trkpt lat="44.38268" lon="6.39885">
        <ele>2113</ele>
        <time>2020-07-07T11:50:43.000Z</time>
      </trkpt>
      <trkpt lat="44.38267" lon="6.39884">
        <ele>2113</ele>
        <time>2020-07-07T11:50:44.000Z</time>
      </trkpt>
      <trkpt lat="44.38267" lon="6.39884">
        <ele>2113</ele>
        <time>2020-07-07T11:50:45.000Z</time>
      </trkpt>
      <trkpt lat="44.38267" lon="6.39883">
        <ele>2112</ele>
        <time>2020-07-07T11:50:46.000Z</time>
      </trkpt>
      <trkpt lat="44.38267" lon="6.39882">
        <ele>2112</ele>
        <time>2020-07-07T11:50:47.000Z</time>
      </trkpt>
      <trkpt lat="44.38267" lon="6.39882">
        <ele>2112</ele>
        <time>2020-07-07T11:50:48.000Z</time>
      </trkpt>
      <trkpt lat="44.38267" lon="6.39881">
        <ele>2112</ele>
        <time>2020-07-07T11:50:49.000Z</time>
      </trkpt>
      <trkpt lat="44.38267" lon="6.39881">
        <ele>2112</ele>
        <time>2020-07-07T11:50:50.000Z</time>
      </trkpt>
      <trkpt lat="44.38267" lon="6.39881">
        <ele>2112</ele>
        <time>2020-07-07T11:50:51.000Z</time>
      </trkpt>
      <trkpt lat="44.38267" lon="6.3988">
        <ele>2111</ele>
        <time>2020-07-07T11:50:52.000Z</time>
      </trkpt>
      <trkpt lat="44.38266" lon="6.3988">
        <ele>2111</ele>
        <time>2020-07-07T11:50:53.000Z</time>
      </trkpt>
      <trkpt lat="44.38266" lon="6.3988">
        <ele>2111</ele>
        <time>2020-07-07T11:50:54.000Z</time>
      </trkpt>
      <trkpt lat="44.38265" lon="6.39881">
        <ele>2111</ele>
        <time>2020-07-07T11:50:55.000Z</time>
      </trkpt>
      <trkpt lat="44.38265" lon="6.39881">
        <ele>2111</ele>
        <time>2020-07-07T11:50:56.000Z</time>
      </trkpt>
      <trkpt lat="44.38264" lon="6.39881">
        <ele>2111</ele>
        <time>2020-07-07T11:50:57.000Z</time>
      </trkpt>
      <trkpt lat="44.38263" lon="6.3988">
        <ele>2111</ele>
        <time>2020-07-07T11:50:58.000Z</time>
      </trkpt>
      <trkpt lat="44.38263" lon="6.3988">
        <ele>2110</ele>
        <time>2020-07-07T11:50:59.000Z</time>
      </trkpt>
      <trkpt lat="44.38262" lon="6.39881">
        <ele>2110</ele>
        <time>2020-07-07T11:51:00.000Z</time>
      </trkpt>
      <trkpt lat="44.38262" lon="6.39882">
        <ele>2110</ele>
        <time>2020-07-07T11:51:01.000Z</time>
      </trkpt>
      <trkpt lat="44.38261" lon="6.39883">
        <ele>2110</ele>
        <time>2020-07-07T11:51:02.000Z</time>
      </trkpt>
      <trkpt lat="44.3826" lon="6.39883">
        <ele>2110</ele>
        <time>2020-07-07T11:51:03.000Z</time>
      </trkpt>
      <trkpt lat="44.3826" lon="6.39883">
        <ele>2110</ele>
        <time>2020-07-07T11:51:04.000Z</time>
      </trkpt>
      <trkpt lat="44.38259" lon="6.39882">
        <ele>2110</ele>
        <time>2020-07-07T11:51:05.000Z</time>
      </trkpt>
      <trkpt lat="44.38259" lon="6.39882">
        <ele>2109</ele>
        <time>2020-07-07T11:51:06.000Z</time>
      </trkpt>
      <trkpt lat="44.38258" lon="6.39881">
        <ele>2109</ele>
        <time>2020-07-07T11:51:07.000Z</time>
      </trkpt>
      <trkpt lat="44.38257" lon="6.39881">
        <ele>2109</ele>
        <time>2020-07-07T11:51:08.000Z</time>
      </trkpt>
      <trkpt lat="44.38256" lon="6.39881">
        <ele>2109</ele>
        <time>2020-07-07T11:51:09.000Z</time>
      </trkpt>
      <trkpt lat="44.38256" lon="6.3988">
        <ele>2109</ele>
        <time>2020-07-07T11:51:10.000Z</time>
      </trkpt>
      <trkpt lat="44.38255" lon="6.3988">
        <ele>2109</ele>
        <time>2020-07-07T11:51:11.000Z</time>
      </trkpt>
      <trkpt lat="44.38254" lon="6.3988">
        <ele>2109</ele>
        <time>2020-07-07T11:51:12.000Z</time>
      </trkpt>
      <trkpt lat="44.38253" lon="6.3988">
        <ele>2109</ele>
        <time>2020-07-07T11:51:13.000Z</time>
      </trkpt>
      <trkpt lat="44.38253" lon="6.39879">
        <ele>2109</ele>
        <time>2020-07-07T11:51:14.000Z</time>
      </trkpt>
      <trkpt lat="44.38252" lon="6.39879">
        <ele>2109</ele>
        <time>2020-07-07T11:51:15.000Z</time>
      </trkpt>
      <trkpt lat="44.38252" lon="6.39879">
        <ele>2109</ele>
        <time>2020-07-07T11:51:16.000Z</time>
      </trkpt>
      <trkpt lat="44.38251" lon="6.39879">
        <ele>2109</ele>
        <time>2020-07-07T11:51:17.000Z</time>
      </trkpt>
      <trkpt lat="44.38251" lon="6.39878">
        <ele>2109</ele>
        <time>2020-07-07T11:51:18.000Z</time>
      </trkpt>
      <trkpt lat="44.3825" lon="6.39877">
        <ele>2109</ele>
        <time>2020-07-07T11:51:19.000Z</time>
      </trkpt>
      <trkpt lat="44.3825" lon="6.39875">
        <ele>2108</ele>
        <time>2020-07-07T11:51:20.000Z</time>
      </trkpt>
      <trkpt lat="44.3825" lon="6.39874">
        <ele>2108</ele>
        <time>2020-07-07T11:51:21.000Z</time>
      </trkpt>
      <trkpt lat="44.38251" lon="6.39873">
        <ele>2108</ele>
        <time>2020-07-07T11:51:22.000Z</time>
      </trkpt>
      <trkpt lat="44.38251" lon="6.39872">
        <ele>2108</ele>
        <time>2020-07-07T11:51:23.000Z</time>
      </trkpt>
      <trkpt lat="44.38252" lon="6.3987">
        <ele>2108</ele>
        <time>2020-07-07T11:51:24.000Z</time>
      </trkpt>
      <trkpt lat="44.38252" lon="6.39869">
        <ele>2108</ele>
        <time>2020-07-07T11:51:25.000Z</time>
      </trkpt>
      <trkpt lat="44.38253" lon="6.39868">
        <ele>2108</ele>
        <time>2020-07-07T11:51:26.000Z</time>
      </trkpt>
      <trkpt lat="44.38253" lon="6.39866">
        <ele>2108</ele>
        <time>2020-07-07T11:51:27.000Z</time>
      </trkpt>
      <trkpt lat="44.38254" lon="6.39865">
        <ele>2108</ele>
        <time>2020-07-07T11:51:28.000Z</time>
      </trkpt>
      <trkpt lat="44.38255" lon="6.39864">
        <ele>2108</ele>
        <time>2020-07-07T11:51:29.000Z</time>
      </trkpt>
      <trkpt lat="44.38256" lon="6.39863">
        <ele>2107</ele>
        <time>2020-07-07T11:51:30.000Z</time>
      </trkpt>
      <trkpt lat="44.38256" lon="6.39862">
        <ele>2107</ele>
        <time>2020-07-07T11:51:31.000Z</time>
      </trkpt>
      <trkpt lat="44.38256" lon="6.39862">
        <ele>2107</ele>
        <time>2020-07-07T11:51:32.000Z</time>
      </trkpt>
      <trkpt lat="44.38256" lon="6.39862">
        <ele>2107</ele>
        <time>2020-07-07T11:51:33.000Z</time>
      </trkpt>
      <trkpt lat="44.38256" lon="6.39862">
        <ele>2107</ele>
        <time>2020-07-07T11:51:34.000Z</time>
      </trkpt>
      <trkpt lat="44.38257" lon="6.39861">
        <ele>2107</ele>
        <time>2020-07-07T11:51:35.000Z</time>
      </trkpt>
      <trkpt lat="44.38257" lon="6.39861">
        <ele>2106</ele>
        <time>2020-07-07T11:51:36.000Z</time>
      </trkpt>
      <trkpt lat="44.38258" lon="6.39861">
        <ele>2106</ele>
        <time>2020-07-07T11:51:37.000Z</time>
      </trkpt>
      <trkpt lat="44.38258" lon="6.3986">
        <ele>2106</ele>
        <time>2020-07-07T11:51:38.000Z</time>
      </trkpt>
      <trkpt lat="44.38259" lon="6.3986">
        <ele>2106</ele>
        <time>2020-07-07T11:51:39.000Z</time>
      </trkpt>
      <trkpt lat="44.38259" lon="6.39859">
        <ele>2106</ele>
        <time>2020-07-07T11:51:40.000Z</time>
      </trkpt>
      <trkpt lat="44.3826" lon="6.39859">
        <ele>2106</ele>
        <time>2020-07-07T11:51:41.000Z</time>
      </trkpt>
      <trkpt lat="44.38261" lon="6.39858">
        <ele>2106</ele>
        <time>2020-07-07T11:51:42.000Z</time>
      </trkpt>
      <trkpt lat="44.38261" lon="6.39857">
        <ele>2105</ele>
        <time>2020-07-07T11:51:43.000Z</time>
      </trkpt>
      <trkpt lat="44.38262" lon="6.39857">
        <ele>2105</ele>
        <time>2020-07-07T11:51:44.000Z</time>
      </trkpt>
      <trkpt lat="44.38263" lon="6.39856">
        <ele>2105</ele>
        <time>2020-07-07T11:51:45.000Z</time>
      </trkpt>
      <trkpt lat="44.38263" lon="6.39854">
        <ele>2105</ele>
        <time>2020-07-07T11:51:46.000Z</time>
      </trkpt>
      <trkpt lat="44.38264" lon="6.39854">
        <ele>2105</ele>
        <time>2020-07-07T11:51:47.000Z</time>
      </trkpt>
      <trkpt lat="44.38265" lon="6.39853">
        <ele>2105</ele>
        <time>2020-07-07T11:51:48.000Z</time>
      </trkpt>
      <trkpt lat="44.38266" lon="6.39852">
        <ele>2105</ele>
        <time>2020-07-07T11:51:49.000Z</time>
      </trkpt>
      <trkpt lat="44.38267" lon="6.39852">
        <ele>2105</ele>
        <time>2020-07-07T11:51:50.000Z</time>
      </trkpt>
      <trkpt lat="44.38267" lon="6.39852">
        <ele>2104</ele>
        <time>2020-07-07T11:51:51.000Z</time>
      </trkpt>
      <trkpt lat="44.38268" lon="6.39852">
        <ele>2104</ele>
        <time>2020-07-07T11:51:52.000Z</time>
      </trkpt>
      <trkpt lat="44.38268" lon="6.39852">
        <ele>2104</ele>
        <time>2020-07-07T11:51:53.000Z</time>
      </trkpt>
      <trkpt lat="44.38268" lon="6.39851">
        <ele>2104</ele>
        <time>2020-07-07T11:51:54.000Z</time>
      </trkpt>
      <trkpt lat="44.38268" lon="6.3985">
        <ele>2104</ele>
        <time>2020-07-07T11:51:55.000Z</time>
      </trkpt>
      <trkpt lat="44.38268" lon="6.39849">
        <ele>2103</ele>
        <time>2020-07-07T11:51:56.000Z</time>
      </trkpt>
      <trkpt lat="44.38268" lon="6.39848">
        <ele>2103</ele>
        <time>2020-07-07T11:51:57.000Z</time>
      </trkpt>
      <trkpt lat="44.38268" lon="6.39848">
        <ele>2103</ele>
        <time>2020-07-07T11:51:58.000Z</time>
      </trkpt>
      <trkpt lat="44.38268" lon="6.39847">
        <ele>2103</ele>
        <time>2020-07-07T11:51:59.000Z</time>
      </trkpt>
      <trkpt lat="44.38269" lon="6.39846">
        <ele>2103</ele>
        <time>2020-07-07T11:52:00.000Z</time>
      </trkpt>
      <trkpt lat="44.38269" lon="6.39845">
        <ele>2103</ele>
        <time>2020-07-07T11:52:01.000Z</time>
      </trkpt>
      <trkpt lat="44.38269" lon="6.39844">
        <ele>2102</ele>
        <time>2020-07-07T11:52:02.000Z</time>
      </trkpt>
      <trkpt lat="44.3827" lon="6.39843">
        <ele>2102</ele>
        <time>2020-07-07T11:52:03.000Z</time>
      </trkpt>
      <trkpt lat="44.38271" lon="6.39842">
        <ele>2102</ele>
        <time>2020-07-07T11:52:04.000Z</time>
      </trkpt>
      <trkpt lat="44.38272" lon="6.39841">
        <ele>2102</ele>
        <time>2020-07-07T11:52:05.000Z</time>
      </trkpt>
      <trkpt lat="44.38273" lon="6.39841">
        <ele>2102</ele>
        <time>2020-07-07T11:52:06.000Z</time>
      </trkpt>
      <trkpt lat="44.38273" lon="6.39841">
        <ele>2102</ele>
        <time>2020-07-07T11:52:07.000Z</time>
      </trkpt>
      <trkpt lat="44.38274" lon="6.39841">
        <ele>2101</ele>
        <time>2020-07-07T11:52:08.000Z</time>
      </trkpt>
      <trkpt lat="44.38275" lon="6.3984">
        <ele>2101</ele>
        <time>2020-07-07T11:52:09.000Z</time>
      </trkpt>
      <trkpt lat="44.38275" lon="6.3984">
        <ele>2101</ele>
        <time>2020-07-07T11:52:10.000Z</time>
      </trkpt>
      <trkpt lat="44.38275" lon="6.39839">
        <ele>2101</ele>
        <time>2020-07-07T11:52:11.000Z</time>
      </trkpt>
      <trkpt lat="44.38275" lon="6.39839">
        <ele>2101</ele>
        <time>2020-07-07T11:52:12.000Z</time>
      </trkpt>
      <trkpt lat="44.38275" lon="6.39838">
        <ele>2101</ele>
        <time>2020-07-07T11:52:13.000Z</time>
      </trkpt>
      <trkpt lat="44.38275" lon="6.39837">
        <ele>2100</ele>
        <time>2020-07-07T11:52:14.000Z</time>
      </trkpt>
      <trkpt lat="44.38275" lon="6.39836">
        <ele>2100</ele>
        <time>2020-07-07T11:52:15.000Z</time>
      </trkpt>
      <trkpt lat="44.38275" lon="6.39835">
        <ele>2100</ele>
        <time>2020-07-07T11:52:16.000Z</time>
      </trkpt>
      <trkpt lat="44.38275" lon="6.39835">
        <ele>2100</ele>
        <time>2020-07-07T11:52:17.000Z</time>
      </trkpt>
      <trkpt lat="44.38274" lon="6.39834">
        <ele>2100</ele>
        <time>2020-07-07T11:52:18.000Z</time>
      </trkpt>
      <trkpt lat="44.38274" lon="6.39833">
        <ele>2100</ele>
        <time>2020-07-07T11:52:19.000Z</time>
      </trkpt>
      <trkpt lat="44.38274" lon="6.39832">
        <ele>2100</ele>
        <time>2020-07-07T11:52:20.000Z</time>
      </trkpt>
      <trkpt lat="44.38273" lon="6.39831">
        <ele>2100</ele>
        <time>2020-07-07T11:52:21.000Z</time>
      </trkpt>
      <trkpt lat="44.38273" lon="6.3983">
        <ele>2099</ele>
        <time>2020-07-07T11:52:22.000Z</time>
      </trkpt>
      <trkpt lat="44.38273" lon="6.39829">
        <ele>2099</ele>
        <time>2020-07-07T11:52:23.000Z</time>
      </trkpt>
      <trkpt lat="44.38273" lon="6.39828">
        <ele>2099</ele>
        <time>2020-07-07T11:52:24.000Z</time>
      </trkpt>
      <trkpt lat="44.38272" lon="6.39827">
        <ele>2099</ele>
        <time>2020-07-07T11:52:25.000Z</time>
      </trkpt>
      <trkpt lat="44.38272" lon="6.39827">
        <ele>2099</ele>
        <time>2020-07-07T11:52:26.000Z</time>
      </trkpt>
      <trkpt lat="44.38272" lon="6.39826">
        <ele>2099</ele>
        <time>2020-07-07T11:52:27.000Z</time>
      </trkpt>
      <trkpt lat="44.38272" lon="6.39825">
        <ele>2099</ele>
        <time>2020-07-07T11:52:28.000Z</time>
      </trkpt>
      <trkpt lat="44.38271" lon="6.39824">
        <ele>2098</ele>
        <time>2020-07-07T11:52:29.000Z</time>
      </trkpt>
      <trkpt lat="44.38271" lon="6.39823">
        <ele>2098</ele>
        <time>2020-07-07T11:52:30.000Z</time>
      </trkpt>
      <trkpt lat="44.38271" lon="6.39822">
        <ele>2098</ele>
        <time>2020-07-07T11:52:31.000Z</time>
      </trkpt>
      <trkpt lat="44.38271" lon="6.39822">
        <ele>2098</ele>
        <time>2020-07-07T11:52:32.000Z</time>
      </trkpt>
      <trkpt lat="44.38271" lon="6.39821">
        <ele>2098</ele>
        <time>2020-07-07T11:52:33.000Z</time>
      </trkpt>
      <trkpt lat="44.38271" lon="6.3982">
        <ele>2097</ele>
        <time>2020-07-07T11:52:34.000Z</time>
      </trkpt>
      <trkpt lat="44.3827" lon="6.3982">
        <ele>2097</ele>
        <time>2020-07-07T11:52:35.000Z</time>
      </trkpt>
      <trkpt lat="44.3827" lon="6.39819">
        <ele>2097</ele>
        <time>2020-07-07T11:52:36.000Z</time>
      </trkpt>
      <trkpt lat="44.38269" lon="6.39818">
        <ele>2097</ele>
        <time>2020-07-07T11:52:37.000Z</time>
      </trkpt>
      <trkpt lat="44.38269" lon="6.39817">
        <ele>2097</ele>
        <time>2020-07-07T11:52:38.000Z</time>
      </trkpt>
      <trkpt lat="44.38269" lon="6.39817">
        <ele>2097</ele>
        <time>2020-07-07T11:52:39.000Z</time>
      </trkpt>
      <trkpt lat="44.38269" lon="6.39816">
        <ele>2097</ele>
        <time>2020-07-07T11:52:40.000Z</time>
      </trkpt>
      <trkpt lat="44.38268" lon="6.39815">
        <ele>2096</ele>
        <time>2020-07-07T11:52:41.000Z</time>
      </trkpt>
      <trkpt lat="44.38268" lon="6.39814">
        <ele>2096</ele>
        <time>2020-07-07T11:52:42.000Z</time>
      </trkpt>
      <trkpt lat="44.38268" lon="6.39813">
        <ele>2096</ele>
        <time>2020-07-07T11:52:43.000Z</time>
      </trkpt>
      <trkpt lat="44.38268" lon="6.39812">
        <ele>2096</ele>
        <time>2020-07-07T11:52:44.000Z</time>
      </trkpt>
      <trkpt lat="44.38268" lon="6.39811">
        <ele>2096</ele>
        <time>2020-07-07T11:52:45.000Z</time>
      </trkpt>
      <trkpt lat="44.38268" lon="6.3981">
        <ele>2096</ele>
        <time>2020-07-07T11:52:46.000Z</time>
      </trkpt>
      <trkpt lat="44.38268" lon="6.39809">
        <ele>2096</ele>
        <time>2020-07-07T11:52:47.000Z</time>
      </trkpt>
      <trkpt lat="44.38268" lon="6.39809">
        <ele>2095</ele>
        <time>2020-07-07T11:52:48.000Z</time>
      </trkpt>
      <trkpt lat="44.38268" lon="6.39808">
        <ele>2095</ele>
        <time>2020-07-07T11:52:49.000Z</time>
      </trkpt>
      <trkpt lat="44.38268" lon="6.39807">
        <ele>2095</ele>
        <time>2020-07-07T11:52:50.000Z</time>
      </trkpt>
      <trkpt lat="44.38268" lon="6.39807">
        <ele>2095</ele>
        <time>2020-07-07T11:52:51.000Z</time>
      </trkpt>
      <trkpt lat="44.38268" lon="6.39807">
        <ele>2095</ele>
        <time>2020-07-07T11:52:52.000Z</time>
      </trkpt>
      <trkpt lat="44.38268" lon="6.39806">
        <ele>2094</ele>
        <time>2020-07-07T11:52:53.000Z</time>
      </trkpt>
      <trkpt lat="44.38267" lon="6.39805">
        <ele>2094</ele>
        <time>2020-07-07T11:52:54.000Z</time>
      </trkpt>
      <trkpt lat="44.38267" lon="6.39805">
        <ele>2094</ele>
        <time>2020-07-07T11:52:55.000Z</time>
      </trkpt>
      <trkpt lat="44.38267" lon="6.39804">
        <ele>2094</ele>
        <time>2020-07-07T11:52:56.000Z</time>
      </trkpt>
      <trkpt lat="44.38266" lon="6.39804">
        <ele>2094</ele>
        <time>2020-07-07T11:52:57.000Z</time>
      </trkpt>
      <trkpt lat="44.38265" lon="6.39803">
        <ele>2094</ele>
        <time>2020-07-07T11:52:58.000Z</time>
      </trkpt>
      <trkpt lat="44.38264" lon="6.39802">
        <ele>2094</ele>
        <time>2020-07-07T11:52:59.000Z</time>
      </trkpt>
      <trkpt lat="44.38264" lon="6.39801">
        <ele>2093</ele>
        <time>2020-07-07T11:53:00.000Z</time>
      </trkpt>
      <trkpt lat="44.38263" lon="6.398">
        <ele>2093</ele>
        <time>2020-07-07T11:53:01.000Z</time>
      </trkpt>
      <trkpt lat="44.38262" lon="6.39799">
        <ele>2093</ele>
        <time>2020-07-07T11:53:02.000Z</time>
      </trkpt>
      <trkpt lat="44.38262" lon="6.39798">
        <ele>2093</ele>
        <time>2020-07-07T11:53:03.000Z</time>
      </trkpt>
      <trkpt lat="44.38261" lon="6.39797">
        <ele>2093</ele>
        <time>2020-07-07T11:53:04.000Z</time>
      </trkpt>
      <trkpt lat="44.38261" lon="6.39796">
        <ele>2093</ele>
        <time>2020-07-07T11:53:05.000Z</time>
      </trkpt>
      <trkpt lat="44.3826" lon="6.39795">
        <ele>2093</ele>
        <time>2020-07-07T11:53:06.000Z</time>
      </trkpt>
      <trkpt lat="44.3826" lon="6.39794">
        <ele>2092</ele>
        <time>2020-07-07T11:53:07.000Z</time>
      </trkpt>
      <trkpt lat="44.38259" lon="6.39794">
        <ele>2092</ele>
        <time>2020-07-07T11:53:08.000Z</time>
      </trkpt>
      <trkpt lat="44.38259" lon="6.39793">
        <ele>2092</ele>
        <time>2020-07-07T11:53:09.000Z</time>
      </trkpt>
      <trkpt lat="44.38258" lon="6.39793">
        <ele>2092</ele>
        <time>2020-07-07T11:53:10.000Z</time>
      </trkpt>
      <trkpt lat="44.38257" lon="6.39793">
        <ele>2091</ele>
        <time>2020-07-07T11:53:11.000Z</time>
      </trkpt>
      <trkpt lat="44.38256" lon="6.39792">
        <ele>2091</ele>
        <time>2020-07-07T11:53:12.000Z</time>
      </trkpt>
      <trkpt lat="44.38255" lon="6.39792">
        <ele>2091</ele>
        <time>2020-07-07T11:53:13.000Z</time>
      </trkpt>
      <trkpt lat="44.38255" lon="6.39791">
        <ele>2090</ele>
        <time>2020-07-07T11:53:14.000Z</time>
      </trkpt>
      <trkpt lat="44.38254" lon="6.3979">
        <ele>2090</ele>
        <time>2020-07-07T11:53:15.000Z</time>
      </trkpt>
      <trkpt lat="44.38253" lon="6.39789">
        <ele>2090</ele>
        <time>2020-07-07T11:53:16.000Z</time>
      </trkpt>
      <trkpt lat="44.38253" lon="6.39787">
        <ele>2089</ele>
        <time>2020-07-07T11:53:17.000Z</time>
      </trkpt>
      <trkpt lat="44.38253" lon="6.39786">
        <ele>2089</ele>
        <time>2020-07-07T11:53:18.000Z</time>
      </trkpt>
      <trkpt lat="44.38252" lon="6.39784">
        <ele>2089</ele>
        <time>2020-07-07T11:53:19.000Z</time>
      </trkpt>
      <trkpt lat="44.38251" lon="6.39783">
        <ele>2088</ele>
        <time>2020-07-07T11:53:20.000Z</time>
      </trkpt>
      <trkpt lat="44.38251" lon="6.39782">
        <ele>2088</ele>
        <time>2020-07-07T11:53:21.000Z</time>
      </trkpt>
      <trkpt lat="44.3825" lon="6.39781">
        <ele>2088</ele>
        <time>2020-07-07T11:53:22.000Z</time>
      </trkpt>
      <trkpt lat="44.38249" lon="6.3978">
        <ele>2088</ele>
        <time>2020-07-07T11:53:23.000Z</time>
      </trkpt>
      <trkpt lat="44.38249" lon="6.39779">
        <ele>2088</ele>
        <time>2020-07-07T11:53:24.000Z</time>
      </trkpt>
      <trkpt lat="44.38248" lon="6.39777">
        <ele>2088</ele>
        <time>2020-07-07T11:53:25.000Z</time>
      </trkpt>
      <trkpt lat="44.38248" lon="6.39777">
        <ele>2088</ele>
        <time>2020-07-07T11:53:26.000Z</time>
      </trkpt>
      <trkpt lat="44.38247" lon="6.39776">
        <ele>2087</ele>
        <time>2020-07-07T11:53:27.000Z</time>
      </trkpt>
      <trkpt lat="44.38246" lon="6.39775">
        <ele>2087</ele>
        <time>2020-07-07T11:53:28.000Z</time>
      </trkpt>
      <trkpt lat="44.38246" lon="6.39774">
        <ele>2087</ele>
        <time>2020-07-07T11:53:29.000Z</time>
      </trkpt>
      <trkpt lat="44.38245" lon="6.39773">
        <ele>2087</ele>
        <time>2020-07-07T11:53:30.000Z</time>
      </trkpt>
      <trkpt lat="44.38244" lon="6.39772">
        <ele>2086</ele>
        <time>2020-07-07T11:53:31.000Z</time>
      </trkpt>
      <trkpt lat="44.38244" lon="6.39772">
        <ele>2086</ele>
        <time>2020-07-07T11:53:32.000Z</time>
      </trkpt>
      <trkpt lat="44.38243" lon="6.39772">
        <ele>2086</ele>
        <time>2020-07-07T11:53:33.000Z</time>
      </trkpt>
      <trkpt lat="44.38242" lon="6.39772">
        <ele>2086</ele>
        <time>2020-07-07T11:53:34.000Z</time>
      </trkpt>
      <trkpt lat="44.38241" lon="6.39771">
        <ele>2085</ele>
        <time>2020-07-07T11:53:35.000Z</time>
      </trkpt>
      <trkpt lat="44.38241" lon="6.3977">
        <ele>2085</ele>
        <time>2020-07-07T11:53:36.000Z</time>
      </trkpt>
      <trkpt lat="44.3824" lon="6.3977">
        <ele>2085</ele>
        <time>2020-07-07T11:53:37.000Z</time>
      </trkpt>
      <trkpt lat="44.3824" lon="6.39769">
        <ele>2084</ele>
        <time>2020-07-07T11:53:38.000Z</time>
      </trkpt>
      <trkpt lat="44.38239" lon="6.39769">
        <ele>2084</ele>
        <time>2020-07-07T11:53:39.000Z</time>
      </trkpt>
      <trkpt lat="44.38238" lon="6.39769">
        <ele>2084</ele>
        <time>2020-07-07T11:53:40.000Z</time>
      </trkpt>
      <trkpt lat="44.38238" lon="6.39768">
        <ele>2083</ele>
        <time>2020-07-07T11:53:41.000Z</time>
      </trkpt>
      <trkpt lat="44.38237" lon="6.39767">
        <ele>2083</ele>
        <time>2020-07-07T11:53:42.000Z</time>
      </trkpt>
      <trkpt lat="44.38236" lon="6.39767">
        <ele>2083</ele>
        <time>2020-07-07T11:53:43.000Z</time>
      </trkpt>
      <trkpt lat="44.38235" lon="6.39766">
        <ele>2083</ele>
        <time>2020-07-07T11:53:44.000Z</time>
      </trkpt>
      <trkpt lat="44.38235" lon="6.39765">
        <ele>2082</ele>
        <time>2020-07-07T11:53:45.000Z</time>
      </trkpt>
      <trkpt lat="44.38234" lon="6.39765">
        <ele>2082</ele>
        <time>2020-07-07T11:53:46.000Z</time>
      </trkpt>
      <trkpt lat="44.38234" lon="6.39764">
        <ele>2082</ele>
        <time>2020-07-07T11:53:47.000Z</time>
      </trkpt>
      <trkpt lat="44.38233" lon="6.39763">
        <ele>2082</ele>
        <time>2020-07-07T11:53:48.000Z</time>
      </trkpt>
      <trkpt lat="44.38233" lon="6.39762">
        <ele>2082</ele>
        <time>2020-07-07T11:53:49.000Z</time>
      </trkpt>
      <trkpt lat="44.38232" lon="6.39762">
        <ele>2081</ele>
        <time>2020-07-07T11:53:50.000Z</time>
      </trkpt>
      <trkpt lat="44.38232" lon="6.39761">
        <ele>2081</ele>
        <time>2020-07-07T11:53:51.000Z</time>
      </trkpt>
      <trkpt lat="44.38231" lon="6.3976">
        <ele>2081</ele>
        <time>2020-07-07T11:53:52.000Z</time>
      </trkpt>
      <trkpt lat="44.38231" lon="6.3976">
        <ele>2081</ele>
        <time>2020-07-07T11:53:53.000Z</time>
      </trkpt>
      <trkpt lat="44.3823" lon="6.39759">
        <ele>2081</ele>
        <time>2020-07-07T11:53:54.000Z</time>
      </trkpt>
      <trkpt lat="44.38229" lon="6.39759">
        <ele>2080</ele>
        <time>2020-07-07T11:53:55.000Z</time>
      </trkpt>
      <trkpt lat="44.38228" lon="6.39758">
        <ele>2080</ele>
        <time>2020-07-07T11:53:56.000Z</time>
      </trkpt>
      <trkpt lat="44.38228" lon="6.39757">
        <ele>2080</ele>
        <time>2020-07-07T11:53:57.000Z</time>
      </trkpt>
      <trkpt lat="44.38227" lon="6.39756">
        <ele>2080</ele>
        <time>2020-07-07T11:53:58.000Z</time>
      </trkpt>
      <trkpt lat="44.38226" lon="6.39755">
        <ele>2080</ele>
        <time>2020-07-07T11:53:59.000Z</time>
      </trkpt>
      <trkpt lat="44.38225" lon="6.39754">
        <ele>2080</ele>
        <time>2020-07-07T11:54:00.000Z</time>
      </trkpt>
      <trkpt lat="44.38224" lon="6.39753">
        <ele>2080</ele>
        <time>2020-07-07T11:54:01.000Z</time>
      </trkpt>
      <trkpt lat="44.38224" lon="6.39752">
        <ele>2079</ele>
        <time>2020-07-07T11:54:02.000Z</time>
      </trkpt>
      <trkpt lat="44.38223" lon="6.39751">
        <ele>2079</ele>
        <time>2020-07-07T11:54:03.000Z</time>
      </trkpt>
      <trkpt lat="44.38222" lon="6.3975">
        <ele>2079</ele>
        <time>2020-07-07T11:54:04.000Z</time>
      </trkpt>
      <trkpt lat="44.38221" lon="6.3975">
        <ele>2079</ele>
        <time>2020-07-07T11:54:05.000Z</time>
      </trkpt>
      <trkpt lat="44.3822" lon="6.3975">
        <ele>2079</ele>
        <time>2020-07-07T11:54:06.000Z</time>
      </trkpt>
      <trkpt lat="44.38219" lon="6.3975">
        <ele>2079</ele>
        <time>2020-07-07T11:54:07.000Z</time>
      </trkpt>
      <trkpt lat="44.38218" lon="6.39749">
        <ele>2079</ele>
        <time>2020-07-07T11:54:08.000Z</time>
      </trkpt>
      <trkpt lat="44.38218" lon="6.39749">
        <ele>2079</ele>
        <time>2020-07-07T11:54:09.000Z</time>
      </trkpt>
      <trkpt lat="44.38217" lon="6.39748">
        <ele>2079</ele>
        <time>2020-07-07T11:54:10.000Z</time>
      </trkpt>
      <trkpt lat="44.38216" lon="6.39748">
        <ele>2079</ele>
        <time>2020-07-07T11:54:11.000Z</time>
      </trkpt>
      <trkpt lat="44.38216" lon="6.39748">
        <ele>2079</ele>
        <time>2020-07-07T11:54:12.000Z</time>
      </trkpt>
      <trkpt lat="44.38215" lon="6.39747">
        <ele>2079</ele>
        <time>2020-07-07T11:54:13.000Z</time>
      </trkpt>
      <trkpt lat="44.38214" lon="6.39747">
        <ele>2079</ele>
        <time>2020-07-07T11:54:14.000Z</time>
      </trkpt>
      <trkpt lat="44.38213" lon="6.39746">
        <ele>2079</ele>
        <time>2020-07-07T11:54:15.000Z</time>
      </trkpt>
      <trkpt lat="44.38213" lon="6.39745">
        <ele>2079</ele>
        <time>2020-07-07T11:54:16.000Z</time>
      </trkpt>
      <trkpt lat="44.38212" lon="6.39745">
        <ele>2079</ele>
        <time>2020-07-07T11:54:17.000Z</time>
      </trkpt>
      <trkpt lat="44.38211" lon="6.39744">
        <ele>2079</ele>
        <time>2020-07-07T11:54:18.000Z</time>
      </trkpt>
      <trkpt lat="44.38211" lon="6.39743">
        <ele>2079</ele>
        <time>2020-07-07T11:54:19.000Z</time>
      </trkpt>
      <trkpt lat="44.3821" lon="6.39743">
        <ele>2079</ele>
        <time>2020-07-07T11:54:20.000Z</time>
      </trkpt>
      <trkpt lat="44.38209" lon="6.39742">
        <ele>2079</ele>
        <time>2020-07-07T11:54:21.000Z</time>
      </trkpt>
      <trkpt lat="44.38209" lon="6.39741">
        <ele>2078</ele>
        <time>2020-07-07T11:54:22.000Z</time>
      </trkpt>
      <trkpt lat="44.38208" lon="6.3974">
        <ele>2078</ele>
        <time>2020-07-07T11:54:23.000Z</time>
      </trkpt>
      <trkpt lat="44.38207" lon="6.39738">
        <ele>2078</ele>
        <time>2020-07-07T11:54:24.000Z</time>
      </trkpt>
      <trkpt lat="44.38207" lon="6.39737">
        <ele>2078</ele>
        <time>2020-07-07T11:54:25.000Z</time>
      </trkpt>
      <trkpt lat="44.38206" lon="6.39737">
        <ele>2078</ele>
        <time>2020-07-07T11:54:26.000Z</time>
      </trkpt>
      <trkpt lat="44.38206" lon="6.39736">
        <ele>2078</ele>
        <time>2020-07-07T11:54:27.000Z</time>
      </trkpt>
      <trkpt lat="44.38205" lon="6.39736">
        <ele>2078</ele>
        <time>2020-07-07T11:54:28.000Z</time>
      </trkpt>
      <trkpt lat="44.38205" lon="6.39736">
        <ele>2078</ele>
        <time>2020-07-07T11:54:29.000Z</time>
      </trkpt>
      <trkpt lat="44.38204" lon="6.39735">
        <ele>2077</ele>
        <time>2020-07-07T11:54:30.000Z</time>
      </trkpt>
      <trkpt lat="44.38203" lon="6.39735">
        <ele>2077</ele>
        <time>2020-07-07T11:54:31.000Z</time>
      </trkpt>
      <trkpt lat="44.38203" lon="6.39733">
        <ele>2077</ele>
        <time>2020-07-07T11:54:32.000Z</time>
      </trkpt>
      <trkpt lat="44.38203" lon="6.39732">
        <ele>2077</ele>
        <time>2020-07-07T11:54:33.000Z</time>
      </trkpt>
      <trkpt lat="44.38203" lon="6.39731">
        <ele>2076</ele>
        <time>2020-07-07T11:54:34.000Z</time>
      </trkpt>
      <trkpt lat="44.38203" lon="6.3973">
        <ele>2076</ele>
        <time>2020-07-07T11:54:35.000Z</time>
      </trkpt>
      <trkpt lat="44.38202" lon="6.39729">
        <ele>2076</ele>
        <time>2020-07-07T11:54:36.000Z</time>
      </trkpt>
      <trkpt lat="44.38202" lon="6.39727">
        <ele>2075</ele>
        <time>2020-07-07T11:54:37.000Z</time>
      </trkpt>
      <trkpt lat="44.38202" lon="6.39726">
        <ele>2075</ele>
        <time>2020-07-07T11:54:38.000Z</time>
      </trkpt>
      <trkpt lat="44.38203" lon="6.39724">
        <ele>2075</ele>
        <time>2020-07-07T11:54:39.000Z</time>
      </trkpt>
      <trkpt lat="44.38203" lon="6.39722">
        <ele>2074</ele>
        <time>2020-07-07T11:54:40.000Z</time>
      </trkpt>
      <trkpt lat="44.38203" lon="6.39721">
        <ele>2074</ele>
        <time>2020-07-07T11:54:41.000Z</time>
      </trkpt>
      <trkpt lat="44.38204" lon="6.3972">
        <ele>2074</ele>
        <time>2020-07-07T11:54:42.000Z</time>
      </trkpt>
      <trkpt lat="44.38204" lon="6.39718">
        <ele>2074</ele>
        <time>2020-07-07T11:54:43.000Z</time>
      </trkpt>
      <trkpt lat="44.38204" lon="6.39717">
        <ele>2073</ele>
        <time>2020-07-07T11:54:44.000Z</time>
      </trkpt>
      <trkpt lat="44.38205" lon="6.39716">
        <ele>2073</ele>
        <time>2020-07-07T11:54:45.000Z</time>
      </trkpt>
      <trkpt lat="44.38205" lon="6.39715">
        <ele>2073</ele>
        <time>2020-07-07T11:54:46.000Z</time>
      </trkpt>
      <trkpt lat="44.38204" lon="6.39714">
        <ele>2073</ele>
        <time>2020-07-07T11:54:47.000Z</time>
      </trkpt>
      <trkpt lat="44.38204" lon="6.39713">
        <ele>2072</ele>
        <time>2020-07-07T11:54:48.000Z</time>
      </trkpt>
      <trkpt lat="44.38203" lon="6.39713">
        <ele>2072</ele>
        <time>2020-07-07T11:54:49.000Z</time>
      </trkpt>
      <trkpt lat="44.38203" lon="6.39713">
        <ele>2072</ele>
        <time>2020-07-07T11:54:50.000Z</time>
      </trkpt>
      <trkpt lat="44.38202" lon="6.39714">
        <ele>2072</ele>
        <time>2020-07-07T11:54:51.000Z</time>
      </trkpt>
      <trkpt lat="44.38201" lon="6.39715">
        <ele>2071</ele>
        <time>2020-07-07T11:54:52.000Z</time>
      </trkpt>
      <trkpt lat="44.38201" lon="6.39715">
        <ele>2071</ele>
        <time>2020-07-07T11:54:53.000Z</time>
      </trkpt>
      <trkpt lat="44.382" lon="6.39716">
        <ele>2071</ele>
        <time>2020-07-07T11:54:54.000Z</time>
      </trkpt>
      <trkpt lat="44.382" lon="6.39716">
        <ele>2071</ele>
        <time>2020-07-07T11:54:55.000Z</time>
      </trkpt>
      <trkpt lat="44.38199" lon="6.39717">
        <ele>2070</ele>
        <time>2020-07-07T11:54:56.000Z</time>
      </trkpt>
      <trkpt lat="44.38198" lon="6.39717">
        <ele>2070</ele>
        <time>2020-07-07T11:54:57.000Z</time>
      </trkpt>
      <trkpt lat="44.38198" lon="6.39717">
        <ele>2070</ele>
        <time>2020-07-07T11:54:58.000Z</time>
      </trkpt>
      <trkpt lat="44.38197" lon="6.39716">
        <ele>2070</ele>
        <time>2020-07-07T11:54:59.000Z</time>
      </trkpt>
      <trkpt lat="44.38197" lon="6.39716">
        <ele>2070</ele>
        <time>2020-07-07T11:55:00.000Z</time>
      </trkpt>
      <trkpt lat="44.38196" lon="6.39715">
        <ele>2069</ele>
        <time>2020-07-07T11:55:01.000Z</time>
      </trkpt>
      <trkpt lat="44.38196" lon="6.39715">
        <ele>2069</ele>
        <time>2020-07-07T11:55:02.000Z</time>
      </trkpt>
      <trkpt lat="44.38195" lon="6.39714">
        <ele>2069</ele>
        <time>2020-07-07T11:55:03.000Z</time>
      </trkpt>
      <trkpt lat="44.38195" lon="6.39714">
        <ele>2069</ele>
        <time>2020-07-07T11:55:04.000Z</time>
      </trkpt>
      <trkpt lat="44.38194" lon="6.39713">
        <ele>2069</ele>
        <time>2020-07-07T11:55:05.000Z</time>
      </trkpt>
      <trkpt lat="44.38194" lon="6.39713">
        <ele>2068</ele>
        <time>2020-07-07T11:55:06.000Z</time>
      </trkpt>
      <trkpt lat="44.38194" lon="6.39713">
        <ele>2068</ele>
        <time>2020-07-07T11:55:07.000Z</time>
      </trkpt>
      <trkpt lat="44.38194" lon="6.39712">
        <ele>2068</ele>
        <time>2020-07-07T11:55:08.000Z</time>
      </trkpt>
      <trkpt lat="44.38194" lon="6.39712">
        <ele>2068</ele>
        <time>2020-07-07T11:55:09.000Z</time>
      </trkpt>
      <trkpt lat="44.38194" lon="6.39711">
        <ele>2068</ele>
        <time>2020-07-07T11:55:10.000Z</time>
      </trkpt>
      <trkpt lat="44.38194" lon="6.3971">
        <ele>2067</ele>
        <time>2020-07-07T11:55:11.000Z</time>
      </trkpt>
      <trkpt lat="44.38194" lon="6.3971">
        <ele>2067</ele>
        <time>2020-07-07T11:55:12.000Z</time>
      </trkpt>
      <trkpt lat="44.38193" lon="6.39709">
        <ele>2067</ele>
        <time>2020-07-07T11:55:13.000Z</time>
      </trkpt>
      <trkpt lat="44.38193" lon="6.39709">
        <ele>2067</ele>
        <time>2020-07-07T11:55:14.000Z</time>
      </trkpt>
      <trkpt lat="44.38193" lon="6.39708">
        <ele>2067</ele>
        <time>2020-07-07T11:55:15.000Z</time>
      </trkpt>
      <trkpt lat="44.38192" lon="6.39707">
        <ele>2066</ele>
        <time>2020-07-07T11:55:16.000Z</time>
      </trkpt>
      <trkpt lat="44.38192" lon="6.39707">
        <ele>2066</ele>
        <time>2020-07-07T11:55:17.000Z</time>
      </trkpt>
      <trkpt lat="44.38191" lon="6.39706">
        <ele>2066</ele>
        <time>2020-07-07T11:55:18.000Z</time>
      </trkpt>
      <trkpt lat="44.38191" lon="6.39706">
        <ele>2066</ele>
        <time>2020-07-07T11:55:19.000Z</time>
      </trkpt>
      <trkpt lat="44.3819" lon="6.39706">
        <ele>2065</ele>
        <time>2020-07-07T11:55:20.000Z</time>
      </trkpt>
      <trkpt lat="44.38189" lon="6.39706">
        <ele>2065</ele>
        <time>2020-07-07T11:55:21.000Z</time>
      </trkpt>
      <trkpt lat="44.38189" lon="6.39705">
        <ele>2065</ele>
        <time>2020-07-07T11:55:22.000Z</time>
      </trkpt>
      <trkpt lat="44.38188" lon="6.39705">
        <ele>2065</ele>
        <time>2020-07-07T11:55:23.000Z</time>
      </trkpt>
      <trkpt lat="44.38188" lon="6.39705">
        <ele>2064</ele>
        <time>2020-07-07T11:55:24.000Z</time>
      </trkpt>
      <trkpt lat="44.38187" lon="6.39704">
        <ele>2064</ele>
        <time>2020-07-07T11:55:25.000Z</time>
      </trkpt>
      <trkpt lat="44.38187" lon="6.39704">
        <ele>2064</ele>
        <time>2020-07-07T11:55:26.000Z</time>
      </trkpt>
      <trkpt lat="44.38187" lon="6.39703">
        <ele>2064</ele>
        <time>2020-07-07T11:55:27.000Z</time>
      </trkpt>
      <trkpt lat="44.38187" lon="6.39703">
        <ele>2063</ele>
        <time>2020-07-07T11:55:28.000Z</time>
      </trkpt>
      <trkpt lat="44.38186" lon="6.39703">
        <ele>2063</ele>
        <time>2020-07-07T11:55:29.000Z</time>
      </trkpt>
      <trkpt lat="44.38186" lon="6.39702">
        <ele>2062</ele>
        <time>2020-07-07T11:55:30.000Z</time>
      </trkpt>
      <trkpt lat="44.38185" lon="6.39702">
        <ele>2062</ele>
        <time>2020-07-07T11:55:31.000Z</time>
      </trkpt>
      <trkpt lat="44.38184" lon="6.39702">
        <ele>2062</ele>
        <time>2020-07-07T11:55:32.000Z</time>
      </trkpt>
      <trkpt lat="44.38184" lon="6.39701">
        <ele>2062</ele>
        <time>2020-07-07T11:55:33.000Z</time>
      </trkpt>
      <trkpt lat="44.38183" lon="6.39701">
        <ele>2061</ele>
        <time>2020-07-07T11:55:34.000Z</time>
      </trkpt>
      <trkpt lat="44.38183" lon="6.39701">
        <ele>2061</ele>
        <time>2020-07-07T11:55:35.000Z</time>
      </trkpt>
      <trkpt lat="44.38182" lon="6.397">
        <ele>2061</ele>
        <time>2020-07-07T11:55:36.000Z</time>
      </trkpt>
      <trkpt lat="44.38181" lon="6.397">
        <ele>2061</ele>
        <time>2020-07-07T11:55:37.000Z</time>
      </trkpt>
      <trkpt lat="44.38181" lon="6.397">
        <ele>2061</ele>
        <time>2020-07-07T11:55:38.000Z</time>
      </trkpt>
      <trkpt lat="44.3818" lon="6.39699">
        <ele>2060</ele>
        <time>2020-07-07T11:55:39.000Z</time>
      </trkpt>
      <trkpt lat="44.3818" lon="6.39698">
        <ele>2060</ele>
        <time>2020-07-07T11:55:40.000Z</time>
      </trkpt>
      <trkpt lat="44.38179" lon="6.39698">
        <ele>2060</ele>
        <time>2020-07-07T11:55:41.000Z</time>
      </trkpt>
      <trkpt lat="44.38179" lon="6.39697">
        <ele>2060</ele>
        <time>2020-07-07T11:55:42.000Z</time>
      </trkpt>
      <trkpt lat="44.38178" lon="6.39697">
        <ele>2060</ele>
        <time>2020-07-07T11:55:43.000Z</time>
      </trkpt>
      <trkpt lat="44.38178" lon="6.39697">
        <ele>2060</ele>
        <time>2020-07-07T11:55:44.000Z</time>
      </trkpt>
      <trkpt lat="44.38177" lon="6.39697">
        <ele>2059</ele>
        <time>2020-07-07T11:55:45.000Z</time>
      </trkpt>
      <trkpt lat="44.38176" lon="6.39697">
        <ele>2059</ele>
        <time>2020-07-07T11:55:46.000Z</time>
      </trkpt>
      <trkpt lat="44.38176" lon="6.39696">
        <ele>2059</ele>
        <time>2020-07-07T11:55:47.000Z</time>
      </trkpt>
      <trkpt lat="44.38175" lon="6.39696">
        <ele>2059</ele>
        <time>2020-07-07T11:55:48.000Z</time>
      </trkpt>
      <trkpt lat="44.38174" lon="6.39697">
        <ele>2059</ele>
        <time>2020-07-07T11:55:49.000Z</time>
      </trkpt>
      <trkpt lat="44.38174" lon="6.39696">
        <ele>2059</ele>
        <time>2020-07-07T11:55:50.000Z</time>
      </trkpt>
      <trkpt lat="44.38173" lon="6.39695">
        <ele>2058</ele>
        <time>2020-07-07T11:55:51.000Z</time>
      </trkpt>
      <trkpt lat="44.38173" lon="6.39695">
        <ele>2058</ele>
        <time>2020-07-07T11:55:52.000Z</time>
      </trkpt>
      <trkpt lat="44.38173" lon="6.39694">
        <ele>2058</ele>
        <time>2020-07-07T11:55:53.000Z</time>
      </trkpt>
      <trkpt lat="44.38172" lon="6.39693">
        <ele>2058</ele>
        <time>2020-07-07T11:55:54.000Z</time>
      </trkpt>
      <trkpt lat="44.38172" lon="6.39693">
        <ele>2058</ele>
        <time>2020-07-07T11:55:55.000Z</time>
      </trkpt>
      <trkpt lat="44.38171" lon="6.39693">
        <ele>2058</ele>
        <time>2020-07-07T11:55:56.000Z</time>
      </trkpt>
      <trkpt lat="44.3817" lon="6.39693">
        <ele>2058</ele>
        <time>2020-07-07T11:55:57.000Z</time>
      </trkpt>
      <trkpt lat="44.3817" lon="6.39692">
        <ele>2057</ele>
        <time>2020-07-07T11:55:58.000Z</time>
      </trkpt>
      <trkpt lat="44.38169" lon="6.39692">
        <ele>2057</ele>
        <time>2020-07-07T11:55:59.000Z</time>
      </trkpt>
      <trkpt lat="44.38169" lon="6.39691">
        <ele>2057</ele>
        <time>2020-07-07T11:56:00.000Z</time>
      </trkpt>
      <trkpt lat="44.38168" lon="6.39691">
        <ele>2057</ele>
        <time>2020-07-07T11:56:01.000Z</time>
      </trkpt>
      <trkpt lat="44.38168" lon="6.3969">
        <ele>2057</ele>
        <time>2020-07-07T11:56:02.000Z</time>
      </trkpt>
      <trkpt lat="44.38168" lon="6.39689">
        <ele>2057</ele>
        <time>2020-07-07T11:56:03.000Z</time>
      </trkpt>
      <trkpt lat="44.38168" lon="6.39689">
        <ele>2057</ele>
        <time>2020-07-07T11:56:04.000Z</time>
      </trkpt>
      <trkpt lat="44.38167" lon="6.39689">
        <ele>2057</ele>
        <time>2020-07-07T11:56:05.000Z</time>
      </trkpt>
      <trkpt lat="44.38167" lon="6.39688">
        <ele>2057</ele>
        <time>2020-07-07T11:56:06.000Z</time>
      </trkpt>
      <trkpt lat="44.38166" lon="6.39687">
        <ele>2057</ele>
        <time>2020-07-07T11:56:07.000Z</time>
      </trkpt>
      <trkpt lat="44.38166" lon="6.39687">
        <ele>2057</ele>
        <time>2020-07-07T11:56:08.000Z</time>
      </trkpt>
      <trkpt lat="44.38166" lon="6.39685">
        <ele>2057</ele>
        <time>2020-07-07T11:56:09.000Z</time>
      </trkpt>
      <trkpt lat="44.38166" lon="6.39684">
        <ele>2057</ele>
        <time>2020-07-07T11:56:10.000Z</time>
      </trkpt>
      <trkpt lat="44.38165" lon="6.39683">
        <ele>2057</ele>
        <time>2020-07-07T11:56:11.000Z</time>
      </trkpt>
      <trkpt lat="44.38165" lon="6.39683">
        <ele>2057</ele>
        <time>2020-07-07T11:56:12.000Z</time>
      </trkpt>
      <trkpt lat="44.38164" lon="6.39682">
        <ele>2057</ele>
        <time>2020-07-07T11:56:13.000Z</time>
      </trkpt>
      <trkpt lat="44.38164" lon="6.39681">
        <ele>2056</ele>
        <time>2020-07-07T11:56:14.000Z</time>
      </trkpt>
      <trkpt lat="44.38164" lon="6.39681">
        <ele>2056</ele>
        <time>2020-07-07T11:56:15.000Z</time>
      </trkpt>
      <trkpt lat="44.38164" lon="6.39681">
        <ele>2056</ele>
        <time>2020-07-07T11:56:16.000Z</time>
      </trkpt>
      <trkpt lat="44.38164" lon="6.39681">
        <ele>2056</ele>
        <time>2020-07-07T11:56:17.000Z</time>
      </trkpt>
      <trkpt lat="44.38164" lon="6.39681">
        <ele>2056</ele>
        <time>2020-07-07T11:56:18.000Z</time>
      </trkpt>
      <trkpt lat="44.38164" lon="6.39681">
        <ele>2055</ele>
        <time>2020-07-07T11:56:19.000Z</time>
      </trkpt>
      <trkpt lat="44.38164" lon="6.39681">
        <ele>2055</ele>
        <time>2020-07-07T11:56:20.000Z</time>
      </trkpt>
      <trkpt lat="44.38164" lon="6.39681">
        <ele>2055</ele>
        <time>2020-07-07T11:56:21.000Z</time>
      </trkpt>
      <trkpt lat="44.38163" lon="6.3968">
        <ele>2055</ele>
        <time>2020-07-07T11:56:22.000Z</time>
      </trkpt>
      <trkpt lat="44.38163" lon="6.3968">
        <ele>2055</ele>
        <time>2020-07-07T11:56:23.000Z</time>
      </trkpt>
      <trkpt lat="44.38162" lon="6.39679">
        <ele>2055</ele>
        <time>2020-07-07T11:56:24.000Z</time>
      </trkpt>
      <trkpt lat="44.38161" lon="6.39679">
        <ele>2055</ele>
        <time>2020-07-07T11:56:25.000Z</time>
      </trkpt>
      <trkpt lat="44.38161" lon="6.39678">
        <ele>2055</ele>
        <time>2020-07-07T11:56:26.000Z</time>
      </trkpt>
      <trkpt lat="44.3816" lon="6.39679">
        <ele>2054</ele>
        <time>2020-07-07T11:56:27.000Z</time>
      </trkpt>
      <trkpt lat="44.38159" lon="6.39678">
        <ele>2054</ele>
        <time>2020-07-07T11:56:28.000Z</time>
      </trkpt>
      <trkpt lat="44.38159" lon="6.39678">
        <ele>2054</ele>
        <time>2020-07-07T11:56:29.000Z</time>
      </trkpt>
      <trkpt lat="44.38159" lon="6.39678">
        <ele>2054</ele>
        <time>2020-07-07T11:56:30.000Z</time>
      </trkpt>
      <trkpt lat="44.38159" lon="6.39678">
        <ele>2054</ele>
        <time>2020-07-07T11:56:31.000Z</time>
      </trkpt>
      <trkpt lat="44.38159" lon="6.39679">
        <ele>2054</ele>
        <time>2020-07-07T11:56:32.000Z</time>
      </trkpt>
      <trkpt lat="44.38159" lon="6.39679">
        <ele>2054</ele>
        <time>2020-07-07T11:56:33.000Z</time>
      </trkpt>
      <trkpt lat="44.38159" lon="6.39679">
        <ele>2054</ele>
        <time>2020-07-07T11:56:34.000Z</time>
      </trkpt>
      <trkpt lat="44.38159" lon="6.39679">
        <ele>2054</ele>
        <time>2020-07-07T11:56:35.000Z</time>
      </trkpt>
      <trkpt lat="44.38159" lon="6.39678">
        <ele>2054</ele>
        <time>2020-07-07T11:56:36.000Z</time>
      </trkpt>
      <trkpt lat="44.38159" lon="6.39678">
        <ele>2054</ele>
        <time>2020-07-07T11:56:37.000Z</time>
      </trkpt>
      <trkpt lat="44.38159" lon="6.39678">
        <ele>2054</ele>
        <time>2020-07-07T11:56:38.000Z</time>
      </trkpt>
      <trkpt lat="44.38159" lon="6.39678">
        <ele>2054</ele>
        <time>2020-07-07T11:56:39.000Z</time>
      </trkpt>
      <trkpt lat="44.38159" lon="6.39678">
        <ele>2054</ele>
        <time>2020-07-07T11:56:40.000Z</time>
      </trkpt>
      <trkpt lat="44.38159" lon="6.39678">
        <ele>2054</ele>
        <time>2020-07-07T11:56:41.000Z</time>
      </trkpt>
      <trkpt lat="44.38159" lon="6.39678">
        <ele>2054</ele>
        <time>2020-07-07T11:56:42.000Z</time>
      </trkpt>
      <trkpt lat="44.38159" lon="6.39677">
        <ele>2054</ele>
        <time>2020-07-07T11:56:43.000Z</time>
      </trkpt>
      <trkpt lat="44.38159" lon="6.39677">
        <ele>2054</ele>
        <time>2020-07-07T11:56:44.000Z</time>
      </trkpt>
      <trkpt lat="44.38159" lon="6.39677">
        <ele>2054</ele>
        <time>2020-07-07T11:56:45.000Z</time>
      </trkpt>
      <trkpt lat="44.38158" lon="6.39676">
        <ele>2054</ele>
        <time>2020-07-07T11:56:46.000Z</time>
      </trkpt>
      <trkpt lat="44.38158" lon="6.39676">
        <ele>2054</ele>
        <time>2020-07-07T11:56:47.000Z</time>
      </trkpt>
      <trkpt lat="44.38158" lon="6.39675">
        <ele>2054</ele>
        <time>2020-07-07T11:56:48.000Z</time>
      </trkpt>
      <trkpt lat="44.38158" lon="6.39674">
        <ele>2054</ele>
        <time>2020-07-07T11:56:49.000Z</time>
      </trkpt>
      <trkpt lat="44.38157" lon="6.39673">
        <ele>2054</ele>
        <time>2020-07-07T11:56:50.000Z</time>
      </trkpt>
      <trkpt lat="44.38157" lon="6.39673">
        <ele>2053</ele>
        <time>2020-07-07T11:56:51.000Z</time>
      </trkpt>
      <trkpt lat="44.38157" lon="6.39672">
        <ele>2053</ele>
        <time>2020-07-07T11:56:52.000Z</time>
      </trkpt>
      <trkpt lat="44.38156" lon="6.39672">
        <ele>2053</ele>
        <time>2020-07-07T11:56:53.000Z</time>
      </trkpt>
      <trkpt lat="44.38156" lon="6.39671">
        <ele>2053</ele>
        <time>2020-07-07T11:56:54.000Z</time>
      </trkpt>
      <trkpt lat="44.38156" lon="6.3967">
        <ele>2053</ele>
        <time>2020-07-07T11:56:55.000Z</time>
      </trkpt>
      <trkpt lat="44.38156" lon="6.39669">
        <ele>2052</ele>
        <time>2020-07-07T11:56:56.000Z</time>
      </trkpt>
      <trkpt lat="44.38156" lon="6.39667">
        <ele>2052</ele>
        <time>2020-07-07T11:56:57.000Z</time>
      </trkpt>
      <trkpt lat="44.38156" lon="6.39666">
        <ele>2051</ele>
        <time>2020-07-07T11:56:58.000Z</time>
      </trkpt>
      <trkpt lat="44.38156" lon="6.39665">
        <ele>2051</ele>
        <time>2020-07-07T11:56:59.000Z</time>
      </trkpt>
      <trkpt lat="44.38155" lon="6.39663">
        <ele>2050</ele>
        <time>2020-07-07T11:57:00.000Z</time>
      </trkpt>
      <trkpt lat="44.38155" lon="6.39662">
        <ele>2050</ele>
        <time>2020-07-07T11:57:01.000Z</time>
      </trkpt>
      <trkpt lat="44.38155" lon="6.39661">
        <ele>2049</ele>
        <time>2020-07-07T11:57:02.000Z</time>
      </trkpt>
      <trkpt lat="44.38155" lon="6.3966">
        <ele>2049</ele>
        <time>2020-07-07T11:57:03.000Z</time>
      </trkpt>
      <trkpt lat="44.38154" lon="6.39659">
        <ele>2049</ele>
        <time>2020-07-07T11:57:04.000Z</time>
      </trkpt>
      <trkpt lat="44.38154" lon="6.39658">
        <ele>2048</ele>
        <time>2020-07-07T11:57:05.000Z</time>
      </trkpt>
      <trkpt lat="44.38154" lon="6.39657">
        <ele>2048</ele>
        <time>2020-07-07T11:57:06.000Z</time>
      </trkpt>
      <trkpt lat="44.38153" lon="6.39656">
        <ele>2048</ele>
        <time>2020-07-07T11:57:07.000Z</time>
      </trkpt>
      <trkpt lat="44.38153" lon="6.39656">
        <ele>2048</ele>
        <time>2020-07-07T11:57:08.000Z</time>
      </trkpt>
      <trkpt lat="44.38153" lon="6.39656">
        <ele>2047</ele>
        <time>2020-07-07T11:57:09.000Z</time>
      </trkpt>
      <trkpt lat="44.38152" lon="6.39657">
        <ele>2047</ele>
        <time>2020-07-07T11:57:10.000Z</time>
      </trkpt>
      <trkpt lat="44.38151" lon="6.39657">
        <ele>2047</ele>
        <time>2020-07-07T11:57:11.000Z</time>
      </trkpt>
      <trkpt lat="44.3815" lon="6.39656">
        <ele>2046</ele>
        <time>2020-07-07T11:57:12.000Z</time>
      </trkpt>
      <trkpt lat="44.3815" lon="6.39656">
        <ele>2046</ele>
        <time>2020-07-07T11:57:13.000Z</time>
      </trkpt>
      <trkpt lat="44.38149" lon="6.39656">
        <ele>2045</ele>
        <time>2020-07-07T11:57:14.000Z</time>
      </trkpt>
      <trkpt lat="44.38148" lon="6.39655">
        <ele>2045</ele>
        <time>2020-07-07T11:57:15.000Z</time>
      </trkpt>
      <trkpt lat="44.38148" lon="6.39654">
        <ele>2045</ele>
        <time>2020-07-07T11:57:16.000Z</time>
      </trkpt>
      <trkpt lat="44.38147" lon="6.39654">
        <ele>2044</ele>
        <time>2020-07-07T11:57:17.000Z</time>
      </trkpt>
      <trkpt lat="44.38147" lon="6.39653">
        <ele>2044</ele>
        <time>2020-07-07T11:57:18.000Z</time>
      </trkpt>
      <trkpt lat="44.38146" lon="6.39652">
        <ele>2044</ele>
        <time>2020-07-07T11:57:19.000Z</time>
      </trkpt>
      <trkpt lat="44.38146" lon="6.39651">
        <ele>2044</ele>
        <time>2020-07-07T11:57:20.000Z</time>
      </trkpt>
      <trkpt lat="44.38146" lon="6.39649">
        <ele>2044</ele>
        <time>2020-07-07T11:57:21.000Z</time>
      </trkpt>
      <trkpt lat="44.38146" lon="6.39649">
        <ele>2043</ele>
        <time>2020-07-07T11:57:22.000Z</time>
      </trkpt>
      <trkpt lat="44.38145" lon="6.39648">
        <ele>2043</ele>
        <time>2020-07-07T11:57:23.000Z</time>
      </trkpt>
      <trkpt lat="44.38145" lon="6.39647">
        <ele>2043</ele>
        <time>2020-07-07T11:57:24.000Z</time>
      </trkpt>
      <trkpt lat="44.38144" lon="6.39646">
        <ele>2043</ele>
        <time>2020-07-07T11:57:25.000Z</time>
      </trkpt>
      <trkpt lat="44.38144" lon="6.39645">
        <ele>2043</ele>
        <time>2020-07-07T11:57:26.000Z</time>
      </trkpt>
      <trkpt lat="44.38144" lon="6.39644">
        <ele>2043</ele>
        <time>2020-07-07T11:57:27.000Z</time>
      </trkpt>
      <trkpt lat="44.38144" lon="6.39643">
        <ele>2043</ele>
        <time>2020-07-07T11:57:28.000Z</time>
      </trkpt>
      <trkpt lat="44.38144" lon="6.39642">
        <ele>2043</ele>
        <time>2020-07-07T11:57:29.000Z</time>
      </trkpt>
      <trkpt lat="44.38143" lon="6.39641">
        <ele>2043</ele>
        <time>2020-07-07T11:57:30.000Z</time>
      </trkpt>
      <trkpt lat="44.38143" lon="6.3964">
        <ele>2043</ele>
        <time>2020-07-07T11:57:31.000Z</time>
      </trkpt>
      <trkpt lat="44.38143" lon="6.3964">
        <ele>2043</ele>
        <time>2020-07-07T11:57:32.000Z</time>
      </trkpt>
      <trkpt lat="44.38142" lon="6.3964">
        <ele>2043</ele>
        <time>2020-07-07T11:57:33.000Z</time>
      </trkpt>
      <trkpt lat="44.38142" lon="6.39639">
        <ele>2043</ele>
        <time>2020-07-07T11:57:34.000Z</time>
      </trkpt>
      <trkpt lat="44.38142" lon="6.39639">
        <ele>2043</ele>
        <time>2020-07-07T11:57:35.000Z</time>
      </trkpt>
      <trkpt lat="44.38141" lon="6.39638">
        <ele>2043</ele>
        <time>2020-07-07T11:57:36.000Z</time>
      </trkpt>
      <trkpt lat="44.38141" lon="6.39638">
        <ele>2043</ele>
        <time>2020-07-07T11:57:37.000Z</time>
      </trkpt>
      <trkpt lat="44.3814" lon="6.39638">
        <ele>2043</ele>
        <time>2020-07-07T11:57:38.000Z</time>
      </trkpt>
      <trkpt lat="44.3814" lon="6.39637">
        <ele>2043</ele>
        <time>2020-07-07T11:57:39.000Z</time>
      </trkpt>
      <trkpt lat="44.38139" lon="6.39637">
        <ele>2043</ele>
        <time>2020-07-07T11:57:40.000Z</time>
      </trkpt>
      <trkpt lat="44.38138" lon="6.39637">
        <ele>2043</ele>
        <time>2020-07-07T11:57:41.000Z</time>
      </trkpt>
      <trkpt lat="44.38138" lon="6.39636">
        <ele>2043</ele>
        <time>2020-07-07T11:57:42.000Z</time>
      </trkpt>
      <trkpt lat="44.38137" lon="6.39636">
        <ele>2043</ele>
        <time>2020-07-07T11:57:43.000Z</time>
      </trkpt>
      <trkpt lat="44.38137" lon="6.39635">
        <ele>2042</ele>
        <time>2020-07-07T11:57:44.000Z</time>
      </trkpt>
      <trkpt lat="44.38136" lon="6.39634">
        <ele>2042</ele>
        <time>2020-07-07T11:57:45.000Z</time>
      </trkpt>
      <trkpt lat="44.38136" lon="6.39633">
        <ele>2042</ele>
        <time>2020-07-07T11:57:46.000Z</time>
      </trkpt>
      <trkpt lat="44.38135" lon="6.39633">
        <ele>2042</ele>
        <time>2020-07-07T11:57:47.000Z</time>
      </trkpt>
      <trkpt lat="44.38135" lon="6.39632">
        <ele>2042</ele>
        <time>2020-07-07T11:57:48.000Z</time>
      </trkpt>
      <trkpt lat="44.38134" lon="6.39631">
        <ele>2042</ele>
        <time>2020-07-07T11:57:49.000Z</time>
      </trkpt>
      <trkpt lat="44.38134" lon="6.39631">
        <ele>2042</ele>
        <time>2020-07-07T11:57:50.000Z</time>
      </trkpt>
      <trkpt lat="44.38133" lon="6.3963">
        <ele>2042</ele>
        <time>2020-07-07T11:57:51.000Z</time>
      </trkpt>
      <trkpt lat="44.38132" lon="6.3963">
        <ele>2042</ele>
        <time>2020-07-07T11:57:52.000Z</time>
      </trkpt>
      <trkpt lat="44.38131" lon="6.39629">
        <ele>2042</ele>
        <time>2020-07-07T11:57:53.000Z</time>
      </trkpt>
      <trkpt lat="44.38131" lon="6.39629">
        <ele>2042</ele>
        <time>2020-07-07T11:57:54.000Z</time>
      </trkpt>
      <trkpt lat="44.3813" lon="6.39629">
        <ele>2042</ele>
        <time>2020-07-07T11:57:55.000Z</time>
      </trkpt>
      <trkpt lat="44.38129" lon="6.39629">
        <ele>2042</ele>
        <time>2020-07-07T11:57:56.000Z</time>
      </trkpt>
      <trkpt lat="44.38128" lon="6.39629">
        <ele>2042</ele>
        <time>2020-07-07T11:57:57.000Z</time>
      </trkpt>
      <trkpt lat="44.38128" lon="6.3963">
        <ele>2042</ele>
        <time>2020-07-07T11:57:58.000Z</time>
      </trkpt>
      <trkpt lat="44.38127" lon="6.39629">
        <ele>2041</ele>
        <time>2020-07-07T11:57:59.000Z</time>
      </trkpt>
      <trkpt lat="44.38126" lon="6.39629">
        <ele>2041</ele>
        <time>2020-07-07T11:58:00.000Z</time>
      </trkpt>
      <trkpt lat="44.38126" lon="6.39629">
        <ele>2041</ele>
        <time>2020-07-07T11:58:01.000Z</time>
      </trkpt>
      <trkpt lat="44.38126" lon="6.39628">
        <ele>2041</ele>
        <time>2020-07-07T11:58:02.000Z</time>
      </trkpt>
      <trkpt lat="44.38126" lon="6.39628">
        <ele>2041</ele>
        <time>2020-07-07T11:58:03.000Z</time>
      </trkpt>
      <trkpt lat="44.38125" lon="6.39628">
        <ele>2041</ele>
        <time>2020-07-07T11:58:04.000Z</time>
      </trkpt>
      <trkpt lat="44.38125" lon="6.39628">
        <ele>2041</ele>
        <time>2020-07-07T11:58:05.000Z</time>
      </trkpt>
      <trkpt lat="44.38124" lon="6.39627">
        <ele>2041</ele>
        <time>2020-07-07T11:58:06.000Z</time>
      </trkpt>
      <trkpt lat="44.38124" lon="6.39627">
        <ele>2041</ele>
        <time>2020-07-07T11:58:07.000Z</time>
      </trkpt>
      <trkpt lat="44.38124" lon="6.39627">
        <ele>2040</ele>
        <time>2020-07-07T11:58:08.000Z</time>
      </trkpt>
      <trkpt lat="44.38124" lon="6.39627">
        <ele>2040</ele>
        <time>2020-07-07T11:58:09.000Z</time>
      </trkpt>
      <trkpt lat="44.38123" lon="6.39627">
        <ele>2040</ele>
        <time>2020-07-07T11:58:10.000Z</time>
      </trkpt>
      <trkpt lat="44.38123" lon="6.39627">
        <ele>2040</ele>
        <time>2020-07-07T11:58:11.000Z</time>
      </trkpt>
      <trkpt lat="44.38122" lon="6.39626">
        <ele>2040</ele>
        <time>2020-07-07T11:58:12.000Z</time>
      </trkpt>
      <trkpt lat="44.38122" lon="6.39625">
        <ele>2040</ele>
        <time>2020-07-07T11:58:13.000Z</time>
      </trkpt>
      <trkpt lat="44.38121" lon="6.39625">
        <ele>2040</ele>
        <time>2020-07-07T11:58:14.000Z</time>
      </trkpt>
      <trkpt lat="44.3812" lon="6.39624">
        <ele>2040</ele>
        <time>2020-07-07T11:58:15.000Z</time>
      </trkpt>
      <trkpt lat="44.38119" lon="6.39623">
        <ele>2040</ele>
        <time>2020-07-07T11:58:16.000Z</time>
      </trkpt>
      <trkpt lat="44.38118" lon="6.39622">
        <ele>2040</ele>
        <time>2020-07-07T11:58:17.000Z</time>
      </trkpt>
      <trkpt lat="44.38118" lon="6.39622">
        <ele>2040</ele>
        <time>2020-07-07T11:58:18.000Z</time>
      </trkpt>
      <trkpt lat="44.38117" lon="6.39622">
        <ele>2040</ele>
        <time>2020-07-07T11:58:19.000Z</time>
      </trkpt>
      <trkpt lat="44.38117" lon="6.39621">
        <ele>2040</ele>
        <time>2020-07-07T11:58:20.000Z</time>
      </trkpt>
      <trkpt lat="44.38116" lon="6.39621">
        <ele>2040</ele>
        <time>2020-07-07T11:58:21.000Z</time>
      </trkpt>
      <trkpt lat="44.38114" lon="6.3962">
        <ele>2040</ele>
        <time>2020-07-07T11:58:22.000Z</time>
      </trkpt>
      <trkpt lat="44.38113" lon="6.39619">
        <ele>2040</ele>
        <time>2020-07-07T11:58:23.000Z</time>
      </trkpt>
      <trkpt lat="44.38113" lon="6.39619">
        <ele>2040</ele>
        <time>2020-07-07T11:58:24.000Z</time>
      </trkpt>
      <trkpt lat="44.38112" lon="6.39619">
        <ele>2040</ele>
        <time>2020-07-07T11:58:25.000Z</time>
      </trkpt>
      <trkpt lat="44.38111" lon="6.39619">
        <ele>2040</ele>
        <time>2020-07-07T11:58:26.000Z</time>
      </trkpt>
      <trkpt lat="44.3811" lon="6.39619">
        <ele>2040</ele>
        <time>2020-07-07T11:58:27.000Z</time>
      </trkpt>
      <trkpt lat="44.38109" lon="6.39619">
        <ele>2040</ele>
        <time>2020-07-07T11:58:28.000Z</time>
      </trkpt>
      <trkpt lat="44.38108" lon="6.39619">
        <ele>2040</ele>
        <time>2020-07-07T11:58:29.000Z</time>
      </trkpt>
      <trkpt lat="44.38107" lon="6.39619">
        <ele>2040</ele>
        <time>2020-07-07T11:58:30.000Z</time>
      </trkpt>
      <trkpt lat="44.38106" lon="6.39619">
        <ele>2040</ele>
        <time>2020-07-07T11:58:31.000Z</time>
      </trkpt>
      <trkpt lat="44.38105" lon="6.39619">
        <ele>2039</ele>
        <time>2020-07-07T11:58:32.000Z</time>
      </trkpt>
      <trkpt lat="44.38104" lon="6.39619">
        <ele>2039</ele>
        <time>2020-07-07T11:58:33.000Z</time>
      </trkpt>
      <trkpt lat="44.38104" lon="6.3962">
        <ele>2038</ele>
        <time>2020-07-07T11:58:34.000Z</time>
      </trkpt>
      <trkpt lat="44.38103" lon="6.3962">
        <ele>2037</ele>
        <time>2020-07-07T11:58:35.000Z</time>
      </trkpt>
      <trkpt lat="44.38102" lon="6.39621">
        <ele>2037</ele>
        <time>2020-07-07T11:58:36.000Z</time>
      </trkpt>
      <trkpt lat="44.38101" lon="6.39621">
        <ele>2036</ele>
        <time>2020-07-07T11:58:37.000Z</time>
      </trkpt>
      <trkpt lat="44.381" lon="6.39621">
        <ele>2036</ele>
        <time>2020-07-07T11:58:38.000Z</time>
      </trkpt>
      <trkpt lat="44.381" lon="6.39621">
        <ele>2035</ele>
        <time>2020-07-07T11:58:39.000Z</time>
      </trkpt>
      <trkpt lat="44.38099" lon="6.39622">
        <ele>2035</ele>
        <time>2020-07-07T11:58:40.000Z</time>
      </trkpt>
      <trkpt lat="44.38098" lon="6.39622">
        <ele>2034</ele>
        <time>2020-07-07T11:58:41.000Z</time>
      </trkpt>
      <trkpt lat="44.38097" lon="6.39622">
        <ele>2034</ele>
        <time>2020-07-07T11:58:42.000Z</time>
      </trkpt>
      <trkpt lat="44.38097" lon="6.39622">
        <ele>2033</ele>
        <time>2020-07-07T11:58:43.000Z</time>
      </trkpt>
      <trkpt lat="44.38096" lon="6.39621">
        <ele>2033</ele>
        <time>2020-07-07T11:58:44.000Z</time>
      </trkpt>
      <trkpt lat="44.38096" lon="6.39622">
        <ele>2033</ele>
        <time>2020-07-07T11:58:45.000Z</time>
      </trkpt>
      <trkpt lat="44.38095" lon="6.39622">
        <ele>2032</ele>
        <time>2020-07-07T11:58:46.000Z</time>
      </trkpt>
      <trkpt lat="44.38094" lon="6.39622">
        <ele>2032</ele>
        <time>2020-07-07T11:58:47.000Z</time>
      </trkpt>
      <trkpt lat="44.38093" lon="6.39622">
        <ele>2031</ele>
        <time>2020-07-07T11:58:48.000Z</time>
      </trkpt>
      <trkpt lat="44.38092" lon="6.39622">
        <ele>2030</ele>
        <time>2020-07-07T11:58:49.000Z</time>
      </trkpt>
      <trkpt lat="44.38091" lon="6.39622">
        <ele>2030</ele>
        <time>2020-07-07T11:58:50.000Z</time>
      </trkpt>
      <trkpt lat="44.38091" lon="6.39622">
        <ele>2029</ele>
        <time>2020-07-07T11:58:51.000Z</time>
      </trkpt>
      <trkpt lat="44.3809" lon="6.39623">
        <ele>2029</ele>
        <time>2020-07-07T11:58:52.000Z</time>
      </trkpt>
      <trkpt lat="44.38089" lon="6.39623">
        <ele>2029</ele>
        <time>2020-07-07T11:58:53.000Z</time>
      </trkpt>
      <trkpt lat="44.38088" lon="6.39623">
        <ele>2028</ele>
        <time>2020-07-07T11:58:54.000Z</time>
      </trkpt>
      <trkpt lat="44.38087" lon="6.39623">
        <ele>2028</ele>
        <time>2020-07-07T11:58:55.000Z</time>
      </trkpt>
      <trkpt lat="44.38086" lon="6.39623">
        <ele>2028</ele>
        <time>2020-07-07T11:58:56.000Z</time>
      </trkpt>
      <trkpt lat="44.38085" lon="6.39624">
        <ele>2027</ele>
        <time>2020-07-07T11:58:57.000Z</time>
      </trkpt>
      <trkpt lat="44.38084" lon="6.39624">
        <ele>2027</ele>
        <time>2020-07-07T11:58:58.000Z</time>
      </trkpt>
      <trkpt lat="44.38083" lon="6.39624">
        <ele>2027</ele>
        <time>2020-07-07T11:58:59.000Z</time>
      </trkpt>
      <trkpt lat="44.38083" lon="6.39624">
        <ele>2027</ele>
        <time>2020-07-07T11:59:00.000Z</time>
      </trkpt>
      <trkpt lat="44.38082" lon="6.39625">
        <ele>2027</ele>
        <time>2020-07-07T11:59:01.000Z</time>
      </trkpt>
      <trkpt lat="44.38081" lon="6.39626">
        <ele>2026</ele>
        <time>2020-07-07T11:59:02.000Z</time>
      </trkpt>
      <trkpt lat="44.38081" lon="6.39626">
        <ele>2026</ele>
        <time>2020-07-07T11:59:03.000Z</time>
      </trkpt>
      <trkpt lat="44.3808" lon="6.39626">
        <ele>2026</ele>
        <time>2020-07-07T11:59:04.000Z</time>
      </trkpt>
      <trkpt lat="44.38079" lon="6.39627">
        <ele>2026</ele>
        <time>2020-07-07T11:59:05.000Z</time>
      </trkpt>
      <trkpt lat="44.38078" lon="6.39626">
        <ele>2026</ele>
        <time>2020-07-07T11:59:06.000Z</time>
      </trkpt>
      <trkpt lat="44.38077" lon="6.39626">
        <ele>2026</ele>
        <time>2020-07-07T11:59:07.000Z</time>
      </trkpt>
      <trkpt lat="44.38077" lon="6.39625">
        <ele>2025</ele>
        <time>2020-07-07T11:59:08.000Z</time>
      </trkpt>
      <trkpt lat="44.38076" lon="6.39625">
        <ele>2025</ele>
        <time>2020-07-07T11:59:09.000Z</time>
      </trkpt>
      <trkpt lat="44.38076" lon="6.39624">
        <ele>2025</ele>
        <time>2020-07-07T11:59:10.000Z</time>
      </trkpt>
      <trkpt lat="44.38076" lon="6.39624">
        <ele>2025</ele>
        <time>2020-07-07T11:59:11.000Z</time>
      </trkpt>
      <trkpt lat="44.38076" lon="6.39623">
        <ele>2025</ele>
        <time>2020-07-07T11:59:12.000Z</time>
      </trkpt>
      <trkpt lat="44.38075" lon="6.39623">
        <ele>2025</ele>
        <time>2020-07-07T11:59:13.000Z</time>
      </trkpt>
      <trkpt lat="44.38075" lon="6.39622">
        <ele>2025</ele>
        <time>2020-07-07T11:59:14.000Z</time>
      </trkpt>
      <trkpt lat="44.38075" lon="6.39622">
        <ele>2025</ele>
        <time>2020-07-07T11:59:15.000Z</time>
      </trkpt>
      <trkpt lat="44.38075" lon="6.39621">
        <ele>2025</ele>
        <time>2020-07-07T11:59:16.000Z</time>
      </trkpt>
      <trkpt lat="44.38074" lon="6.39621">
        <ele>2025</ele>
        <time>2020-07-07T11:59:17.000Z</time>
      </trkpt>
      <trkpt lat="44.38074" lon="6.39621">
        <ele>2024</ele>
        <time>2020-07-07T11:59:18.000Z</time>
      </trkpt>
      <trkpt lat="44.38073" lon="6.3962">
        <ele>2024</ele>
        <time>2020-07-07T11:59:19.000Z</time>
      </trkpt>
      <trkpt lat="44.38073" lon="6.39619">
        <ele>2024</ele>
        <time>2020-07-07T11:59:20.000Z</time>
      </trkpt>
      <trkpt lat="44.38073" lon="6.39618">
        <ele>2024</ele>
        <time>2020-07-07T11:59:21.000Z</time>
      </trkpt>
      <trkpt lat="44.38072" lon="6.39617">
        <ele>2024</ele>
        <time>2020-07-07T11:59:22.000Z</time>
      </trkpt>
      <trkpt lat="44.38072" lon="6.39617">
        <ele>2023</ele>
        <time>2020-07-07T11:59:23.000Z</time>
      </trkpt>
      <trkpt lat="44.38072" lon="6.39616">
        <ele>2023</ele>
        <time>2020-07-07T11:59:24.000Z</time>
      </trkpt>
      <trkpt lat="44.38072" lon="6.39615">
        <ele>2023</ele>
        <time>2020-07-07T11:59:25.000Z</time>
      </trkpt>
      <trkpt lat="44.38072" lon="6.39615">
        <ele>2023</ele>
        <time>2020-07-07T11:59:26.000Z</time>
      </trkpt>
      <trkpt lat="44.38072" lon="6.39614">
        <ele>2023</ele>
        <time>2020-07-07T11:59:27.000Z</time>
      </trkpt>
      <trkpt lat="44.38071" lon="6.39613">
        <ele>2022</ele>
        <time>2020-07-07T11:59:28.000Z</time>
      </trkpt>
      <trkpt lat="44.3807" lon="6.39613">
        <ele>2022</ele>
        <time>2020-07-07T11:59:29.000Z</time>
      </trkpt>
      <trkpt lat="44.3807" lon="6.39613">
        <ele>2022</ele>
        <time>2020-07-07T11:59:30.000Z</time>
      </trkpt>
      <trkpt lat="44.38069" lon="6.39612">
        <ele>2021</ele>
        <time>2020-07-07T11:59:31.000Z</time>
      </trkpt>
      <trkpt lat="44.38069" lon="6.39612">
        <ele>2021</ele>
        <time>2020-07-07T11:59:32.000Z</time>
      </trkpt>
      <trkpt lat="44.38069" lon="6.39612">
        <ele>2021</ele>
        <time>2020-07-07T11:59:33.000Z</time>
      </trkpt>
      <trkpt lat="44.38068" lon="6.39611">
        <ele>2021</ele>
        <time>2020-07-07T11:59:34.000Z</time>
      </trkpt>
      <trkpt lat="44.38068" lon="6.39611">
        <ele>2020</ele>
        <time>2020-07-07T11:59:35.000Z</time>
      </trkpt>
      <trkpt lat="44.38067" lon="6.3961">
        <ele>2020</ele>
        <time>2020-07-07T11:59:36.000Z</time>
      </trkpt>
      <trkpt lat="44.38067" lon="6.3961">
        <ele>2020</ele>
        <time>2020-07-07T11:59:37.000Z</time>
      </trkpt>
      <trkpt lat="44.38066" lon="6.39609">
        <ele>2019</ele>
        <time>2020-07-07T11:59:38.000Z</time>
      </trkpt>
      <trkpt lat="44.38065" lon="6.39608">
        <ele>2019</ele>
        <time>2020-07-07T11:59:39.000Z</time>
      </trkpt>
      <trkpt lat="44.38065" lon="6.39608">
        <ele>2019</ele>
        <time>2020-07-07T11:59:40.000Z</time>
      </trkpt>
      <trkpt lat="44.38064" lon="6.39606">
        <ele>2018</ele>
        <time>2020-07-07T11:59:41.000Z</time>
      </trkpt>
      <trkpt lat="44.38064" lon="6.39605">
        <ele>2018</ele>
        <time>2020-07-07T11:59:42.000Z</time>
      </trkpt>
      <trkpt lat="44.38063" lon="6.39604">
        <ele>2018</ele>
        <time>2020-07-07T11:59:43.000Z</time>
      </trkpt>
      <trkpt lat="44.38063" lon="6.39604">
        <ele>2017</ele>
        <time>2020-07-07T11:59:44.000Z</time>
      </trkpt>
      <trkpt lat="44.38062" lon="6.39603">
        <ele>2017</ele>
        <time>2020-07-07T11:59:45.000Z</time>
      </trkpt>
      <trkpt lat="44.38061" lon="6.39602">
        <ele>2016</ele>
        <time>2020-07-07T11:59:46.000Z</time>
      </trkpt>
      <trkpt lat="44.3806" lon="6.39601">
        <ele>2016</ele>
        <time>2020-07-07T11:59:47.000Z</time>
      </trkpt>
      <trkpt lat="44.3806" lon="6.396">
        <ele>2015</ele>
        <time>2020-07-07T11:59:48.000Z</time>
      </trkpt>
      <trkpt lat="44.3806" lon="6.396">
        <ele>2015</ele>
        <time>2020-07-07T11:59:49.000Z</time>
      </trkpt>
      <trkpt lat="44.38059" lon="6.39599">
        <ele>2014</ele>
        <time>2020-07-07T11:59:50.000Z</time>
      </trkpt>
      <trkpt lat="44.38059" lon="6.39599">
        <ele>2014</ele>
        <time>2020-07-07T11:59:51.000Z</time>
      </trkpt>
      <trkpt lat="44.38059" lon="6.39599">
        <ele>2013</ele>
        <time>2020-07-07T11:59:52.000Z</time>
      </trkpt>
      <trkpt lat="44.38059" lon="6.39598">
        <ele>2013</ele>
        <time>2020-07-07T11:59:53.000Z</time>
      </trkpt>
      <trkpt lat="44.38059" lon="6.39598">
        <ele>2012</ele>
        <time>2020-07-07T11:59:54.000Z</time>
      </trkpt>
      <trkpt lat="44.38059" lon="6.39598">
        <ele>2012</ele>
        <time>2020-07-07T11:59:55.000Z</time>
      </trkpt>
      <trkpt lat="44.38059" lon="6.39598">
        <ele>2011</ele>
        <time>2020-07-07T11:59:56.000Z</time>
      </trkpt>
      <trkpt lat="44.38059" lon="6.39597">
        <ele>2011</ele>
        <time>2020-07-07T11:59:57.000Z</time>
      </trkpt>
      <trkpt lat="44.38059" lon="6.39597">
        <ele>2011</ele>
        <time>2020-07-07T11:59:58.000Z</time>
      </trkpt>
      <trkpt lat="44.38059" lon="6.39596">
        <ele>2010</ele>
        <time>2020-07-07T11:59:59.000Z</time>
      </trkpt>
      <trkpt lat="44.38059" lon="6.39595">
        <ele>2010</ele>
        <time>2020-07-07T12:00:00.000Z</time>
      </trkpt>
      <trkpt lat="44.38059" lon="6.39595">
        <ele>2009</ele>
        <time>2020-07-07T12:00:01.000Z</time>
      </trkpt>
      <trkpt lat="44.38058" lon="6.39594">
        <ele>2009</ele>
        <time>2020-07-07T12:00:02.000Z</time>
      </trkpt>
      <trkpt lat="44.38058" lon="6.39593">
        <ele>2009</ele>
        <time>2020-07-07T12:00:03.000Z</time>
      </trkpt>
      <trkpt lat="44.38057" lon="6.39593">
        <ele>2008</ele>
        <time>2020-07-07T12:00:04.000Z</time>
      </trkpt>
      <trkpt lat="44.38057" lon="6.39593">
        <ele>2008</ele>
        <time>2020-07-07T12:00:05.000Z</time>
      </trkpt>
      <trkpt lat="44.38056" lon="6.39592">
        <ele>2008</ele>
        <time>2020-07-07T12:00:06.000Z</time>
      </trkpt>
      <trkpt lat="44.38055" lon="6.39592">
        <ele>2007</ele>
        <time>2020-07-07T12:00:07.000Z</time>
      </trkpt>
      <trkpt lat="44.38055" lon="6.39592">
        <ele>2007</ele>
        <time>2020-07-07T12:00:08.000Z</time>
      </trkpt>
      <trkpt lat="44.38055" lon="6.39592">
        <ele>2007</ele>
        <time>2020-07-07T12:00:09.000Z</time>
      </trkpt>
      <trkpt lat="44.38054" lon="6.39591">
        <ele>2006</ele>
        <time>2020-07-07T12:00:10.000Z</time>
      </trkpt>
      <trkpt lat="44.38054" lon="6.39591">
        <ele>2006</ele>
        <time>2020-07-07T12:00:11.000Z</time>
      </trkpt>
      <trkpt lat="44.38053" lon="6.3959">
        <ele>2006</ele>
        <time>2020-07-07T12:00:12.000Z</time>
      </trkpt>
      <trkpt lat="44.38053" lon="6.39589">
        <ele>2006</ele>
        <time>2020-07-07T12:00:13.000Z</time>
      </trkpt>
      <trkpt lat="44.38052" lon="6.39589">
        <ele>2005</ele>
        <time>2020-07-07T12:00:14.000Z</time>
      </trkpt>
      <trkpt lat="44.38051" lon="6.39588">
        <ele>2005</ele>
        <time>2020-07-07T12:00:15.000Z</time>
      </trkpt>
      <trkpt lat="44.38051" lon="6.39588">
        <ele>2005</ele>
        <time>2020-07-07T12:00:16.000Z</time>
      </trkpt>
      <trkpt lat="44.3805" lon="6.39587">
        <ele>2004</ele>
        <time>2020-07-07T12:00:17.000Z</time>
      </trkpt>
      <trkpt lat="44.38049" lon="6.39587">
        <ele>2004</ele>
        <time>2020-07-07T12:00:18.000Z</time>
      </trkpt>
      <trkpt lat="44.38049" lon="6.39587">
        <ele>2003</ele>
        <time>2020-07-07T12:00:19.000Z</time>
      </trkpt>
      <trkpt lat="44.38048" lon="6.39586">
        <ele>2003</ele>
        <time>2020-07-07T12:00:20.000Z</time>
      </trkpt>
      <trkpt lat="44.38047" lon="6.39586">
        <ele>2003</ele>
        <time>2020-07-07T12:00:21.000Z</time>
      </trkpt>
      <trkpt lat="44.38046" lon="6.39586">
        <ele>2002</ele>
        <time>2020-07-07T12:00:22.000Z</time>
      </trkpt>
      <trkpt lat="44.38046" lon="6.39586">
        <ele>2002</ele>
        <time>2020-07-07T12:00:23.000Z</time>
      </trkpt>
      <trkpt lat="44.38045" lon="6.39586">
        <ele>2002</ele>
        <time>2020-07-07T12:00:24.000Z</time>
      </trkpt>
      <trkpt lat="44.38045" lon="6.39585">
        <ele>2001</ele>
        <time>2020-07-07T12:00:25.000Z</time>
      </trkpt>
      <trkpt lat="44.38044" lon="6.39585">
        <ele>2001</ele>
        <time>2020-07-07T12:00:26.000Z</time>
      </trkpt>
      <trkpt lat="44.38044" lon="6.39585">
        <ele>2001</ele>
        <time>2020-07-07T12:00:27.000Z</time>
      </trkpt>
      <trkpt lat="44.38044" lon="6.39585">
        <ele>2001</ele>
        <time>2020-07-07T12:00:28.000Z</time>
      </trkpt>
      <trkpt lat="44.38043" lon="6.39585">
        <ele>2001</ele>
        <time>2020-07-07T12:00:29.000Z</time>
      </trkpt>
      <trkpt lat="44.38042" lon="6.39585">
        <ele>2001</ele>
        <time>2020-07-07T12:00:30.000Z</time>
      </trkpt>
      <trkpt lat="44.38042" lon="6.39585">
        <ele>2000</ele>
        <time>2020-07-07T12:00:31.000Z</time>
      </trkpt>
      <trkpt lat="44.38041" lon="6.39585">
        <ele>2000</ele>
        <time>2020-07-07T12:00:32.000Z</time>
      </trkpt>
      <trkpt lat="44.3804" lon="6.39586">
        <ele>2000</ele>
        <time>2020-07-07T12:00:33.000Z</time>
      </trkpt>
      <trkpt lat="44.38039" lon="6.39585">
        <ele>2000</ele>
        <time>2020-07-07T12:00:34.000Z</time>
      </trkpt>
      <trkpt lat="44.38038" lon="6.39585">
        <ele>2000</ele>
        <time>2020-07-07T12:00:35.000Z</time>
      </trkpt>
      <trkpt lat="44.38037" lon="6.39585">
        <ele>2000</ele>
        <time>2020-07-07T12:00:36.000Z</time>
      </trkpt>
      <trkpt lat="44.38036" lon="6.39585">
        <ele>2000</ele>
        <time>2020-07-07T12:00:37.000Z</time>
      </trkpt>
      <trkpt lat="44.38035" lon="6.39585">
        <ele>2000</ele>
        <time>2020-07-07T12:00:38.000Z</time>
      </trkpt>
      <trkpt lat="44.38034" lon="6.39585">
        <ele>2000</ele>
        <time>2020-07-07T12:00:39.000Z</time>
      </trkpt>
      <trkpt lat="44.38033" lon="6.39586">
        <ele>1999</ele>
        <time>2020-07-07T12:00:40.000Z</time>
      </trkpt>
      <trkpt lat="44.38032" lon="6.39585">
        <ele>1999</ele>
        <time>2020-07-07T12:00:41.000Z</time>
      </trkpt>
      <trkpt lat="44.38031" lon="6.39585">
        <ele>1999</ele>
        <time>2020-07-07T12:00:42.000Z</time>
      </trkpt>
      <trkpt lat="44.38031" lon="6.39585">
        <ele>1999</ele>
        <time>2020-07-07T12:00:43.000Z</time>
      </trkpt>
      <trkpt lat="44.3803" lon="6.39585">
        <ele>1999</ele>
        <time>2020-07-07T12:00:44.000Z</time>
      </trkpt>
      <trkpt lat="44.38029" lon="6.39584">
        <ele>1999</ele>
        <time>2020-07-07T12:00:45.000Z</time>
      </trkpt>
      <trkpt lat="44.38028" lon="6.39584">
        <ele>1999</ele>
        <time>2020-07-07T12:00:46.000Z</time>
      </trkpt>
      <trkpt lat="44.38027" lon="6.39584">
        <ele>1998</ele>
        <time>2020-07-07T12:00:47.000Z</time>
      </trkpt>
      <trkpt lat="44.38026" lon="6.39584">
        <ele>1998</ele>
        <time>2020-07-07T12:00:48.000Z</time>
      </trkpt>
      <trkpt lat="44.38025" lon="6.39584">
        <ele>1998</ele>
        <time>2020-07-07T12:00:49.000Z</time>
      </trkpt>
      <trkpt lat="44.38024" lon="6.39584">
        <ele>1998</ele>
        <time>2020-07-07T12:00:50.000Z</time>
      </trkpt>
      <trkpt lat="44.38023" lon="6.39584">
        <ele>1998</ele>
        <time>2020-07-07T12:00:51.000Z</time>
      </trkpt>
      <trkpt lat="44.38022" lon="6.39584">
        <ele>1998</ele>
        <time>2020-07-07T12:00:52.000Z</time>
      </trkpt>
      <trkpt lat="44.38022" lon="6.39584">
        <ele>1998</ele>
        <time>2020-07-07T12:00:53.000Z</time>
      </trkpt>
      <trkpt lat="44.38021" lon="6.39584">
        <ele>1997</ele>
        <time>2020-07-07T12:00:54.000Z</time>
      </trkpt>
      <trkpt lat="44.3802" lon="6.39584">
        <ele>1997</ele>
        <time>2020-07-07T12:00:55.000Z</time>
      </trkpt>
      <trkpt lat="44.38019" lon="6.39584">
        <ele>1997</ele>
        <time>2020-07-07T12:00:56.000Z</time>
      </trkpt>
      <trkpt lat="44.38018" lon="6.39584">
        <ele>1997</ele>
        <time>2020-07-07T12:00:57.000Z</time>
      </trkpt>
      <trkpt lat="44.38017" lon="6.39584">
        <ele>1997</ele>
        <time>2020-07-07T12:00:58.000Z</time>
      </trkpt>
      <trkpt lat="44.38016" lon="6.39584">
        <ele>1996</ele>
        <time>2020-07-07T12:00:59.000Z</time>
      </trkpt>
      <trkpt lat="44.38014" lon="6.39584">
        <ele>1996</ele>
        <time>2020-07-07T12:01:00.000Z</time>
      </trkpt>
      <trkpt lat="44.38013" lon="6.39583">
        <ele>1996</ele>
        <time>2020-07-07T12:01:01.000Z</time>
      </trkpt>
      <trkpt lat="44.38013" lon="6.39583">
        <ele>1996</ele>
        <time>2020-07-07T12:01:02.000Z</time>
      </trkpt>
      <trkpt lat="44.38012" lon="6.39583">
        <ele>1996</ele>
        <time>2020-07-07T12:01:03.000Z</time>
      </trkpt>
      <trkpt lat="44.38011" lon="6.39583">
        <ele>1996</ele>
        <time>2020-07-07T12:01:04.000Z</time>
      </trkpt>
      <trkpt lat="44.3801" lon="6.39583">
        <ele>1995</ele>
        <time>2020-07-07T12:01:05.000Z</time>
      </trkpt>
      <trkpt lat="44.38009" lon="6.39583">
        <ele>1995</ele>
        <time>2020-07-07T12:01:06.000Z</time>
      </trkpt>
      <trkpt lat="44.38008" lon="6.39582">
        <ele>1995</ele>
        <time>2020-07-07T12:01:07.000Z</time>
      </trkpt>
      <trkpt lat="44.38007" lon="6.39582">
        <ele>1995</ele>
        <time>2020-07-07T12:01:08.000Z</time>
      </trkpt>
      <trkpt lat="44.38006" lon="6.39582">
        <ele>1994</ele>
        <time>2020-07-07T12:01:09.000Z</time>
      </trkpt>
      <trkpt lat="44.38006" lon="6.39582">
        <ele>1994</ele>
        <time>2020-07-07T12:01:10.000Z</time>
      </trkpt>
      <trkpt lat="44.38004" lon="6.39582">
        <ele>1994</ele>
        <time>2020-07-07T12:01:11.000Z</time>
      </trkpt>
      <trkpt lat="44.38003" lon="6.39582">
        <ele>1994</ele>
        <time>2020-07-07T12:01:12.000Z</time>
      </trkpt>
      <trkpt lat="44.38002" lon="6.39581">
        <ele>1993</ele>
        <time>2020-07-07T12:01:13.000Z</time>
      </trkpt>
      <trkpt lat="44.38001" lon="6.39581">
        <ele>1993</ele>
        <time>2020-07-07T12:01:14.000Z</time>
      </trkpt>
      <trkpt lat="44.38" lon="6.3958">
        <ele>1993</ele>
        <time>2020-07-07T12:01:15.000Z</time>
      </trkpt>
      <trkpt lat="44.37999" lon="6.3958">
        <ele>1992</ele>
        <time>2020-07-07T12:01:16.000Z</time>
      </trkpt>
      <trkpt lat="44.37998" lon="6.39579">
        <ele>1992</ele>
        <time>2020-07-07T12:01:17.000Z</time>
      </trkpt>
      <trkpt lat="44.37997" lon="6.39579">
        <ele>1992</ele>
        <time>2020-07-07T12:01:18.000Z</time>
      </trkpt>
      <trkpt lat="44.37997" lon="6.39579">
        <ele>1991</ele>
        <time>2020-07-07T12:01:19.000Z</time>
      </trkpt>
      <trkpt lat="44.37996" lon="6.39579">
        <ele>1991</ele>
        <time>2020-07-07T12:01:20.000Z</time>
      </trkpt>
      <trkpt lat="44.37995" lon="6.39579">
        <ele>1991</ele>
        <time>2020-07-07T12:01:21.000Z</time>
      </trkpt>
      <trkpt lat="44.37993" lon="6.39578">
        <ele>1991</ele>
        <time>2020-07-07T12:01:22.000Z</time>
      </trkpt>
      <trkpt lat="44.37992" lon="6.39578">
        <ele>1991</ele>
        <time>2020-07-07T12:01:23.000Z</time>
      </trkpt>
      <trkpt lat="44.37992" lon="6.39578">
        <ele>1991</ele>
        <time>2020-07-07T12:01:24.000Z</time>
      </trkpt>
      <trkpt lat="44.37991" lon="6.39578">
        <ele>1990</ele>
        <time>2020-07-07T12:01:25.000Z</time>
      </trkpt>
      <trkpt lat="44.3799" lon="6.39578">
        <ele>1990</ele>
        <time>2020-07-07T12:01:26.000Z</time>
      </trkpt>
      <trkpt lat="44.37989" lon="6.39578">
        <ele>1990</ele>
        <time>2020-07-07T12:01:27.000Z</time>
      </trkpt>
      <trkpt lat="44.37987" lon="6.39578">
        <ele>1990</ele>
        <time>2020-07-07T12:01:28.000Z</time>
      </trkpt>
      <trkpt lat="44.37986" lon="6.39579">
        <ele>1990</ele>
        <time>2020-07-07T12:01:29.000Z</time>
      </trkpt>
      <trkpt lat="44.37985" lon="6.39579">
        <ele>1990</ele>
        <time>2020-07-07T12:01:30.000Z</time>
      </trkpt>
      <trkpt lat="44.37984" lon="6.39579">
        <ele>1989</ele>
        <time>2020-07-07T12:01:31.000Z</time>
      </trkpt>
      <trkpt lat="44.37983" lon="6.39579">
        <ele>1989</ele>
        <time>2020-07-07T12:01:32.000Z</time>
      </trkpt>
      <trkpt lat="44.37981" lon="6.39579">
        <ele>1989</ele>
        <time>2020-07-07T12:01:33.000Z</time>
      </trkpt>
      <trkpt lat="44.3798" lon="6.39579">
        <ele>1989</ele>
        <time>2020-07-07T12:01:34.000Z</time>
      </trkpt>
      <trkpt lat="44.37979" lon="6.39579">
        <ele>1989</ele>
        <time>2020-07-07T12:01:35.000Z</time>
      </trkpt>
      <trkpt lat="44.37979" lon="6.39579">
        <ele>1989</ele>
        <time>2020-07-07T12:01:36.000Z</time>
      </trkpt>
      <trkpt lat="44.37978" lon="6.39579">
        <ele>1988</ele>
        <time>2020-07-07T12:01:37.000Z</time>
      </trkpt>
      <trkpt lat="44.37977" lon="6.39579">
        <ele>1988</ele>
        <time>2020-07-07T12:01:38.000Z</time>
      </trkpt>
      <trkpt lat="44.37976" lon="6.39579">
        <ele>1988</ele>
        <time>2020-07-07T12:01:39.000Z</time>
      </trkpt>
      <trkpt lat="44.37975" lon="6.39579">
        <ele>1988</ele>
        <time>2020-07-07T12:01:40.000Z</time>
      </trkpt>
      <trkpt lat="44.37974" lon="6.39579">
        <ele>1988</ele>
        <time>2020-07-07T12:01:41.000Z</time>
      </trkpt>
      <trkpt lat="44.37973" lon="6.39579">
        <ele>1987</ele>
        <time>2020-07-07T12:01:42.000Z</time>
      </trkpt>
      <trkpt lat="44.37972" lon="6.39578">
        <ele>1987</ele>
        <time>2020-07-07T12:01:43.000Z</time>
      </trkpt>
      <trkpt lat="44.37971" lon="6.39578">
        <ele>1987</ele>
        <time>2020-07-07T12:01:44.000Z</time>
      </trkpt>
      <trkpt lat="44.3797" lon="6.39578">
        <ele>1987</ele>
        <time>2020-07-07T12:01:45.000Z</time>
      </trkpt>
      <trkpt lat="44.37969" lon="6.39577">
        <ele>1987</ele>
        <time>2020-07-07T12:01:46.000Z</time>
      </trkpt>
      <trkpt lat="44.37967" lon="6.39577">
        <ele>1987</ele>
        <time>2020-07-07T12:01:47.000Z</time>
      </trkpt>
      <trkpt lat="44.37966" lon="6.39577">
        <ele>1987</ele>
        <time>2020-07-07T12:01:48.000Z</time>
      </trkpt>
      <trkpt lat="44.37965" lon="6.39577">
        <ele>1987</ele>
        <time>2020-07-07T12:01:49.000Z</time>
      </trkpt>
      <trkpt lat="44.37964" lon="6.39577">
        <ele>1986</ele>
        <time>2020-07-07T12:01:50.000Z</time>
      </trkpt>
      <trkpt lat="44.37963" lon="6.39577">
        <ele>1986</ele>
        <time>2020-07-07T12:01:51.000Z</time>
      </trkpt>
      <trkpt lat="44.37963" lon="6.39577">
        <ele>1986</ele>
        <time>2020-07-07T12:01:52.000Z</time>
      </trkpt>
      <trkpt lat="44.37962" lon="6.39576">
        <ele>1986</ele>
        <time>2020-07-07T12:01:53.000Z</time>
      </trkpt>
      <trkpt lat="44.37961" lon="6.39576">
        <ele>1986</ele>
        <time>2020-07-07T12:01:54.000Z</time>
      </trkpt>
      <trkpt lat="44.3796" lon="6.39576">
        <ele>1986</ele>
        <time>2020-07-07T12:01:55.000Z</time>
      </trkpt>
      <trkpt lat="44.37959" lon="6.39576">
        <ele>1986</ele>
        <time>2020-07-07T12:01:56.000Z</time>
      </trkpt>
      <trkpt lat="44.37958" lon="6.39575">
        <ele>1986</ele>
        <time>2020-07-07T12:01:57.000Z</time>
      </trkpt>
      <trkpt lat="44.37957" lon="6.39575">
        <ele>1986</ele>
        <time>2020-07-07T12:01:58.000Z</time>
      </trkpt>
      <trkpt lat="44.37956" lon="6.39574">
        <ele>1986</ele>
        <time>2020-07-07T12:01:59.000Z</time>
      </trkpt>
      <trkpt lat="44.37955" lon="6.39574">
        <ele>1986</ele>
        <time>2020-07-07T12:02:00.000Z</time>
      </trkpt>
      <trkpt lat="44.37954" lon="6.39573">
        <ele>1986</ele>
        <time>2020-07-07T12:02:01.000Z</time>
      </trkpt>
      <trkpt lat="44.37953" lon="6.39573">
        <ele>1986</ele>
        <time>2020-07-07T12:02:02.000Z</time>
      </trkpt>
      <trkpt lat="44.37952" lon="6.39572">
        <ele>1985</ele>
        <time>2020-07-07T12:02:03.000Z</time>
      </trkpt>
      <trkpt lat="44.37951" lon="6.39571">
        <ele>1985</ele>
        <time>2020-07-07T12:02:04.000Z</time>
      </trkpt>
      <trkpt lat="44.3795" lon="6.39571">
        <ele>1985</ele>
        <time>2020-07-07T12:02:05.000Z</time>
      </trkpt>
      <trkpt lat="44.37949" lon="6.3957">
        <ele>1985</ele>
        <time>2020-07-07T12:02:06.000Z</time>
      </trkpt>
      <trkpt lat="44.37948" lon="6.3957">
        <ele>1985</ele>
        <time>2020-07-07T12:02:07.000Z</time>
      </trkpt>
      <trkpt lat="44.37947" lon="6.39569">
        <ele>1985</ele>
        <time>2020-07-07T12:02:08.000Z</time>
      </trkpt>
      <trkpt lat="44.37946" lon="6.39569">
        <ele>1985</ele>
        <time>2020-07-07T12:02:09.000Z</time>
      </trkpt>
      <trkpt lat="44.37945" lon="6.39568">
        <ele>1985</ele>
        <time>2020-07-07T12:02:10.000Z</time>
      </trkpt>
      <trkpt lat="44.37944" lon="6.39567">
        <ele>1985</ele>
        <time>2020-07-07T12:02:11.000Z</time>
      </trkpt>
      <trkpt lat="44.37943" lon="6.39567">
        <ele>1985</ele>
        <time>2020-07-07T12:02:12.000Z</time>
      </trkpt>
      <trkpt lat="44.37942" lon="6.39566">
        <ele>1985</ele>
        <time>2020-07-07T12:02:13.000Z</time>
      </trkpt>
      <trkpt lat="44.37941" lon="6.39565">
        <ele>1985</ele>
        <time>2020-07-07T12:02:14.000Z</time>
      </trkpt>
      <trkpt lat="44.3794" lon="6.39565">
        <ele>1985</ele>
        <time>2020-07-07T12:02:15.000Z</time>
      </trkpt>
      <trkpt lat="44.37939" lon="6.39564">
        <ele>1985</ele>
        <time>2020-07-07T12:02:16.000Z</time>
      </trkpt>
      <trkpt lat="44.37938" lon="6.39564">
        <ele>1985</ele>
        <time>2020-07-07T12:02:17.000Z</time>
      </trkpt>
      <trkpt lat="44.37937" lon="6.39563">
        <ele>1984</ele>
        <time>2020-07-07T12:02:18.000Z</time>
      </trkpt>
      <trkpt lat="44.37936" lon="6.39563">
        <ele>1984</ele>
        <time>2020-07-07T12:02:19.000Z</time>
      </trkpt>
      <trkpt lat="44.37935" lon="6.39562">
        <ele>1984</ele>
        <time>2020-07-07T12:02:20.000Z</time>
      </trkpt>
      <trkpt lat="44.37934" lon="6.39562">
        <ele>1984</ele>
        <time>2020-07-07T12:02:21.000Z</time>
      </trkpt>
      <trkpt lat="44.37933" lon="6.39561">
        <ele>1984</ele>
        <time>2020-07-07T12:02:22.000Z</time>
      </trkpt>
      <trkpt lat="44.37932" lon="6.39561">
        <ele>1984</ele>
        <time>2020-07-07T12:02:23.000Z</time>
      </trkpt>
      <trkpt lat="44.37931" lon="6.3956">
        <ele>1984</ele>
        <time>2020-07-07T12:02:24.000Z</time>
      </trkpt>
      <trkpt lat="44.3793" lon="6.39559">
        <ele>1983</ele>
        <time>2020-07-07T12:02:25.000Z</time>
      </trkpt>
      <trkpt lat="44.3793" lon="6.39558">
        <ele>1983</ele>
        <time>2020-07-07T12:02:26.000Z</time>
      </trkpt>
      <trkpt lat="44.37929" lon="6.39558">
        <ele>1983</ele>
        <time>2020-07-07T12:02:27.000Z</time>
      </trkpt>
      <trkpt lat="44.37928" lon="6.39557">
        <ele>1983</ele>
        <time>2020-07-07T12:02:28.000Z</time>
      </trkpt>
      <trkpt lat="44.37927" lon="6.39556">
        <ele>1983</ele>
        <time>2020-07-07T12:02:29.000Z</time>
      </trkpt>
      <trkpt lat="44.37926" lon="6.39556">
        <ele>1983</ele>
        <time>2020-07-07T12:02:30.000Z</time>
      </trkpt>
      <trkpt lat="44.37926" lon="6.39555">
        <ele>1983</ele>
        <time>2020-07-07T12:02:31.000Z</time>
      </trkpt>
      <trkpt lat="44.37925" lon="6.39555">
        <ele>1983</ele>
        <time>2020-07-07T12:02:32.000Z</time>
      </trkpt>
      <trkpt lat="44.37924" lon="6.39554">
        <ele>1983</ele>
        <time>2020-07-07T12:02:33.000Z</time>
      </trkpt>
      <trkpt lat="44.37924" lon="6.39552">
        <ele>1983</ele>
        <time>2020-07-07T12:02:34.000Z</time>
      </trkpt>
      <trkpt lat="44.37924" lon="6.39551">
        <ele>1983</ele>
        <time>2020-07-07T12:02:35.000Z</time>
      </trkpt>
      <trkpt lat="44.37925" lon="6.3955">
        <ele>1982</ele>
        <time>2020-07-07T12:02:36.000Z</time>
      </trkpt>
      <trkpt lat="44.37925" lon="6.3955">
        <ele>1982</ele>
        <time>2020-07-07T12:02:37.000Z</time>
      </trkpt>
      <trkpt lat="44.37926" lon="6.3955">
        <ele>1982</ele>
        <time>2020-07-07T12:02:38.000Z</time>
      </trkpt>
      <trkpt lat="44.37927" lon="6.39551">
        <ele>1982</ele>
        <time>2020-07-07T12:02:39.000Z</time>
      </trkpt>
      <trkpt lat="44.37928" lon="6.39551">
        <ele>1982</ele>
        <time>2020-07-07T12:02:40.000Z</time>
      </trkpt>
      <trkpt lat="44.37929" lon="6.39552">
        <ele>1982</ele>
        <time>2020-07-07T12:02:41.000Z</time>
      </trkpt>
      <trkpt lat="44.3793" lon="6.39552">
        <ele>1981</ele>
        <time>2020-07-07T12:02:42.000Z</time>
      </trkpt>
      <trkpt lat="44.37931" lon="6.39551">
        <ele>1981</ele>
        <time>2020-07-07T12:02:43.000Z</time>
      </trkpt>
      <trkpt lat="44.37932" lon="6.39552">
        <ele>1981</ele>
        <time>2020-07-07T12:02:44.000Z</time>
      </trkpt>
      <trkpt lat="44.37933" lon="6.39552">
        <ele>1981</ele>
        <time>2020-07-07T12:02:45.000Z</time>
      </trkpt>
      <trkpt lat="44.37933" lon="6.39552">
        <ele>1980</ele>
        <time>2020-07-07T12:02:46.000Z</time>
      </trkpt>
      <trkpt lat="44.37934" lon="6.39552">
        <ele>1980</ele>
        <time>2020-07-07T12:02:47.000Z</time>
      </trkpt>
      <trkpt lat="44.37935" lon="6.39553">
        <ele>1980</ele>
        <time>2020-07-07T12:02:48.000Z</time>
      </trkpt>
      <trkpt lat="44.37936" lon="6.39553">
        <ele>1980</ele>
        <time>2020-07-07T12:02:49.000Z</time>
      </trkpt>
      <trkpt lat="44.37937" lon="6.39553">
        <ele>1979</ele>
        <time>2020-07-07T12:02:50.000Z</time>
      </trkpt>
      <trkpt lat="44.37938" lon="6.39553">
        <ele>1979</ele>
        <time>2020-07-07T12:02:51.000Z</time>
      </trkpt>
      <trkpt lat="44.37939" lon="6.39553">
        <ele>1979</ele>
        <time>2020-07-07T12:02:52.000Z</time>
      </trkpt>
      <trkpt lat="44.37941" lon="6.39554">
        <ele>1979</ele>
        <time>2020-07-07T12:02:53.000Z</time>
      </trkpt>
      <trkpt lat="44.37942" lon="6.39554">
        <ele>1979</ele>
        <time>2020-07-07T12:02:54.000Z</time>
      </trkpt>
      <trkpt lat="44.37943" lon="6.39555">
        <ele>1978</ele>
        <time>2020-07-07T12:02:55.000Z</time>
      </trkpt>
      <trkpt lat="44.37944" lon="6.39555">
        <ele>1978</ele>
        <time>2020-07-07T12:02:56.000Z</time>
      </trkpt>
      <trkpt lat="44.37945" lon="6.39556">
        <ele>1978</ele>
        <time>2020-07-07T12:02:57.000Z</time>
      </trkpt>
      <trkpt lat="44.37946" lon="6.39556">
        <ele>1978</ele>
        <time>2020-07-07T12:02:58.000Z</time>
      </trkpt>
      <trkpt lat="44.37948" lon="6.39556">
        <ele>1978</ele>
        <time>2020-07-07T12:02:59.000Z</time>
      </trkpt>
      <trkpt lat="44.37949" lon="6.39557">
        <ele>1978</ele>
        <time>2020-07-07T12:03:00.000Z</time>
      </trkpt>
      <trkpt lat="44.3795" lon="6.39557">
        <ele>1978</ele>
        <time>2020-07-07T12:03:01.000Z</time>
      </trkpt>
      <trkpt lat="44.37951" lon="6.39557">
        <ele>1977</ele>
        <time>2020-07-07T12:03:02.000Z</time>
      </trkpt>
      <trkpt lat="44.37952" lon="6.39557">
        <ele>1977</ele>
        <time>2020-07-07T12:03:03.000Z</time>
      </trkpt>
      <trkpt lat="44.37953" lon="6.39557">
        <ele>1977</ele>
        <time>2020-07-07T12:03:04.000Z</time>
      </trkpt>
      <trkpt lat="44.37954" lon="6.39557">
        <ele>1977</ele>
        <time>2020-07-07T12:03:05.000Z</time>
      </trkpt>
      <trkpt lat="44.37955" lon="6.39557">
        <ele>1977</ele>
        <time>2020-07-07T12:03:06.000Z</time>
      </trkpt>
      <trkpt lat="44.37956" lon="6.39557">
        <ele>1977</ele>
        <time>2020-07-07T12:03:07.000Z</time>
      </trkpt>
      <trkpt lat="44.37957" lon="6.39557">
        <ele>1977</ele>
        <time>2020-07-07T12:03:08.000Z</time>
      </trkpt>
      <trkpt lat="44.37958" lon="6.39557">
        <ele>1977</ele>
        <time>2020-07-07T12:03:09.000Z</time>
      </trkpt>
      <trkpt lat="44.37959" lon="6.39557">
        <ele>1977</ele>
        <time>2020-07-07T12:03:10.000Z</time>
      </trkpt>
      <trkpt lat="44.3796" lon="6.39557">
        <ele>1977</ele>
        <time>2020-07-07T12:03:11.000Z</time>
      </trkpt>
      <trkpt lat="44.37961" lon="6.39558">
        <ele>1976</ele>
        <time>2020-07-07T12:03:12.000Z</time>
      </trkpt>
      <trkpt lat="44.37962" lon="6.39557">
        <ele>1976</ele>
        <time>2020-07-07T12:03:13.000Z</time>
      </trkpt>
      <trkpt lat="44.37963" lon="6.39557">
        <ele>1976</ele>
        <time>2020-07-07T12:03:14.000Z</time>
      </trkpt>
      <trkpt lat="44.37964" lon="6.39557">
        <ele>1976</ele>
        <time>2020-07-07T12:03:15.000Z</time>
      </trkpt>
      <trkpt lat="44.37965" lon="6.39557">
        <ele>1976</ele>
        <time>2020-07-07T12:03:16.000Z</time>
      </trkpt>
      <trkpt lat="44.37966" lon="6.39557">
        <ele>1975</ele>
        <time>2020-07-07T12:03:17.000Z</time>
      </trkpt>
      <trkpt lat="44.37967" lon="6.39556">
        <ele>1975</ele>
        <time>2020-07-07T12:03:18.000Z</time>
      </trkpt>
      <trkpt lat="44.37968" lon="6.39556">
        <ele>1975</ele>
        <time>2020-07-07T12:03:19.000Z</time>
      </trkpt>
      <trkpt lat="44.37969" lon="6.39556">
        <ele>1975</ele>
        <time>2020-07-07T12:03:20.000Z</time>
      </trkpt>
      <trkpt lat="44.3797" lon="6.39555">
        <ele>1975</ele>
        <time>2020-07-07T12:03:21.000Z</time>
      </trkpt>
      <trkpt lat="44.37971" lon="6.39555">
        <ele>1975</ele>
        <time>2020-07-07T12:03:22.000Z</time>
      </trkpt>
      <trkpt lat="44.37972" lon="6.39555">
        <ele>1974</ele>
        <time>2020-07-07T12:03:23.000Z</time>
      </trkpt>
      <trkpt lat="44.37973" lon="6.39554">
        <ele>1974</ele>
        <time>2020-07-07T12:03:24.000Z</time>
      </trkpt>
      <trkpt lat="44.37974" lon="6.39554">
        <ele>1974</ele>
        <time>2020-07-07T12:03:25.000Z</time>
      </trkpt>
      <trkpt lat="44.37975" lon="6.39553">
        <ele>1974</ele>
        <time>2020-07-07T12:03:26.000Z</time>
      </trkpt>
      <trkpt lat="44.37976" lon="6.39553">
        <ele>1974</ele>
        <time>2020-07-07T12:03:27.000Z</time>
      </trkpt>
      <trkpt lat="44.37977" lon="6.39552">
        <ele>1974</ele>
        <time>2020-07-07T12:03:28.000Z</time>
      </trkpt>
      <trkpt lat="44.37978" lon="6.39552">
        <ele>1974</ele>
        <time>2020-07-07T12:03:29.000Z</time>
      </trkpt>
      <trkpt lat="44.37979" lon="6.39552">
        <ele>1974</ele>
        <time>2020-07-07T12:03:30.000Z</time>
      </trkpt>
      <trkpt lat="44.3798" lon="6.39551">
        <ele>1974</ele>
        <time>2020-07-07T12:03:31.000Z</time>
      </trkpt>
      <trkpt lat="44.37981" lon="6.3955">
        <ele>1974</ele>
        <time>2020-07-07T12:03:32.000Z</time>
      </trkpt>
      <trkpt lat="44.37982" lon="6.3955">
        <ele>1974</ele>
        <time>2020-07-07T12:03:33.000Z</time>
      </trkpt>
      <trkpt lat="44.37983" lon="6.39549">
        <ele>1974</ele>
        <time>2020-07-07T12:03:34.000Z</time>
      </trkpt>
      <trkpt lat="44.37984" lon="6.39549">
        <ele>1974</ele>
        <time>2020-07-07T12:03:35.000Z</time>
      </trkpt>
      <trkpt lat="44.37985" lon="6.39548">
        <ele>1974</ele>
        <time>2020-07-07T12:03:36.000Z</time>
      </trkpt>
      <trkpt lat="44.37986" lon="6.39547">
        <ele>1974</ele>
        <time>2020-07-07T12:03:37.000Z</time>
      </trkpt>
      <trkpt lat="44.37987" lon="6.39547">
        <ele>1974</ele>
        <time>2020-07-07T12:03:38.000Z</time>
      </trkpt>
      <trkpt lat="44.37988" lon="6.39546">
        <ele>1974</ele>
        <time>2020-07-07T12:03:39.000Z</time>
      </trkpt>
      <trkpt lat="44.37989" lon="6.39546">
        <ele>1974</ele>
        <time>2020-07-07T12:03:40.000Z</time>
      </trkpt>
      <trkpt lat="44.3799" lon="6.39545">
        <ele>1974</ele>
        <time>2020-07-07T12:03:41.000Z</time>
      </trkpt>
      <trkpt lat="44.37991" lon="6.39544">
        <ele>1974</ele>
        <time>2020-07-07T12:03:42.000Z</time>
      </trkpt>
      <trkpt lat="44.37992" lon="6.39544">
        <ele>1973</ele>
        <time>2020-07-07T12:03:43.000Z</time>
      </trkpt>
      <trkpt lat="44.37993" lon="6.39543">
        <ele>1973</ele>
        <time>2020-07-07T12:03:44.000Z</time>
      </trkpt>
      <trkpt lat="44.37993" lon="6.39543">
        <ele>1973</ele>
        <time>2020-07-07T12:03:45.000Z</time>
      </trkpt>
      <trkpt lat="44.37995" lon="6.39543">
        <ele>1973</ele>
        <time>2020-07-07T12:03:46.000Z</time>
      </trkpt>
      <trkpt lat="44.37995" lon="6.39542">
        <ele>1973</ele>
        <time>2020-07-07T12:03:47.000Z</time>
      </trkpt>
      <trkpt lat="44.37997" lon="6.39542">
        <ele>1973</ele>
        <time>2020-07-07T12:03:48.000Z</time>
      </trkpt>
      <trkpt lat="44.37998" lon="6.39541">
        <ele>1973</ele>
        <time>2020-07-07T12:03:49.000Z</time>
      </trkpt>
      <trkpt lat="44.37999" lon="6.39541">
        <ele>1973</ele>
        <time>2020-07-07T12:03:50.000Z</time>
      </trkpt>
      <trkpt lat="44.38" lon="6.3954">
        <ele>1973</ele>
        <time>2020-07-07T12:03:51.000Z</time>
      </trkpt>
      <trkpt lat="44.38001" lon="6.39539">
        <ele>1973</ele>
        <time>2020-07-07T12:03:52.000Z</time>
      </trkpt>
      <trkpt lat="44.38002" lon="6.39539">
        <ele>1973</ele>
        <time>2020-07-07T12:03:53.000Z</time>
      </trkpt>
      <trkpt lat="44.38003" lon="6.39539">
        <ele>1973</ele>
        <time>2020-07-07T12:03:54.000Z</time>
      </trkpt>
      <trkpt lat="44.38004" lon="6.39539">
        <ele>1973</ele>
        <time>2020-07-07T12:03:55.000Z</time>
      </trkpt>
      <trkpt lat="44.38005" lon="6.39538">
        <ele>1973</ele>
        <time>2020-07-07T12:03:56.000Z</time>
      </trkpt>
      <trkpt lat="44.38006" lon="6.39538">
        <ele>1973</ele>
        <time>2020-07-07T12:03:57.000Z</time>
      </trkpt>
      <trkpt lat="44.38008" lon="6.39537">
        <ele>1973</ele>
        <time>2020-07-07T12:03:58.000Z</time>
      </trkpt>
      <trkpt lat="44.38009" lon="6.39536">
        <ele>1973</ele>
        <time>2020-07-07T12:03:59.000Z</time>
      </trkpt>
      <trkpt lat="44.3801" lon="6.39536">
        <ele>1973</ele>
        <time>2020-07-07T12:04:00.000Z</time>
      </trkpt>
      <trkpt lat="44.38011" lon="6.39536">
        <ele>1973</ele>
        <time>2020-07-07T12:04:01.000Z</time>
      </trkpt>
      <trkpt lat="44.38012" lon="6.39535">
        <ele>1973</ele>
        <time>2020-07-07T12:04:02.000Z</time>
      </trkpt>
      <trkpt lat="44.38013" lon="6.39535">
        <ele>1973</ele>
        <time>2020-07-07T12:04:03.000Z</time>
      </trkpt>
      <trkpt lat="44.38014" lon="6.39535">
        <ele>1973</ele>
        <time>2020-07-07T12:04:04.000Z</time>
      </trkpt>
      <trkpt lat="44.38015" lon="6.39534">
        <ele>1973</ele>
        <time>2020-07-07T12:04:05.000Z</time>
      </trkpt>
      <trkpt lat="44.38016" lon="6.39534">
        <ele>1973</ele>
        <time>2020-07-07T12:04:06.000Z</time>
      </trkpt>
      <trkpt lat="44.38017" lon="6.39533">
        <ele>1973</ele>
        <time>2020-07-07T12:04:07.000Z</time>
      </trkpt>
      <trkpt lat="44.38018" lon="6.39532">
        <ele>1973</ele>
        <time>2020-07-07T12:04:08.000Z</time>
      </trkpt>
      <trkpt lat="44.38019" lon="6.39532">
        <ele>1973</ele>
        <time>2020-07-07T12:04:09.000Z</time>
      </trkpt>
      <trkpt lat="44.3802" lon="6.39531">
        <ele>1973</ele>
        <time>2020-07-07T12:04:10.000Z</time>
      </trkpt>
      <trkpt lat="44.38021" lon="6.39531">
        <ele>1973</ele>
        <time>2020-07-07T12:04:11.000Z</time>
      </trkpt>
      <trkpt lat="44.38022" lon="6.3953">
        <ele>1973</ele>
        <time>2020-07-07T12:04:12.000Z</time>
      </trkpt>
      <trkpt lat="44.38023" lon="6.3953">
        <ele>1973</ele>
        <time>2020-07-07T12:04:13.000Z</time>
      </trkpt>
      <trkpt lat="44.38024" lon="6.39529">
        <ele>1973</ele>
        <time>2020-07-07T12:04:14.000Z</time>
      </trkpt>
      <trkpt lat="44.38025" lon="6.39529">
        <ele>1973</ele>
        <time>2020-07-07T12:04:15.000Z</time>
      </trkpt>
      <trkpt lat="44.38026" lon="6.39528">
        <ele>1973</ele>
        <time>2020-07-07T12:04:16.000Z</time>
      </trkpt>
      <trkpt lat="44.38027" lon="6.39528">
        <ele>1973</ele>
        <time>2020-07-07T12:04:17.000Z</time>
      </trkpt>
      <trkpt lat="44.38028" lon="6.39527">
        <ele>1973</ele>
        <time>2020-07-07T12:04:18.000Z</time>
      </trkpt>
      <trkpt lat="44.38029" lon="6.39526">
        <ele>1973</ele>
        <time>2020-07-07T12:04:19.000Z</time>
      </trkpt>
      <trkpt lat="44.3803" lon="6.39525">
        <ele>1973</ele>
        <time>2020-07-07T12:04:20.000Z</time>
      </trkpt>
      <trkpt lat="44.38031" lon="6.39525">
        <ele>1973</ele>
        <time>2020-07-07T12:04:21.000Z</time>
      </trkpt>
      <trkpt lat="44.38032" lon="6.39524">
        <ele>1973</ele>
        <time>2020-07-07T12:04:22.000Z</time>
      </trkpt>
      <trkpt lat="44.38033" lon="6.39524">
        <ele>1974</ele>
        <time>2020-07-07T12:04:23.000Z</time>
      </trkpt>
      <trkpt lat="44.38034" lon="6.39523">
        <ele>1974</ele>
        <time>2020-07-07T12:04:24.000Z</time>
      </trkpt>
      <trkpt lat="44.38035" lon="6.39522">
        <ele>1974</ele>
        <time>2020-07-07T12:04:25.000Z</time>
      </trkpt>
      <trkpt lat="44.38036" lon="6.39521">
        <ele>1974</ele>
        <time>2020-07-07T12:04:26.000Z</time>
      </trkpt>
      <trkpt lat="44.38038" lon="6.3952">
        <ele>1974</ele>
        <time>2020-07-07T12:04:27.000Z</time>
      </trkpt>
      <trkpt lat="44.38038" lon="6.3952">
        <ele>1974</ele>
        <time>2020-07-07T12:04:28.000Z</time>
      </trkpt>
      <trkpt lat="44.38039" lon="6.3952">
        <ele>1974</ele>
        <time>2020-07-07T12:04:29.000Z</time>
      </trkpt>
      <trkpt lat="44.38039" lon="6.39519">
        <ele>1974</ele>
        <time>2020-07-07T12:04:30.000Z</time>
      </trkpt>
      <trkpt lat="44.3804" lon="6.39518">
        <ele>1974</ele>
        <time>2020-07-07T12:04:31.000Z</time>
      </trkpt>
      <trkpt lat="44.38041" lon="6.39518">
        <ele>1974</ele>
        <time>2020-07-07T12:04:32.000Z</time>
      </trkpt>
      <trkpt lat="44.38042" lon="6.39517">
        <ele>1974</ele>
        <time>2020-07-07T12:04:33.000Z</time>
      </trkpt>
      <trkpt lat="44.38043" lon="6.39516">
        <ele>1974</ele>
        <time>2020-07-07T12:04:34.000Z</time>
      </trkpt>
      <trkpt lat="44.38044" lon="6.39516">
        <ele>1974</ele>
        <time>2020-07-07T12:04:35.000Z</time>
      </trkpt>
      <trkpt lat="44.38045" lon="6.39515">
        <ele>1974</ele>
        <time>2020-07-07T12:04:36.000Z</time>
      </trkpt>
      <trkpt lat="44.38046" lon="6.39514">
        <ele>1974</ele>
        <time>2020-07-07T12:04:37.000Z</time>
      </trkpt>
      <trkpt lat="44.38047" lon="6.39513">
        <ele>1973</ele>
        <time>2020-07-07T12:04:38.000Z</time>
      </trkpt>
      <trkpt lat="44.38048" lon="6.39513">
        <ele>1973</ele>
        <time>2020-07-07T12:04:39.000Z</time>
      </trkpt>
      <trkpt lat="44.38048" lon="6.39513">
        <ele>1973</ele>
        <time>2020-07-07T12:04:40.000Z</time>
      </trkpt>
      <trkpt lat="44.38049" lon="6.39512">
        <ele>1973</ele>
        <time>2020-07-07T12:04:41.000Z</time>
      </trkpt>
      <trkpt lat="44.3805" lon="6.39511">
        <ele>1973</ele>
        <time>2020-07-07T12:04:42.000Z</time>
      </trkpt>
      <trkpt lat="44.38051" lon="6.3951">
        <ele>1973</ele>
        <time>2020-07-07T12:04:43.000Z</time>
      </trkpt>
      <trkpt lat="44.38052" lon="6.3951">
        <ele>1973</ele>
        <time>2020-07-07T12:04:44.000Z</time>
      </trkpt>
      <trkpt lat="44.38053" lon="6.39509">
        <ele>1973</ele>
        <time>2020-07-07T12:04:45.000Z</time>
      </trkpt>
      <trkpt lat="44.38054" lon="6.39508">
        <ele>1972</ele>
        <time>2020-07-07T12:04:46.000Z</time>
      </trkpt>
      <trkpt lat="44.38055" lon="6.39507">
        <ele>1972</ele>
        <time>2020-07-07T12:04:47.000Z</time>
      </trkpt>
      <trkpt lat="44.38055" lon="6.39506">
        <ele>1972</ele>
        <time>2020-07-07T12:04:48.000Z</time>
      </trkpt>
      <trkpt lat="44.38056" lon="6.39505">
        <ele>1972</ele>
        <time>2020-07-07T12:04:49.000Z</time>
      </trkpt>
      <trkpt lat="44.38057" lon="6.39504">
        <ele>1972</ele>
        <time>2020-07-07T12:04:50.000Z</time>
      </trkpt>
      <trkpt lat="44.38058" lon="6.39503">
        <ele>1972</ele>
        <time>2020-07-07T12:04:51.000Z</time>
      </trkpt>
      <trkpt lat="44.38059" lon="6.39503">
        <ele>1972</ele>
        <time>2020-07-07T12:04:52.000Z</time>
      </trkpt>
      <trkpt lat="44.38061" lon="6.39502">
        <ele>1972</ele>
        <time>2020-07-07T12:04:53.000Z</time>
      </trkpt>
      <trkpt lat="44.38062" lon="6.39501">
        <ele>1972</ele>
        <time>2020-07-07T12:04:54.000Z</time>
      </trkpt>
      <trkpt lat="44.38062" lon="6.395">
        <ele>1971</ele>
        <time>2020-07-07T12:04:55.000Z</time>
      </trkpt>
      <trkpt lat="44.38063" lon="6.395">
        <ele>1971</ele>
        <time>2020-07-07T12:04:56.000Z</time>
      </trkpt>
      <trkpt lat="44.38063" lon="6.39499">
        <ele>1971</ele>
        <time>2020-07-07T12:04:57.000Z</time>
      </trkpt>
      <trkpt lat="44.38064" lon="6.39498">
        <ele>1971</ele>
        <time>2020-07-07T12:04:58.000Z</time>
      </trkpt>
      <trkpt lat="44.38065" lon="6.39497">
        <ele>1971</ele>
        <time>2020-07-07T12:04:59.000Z</time>
      </trkpt>
      <trkpt lat="44.38066" lon="6.39496">
        <ele>1971</ele>
        <time>2020-07-07T12:05:00.000Z</time>
      </trkpt>
      <trkpt lat="44.38067" lon="6.39495">
        <ele>1971</ele>
        <time>2020-07-07T12:05:01.000Z</time>
      </trkpt>
      <trkpt lat="44.38068" lon="6.39494">
        <ele>1971</ele>
        <time>2020-07-07T12:05:02.000Z</time>
      </trkpt>
      <trkpt lat="44.38069" lon="6.39492">
        <ele>1971</ele>
        <time>2020-07-07T12:05:03.000Z</time>
      </trkpt>
      <trkpt lat="44.38069" lon="6.39491">
        <ele>1971</ele>
        <time>2020-07-07T12:05:04.000Z</time>
      </trkpt>
      <trkpt lat="44.3807" lon="6.3949">
        <ele>1971</ele>
        <time>2020-07-07T12:05:05.000Z</time>
      </trkpt>
      <trkpt lat="44.38071" lon="6.3949">
        <ele>1971</ele>
        <time>2020-07-07T12:05:06.000Z</time>
      </trkpt>
      <trkpt lat="44.38071" lon="6.39489">
        <ele>1971</ele>
        <time>2020-07-07T12:05:07.000Z</time>
      </trkpt>
      <trkpt lat="44.38071" lon="6.39489">
        <ele>1971</ele>
        <time>2020-07-07T12:05:08.000Z</time>
      </trkpt>
      <trkpt lat="44.38072" lon="6.39488">
        <ele>1971</ele>
        <time>2020-07-07T12:05:09.000Z</time>
      </trkpt>
      <trkpt lat="44.38074" lon="6.39486">
        <ele>1971</ele>
        <time>2020-07-07T12:05:10.000Z</time>
      </trkpt>
      <trkpt lat="44.38075" lon="6.39484">
        <ele>1970</ele>
        <time>2020-07-07T12:05:11.000Z</time>
      </trkpt>
      <trkpt lat="44.38076" lon="6.39484">
        <ele>1970</ele>
        <time>2020-07-07T12:05:12.000Z</time>
      </trkpt>
      <trkpt lat="44.38077" lon="6.39482">
        <ele>1970</ele>
        <time>2020-07-07T12:05:13.000Z</time>
      </trkpt>
      <trkpt lat="44.38077" lon="6.39481">
        <ele>1970</ele>
        <time>2020-07-07T12:05:14.000Z</time>
      </trkpt>
      <trkpt lat="44.38078" lon="6.3948">
        <ele>1970</ele>
        <time>2020-07-07T12:05:15.000Z</time>
      </trkpt>
      <trkpt lat="44.38079" lon="6.39479">
        <ele>1970</ele>
        <time>2020-07-07T12:05:16.000Z</time>
      </trkpt>
      <trkpt lat="44.3808" lon="6.39478">
        <ele>1970</ele>
        <time>2020-07-07T12:05:17.000Z</time>
      </trkpt>
      <trkpt lat="44.38081" lon="6.39477">
        <ele>1970</ele>
        <time>2020-07-07T12:05:18.000Z</time>
      </trkpt>
      <trkpt lat="44.38081" lon="6.39476">
        <ele>1970</ele>
        <time>2020-07-07T12:05:19.000Z</time>
      </trkpt>
      <trkpt lat="44.38082" lon="6.39474">
        <ele>1969</ele>
        <time>2020-07-07T12:05:20.000Z</time>
      </trkpt>
      <trkpt lat="44.38084" lon="6.39473">
        <ele>1969</ele>
        <time>2020-07-07T12:05:21.000Z</time>
      </trkpt>
      <trkpt lat="44.38084" lon="6.39472">
        <ele>1969</ele>
        <time>2020-07-07T12:05:22.000Z</time>
      </trkpt>
      <trkpt lat="44.38085" lon="6.39471">
        <ele>1968</ele>
        <time>2020-07-07T12:05:23.000Z</time>
      </trkpt>
      <trkpt lat="44.38086" lon="6.39469">
        <ele>1968</ele>
        <time>2020-07-07T12:05:24.000Z</time>
      </trkpt>
      <trkpt lat="44.38087" lon="6.39468">
        <ele>1968</ele>
        <time>2020-07-07T12:05:25.000Z</time>
      </trkpt>
      <trkpt lat="44.38087" lon="6.39467">
        <ele>1968</ele>
        <time>2020-07-07T12:05:26.000Z</time>
      </trkpt>
      <trkpt lat="44.38088" lon="6.39466">
        <ele>1967</ele>
        <time>2020-07-07T12:05:27.000Z</time>
      </trkpt>
      <trkpt lat="44.38089" lon="6.39465">
        <ele>1967</ele>
        <time>2020-07-07T12:05:28.000Z</time>
      </trkpt>
      <trkpt lat="44.3809" lon="6.39464">
        <ele>1967</ele>
        <time>2020-07-07T12:05:29.000Z</time>
      </trkpt>
      <trkpt lat="44.3809" lon="6.39462">
        <ele>1967</ele>
        <time>2020-07-07T12:05:30.000Z</time>
      </trkpt>
      <trkpt lat="44.38091" lon="6.39461">
        <ele>1967</ele>
        <time>2020-07-07T12:05:31.000Z</time>
      </trkpt>
      <trkpt lat="44.38092" lon="6.39459">
        <ele>1967</ele>
        <time>2020-07-07T12:05:32.000Z</time>
      </trkpt>
      <trkpt lat="44.38092" lon="6.39458">
        <ele>1967</ele>
        <time>2020-07-07T12:05:33.000Z</time>
      </trkpt>
      <trkpt lat="44.38093" lon="6.39457">
        <ele>1967</ele>
        <time>2020-07-07T12:05:34.000Z</time>
      </trkpt>
      <trkpt lat="44.38094" lon="6.39456">
        <ele>1967</ele>
        <time>2020-07-07T12:05:35.000Z</time>
      </trkpt>
      <trkpt lat="44.38094" lon="6.39455">
        <ele>1967</ele>
        <time>2020-07-07T12:05:36.000Z</time>
      </trkpt>
      <trkpt lat="44.38096" lon="6.39453">
        <ele>1967</ele>
        <time>2020-07-07T12:05:37.000Z</time>
      </trkpt>
      <trkpt lat="44.38096" lon="6.39452">
        <ele>1967</ele>
        <time>2020-07-07T12:05:38.000Z</time>
      </trkpt>
      <trkpt lat="44.38097" lon="6.39451">
        <ele>1967</ele>
        <time>2020-07-07T12:05:39.000Z</time>
      </trkpt>
      <trkpt lat="44.38098" lon="6.3945">
        <ele>1967</ele>
        <time>2020-07-07T12:05:40.000Z</time>
      </trkpt>
      <trkpt lat="44.38098" lon="6.39449">
        <ele>1967</ele>
        <time>2020-07-07T12:05:41.000Z</time>
      </trkpt>
      <trkpt lat="44.38099" lon="6.39448">
        <ele>1966</ele>
        <time>2020-07-07T12:05:42.000Z</time>
      </trkpt>
      <trkpt lat="44.38099" lon="6.39448">
        <ele>1966</ele>
        <time>2020-07-07T12:05:43.000Z</time>
      </trkpt>
      <trkpt lat="44.381" lon="6.39446">
        <ele>1966</ele>
        <time>2020-07-07T12:05:44.000Z</time>
      </trkpt>
      <trkpt lat="44.381" lon="6.39445">
        <ele>1966</ele>
        <time>2020-07-07T12:05:45.000Z</time>
      </trkpt>
      <trkpt lat="44.38101" lon="6.39444">
        <ele>1966</ele>
        <time>2020-07-07T12:05:46.000Z</time>
      </trkpt>
      <trkpt lat="44.38101" lon="6.39443">
        <ele>1966</ele>
        <time>2020-07-07T12:05:47.000Z</time>
      </trkpt>
      <trkpt lat="44.38101" lon="6.39441">
        <ele>1965</ele>
        <time>2020-07-07T12:05:48.000Z</time>
      </trkpt>
      <trkpt lat="44.38102" lon="6.3944">
        <ele>1965</ele>
        <time>2020-07-07T12:05:49.000Z</time>
      </trkpt>
      <trkpt lat="44.38103" lon="6.39438">
        <ele>1965</ele>
        <time>2020-07-07T12:05:50.000Z</time>
      </trkpt>
      <trkpt lat="44.38103" lon="6.39437">
        <ele>1965</ele>
        <time>2020-07-07T12:05:51.000Z</time>
      </trkpt>
      <trkpt lat="44.38104" lon="6.39436">
        <ele>1965</ele>
        <time>2020-07-07T12:05:52.000Z</time>
      </trkpt>
      <trkpt lat="44.38104" lon="6.39435">
        <ele>1965</ele>
        <time>2020-07-07T12:05:53.000Z</time>
      </trkpt>
      <trkpt lat="44.38104" lon="6.39434">
        <ele>1965</ele>
        <time>2020-07-07T12:05:54.000Z</time>
      </trkpt>
      <trkpt lat="44.38105" lon="6.39432">
        <ele>1965</ele>
        <time>2020-07-07T12:05:55.000Z</time>
      </trkpt>
      <trkpt lat="44.38105" lon="6.39431">
        <ele>1965</ele>
        <time>2020-07-07T12:05:56.000Z</time>
      </trkpt>
      <trkpt lat="44.38106" lon="6.3943">
        <ele>1965</ele>
        <time>2020-07-07T12:05:57.000Z</time>
      </trkpt>
      <trkpt lat="44.38106" lon="6.39429">
        <ele>1965</ele>
        <time>2020-07-07T12:05:58.000Z</time>
      </trkpt>
      <trkpt lat="44.38106" lon="6.39429">
        <ele>1965</ele>
        <time>2020-07-07T12:05:59.000Z</time>
      </trkpt>
      <trkpt lat="44.38106" lon="6.39429">
        <ele>1965</ele>
        <time>2020-07-07T12:06:00.000Z</time>
      </trkpt>
      <trkpt lat="44.38107" lon="6.39428">
        <ele>1964</ele>
        <time>2020-07-07T12:06:01.000Z</time>
      </trkpt>
      <trkpt lat="44.38107" lon="6.39426">
        <ele>1964</ele>
        <time>2020-07-07T12:06:02.000Z</time>
      </trkpt>
      <trkpt lat="44.38108" lon="6.39425">
        <ele>1964</ele>
        <time>2020-07-07T12:06:03.000Z</time>
      </trkpt>
      <trkpt lat="44.38109" lon="6.39423">
        <ele>1964</ele>
        <time>2020-07-07T12:06:04.000Z</time>
      </trkpt>
      <trkpt lat="44.38109" lon="6.39423">
        <ele>1964</ele>
        <time>2020-07-07T12:06:05.000Z</time>
      </trkpt>
      <trkpt lat="44.3811" lon="6.39422">
        <ele>1964</ele>
        <time>2020-07-07T12:06:06.000Z</time>
      </trkpt>
      <trkpt lat="44.38111" lon="6.3942">
        <ele>1964</ele>
        <time>2020-07-07T12:06:07.000Z</time>
      </trkpt>
      <trkpt lat="44.38112" lon="6.39419">
        <ele>1964</ele>
        <time>2020-07-07T12:06:08.000Z</time>
      </trkpt>
      <trkpt lat="44.38113" lon="6.39418">
        <ele>1964</ele>
        <time>2020-07-07T12:06:09.000Z</time>
      </trkpt>
      <trkpt lat="44.38114" lon="6.39417">
        <ele>1964</ele>
        <time>2020-07-07T12:06:10.000Z</time>
      </trkpt>
      <trkpt lat="44.38115" lon="6.39416">
        <ele>1964</ele>
        <time>2020-07-07T12:06:11.000Z</time>
      </trkpt>
      <trkpt lat="44.38116" lon="6.39415">
        <ele>1964</ele>
        <time>2020-07-07T12:06:12.000Z</time>
      </trkpt>
      <trkpt lat="44.38116" lon="6.39413">
        <ele>1964</ele>
        <time>2020-07-07T12:06:13.000Z</time>
      </trkpt>
      <trkpt lat="44.38117" lon="6.39412">
        <ele>1964</ele>
        <time>2020-07-07T12:06:14.000Z</time>
      </trkpt>
      <trkpt lat="44.38118" lon="6.3941">
        <ele>1964</ele>
        <time>2020-07-07T12:06:15.000Z</time>
      </trkpt>
      <trkpt lat="44.38118" lon="6.3941">
        <ele>1964</ele>
        <time>2020-07-07T12:06:16.000Z</time>
      </trkpt>
      <trkpt lat="44.38118" lon="6.39409">
        <ele>1963</ele>
        <time>2020-07-07T12:06:17.000Z</time>
      </trkpt>
      <trkpt lat="44.38119" lon="6.39409">
        <ele>1963</ele>
        <time>2020-07-07T12:06:18.000Z</time>
      </trkpt>
      <trkpt lat="44.3812" lon="6.39408">
        <ele>1963</ele>
        <time>2020-07-07T12:06:19.000Z</time>
      </trkpt>
      <trkpt lat="44.3812" lon="6.39407">
        <ele>1963</ele>
        <time>2020-07-07T12:06:20.000Z</time>
      </trkpt>
      <trkpt lat="44.38121" lon="6.39406">
        <ele>1963</ele>
        <time>2020-07-07T12:06:21.000Z</time>
      </trkpt>
      <trkpt lat="44.38122" lon="6.39405">
        <ele>1963</ele>
        <time>2020-07-07T12:06:22.000Z</time>
      </trkpt>
      <trkpt lat="44.38123" lon="6.39404">
        <ele>1963</ele>
        <time>2020-07-07T12:06:23.000Z</time>
      </trkpt>
      <trkpt lat="44.38124" lon="6.39403">
        <ele>1963</ele>
        <time>2020-07-07T12:06:24.000Z</time>
      </trkpt>
      <trkpt lat="44.38125" lon="6.39401">
        <ele>1963</ele>
        <time>2020-07-07T12:06:25.000Z</time>
      </trkpt>
      <trkpt lat="44.38126" lon="6.394">
        <ele>1962</ele>
        <time>2020-07-07T12:06:26.000Z</time>
      </trkpt>
      <trkpt lat="44.38127" lon="6.39398">
        <ele>1962</ele>
        <time>2020-07-07T12:06:27.000Z</time>
      </trkpt>
      <trkpt lat="44.38127" lon="6.39397">
        <ele>1962</ele>
        <time>2020-07-07T12:06:28.000Z</time>
      </trkpt>
      <trkpt lat="44.38128" lon="6.39396">
        <ele>1962</ele>
        <time>2020-07-07T12:06:29.000Z</time>
      </trkpt>
      <trkpt lat="44.38129" lon="6.39394">
        <ele>1962</ele>
        <time>2020-07-07T12:06:30.000Z</time>
      </trkpt>
      <trkpt lat="44.3813" lon="6.39392">
        <ele>1962</ele>
        <time>2020-07-07T12:06:31.000Z</time>
      </trkpt>
      <trkpt lat="44.38131" lon="6.3939">
        <ele>1962</ele>
        <time>2020-07-07T12:06:32.000Z</time>
      </trkpt>
      <trkpt lat="44.38132" lon="6.39389">
        <ele>1962</ele>
        <time>2020-07-07T12:06:33.000Z</time>
      </trkpt>
      <trkpt lat="44.38133" lon="6.39388">
        <ele>1962</ele>
        <time>2020-07-07T12:06:34.000Z</time>
      </trkpt>
      <trkpt lat="44.38133" lon="6.39388">
        <ele>1962</ele>
        <time>2020-07-07T12:06:35.000Z</time>
      </trkpt>
      <trkpt lat="44.38134" lon="6.39387">
        <ele>1961</ele>
        <time>2020-07-07T12:06:36.000Z</time>
      </trkpt>
      <trkpt lat="44.38135" lon="6.39386">
        <ele>1961</ele>
        <time>2020-07-07T12:06:37.000Z</time>
      </trkpt>
      <trkpt lat="44.38136" lon="6.39384">
        <ele>1961</ele>
        <time>2020-07-07T12:06:38.000Z</time>
      </trkpt>
      <trkpt lat="44.38136" lon="6.39382">
        <ele>1961</ele>
        <time>2020-07-07T12:06:39.000Z</time>
      </trkpt>
      <trkpt lat="44.38136" lon="6.39381">
        <ele>1961</ele>
        <time>2020-07-07T12:06:40.000Z</time>
      </trkpt>
      <trkpt lat="44.38136" lon="6.39381">
        <ele>1961</ele>
        <time>2020-07-07T12:06:41.000Z</time>
      </trkpt>
      <trkpt lat="44.38137" lon="6.3938">
        <ele>1961</ele>
        <time>2020-07-07T12:06:42.000Z</time>
      </trkpt>
      <trkpt lat="44.38137" lon="6.39379">
        <ele>1961</ele>
        <time>2020-07-07T12:06:43.000Z</time>
      </trkpt>
      <trkpt lat="44.38138" lon="6.39378">
        <ele>1961</ele>
        <time>2020-07-07T12:06:44.000Z</time>
      </trkpt>
      <trkpt lat="44.38139" lon="6.39377">
        <ele>1961</ele>
        <time>2020-07-07T12:06:45.000Z</time>
      </trkpt>
      <trkpt lat="44.3814" lon="6.39376">
        <ele>1961</ele>
        <time>2020-07-07T12:06:46.000Z</time>
      </trkpt>
      <trkpt lat="44.38141" lon="6.39375">
        <ele>1961</ele>
        <time>2020-07-07T12:06:47.000Z</time>
      </trkpt>
      <trkpt lat="44.38141" lon="6.39374">
        <ele>1961</ele>
        <time>2020-07-07T12:06:48.000Z</time>
      </trkpt>
      <trkpt lat="44.38142" lon="6.39373">
        <ele>1961</ele>
        <time>2020-07-07T12:06:49.000Z</time>
      </trkpt>
      <trkpt lat="44.38143" lon="6.39372">
        <ele>1961</ele>
        <time>2020-07-07T12:06:50.000Z</time>
      </trkpt>
      <trkpt lat="44.38144" lon="6.39371">
        <ele>1961</ele>
        <time>2020-07-07T12:06:51.000Z</time>
      </trkpt>
      <trkpt lat="44.38144" lon="6.3937">
        <ele>1961</ele>
        <time>2020-07-07T12:06:52.000Z</time>
      </trkpt>
      <trkpt lat="44.38145" lon="6.39369">
        <ele>1961</ele>
        <time>2020-07-07T12:06:53.000Z</time>
      </trkpt>
      <trkpt lat="44.38146" lon="6.39368">
        <ele>1961</ele>
        <time>2020-07-07T12:06:54.000Z</time>
      </trkpt>
      <trkpt lat="44.38147" lon="6.39367">
        <ele>1961</ele>
        <time>2020-07-07T12:06:55.000Z</time>
      </trkpt>
      <trkpt lat="44.38148" lon="6.39365">
        <ele>1961</ele>
        <time>2020-07-07T12:06:56.000Z</time>
      </trkpt>
      <trkpt lat="44.38149" lon="6.39364">
        <ele>1961</ele>
        <time>2020-07-07T12:06:57.000Z</time>
      </trkpt>
      <trkpt lat="44.3815" lon="6.39362">
        <ele>1961</ele>
        <time>2020-07-07T12:06:58.000Z</time>
      </trkpt>
      <trkpt lat="44.38151" lon="6.39361">
        <ele>1961</ele>
        <time>2020-07-07T12:06:59.000Z</time>
      </trkpt>
      <trkpt lat="44.38152" lon="6.3936">
        <ele>1960</ele>
        <time>2020-07-07T12:07:00.000Z</time>
      </trkpt>
      <trkpt lat="44.38153" lon="6.39359">
        <ele>1960</ele>
        <time>2020-07-07T12:07:01.000Z</time>
      </trkpt>
      <trkpt lat="44.38154" lon="6.39357">
        <ele>1960</ele>
        <time>2020-07-07T12:07:02.000Z</time>
      </trkpt>
      <trkpt lat="44.38155" lon="6.39356">
        <ele>1960</ele>
        <time>2020-07-07T12:07:03.000Z</time>
      </trkpt>
      <trkpt lat="44.38156" lon="6.39354">
        <ele>1960</ele>
        <time>2020-07-07T12:07:04.000Z</time>
      </trkpt>
      <trkpt lat="44.38157" lon="6.39353">
        <ele>1960</ele>
        <time>2020-07-07T12:07:05.000Z</time>
      </trkpt>
      <trkpt lat="44.38159" lon="6.39352">
        <ele>1960</ele>
        <time>2020-07-07T12:07:06.000Z</time>
      </trkpt>
      <trkpt lat="44.3816" lon="6.39351">
        <ele>1959</ele>
        <time>2020-07-07T12:07:07.000Z</time>
      </trkpt>
      <trkpt lat="44.38161" lon="6.3935">
        <ele>1959</ele>
        <time>2020-07-07T12:07:08.000Z</time>
      </trkpt>
      <trkpt lat="44.38162" lon="6.39348">
        <ele>1959</ele>
        <time>2020-07-07T12:07:09.000Z</time>
      </trkpt>
      <trkpt lat="44.38163" lon="6.39347">
        <ele>1959</ele>
        <time>2020-07-07T12:07:10.000Z</time>
      </trkpt>
      <trkpt lat="44.38163" lon="6.39346">
        <ele>1959</ele>
        <time>2020-07-07T12:07:11.000Z</time>
      </trkpt>
      <trkpt lat="44.38164" lon="6.39345">
        <ele>1959</ele>
        <time>2020-07-07T12:07:12.000Z</time>
      </trkpt>
      <trkpt lat="44.38165" lon="6.39344">
        <ele>1959</ele>
        <time>2020-07-07T12:07:13.000Z</time>
      </trkpt>
      <trkpt lat="44.38166" lon="6.39343">
        <ele>1959</ele>
        <time>2020-07-07T12:07:14.000Z</time>
      </trkpt>
      <trkpt lat="44.38167" lon="6.39342">
        <ele>1959</ele>
        <time>2020-07-07T12:07:15.000Z</time>
      </trkpt>
      <trkpt lat="44.38168" lon="6.39341">
        <ele>1959</ele>
        <time>2020-07-07T12:07:16.000Z</time>
      </trkpt>
      <trkpt lat="44.38169" lon="6.39341">
        <ele>1959</ele>
        <time>2020-07-07T12:07:17.000Z</time>
      </trkpt>
      <trkpt lat="44.3817" lon="6.3934">
        <ele>1958</ele>
        <time>2020-07-07T12:07:18.000Z</time>
      </trkpt>
      <trkpt lat="44.3817" lon="6.39339">
        <ele>1958</ele>
        <time>2020-07-07T12:07:19.000Z</time>
      </trkpt>
      <trkpt lat="44.38171" lon="6.39338">
        <ele>1958</ele>
        <time>2020-07-07T12:07:20.000Z</time>
      </trkpt>
      <trkpt lat="44.38172" lon="6.39337">
        <ele>1959</ele>
        <time>2020-07-07T12:07:21.000Z</time>
      </trkpt>
      <trkpt lat="44.38172" lon="6.39336">
        <ele>1959</ele>
        <time>2020-07-07T12:07:22.000Z</time>
      </trkpt>
      <trkpt lat="44.38173" lon="6.39336">
        <ele>1959</ele>
        <time>2020-07-07T12:07:23.000Z</time>
      </trkpt>
      <trkpt lat="44.38173" lon="6.39335">
        <ele>1959</ele>
        <time>2020-07-07T12:07:24.000Z</time>
      </trkpt>
      <trkpt lat="44.38173" lon="6.39334">
        <ele>1959</ele>
        <time>2020-07-07T12:07:25.000Z</time>
      </trkpt>
      <trkpt lat="44.38174" lon="6.39333">
        <ele>1959</ele>
        <time>2020-07-07T12:07:26.000Z</time>
      </trkpt>
      <trkpt lat="44.38174" lon="6.39333">
        <ele>1959</ele>
        <time>2020-07-07T12:07:27.000Z</time>
      </trkpt>
      <trkpt lat="44.38174" lon="6.39332">
        <ele>1959</ele>
        <time>2020-07-07T12:07:28.000Z</time>
      </trkpt>
      <trkpt lat="44.38175" lon="6.3933">
        <ele>1959</ele>
        <time>2020-07-07T12:07:29.000Z</time>
      </trkpt>
      <trkpt lat="44.38176" lon="6.39329">
        <ele>1959</ele>
        <time>2020-07-07T12:07:30.000Z</time>
      </trkpt>
      <trkpt lat="44.38177" lon="6.39327">
        <ele>1959</ele>
        <time>2020-07-07T12:07:31.000Z</time>
      </trkpt>
      <trkpt lat="44.38178" lon="6.39326">
        <ele>1959</ele>
        <time>2020-07-07T12:07:32.000Z</time>
      </trkpt>
      <trkpt lat="44.38179" lon="6.39324">
        <ele>1959</ele>
        <time>2020-07-07T12:07:33.000Z</time>
      </trkpt>
      <trkpt lat="44.3818" lon="6.39323">
        <ele>1959</ele>
        <time>2020-07-07T12:07:34.000Z</time>
      </trkpt>
      <trkpt lat="44.38181" lon="6.39322">
        <ele>1959</ele>
        <time>2020-07-07T12:07:35.000Z</time>
      </trkpt>
      <trkpt lat="44.38181" lon="6.39321">
        <ele>1959</ele>
        <time>2020-07-07T12:07:36.000Z</time>
      </trkpt>
      <trkpt lat="44.38182" lon="6.3932">
        <ele>1959</ele>
        <time>2020-07-07T12:07:37.000Z</time>
      </trkpt>
      <trkpt lat="44.38182" lon="6.39319">
        <ele>1959</ele>
        <time>2020-07-07T12:07:38.000Z</time>
      </trkpt>
      <trkpt lat="44.38182" lon="6.39317">
        <ele>1959</ele>
        <time>2020-07-07T12:07:39.000Z</time>
      </trkpt>
      <trkpt lat="44.38183" lon="6.39315">
        <ele>1959</ele>
        <time>2020-07-07T12:07:40.000Z</time>
      </trkpt>
      <trkpt lat="44.38183" lon="6.39314">
        <ele>1959</ele>
        <time>2020-07-07T12:07:41.000Z</time>
      </trkpt>
      <trkpt lat="44.38184" lon="6.39312">
        <ele>1959</ele>
        <time>2020-07-07T12:07:42.000Z</time>
      </trkpt>
      <trkpt lat="44.38185" lon="6.3931">
        <ele>1959</ele>
        <time>2020-07-07T12:07:43.000Z</time>
      </trkpt>
      <trkpt lat="44.38185" lon="6.39308">
        <ele>1959</ele>
        <time>2020-07-07T12:07:44.000Z</time>
      </trkpt>
      <trkpt lat="44.38186" lon="6.39307">
        <ele>1959</ele>
        <time>2020-07-07T12:07:45.000Z</time>
      </trkpt>
      <trkpt lat="44.38187" lon="6.39305">
        <ele>1959</ele>
        <time>2020-07-07T12:07:46.000Z</time>
      </trkpt>
      <trkpt lat="44.38187" lon="6.39304">
        <ele>1959</ele>
        <time>2020-07-07T12:07:47.000Z</time>
      </trkpt>
      <trkpt lat="44.38188" lon="6.39302">
        <ele>1959</ele>
        <time>2020-07-07T12:07:48.000Z</time>
      </trkpt>
      <trkpt lat="44.38188" lon="6.39301">
        <ele>1959</ele>
        <time>2020-07-07T12:07:49.000Z</time>
      </trkpt>
      <trkpt lat="44.38189" lon="6.39299">
        <ele>1959</ele>
        <time>2020-07-07T12:07:50.000Z</time>
      </trkpt>
      <trkpt lat="44.3819" lon="6.39298">
        <ele>1959</ele>
        <time>2020-07-07T12:07:51.000Z</time>
      </trkpt>
      <trkpt lat="44.38191" lon="6.39297">
        <ele>1959</ele>
        <time>2020-07-07T12:07:52.000Z</time>
      </trkpt>
      <trkpt lat="44.38191" lon="6.39295">
        <ele>1959</ele>
        <time>2020-07-07T12:07:53.000Z</time>
      </trkpt>
      <trkpt lat="44.38192" lon="6.39294">
        <ele>1959</ele>
        <time>2020-07-07T12:07:54.000Z</time>
      </trkpt>
      <trkpt lat="44.38193" lon="6.39292">
        <ele>1959</ele>
        <time>2020-07-07T12:07:55.000Z</time>
      </trkpt>
      <trkpt lat="44.38194" lon="6.39291">
        <ele>1959</ele>
        <time>2020-07-07T12:07:56.000Z</time>
      </trkpt>
      <trkpt lat="44.38194" lon="6.39289">
        <ele>1959</ele>
        <time>2020-07-07T12:07:57.000Z</time>
      </trkpt>
      <trkpt lat="44.38195" lon="6.39288">
        <ele>1959</ele>
        <time>2020-07-07T12:07:58.000Z</time>
      </trkpt>
      <trkpt lat="44.38195" lon="6.39287">
        <ele>1959</ele>
        <time>2020-07-07T12:07:59.000Z</time>
      </trkpt>
      <trkpt lat="44.38197" lon="6.39286">
        <ele>1959</ele>
        <time>2020-07-07T12:08:00.000Z</time>
      </trkpt>
      <trkpt lat="44.38198" lon="6.39284">
        <ele>1958</ele>
        <time>2020-07-07T12:08:01.000Z</time>
      </trkpt>
      <trkpt lat="44.38199" lon="6.39283">
        <ele>1958</ele>
        <time>2020-07-07T12:08:02.000Z</time>
      </trkpt>
      <trkpt lat="44.382" lon="6.39283">
        <ele>1958</ele>
        <time>2020-07-07T12:08:03.000Z</time>
      </trkpt>
      <trkpt lat="44.382" lon="6.39282">
        <ele>1958</ele>
        <time>2020-07-07T12:08:04.000Z</time>
      </trkpt>
      <trkpt lat="44.38201" lon="6.39282">
        <ele>1958</ele>
        <time>2020-07-07T12:08:05.000Z</time>
      </trkpt>
      <trkpt lat="44.38202" lon="6.39281">
        <ele>1958</ele>
        <time>2020-07-07T12:08:06.000Z</time>
      </trkpt>
      <trkpt lat="44.38202" lon="6.3928">
        <ele>1958</ele>
        <time>2020-07-07T12:08:07.000Z</time>
      </trkpt>
      <trkpt lat="44.38203" lon="6.39279">
        <ele>1958</ele>
        <time>2020-07-07T12:08:08.000Z</time>
      </trkpt>
      <trkpt lat="44.38204" lon="6.39278">
        <ele>1958</ele>
        <time>2020-07-07T12:08:09.000Z</time>
      </trkpt>
      <trkpt lat="44.38204" lon="6.39277">
        <ele>1958</ele>
        <time>2020-07-07T12:08:10.000Z</time>
      </trkpt>
      <trkpt lat="44.38205" lon="6.39275">
        <ele>1958</ele>
        <time>2020-07-07T12:08:11.000Z</time>
      </trkpt>
      <trkpt lat="44.38206" lon="6.39274">
        <ele>1958</ele>
        <time>2020-07-07T12:08:12.000Z</time>
      </trkpt>
      <trkpt lat="44.38207" lon="6.39273">
        <ele>1958</ele>
        <time>2020-07-07T12:08:13.000Z</time>
      </trkpt>
      <trkpt lat="44.38208" lon="6.39272">
        <ele>1958</ele>
        <time>2020-07-07T12:08:14.000Z</time>
      </trkpt>
      <trkpt lat="44.38209" lon="6.39271">
        <ele>1958</ele>
        <time>2020-07-07T12:08:15.000Z</time>
      </trkpt>
      <trkpt lat="44.3821" lon="6.3927">
        <ele>1958</ele>
        <time>2020-07-07T12:08:16.000Z</time>
      </trkpt>
      <trkpt lat="44.3821" lon="6.39269">
        <ele>1958</ele>
        <time>2020-07-07T12:08:17.000Z</time>
      </trkpt>
      <trkpt lat="44.38211" lon="6.39267">
        <ele>1958</ele>
        <time>2020-07-07T12:08:18.000Z</time>
      </trkpt>
      <trkpt lat="44.38212" lon="6.39266">
        <ele>1958</ele>
        <time>2020-07-07T12:08:19.000Z</time>
      </trkpt>
      <trkpt lat="44.38213" lon="6.39265">
        <ele>1958</ele>
        <time>2020-07-07T12:08:20.000Z</time>
      </trkpt>
      <trkpt lat="44.38213" lon="6.39264">
        <ele>1958</ele>
        <time>2020-07-07T12:08:21.000Z</time>
      </trkpt>
      <trkpt lat="44.38214" lon="6.39263">
        <ele>1958</ele>
        <time>2020-07-07T12:08:22.000Z</time>
      </trkpt>
      <trkpt lat="44.38214" lon="6.39262">
        <ele>1958</ele>
        <time>2020-07-07T12:08:23.000Z</time>
      </trkpt>
      <trkpt lat="44.38215" lon="6.39262">
        <ele>1958</ele>
        <time>2020-07-07T12:08:24.000Z</time>
      </trkpt>
      <trkpt lat="44.38215" lon="6.39261">
        <ele>1958</ele>
        <time>2020-07-07T12:08:25.000Z</time>
      </trkpt>
      <trkpt lat="44.38216" lon="6.39261">
        <ele>1958</ele>
        <time>2020-07-07T12:08:26.000Z</time>
      </trkpt>
      <trkpt lat="44.38217" lon="6.39261">
        <ele>1958</ele>
        <time>2020-07-07T12:08:27.000Z</time>
      </trkpt>
      <trkpt lat="44.38217" lon="6.3926">
        <ele>1959</ele>
        <time>2020-07-07T12:08:28.000Z</time>
      </trkpt>
      <trkpt lat="44.38219" lon="6.39258">
        <ele>1959</ele>
        <time>2020-07-07T12:08:29.000Z</time>
      </trkpt>
      <trkpt lat="44.3822" lon="6.39257">
        <ele>1959</ele>
        <time>2020-07-07T12:08:30.000Z</time>
      </trkpt>
      <trkpt lat="44.38221" lon="6.39256">
        <ele>1959</ele>
        <time>2020-07-07T12:08:31.000Z</time>
      </trkpt>
      <trkpt lat="44.38221" lon="6.39256">
        <ele>1958</ele>
        <time>2020-07-07T12:08:32.000Z</time>
      </trkpt>
      <trkpt lat="44.38222" lon="6.39255">
        <ele>1958</ele>
        <time>2020-07-07T12:08:33.000Z</time>
      </trkpt>
      <trkpt lat="44.38222" lon="6.39254">
        <ele>1958</ele>
        <time>2020-07-07T12:08:34.000Z</time>
      </trkpt>
      <trkpt lat="44.38223" lon="6.39254">
        <ele>1958</ele>
        <time>2020-07-07T12:08:35.000Z</time>
      </trkpt>
      <trkpt lat="44.38224" lon="6.39253">
        <ele>1958</ele>
        <time>2020-07-07T12:08:36.000Z</time>
      </trkpt>
      <trkpt lat="44.38225" lon="6.39252">
        <ele>1958</ele>
        <time>2020-07-07T12:08:37.000Z</time>
      </trkpt>
      <trkpt lat="44.38225" lon="6.39252">
        <ele>1958</ele>
        <time>2020-07-07T12:08:38.000Z</time>
      </trkpt>
      <trkpt lat="44.38226" lon="6.39251">
        <ele>1958</ele>
        <time>2020-07-07T12:08:39.000Z</time>
      </trkpt>
      <trkpt lat="44.38227" lon="6.39251">
        <ele>1958</ele>
        <time>2020-07-07T12:08:40.000Z</time>
      </trkpt>
      <trkpt lat="44.38228" lon="6.3925">
        <ele>1957</ele>
        <time>2020-07-07T12:08:41.000Z</time>
      </trkpt>
      <trkpt lat="44.38229" lon="6.39249">
        <ele>1957</ele>
        <time>2020-07-07T12:08:42.000Z</time>
      </trkpt>
      <trkpt lat="44.3823" lon="6.39248">
        <ele>1957</ele>
        <time>2020-07-07T12:08:43.000Z</time>
      </trkpt>
      <trkpt lat="44.38231" lon="6.39247">
        <ele>1957</ele>
        <time>2020-07-07T12:08:44.000Z</time>
      </trkpt>
      <trkpt lat="44.38232" lon="6.39246">
        <ele>1957</ele>
        <time>2020-07-07T12:08:45.000Z</time>
      </trkpt>
      <trkpt lat="44.38233" lon="6.39246">
        <ele>1957</ele>
        <time>2020-07-07T12:08:46.000Z</time>
      </trkpt>
      <trkpt lat="44.38234" lon="6.39245">
        <ele>1957</ele>
        <time>2020-07-07T12:08:47.000Z</time>
      </trkpt>
      <trkpt lat="44.38235" lon="6.39244">
        <ele>1957</ele>
        <time>2020-07-07T12:08:48.000Z</time>
      </trkpt>
      <trkpt lat="44.38236" lon="6.39244">
        <ele>1957</ele>
        <time>2020-07-07T12:08:49.000Z</time>
      </trkpt>
      <trkpt lat="44.38237" lon="6.39243">
        <ele>1957</ele>
        <time>2020-07-07T12:08:50.000Z</time>
      </trkpt>
      <trkpt lat="44.38238" lon="6.39243">
        <ele>1956</ele>
        <time>2020-07-07T12:08:51.000Z</time>
      </trkpt>
      <trkpt lat="44.38239" lon="6.39242">
        <ele>1956</ele>
        <time>2020-07-07T12:08:52.000Z</time>
      </trkpt>
      <trkpt lat="44.3824" lon="6.39242">
        <ele>1956</ele>
        <time>2020-07-07T12:08:53.000Z</time>
      </trkpt>
      <trkpt lat="44.38241" lon="6.39241">
        <ele>1956</ele>
        <time>2020-07-07T12:08:54.000Z</time>
      </trkpt>
      <trkpt lat="44.38243" lon="6.3924">
        <ele>1955</ele>
        <time>2020-07-07T12:08:55.000Z</time>
      </trkpt>
      <trkpt lat="44.38245" lon="6.39239">
        <ele>1955</ele>
        <time>2020-07-07T12:08:56.000Z</time>
      </trkpt>
      <trkpt lat="44.38246" lon="6.39239">
        <ele>1955</ele>
        <time>2020-07-07T12:08:57.000Z</time>
      </trkpt>
      <trkpt lat="44.38248" lon="6.39238">
        <ele>1955</ele>
        <time>2020-07-07T12:08:58.000Z</time>
      </trkpt>
      <trkpt lat="44.38249" lon="6.39238">
        <ele>1955</ele>
        <time>2020-07-07T12:08:59.000Z</time>
      </trkpt>
      <trkpt lat="44.3825" lon="6.39237">
        <ele>1955</ele>
        <time>2020-07-07T12:09:00.000Z</time>
      </trkpt>
      <trkpt lat="44.38252" lon="6.39237">
        <ele>1955</ele>
        <time>2020-07-07T12:09:01.000Z</time>
      </trkpt>
      <trkpt lat="44.38253" lon="6.39236">
        <ele>1954</ele>
        <time>2020-07-07T12:09:02.000Z</time>
      </trkpt>
      <trkpt lat="44.38254" lon="6.39236">
        <ele>1954</ele>
        <time>2020-07-07T12:09:03.000Z</time>
      </trkpt>
      <trkpt lat="44.38255" lon="6.39235">
        <ele>1954</ele>
        <time>2020-07-07T12:09:04.000Z</time>
      </trkpt>
      <trkpt lat="44.38256" lon="6.39235">
        <ele>1954</ele>
        <time>2020-07-07T12:09:05.000Z</time>
      </trkpt>
      <trkpt lat="44.38257" lon="6.39234">
        <ele>1954</ele>
        <time>2020-07-07T12:09:06.000Z</time>
      </trkpt>
      <trkpt lat="44.38258" lon="6.39234">
        <ele>1954</ele>
        <time>2020-07-07T12:09:07.000Z</time>
      </trkpt>
      <trkpt lat="44.38258" lon="6.39233">
        <ele>1954</ele>
        <time>2020-07-07T12:09:08.000Z</time>
      </trkpt>
      <trkpt lat="44.38259" lon="6.39233">
        <ele>1954</ele>
        <time>2020-07-07T12:09:09.000Z</time>
      </trkpt>
      <trkpt lat="44.3826" lon="6.39233">
        <ele>1954</ele>
        <time>2020-07-07T12:09:10.000Z</time>
      </trkpt>
      <trkpt lat="44.38261" lon="6.39232">
        <ele>1954</ele>
        <time>2020-07-07T12:09:11.000Z</time>
      </trkpt>
      <trkpt lat="44.38262" lon="6.39232">
        <ele>1953</ele>
        <time>2020-07-07T12:09:12.000Z</time>
      </trkpt>
      <trkpt lat="44.38263" lon="6.39231">
        <ele>1953</ele>
        <time>2020-07-07T12:09:13.000Z</time>
      </trkpt>
      <trkpt lat="44.38264" lon="6.39231">
        <ele>1953</ele>
        <time>2020-07-07T12:09:14.000Z</time>
      </trkpt>
      <trkpt lat="44.38265" lon="6.3923">
        <ele>1953</ele>
        <time>2020-07-07T12:09:15.000Z</time>
      </trkpt>
      <trkpt lat="44.38266" lon="6.3923">
        <ele>1953</ele>
        <time>2020-07-07T12:09:16.000Z</time>
      </trkpt>
      <trkpt lat="44.38267" lon="6.39229">
        <ele>1953</ele>
        <time>2020-07-07T12:09:17.000Z</time>
      </trkpt>
      <trkpt lat="44.38268" lon="6.39229">
        <ele>1953</ele>
        <time>2020-07-07T12:09:18.000Z</time>
      </trkpt>
      <trkpt lat="44.38269" lon="6.39228">
        <ele>1953</ele>
        <time>2020-07-07T12:09:19.000Z</time>
      </trkpt>
      <trkpt lat="44.38269" lon="6.39227">
        <ele>1953</ele>
        <time>2020-07-07T12:09:20.000Z</time>
      </trkpt>
      <trkpt lat="44.3827" lon="6.39227">
        <ele>1953</ele>
        <time>2020-07-07T12:09:21.000Z</time>
      </trkpt>
      <trkpt lat="44.38271" lon="6.39227">
        <ele>1953</ele>
        <time>2020-07-07T12:09:22.000Z</time>
      </trkpt>
      <trkpt lat="44.38272" lon="6.39226">
        <ele>1953</ele>
        <time>2020-07-07T12:09:23.000Z</time>
      </trkpt>
      <trkpt lat="44.38274" lon="6.39226">
        <ele>1952</ele>
        <time>2020-07-07T12:09:24.000Z</time>
      </trkpt>
      <trkpt lat="44.38275" lon="6.39225">
        <ele>1952</ele>
        <time>2020-07-07T12:09:25.000Z</time>
      </trkpt>
      <trkpt lat="44.38275" lon="6.39225">
        <ele>1952</ele>
        <time>2020-07-07T12:09:26.000Z</time>
      </trkpt>
      <trkpt lat="44.38276" lon="6.39225">
        <ele>1951</ele>
        <time>2020-07-07T12:09:27.000Z</time>
      </trkpt>
      <trkpt lat="44.38277" lon="6.39223">
        <ele>1951</ele>
        <time>2020-07-07T12:09:28.000Z</time>
      </trkpt>
      <trkpt lat="44.38278" lon="6.39222">
        <ele>1951</ele>
        <time>2020-07-07T12:09:29.000Z</time>
      </trkpt>
      <trkpt lat="44.3828" lon="6.3922">
        <ele>1951</ele>
        <time>2020-07-07T12:09:30.000Z</time>
      </trkpt>
      <trkpt lat="44.38281" lon="6.39219">
        <ele>1951</ele>
        <time>2020-07-07T12:09:31.000Z</time>
      </trkpt>
      <trkpt lat="44.38282" lon="6.39218">
        <ele>1951</ele>
        <time>2020-07-07T12:09:32.000Z</time>
      </trkpt>
      <trkpt lat="44.38283" lon="6.39217">
        <ele>1951</ele>
        <time>2020-07-07T12:09:33.000Z</time>
      </trkpt>
      <trkpt lat="44.38284" lon="6.39217">
        <ele>1951</ele>
        <time>2020-07-07T12:09:34.000Z</time>
      </trkpt>
      <trkpt lat="44.38286" lon="6.39216">
        <ele>1951</ele>
        <time>2020-07-07T12:09:35.000Z</time>
      </trkpt>
      <trkpt lat="44.38287" lon="6.39216">
        <ele>1951</ele>
        <time>2020-07-07T12:09:36.000Z</time>
      </trkpt>
      <trkpt lat="44.38288" lon="6.39216">
        <ele>1951</ele>
        <time>2020-07-07T12:09:37.000Z</time>
      </trkpt>
      <trkpt lat="44.38289" lon="6.39216">
        <ele>1951</ele>
        <time>2020-07-07T12:09:38.000Z</time>
      </trkpt>
      <trkpt lat="44.3829" lon="6.39215">
        <ele>1951</ele>
        <time>2020-07-07T12:09:39.000Z</time>
      </trkpt>
      <trkpt lat="44.38292" lon="6.39214">
        <ele>1951</ele>
        <time>2020-07-07T12:09:40.000Z</time>
      </trkpt>
      <trkpt lat="44.38293" lon="6.39213">
        <ele>1951</ele>
        <time>2020-07-07T12:09:41.000Z</time>
      </trkpt>
      <trkpt lat="44.38295" lon="6.39212">
        <ele>1950</ele>
        <time>2020-07-07T12:09:42.000Z</time>
      </trkpt>
      <trkpt lat="44.38295" lon="6.39212">
        <ele>1950</ele>
        <time>2020-07-07T12:09:43.000Z</time>
      </trkpt>
      <trkpt lat="44.38296" lon="6.39212">
        <ele>1950</ele>
        <time>2020-07-07T12:09:44.000Z</time>
      </trkpt>
      <trkpt lat="44.38297" lon="6.39212">
        <ele>1950</ele>
        <time>2020-07-07T12:09:45.000Z</time>
      </trkpt>
      <trkpt lat="44.38298" lon="6.39211">
        <ele>1950</ele>
        <time>2020-07-07T12:09:46.000Z</time>
      </trkpt>
      <trkpt lat="44.38299" lon="6.39211">
        <ele>1950</ele>
        <time>2020-07-07T12:09:47.000Z</time>
      </trkpt>
      <trkpt lat="44.383" lon="6.39211">
        <ele>1950</ele>
        <time>2020-07-07T12:09:48.000Z</time>
      </trkpt>
      <trkpt lat="44.38301" lon="6.3921">
        <ele>1950</ele>
        <time>2020-07-07T12:09:49.000Z</time>
      </trkpt>
      <trkpt lat="44.38303" lon="6.3921">
        <ele>1949</ele>
        <time>2020-07-07T12:09:50.000Z</time>
      </trkpt>
      <trkpt lat="44.38304" lon="6.39209">
        <ele>1949</ele>
        <time>2020-07-07T12:09:51.000Z</time>
      </trkpt>
      <trkpt lat="44.38305" lon="6.39209">
        <ele>1949</ele>
        <time>2020-07-07T12:09:52.000Z</time>
      </trkpt>
      <trkpt lat="44.38306" lon="6.39208">
        <ele>1949</ele>
        <time>2020-07-07T12:09:53.000Z</time>
      </trkpt>
      <trkpt lat="44.38307" lon="6.39209">
        <ele>1949</ele>
        <time>2020-07-07T12:09:54.000Z</time>
      </trkpt>
      <trkpt lat="44.38308" lon="6.39209">
        <ele>1948</ele>
        <time>2020-07-07T12:09:55.000Z</time>
      </trkpt>
      <trkpt lat="44.38309" lon="6.39209">
        <ele>1948</ele>
        <time>2020-07-07T12:09:56.000Z</time>
      </trkpt>
      <trkpt lat="44.38311" lon="6.39208">
        <ele>1948</ele>
        <time>2020-07-07T12:09:57.000Z</time>
      </trkpt>
      <trkpt lat="44.38312" lon="6.39208">
        <ele>1948</ele>
        <time>2020-07-07T12:09:58.000Z</time>
      </trkpt>
      <trkpt lat="44.38313" lon="6.39208">
        <ele>1948</ele>
        <time>2020-07-07T12:09:59.000Z</time>
      </trkpt>
      <trkpt lat="44.38314" lon="6.39208">
        <ele>1948</ele>
        <time>2020-07-07T12:10:00.000Z</time>
      </trkpt>
      <trkpt lat="44.38315" lon="6.39208">
        <ele>1948</ele>
        <time>2020-07-07T12:10:01.000Z</time>
      </trkpt>
      <trkpt lat="44.38316" lon="6.39208">
        <ele>1948</ele>
        <time>2020-07-07T12:10:02.000Z</time>
      </trkpt>
      <trkpt lat="44.38317" lon="6.39208">
        <ele>1948</ele>
        <time>2020-07-07T12:10:03.000Z</time>
      </trkpt>
      <trkpt lat="44.38318" lon="6.39208">
        <ele>1947</ele>
        <time>2020-07-07T12:10:04.000Z</time>
      </trkpt>
      <trkpt lat="44.3832" lon="6.39208">
        <ele>1947</ele>
        <time>2020-07-07T12:10:05.000Z</time>
      </trkpt>
      <trkpt lat="44.38321" lon="6.39208">
        <ele>1947</ele>
        <time>2020-07-07T12:10:06.000Z</time>
      </trkpt>
      <trkpt lat="44.38322" lon="6.39208">
        <ele>1947</ele>
        <time>2020-07-07T12:10:07.000Z</time>
      </trkpt>
      <trkpt lat="44.38324" lon="6.39208">
        <ele>1947</ele>
        <time>2020-07-07T12:10:08.000Z</time>
      </trkpt>
      <trkpt lat="44.38325" lon="6.39208">
        <ele>1947</ele>
        <time>2020-07-07T12:10:09.000Z</time>
      </trkpt>
      <trkpt lat="44.38327" lon="6.39208">
        <ele>1947</ele>
        <time>2020-07-07T12:10:10.000Z</time>
      </trkpt>
      <trkpt lat="44.38328" lon="6.39208">
        <ele>1947</ele>
        <time>2020-07-07T12:10:11.000Z</time>
      </trkpt>
      <trkpt lat="44.3833" lon="6.39209">
        <ele>1947</ele>
        <time>2020-07-07T12:10:12.000Z</time>
      </trkpt>
      <trkpt lat="44.38331" lon="6.39209">
        <ele>1947</ele>
        <time>2020-07-07T12:10:13.000Z</time>
      </trkpt>
      <trkpt lat="44.38333" lon="6.39209">
        <ele>1947</ele>
        <time>2020-07-07T12:10:14.000Z</time>
      </trkpt>
      <trkpt lat="44.38334" lon="6.39209">
        <ele>1946</ele>
        <time>2020-07-07T12:10:15.000Z</time>
      </trkpt>
      <trkpt lat="44.38336" lon="6.39209">
        <ele>1946</ele>
        <time>2020-07-07T12:10:16.000Z</time>
      </trkpt>
      <trkpt lat="44.38337" lon="6.39209">
        <ele>1946</ele>
        <time>2020-07-07T12:10:17.000Z</time>
      </trkpt>
      <trkpt lat="44.38338" lon="6.39209">
        <ele>1946</ele>
        <time>2020-07-07T12:10:18.000Z</time>
      </trkpt>
      <trkpt lat="44.38339" lon="6.39209">
        <ele>1946</ele>
        <time>2020-07-07T12:10:19.000Z</time>
      </trkpt>
      <trkpt lat="44.38341" lon="6.39209">
        <ele>1946</ele>
        <time>2020-07-07T12:10:20.000Z</time>
      </trkpt>
      <trkpt lat="44.38342" lon="6.39209">
        <ele>1946</ele>
        <time>2020-07-07T12:10:21.000Z</time>
      </trkpt>
      <trkpt lat="44.38343" lon="6.39209">
        <ele>1946</ele>
        <time>2020-07-07T12:10:22.000Z</time>
      </trkpt>
      <trkpt lat="44.38344" lon="6.39209">
        <ele>1946</ele>
        <time>2020-07-07T12:10:23.000Z</time>
      </trkpt>
      <trkpt lat="44.38345" lon="6.39209">
        <ele>1946</ele>
        <time>2020-07-07T12:10:24.000Z</time>
      </trkpt>
      <trkpt lat="44.38346" lon="6.3921">
        <ele>1946</ele>
        <time>2020-07-07T12:10:25.000Z</time>
      </trkpt>
      <trkpt lat="44.38347" lon="6.3921">
        <ele>1947</ele>
        <time>2020-07-07T12:10:26.000Z</time>
      </trkpt>
      <trkpt lat="44.38348" lon="6.3921">
        <ele>1947</ele>
        <time>2020-07-07T12:10:27.000Z</time>
      </trkpt>
      <trkpt lat="44.38348" lon="6.3921">
        <ele>1946</ele>
        <time>2020-07-07T12:10:28.000Z</time>
      </trkpt>
      <trkpt lat="44.38349" lon="6.3921">
        <ele>1946</ele>
        <time>2020-07-07T12:10:29.000Z</time>
      </trkpt>
      <trkpt lat="44.3835" lon="6.39211">
        <ele>1946</ele>
        <time>2020-07-07T12:10:30.000Z</time>
      </trkpt>
      <trkpt lat="44.3835" lon="6.39211">
        <ele>1946</ele>
        <time>2020-07-07T12:10:31.000Z</time>
      </trkpt>
      <trkpt lat="44.3835" lon="6.39211">
        <ele>1946</ele>
        <time>2020-07-07T12:10:32.000Z</time>
      </trkpt>
      <trkpt lat="44.3835" lon="6.39211">
        <ele>1946</ele>
        <time>2020-07-07T12:10:33.000Z</time>
      </trkpt>
      <trkpt lat="44.3835" lon="6.39211">
        <ele>1946</ele>
        <time>2020-07-07T12:10:34.000Z</time>
      </trkpt>
      <trkpt lat="44.3835" lon="6.39211">
        <ele>1946</ele>
        <time>2020-07-07T12:10:35.000Z</time>
      </trkpt>
      <trkpt lat="44.3835" lon="6.3921">
        <ele>1946</ele>
        <time>2020-07-07T12:10:36.000Z</time>
      </trkpt>
      <trkpt lat="44.3835" lon="6.3921">
        <ele>1946</ele>
        <time>2020-07-07T12:10:37.000Z</time>
      </trkpt>
      <trkpt lat="44.38351" lon="6.3921">
        <ele>1946</ele>
        <time>2020-07-07T12:10:38.000Z</time>
      </trkpt>
      <trkpt lat="44.38352" lon="6.39211">
        <ele>1946</ele>
        <time>2020-07-07T12:10:39.000Z</time>
      </trkpt>
      <trkpt lat="44.38353" lon="6.39211">
        <ele>1946</ele>
        <time>2020-07-07T12:10:40.000Z</time>
      </trkpt>
      <trkpt lat="44.38353" lon="6.39211">
        <ele>1946</ele>
        <time>2020-07-07T12:10:41.000Z</time>
      </trkpt>
      <trkpt lat="44.38354" lon="6.39211">
        <ele>1946</ele>
        <time>2020-07-07T12:10:42.000Z</time>
      </trkpt>
      <trkpt lat="44.38355" lon="6.39211">
        <ele>1945</ele>
        <time>2020-07-07T12:10:43.000Z</time>
      </trkpt>
      <trkpt lat="44.38356" lon="6.39211">
        <ele>1945</ele>
        <time>2020-07-07T12:10:44.000Z</time>
      </trkpt>
      <trkpt lat="44.38357" lon="6.39211">
        <ele>1945</ele>
        <time>2020-07-07T12:10:45.000Z</time>
      </trkpt>
      <trkpt lat="44.38358" lon="6.39211">
        <ele>1945</ele>
        <time>2020-07-07T12:10:46.000Z</time>
      </trkpt>
      <trkpt lat="44.38359" lon="6.39211">
        <ele>1945</ele>
        <time>2020-07-07T12:10:47.000Z</time>
      </trkpt>
      <trkpt lat="44.38359" lon="6.3921">
        <ele>1945</ele>
        <time>2020-07-07T12:10:48.000Z</time>
      </trkpt>
      <trkpt lat="44.38361" lon="6.3921">
        <ele>1945</ele>
        <time>2020-07-07T12:10:49.000Z</time>
      </trkpt>
      <trkpt lat="44.38362" lon="6.3921">
        <ele>1945</ele>
        <time>2020-07-07T12:10:50.000Z</time>
      </trkpt>
      <trkpt lat="44.38362" lon="6.39209">
        <ele>1945</ele>
        <time>2020-07-07T12:10:51.000Z</time>
      </trkpt>
      <trkpt lat="44.38363" lon="6.39209">
        <ele>1945</ele>
        <time>2020-07-07T12:10:52.000Z</time>
      </trkpt>
      <trkpt lat="44.38364" lon="6.39208">
        <ele>1944</ele>
        <time>2020-07-07T12:10:53.000Z</time>
      </trkpt>
      <trkpt lat="44.38366" lon="6.39208">
        <ele>1944</ele>
        <time>2020-07-07T12:10:54.000Z</time>
      </trkpt>
      <trkpt lat="44.38367" lon="6.39208">
        <ele>1944</ele>
        <time>2020-07-07T12:10:55.000Z</time>
      </trkpt>
      <trkpt lat="44.38368" lon="6.39207">
        <ele>1943</ele>
        <time>2020-07-07T12:10:56.000Z</time>
      </trkpt>
      <trkpt lat="44.38369" lon="6.39207">
        <ele>1943</ele>
        <time>2020-07-07T12:10:57.000Z</time>
      </trkpt>
      <trkpt lat="44.3837" lon="6.39206">
        <ele>1943</ele>
        <time>2020-07-07T12:10:58.000Z</time>
      </trkpt>
      <trkpt lat="44.38371" lon="6.39206">
        <ele>1943</ele>
        <time>2020-07-07T12:10:59.000Z</time>
      </trkpt>
      <trkpt lat="44.38372" lon="6.39206">
        <ele>1942</ele>
        <time>2020-07-07T12:11:00.000Z</time>
      </trkpt>
      <trkpt lat="44.38373" lon="6.39205">
        <ele>1942</ele>
        <time>2020-07-07T12:11:01.000Z</time>
      </trkpt>
      <trkpt lat="44.38374" lon="6.39205">
        <ele>1942</ele>
        <time>2020-07-07T12:11:02.000Z</time>
      </trkpt>
      <trkpt lat="44.38375" lon="6.39204">
        <ele>1942</ele>
        <time>2020-07-07T12:11:03.000Z</time>
      </trkpt>
      <trkpt lat="44.38376" lon="6.39204">
        <ele>1942</ele>
        <time>2020-07-07T12:11:04.000Z</time>
      </trkpt>
      <trkpt lat="44.38377" lon="6.39204">
        <ele>1942</ele>
        <time>2020-07-07T12:11:05.000Z</time>
      </trkpt>
      <trkpt lat="44.38378" lon="6.39203">
        <ele>1942</ele>
        <time>2020-07-07T12:11:06.000Z</time>
      </trkpt>
      <trkpt lat="44.38379" lon="6.39203">
        <ele>1941</ele>
        <time>2020-07-07T12:11:07.000Z</time>
      </trkpt>
      <trkpt lat="44.3838" lon="6.39203">
        <ele>1941</ele>
        <time>2020-07-07T12:11:08.000Z</time>
      </trkpt>
      <trkpt lat="44.38381" lon="6.39203">
        <ele>1941</ele>
        <time>2020-07-07T12:11:09.000Z</time>
      </trkpt>
      <trkpt lat="44.38383" lon="6.39203">
        <ele>1941</ele>
        <time>2020-07-07T12:11:10.000Z</time>
      </trkpt>
      <trkpt lat="44.38384" lon="6.39203">
        <ele>1941</ele>
        <time>2020-07-07T12:11:11.000Z</time>
      </trkpt>
      <trkpt lat="44.38385" lon="6.39203">
        <ele>1941</ele>
        <time>2020-07-07T12:11:12.000Z</time>
      </trkpt>
      <trkpt lat="44.38386" lon="6.39203">
        <ele>1941</ele>
        <time>2020-07-07T12:11:13.000Z</time>
      </trkpt>
      <trkpt lat="44.38387" lon="6.39203">
        <ele>1940</ele>
        <time>2020-07-07T12:11:14.000Z</time>
      </trkpt>
      <trkpt lat="44.38388" lon="6.39203">
        <ele>1940</ele>
        <time>2020-07-07T12:11:15.000Z</time>
      </trkpt>
      <trkpt lat="44.38389" lon="6.39203">
        <ele>1940</ele>
        <time>2020-07-07T12:11:16.000Z</time>
      </trkpt>
      <trkpt lat="44.38391" lon="6.39203">
        <ele>1940</ele>
        <time>2020-07-07T12:11:17.000Z</time>
      </trkpt>
      <trkpt lat="44.38392" lon="6.39203">
        <ele>1939</ele>
        <time>2020-07-07T12:11:18.000Z</time>
      </trkpt>
      <trkpt lat="44.38393" lon="6.39203">
        <ele>1939</ele>
        <time>2020-07-07T12:11:19.000Z</time>
      </trkpt>
      <trkpt lat="44.38393" lon="6.39204">
        <ele>1939</ele>
        <time>2020-07-07T12:11:20.000Z</time>
      </trkpt>
      <trkpt lat="44.38395" lon="6.39204">
        <ele>1939</ele>
        <time>2020-07-07T12:11:21.000Z</time>
      </trkpt>
      <trkpt lat="44.38396" lon="6.39203">
        <ele>1939</ele>
        <time>2020-07-07T12:11:22.000Z</time>
      </trkpt>
      <trkpt lat="44.38397" lon="6.39203">
        <ele>1939</ele>
        <time>2020-07-07T12:11:23.000Z</time>
      </trkpt>
      <trkpt lat="44.38398" lon="6.39203">
        <ele>1939</ele>
        <time>2020-07-07T12:11:24.000Z</time>
      </trkpt>
      <trkpt lat="44.38398" lon="6.39203">
        <ele>1939</ele>
        <time>2020-07-07T12:11:25.000Z</time>
      </trkpt>
      <trkpt lat="44.38399" lon="6.39202">
        <ele>1939</ele>
        <time>2020-07-07T12:11:26.000Z</time>
      </trkpt>
      <trkpt lat="44.384" lon="6.39202">
        <ele>1940</ele>
        <time>2020-07-07T12:11:27.000Z</time>
      </trkpt>
      <trkpt lat="44.38401" lon="6.39201">
        <ele>1940</ele>
        <time>2020-07-07T12:11:28.000Z</time>
      </trkpt>
      <trkpt lat="44.38401" lon="6.39201">
        <ele>1940</ele>
        <time>2020-07-07T12:11:29.000Z</time>
      </trkpt>
      <trkpt lat="44.38402" lon="6.39201">
        <ele>1940</ele>
        <time>2020-07-07T12:11:30.000Z</time>
      </trkpt>
      <trkpt lat="44.38404" lon="6.392">
        <ele>1940</ele>
        <time>2020-07-07T12:11:31.000Z</time>
      </trkpt>
      <trkpt lat="44.38405" lon="6.392">
        <ele>1940</ele>
        <time>2020-07-07T12:11:32.000Z</time>
      </trkpt>
      <trkpt lat="44.38406" lon="6.39199">
        <ele>1940</ele>
        <time>2020-07-07T12:11:33.000Z</time>
      </trkpt>
      <trkpt lat="44.38408" lon="6.39199">
        <ele>1940</ele>
        <time>2020-07-07T12:11:34.000Z</time>
      </trkpt>
      <trkpt lat="44.38409" lon="6.39198">
        <ele>1940</ele>
        <time>2020-07-07T12:11:35.000Z</time>
      </trkpt>
      <trkpt lat="44.38409" lon="6.39198">
        <ele>1940</ele>
        <time>2020-07-07T12:11:36.000Z</time>
      </trkpt>
      <trkpt lat="44.3841" lon="6.39197">
        <ele>1940</ele>
        <time>2020-07-07T12:11:37.000Z</time>
      </trkpt>
      <trkpt lat="44.38411" lon="6.39197">
        <ele>1940</ele>
        <time>2020-07-07T12:11:38.000Z</time>
      </trkpt>
      <trkpt lat="44.38412" lon="6.39196">
        <ele>1940</ele>
        <time>2020-07-07T12:11:39.000Z</time>
      </trkpt>
      <trkpt lat="44.38414" lon="6.39196">
        <ele>1940</ele>
        <time>2020-07-07T12:11:40.000Z</time>
      </trkpt>
      <trkpt lat="44.38415" lon="6.39196">
        <ele>1940</ele>
        <time>2020-07-07T12:11:41.000Z</time>
      </trkpt>
      <trkpt lat="44.38416" lon="6.39195">
        <ele>1940</ele>
        <time>2020-07-07T12:11:42.000Z</time>
      </trkpt>
      <trkpt lat="44.38417" lon="6.39195">
        <ele>1940</ele>
        <time>2020-07-07T12:11:43.000Z</time>
      </trkpt>
      <trkpt lat="44.38418" lon="6.39194">
        <ele>1940</ele>
        <time>2020-07-07T12:11:44.000Z</time>
      </trkpt>
      <trkpt lat="44.3842" lon="6.39193">
        <ele>1940</ele>
        <time>2020-07-07T12:11:45.000Z</time>
      </trkpt>
      <trkpt lat="44.38421" lon="6.39193">
        <ele>1941</ele>
        <time>2020-07-07T12:11:46.000Z</time>
      </trkpt>
      <trkpt lat="44.38422" lon="6.39192">
        <ele>1941</ele>
        <time>2020-07-07T12:11:47.000Z</time>
      </trkpt>
      <trkpt lat="44.38423" lon="6.39193">
        <ele>1941</ele>
        <time>2020-07-07T12:11:48.000Z</time>
      </trkpt>
      <trkpt lat="44.38423" lon="6.39193">
        <ele>1941</ele>
        <time>2020-07-07T12:11:49.000Z</time>
      </trkpt>
      <trkpt lat="44.38424" lon="6.39193">
        <ele>1941</ele>
        <time>2020-07-07T12:11:50.000Z</time>
      </trkpt>
      <trkpt lat="44.38425" lon="6.39192">
        <ele>1941</ele>
        <time>2020-07-07T12:11:51.000Z</time>
      </trkpt>
      <trkpt lat="44.38427" lon="6.3919">
        <ele>1941</ele>
        <time>2020-07-07T12:11:52.000Z</time>
      </trkpt>
      <trkpt lat="44.38429" lon="6.39189">
        <ele>1941</ele>
        <time>2020-07-07T12:11:53.000Z</time>
      </trkpt>
      <trkpt lat="44.3843" lon="6.39188">
        <ele>1941</ele>
        <time>2020-07-07T12:11:54.000Z</time>
      </trkpt>
      <trkpt lat="44.38431" lon="6.39188">
        <ele>1941</ele>
        <time>2020-07-07T12:11:55.000Z</time>
      </trkpt>
      <trkpt lat="44.38431" lon="6.39187">
        <ele>1941</ele>
        <time>2020-07-07T12:11:56.000Z</time>
      </trkpt>
      <trkpt lat="44.38432" lon="6.39187">
        <ele>1941</ele>
        <time>2020-07-07T12:11:57.000Z</time>
      </trkpt>
      <trkpt lat="44.38432" lon="6.39186">
        <ele>1941</ele>
        <time>2020-07-07T12:11:58.000Z</time>
      </trkpt>
      <trkpt lat="44.38433" lon="6.39185">
        <ele>1941</ele>
        <time>2020-07-07T12:11:59.000Z</time>
      </trkpt>
      <trkpt lat="44.38434" lon="6.39183">
        <ele>1941</ele>
        <time>2020-07-07T12:12:00.000Z</time>
      </trkpt>
      <trkpt lat="44.38435" lon="6.39182">
        <ele>1941</ele>
        <time>2020-07-07T12:12:01.000Z</time>
      </trkpt>
      <trkpt lat="44.38436" lon="6.39181">
        <ele>1941</ele>
        <time>2020-07-07T12:12:02.000Z</time>
      </trkpt>
      <trkpt lat="44.38436" lon="6.3918">
        <ele>1941</ele>
        <time>2020-07-07T12:12:03.000Z</time>
      </trkpt>
      <trkpt lat="44.38437" lon="6.39179">
        <ele>1940</ele>
        <time>2020-07-07T12:12:04.000Z</time>
      </trkpt>
      <trkpt lat="44.38438" lon="6.39178">
        <ele>1940</ele>
        <time>2020-07-07T12:12:05.000Z</time>
      </trkpt>
      <trkpt lat="44.38439" lon="6.39177">
        <ele>1940</ele>
        <time>2020-07-07T12:12:06.000Z</time>
      </trkpt>
      <trkpt lat="44.3844" lon="6.39176">
        <ele>1940</ele>
        <time>2020-07-07T12:12:07.000Z</time>
      </trkpt>
      <trkpt lat="44.38441" lon="6.39176">
        <ele>1940</ele>
        <time>2020-07-07T12:12:08.000Z</time>
      </trkpt>
      <trkpt lat="44.38443" lon="6.39175">
        <ele>1940</ele>
        <time>2020-07-07T12:12:09.000Z</time>
      </trkpt>
      <trkpt lat="44.38444" lon="6.39174">
        <ele>1940</ele>
        <time>2020-07-07T12:12:10.000Z</time>
      </trkpt>
      <trkpt lat="44.38445" lon="6.39174">
        <ele>1940</ele>
        <time>2020-07-07T12:12:11.000Z</time>
      </trkpt>
      <trkpt lat="44.38447" lon="6.39173">
        <ele>1940</ele>
        <time>2020-07-07T12:12:12.000Z</time>
      </trkpt>
      <trkpt lat="44.38448" lon="6.39172">
        <ele>1939</ele>
        <time>2020-07-07T12:12:13.000Z</time>
      </trkpt>
      <trkpt lat="44.38449" lon="6.39171">
        <ele>1939</ele>
        <time>2020-07-07T12:12:14.000Z</time>
      </trkpt>
      <trkpt lat="44.3845" lon="6.39171">
        <ele>1939</ele>
        <time>2020-07-07T12:12:15.000Z</time>
      </trkpt>
      <trkpt lat="44.38451" lon="6.3917">
        <ele>1939</ele>
        <time>2020-07-07T12:12:16.000Z</time>
      </trkpt>
      <trkpt lat="44.38452" lon="6.3917">
        <ele>1939</ele>
        <time>2020-07-07T12:12:17.000Z</time>
      </trkpt>
      <trkpt lat="44.38454" lon="6.39169">
        <ele>1938</ele>
        <time>2020-07-07T12:12:18.000Z</time>
      </trkpt>
      <trkpt lat="44.38455" lon="6.39169">
        <ele>1938</ele>
        <time>2020-07-07T12:12:19.000Z</time>
      </trkpt>
      <trkpt lat="44.38456" lon="6.39168">
        <ele>1938</ele>
        <time>2020-07-07T12:12:20.000Z</time>
      </trkpt>
      <trkpt lat="44.38457" lon="6.39168">
        <ele>1937</ele>
        <time>2020-07-07T12:12:21.000Z</time>
      </trkpt>
      <trkpt lat="44.38458" lon="6.39168">
        <ele>1937</ele>
        <time>2020-07-07T12:12:22.000Z</time>
      </trkpt>
      <trkpt lat="44.38459" lon="6.39167">
        <ele>1937</ele>
        <time>2020-07-07T12:12:23.000Z</time>
      </trkpt>
      <trkpt lat="44.3846" lon="6.39167">
        <ele>1937</ele>
        <time>2020-07-07T12:12:24.000Z</time>
      </trkpt>
      <trkpt lat="44.38461" lon="6.39166">
        <ele>1936</ele>
        <time>2020-07-07T12:12:25.000Z</time>
      </trkpt>
      <trkpt lat="44.38462" lon="6.39166">
        <ele>1936</ele>
        <time>2020-07-07T12:12:26.000Z</time>
      </trkpt>
      <trkpt lat="44.38464" lon="6.39165">
        <ele>1936</ele>
        <time>2020-07-07T12:12:27.000Z</time>
      </trkpt>
      <trkpt lat="44.38465" lon="6.39165">
        <ele>1936</ele>
        <time>2020-07-07T12:12:28.000Z</time>
      </trkpt>
      <trkpt lat="44.38466" lon="6.39164">
        <ele>1936</ele>
        <time>2020-07-07T12:12:29.000Z</time>
      </trkpt>
      <trkpt lat="44.38467" lon="6.39164">
        <ele>1935</ele>
        <time>2020-07-07T12:12:30.000Z</time>
      </trkpt>
      <trkpt lat="44.38469" lon="6.39164">
        <ele>1935</ele>
        <time>2020-07-07T12:12:31.000Z</time>
      </trkpt>
      <trkpt lat="44.3847" lon="6.39164">
        <ele>1935</ele>
        <time>2020-07-07T12:12:32.000Z</time>
      </trkpt>
      <trkpt lat="44.38471" lon="6.39163">
        <ele>1935</ele>
        <time>2020-07-07T12:12:33.000Z</time>
      </trkpt>
      <trkpt lat="44.38472" lon="6.39163">
        <ele>1934</ele>
        <time>2020-07-07T12:12:34.000Z</time>
      </trkpt>
      <trkpt lat="44.38472" lon="6.39163">
        <ele>1934</ele>
        <time>2020-07-07T12:12:35.000Z</time>
      </trkpt>
      <trkpt lat="44.38473" lon="6.39163">
        <ele>1934</ele>
        <time>2020-07-07T12:12:36.000Z</time>
      </trkpt>
      <trkpt lat="44.38475" lon="6.39162">
        <ele>1934</ele>
        <time>2020-07-07T12:12:37.000Z</time>
      </trkpt>
      <trkpt lat="44.38476" lon="6.39161">
        <ele>1933</ele>
        <time>2020-07-07T12:12:38.000Z</time>
      </trkpt>
      <trkpt lat="44.38477" lon="6.39161">
        <ele>1933</ele>
        <time>2020-07-07T12:12:39.000Z</time>
      </trkpt>
      <trkpt lat="44.38478" lon="6.39161">
        <ele>1933</ele>
        <time>2020-07-07T12:12:40.000Z</time>
      </trkpt>
      <trkpt lat="44.38479" lon="6.39161">
        <ele>1933</ele>
        <time>2020-07-07T12:12:41.000Z</time>
      </trkpt>
      <trkpt lat="44.3848" lon="6.39161">
        <ele>1933</ele>
        <time>2020-07-07T12:12:42.000Z</time>
      </trkpt>
      <trkpt lat="44.38481" lon="6.3916">
        <ele>1933</ele>
        <time>2020-07-07T12:12:43.000Z</time>
      </trkpt>
      <trkpt lat="44.38482" lon="6.3916">
        <ele>1932</ele>
        <time>2020-07-07T12:12:44.000Z</time>
      </trkpt>
      <trkpt lat="44.38484" lon="6.3916">
        <ele>1932</ele>
        <time>2020-07-07T12:12:45.000Z</time>
      </trkpt>
      <trkpt lat="44.38485" lon="6.3916">
        <ele>1932</ele>
        <time>2020-07-07T12:12:46.000Z</time>
      </trkpt>
      <trkpt lat="44.38486" lon="6.39159">
        <ele>1932</ele>
        <time>2020-07-07T12:12:47.000Z</time>
      </trkpt>
      <trkpt lat="44.38487" lon="6.39159">
        <ele>1932</ele>
        <time>2020-07-07T12:12:48.000Z</time>
      </trkpt>
      <trkpt lat="44.38488" lon="6.39159">
        <ele>1932</ele>
        <time>2020-07-07T12:12:49.000Z</time>
      </trkpt>
      <trkpt lat="44.38489" lon="6.39158">
        <ele>1932</ele>
        <time>2020-07-07T12:12:50.000Z</time>
      </trkpt>
      <trkpt lat="44.38491" lon="6.39158">
        <ele>1932</ele>
        <time>2020-07-07T12:12:51.000Z</time>
      </trkpt>
      <trkpt lat="44.38492" lon="6.39158">
        <ele>1932</ele>
        <time>2020-07-07T12:12:52.000Z</time>
      </trkpt>
      <trkpt lat="44.38493" lon="6.39158">
        <ele>1931</ele>
        <time>2020-07-07T12:12:53.000Z</time>
      </trkpt>
      <trkpt lat="44.38494" lon="6.39158">
        <ele>1931</ele>
        <time>2020-07-07T12:12:54.000Z</time>
      </trkpt>
      <trkpt lat="44.38496" lon="6.39158">
        <ele>1931</ele>
        <time>2020-07-07T12:12:55.000Z</time>
      </trkpt>
      <trkpt lat="44.38497" lon="6.39158">
        <ele>1931</ele>
        <time>2020-07-07T12:12:56.000Z</time>
      </trkpt>
      <trkpt lat="44.38498" lon="6.39158">
        <ele>1931</ele>
        <time>2020-07-07T12:12:57.000Z</time>
      </trkpt>
      <trkpt lat="44.38499" lon="6.39157">
        <ele>1931</ele>
        <time>2020-07-07T12:12:58.000Z</time>
      </trkpt>
      <trkpt lat="44.385" lon="6.39157">
        <ele>1931</ele>
        <time>2020-07-07T12:12:59.000Z</time>
      </trkpt>
      <trkpt lat="44.38501" lon="6.39157">
        <ele>1931</ele>
        <time>2020-07-07T12:13:00.000Z</time>
      </trkpt>
      <trkpt lat="44.38502" lon="6.39156">
        <ele>1931</ele>
        <time>2020-07-07T12:13:01.000Z</time>
      </trkpt>
      <trkpt lat="44.38503" lon="6.39156">
        <ele>1931</ele>
        <time>2020-07-07T12:13:02.000Z</time>
      </trkpt>
      <trkpt lat="44.38504" lon="6.39155">
        <ele>1931</ele>
        <time>2020-07-07T12:13:03.000Z</time>
      </trkpt>
      <trkpt lat="44.38505" lon="6.39153">
        <ele>1931</ele>
        <time>2020-07-07T12:13:04.000Z</time>
      </trkpt>
      <trkpt lat="44.38506" lon="6.39152">
        <ele>1931</ele>
        <time>2020-07-07T12:13:05.000Z</time>
      </trkpt>
      <trkpt lat="44.38507" lon="6.39151">
        <ele>1931</ele>
        <time>2020-07-07T12:13:06.000Z</time>
      </trkpt>
      <trkpt lat="44.38507" lon="6.39151">
        <ele>1931</ele>
        <time>2020-07-07T12:13:07.000Z</time>
      </trkpt>
      <trkpt lat="44.38508" lon="6.39152">
        <ele>1931</ele>
        <time>2020-07-07T12:13:08.000Z</time>
      </trkpt>
      <trkpt lat="44.38509" lon="6.39151">
        <ele>1931</ele>
        <time>2020-07-07T12:13:09.000Z</time>
      </trkpt>
      <trkpt lat="44.3851" lon="6.3915">
        <ele>1931</ele>
        <time>2020-07-07T12:13:10.000Z</time>
      </trkpt>
      <trkpt lat="44.38512" lon="6.39149">
        <ele>1931</ele>
        <time>2020-07-07T12:13:11.000Z</time>
      </trkpt>
      <trkpt lat="44.38514" lon="6.39148">
        <ele>1931</ele>
        <time>2020-07-07T12:13:12.000Z</time>
      </trkpt>
      <trkpt lat="44.38515" lon="6.39147">
        <ele>1931</ele>
        <time>2020-07-07T12:13:13.000Z</time>
      </trkpt>
      <trkpt lat="44.38516" lon="6.39147">
        <ele>1931</ele>
        <time>2020-07-07T12:13:14.000Z</time>
      </trkpt>
      <trkpt lat="44.38517" lon="6.39146">
        <ele>1931</ele>
        <time>2020-07-07T12:13:15.000Z</time>
      </trkpt>
      <trkpt lat="44.38518" lon="6.39146">
        <ele>1930</ele>
        <time>2020-07-07T12:13:16.000Z</time>
      </trkpt>
      <trkpt lat="44.38518" lon="6.39144">
        <ele>1930</ele>
        <time>2020-07-07T12:13:17.000Z</time>
      </trkpt>
      <trkpt lat="44.38519" lon="6.39143">
        <ele>1930</ele>
        <time>2020-07-07T12:13:18.000Z</time>
      </trkpt>
      <trkpt lat="44.3852" lon="6.39142">
        <ele>1930</ele>
        <time>2020-07-07T12:13:19.000Z</time>
      </trkpt>
      <trkpt lat="44.3852" lon="6.39141">
        <ele>1930</ele>
        <time>2020-07-07T12:13:20.000Z</time>
      </trkpt>
      <trkpt lat="44.38521" lon="6.3914">
        <ele>1930</ele>
        <time>2020-07-07T12:13:21.000Z</time>
      </trkpt>
      <trkpt lat="44.38521" lon="6.3914">
        <ele>1930</ele>
        <time>2020-07-07T12:13:22.000Z</time>
      </trkpt>
      <trkpt lat="44.38522" lon="6.39139">
        <ele>1930</ele>
        <time>2020-07-07T12:13:23.000Z</time>
      </trkpt>
      <trkpt lat="44.38523" lon="6.39138">
        <ele>1930</ele>
        <time>2020-07-07T12:13:24.000Z</time>
      </trkpt>
      <trkpt lat="44.38523" lon="6.39138">
        <ele>1930</ele>
        <time>2020-07-07T12:13:25.000Z</time>
      </trkpt>
      <trkpt lat="44.38524" lon="6.39136">
        <ele>1930</ele>
        <time>2020-07-07T12:13:26.000Z</time>
      </trkpt>
      <trkpt lat="44.38525" lon="6.39135">
        <ele>1930</ele>
        <time>2020-07-07T12:13:27.000Z</time>
      </trkpt>
      <trkpt lat="44.38527" lon="6.39134">
        <ele>1930</ele>
        <time>2020-07-07T12:13:28.000Z</time>
      </trkpt>
      <trkpt lat="44.38528" lon="6.39133">
        <ele>1930</ele>
        <time>2020-07-07T12:13:29.000Z</time>
      </trkpt>
      <trkpt lat="44.38529" lon="6.39133">
        <ele>1930</ele>
        <time>2020-07-07T12:13:30.000Z</time>
      </trkpt>
      <trkpt lat="44.3853" lon="6.39132">
        <ele>1930</ele>
        <time>2020-07-07T12:13:31.000Z</time>
      </trkpt>
      <trkpt lat="44.38531" lon="6.39131">
        <ele>1930</ele>
        <time>2020-07-07T12:13:32.000Z</time>
      </trkpt>
      <trkpt lat="44.38532" lon="6.3913">
        <ele>1930</ele>
        <time>2020-07-07T12:13:33.000Z</time>
      </trkpt>
      <trkpt lat="44.38533" lon="6.39129">
        <ele>1930</ele>
        <time>2020-07-07T12:13:34.000Z</time>
      </trkpt>
      <trkpt lat="44.38534" lon="6.39128">
        <ele>1929</ele>
        <time>2020-07-07T12:13:35.000Z</time>
      </trkpt>
      <trkpt lat="44.38535" lon="6.39127">
        <ele>1929</ele>
        <time>2020-07-07T12:13:36.000Z</time>
      </trkpt>
      <trkpt lat="44.38536" lon="6.39126">
        <ele>1929</ele>
        <time>2020-07-07T12:13:37.000Z</time>
      </trkpt>
      <trkpt lat="44.38536" lon="6.39126">
        <ele>1929</ele>
        <time>2020-07-07T12:13:38.000Z</time>
      </trkpt>
      <trkpt lat="44.38538" lon="6.39125">
        <ele>1929</ele>
        <time>2020-07-07T12:13:39.000Z</time>
      </trkpt>
      <trkpt lat="44.38539" lon="6.39124">
        <ele>1929</ele>
        <time>2020-07-07T12:13:40.000Z</time>
      </trkpt>
      <trkpt lat="44.3854" lon="6.39123">
        <ele>1929</ele>
        <time>2020-07-07T12:13:41.000Z</time>
      </trkpt>
      <trkpt lat="44.38541" lon="6.39122">
        <ele>1929</ele>
        <time>2020-07-07T12:13:42.000Z</time>
      </trkpt>
      <trkpt lat="44.38541" lon="6.39121">
        <ele>1929</ele>
        <time>2020-07-07T12:13:43.000Z</time>
      </trkpt>
      <trkpt lat="44.38542" lon="6.3912">
        <ele>1929</ele>
        <time>2020-07-07T12:13:44.000Z</time>
      </trkpt>
      <trkpt lat="44.38542" lon="6.3912">
        <ele>1929</ele>
        <time>2020-07-07T12:13:45.000Z</time>
      </trkpt>
      <trkpt lat="44.38543" lon="6.39119">
        <ele>1929</ele>
        <time>2020-07-07T12:13:46.000Z</time>
      </trkpt>
      <trkpt lat="44.38543" lon="6.39119">
        <ele>1929</ele>
        <time>2020-07-07T12:13:47.000Z</time>
      </trkpt>
      <trkpt lat="44.38544" lon="6.39119">
        <ele>1929</ele>
        <time>2020-07-07T12:13:48.000Z</time>
      </trkpt>
      <trkpt lat="44.38545" lon="6.39118">
        <ele>1929</ele>
        <time>2020-07-07T12:13:49.000Z</time>
      </trkpt>
      <trkpt lat="44.38545" lon="6.39118">
        <ele>1930</ele>
        <time>2020-07-07T12:13:50.000Z</time>
      </trkpt>
      <trkpt lat="44.38546" lon="6.39117">
        <ele>1930</ele>
        <time>2020-07-07T12:13:51.000Z</time>
      </trkpt>
      <trkpt lat="44.38546" lon="6.39117">
        <ele>1930</ele>
        <time>2020-07-07T12:13:52.000Z</time>
      </trkpt>
      <trkpt lat="44.38547" lon="6.39116">
        <ele>1930</ele>
        <time>2020-07-07T12:13:53.000Z</time>
      </trkpt>
      <trkpt lat="44.38547" lon="6.39115">
        <ele>1930</ele>
        <time>2020-07-07T12:13:54.000Z</time>
      </trkpt>
      <trkpt lat="44.38548" lon="6.39114">
        <ele>1930</ele>
        <time>2020-07-07T12:13:55.000Z</time>
      </trkpt>
      <trkpt lat="44.38549" lon="6.39113">
        <ele>1930</ele>
        <time>2020-07-07T12:13:56.000Z</time>
      </trkpt>
      <trkpt lat="44.38549" lon="6.39111">
        <ele>1930</ele>
        <time>2020-07-07T12:13:57.000Z</time>
      </trkpt>
      <trkpt lat="44.3855" lon="6.3911">
        <ele>1930</ele>
        <time>2020-07-07T12:13:58.000Z</time>
      </trkpt>
      <trkpt lat="44.38551" lon="6.39109">
        <ele>1930</ele>
        <time>2020-07-07T12:13:59.000Z</time>
      </trkpt>
      <trkpt lat="44.38551" lon="6.39107">
        <ele>1930</ele>
        <time>2020-07-07T12:14:00.000Z</time>
      </trkpt>
      <trkpt lat="44.38552" lon="6.39106">
        <ele>1930</ele>
        <time>2020-07-07T12:14:01.000Z</time>
      </trkpt>
      <trkpt lat="44.38553" lon="6.39105">
        <ele>1931</ele>
        <time>2020-07-07T12:14:02.000Z</time>
      </trkpt>
      <trkpt lat="44.38554" lon="6.39104">
        <ele>1931</ele>
        <time>2020-07-07T12:14:03.000Z</time>
      </trkpt>
      <trkpt lat="44.38555" lon="6.39102">
        <ele>1931</ele>
        <time>2020-07-07T12:14:04.000Z</time>
      </trkpt>
      <trkpt lat="44.38556" lon="6.39101">
        <ele>1931</ele>
        <time>2020-07-07T12:14:05.000Z</time>
      </trkpt>
      <trkpt lat="44.38557" lon="6.39099">
        <ele>1931</ele>
        <time>2020-07-07T12:14:06.000Z</time>
      </trkpt>
      <trkpt lat="44.38558" lon="6.39098">
        <ele>1931</ele>
        <time>2020-07-07T12:14:07.000Z</time>
      </trkpt>
      <trkpt lat="44.38558" lon="6.39097">
        <ele>1931</ele>
        <time>2020-07-07T12:14:08.000Z</time>
      </trkpt>
      <trkpt lat="44.38559" lon="6.39095">
        <ele>1931</ele>
        <time>2020-07-07T12:14:09.000Z</time>
      </trkpt>
      <trkpt lat="44.3856" lon="6.39094">
        <ele>1931</ele>
        <time>2020-07-07T12:14:10.000Z</time>
      </trkpt>
      <trkpt lat="44.38561" lon="6.39093">
        <ele>1931</ele>
        <time>2020-07-07T12:14:11.000Z</time>
      </trkpt>
      <trkpt lat="44.38561" lon="6.39092">
        <ele>1931</ele>
        <time>2020-07-07T12:14:12.000Z</time>
      </trkpt>
      <trkpt lat="44.38563" lon="6.39091">
        <ele>1931</ele>
        <time>2020-07-07T12:14:13.000Z</time>
      </trkpt>
      <trkpt lat="44.38564" lon="6.39089">
        <ele>1931</ele>
        <time>2020-07-07T12:14:14.000Z</time>
      </trkpt>
      <trkpt lat="44.38565" lon="6.39088">
        <ele>1931</ele>
        <time>2020-07-07T12:14:15.000Z</time>
      </trkpt>
      <trkpt lat="44.38566" lon="6.39087">
        <ele>1932</ele>
        <time>2020-07-07T12:14:16.000Z</time>
      </trkpt>
      <trkpt lat="44.38567" lon="6.39086">
        <ele>1932</ele>
        <time>2020-07-07T12:14:17.000Z</time>
      </trkpt>
      <trkpt lat="44.38568" lon="6.39085">
        <ele>1932</ele>
        <time>2020-07-07T12:14:18.000Z</time>
      </trkpt>
      <trkpt lat="44.38569" lon="6.39084">
        <ele>1932</ele>
        <time>2020-07-07T12:14:19.000Z</time>
      </trkpt>
      <trkpt lat="44.3857" lon="6.39083">
        <ele>1932</ele>
        <time>2020-07-07T12:14:20.000Z</time>
      </trkpt>
      <trkpt lat="44.3857" lon="6.39082">
        <ele>1932</ele>
        <time>2020-07-07T12:14:21.000Z</time>
      </trkpt>
      <trkpt lat="44.38571" lon="6.39081">
        <ele>1932</ele>
        <time>2020-07-07T12:14:22.000Z</time>
      </trkpt>
      <trkpt lat="44.38572" lon="6.3908">
        <ele>1932</ele>
        <time>2020-07-07T12:14:23.000Z</time>
      </trkpt>
      <trkpt lat="44.38573" lon="6.39079">
        <ele>1933</ele>
        <time>2020-07-07T12:14:24.000Z</time>
      </trkpt>
      <trkpt lat="44.38574" lon="6.39077">
        <ele>1933</ele>
        <time>2020-07-07T12:14:25.000Z</time>
      </trkpt>
      <trkpt lat="44.38575" lon="6.39076">
        <ele>1933</ele>
        <time>2020-07-07T12:14:26.000Z</time>
      </trkpt>
      <trkpt lat="44.38576" lon="6.39075">
        <ele>1933</ele>
        <time>2020-07-07T12:14:27.000Z</time>
      </trkpt>
      <trkpt lat="44.38577" lon="6.39074">
        <ele>1933</ele>
        <time>2020-07-07T12:14:28.000Z</time>
      </trkpt>
      <trkpt lat="44.38578" lon="6.39073">
        <ele>1933</ele>
        <time>2020-07-07T12:14:29.000Z</time>
      </trkpt>
      <trkpt lat="44.3858" lon="6.39072">
        <ele>1933</ele>
        <time>2020-07-07T12:14:30.000Z</time>
      </trkpt>
      <trkpt lat="44.38581" lon="6.39072">
        <ele>1934</ele>
        <time>2020-07-07T12:14:31.000Z</time>
      </trkpt>
      <trkpt lat="44.38582" lon="6.39071">
        <ele>1934</ele>
        <time>2020-07-07T12:14:32.000Z</time>
      </trkpt>
      <trkpt lat="44.38583" lon="6.3907">
        <ele>1934</ele>
        <time>2020-07-07T12:14:33.000Z</time>
      </trkpt>
      <trkpt lat="44.38584" lon="6.3907">
        <ele>1934</ele>
        <time>2020-07-07T12:14:34.000Z</time>
      </trkpt>
      <trkpt lat="44.38584" lon="6.39069">
        <ele>1934</ele>
        <time>2020-07-07T12:14:35.000Z</time>
      </trkpt>
      <trkpt lat="44.38585" lon="6.39068">
        <ele>1934</ele>
        <time>2020-07-07T12:14:36.000Z</time>
      </trkpt>
      <trkpt lat="44.38586" lon="6.39067">
        <ele>1934</ele>
        <time>2020-07-07T12:14:37.000Z</time>
      </trkpt>
      <trkpt lat="44.38586" lon="6.39066">
        <ele>1935</ele>
        <time>2020-07-07T12:14:38.000Z</time>
      </trkpt>
      <trkpt lat="44.38587" lon="6.39065">
        <ele>1935</ele>
        <time>2020-07-07T12:14:39.000Z</time>
      </trkpt>
      <trkpt lat="44.38587" lon="6.39064">
        <ele>1935</ele>
        <time>2020-07-07T12:14:40.000Z</time>
      </trkpt>
      <trkpt lat="44.38588" lon="6.39063">
        <ele>1935</ele>
        <time>2020-07-07T12:14:41.000Z</time>
      </trkpt>
      <trkpt lat="44.38589" lon="6.39062">
        <ele>1935</ele>
        <time>2020-07-07T12:14:42.000Z</time>
      </trkpt>
      <trkpt lat="44.38589" lon="6.3906">
        <ele>1935</ele>
        <time>2020-07-07T12:14:43.000Z</time>
      </trkpt>
      <trkpt lat="44.38589" lon="6.39058">
        <ele>1935</ele>
        <time>2020-07-07T12:14:44.000Z</time>
      </trkpt>
      <trkpt lat="44.38589" lon="6.39057">
        <ele>1935</ele>
        <time>2020-07-07T12:14:45.000Z</time>
      </trkpt>
      <trkpt lat="44.38589" lon="6.39057">
        <ele>1935</ele>
        <time>2020-07-07T12:14:46.000Z</time>
      </trkpt>
      <trkpt lat="44.38588" lon="6.39056">
        <ele>1934</ele>
        <time>2020-07-07T12:14:47.000Z</time>
      </trkpt>
      <trkpt lat="44.38588" lon="6.39055">
        <ele>1934</ele>
        <time>2020-07-07T12:14:48.000Z</time>
      </trkpt>
      <trkpt lat="44.38588" lon="6.39053">
        <ele>1934</ele>
        <time>2020-07-07T12:14:49.000Z</time>
      </trkpt>
      <trkpt lat="44.38588" lon="6.39052">
        <ele>1934</ele>
        <time>2020-07-07T12:14:50.000Z</time>
      </trkpt>
      <trkpt lat="44.38588" lon="6.39051">
        <ele>1933</ele>
        <time>2020-07-07T12:14:51.000Z</time>
      </trkpt>
      <trkpt lat="44.38588" lon="6.3905">
        <ele>1933</ele>
        <time>2020-07-07T12:14:52.000Z</time>
      </trkpt>
      <trkpt lat="44.38589" lon="6.39049">
        <ele>1933</ele>
        <time>2020-07-07T12:14:53.000Z</time>
      </trkpt>
      <trkpt lat="44.38589" lon="6.39048">
        <ele>1932</ele>
        <time>2020-07-07T12:14:54.000Z</time>
      </trkpt>
      <trkpt lat="44.38589" lon="6.39047">
        <ele>1932</ele>
        <time>2020-07-07T12:14:55.000Z</time>
      </trkpt>
      <trkpt lat="44.38589" lon="6.39046">
        <ele>1931</ele>
        <time>2020-07-07T12:14:56.000Z</time>
      </trkpt>
      <trkpt lat="44.38589" lon="6.39046">
        <ele>1931</ele>
        <time>2020-07-07T12:14:57.000Z</time>
      </trkpt>
      <trkpt lat="44.3859" lon="6.39045">
        <ele>1930</ele>
        <time>2020-07-07T12:14:58.000Z</time>
      </trkpt>
      <trkpt lat="44.3859" lon="6.39045">
        <ele>1930</ele>
        <time>2020-07-07T12:14:59.000Z</time>
      </trkpt>
      <trkpt lat="44.38591" lon="6.39044">
        <ele>1929</ele>
        <time>2020-07-07T12:15:00.000Z</time>
      </trkpt>
      <trkpt lat="44.38591" lon="6.39043">
        <ele>1929</ele>
        <time>2020-07-07T12:15:01.000Z</time>
      </trkpt>
      <trkpt lat="44.38591" lon="6.39043">
        <ele>1929</ele>
        <time>2020-07-07T12:15:02.000Z</time>
      </trkpt>
      <trkpt lat="44.38591" lon="6.39042">
        <ele>1928</ele>
        <time>2020-07-07T12:15:03.000Z</time>
      </trkpt>
      <trkpt lat="44.38591" lon="6.39042">
        <ele>1928</ele>
        <time>2020-07-07T12:15:04.000Z</time>
      </trkpt>
      <trkpt lat="44.38592" lon="6.39041">
        <ele>1927</ele>
        <time>2020-07-07T12:15:05.000Z</time>
      </trkpt>
      <trkpt lat="44.38592" lon="6.39041">
        <ele>1927</ele>
        <time>2020-07-07T12:15:06.000Z</time>
      </trkpt>
      <trkpt lat="44.38592" lon="6.3904">
        <ele>1927</ele>
        <time>2020-07-07T12:15:07.000Z</time>
      </trkpt>
      <trkpt lat="44.38592" lon="6.39039">
        <ele>1926</ele>
        <time>2020-07-07T12:15:08.000Z</time>
      </trkpt>
      <trkpt lat="44.38592" lon="6.39039">
        <ele>1926</ele>
        <time>2020-07-07T12:15:09.000Z</time>
      </trkpt>
      <trkpt lat="44.38592" lon="6.39038">
        <ele>1926</ele>
        <time>2020-07-07T12:15:10.000Z</time>
      </trkpt>
      <trkpt lat="44.38592" lon="6.39038">
        <ele>1926</ele>
        <time>2020-07-07T12:15:11.000Z</time>
      </trkpt>
      <trkpt lat="44.38592" lon="6.39037">
        <ele>1925</ele>
        <time>2020-07-07T12:15:12.000Z</time>
      </trkpt>
      <trkpt lat="44.38591" lon="6.39036">
        <ele>1925</ele>
        <time>2020-07-07T12:15:13.000Z</time>
      </trkpt>
      <trkpt lat="44.38591" lon="6.39036">
        <ele>1925</ele>
        <time>2020-07-07T12:15:14.000Z</time>
      </trkpt>
      <trkpt lat="44.38591" lon="6.39035">
        <ele>1925</ele>
        <time>2020-07-07T12:15:15.000Z</time>
      </trkpt>
      <trkpt lat="44.3859" lon="6.39034">
        <ele>1924</ele>
        <time>2020-07-07T12:15:16.000Z</time>
      </trkpt>
      <trkpt lat="44.3859" lon="6.39033">
        <ele>1924</ele>
        <time>2020-07-07T12:15:17.000Z</time>
      </trkpt>
      <trkpt lat="44.38589" lon="6.39033">
        <ele>1924</ele>
        <time>2020-07-07T12:15:18.000Z</time>
      </trkpt>
      <trkpt lat="44.38589" lon="6.39032">
        <ele>1924</ele>
        <time>2020-07-07T12:15:19.000Z</time>
      </trkpt>
      <trkpt lat="44.38589" lon="6.39031">
        <ele>1923</ele>
        <time>2020-07-07T12:15:20.000Z</time>
      </trkpt>
      <trkpt lat="44.38589" lon="6.3903">
        <ele>1923</ele>
        <time>2020-07-07T12:15:21.000Z</time>
      </trkpt>
      <trkpt lat="44.38589" lon="6.39029">
        <ele>1923</ele>
        <time>2020-07-07T12:15:22.000Z</time>
      </trkpt>
      <trkpt lat="44.38588" lon="6.39028">
        <ele>1923</ele>
        <time>2020-07-07T12:15:23.000Z</time>
      </trkpt>
      <trkpt lat="44.38588" lon="6.39028">
        <ele>1923</ele>
        <time>2020-07-07T12:15:24.000Z</time>
      </trkpt>
      <trkpt lat="44.38589" lon="6.39027">
        <ele>1922</ele>
        <time>2020-07-07T12:15:25.000Z</time>
      </trkpt>
      <trkpt lat="44.38589" lon="6.39026">
        <ele>1922</ele>
        <time>2020-07-07T12:15:26.000Z</time>
      </trkpt>
      <trkpt lat="44.38588" lon="6.39025">
        <ele>1922</ele>
        <time>2020-07-07T12:15:27.000Z</time>
      </trkpt>
      <trkpt lat="44.38588" lon="6.39024">
        <ele>1922</ele>
        <time>2020-07-07T12:15:28.000Z</time>
      </trkpt>
      <trkpt lat="44.38588" lon="6.39023">
        <ele>1922</ele>
        <time>2020-07-07T12:15:29.000Z</time>
      </trkpt>
      <trkpt lat="44.38588" lon="6.39022">
        <ele>1922</ele>
        <time>2020-07-07T12:15:30.000Z</time>
      </trkpt>
      <trkpt lat="44.38588" lon="6.39021">
        <ele>1922</ele>
        <time>2020-07-07T12:15:31.000Z</time>
      </trkpt>
      <trkpt lat="44.38588" lon="6.39021">
        <ele>1922</ele>
        <time>2020-07-07T12:15:32.000Z</time>
      </trkpt>
      <trkpt lat="44.38588" lon="6.3902">
        <ele>1921</ele>
        <time>2020-07-07T12:15:33.000Z</time>
      </trkpt>
      <trkpt lat="44.38588" lon="6.3902">
        <ele>1921</ele>
        <time>2020-07-07T12:15:34.000Z</time>
      </trkpt>
      <trkpt lat="44.38587" lon="6.39019">
        <ele>1921</ele>
        <time>2020-07-07T12:15:35.000Z</time>
      </trkpt>
      <trkpt lat="44.38587" lon="6.39019">
        <ele>1921</ele>
        <time>2020-07-07T12:15:36.000Z</time>
      </trkpt>
      <trkpt lat="44.38587" lon="6.39019">
        <ele>1921</ele>
        <time>2020-07-07T12:15:37.000Z</time>
      </trkpt>
      <trkpt lat="44.38586" lon="6.39019">
        <ele>1921</ele>
        <time>2020-07-07T12:15:38.000Z</time>
      </trkpt>
      <trkpt lat="44.38586" lon="6.39018">
        <ele>1921</ele>
        <time>2020-07-07T12:15:39.000Z</time>
      </trkpt>
      <trkpt lat="44.38585" lon="6.39018">
        <ele>1921</ele>
        <time>2020-07-07T12:15:40.000Z</time>
      </trkpt>
      <trkpt lat="44.38585" lon="6.39017">
        <ele>1920</ele>
        <time>2020-07-07T12:15:41.000Z</time>
      </trkpt>
      <trkpt lat="44.38585" lon="6.39016">
        <ele>1921</ele>
        <time>2020-07-07T12:15:42.000Z</time>
      </trkpt>
      <trkpt lat="44.38585" lon="6.39015">
        <ele>1921</ele>
        <time>2020-07-07T12:15:43.000Z</time>
      </trkpt>
      <trkpt lat="44.38584" lon="6.39014">
        <ele>1921</ele>
        <time>2020-07-07T12:15:44.000Z</time>
      </trkpt>
      <trkpt lat="44.38584" lon="6.39013">
        <ele>1921</ele>
        <time>2020-07-07T12:15:45.000Z</time>
      </trkpt>
      <trkpt lat="44.38584" lon="6.39013">
        <ele>1921</ele>
        <time>2020-07-07T12:15:46.000Z</time>
      </trkpt>
      <trkpt lat="44.38584" lon="6.39012">
        <ele>1921</ele>
        <time>2020-07-07T12:15:47.000Z</time>
      </trkpt>
      <trkpt lat="44.38583" lon="6.39012">
        <ele>1921</ele>
        <time>2020-07-07T12:15:48.000Z</time>
      </trkpt>
      <trkpt lat="44.38583" lon="6.39011">
        <ele>1921</ele>
        <time>2020-07-07T12:15:49.000Z</time>
      </trkpt>
      <trkpt lat="44.38583" lon="6.39011">
        <ele>1921</ele>
        <time>2020-07-07T12:15:50.000Z</time>
      </trkpt>
      <trkpt lat="44.38583" lon="6.3901">
        <ele>1921</ele>
        <time>2020-07-07T12:15:51.000Z</time>
      </trkpt>
      <trkpt lat="44.38582" lon="6.39009">
        <ele>1921</ele>
        <time>2020-07-07T12:15:52.000Z</time>
      </trkpt>
      <trkpt lat="44.38582" lon="6.39008">
        <ele>1921</ele>
        <time>2020-07-07T12:15:53.000Z</time>
      </trkpt>
      <trkpt lat="44.38582" lon="6.39007">
        <ele>1921</ele>
        <time>2020-07-07T12:15:54.000Z</time>
      </trkpt>
      <trkpt lat="44.38582" lon="6.39005">
        <ele>1921</ele>
        <time>2020-07-07T12:15:55.000Z</time>
      </trkpt>
      <trkpt lat="44.38582" lon="6.39004">
        <ele>1921</ele>
        <time>2020-07-07T12:15:56.000Z</time>
      </trkpt>
      <trkpt lat="44.38581" lon="6.39003">
        <ele>1921</ele>
        <time>2020-07-07T12:15:57.000Z</time>
      </trkpt>
      <trkpt lat="44.38581" lon="6.39003">
        <ele>1921</ele>
        <time>2020-07-07T12:15:58.000Z</time>
      </trkpt>
      <trkpt lat="44.38581" lon="6.39002">
        <ele>1921</ele>
        <time>2020-07-07T12:15:59.000Z</time>
      </trkpt>
      <trkpt lat="44.3858" lon="6.39002">
        <ele>1921</ele>
        <time>2020-07-07T12:16:00.000Z</time>
      </trkpt>
      <trkpt lat="44.3858" lon="6.39001">
        <ele>1921</ele>
        <time>2020-07-07T12:16:01.000Z</time>
      </trkpt>
      <trkpt lat="44.3858" lon="6.39">
        <ele>1921</ele>
        <time>2020-07-07T12:16:02.000Z</time>
      </trkpt>
      <trkpt lat="44.3858" lon="6.38999">
        <ele>1921</ele>
        <time>2020-07-07T12:16:03.000Z</time>
      </trkpt>
      <trkpt lat="44.38579" lon="6.38998">
        <ele>1921</ele>
        <time>2020-07-07T12:16:04.000Z</time>
      </trkpt>
      <trkpt lat="44.38579" lon="6.38996">
        <ele>1921</ele>
        <time>2020-07-07T12:16:05.000Z</time>
      </trkpt>
      <trkpt lat="44.38578" lon="6.38996">
        <ele>1921</ele>
        <time>2020-07-07T12:16:06.000Z</time>
      </trkpt>
      <trkpt lat="44.38578" lon="6.38995">
        <ele>1921</ele>
        <time>2020-07-07T12:16:07.000Z</time>
      </trkpt>
      <trkpt lat="44.38578" lon="6.38995">
        <ele>1921</ele>
        <time>2020-07-07T12:16:08.000Z</time>
      </trkpt>
      <trkpt lat="44.38577" lon="6.38995">
        <ele>1921</ele>
        <time>2020-07-07T12:16:09.000Z</time>
      </trkpt>
      <trkpt lat="44.38576" lon="6.38995">
        <ele>1921</ele>
        <time>2020-07-07T12:16:10.000Z</time>
      </trkpt>
      <trkpt lat="44.38576" lon="6.38995">
        <ele>1921</ele>
        <time>2020-07-07T12:16:11.000Z</time>
      </trkpt>
      <trkpt lat="44.38576" lon="6.38996">
        <ele>1921</ele>
        <time>2020-07-07T12:16:12.000Z</time>
      </trkpt>
      <trkpt lat="44.38575" lon="6.38997">
        <ele>1920</ele>
        <time>2020-07-07T12:16:13.000Z</time>
      </trkpt>
      <trkpt lat="44.38575" lon="6.38998">
        <ele>1920</ele>
        <time>2020-07-07T12:16:14.000Z</time>
      </trkpt>
      <trkpt lat="44.38574" lon="6.38999">
        <ele>1920</ele>
        <time>2020-07-07T12:16:15.000Z</time>
      </trkpt>
      <trkpt lat="44.38574" lon="6.39">
        <ele>1920</ele>
        <time>2020-07-07T12:16:16.000Z</time>
      </trkpt>
      <trkpt lat="44.38574" lon="6.39001">
        <ele>1920</ele>
        <time>2020-07-07T12:16:17.000Z</time>
      </trkpt>
      <trkpt lat="44.38574" lon="6.39003">
        <ele>1920</ele>
        <time>2020-07-07T12:16:18.000Z</time>
      </trkpt>
      <trkpt lat="44.38573" lon="6.39004">
        <ele>1919</ele>
        <time>2020-07-07T12:16:19.000Z</time>
      </trkpt>
      <trkpt lat="44.38573" lon="6.39005">
        <ele>1919</ele>
        <time>2020-07-07T12:16:20.000Z</time>
      </trkpt>
      <trkpt lat="44.38574" lon="6.39006">
        <ele>1919</ele>
        <time>2020-07-07T12:16:21.000Z</time>
      </trkpt>
      <trkpt lat="44.38574" lon="6.39006">
        <ele>1919</ele>
        <time>2020-07-07T12:16:22.000Z</time>
      </trkpt>
      <trkpt lat="44.38574" lon="6.39006">
        <ele>1918</ele>
        <time>2020-07-07T12:16:23.000Z</time>
      </trkpt>
      <trkpt lat="44.38574" lon="6.39006">
        <ele>1918</ele>
        <time>2020-07-07T12:16:24.000Z</time>
      </trkpt>
      <trkpt lat="44.38574" lon="6.39006">
        <ele>1918</ele>
        <time>2020-07-07T12:16:25.000Z</time>
      </trkpt>
      <trkpt lat="44.38574" lon="6.39006">
        <ele>1918</ele>
        <time>2020-07-07T12:16:26.000Z</time>
      </trkpt>
      <trkpt lat="44.38574" lon="6.39006">
        <ele>1918</ele>
        <time>2020-07-07T12:16:27.000Z</time>
      </trkpt>
      <trkpt lat="44.38574" lon="6.39006">
        <ele>1918</ele>
        <time>2020-07-07T12:16:28.000Z</time>
      </trkpt>
      <trkpt lat="44.38574" lon="6.39006">
        <ele>1917</ele>
        <time>2020-07-07T12:16:29.000Z</time>
      </trkpt>
      <trkpt lat="44.38574" lon="6.39006">
        <ele>1917</ele>
        <time>2020-07-07T12:16:30.000Z</time>
      </trkpt>
      <trkpt lat="44.38574" lon="6.39007">
        <ele>1917</ele>
        <time>2020-07-07T12:16:31.000Z</time>
      </trkpt>
      <trkpt lat="44.38574" lon="6.39007">
        <ele>1917</ele>
        <time>2020-07-07T12:16:32.000Z</time>
      </trkpt>
      <trkpt lat="44.38574" lon="6.39007">
        <ele>1917</ele>
        <time>2020-07-07T12:16:33.000Z</time>
      </trkpt>
      <trkpt lat="44.38574" lon="6.39007">
        <ele>1917</ele>
        <time>2020-07-07T12:16:34.000Z</time>
      </trkpt>
      <trkpt lat="44.38574" lon="6.39007">
        <ele>1917</ele>
        <time>2020-07-07T12:16:35.000Z</time>
      </trkpt>
      <trkpt lat="44.38574" lon="6.39007">
        <ele>1917</ele>
        <time>2020-07-07T12:16:36.000Z</time>
      </trkpt>
      <trkpt lat="44.38574" lon="6.39007">
        <ele>1917</ele>
        <time>2020-07-07T12:16:37.000Z</time>
      </trkpt>
      <trkpt lat="44.38574" lon="6.39007">
        <ele>1917</ele>
        <time>2020-07-07T12:16:38.000Z</time>
      </trkpt>
      <trkpt lat="44.38574" lon="6.39007">
        <ele>1917</ele>
        <time>2020-07-07T12:16:39.000Z</time>
      </trkpt>
      <trkpt lat="44.38574" lon="6.39007">
        <ele>1916</ele>
        <time>2020-07-07T12:16:40.000Z</time>
      </trkpt>
      <trkpt lat="44.38574" lon="6.39007">
        <ele>1916</ele>
        <time>2020-07-07T12:16:41.000Z</time>
      </trkpt>
      <trkpt lat="44.38575" lon="6.39008">
        <ele>1916</ele>
        <time>2020-07-07T12:16:42.000Z</time>
      </trkpt>
      <trkpt lat="44.38575" lon="6.39008">
        <ele>1916</ele>
        <time>2020-07-07T12:16:43.000Z</time>
      </trkpt>
      <trkpt lat="44.38575" lon="6.39008">
        <ele>1916</ele>
        <time>2020-07-07T12:16:44.000Z</time>
      </trkpt>
      <trkpt lat="44.38575" lon="6.39008">
        <ele>1916</ele>
        <time>2020-07-07T12:16:45.000Z</time>
      </trkpt>
      <trkpt lat="44.38575" lon="6.39007">
        <ele>1916</ele>
        <time>2020-07-07T12:16:46.000Z</time>
      </trkpt>
      <trkpt lat="44.38575" lon="6.39007">
        <ele>1915</ele>
        <time>2020-07-07T12:16:47.000Z</time>
      </trkpt>
      <trkpt lat="44.38575" lon="6.39008">
        <ele>1915</ele>
        <time>2020-07-07T12:16:48.000Z</time>
      </trkpt>
      <trkpt lat="44.38575" lon="6.39007">
        <ele>1915</ele>
        <time>2020-07-07T12:16:49.000Z</time>
      </trkpt>
      <trkpt lat="44.38575" lon="6.39007">
        <ele>1915</ele>
        <time>2020-07-07T12:16:50.000Z</time>
      </trkpt>
      <trkpt lat="44.38575" lon="6.39007">
        <ele>1915</ele>
        <time>2020-07-07T12:16:51.000Z</time>
      </trkpt>
      <trkpt lat="44.38575" lon="6.39007">
        <ele>1915</ele>
        <time>2020-07-07T12:16:52.000Z</time>
      </trkpt>
      <trkpt lat="44.38575" lon="6.39007">
        <ele>1915</ele>
        <time>2020-07-07T12:16:53.000Z</time>
      </trkpt>
      <trkpt lat="44.38575" lon="6.39007">
        <ele>1916</ele>
        <time>2020-07-07T12:16:54.000Z</time>
      </trkpt>
      <trkpt lat="44.38574" lon="6.39007">
        <ele>1916</ele>
        <time>2020-07-07T12:16:55.000Z</time>
      </trkpt>
      <trkpt lat="44.38574" lon="6.39007">
        <ele>1916</ele>
        <time>2020-07-07T12:16:56.000Z</time>
      </trkpt>
      <trkpt lat="44.38574" lon="6.39008">
        <ele>1916</ele>
        <time>2020-07-07T12:16:57.000Z</time>
      </trkpt>
      <trkpt lat="44.38574" lon="6.39008">
        <ele>1916</ele>
        <time>2020-07-07T12:16:58.000Z</time>
      </trkpt>
      <trkpt lat="44.38573" lon="6.39008">
        <ele>1916</ele>
        <time>2020-07-07T12:16:59.000Z</time>
      </trkpt>
      <trkpt lat="44.38573" lon="6.39008">
        <ele>1916</ele>
        <time>2020-07-07T12:17:00.000Z</time>
      </trkpt>
      <trkpt lat="44.38573" lon="6.39008">
        <ele>1916</ele>
        <time>2020-07-07T12:17:01.000Z</time>
      </trkpt>
      <trkpt lat="44.38573" lon="6.39008">
        <ele>1916</ele>
        <time>2020-07-07T12:17:02.000Z</time>
      </trkpt>
      <trkpt lat="44.38573" lon="6.39008">
        <ele>1916</ele>
        <time>2020-07-07T12:17:03.000Z</time>
      </trkpt>
      <trkpt lat="44.38573" lon="6.39008">
        <ele>1916</ele>
        <time>2020-07-07T12:17:04.000Z</time>
      </trkpt>
      <trkpt lat="44.38573" lon="6.39008">
        <ele>1916</ele>
        <time>2020-07-07T12:17:05.000Z</time>
      </trkpt>
      <trkpt lat="44.38573" lon="6.39009">
        <ele>1916</ele>
        <time>2020-07-07T12:17:06.000Z</time>
      </trkpt>
      <trkpt lat="44.38573" lon="6.39009">
        <ele>1916</ele>
        <time>2020-07-07T12:17:07.000Z</time>
      </trkpt>
      <trkpt lat="44.38573" lon="6.39009">
        <ele>1916</ele>
        <time>2020-07-07T12:17:08.000Z</time>
      </trkpt>
      <trkpt lat="44.38573" lon="6.39009">
        <ele>1916</ele>
        <time>2020-07-07T12:17:09.000Z</time>
      </trkpt>
      <trkpt lat="44.38573" lon="6.3901">
        <ele>1916</ele>
        <time>2020-07-07T12:17:10.000Z</time>
      </trkpt>
      <trkpt lat="44.38573" lon="6.3901">
        <ele>1916</ele>
        <time>2020-07-07T12:17:11.000Z</time>
      </trkpt>
      <trkpt lat="44.38573" lon="6.39011">
        <ele>1916</ele>
        <time>2020-07-07T12:17:12.000Z</time>
      </trkpt>
      <trkpt lat="44.38573" lon="6.39011">
        <ele>1916</ele>
        <time>2020-07-07T12:17:13.000Z</time>
      </trkpt>
      <trkpt lat="44.38572" lon="6.39011">
        <ele>1916</ele>
        <time>2020-07-07T12:17:14.000Z</time>
      </trkpt>
      <trkpt lat="44.38572" lon="6.39011">
        <ele>1916</ele>
        <time>2020-07-07T12:17:15.000Z</time>
      </trkpt>
      <trkpt lat="44.38572" lon="6.39011">
        <ele>1916</ele>
        <time>2020-07-07T12:17:16.000Z</time>
      </trkpt>
      <trkpt lat="44.38572" lon="6.39011">
        <ele>1915</ele>
        <time>2020-07-07T12:17:17.000Z</time>
      </trkpt>
      <trkpt lat="44.38573" lon="6.39011">
        <ele>1915</ele>
        <time>2020-07-07T12:17:18.000Z</time>
      </trkpt>
      <trkpt lat="44.38573" lon="6.39011">
        <ele>1915</ele>
        <time>2020-07-07T12:17:19.000Z</time>
      </trkpt>
      <trkpt lat="44.38573" lon="6.39011">
        <ele>1915</ele>
        <time>2020-07-07T12:17:20.000Z</time>
      </trkpt>
      <trkpt lat="44.38574" lon="6.39012">
        <ele>1915</ele>
        <time>2020-07-07T12:17:21.000Z</time>
      </trkpt>
      <trkpt lat="44.38574" lon="6.39012">
        <ele>1915</ele>
        <time>2020-07-07T12:17:22.000Z</time>
      </trkpt>
      <trkpt lat="44.38575" lon="6.39012">
        <ele>1914</ele>
        <time>2020-07-07T12:17:23.000Z</time>
      </trkpt>
      <trkpt lat="44.38575" lon="6.39011">
        <ele>1914</ele>
        <time>2020-07-07T12:17:24.000Z</time>
      </trkpt>
      <trkpt lat="44.38576" lon="6.39011">
        <ele>1914</ele>
        <time>2020-07-07T12:17:25.000Z</time>
      </trkpt>
      <trkpt lat="44.38576" lon="6.3901">
        <ele>1914</ele>
        <time>2020-07-07T12:17:26.000Z</time>
      </trkpt>
      <trkpt lat="44.38576" lon="6.3901">
        <ele>1914</ele>
        <time>2020-07-07T12:17:27.000Z</time>
      </trkpt>
      <trkpt lat="44.38576" lon="6.3901">
        <ele>1914</ele>
        <time>2020-07-07T12:17:28.000Z</time>
      </trkpt>
      <trkpt lat="44.38575" lon="6.39009">
        <ele>1914</ele>
        <time>2020-07-07T12:17:29.000Z</time>
      </trkpt>
      <trkpt lat="44.38575" lon="6.39009">
        <ele>1914</ele>
        <time>2020-07-07T12:17:30.000Z</time>
      </trkpt>
      <trkpt lat="44.38575" lon="6.39009">
        <ele>1914</ele>
        <time>2020-07-07T12:17:31.000Z</time>
      </trkpt>
      <trkpt lat="44.38575" lon="6.39009">
        <ele>1914</ele>
        <time>2020-07-07T12:17:32.000Z</time>
      </trkpt>
      <trkpt lat="44.38575" lon="6.39009">
        <ele>1914</ele>
        <time>2020-07-07T12:17:33.000Z</time>
      </trkpt>
      <trkpt lat="44.38576" lon="6.39008">
        <ele>1914</ele>
        <time>2020-07-07T12:17:34.000Z</time>
      </trkpt>
      <trkpt lat="44.38576" lon="6.39008">
        <ele>1913</ele>
        <time>2020-07-07T12:17:35.000Z</time>
      </trkpt>
      <trkpt lat="44.38577" lon="6.39008">
        <ele>1913</ele>
        <time>2020-07-07T12:17:36.000Z</time>
      </trkpt>
      <trkpt lat="44.38577" lon="6.39008">
        <ele>1913</ele>
        <time>2020-07-07T12:17:37.000Z</time>
      </trkpt>
      <trkpt lat="44.38577" lon="6.39008">
        <ele>1913</ele>
        <time>2020-07-07T12:17:38.000Z</time>
      </trkpt>
      <trkpt lat="44.38577" lon="6.39008">
        <ele>1913</ele>
        <time>2020-07-07T12:17:39.000Z</time>
      </trkpt>
      <trkpt lat="44.38577" lon="6.39007">
        <ele>1913</ele>
        <time>2020-07-07T12:17:40.000Z</time>
      </trkpt>
      <trkpt lat="44.38576" lon="6.39007">
        <ele>1912</ele>
        <time>2020-07-07T12:17:41.000Z</time>
      </trkpt>
      <trkpt lat="44.38575" lon="6.39007">
        <ele>1912</ele>
        <time>2020-07-07T12:17:42.000Z</time>
      </trkpt>
      <trkpt lat="44.38575" lon="6.39006">
        <ele>1912</ele>
        <time>2020-07-07T12:17:43.000Z</time>
      </trkpt>
      <trkpt lat="44.38574" lon="6.39005">
        <ele>1912</ele>
        <time>2020-07-07T12:17:44.000Z</time>
      </trkpt>
      <trkpt lat="44.38574" lon="6.39005">
        <ele>1912</ele>
        <time>2020-07-07T12:17:45.000Z</time>
      </trkpt>
      <trkpt lat="44.38574" lon="6.39005">
        <ele>1911</ele>
        <time>2020-07-07T12:17:46.000Z</time>
      </trkpt>
      <trkpt lat="44.38573" lon="6.39005">
        <ele>1911</ele>
        <time>2020-07-07T12:17:47.000Z</time>
      </trkpt>
    </trkseg>
  </trk>
</gpx>